<?xml version="1.0" encoding="UTF-8" standalone="no" ?>
<gpx xmlns="http://www.topografix.com/GPX/1/1" xmlns:xsi="http://www.w3.org/2001/XMLSchema-instance" xsi:schemaLocation="http://www.topografix.com/GPX/1/1 http://www.topografix.com/GPX/1/1/gpx.xsd" version="1.1" creator="VisuGPX - https://www.visugpx.com">
  <metadata>
    <name>RoadTrip Moto Ecosse Juin 2021 - V3</name>
  </metadata>
  <trk>
    <name><![CDATA[J00 - Paris - IJmuiden]]></name>
    <extensions>
      <line xmlns="http://www.topografix.com/GPX/gpx_style/0/2">
        <color>0000FF</color>
        <width>4</width>
      </line>
    </extensions>
    <trkseg>
      <trkpt lat="48.85889" lon="2.32003">
        <ele>43.44</ele>
        <time>2021-03-20T14:24:03Z</time>
      </trkpt>
      <trkpt lat="48.8572" lon="2.31877">
        <ele>46.87</ele>
        <time>2021-03-20T14:24:47Z</time>
      </trkpt>
      <trkpt lat="48.85741" lon="2.31811">
        <ele>48.39</ele>
        <time>2021-03-20T14:24:53Z</time>
      </trkpt>
      <trkpt lat="48.85756" lon="2.31752">
        <ele>45.39</ele>
        <time>2021-03-20T14:25:00Z</time>
      </trkpt>
      <trkpt lat="48.85778" lon="2.31656">
        <ele>41.01</ele>
        <time>2021-03-20T14:25:07Z</time>
      </trkpt>
      <trkpt lat="48.85796" lon="2.31537">
        <ele>40.67</ele>
        <time>2021-03-20T14:25:13Z</time>
      </trkpt>
      <trkpt lat="48.85794" lon="2.31515">
        <ele>39.34</ele>
        <time>2021-03-20T14:25:20Z</time>
      </trkpt>
      <trkpt lat="48.85804" lon="2.3147">
        <ele>38.95</ele>
        <time>2021-03-20T14:25:22Z</time>
      </trkpt>
      <trkpt lat="48.8581" lon="2.31456">
        <ele>39.73</ele>
        <time>2021-03-20T14:25:25Z</time>
      </trkpt>
      <trkpt lat="48.8582" lon="2.31445">
        <ele>40.47</ele>
        <time>2021-03-20T14:25:27Z</time>
      </trkpt>
      <trkpt lat="48.85834" lon="2.31464">
        <ele>40.26</ele>
        <time>2021-03-20T14:25:43Z</time>
      </trkpt>
      <trkpt lat="48.85837" lon="2.31465">
        <ele>39.95</ele>
        <time>2021-03-20T14:25:58Z</time>
      </trkpt>
      <trkpt lat="48.86097" lon="2.31497">
        <ele>39.19</ele>
        <time>2021-03-20T14:26:14Z</time>
      </trkpt>
      <trkpt lat="48.86289" lon="2.31517">
        <ele>34.6</ele>
        <time>2021-03-20T14:26:29Z</time>
      </trkpt>
      <trkpt lat="48.86291" lon="2.31764">
        <ele>49.38</ele>
        <time>2021-03-20T14:26:38Z</time>
      </trkpt>
      <trkpt lat="48.86289" lon="2.31795">
        <ele>39.22</ele>
        <time>2021-03-20T14:26:47Z</time>
      </trkpt>
      <trkpt lat="48.86275" lon="2.31827">
        <ele>27.53</ele>
        <time>2021-03-20T14:26:56Z</time>
      </trkpt>
      <trkpt lat="48.86253" lon="2.31899">
        <ele>33.71</ele>
        <time>2021-03-20T14:27:05Z</time>
      </trkpt>
      <trkpt lat="48.86407" lon="2.32012">
        <ele>30.08</ele>
        <time>2021-03-20T14:27:28Z</time>
      </trkpt>
      <trkpt lat="48.86415" lon="2.32034">
        <ele>31.25</ele>
        <time>2021-03-20T14:27:31Z</time>
      </trkpt>
      <trkpt lat="48.86447" lon="2.32055">
        <ele>34.09</ele>
        <time>2021-03-20T14:27:34Z</time>
      </trkpt>
      <trkpt lat="48.86466" lon="2.32075">
        <ele>34.78</ele>
        <time>2021-03-20T14:27:37Z</time>
      </trkpt>
      <trkpt lat="48.86467" lon="2.32087">
        <ele>34.95</ele>
        <time>2021-03-20T14:27:40Z</time>
      </trkpt>
      <trkpt lat="48.86472" lon="2.32102">
        <ele>35.64</ele>
        <time>2021-03-20T14:27:44Z</time>
      </trkpt>
      <trkpt lat="48.86482" lon="2.32116">
        <ele>35.77</ele>
        <time>2021-03-20T14:27:47Z</time>
      </trkpt>
      <trkpt lat="48.86508" lon="2.32138">
        <ele>36.01</ele>
        <time>2021-03-20T14:27:50Z</time>
      </trkpt>
      <trkpt lat="48.86561" lon="2.32176">
        <ele>34.33</ele>
        <time>2021-03-20T14:27:53Z</time>
      </trkpt>
      <trkpt lat="48.86597" lon="2.32196">
        <ele>36.44</ele>
        <time>2021-03-20T14:27:56Z</time>
      </trkpt>
      <trkpt lat="48.86604" lon="2.32197">
        <ele>37.24</ele>
        <time>2021-03-20T14:27:59Z</time>
      </trkpt>
      <trkpt lat="48.86662" lon="2.32197">
        <ele>42.58</ele>
        <time>2021-03-20T14:28:22Z</time>
      </trkpt>
      <trkpt lat="48.86926" lon="2.3239">
        <ele>44.67</ele>
        <time>2021-03-20T14:28:45Z</time>
      </trkpt>
      <trkpt lat="48.86921" lon="2.32408">
        <ele>43.85</ele>
        <time>2021-03-20T14:28:58Z</time>
      </trkpt>
      <trkpt lat="48.86925" lon="2.32438">
        <ele>41.45</ele>
        <time>2021-03-20T14:29:11Z</time>
      </trkpt>
      <trkpt lat="48.86951" lon="2.32579">
        <ele>44.37</ele>
        <time>2021-03-20T14:29:24Z</time>
      </trkpt>
      <trkpt lat="48.86957" lon="2.32587">
        <ele>45.19</ele>
        <time>2021-03-20T14:29:37Z</time>
      </trkpt>
      <trkpt lat="48.8701" lon="2.32905">
        <ele>49.69</ele>
        <time>2021-03-20T14:29:50Z</time>
      </trkpt>
      <trkpt lat="48.87069" lon="2.33255">
        <ele>47.9</ele>
        <time>2021-03-20T14:30:03Z</time>
      </trkpt>
      <trkpt lat="48.87116" lon="2.33234">
        <ele>50.02</ele>
        <time>2021-03-20T14:30:23Z</time>
      </trkpt>
      <trkpt lat="48.8728" lon="2.33307">
        <ele>44.77</ele>
        <time>2021-03-20T14:30:43Z</time>
      </trkpt>
      <trkpt lat="48.87295" lon="2.3333">
        <ele>43.12</ele>
        <time>2021-03-20T14:31:04Z</time>
      </trkpt>
      <trkpt lat="48.8731" lon="2.33344">
        <ele>42.37</ele>
        <time>2021-03-20T14:31:24Z</time>
      </trkpt>
      <trkpt lat="48.87315" lon="2.33353">
        <ele>42.71</ele>
        <time>2021-03-20T14:31:44Z</time>
      </trkpt>
      <trkpt lat="48.87362" lon="2.33532">
        <ele>50.22</ele>
        <time>2021-03-20T14:32:04Z</time>
      </trkpt>
      <trkpt lat="48.87418" lon="2.3375">
        <ele>43.06</ele>
        <time>2021-03-20T14:32:24Z</time>
      </trkpt>
      <trkpt lat="48.87583" lon="2.34368">
        <ele>46.72</ele>
        <time>2021-03-20T14:32:44Z</time>
      </trkpt>
      <trkpt lat="48.87603" lon="2.34452">
        <ele>47.08</ele>
        <time>2021-03-20T14:33:04Z</time>
      </trkpt>
      <trkpt lat="48.87778" lon="2.35126">
        <ele>53.5</ele>
        <time>2021-03-20T14:33:24Z</time>
      </trkpt>
      <trkpt lat="48.87849" lon="2.35393">
        <ele>60.12</ele>
        <time>2021-03-20T14:33:44Z</time>
      </trkpt>
      <trkpt lat="48.87853" lon="2.35404">
        <ele>60.42</ele>
        <time>2021-03-20T14:34:04Z</time>
      </trkpt>
      <trkpt lat="48.87931" lon="2.35708">
        <ele>62</ele>
        <time>2021-03-20T14:34:24Z</time>
      </trkpt>
      <trkpt lat="48.88008" lon="2.35992">
        <ele>49.46</ele>
        <time>2021-03-20T14:34:45Z</time>
      </trkpt>
      <trkpt lat="48.88073" lon="2.36242">
        <ele>61.91</ele>
        <time>2021-03-20T14:35:05Z</time>
      </trkpt>
      <trkpt lat="48.88094" lon="2.36324">
        <ele>60.17</ele>
        <time>2021-03-20T14:35:25Z</time>
      </trkpt>
      <trkpt lat="48.88161" lon="2.36579">
        <ele>57.5</ele>
        <time>2021-03-20T14:35:45Z</time>
      </trkpt>
      <trkpt lat="48.88253" lon="2.36693">
        <ele>56.94</ele>
        <time>2021-03-20T14:35:58Z</time>
      </trkpt>
      <trkpt lat="48.88385" lon="2.3686">
        <ele>58.74</ele>
        <time>2021-03-20T14:36:11Z</time>
      </trkpt>
      <trkpt lat="48.88403" lon="2.36884">
        <ele>56.14</ele>
        <time>2021-03-20T14:36:24Z</time>
      </trkpt>
      <trkpt lat="48.88438" lon="2.3692">
        <ele>55.31</ele>
        <time>2021-03-20T14:36:37Z</time>
      </trkpt>
      <trkpt lat="48.88464" lon="2.36954">
        <ele>55.56</ele>
        <time>2021-03-20T14:36:49Z</time>
      </trkpt>
      <trkpt lat="48.88826" lon="2.37397">
        <ele>56.93</ele>
        <time>2021-03-20T14:37:02Z</time>
      </trkpt>
      <trkpt lat="48.88984" lon="2.37596">
        <ele>55.22</ele>
        <time>2021-03-20T14:37:15Z</time>
      </trkpt>
      <trkpt lat="48.89113" lon="2.37756">
        <ele>53.79</ele>
        <time>2021-03-20T14:37:28Z</time>
      </trkpt>
      <trkpt lat="48.89231" lon="2.37912">
        <ele>53.95</ele>
        <time>2021-03-20T14:37:41Z</time>
      </trkpt>
      <trkpt lat="48.89432" lon="2.38171">
        <ele>52.69</ele>
        <time>2021-03-20T14:37:54Z</time>
      </trkpt>
      <trkpt lat="48.89437" lon="2.38181">
        <ele>53.15</ele>
        <time>2021-03-20T14:38:07Z</time>
      </trkpt>
      <trkpt lat="48.89468" lon="2.38222">
        <ele>54.17</ele>
        <time>2021-03-20T14:38:20Z</time>
      </trkpt>
      <trkpt lat="48.89474" lon="2.38227">
        <ele>54.07</ele>
        <time>2021-03-20T14:38:33Z</time>
      </trkpt>
      <trkpt lat="48.89514" lon="2.38274">
        <ele>52.55</ele>
        <time>2021-03-20T14:38:46Z</time>
      </trkpt>
      <trkpt lat="48.89582" lon="2.38359">
        <ele>49.12</ele>
        <time>2021-03-20T14:38:59Z</time>
      </trkpt>
      <trkpt lat="48.89604" lon="2.38401">
        <ele>49.32</ele>
        <time>2021-03-20T14:39:12Z</time>
      </trkpt>
      <trkpt lat="48.89615" lon="2.38417">
        <ele>51.3</ele>
        <time>2021-03-20T14:39:24Z</time>
      </trkpt>
      <trkpt lat="48.8977" lon="2.38581">
        <ele>49.9</ele>
        <time>2021-03-20T14:39:37Z</time>
      </trkpt>
      <trkpt lat="48.89802" lon="2.38611">
        <ele>47.15</ele>
        <time>2021-03-20T14:39:50Z</time>
      </trkpt>
      <trkpt lat="48.8985" lon="2.38658">
        <ele>47.27</ele>
        <time>2021-03-20T14:40:03Z</time>
      </trkpt>
      <trkpt lat="48.89958" lon="2.38771">
        <ele>44</ele>
        <time>2021-03-20T14:40:16Z</time>
      </trkpt>
      <trkpt lat="48.89999" lon="2.38818">
        <ele>44.45</ele>
        <time>2021-03-20T14:40:29Z</time>
      </trkpt>
      <trkpt lat="48.9001" lon="2.38826">
        <ele>44.57</ele>
        <time>2021-03-20T14:40:42Z</time>
      </trkpt>
      <trkpt lat="48.90033" lon="2.38838">
        <ele>44.35</ele>
        <time>2021-03-20T14:40:55Z</time>
      </trkpt>
      <trkpt lat="48.90044" lon="2.38845">
        <ele>45.19</ele>
        <time>2021-03-20T14:40:59Z</time>
      </trkpt>
      <trkpt lat="48.90053" lon="2.38847">
        <ele>45.79</ele>
        <time>2021-03-20T14:41:02Z</time>
      </trkpt>
      <trkpt lat="48.90112" lon="2.38937">
        <ele>50.15</ele>
        <time>2021-03-20T14:41:06Z</time>
      </trkpt>
      <trkpt lat="48.90121" lon="2.38947">
        <ele>48.92</ele>
        <time>2021-03-20T14:41:09Z</time>
      </trkpt>
      <trkpt lat="48.90158" lon="2.38989">
        <ele>46.72</ele>
        <time>2021-03-20T14:41:13Z</time>
      </trkpt>
      <trkpt lat="48.90211" lon="2.39039">
        <ele>46.58</ele>
        <time>2021-03-20T14:41:30Z</time>
      </trkpt>
      <trkpt lat="48.90492" lon="2.39346">
        <ele>45.28</ele>
        <time>2021-03-20T14:41:47Z</time>
      </trkpt>
      <trkpt lat="48.9051" lon="2.39369">
        <ele>45</ele>
        <time>2021-03-20T14:42:04Z</time>
      </trkpt>
      <trkpt lat="48.9053" lon="2.39392">
        <ele>45.1</ele>
        <time>2021-03-20T14:42:22Z</time>
      </trkpt>
      <trkpt lat="48.90533" lon="2.39398">
        <ele>45.31</ele>
        <time>2021-03-20T14:42:39Z</time>
      </trkpt>
      <trkpt lat="48.90604" lon="2.39479">
        <ele>45.26</ele>
        <time>2021-03-20T14:42:56Z</time>
      </trkpt>
      <trkpt lat="48.9064" lon="2.39514">
        <ele>46.58</ele>
        <time>2021-03-20T14:43:13Z</time>
      </trkpt>
      <trkpt lat="48.90655" lon="2.39522">
        <ele>47.22</ele>
        <time>2021-03-20T14:43:30Z</time>
      </trkpt>
      <trkpt lat="48.90668" lon="2.39536">
        <ele>47.97</ele>
        <time>2021-03-20T14:43:48Z</time>
      </trkpt>
      <trkpt lat="48.91353" lon="2.40279">
        <ele>46.23</ele>
        <time>2021-03-20T14:44:05Z</time>
      </trkpt>
      <trkpt lat="48.91381" lon="2.40318">
        <ele>42.81</ele>
        <time>2021-03-20T14:44:22Z</time>
      </trkpt>
      <trkpt lat="48.91449" lon="2.40394">
        <ele>39.97</ele>
        <time>2021-03-20T14:44:39Z</time>
      </trkpt>
      <trkpt lat="48.91655" lon="2.40616">
        <ele>40.34</ele>
        <time>2021-03-20T14:44:56Z</time>
      </trkpt>
      <trkpt lat="48.91808" lon="2.40777">
        <ele>41</ele>
        <time>2021-03-20T14:45:14Z</time>
      </trkpt>
      <trkpt lat="48.91882" lon="2.40858">
        <ele>40.75</ele>
        <time>2021-03-20T14:45:31Z</time>
      </trkpt>
      <trkpt lat="48.91904" lon="2.40879">
        <ele>40.9</ele>
        <time>2021-03-20T14:45:42Z</time>
      </trkpt>
      <trkpt lat="48.91995" lon="2.40974">
        <ele>40.77</ele>
        <time>2021-03-20T14:45:54Z</time>
      </trkpt>
      <trkpt lat="48.92187" lon="2.41186">
        <ele>41</ele>
        <time>2021-03-20T14:46:06Z</time>
      </trkpt>
      <trkpt lat="48.9224" lon="2.41242">
        <ele>42.89</ele>
        <time>2021-03-20T14:46:17Z</time>
      </trkpt>
      <trkpt lat="48.92325" lon="2.41337">
        <ele>41</ele>
        <time>2021-03-20T14:46:29Z</time>
      </trkpt>
      <trkpt lat="48.92418" lon="2.41435">
        <ele>41.06</ele>
        <time>2021-03-20T14:46:41Z</time>
      </trkpt>
      <trkpt lat="48.92481" lon="2.41507">
        <ele>43</ele>
        <time>2021-03-20T14:46:52Z</time>
      </trkpt>
      <trkpt lat="48.92575" lon="2.41607">
        <ele>44.14</ele>
        <time>2021-03-20T14:47:04Z</time>
      </trkpt>
      <trkpt lat="48.92647" lon="2.41689">
        <ele>41.14</ele>
        <time>2021-03-20T14:47:16Z</time>
      </trkpt>
      <trkpt lat="48.92748" lon="2.41799">
        <ele>42.76</ele>
        <time>2021-03-20T14:47:27Z</time>
      </trkpt>
      <trkpt lat="48.92755" lon="2.41814">
        <ele>43.41</ele>
        <time>2021-03-20T14:47:39Z</time>
      </trkpt>
      <trkpt lat="48.92775" lon="2.41834">
        <ele>44.01</ele>
        <time>2021-03-20T14:47:51Z</time>
      </trkpt>
      <trkpt lat="48.928" lon="2.41857">
        <ele>44.19</ele>
        <time>2021-03-20T14:48:00Z</time>
      </trkpt>
      <trkpt lat="48.92861" lon="2.41925">
        <ele>44.98</ele>
        <time>2021-03-20T14:48:10Z</time>
      </trkpt>
      <trkpt lat="48.92963" lon="2.42032">
        <ele>45.36</ele>
        <time>2021-03-20T14:48:19Z</time>
      </trkpt>
      <trkpt lat="48.93094" lon="2.42173">
        <ele>43.39</ele>
        <time>2021-03-20T14:48:29Z</time>
      </trkpt>
      <trkpt lat="48.93164" lon="2.42253">
        <ele>45.09</ele>
        <time>2021-03-20T14:48:39Z</time>
      </trkpt>
      <trkpt lat="48.93225" lon="2.42319">
        <ele>47</ele>
        <time>2021-03-20T14:48:48Z</time>
      </trkpt>
      <trkpt lat="48.93259" lon="2.42351">
        <ele>47.94</ele>
        <time>2021-03-20T14:48:58Z</time>
      </trkpt>
      <trkpt lat="48.9327" lon="2.42368">
        <ele>48.86</ele>
        <time>2021-03-20T14:49:07Z</time>
      </trkpt>
      <trkpt lat="48.93315" lon="2.42418">
        <ele>48.26</ele>
        <time>2021-03-20T14:49:17Z</time>
      </trkpt>
      <trkpt lat="48.93523" lon="2.42636">
        <ele>41.89</ele>
        <time>2021-03-20T14:49:27Z</time>
      </trkpt>
      <trkpt lat="48.93596" lon="2.42701">
        <ele>41.43</ele>
        <time>2021-03-20T14:49:36Z</time>
      </trkpt>
      <trkpt lat="48.93629" lon="2.42734">
        <ele>41.22</ele>
        <time>2021-03-20T14:49:46Z</time>
      </trkpt>
      <trkpt lat="48.9374" lon="2.42834">
        <ele>39.74</ele>
        <time>2021-03-20T14:49:56Z</time>
      </trkpt>
      <trkpt lat="48.93741" lon="2.42841">
        <ele>39.68</ele>
        <time>2021-03-20T14:50:04Z</time>
      </trkpt>
      <trkpt lat="48.93745" lon="2.42845">
        <ele>39.4</ele>
        <time>2021-03-20T14:50:12Z</time>
      </trkpt>
      <trkpt lat="48.93887" lon="2.42972">
        <ele>47.89</ele>
        <time>2021-03-20T14:50:20Z</time>
      </trkpt>
      <trkpt lat="48.94076" lon="2.43147">
        <ele>47.74</ele>
        <time>2021-03-20T14:50:28Z</time>
      </trkpt>
      <trkpt lat="48.94105" lon="2.4317">
        <ele>48</ele>
        <time>2021-03-20T14:50:36Z</time>
      </trkpt>
      <trkpt lat="48.94154" lon="2.43215">
        <ele>45.71</ele>
        <time>2021-03-20T14:50:44Z</time>
      </trkpt>
      <trkpt lat="48.9421" lon="2.43258">
        <ele>43.71</ele>
        <time>2021-03-20T14:50:52Z</time>
      </trkpt>
      <trkpt lat="48.94218" lon="2.43281">
        <ele>44.27</ele>
        <time>2021-03-20T14:51:04Z</time>
      </trkpt>
      <trkpt lat="48.94242" lon="2.43339">
        <ele>46.26</ele>
        <time>2021-03-20T14:51:15Z</time>
      </trkpt>
      <trkpt lat="48.94285" lon="2.43455">
        <ele>47.63</ele>
        <time>2021-03-20T14:51:27Z</time>
      </trkpt>
      <trkpt lat="48.94315" lon="2.43517">
        <ele>45.3</ele>
        <time>2021-03-20T14:51:39Z</time>
      </trkpt>
      <trkpt lat="48.94332" lon="2.43557">
        <ele>44.17</ele>
        <time>2021-03-20T14:51:51Z</time>
      </trkpt>
      <trkpt lat="48.94346" lon="2.4357">
        <ele>44.06</ele>
        <time>2021-03-20T14:52:03Z</time>
      </trkpt>
      <trkpt lat="48.94426" lon="2.43759">
        <ele>44.89</ele>
        <time>2021-03-20T14:52:15Z</time>
      </trkpt>
      <trkpt lat="48.94486" lon="2.43885">
        <ele>44.48</ele>
        <time>2021-03-20T14:52:26Z</time>
      </trkpt>
      <trkpt lat="48.94522" lon="2.43958">
        <ele>45.31</ele>
        <time>2021-03-20T14:52:38Z</time>
      </trkpt>
      <trkpt lat="48.94632" lon="2.44163">
        <ele>44.53</ele>
        <time>2021-03-20T14:52:50Z</time>
      </trkpt>
      <trkpt lat="48.95047" lon="2.44934">
        <ele>43.4</ele>
        <time>2021-03-20T14:53:02Z</time>
      </trkpt>
      <trkpt lat="48.95224" lon="2.45268">
        <ele>45.67</ele>
        <time>2021-03-20T14:53:14Z</time>
      </trkpt>
      <trkpt lat="48.95599" lon="2.45963">
        <ele>43</ele>
        <time>2021-03-20T14:53:26Z</time>
      </trkpt>
      <trkpt lat="48.95742" lon="2.46228">
        <ele>45.98</ele>
        <time>2021-03-20T14:53:38Z</time>
      </trkpt>
      <trkpt lat="48.95773" lon="2.46289">
        <ele>46.19</ele>
        <time>2021-03-20T14:53:49Z</time>
      </trkpt>
      <trkpt lat="48.95956" lon="2.46623">
        <ele>49.67</ele>
        <time>2021-03-20T14:54:01Z</time>
      </trkpt>
      <trkpt lat="48.96059" lon="2.46803">
        <ele>54.15</ele>
        <time>2021-03-20T14:54:13Z</time>
      </trkpt>
      <trkpt lat="48.96104" lon="2.46875">
        <ele>53.86</ele>
        <time>2021-03-20T14:54:25Z</time>
      </trkpt>
      <trkpt lat="48.96393" lon="2.47314">
        <ele>53.15</ele>
        <time>2021-03-20T14:54:37Z</time>
      </trkpt>
      <trkpt lat="48.96399" lon="2.4734">
        <ele>53.85</ele>
        <time>2021-03-20T14:54:44Z</time>
      </trkpt>
      <trkpt lat="48.96422" lon="2.47383">
        <ele>56.63</ele>
        <time>2021-03-20T14:54:52Z</time>
      </trkpt>
      <trkpt lat="48.96453" lon="2.47432">
        <ele>57</ele>
        <time>2021-03-20T14:55:00Z</time>
      </trkpt>
      <trkpt lat="48.96472" lon="2.47469">
        <ele>56.99</ele>
        <time>2021-03-20T14:55:07Z</time>
      </trkpt>
      <trkpt lat="48.96479" lon="2.47487">
        <ele>56.84</ele>
        <time>2021-03-20T14:55:15Z</time>
      </trkpt>
      <trkpt lat="48.9659" lon="2.47717">
        <ele>60.73</ele>
        <time>2021-03-20T14:55:23Z</time>
      </trkpt>
      <trkpt lat="48.96623" lon="2.4777">
        <ele>60.99</ele>
        <time>2021-03-20T14:55:30Z</time>
      </trkpt>
      <trkpt lat="48.96668" lon="2.47829">
        <ele>59.8</ele>
        <time>2021-03-20T14:55:38Z</time>
      </trkpt>
      <trkpt lat="48.96777" lon="2.47959">
        <ele>61.02</ele>
        <time>2021-03-20T14:55:46Z</time>
      </trkpt>
      <trkpt lat="48.96874" lon="2.48083">
        <ele>59.95</ele>
        <time>2021-03-20T14:55:53Z</time>
      </trkpt>
      <trkpt lat="48.96888" lon="2.48095">
        <ele>60.94</ele>
        <time>2021-03-20T14:56:01Z</time>
      </trkpt>
      <trkpt lat="48.97225" lon="2.48607">
        <ele>66.38</ele>
        <time>2021-03-20T14:56:09Z</time>
      </trkpt>
      <trkpt lat="48.97237" lon="2.48635">
        <ele>66.14</ele>
        <time>2021-03-20T14:56:17Z</time>
      </trkpt>
      <trkpt lat="48.97258" lon="2.4867">
        <ele>67</ele>
        <time>2021-03-20T14:56:26Z</time>
      </trkpt>
      <trkpt lat="48.97283" lon="2.48724">
        <ele>68.05</ele>
        <time>2021-03-20T14:56:35Z</time>
      </trkpt>
      <trkpt lat="48.97301" lon="2.48769">
        <ele>69.58</ele>
        <time>2021-03-20T14:56:44Z</time>
      </trkpt>
      <trkpt lat="48.97317" lon="2.4883">
        <ele>71.53</ele>
        <time>2021-03-20T14:56:53Z</time>
      </trkpt>
      <trkpt lat="48.97323" lon="2.4888">
        <ele>70.7</ele>
        <time>2021-03-20T14:57:01Z</time>
      </trkpt>
      <trkpt lat="48.97328" lon="2.48947">
        <ele>70.67</ele>
        <time>2021-03-20T14:57:10Z</time>
      </trkpt>
      <trkpt lat="48.97328" lon="2.48986">
        <ele>72.32</ele>
        <time>2021-03-20T14:57:19Z</time>
      </trkpt>
      <trkpt lat="48.97318" lon="2.49057">
        <ele>74.97</ele>
        <time>2021-03-20T14:57:28Z</time>
      </trkpt>
      <trkpt lat="48.97301" lon="2.49145">
        <ele>73.95</ele>
        <time>2021-03-20T14:57:37Z</time>
      </trkpt>
      <trkpt lat="48.97289" lon="2.4919">
        <ele>75.57</ele>
        <time>2021-03-20T14:57:45Z</time>
      </trkpt>
      <trkpt lat="48.97288" lon="2.49204">
        <ele>75.77</ele>
        <time>2021-03-20T14:57:54Z</time>
      </trkpt>
      <trkpt lat="48.97099" lon="2.49903">
        <ele>75.73</ele>
        <time>2021-03-20T14:58:03Z</time>
      </trkpt>
      <trkpt lat="48.96949" lon="2.50368">
        <ele>72.3</ele>
        <time>2021-03-20T14:58:12Z</time>
      </trkpt>
      <trkpt lat="48.96785" lon="2.50922">
        <ele>76.17</ele>
        <time>2021-03-20T14:58:21Z</time>
      </trkpt>
      <trkpt lat="48.96731" lon="2.51109">
        <ele>70.14</ele>
        <time>2021-03-20T14:58:29Z</time>
      </trkpt>
      <trkpt lat="48.96647" lon="2.51386">
        <ele>71.18</ele>
        <time>2021-03-20T14:58:38Z</time>
      </trkpt>
      <trkpt lat="48.96634" lon="2.51431">
        <ele>69.28</ele>
        <time>2021-03-20T14:58:47Z</time>
      </trkpt>
      <trkpt lat="48.96598" lon="2.51544">
        <ele>67.05</ele>
        <time>2021-03-20T14:58:56Z</time>
      </trkpt>
      <trkpt lat="48.96472" lon="2.51869">
        <ele>66.42</ele>
        <time>2021-03-20T14:59:05Z</time>
      </trkpt>
      <trkpt lat="48.9644" lon="2.51939">
        <ele>65.29</ele>
        <time>2021-03-20T14:59:13Z</time>
      </trkpt>
      <trkpt lat="48.96352" lon="2.52108">
        <ele>62.46</ele>
        <time>2021-03-20T14:59:22Z</time>
      </trkpt>
      <trkpt lat="48.96284" lon="2.52219">
        <ele>61.88</ele>
        <time>2021-03-20T14:59:31Z</time>
      </trkpt>
      <trkpt lat="48.96245" lon="2.52273">
        <ele>60.5</ele>
        <time>2021-03-20T14:59:40Z</time>
      </trkpt>
      <trkpt lat="48.962" lon="2.52324">
        <ele>57.42</ele>
        <time>2021-03-20T14:59:49Z</time>
      </trkpt>
      <trkpt lat="48.96137" lon="2.52385">
        <ele>55.99</ele>
        <time>2021-03-20T14:59:57Z</time>
      </trkpt>
      <trkpt lat="48.96017" lon="2.52474">
        <ele>52.1</ele>
        <time>2021-03-20T15:00:06Z</time>
      </trkpt>
      <trkpt lat="48.95972" lon="2.52513">
        <ele>55.46</ele>
        <time>2021-03-20T15:00:15Z</time>
      </trkpt>
      <trkpt lat="48.95948" lon="2.52537">
        <ele>55.06</ele>
        <time>2021-03-20T15:00:24Z</time>
      </trkpt>
      <trkpt lat="48.95924" lon="2.52567">
        <ele>52.93</ele>
        <time>2021-03-20T15:00:33Z</time>
      </trkpt>
      <trkpt lat="48.95888" lon="2.52616">
        <ele>55.39</ele>
        <time>2021-03-20T15:00:41Z</time>
      </trkpt>
      <trkpt lat="48.95865" lon="2.52661">
        <ele>56.89</ele>
        <time>2021-03-20T15:00:50Z</time>
      </trkpt>
      <trkpt lat="48.95835" lon="2.52733">
        <ele>57.39</ele>
        <time>2021-03-20T15:00:59Z</time>
      </trkpt>
      <trkpt lat="48.95809" lon="2.52825">
        <ele>61</ele>
        <time>2021-03-20T15:01:08Z</time>
      </trkpt>
      <trkpt lat="48.95799" lon="2.52887">
        <ele>62.24</ele>
        <time>2021-03-20T15:01:17Z</time>
      </trkpt>
      <trkpt lat="48.95791" lon="2.52973">
        <ele>60.41</ele>
        <time>2021-03-20T15:01:25Z</time>
      </trkpt>
      <trkpt lat="48.95793" lon="2.53066">
        <ele>59.44</ele>
        <time>2021-03-20T15:01:34Z</time>
      </trkpt>
      <trkpt lat="48.95799" lon="2.53124">
        <ele>59</ele>
        <time>2021-03-20T15:01:43Z</time>
      </trkpt>
      <trkpt lat="48.95814" lon="2.53206">
        <ele>61.41</ele>
        <time>2021-03-20T15:01:52Z</time>
      </trkpt>
      <trkpt lat="48.95841" lon="2.53341">
        <ele>61.79</ele>
        <time>2021-03-20T15:02:01Z</time>
      </trkpt>
      <trkpt lat="48.95889" lon="2.53562">
        <ele>59.76</ele>
        <time>2021-03-20T15:02:09Z</time>
      </trkpt>
      <trkpt lat="48.95966" lon="2.53867">
        <ele>58.24</ele>
        <time>2021-03-20T15:02:18Z</time>
      </trkpt>
      <trkpt lat="48.96075" lon="2.54236">
        <ele>63.86</ele>
        <time>2021-03-20T15:02:27Z</time>
      </trkpt>
      <trkpt lat="48.96165" lon="2.54515">
        <ele>64.41</ele>
        <time>2021-03-20T15:02:36Z</time>
      </trkpt>
      <trkpt lat="48.96342" lon="2.55042">
        <ele>66.16</ele>
        <time>2021-03-20T15:02:45Z</time>
      </trkpt>
      <trkpt lat="48.96512" lon="2.55561">
        <ele>67.54</ele>
        <time>2021-03-20T15:02:53Z</time>
      </trkpt>
      <trkpt lat="48.9653" lon="2.55623">
        <ele>67.45</ele>
        <time>2021-03-20T15:03:02Z</time>
      </trkpt>
      <trkpt lat="48.96807" lon="2.56468">
        <ele>74.03</ele>
        <time>2021-03-20T15:03:11Z</time>
      </trkpt>
      <trkpt lat="48.96881" lon="2.5668">
        <ele>72.64</ele>
        <time>2021-03-20T15:03:20Z</time>
      </trkpt>
      <trkpt lat="48.97025" lon="2.57058">
        <ele>70</ele>
        <time>2021-03-20T15:03:29Z</time>
      </trkpt>
      <trkpt lat="48.97166" lon="2.57397">
        <ele>67.42</ele>
        <time>2021-03-20T15:03:37Z</time>
      </trkpt>
      <trkpt lat="48.97369" lon="2.57863">
        <ele>71.64</ele>
        <time>2021-03-20T15:03:46Z</time>
      </trkpt>
      <trkpt lat="48.97382" lon="2.57884">
        <ele>72.69</ele>
        <time>2021-03-20T15:03:54Z</time>
      </trkpt>
      <trkpt lat="48.97529" lon="2.58213">
        <ele>75.35</ele>
        <time>2021-03-20T15:04:03Z</time>
      </trkpt>
      <trkpt lat="48.97771" lon="2.58773">
        <ele>74.71</ele>
        <time>2021-03-20T15:04:11Z</time>
      </trkpt>
      <trkpt lat="48.98162" lon="2.59666">
        <ele>79.84</ele>
        <time>2021-03-20T15:04:19Z</time>
      </trkpt>
      <trkpt lat="48.98374" lon="2.60154">
        <ele>80.93</ele>
        <time>2021-03-20T15:04:27Z</time>
      </trkpt>
      <trkpt lat="48.98612" lon="2.60693">
        <ele>83.1</ele>
        <time>2021-03-20T15:04:35Z</time>
      </trkpt>
      <trkpt lat="48.98869" lon="2.61285">
        <ele>76.81</ele>
        <time>2021-03-20T15:04:43Z</time>
      </trkpt>
      <trkpt lat="48.99448" lon="2.62604">
        <ele>88.34</ele>
        <time>2021-03-20T15:04:52Z</time>
      </trkpt>
      <trkpt lat="48.99605" lon="2.62927">
        <ele>89.08</ele>
        <time>2021-03-20T15:05:00Z</time>
      </trkpt>
      <trkpt lat="48.99909" lon="2.63501">
        <ele>91</ele>
        <time>2021-03-20T15:05:08Z</time>
      </trkpt>
      <trkpt lat="49.002" lon="2.63993">
        <ele>85.61</ele>
        <time>2021-03-20T15:05:16Z</time>
      </trkpt>
      <trkpt lat="49.0047" lon="2.64421">
        <ele>88.93</ele>
        <time>2021-03-20T15:05:24Z</time>
      </trkpt>
      <trkpt lat="49.0052" lon="2.64496">
        <ele>87</ele>
        <time>2021-03-20T15:05:32Z</time>
      </trkpt>
      <trkpt lat="49.00586" lon="2.64591">
        <ele>90.03</ele>
        <time>2021-03-20T15:05:41Z</time>
      </trkpt>
      <trkpt lat="49.00794" lon="2.64882">
        <ele>90</ele>
        <time>2021-03-20T15:05:49Z</time>
      </trkpt>
      <trkpt lat="49.00911" lon="2.65038">
        <ele>87.19</ele>
        <time>2021-03-20T15:05:57Z</time>
      </trkpt>
      <trkpt lat="49.01051" lon="2.65218">
        <ele>82.99</ele>
        <time>2021-03-20T15:06:05Z</time>
      </trkpt>
      <trkpt lat="49.01194" lon="2.65393">
        <ele>82</ele>
        <time>2021-03-20T15:06:13Z</time>
      </trkpt>
      <trkpt lat="49.01385" lon="2.6562">
        <ele>77</ele>
        <time>2021-03-20T15:06:21Z</time>
      </trkpt>
      <trkpt lat="49.01561" lon="2.65816">
        <ele>74.44</ele>
        <time>2021-03-20T15:06:29Z</time>
      </trkpt>
      <trkpt lat="49.01923" lon="2.66189">
        <ele>86.43</ele>
        <time>2021-03-20T15:06:38Z</time>
      </trkpt>
      <trkpt lat="49.02671" lon="2.6694">
        <ele>102.83</ele>
        <time>2021-03-20T15:06:46Z</time>
      </trkpt>
      <trkpt lat="49.02919" lon="2.67184">
        <ele>103.92</ele>
        <time>2021-03-20T15:06:54Z</time>
      </trkpt>
      <trkpt lat="49.03418" lon="2.67693">
        <ele>95</ele>
        <time>2021-03-20T15:07:02Z</time>
      </trkpt>
      <trkpt lat="49.03607" lon="2.67893">
        <ele>95.85</ele>
        <time>2021-03-20T15:07:10Z</time>
      </trkpt>
      <trkpt lat="49.03706" lon="2.68004">
        <ele>96.33</ele>
        <time>2021-03-20T15:07:18Z</time>
      </trkpt>
      <trkpt lat="49.03803" lon="2.6812">
        <ele>96.93</ele>
        <time>2021-03-20T15:07:27Z</time>
      </trkpt>
      <trkpt lat="49.03835" lon="2.68156">
        <ele>97</ele>
        <time>2021-03-20T15:07:35Z</time>
      </trkpt>
      <trkpt lat="49.03874" lon="2.68204">
        <ele>98.46</ele>
        <time>2021-03-20T15:07:43Z</time>
      </trkpt>
      <trkpt lat="49.03944" lon="2.68291">
        <ele>102.43</ele>
        <time>2021-03-20T15:07:51Z</time>
      </trkpt>
      <trkpt lat="49.04123" lon="2.68524">
        <ele>108.3</ele>
        <time>2021-03-20T15:07:59Z</time>
      </trkpt>
      <trkpt lat="49.0462" lon="2.69209">
        <ele>145.8</ele>
        <time>2021-03-20T15:08:07Z</time>
      </trkpt>
      <trkpt lat="49.04695" lon="2.69304">
        <ele>149.2</ele>
        <time>2021-03-20T15:08:16Z</time>
      </trkpt>
      <trkpt lat="49.04797" lon="2.69419">
        <ele>152.59</ele>
        <time>2021-03-20T15:08:24Z</time>
      </trkpt>
      <trkpt lat="49.04916" lon="2.69547">
        <ele>153.3</ele>
        <time>2021-03-20T15:08:32Z</time>
      </trkpt>
      <trkpt lat="49.05074" lon="2.69689">
        <ele>146.16</ele>
        <time>2021-03-20T15:08:40Z</time>
      </trkpt>
      <trkpt lat="49.05141" lon="2.69744">
        <ele>138.3</ele>
        <time>2021-03-20T15:08:48Z</time>
      </trkpt>
      <trkpt lat="49.05221" lon="2.69806">
        <ele>133.98</ele>
        <time>2021-03-20T15:08:56Z</time>
      </trkpt>
      <trkpt lat="49.05358" lon="2.69899">
        <ele>121</ele>
        <time>2021-03-20T15:09:05Z</time>
      </trkpt>
      <trkpt lat="49.0544" lon="2.69948">
        <ele>118.75</ele>
        <time>2021-03-20T15:09:13Z</time>
      </trkpt>
      <trkpt lat="49.05594" lon="2.70044">
        <ele>114.99</ele>
        <time>2021-03-20T15:09:21Z</time>
      </trkpt>
      <trkpt lat="49.0578" lon="2.70154">
        <ele>115.57</ele>
        <time>2021-03-20T15:09:29Z</time>
      </trkpt>
      <trkpt lat="49.05935" lon="2.70252">
        <ele>114.56</ele>
        <time>2021-03-20T15:09:37Z</time>
      </trkpt>
      <trkpt lat="49.06013" lon="2.70308">
        <ele>114.91</ele>
        <time>2021-03-20T15:09:45Z</time>
      </trkpt>
      <trkpt lat="49.06109" lon="2.70387">
        <ele>114.99</ele>
        <time>2021-03-20T15:09:53Z</time>
      </trkpt>
      <trkpt lat="49.06178" lon="2.70452">
        <ele>112.83</ele>
        <time>2021-03-20T15:10:02Z</time>
      </trkpt>
      <trkpt lat="49.0622" lon="2.70494">
        <ele>112.22</ele>
        <time>2021-03-20T15:10:10Z</time>
      </trkpt>
      <trkpt lat="49.06293" lon="2.70575">
        <ele>111.86</ele>
        <time>2021-03-20T15:10:18Z</time>
      </trkpt>
      <trkpt lat="49.06347" lon="2.70637">
        <ele>109</ele>
        <time>2021-03-20T15:10:26Z</time>
      </trkpt>
      <trkpt lat="49.06632" lon="2.71002">
        <ele>104.2</ele>
        <time>2021-03-20T15:10:34Z</time>
      </trkpt>
      <trkpt lat="49.06891" lon="2.71345">
        <ele>101.57</ele>
        <time>2021-03-20T15:10:42Z</time>
      </trkpt>
      <trkpt lat="49.07416" lon="2.72035">
        <ele>95.74</ele>
        <time>2021-03-20T15:10:51Z</time>
      </trkpt>
      <trkpt lat="49.07662" lon="2.72355">
        <ele>98.62</ele>
        <time>2021-03-20T15:10:59Z</time>
      </trkpt>
      <trkpt lat="49.07865" lon="2.72623">
        <ele>101.68</ele>
        <time>2021-03-20T15:11:07Z</time>
      </trkpt>
      <trkpt lat="49.08002" lon="2.72782">
        <ele>105</ele>
        <time>2021-03-20T15:11:15Z</time>
      </trkpt>
      <trkpt lat="49.08108" lon="2.7289">
        <ele>104.87</ele>
        <time>2021-03-20T15:11:23Z</time>
      </trkpt>
      <trkpt lat="49.08179" lon="2.72951">
        <ele>104.42</ele>
        <time>2021-03-20T15:11:31Z</time>
      </trkpt>
      <trkpt lat="49.08282" lon="2.73024">
        <ele>103.86</ele>
        <time>2021-03-20T15:11:40Z</time>
      </trkpt>
      <trkpt lat="49.08391" lon="2.73089">
        <ele>102.78</ele>
        <time>2021-03-20T15:11:48Z</time>
      </trkpt>
      <trkpt lat="49.08541" lon="2.73161">
        <ele>98.39</ele>
        <time>2021-03-20T15:11:56Z</time>
      </trkpt>
      <trkpt lat="49.09383" lon="2.73548">
        <ele>102.3</ele>
        <time>2021-03-20T15:12:04Z</time>
      </trkpt>
      <trkpt lat="49.09505" lon="2.73615">
        <ele>107</ele>
        <time>2021-03-20T15:12:12Z</time>
      </trkpt>
      <trkpt lat="49.09615" lon="2.73692">
        <ele>108.06</ele>
        <time>2021-03-20T15:12:20Z</time>
      </trkpt>
      <trkpt lat="49.0968" lon="2.73742">
        <ele>110.56</ele>
        <time>2021-03-20T15:12:29Z</time>
      </trkpt>
      <trkpt lat="49.09733" lon="2.73787">
        <ele>108.36</ele>
        <time>2021-03-20T15:12:37Z</time>
      </trkpt>
      <trkpt lat="49.09784" lon="2.73833">
        <ele>107.79</ele>
        <time>2021-03-20T15:12:45Z</time>
      </trkpt>
      <trkpt lat="49.09846" lon="2.73895">
        <ele>109.91</ele>
        <time>2021-03-20T15:12:53Z</time>
      </trkpt>
      <trkpt lat="49.09885" lon="2.73936">
        <ele>112.19</ele>
        <time>2021-03-20T15:13:01Z</time>
      </trkpt>
      <trkpt lat="49.09924" lon="2.7398">
        <ele>109.46</ele>
        <time>2021-03-20T15:13:09Z</time>
      </trkpt>
      <trkpt lat="49.10012" lon="2.74091">
        <ele>109.29</ele>
        <time>2021-03-20T15:13:17Z</time>
      </trkpt>
      <trkpt lat="49.10079" lon="2.74186">
        <ele>111.12</ele>
        <time>2021-03-20T15:13:26Z</time>
      </trkpt>
      <trkpt lat="49.10142" lon="2.74283">
        <ele>110.79</ele>
        <time>2021-03-20T15:13:34Z</time>
      </trkpt>
      <trkpt lat="49.10191" lon="2.74368">
        <ele>110</ele>
        <time>2021-03-20T15:13:42Z</time>
      </trkpt>
      <trkpt lat="49.10252" lon="2.7448">
        <ele>111.32</ele>
        <time>2021-03-20T15:13:50Z</time>
      </trkpt>
      <trkpt lat="49.10295" lon="2.7457">
        <ele>112.18</ele>
        <time>2021-03-20T15:13:58Z</time>
      </trkpt>
      <trkpt lat="49.10348" lon="2.74691">
        <ele>110.67</ele>
        <time>2021-03-20T15:14:06Z</time>
      </trkpt>
      <trkpt lat="49.10383" lon="2.7478">
        <ele>113.6</ele>
        <time>2021-03-20T15:14:15Z</time>
      </trkpt>
      <trkpt lat="49.10434" lon="2.74935">
        <ele>113.25</ele>
        <time>2021-03-20T15:14:23Z</time>
      </trkpt>
      <trkpt lat="49.10472" lon="2.75067">
        <ele>114.01</ele>
        <time>2021-03-20T15:14:31Z</time>
      </trkpt>
      <trkpt lat="49.10515" lon="2.75229">
        <ele>118.58</ele>
        <time>2021-03-20T15:14:39Z</time>
      </trkpt>
      <trkpt lat="49.1057" lon="2.75463">
        <ele>118</ele>
        <time>2021-03-20T15:14:47Z</time>
      </trkpt>
      <trkpt lat="49.10588" lon="2.75568">
        <ele>114.62</ele>
        <time>2021-03-20T15:14:55Z</time>
      </trkpt>
      <trkpt lat="49.10631" lon="2.75774">
        <ele>111.82</ele>
        <time>2021-03-20T15:15:04Z</time>
      </trkpt>
      <trkpt lat="49.10684" lon="2.7601">
        <ele>112.34</ele>
        <time>2021-03-20T15:15:12Z</time>
      </trkpt>
      <trkpt lat="49.10779" lon="2.76311">
        <ele>112.99</ele>
        <time>2021-03-20T15:15:20Z</time>
      </trkpt>
      <trkpt lat="49.10879" lon="2.76539">
        <ele>114.83</ele>
        <time>2021-03-20T15:15:28Z</time>
      </trkpt>
      <trkpt lat="49.11013" lon="2.76767">
        <ele>116.67</ele>
        <time>2021-03-20T15:15:36Z</time>
      </trkpt>
      <trkpt lat="49.11085" lon="2.76872">
        <ele>114.07</ele>
        <time>2021-03-20T15:15:44Z</time>
      </trkpt>
      <trkpt lat="49.11242" lon="2.77086">
        <ele>118.81</ele>
        <time>2021-03-20T15:15:53Z</time>
      </trkpt>
      <trkpt lat="49.11377" lon="2.77262">
        <ele>120.75</ele>
        <time>2021-03-20T15:16:01Z</time>
      </trkpt>
      <trkpt lat="49.13108" lon="2.79561">
        <ele>110.1</ele>
        <time>2021-03-20T15:16:09Z</time>
      </trkpt>
      <trkpt lat="49.13157" lon="2.79618">
        <ele>107.61</ele>
        <time>2021-03-20T15:16:17Z</time>
      </trkpt>
      <trkpt lat="49.13205" lon="2.79666">
        <ele>107</ele>
        <time>2021-03-20T15:16:25Z</time>
      </trkpt>
      <trkpt lat="49.13257" lon="2.79711">
        <ele>105.75</ele>
        <time>2021-03-20T15:16:33Z</time>
      </trkpt>
      <trkpt lat="49.13305" lon="2.79747">
        <ele>105</ele>
        <time>2021-03-20T15:16:41Z</time>
      </trkpt>
      <trkpt lat="49.13382" lon="2.79795">
        <ele>103.26</ele>
        <time>2021-03-20T15:16:50Z</time>
      </trkpt>
      <trkpt lat="49.13427" lon="2.79817">
        <ele>102.78</ele>
        <time>2021-03-20T15:16:58Z</time>
      </trkpt>
      <trkpt lat="49.13487" lon="2.79839">
        <ele>104</ele>
        <time>2021-03-20T15:17:06Z</time>
      </trkpt>
      <trkpt lat="49.13552" lon="2.79856">
        <ele>101.99</ele>
        <time>2021-03-20T15:17:14Z</time>
      </trkpt>
      <trkpt lat="49.1362" lon="2.79866">
        <ele>101.11</ele>
        <time>2021-03-20T15:17:22Z</time>
      </trkpt>
      <trkpt lat="49.13911" lon="2.79897">
        <ele>103</ele>
        <time>2021-03-20T15:17:30Z</time>
      </trkpt>
      <trkpt lat="49.13987" lon="2.79914">
        <ele>103.96</ele>
        <time>2021-03-20T15:17:39Z</time>
      </trkpt>
      <trkpt lat="49.14055" lon="2.79935">
        <ele>105.68</ele>
        <time>2021-03-20T15:17:47Z</time>
      </trkpt>
      <trkpt lat="49.14136" lon="2.79974">
        <ele>104.07</ele>
        <time>2021-03-20T15:17:55Z</time>
      </trkpt>
      <trkpt lat="49.14179" lon="2.80001">
        <ele>104.03</ele>
        <time>2021-03-20T15:18:03Z</time>
      </trkpt>
      <trkpt lat="49.14237" lon="2.80045">
        <ele>105.21</ele>
        <time>2021-03-20T15:18:11Z</time>
      </trkpt>
      <trkpt lat="49.14299" lon="2.80102">
        <ele>104.67</ele>
        <time>2021-03-20T15:18:19Z</time>
      </trkpt>
      <trkpt lat="49.14359" lon="2.80172">
        <ele>97.42</ele>
        <time>2021-03-20T15:18:28Z</time>
      </trkpt>
      <trkpt lat="49.14422" lon="2.8026">
        <ele>95.43</ele>
        <time>2021-03-20T15:18:36Z</time>
      </trkpt>
      <trkpt lat="49.14456" lon="2.80315">
        <ele>92.94</ele>
        <time>2021-03-20T15:18:44Z</time>
      </trkpt>
      <trkpt lat="49.14508" lon="2.80418">
        <ele>92.31</ele>
        <time>2021-03-20T15:18:52Z</time>
      </trkpt>
      <trkpt lat="49.14565" lon="2.80547">
        <ele>93.64</ele>
        <time>2021-03-20T15:19:00Z</time>
      </trkpt>
      <trkpt lat="49.14643" lon="2.80744">
        <ele>96.03</ele>
        <time>2021-03-20T15:19:08Z</time>
      </trkpt>
      <trkpt lat="49.1469" lon="2.80868">
        <ele>104.33</ele>
        <time>2021-03-20T15:19:17Z</time>
      </trkpt>
      <trkpt lat="49.14722" lon="2.80965">
        <ele>107.75</ele>
        <time>2021-03-20T15:19:25Z</time>
      </trkpt>
      <trkpt lat="49.14752" lon="2.81075">
        <ele>113.43</ele>
        <time>2021-03-20T15:19:33Z</time>
      </trkpt>
      <trkpt lat="49.14774" lon="2.81182">
        <ele>113.4</ele>
        <time>2021-03-20T15:19:41Z</time>
      </trkpt>
      <trkpt lat="49.14792" lon="2.81307">
        <ele>115.98</ele>
        <time>2021-03-20T15:19:49Z</time>
      </trkpt>
      <trkpt lat="49.14797" lon="2.81371">
        <ele>115.56</ele>
        <time>2021-03-20T15:19:57Z</time>
      </trkpt>
      <trkpt lat="49.148" lon="2.81435">
        <ele>116.54</ele>
        <time>2021-03-20T15:20:05Z</time>
      </trkpt>
      <trkpt lat="49.14803" lon="2.81535">
        <ele>117.93</ele>
        <time>2021-03-20T15:20:14Z</time>
      </trkpt>
      <trkpt lat="49.14803" lon="2.81585">
        <ele>117.85</ele>
        <time>2021-03-20T15:20:22Z</time>
      </trkpt>
      <trkpt lat="49.148" lon="2.81647">
        <ele>116.57</ele>
        <time>2021-03-20T15:20:30Z</time>
      </trkpt>
      <trkpt lat="49.14794" lon="2.81717">
        <ele>115.83</ele>
        <time>2021-03-20T15:20:38Z</time>
      </trkpt>
      <trkpt lat="49.14788" lon="2.8184">
        <ele>115.59</ele>
        <time>2021-03-20T15:20:46Z</time>
      </trkpt>
      <trkpt lat="49.14781" lon="2.82046">
        <ele>119.04</ele>
        <time>2021-03-20T15:20:54Z</time>
      </trkpt>
      <trkpt lat="49.14785" lon="2.82161">
        <ele>118.27</ele>
        <time>2021-03-20T15:21:03Z</time>
      </trkpt>
      <trkpt lat="49.14796" lon="2.82289">
        <ele>116.92</ele>
        <time>2021-03-20T15:21:11Z</time>
      </trkpt>
      <trkpt lat="49.14817" lon="2.82425">
        <ele>118</ele>
        <time>2021-03-20T15:21:19Z</time>
      </trkpt>
      <trkpt lat="49.14842" lon="2.82537">
        <ele>118.68</ele>
        <time>2021-03-20T15:21:27Z</time>
      </trkpt>
      <trkpt lat="49.1487" lon="2.8263">
        <ele>117.2</ele>
        <time>2021-03-20T15:21:35Z</time>
      </trkpt>
      <trkpt lat="49.14941" lon="2.82805">
        <ele>118.84</ele>
        <time>2021-03-20T15:21:43Z</time>
      </trkpt>
      <trkpt lat="49.15072" lon="2.831">
        <ele>123.84</ele>
        <time>2021-03-20T15:21:52Z</time>
      </trkpt>
      <trkpt lat="49.15191" lon="2.83358">
        <ele>122.89</ele>
        <time>2021-03-20T15:22:00Z</time>
      </trkpt>
      <trkpt lat="49.15855" lon="2.84848">
        <ele>125</ele>
        <time>2021-03-20T15:22:08Z</time>
      </trkpt>
      <trkpt lat="49.15915" lon="2.84982">
        <ele>125</ele>
        <time>2021-03-20T15:22:16Z</time>
      </trkpt>
      <trkpt lat="49.15979" lon="2.85119">
        <ele>126.25</ele>
        <time>2021-03-20T15:22:24Z</time>
      </trkpt>
      <trkpt lat="49.16" lon="2.8515">
        <ele>127.42</ele>
        <time>2021-03-20T15:22:32Z</time>
      </trkpt>
      <trkpt lat="49.16052" lon="2.852">
        <ele>129.34</ele>
        <time>2021-03-20T15:22:41Z</time>
      </trkpt>
      <trkpt lat="49.16069" lon="2.8522">
        <ele>129.43</ele>
        <time>2021-03-20T15:22:49Z</time>
      </trkpt>
      <trkpt lat="49.16086" lon="2.85243">
        <ele>129.58</ele>
        <time>2021-03-20T15:22:57Z</time>
      </trkpt>
      <trkpt lat="49.16252" lon="2.85542">
        <ele>130.52</ele>
        <time>2021-03-20T15:23:05Z</time>
      </trkpt>
      <trkpt lat="49.16328" lon="2.85676">
        <ele>131.45</ele>
        <time>2021-03-20T15:23:13Z</time>
      </trkpt>
      <trkpt lat="49.16495" lon="2.85976">
        <ele>132.86</ele>
        <time>2021-03-20T15:23:21Z</time>
      </trkpt>
      <trkpt lat="49.16541" lon="2.86076">
        <ele>132.35</ele>
        <time>2021-03-20T15:23:29Z</time>
      </trkpt>
      <trkpt lat="49.16613" lon="2.86218">
        <ele>133.35</ele>
        <time>2021-03-20T15:23:38Z</time>
      </trkpt>
      <trkpt lat="49.16853" lon="2.86658">
        <ele>132.94</ele>
        <time>2021-03-20T15:23:46Z</time>
      </trkpt>
      <trkpt lat="49.16934" lon="2.8683">
        <ele>132.07</ele>
        <time>2021-03-20T15:23:54Z</time>
      </trkpt>
      <trkpt lat="49.17002" lon="2.86965">
        <ele>133</ele>
        <time>2021-03-20T15:24:02Z</time>
      </trkpt>
      <trkpt lat="49.17564" lon="2.87991">
        <ele>130.62</ele>
        <time>2021-03-20T15:24:10Z</time>
      </trkpt>
      <trkpt lat="49.17635" lon="2.88107">
        <ele>129.87</ele>
        <time>2021-03-20T15:24:18Z</time>
      </trkpt>
      <trkpt lat="49.177" lon="2.88206">
        <ele>127.59</ele>
        <time>2021-03-20T15:24:27Z</time>
      </trkpt>
      <trkpt lat="49.17751" lon="2.88292">
        <ele>126</ele>
        <time>2021-03-20T15:24:35Z</time>
      </trkpt>
      <trkpt lat="49.17938" lon="2.8863">
        <ele>124.72</ele>
        <time>2021-03-20T15:24:43Z</time>
      </trkpt>
      <trkpt lat="49.17983" lon="2.88712">
        <ele>122.26</ele>
        <time>2021-03-20T15:24:51Z</time>
      </trkpt>
      <trkpt lat="49.18093" lon="2.88891">
        <ele>120.87</ele>
        <time>2021-03-20T15:24:59Z</time>
      </trkpt>
      <trkpt lat="49.18144" lon="2.8897">
        <ele>120</ele>
        <time>2021-03-20T15:25:07Z</time>
      </trkpt>
      <trkpt lat="49.18297" lon="2.89246">
        <ele>119.16</ele>
        <time>2021-03-20T15:25:16Z</time>
      </trkpt>
      <trkpt lat="49.18695" lon="2.89969">
        <ele>123.67</ele>
        <time>2021-03-20T15:25:24Z</time>
      </trkpt>
      <trkpt lat="49.18881" lon="2.90303">
        <ele>121.26</ele>
        <time>2021-03-20T15:25:32Z</time>
      </trkpt>
      <trkpt lat="49.19013" lon="2.90547">
        <ele>120.48</ele>
        <time>2021-03-20T15:25:40Z</time>
      </trkpt>
      <trkpt lat="49.19075" lon="2.90672">
        <ele>119.94</ele>
        <time>2021-03-20T15:25:48Z</time>
      </trkpt>
      <trkpt lat="49.19179" lon="2.90865">
        <ele>119.37</ele>
        <time>2021-03-20T15:25:56Z</time>
      </trkpt>
      <trkpt lat="49.19213" lon="2.90939">
        <ele>120.19</ele>
        <time>2021-03-20T15:26:05Z</time>
      </trkpt>
      <trkpt lat="49.19248" lon="2.91025">
        <ele>120.09</ele>
        <time>2021-03-20T15:26:13Z</time>
      </trkpt>
      <trkpt lat="49.19278" lon="2.91126">
        <ele>119.99</ele>
        <time>2021-03-20T15:26:21Z</time>
      </trkpt>
      <trkpt lat="49.19303" lon="2.91238">
        <ele>119.27</ele>
        <time>2021-03-20T15:26:29Z</time>
      </trkpt>
      <trkpt lat="49.19371" lon="2.91576">
        <ele>120.79</ele>
        <time>2021-03-20T15:26:37Z</time>
      </trkpt>
      <trkpt lat="49.19399" lon="2.91693">
        <ele>123.39</ele>
        <time>2021-03-20T15:26:45Z</time>
      </trkpt>
      <trkpt lat="49.19429" lon="2.9179">
        <ele>122.36</ele>
        <time>2021-03-20T15:26:53Z</time>
      </trkpt>
      <trkpt lat="49.19468" lon="2.91892">
        <ele>124.92</ele>
        <time>2021-03-20T15:27:02Z</time>
      </trkpt>
      <trkpt lat="49.19515" lon="2.91998">
        <ele>124.96</ele>
        <time>2021-03-20T15:27:10Z</time>
      </trkpt>
      <trkpt lat="49.19562" lon="2.92082">
        <ele>127.01</ele>
        <time>2021-03-20T15:27:18Z</time>
      </trkpt>
      <trkpt lat="49.19598" lon="2.9214">
        <ele>127.54</ele>
        <time>2021-03-20T15:27:26Z</time>
      </trkpt>
      <trkpt lat="49.1962" lon="2.92171">
        <ele>127.9</ele>
        <time>2021-03-20T15:27:34Z</time>
      </trkpt>
      <trkpt lat="49.19938" lon="2.92589">
        <ele>132</ele>
        <time>2021-03-20T15:27:42Z</time>
      </trkpt>
      <trkpt lat="49.20464" lon="2.93274">
        <ele>136.62</ele>
        <time>2021-03-20T15:27:51Z</time>
      </trkpt>
      <trkpt lat="49.20532" lon="2.93362">
        <ele>137.16</ele>
        <time>2021-03-20T15:27:59Z</time>
      </trkpt>
      <trkpt lat="49.20588" lon="2.9344">
        <ele>138.3</ele>
        <time>2021-03-20T15:28:07Z</time>
      </trkpt>
      <trkpt lat="49.20634" lon="2.93514">
        <ele>141.11</ele>
        <time>2021-03-20T15:28:15Z</time>
      </trkpt>
      <trkpt lat="49.20664" lon="2.9357">
        <ele>141.89</ele>
        <time>2021-03-20T15:28:23Z</time>
      </trkpt>
      <trkpt lat="49.20705" lon="2.93664">
        <ele>139.05</ele>
        <time>2021-03-20T15:28:31Z</time>
      </trkpt>
      <trkpt lat="49.20811" lon="2.93945">
        <ele>140.2</ele>
        <time>2021-03-20T15:28:40Z</time>
      </trkpt>
      <trkpt lat="49.20872" lon="2.94114">
        <ele>141.93</ele>
        <time>2021-03-20T15:28:48Z</time>
      </trkpt>
      <trkpt lat="49.20906" lon="2.9422">
        <ele>143.55</ele>
        <time>2021-03-20T15:28:56Z</time>
      </trkpt>
      <trkpt lat="49.20932" lon="2.94316">
        <ele>143</ele>
        <time>2021-03-20T15:29:04Z</time>
      </trkpt>
      <trkpt lat="49.2095" lon="2.94395">
        <ele>142.95</ele>
        <time>2021-03-20T15:29:12Z</time>
      </trkpt>
      <trkpt lat="49.20971" lon="2.94509">
        <ele>142.3</ele>
        <time>2021-03-20T15:29:20Z</time>
      </trkpt>
      <trkpt lat="49.2099" lon="2.94622">
        <ele>143.39</ele>
        <time>2021-03-20T15:29:29Z</time>
      </trkpt>
      <trkpt lat="49.2104" lon="2.94985">
        <ele>143.44</ele>
        <time>2021-03-20T15:29:37Z</time>
      </trkpt>
      <trkpt lat="49.21055" lon="2.95078">
        <ele>143.21</ele>
        <time>2021-03-20T15:29:45Z</time>
      </trkpt>
      <trkpt lat="49.21076" lon="2.95172">
        <ele>142</ele>
        <time>2021-03-20T15:29:53Z</time>
      </trkpt>
      <trkpt lat="49.21105" lon="2.9529">
        <ele>142</ele>
        <time>2021-03-20T15:30:01Z</time>
      </trkpt>
      <trkpt lat="49.21129" lon="2.95374">
        <ele>142</ele>
        <time>2021-03-20T15:30:09Z</time>
      </trkpt>
      <trkpt lat="49.21189" lon="2.95554">
        <ele>141</ele>
        <time>2021-03-20T15:30:17Z</time>
      </trkpt>
      <trkpt lat="49.21259" lon="2.95747">
        <ele>137.12</ele>
        <time>2021-03-20T15:30:26Z</time>
      </trkpt>
      <trkpt lat="49.21289" lon="2.95818">
        <ele>137</ele>
        <time>2021-03-20T15:30:34Z</time>
      </trkpt>
      <trkpt lat="49.21329" lon="2.95905">
        <ele>136</ele>
        <time>2021-03-20T15:30:42Z</time>
      </trkpt>
      <trkpt lat="49.21359" lon="2.95964">
        <ele>135.94</ele>
        <time>2021-03-20T15:30:50Z</time>
      </trkpt>
      <trkpt lat="49.21389" lon="2.96019">
        <ele>134.99</ele>
        <time>2021-03-20T15:30:58Z</time>
      </trkpt>
      <trkpt lat="49.21471" lon="2.96151">
        <ele>132</ele>
        <time>2021-03-20T15:31:06Z</time>
      </trkpt>
      <trkpt lat="49.21565" lon="2.96274">
        <ele>134.05</ele>
        <time>2021-03-20T15:31:15Z</time>
      </trkpt>
      <trkpt lat="49.21634" lon="2.96349">
        <ele>136.66</ele>
        <time>2021-03-20T15:31:23Z</time>
      </trkpt>
      <trkpt lat="49.21709" lon="2.9642">
        <ele>136.59</ele>
        <time>2021-03-20T15:31:31Z</time>
      </trkpt>
      <trkpt lat="49.21922" lon="2.96592">
        <ele>136.06</ele>
        <time>2021-03-20T15:31:39Z</time>
      </trkpt>
      <trkpt lat="49.22054" lon="2.96696">
        <ele>130.05</ele>
        <time>2021-03-20T15:31:47Z</time>
      </trkpt>
      <trkpt lat="49.22114" lon="2.96745">
        <ele>126.74</ele>
        <time>2021-03-20T15:31:55Z</time>
      </trkpt>
      <trkpt lat="49.22174" lon="2.96806">
        <ele>124.54</ele>
        <time>2021-03-20T15:32:04Z</time>
      </trkpt>
      <trkpt lat="49.22298" lon="2.9694">
        <ele>128.84</ele>
        <time>2021-03-20T15:32:12Z</time>
      </trkpt>
      <trkpt lat="49.22374" lon="2.97049">
        <ele>130.3</ele>
        <time>2021-03-20T15:32:20Z</time>
      </trkpt>
      <trkpt lat="49.2264" lon="2.97457">
        <ele>135.86</ele>
        <time>2021-03-20T15:32:28Z</time>
      </trkpt>
      <trkpt lat="49.22751" lon="2.97642">
        <ele>139.77</ele>
        <time>2021-03-20T15:32:36Z</time>
      </trkpt>
      <trkpt lat="49.22785" lon="2.97711">
        <ele>133.76</ele>
        <time>2021-03-20T15:32:44Z</time>
      </trkpt>
      <trkpt lat="49.22854" lon="2.9787">
        <ele>132.25</ele>
        <time>2021-03-20T15:32:53Z</time>
      </trkpt>
      <trkpt lat="49.23016" lon="2.98227">
        <ele>129.51</ele>
        <time>2021-03-20T15:33:01Z</time>
      </trkpt>
      <trkpt lat="49.23053" lon="2.98318">
        <ele>126.54</ele>
        <time>2021-03-20T15:33:09Z</time>
      </trkpt>
      <trkpt lat="49.23089" lon="2.98421">
        <ele>122.72</ele>
        <time>2021-03-20T15:33:17Z</time>
      </trkpt>
      <trkpt lat="49.23132" lon="2.98556">
        <ele>120.25</ele>
        <time>2021-03-20T15:33:25Z</time>
      </trkpt>
      <trkpt lat="49.23161" lon="2.98683">
        <ele>118</ele>
        <time>2021-03-20T15:33:33Z</time>
      </trkpt>
      <trkpt lat="49.23191" lon="2.98822">
        <ele>122</ele>
        <time>2021-03-20T15:33:41Z</time>
      </trkpt>
      <trkpt lat="49.23212" lon="2.98957">
        <ele>119.25</ele>
        <time>2021-03-20T15:33:50Z</time>
      </trkpt>
      <trkpt lat="49.2327" lon="2.9934">
        <ele>116.79</ele>
        <time>2021-03-20T15:33:58Z</time>
      </trkpt>
      <trkpt lat="49.23293" lon="2.99452">
        <ele>112.38</ele>
        <time>2021-03-20T15:34:06Z</time>
      </trkpt>
      <trkpt lat="49.23338" lon="2.99621">
        <ele>116.01</ele>
        <time>2021-03-20T15:34:14Z</time>
      </trkpt>
      <trkpt lat="49.23374" lon="2.99734">
        <ele>117.71</ele>
        <time>2021-03-20T15:34:22Z</time>
      </trkpt>
      <trkpt lat="49.23417" lon="2.99852">
        <ele>115.64</ele>
        <time>2021-03-20T15:34:30Z</time>
      </trkpt>
      <trkpt lat="49.23463" lon="2.99961">
        <ele>105.11</ele>
        <time>2021-03-20T15:34:39Z</time>
      </trkpt>
      <trkpt lat="49.23553" lon="3.0014">
        <ele>101.85</ele>
        <time>2021-03-20T15:34:47Z</time>
      </trkpt>
      <trkpt lat="49.23705" lon="3.00427">
        <ele>99.99</ele>
        <time>2021-03-20T15:34:55Z</time>
      </trkpt>
      <trkpt lat="49.23732" lon="3.00482">
        <ele>100.32</ele>
        <time>2021-03-20T15:35:03Z</time>
      </trkpt>
      <trkpt lat="49.23775" lon="3.0058">
        <ele>100.9</ele>
        <time>2021-03-20T15:35:11Z</time>
      </trkpt>
      <trkpt lat="49.23902" lon="3.00917">
        <ele>110</ele>
        <time>2021-03-20T15:35:19Z</time>
      </trkpt>
      <trkpt lat="49.23954" lon="3.01073">
        <ele>111.14</ele>
        <time>2021-03-20T15:35:28Z</time>
      </trkpt>
      <trkpt lat="49.23967" lon="3.01119">
        <ele>112.5</ele>
        <time>2021-03-20T15:35:36Z</time>
      </trkpt>
      <trkpt lat="49.23988" lon="3.01205">
        <ele>114.76</ele>
        <time>2021-03-20T15:35:44Z</time>
      </trkpt>
      <trkpt lat="49.24025" lon="3.01425">
        <ele>117.18</ele>
        <time>2021-03-20T15:35:52Z</time>
      </trkpt>
      <trkpt lat="49.2403" lon="3.01463">
        <ele>117.93</ele>
        <time>2021-03-20T15:36:00Z</time>
      </trkpt>
      <trkpt lat="49.24035" lon="3.01534">
        <ele>117</ele>
        <time>2021-03-20T15:36:08Z</time>
      </trkpt>
      <trkpt lat="49.24039" lon="3.01746">
        <ele>116.39</ele>
        <time>2021-03-20T15:36:17Z</time>
      </trkpt>
      <trkpt lat="49.24035" lon="3.01868">
        <ele>118.36</ele>
        <time>2021-03-20T15:36:25Z</time>
      </trkpt>
      <trkpt lat="49.24024" lon="3.02041">
        <ele>119.34</ele>
        <time>2021-03-20T15:36:33Z</time>
      </trkpt>
      <trkpt lat="49.24013" lon="3.02181">
        <ele>116.52</ele>
        <time>2021-03-20T15:36:41Z</time>
      </trkpt>
      <trkpt lat="49.24004" lon="3.02283">
        <ele>115.86</ele>
        <time>2021-03-20T15:36:49Z</time>
      </trkpt>
      <trkpt lat="49.24003" lon="3.02377">
        <ele>114.24</ele>
        <time>2021-03-20T15:36:57Z</time>
      </trkpt>
      <trkpt lat="49.24004" lon="3.02457">
        <ele>113.07</ele>
        <time>2021-03-20T15:37:05Z</time>
      </trkpt>
      <trkpt lat="49.24007" lon="3.02537">
        <ele>111.18</ele>
        <time>2021-03-20T15:37:14Z</time>
      </trkpt>
      <trkpt lat="49.24015" lon="3.02621">
        <ele>110</ele>
        <time>2021-03-20T15:37:22Z</time>
      </trkpt>
      <trkpt lat="49.24053" lon="3.02807">
        <ele>100.4</ele>
        <time>2021-03-20T15:37:30Z</time>
      </trkpt>
      <trkpt lat="49.24151" lon="3.03278">
        <ele>76</ele>
        <time>2021-03-20T15:37:38Z</time>
      </trkpt>
      <trkpt lat="49.24167" lon="3.03327">
        <ele>77.8</ele>
        <time>2021-03-20T15:37:46Z</time>
      </trkpt>
      <trkpt lat="49.24176" lon="3.0335">
        <ele>78.33</ele>
        <time>2021-03-20T15:37:54Z</time>
      </trkpt>
      <trkpt lat="49.24203" lon="3.03402">
        <ele>80.28</ele>
        <time>2021-03-20T15:38:03Z</time>
      </trkpt>
      <trkpt lat="49.24227" lon="3.03439">
        <ele>85.04</ele>
        <time>2021-03-20T15:38:11Z</time>
      </trkpt>
      <trkpt lat="49.24258" lon="3.03472">
        <ele>90.42</ele>
        <time>2021-03-20T15:38:19Z</time>
      </trkpt>
      <trkpt lat="49.2429" lon="3.035">
        <ele>91.3</ele>
        <time>2021-03-20T15:38:27Z</time>
      </trkpt>
      <trkpt lat="49.24453" lon="3.03577">
        <ele>104.79</ele>
        <time>2021-03-20T15:38:35Z</time>
      </trkpt>
      <trkpt lat="49.24539" lon="3.03616">
        <ele>109.55</ele>
        <time>2021-03-20T15:38:43Z</time>
      </trkpt>
      <trkpt lat="49.24565" lon="3.03636">
        <ele>110.45</ele>
        <time>2021-03-20T15:38:52Z</time>
      </trkpt>
      <trkpt lat="49.24609" lon="3.03682">
        <ele>114.67</ele>
        <time>2021-03-20T15:39:00Z</time>
      </trkpt>
      <trkpt lat="49.24632" lon="3.03717">
        <ele>116.99</ele>
        <time>2021-03-20T15:39:08Z</time>
      </trkpt>
      <trkpt lat="49.24654" lon="3.03758">
        <ele>118.45</ele>
        <time>2021-03-20T15:39:16Z</time>
      </trkpt>
      <trkpt lat="49.24681" lon="3.03829">
        <ele>119</ele>
        <time>2021-03-20T15:39:24Z</time>
      </trkpt>
      <trkpt lat="49.24692" lon="3.03875">
        <ele>119.95</ele>
        <time>2021-03-20T15:39:32Z</time>
      </trkpt>
      <trkpt lat="49.24698" lon="3.03914">
        <ele>120.13</ele>
        <time>2021-03-20T15:39:41Z</time>
      </trkpt>
      <trkpt lat="49.24702" lon="3.03956">
        <ele>120.58</ele>
        <time>2021-03-20T15:39:49Z</time>
      </trkpt>
      <trkpt lat="49.24714" lon="3.04125">
        <ele>124.48</ele>
        <time>2021-03-20T15:39:57Z</time>
      </trkpt>
      <trkpt lat="49.24722" lon="3.04194">
        <ele>125</ele>
        <time>2021-03-20T15:40:05Z</time>
      </trkpt>
      <trkpt lat="49.24737" lon="3.04288">
        <ele>126</ele>
        <time>2021-03-20T15:40:13Z</time>
      </trkpt>
      <trkpt lat="49.24749" lon="3.04344">
        <ele>127.38</ele>
        <time>2021-03-20T15:40:21Z</time>
      </trkpt>
      <trkpt lat="49.24772" lon="3.04432">
        <ele>129</ele>
        <time>2021-03-20T15:40:29Z</time>
      </trkpt>
      <trkpt lat="49.25055" lon="3.05382">
        <ele>122.25</ele>
        <time>2021-03-20T15:40:38Z</time>
      </trkpt>
      <trkpt lat="49.25113" lon="3.05587">
        <ele>122</ele>
        <time>2021-03-20T15:40:46Z</time>
      </trkpt>
      <trkpt lat="49.25138" lon="3.057">
        <ele>121.99</ele>
        <time>2021-03-20T15:40:54Z</time>
      </trkpt>
      <trkpt lat="49.25216" lon="3.06185">
        <ele>124</ele>
        <time>2021-03-20T15:41:02Z</time>
      </trkpt>
      <trkpt lat="49.2524" lon="3.06328">
        <ele>124.29</ele>
        <time>2021-03-20T15:41:10Z</time>
      </trkpt>
      <trkpt lat="49.25268" lon="3.06462">
        <ele>126.17</ele>
        <time>2021-03-20T15:41:18Z</time>
      </trkpt>
      <trkpt lat="49.25293" lon="3.06543">
        <ele>123.54</ele>
        <time>2021-03-20T15:41:27Z</time>
      </trkpt>
      <trkpt lat="49.25319" lon="3.06611">
        <ele>125.49</ele>
        <time>2021-03-20T15:41:35Z</time>
      </trkpt>
      <trkpt lat="49.25347" lon="3.06671">
        <ele>125</ele>
        <time>2021-03-20T15:41:43Z</time>
      </trkpt>
      <trkpt lat="49.25363" lon="3.06701">
        <ele>124.96</ele>
        <time>2021-03-20T15:41:51Z</time>
      </trkpt>
      <trkpt lat="49.25385" lon="3.06739">
        <ele>125</ele>
        <time>2021-03-20T15:41:59Z</time>
      </trkpt>
      <trkpt lat="49.2544" lon="3.06823">
        <ele>126.83</ele>
        <time>2021-03-20T15:42:07Z</time>
      </trkpt>
      <trkpt lat="49.25662" lon="3.07123">
        <ele>127</ele>
        <time>2021-03-20T15:42:16Z</time>
      </trkpt>
      <trkpt lat="49.26119" lon="3.07735">
        <ele>131</ele>
        <time>2021-03-20T15:42:24Z</time>
      </trkpt>
      <trkpt lat="49.26194" lon="3.07846">
        <ele>132.47</ele>
        <time>2021-03-20T15:42:32Z</time>
      </trkpt>
      <trkpt lat="49.26247" lon="3.07914">
        <ele>134.91</ele>
        <time>2021-03-20T15:42:40Z</time>
      </trkpt>
      <trkpt lat="49.26306" lon="3.08009">
        <ele>138.15</ele>
        <time>2021-03-20T15:42:48Z</time>
      </trkpt>
      <trkpt lat="49.26384" lon="3.08165">
        <ele>134.95</ele>
        <time>2021-03-20T15:42:56Z</time>
      </trkpt>
      <trkpt lat="49.26427" lon="3.08266">
        <ele>135.42</ele>
        <time>2021-03-20T15:43:05Z</time>
      </trkpt>
      <trkpt lat="49.26454" lon="3.08335">
        <ele>133.68</ele>
        <time>2021-03-20T15:43:13Z</time>
      </trkpt>
      <trkpt lat="49.26485" lon="3.08427">
        <ele>135.93</ele>
        <time>2021-03-20T15:43:21Z</time>
      </trkpt>
      <trkpt lat="49.26546" lon="3.08658">
        <ele>140.1</ele>
        <time>2021-03-20T15:43:29Z</time>
      </trkpt>
      <trkpt lat="49.26572" lon="3.08787">
        <ele>139.73</ele>
        <time>2021-03-20T15:43:37Z</time>
      </trkpt>
      <trkpt lat="49.26592" lon="3.08923">
        <ele>141.55</ele>
        <time>2021-03-20T15:43:45Z</time>
      </trkpt>
      <trkpt lat="49.26603" lon="3.09037">
        <ele>140.62</ele>
        <time>2021-03-20T15:43:53Z</time>
      </trkpt>
      <trkpt lat="49.26608" lon="3.09113">
        <ele>140.15</ele>
        <time>2021-03-20T15:44:02Z</time>
      </trkpt>
      <trkpt lat="49.26611" lon="3.09197">
        <ele>139.08</ele>
        <time>2021-03-20T15:44:10Z</time>
      </trkpt>
      <trkpt lat="49.26613" lon="3.09319">
        <ele>140.05</ele>
        <time>2021-03-20T15:44:18Z</time>
      </trkpt>
      <trkpt lat="49.26611" lon="3.09609">
        <ele>142.06</ele>
        <time>2021-03-20T15:44:26Z</time>
      </trkpt>
      <trkpt lat="49.26602" lon="3.09721">
        <ele>138.02</ele>
        <time>2021-03-20T15:44:31Z</time>
      </trkpt>
      <trkpt lat="49.26591" lon="3.09799">
        <ele>137.78</ele>
        <time>2021-03-20T15:44:36Z</time>
      </trkpt>
      <trkpt lat="49.26553" lon="3.09999">
        <ele>138.85</ele>
        <time>2021-03-20T15:44:40Z</time>
      </trkpt>
      <trkpt lat="49.26553" lon="3.10008">
        <ele>138.89</ele>
        <time>2021-03-20T15:44:45Z</time>
      </trkpt>
      <trkpt lat="49.26709" lon="3.10007">
        <ele>142.75</ele>
        <time>2021-03-20T15:44:52Z</time>
      </trkpt>
      <trkpt lat="49.26879" lon="3.10012">
        <ele>147.83</ele>
        <time>2021-03-20T15:44:59Z</time>
      </trkpt>
      <trkpt lat="49.26938" lon="3.10017">
        <ele>155.94</ele>
        <time>2021-03-20T15:45:06Z</time>
      </trkpt>
      <trkpt lat="49.26971" lon="3.10042">
        <ele>156.89</ele>
        <time>2021-03-20T15:45:13Z</time>
      </trkpt>
      <trkpt lat="49.27214" lon="3.10183">
        <ele>162.64</ele>
        <time>2021-03-20T15:45:20Z</time>
      </trkpt>
      <trkpt lat="49.27707" lon="3.10492">
        <ele>177.64</ele>
        <time>2021-03-20T15:45:27Z</time>
      </trkpt>
      <trkpt lat="49.27793" lon="3.10544">
        <ele>182.22</ele>
        <time>2021-03-20T15:45:34Z</time>
      </trkpt>
      <trkpt lat="49.2789" lon="3.10607">
        <ele>189.21</ele>
        <time>2021-03-20T15:45:41Z</time>
      </trkpt>
      <trkpt lat="49.28159" lon="3.10874">
        <ele>178.58</ele>
        <time>2021-03-20T15:45:48Z</time>
      </trkpt>
      <trkpt lat="49.28176" lon="3.10895">
        <ele>181.16</ele>
        <time>2021-03-20T15:45:55Z</time>
      </trkpt>
      <trkpt lat="49.28193" lon="3.10919">
        <ele>183.9</ele>
        <time>2021-03-20T15:46:02Z</time>
      </trkpt>
      <trkpt lat="49.28204" lon="3.10948">
        <ele>184.66</ele>
        <time>2021-03-20T15:46:09Z</time>
      </trkpt>
      <trkpt lat="49.28209" lon="3.10972">
        <ele>184.47</ele>
        <time>2021-03-20T15:46:16Z</time>
      </trkpt>
      <trkpt lat="49.28212" lon="3.1099">
        <ele>183.89</ele>
        <time>2021-03-20T15:46:23Z</time>
      </trkpt>
      <trkpt lat="49.28213" lon="3.1101">
        <ele>183.66</ele>
        <time>2021-03-20T15:46:30Z</time>
      </trkpt>
      <trkpt lat="49.28208" lon="3.1137">
        <ele>190.68</ele>
        <time>2021-03-20T15:46:37Z</time>
      </trkpt>
      <trkpt lat="49.28221" lon="3.1143">
        <ele>191.08</ele>
        <time>2021-03-20T15:46:44Z</time>
      </trkpt>
      <trkpt lat="49.28228" lon="3.11442">
        <ele>191.44</ele>
        <time>2021-03-20T15:46:51Z</time>
      </trkpt>
      <trkpt lat="49.28238" lon="3.11452">
        <ele>191.16</ele>
        <time>2021-03-20T15:46:58Z</time>
      </trkpt>
      <trkpt lat="49.28254" lon="3.11457">
        <ele>190.47</ele>
        <time>2021-03-20T15:47:05Z</time>
      </trkpt>
      <trkpt lat="49.28266" lon="3.11453">
        <ele>190.32</ele>
        <time>2021-03-20T15:47:12Z</time>
      </trkpt>
      <trkpt lat="49.28274" lon="3.11447">
        <ele>190.09</ele>
        <time>2021-03-20T15:47:19Z</time>
      </trkpt>
      <trkpt lat="49.28297" lon="3.11404">
        <ele>192.25</ele>
        <time>2021-03-20T15:47:26Z</time>
      </trkpt>
      <trkpt lat="49.28376" lon="3.11224">
        <ele>188.87</ele>
        <time>2021-03-20T15:47:33Z</time>
      </trkpt>
      <trkpt lat="49.28422" lon="3.11149">
        <ele>186.31</ele>
        <time>2021-03-20T15:47:40Z</time>
      </trkpt>
      <trkpt lat="49.28531" lon="3.11052">
        <ele>174.01</ele>
        <time>2021-03-20T15:47:47Z</time>
      </trkpt>
      <trkpt lat="49.28657" lon="3.10837">
        <ele>168.51</ele>
        <time>2021-03-20T15:47:54Z</time>
      </trkpt>
      <trkpt lat="49.287" lon="3.10788">
        <ele>166.87</ele>
        <time>2021-03-20T15:48:01Z</time>
      </trkpt>
      <trkpt lat="49.28755" lon="3.10743">
        <ele>164.65</ele>
        <time>2021-03-20T15:48:08Z</time>
      </trkpt>
      <trkpt lat="49.28981" lon="3.1063">
        <ele>165.53</ele>
        <time>2021-03-20T15:48:15Z</time>
      </trkpt>
      <trkpt lat="49.29204" lon="3.10591">
        <ele>166.36</ele>
        <time>2021-03-20T15:48:22Z</time>
      </trkpt>
      <trkpt lat="49.29418" lon="3.10573">
        <ele>149.58</ele>
        <time>2021-03-20T15:48:28Z</time>
      </trkpt>
      <trkpt lat="49.29479" lon="3.10573">
        <ele>143.74</ele>
        <time>2021-03-20T15:48:35Z</time>
      </trkpt>
      <trkpt lat="49.29533" lon="3.10582">
        <ele>142.79</ele>
        <time>2021-03-20T15:48:42Z</time>
      </trkpt>
      <trkpt lat="49.29611" lon="3.10625">
        <ele>141.51</ele>
        <time>2021-03-20T15:48:49Z</time>
      </trkpt>
      <trkpt lat="49.29668" lon="3.1067">
        <ele>140.13</ele>
        <time>2021-03-20T15:48:56Z</time>
      </trkpt>
      <trkpt lat="49.29755" lon="3.10764">
        <ele>138.83</ele>
        <time>2021-03-20T15:49:03Z</time>
      </trkpt>
      <trkpt lat="49.29845" lon="3.10854">
        <ele>136.86</ele>
        <time>2021-03-20T15:49:10Z</time>
      </trkpt>
      <trkpt lat="49.29914" lon="3.10907">
        <ele>135.65</ele>
        <time>2021-03-20T15:49:17Z</time>
      </trkpt>
      <trkpt lat="49.29966" lon="3.10936">
        <ele>135.15</ele>
        <time>2021-03-20T15:49:24Z</time>
      </trkpt>
      <trkpt lat="49.30013" lon="3.10954">
        <ele>135</ele>
        <time>2021-03-20T15:49:31Z</time>
      </trkpt>
      <trkpt lat="49.30062" lon="3.10965">
        <ele>134.77</ele>
        <time>2021-03-20T15:49:38Z</time>
      </trkpt>
      <trkpt lat="49.30114" lon="3.10969">
        <ele>133.08</ele>
        <time>2021-03-20T15:49:45Z</time>
      </trkpt>
      <trkpt lat="49.30153" lon="3.10965">
        <ele>134.64</ele>
        <time>2021-03-20T15:49:52Z</time>
      </trkpt>
      <trkpt lat="49.30194" lon="3.10958">
        <ele>136.45</ele>
        <time>2021-03-20T15:49:59Z</time>
      </trkpt>
      <trkpt lat="49.30229" lon="3.10947">
        <ele>137.1</ele>
        <time>2021-03-20T15:50:06Z</time>
      </trkpt>
      <trkpt lat="49.30267" lon="3.1093">
        <ele>137</ele>
        <time>2021-03-20T15:50:13Z</time>
      </trkpt>
      <trkpt lat="49.30318" lon="3.109">
        <ele>137.61</ele>
        <time>2021-03-20T15:50:20Z</time>
      </trkpt>
      <trkpt lat="49.30354" lon="3.1087">
        <ele>138.24</ele>
        <time>2021-03-20T15:50:27Z</time>
      </trkpt>
      <trkpt lat="49.3039" lon="3.10835">
        <ele>139.97</ele>
        <time>2021-03-20T15:50:34Z</time>
      </trkpt>
      <trkpt lat="49.30417" lon="3.10805">
        <ele>141.02</ele>
        <time>2021-03-20T15:50:41Z</time>
      </trkpt>
      <trkpt lat="49.30461" lon="3.10744">
        <ele>141.69</ele>
        <time>2021-03-20T15:50:48Z</time>
      </trkpt>
      <trkpt lat="49.30492" lon="3.10693">
        <ele>142.69</ele>
        <time>2021-03-20T15:50:55Z</time>
      </trkpt>
      <trkpt lat="49.30607" lon="3.10477">
        <ele>143.74</ele>
        <time>2021-03-20T15:51:02Z</time>
      </trkpt>
      <trkpt lat="49.30651" lon="3.10418">
        <ele>143</ele>
        <time>2021-03-20T15:51:09Z</time>
      </trkpt>
      <trkpt lat="49.30699" lon="3.1037">
        <ele>141.84</ele>
        <time>2021-03-20T15:51:16Z</time>
      </trkpt>
      <trkpt lat="49.30743" lon="3.10338">
        <ele>140.26</ele>
        <time>2021-03-20T15:51:23Z</time>
      </trkpt>
      <trkpt lat="49.30785" lon="3.10316">
        <ele>138.73</ele>
        <time>2021-03-20T15:51:30Z</time>
      </trkpt>
      <trkpt lat="49.30838" lon="3.10299">
        <ele>136.96</ele>
        <time>2021-03-20T15:51:37Z</time>
      </trkpt>
      <trkpt lat="49.30889" lon="3.10293">
        <ele>136.54</ele>
        <time>2021-03-20T15:51:44Z</time>
      </trkpt>
      <trkpt lat="49.3092" lon="3.10294">
        <ele>136.81</ele>
        <time>2021-03-20T15:51:51Z</time>
      </trkpt>
      <trkpt lat="49.31098" lon="3.1032">
        <ele>138</ele>
        <time>2021-03-20T15:51:58Z</time>
      </trkpt>
      <trkpt lat="49.31138" lon="3.10323">
        <ele>138</ele>
        <time>2021-03-20T15:52:05Z</time>
      </trkpt>
      <trkpt lat="49.31194" lon="3.10322">
        <ele>139.58</ele>
        <time>2021-03-20T15:52:12Z</time>
      </trkpt>
      <trkpt lat="49.31279" lon="3.10314">
        <ele>139.32</ele>
        <time>2021-03-20T15:52:19Z</time>
      </trkpt>
      <trkpt lat="49.31339" lon="3.10314">
        <ele>140.32</ele>
        <time>2021-03-20T15:52:26Z</time>
      </trkpt>
      <trkpt lat="49.31819" lon="3.1033">
        <ele>142.58</ele>
        <time>2021-03-20T15:52:33Z</time>
      </trkpt>
      <trkpt lat="49.3187" lon="3.10326">
        <ele>142.68</ele>
        <time>2021-03-20T15:52:40Z</time>
      </trkpt>
      <trkpt lat="49.32824" lon="3.1015">
        <ele>144.66</ele>
        <time>2021-03-20T15:52:47Z</time>
      </trkpt>
      <trkpt lat="49.32877" lon="3.10133">
        <ele>145</ele>
        <time>2021-03-20T15:52:54Z</time>
      </trkpt>
      <trkpt lat="49.33387" lon="3.09943">
        <ele>146.94</ele>
        <time>2021-03-20T15:53:01Z</time>
      </trkpt>
      <trkpt lat="49.33411" lon="3.09936">
        <ele>147.8</ele>
        <time>2021-03-20T15:53:08Z</time>
      </trkpt>
      <trkpt lat="49.33435" lon="3.09933">
        <ele>148</ele>
        <time>2021-03-20T15:53:15Z</time>
      </trkpt>
      <trkpt lat="49.33507" lon="3.09937">
        <ele>149</ele>
        <time>2021-03-20T15:53:22Z</time>
      </trkpt>
      <trkpt lat="49.33596" lon="3.09946">
        <ele>148.58</ele>
        <time>2021-03-20T15:53:29Z</time>
      </trkpt>
      <trkpt lat="49.33836" lon="3.09987">
        <ele>147</ele>
        <time>2021-03-20T15:53:36Z</time>
      </trkpt>
      <trkpt lat="49.33913" lon="3.0999">
        <ele>148.58</ele>
        <time>2021-03-20T15:53:43Z</time>
      </trkpt>
      <trkpt lat="49.34023" lon="3.09975">
        <ele>148.09</ele>
        <time>2021-03-20T15:53:50Z</time>
      </trkpt>
      <trkpt lat="49.34256" lon="3.09936">
        <ele>149.52</ele>
        <time>2021-03-20T15:53:57Z</time>
      </trkpt>
      <trkpt lat="49.34538" lon="3.09857">
        <ele>151.37</ele>
        <time>2021-03-20T15:54:03Z</time>
      </trkpt>
      <trkpt lat="49.34562" lon="3.09856">
        <ele>152.5</ele>
        <time>2021-03-20T15:54:10Z</time>
      </trkpt>
      <trkpt lat="49.34581" lon="3.09857">
        <ele>153.94</ele>
        <time>2021-03-20T15:54:17Z</time>
      </trkpt>
      <trkpt lat="49.3462" lon="3.09866">
        <ele>157.42</ele>
        <time>2021-03-20T15:54:24Z</time>
      </trkpt>
      <trkpt lat="49.34739" lon="3.09919">
        <ele>160.91</ele>
        <time>2021-03-20T15:54:31Z</time>
      </trkpt>
      <trkpt lat="49.3476" lon="3.09931">
        <ele>160.49</ele>
        <time>2021-03-20T15:54:38Z</time>
      </trkpt>
      <trkpt lat="49.3481" lon="3.09975">
        <ele>159.82</ele>
        <time>2021-03-20T15:54:45Z</time>
      </trkpt>
      <trkpt lat="49.35268" lon="3.10479">
        <ele>147.24</ele>
        <time>2021-03-20T15:54:52Z</time>
      </trkpt>
      <trkpt lat="49.35485" lon="3.10587">
        <ele>147.07</ele>
        <time>2021-03-20T15:54:59Z</time>
      </trkpt>
      <trkpt lat="49.36333" lon="3.1111">
        <ele>147.98</ele>
        <time>2021-03-20T15:55:06Z</time>
      </trkpt>
      <trkpt lat="49.36522" lon="3.11191">
        <ele>149.32</ele>
        <time>2021-03-20T15:55:13Z</time>
      </trkpt>
      <trkpt lat="49.36756" lon="3.11283">
        <ele>143.04</ele>
        <time>2021-03-20T15:55:20Z</time>
      </trkpt>
      <trkpt lat="49.36793" lon="3.11309">
        <ele>144</ele>
        <time>2021-03-20T15:55:27Z</time>
      </trkpt>
      <trkpt lat="49.37529" lon="3.12307">
        <ele>144.97</ele>
        <time>2021-03-20T15:55:34Z</time>
      </trkpt>
      <trkpt lat="49.37941" lon="3.13084">
        <ele>147.87</ele>
        <time>2021-03-20T15:55:41Z</time>
      </trkpt>
      <trkpt lat="49.3816" lon="3.13031">
        <ele>146.97</ele>
        <time>2021-03-20T15:55:45Z</time>
      </trkpt>
      <trkpt lat="49.38217" lon="3.13015">
        <ele>148</ele>
        <time>2021-03-20T15:55:49Z</time>
      </trkpt>
      <trkpt lat="49.38247" lon="3.13004">
        <ele>148</ele>
        <time>2021-03-20T15:55:53Z</time>
      </trkpt>
      <trkpt lat="49.38274" lon="3.1299">
        <ele>147.7</ele>
        <time>2021-03-20T15:55:57Z</time>
      </trkpt>
      <trkpt lat="49.38304" lon="3.12971">
        <ele>146.04</ele>
        <time>2021-03-20T15:56:01Z</time>
      </trkpt>
      <trkpt lat="49.38339" lon="3.12942">
        <ele>144.98</ele>
        <time>2021-03-20T15:56:05Z</time>
      </trkpt>
      <trkpt lat="49.38398" lon="3.12881">
        <ele>142.67</ele>
        <time>2021-03-20T15:56:09Z</time>
      </trkpt>
      <trkpt lat="49.38457" lon="3.12817">
        <ele>139.56</ele>
        <time>2021-03-20T15:56:12Z</time>
      </trkpt>
      <trkpt lat="49.38505" lon="3.12758">
        <ele>138.05</ele>
        <time>2021-03-20T15:56:16Z</time>
      </trkpt>
      <trkpt lat="49.38587" lon="3.12643">
        <ele>135.14</ele>
        <time>2021-03-20T15:56:20Z</time>
      </trkpt>
      <trkpt lat="49.38611" lon="3.12599">
        <ele>136</ele>
        <time>2021-03-20T15:56:24Z</time>
      </trkpt>
      <trkpt lat="49.38671" lon="3.12435">
        <ele>131.38</ele>
        <time>2021-03-20T15:56:28Z</time>
      </trkpt>
      <trkpt lat="49.38688" lon="3.1237">
        <ele>129.45</ele>
        <time>2021-03-20T15:56:32Z</time>
      </trkpt>
      <trkpt lat="49.38695" lon="3.12235">
        <ele>129.36</ele>
        <time>2021-03-20T15:56:36Z</time>
      </trkpt>
      <trkpt lat="49.38719" lon="3.12119">
        <ele>119.68</ele>
        <time>2021-03-20T15:56:40Z</time>
      </trkpt>
      <trkpt lat="49.38724" lon="3.12005">
        <ele>109.81</ele>
        <time>2021-03-20T15:56:44Z</time>
      </trkpt>
      <trkpt lat="49.38718" lon="3.11953">
        <ele>110.68</ele>
        <time>2021-03-20T15:56:47Z</time>
      </trkpt>
      <trkpt lat="49.38721" lon="3.11903">
        <ele>109.83</ele>
        <time>2021-03-20T15:56:51Z</time>
      </trkpt>
      <trkpt lat="49.38736" lon="3.11862">
        <ele>107.99</ele>
        <time>2021-03-20T15:56:55Z</time>
      </trkpt>
      <trkpt lat="49.38776" lon="3.11775">
        <ele>104.74</ele>
        <time>2021-03-20T15:56:59Z</time>
      </trkpt>
      <trkpt lat="49.38799" lon="3.11714">
        <ele>99.86</ele>
        <time>2021-03-20T15:57:03Z</time>
      </trkpt>
      <trkpt lat="49.38824" lon="3.11665">
        <ele>97.38</ele>
        <time>2021-03-20T15:57:07Z</time>
      </trkpt>
      <trkpt lat="49.38871" lon="3.11601">
        <ele>94.11</ele>
        <time>2021-03-20T15:57:11Z</time>
      </trkpt>
      <trkpt lat="49.38903" lon="3.11543">
        <ele>92.4</ele>
        <time>2021-03-20T15:57:15Z</time>
      </trkpt>
      <trkpt lat="49.38933" lon="3.11514">
        <ele>86.56</ele>
        <time>2021-03-20T15:57:19Z</time>
      </trkpt>
      <trkpt lat="49.38955" lon="3.11512">
        <ele>82.42</ele>
        <time>2021-03-20T15:57:23Z</time>
      </trkpt>
      <trkpt lat="49.3904" lon="3.11546">
        <ele>74.04</ele>
        <time>2021-03-20T15:57:26Z</time>
      </trkpt>
      <trkpt lat="49.3906" lon="3.11545">
        <ele>73.57</ele>
        <time>2021-03-20T15:57:30Z</time>
      </trkpt>
      <trkpt lat="49.39083" lon="3.11535">
        <ele>72.51</ele>
        <time>2021-03-20T15:57:34Z</time>
      </trkpt>
      <trkpt lat="49.39103" lon="3.11521">
        <ele>70.95</ele>
        <time>2021-03-20T15:57:38Z</time>
      </trkpt>
      <trkpt lat="49.3912" lon="3.11494">
        <ele>70.38</ele>
        <time>2021-03-20T15:57:42Z</time>
      </trkpt>
      <trkpt lat="49.39132" lon="3.1146">
        <ele>69.84</ele>
        <time>2021-03-20T15:57:46Z</time>
      </trkpt>
      <trkpt lat="49.39149" lon="3.11381">
        <ele>58.84</ele>
        <time>2021-03-20T15:57:50Z</time>
      </trkpt>
      <trkpt lat="49.39169" lon="3.11344">
        <ele>54.01</ele>
        <time>2021-03-20T15:57:54Z</time>
      </trkpt>
      <trkpt lat="49.39194" lon="3.11318">
        <ele>48.97</ele>
        <time>2021-03-20T15:57:58Z</time>
      </trkpt>
      <trkpt lat="49.39206" lon="3.11312">
        <ele>48.35</ele>
        <time>2021-03-20T15:58:02Z</time>
      </trkpt>
      <trkpt lat="49.39219" lon="3.11309">
        <ele>48.12</ele>
        <time>2021-03-20T15:58:05Z</time>
      </trkpt>
      <trkpt lat="49.3924" lon="3.11311">
        <ele>47.69</ele>
        <time>2021-03-20T15:58:09Z</time>
      </trkpt>
      <trkpt lat="49.39266" lon="3.11326">
        <ele>47.49</ele>
        <time>2021-03-20T15:58:13Z</time>
      </trkpt>
      <trkpt lat="49.39276" lon="3.11336">
        <ele>47.52</ele>
        <time>2021-03-20T15:58:17Z</time>
      </trkpt>
      <trkpt lat="49.39308" lon="3.11384">
        <ele>46.32</ele>
        <time>2021-03-20T15:58:21Z</time>
      </trkpt>
      <trkpt lat="49.39319" lon="3.11397">
        <ele>44.47</ele>
        <time>2021-03-20T15:58:25Z</time>
      </trkpt>
      <trkpt lat="49.39339" lon="3.11412">
        <ele>42.28</ele>
        <time>2021-03-20T15:58:29Z</time>
      </trkpt>
      <trkpt lat="49.39361" lon="3.1142">
        <ele>41.15</ele>
        <time>2021-03-20T15:58:33Z</time>
      </trkpt>
      <trkpt lat="49.39378" lon="3.11424">
        <ele>41.27</ele>
        <time>2021-03-20T15:58:37Z</time>
      </trkpt>
      <trkpt lat="49.39426" lon="3.11428">
        <ele>41</ele>
        <time>2021-03-20T15:58:40Z</time>
      </trkpt>
      <trkpt lat="49.39604" lon="3.11419">
        <ele>38</ele>
        <time>2021-03-20T15:58:44Z</time>
      </trkpt>
      <trkpt lat="49.4006" lon="3.11393">
        <ele>39.14</ele>
        <time>2021-03-20T15:58:48Z</time>
      </trkpt>
      <trkpt lat="49.40145" lon="3.11386">
        <ele>37.09</ele>
        <time>2021-03-20T15:58:52Z</time>
      </trkpt>
      <trkpt lat="49.40242" lon="3.11382">
        <ele>36.99</ele>
        <time>2021-03-20T15:58:56Z</time>
      </trkpt>
      <trkpt lat="49.4025" lon="3.11383">
        <ele>37.57</ele>
        <time>2021-03-20T15:59:00Z</time>
      </trkpt>
      <trkpt lat="49.40258" lon="3.11388">
        <ele>38.99</ele>
        <time>2021-03-20T15:59:04Z</time>
      </trkpt>
      <trkpt lat="49.40273" lon="3.11392">
        <ele>41.68</ele>
        <time>2021-03-20T15:59:08Z</time>
      </trkpt>
      <trkpt lat="49.40275" lon="3.11397">
        <ele>42.61</ele>
        <time>2021-03-20T15:59:14Z</time>
      </trkpt>
      <trkpt lat="49.40281" lon="3.11402">
        <ele>43.6</ele>
        <time>2021-03-20T15:59:20Z</time>
      </trkpt>
      <trkpt lat="49.40288" lon="3.11401">
        <ele>42.76</ele>
        <time>2021-03-20T15:59:26Z</time>
      </trkpt>
      <trkpt lat="49.40293" lon="3.11395">
        <ele>41.51</ele>
        <time>2021-03-20T15:59:31Z</time>
      </trkpt>
      <trkpt lat="49.40294" lon="3.1139">
        <ele>40.89</ele>
        <time>2021-03-20T15:59:37Z</time>
      </trkpt>
      <trkpt lat="49.403" lon="3.11382">
        <ele>40.04</ele>
        <time>2021-03-20T15:59:43Z</time>
      </trkpt>
      <trkpt lat="49.40311" lon="3.11375">
        <ele>39.21</ele>
        <time>2021-03-20T15:59:49Z</time>
      </trkpt>
      <trkpt lat="49.40328" lon="3.11371">
        <ele>38.25</ele>
        <time>2021-03-20T15:59:55Z</time>
      </trkpt>
      <trkpt lat="49.4034" lon="3.11374">
        <ele>38.13</ele>
        <time>2021-03-20T16:00:01Z</time>
      </trkpt>
      <trkpt lat="49.40352" lon="3.11379">
        <ele>38.24</ele>
        <time>2021-03-20T16:00:07Z</time>
      </trkpt>
      <trkpt lat="49.40365" lon="3.11392">
        <ele>38.31</ele>
        <time>2021-03-20T16:00:13Z</time>
      </trkpt>
      <trkpt lat="49.40431" lon="3.11507">
        <ele>45.49</ele>
        <time>2021-03-20T16:00:19Z</time>
      </trkpt>
      <trkpt lat="49.4045" lon="3.11528">
        <ele>46.41</ele>
        <time>2021-03-20T16:00:25Z</time>
      </trkpt>
      <trkpt lat="49.40465" lon="3.11536">
        <ele>47.56</ele>
        <time>2021-03-20T16:00:31Z</time>
      </trkpt>
      <trkpt lat="49.405" lon="3.11539">
        <ele>49</ele>
        <time>2021-03-20T16:00:36Z</time>
      </trkpt>
      <trkpt lat="49.40533" lon="3.11538">
        <ele>50.19</ele>
        <time>2021-03-20T16:00:42Z</time>
      </trkpt>
      <trkpt lat="49.40596" lon="3.11495">
        <ele>51.92</ele>
        <time>2021-03-20T16:00:48Z</time>
      </trkpt>
      <trkpt lat="49.40601" lon="3.1149">
        <ele>51.76</ele>
        <time>2021-03-20T16:00:54Z</time>
      </trkpt>
      <trkpt lat="49.40605" lon="3.11477">
        <ele>51.34</ele>
        <time>2021-03-20T16:01:00Z</time>
      </trkpt>
      <trkpt lat="49.40606" lon="3.11373">
        <ele>48.51</ele>
        <time>2021-03-20T16:01:06Z</time>
      </trkpt>
      <trkpt lat="49.40613" lon="3.11356">
        <ele>47.69</ele>
        <time>2021-03-20T16:01:12Z</time>
      </trkpt>
      <trkpt lat="49.40624" lon="3.11348">
        <ele>46.39</ele>
        <time>2021-03-20T16:01:18Z</time>
      </trkpt>
      <trkpt lat="49.40671" lon="3.11333">
        <ele>42.97</ele>
        <time>2021-03-20T16:01:24Z</time>
      </trkpt>
      <trkpt lat="49.40678" lon="3.11328">
        <ele>42.8</ele>
        <time>2021-03-20T16:01:30Z</time>
      </trkpt>
      <trkpt lat="49.40696" lon="3.11312">
        <ele>42.15</ele>
        <time>2021-03-20T16:01:36Z</time>
      </trkpt>
      <trkpt lat="49.40703" lon="3.11301">
        <ele>41.58</ele>
        <time>2021-03-20T16:01:41Z</time>
      </trkpt>
      <trkpt lat="49.40744" lon="3.1121">
        <ele>41.22</ele>
        <time>2021-03-20T16:01:47Z</time>
      </trkpt>
      <trkpt lat="49.40747" lon="3.11184">
        <ele>41.14</ele>
        <time>2021-03-20T16:01:53Z</time>
      </trkpt>
      <trkpt lat="49.40746" lon="3.11149">
        <ele>41.3</ele>
        <time>2021-03-20T16:01:59Z</time>
      </trkpt>
      <trkpt lat="49.40747" lon="3.11132">
        <ele>41.23</ele>
        <time>2021-03-20T16:02:05Z</time>
      </trkpt>
      <trkpt lat="49.40752" lon="3.11105">
        <ele>41.17</ele>
        <time>2021-03-20T16:02:11Z</time>
      </trkpt>
      <trkpt lat="49.40759" lon="3.1108">
        <ele>41.44</ele>
        <time>2021-03-20T16:02:17Z</time>
      </trkpt>
      <trkpt lat="49.4077" lon="3.11051">
        <ele>42.29</ele>
        <time>2021-03-20T16:02:23Z</time>
      </trkpt>
      <trkpt lat="49.40787" lon="3.11019">
        <ele>44.31</ele>
        <time>2021-03-20T16:02:29Z</time>
      </trkpt>
      <trkpt lat="49.40944" lon="3.10779">
        <ele>49</ele>
        <time>2021-03-20T16:02:35Z</time>
      </trkpt>
      <trkpt lat="49.40961" lon="3.10762">
        <ele>49.57</ele>
        <time>2021-03-20T16:02:41Z</time>
      </trkpt>
      <trkpt lat="49.40976" lon="3.10754">
        <ele>49.73</ele>
        <time>2021-03-20T16:02:46Z</time>
      </trkpt>
      <trkpt lat="49.40986" lon="3.10752">
        <ele>49.46</ele>
        <time>2021-03-20T16:02:52Z</time>
      </trkpt>
      <trkpt lat="49.4152" lon="3.10689">
        <ele>56.15</ele>
        <time>2021-03-20T16:02:58Z</time>
      </trkpt>
      <trkpt lat="49.41939" lon="3.10635">
        <ele>74.04</ele>
        <time>2021-03-20T16:03:04Z</time>
      </trkpt>
      <trkpt lat="49.41963" lon="3.10634">
        <ele>76.35</ele>
        <time>2021-03-20T16:03:10Z</time>
      </trkpt>
      <trkpt lat="49.41983" lon="3.10642">
        <ele>78.91</ele>
        <time>2021-03-20T16:03:16Z</time>
      </trkpt>
      <trkpt lat="49.42" lon="3.10656">
        <ele>80.43</ele>
        <time>2021-03-20T16:03:22Z</time>
      </trkpt>
      <trkpt lat="49.4201" lon="3.10668">
        <ele>80.54</ele>
        <time>2021-03-20T16:03:28Z</time>
      </trkpt>
      <trkpt lat="49.42027" lon="3.10695">
        <ele>79.78</ele>
        <time>2021-03-20T16:03:34Z</time>
      </trkpt>
      <trkpt lat="49.42064" lon="3.10767">
        <ele>82.72</ele>
        <time>2021-03-20T16:03:40Z</time>
      </trkpt>
      <trkpt lat="49.42075" lon="3.10784">
        <ele>83.5</ele>
        <time>2021-03-20T16:03:46Z</time>
      </trkpt>
      <trkpt lat="49.42092" lon="3.10802">
        <ele>84.04</ele>
        <time>2021-03-20T16:03:52Z</time>
      </trkpt>
      <trkpt lat="49.421" lon="3.10806">
        <ele>84.2</ele>
        <time>2021-03-20T16:03:57Z</time>
      </trkpt>
      <trkpt lat="49.42109" lon="3.10806">
        <ele>84.74</ele>
        <time>2021-03-20T16:04:03Z</time>
      </trkpt>
      <trkpt lat="49.42118" lon="3.10804">
        <ele>85.05</ele>
        <time>2021-03-20T16:04:09Z</time>
      </trkpt>
      <trkpt lat="49.42156" lon="3.10782">
        <ele>89.33</ele>
        <time>2021-03-20T16:04:15Z</time>
      </trkpt>
      <trkpt lat="49.42176" lon="3.10777">
        <ele>92.47</ele>
        <time>2021-03-20T16:04:21Z</time>
      </trkpt>
      <trkpt lat="49.42198" lon="3.10779">
        <ele>95.39</ele>
        <time>2021-03-20T16:04:27Z</time>
      </trkpt>
      <trkpt lat="49.4222" lon="3.10789">
        <ele>96.49</ele>
        <time>2021-03-20T16:04:33Z</time>
      </trkpt>
      <trkpt lat="49.42242" lon="3.10811">
        <ele>96.66</ele>
        <time>2021-03-20T16:04:39Z</time>
      </trkpt>
      <trkpt lat="49.42263" lon="3.10837">
        <ele>97.61</ele>
        <time>2021-03-20T16:04:45Z</time>
      </trkpt>
      <trkpt lat="49.42274" lon="3.10847">
        <ele>98.14</ele>
        <time>2021-03-20T16:04:51Z</time>
      </trkpt>
      <trkpt lat="49.42295" lon="3.10856">
        <ele>101.61</ele>
        <time>2021-03-20T16:04:57Z</time>
      </trkpt>
      <trkpt lat="49.42326" lon="3.10864">
        <ele>106.68</ele>
        <time>2021-03-20T16:05:02Z</time>
      </trkpt>
      <trkpt lat="49.42349" lon="3.10877">
        <ele>107.28</ele>
        <time>2021-03-20T16:05:08Z</time>
      </trkpt>
      <trkpt lat="49.4236" lon="3.10887">
        <ele>107.11</ele>
        <time>2021-03-20T16:05:14Z</time>
      </trkpt>
      <trkpt lat="49.4238" lon="3.10917">
        <ele>104.84</ele>
        <time>2021-03-20T16:05:20Z</time>
      </trkpt>
      <trkpt lat="49.4239" lon="3.10941">
        <ele>103.71</ele>
        <time>2021-03-20T16:05:26Z</time>
      </trkpt>
      <trkpt lat="49.42395" lon="3.10952">
        <ele>103.56</ele>
        <time>2021-03-20T16:05:32Z</time>
      </trkpt>
      <trkpt lat="49.42403" lon="3.10961">
        <ele>103.89</ele>
        <time>2021-03-20T16:05:38Z</time>
      </trkpt>
      <trkpt lat="49.42411" lon="3.10967">
        <ele>104.55</ele>
        <time>2021-03-20T16:05:44Z</time>
      </trkpt>
      <trkpt lat="49.42444" lon="3.10982">
        <ele>109.91</ele>
        <time>2021-03-20T16:05:50Z</time>
      </trkpt>
      <trkpt lat="49.42459" lon="3.10992">
        <ele>111.14</ele>
        <time>2021-03-20T16:05:56Z</time>
      </trkpt>
      <trkpt lat="49.42465" lon="3.11">
        <ele>111.67</ele>
        <time>2021-03-20T16:06:02Z</time>
      </trkpt>
      <trkpt lat="49.42491" lon="3.11051">
        <ele>109.82</ele>
        <time>2021-03-20T16:06:07Z</time>
      </trkpt>
      <trkpt lat="49.42505" lon="3.11065">
        <ele>108.74</ele>
        <time>2021-03-20T16:06:13Z</time>
      </trkpt>
      <trkpt lat="49.42512" lon="3.11068">
        <ele>108.08</ele>
        <time>2021-03-20T16:06:19Z</time>
      </trkpt>
      <trkpt lat="49.42519" lon="3.11067">
        <ele>107.83</ele>
        <time>2021-03-20T16:06:25Z</time>
      </trkpt>
      <trkpt lat="49.42525" lon="3.11064">
        <ele>107.96</ele>
        <time>2021-03-20T16:06:31Z</time>
      </trkpt>
      <trkpt lat="49.42532" lon="3.11056">
        <ele>108.71</ele>
        <time>2021-03-20T16:06:37Z</time>
      </trkpt>
      <trkpt lat="49.42552" lon="3.11015">
        <ele>113.1</ele>
        <time>2021-03-20T16:06:43Z</time>
      </trkpt>
      <trkpt lat="49.42924" lon="3.10171">
        <ele>144</ele>
        <time>2021-03-20T16:06:49Z</time>
      </trkpt>
      <trkpt lat="49.42935" lon="3.10149">
        <ele>144.44</ele>
        <time>2021-03-20T16:06:55Z</time>
      </trkpt>
      <trkpt lat="49.42958" lon="3.10116">
        <ele>144.58</ele>
        <time>2021-03-20T16:07:01Z</time>
      </trkpt>
      <trkpt lat="49.42982" lon="3.10096">
        <ele>144.81</ele>
        <time>2021-03-20T16:07:07Z</time>
      </trkpt>
      <trkpt lat="49.43007" lon="3.10086">
        <ele>145.32</ele>
        <time>2021-03-20T16:07:12Z</time>
      </trkpt>
      <trkpt lat="49.43147" lon="3.1007">
        <ele>146.14</ele>
        <time>2021-03-20T16:07:18Z</time>
      </trkpt>
      <trkpt lat="49.44159" lon="3.10048">
        <ele>146.29</ele>
        <time>2021-03-20T16:07:24Z</time>
      </trkpt>
      <trkpt lat="49.44192" lon="3.10048">
        <ele>146.29</ele>
        <time>2021-03-20T16:07:30Z</time>
      </trkpt>
      <trkpt lat="49.44356" lon="3.10062">
        <ele>145</ele>
        <time>2021-03-20T16:07:36Z</time>
      </trkpt>
      <trkpt lat="49.44853" lon="3.10072">
        <ele>144.3</ele>
        <time>2021-03-20T16:07:42Z</time>
      </trkpt>
      <trkpt lat="49.45528" lon="3.10046">
        <ele>147</ele>
        <time>2021-03-20T16:07:48Z</time>
      </trkpt>
      <trkpt lat="49.45656" lon="3.10045">
        <ele>147.37</ele>
        <time>2021-03-20T16:07:54Z</time>
      </trkpt>
      <trkpt lat="49.45736" lon="3.10051">
        <ele>147.08</ele>
        <time>2021-03-20T16:08:00Z</time>
      </trkpt>
      <trkpt lat="49.46016" lon="3.10083">
        <ele>146.01</ele>
        <time>2021-03-20T16:08:06Z</time>
      </trkpt>
      <trkpt lat="49.46036" lon="3.10083">
        <ele>146</ele>
        <time>2021-03-20T16:08:12Z</time>
      </trkpt>
      <trkpt lat="49.46069" lon="3.10077">
        <ele>145.89</ele>
        <time>2021-03-20T16:08:18Z</time>
      </trkpt>
      <trkpt lat="49.46223" lon="3.10029">
        <ele>143.05</ele>
        <time>2021-03-20T16:08:23Z</time>
      </trkpt>
      <trkpt lat="49.46312" lon="3.09995">
        <ele>142.62</ele>
        <time>2021-03-20T16:08:29Z</time>
      </trkpt>
      <trkpt lat="49.46425" lon="3.09947">
        <ele>139.81</ele>
        <time>2021-03-20T16:08:35Z</time>
      </trkpt>
      <trkpt lat="49.46442" lon="3.09939">
        <ele>138.88</ele>
        <time>2021-03-20T16:08:41Z</time>
      </trkpt>
      <trkpt lat="49.46455" lon="3.09929">
        <ele>138.43</ele>
        <time>2021-03-20T16:08:47Z</time>
      </trkpt>
      <trkpt lat="49.46477" lon="3.09906">
        <ele>137.48</ele>
        <time>2021-03-20T16:08:53Z</time>
      </trkpt>
      <trkpt lat="49.46509" lon="3.09861">
        <ele>137.33</ele>
        <time>2021-03-20T16:08:59Z</time>
      </trkpt>
      <trkpt lat="49.46913" lon="3.09261">
        <ele>145.86</ele>
        <time>2021-03-20T16:09:05Z</time>
      </trkpt>
      <trkpt lat="49.47031" lon="3.09099">
        <ele>149.12</ele>
        <time>2021-03-20T16:09:11Z</time>
      </trkpt>
      <trkpt lat="49.47176" lon="3.08894">
        <ele>151.13</ele>
        <time>2021-03-20T16:09:17Z</time>
      </trkpt>
      <trkpt lat="49.47195" lon="3.08872">
        <ele>151</ele>
        <time>2021-03-20T16:09:23Z</time>
      </trkpt>
      <trkpt lat="49.47213" lon="3.08854">
        <ele>151.18</ele>
        <time>2021-03-20T16:09:28Z</time>
      </trkpt>
      <trkpt lat="49.47566" lon="3.08532">
        <ele>155.37</ele>
        <time>2021-03-20T16:09:34Z</time>
      </trkpt>
      <trkpt lat="49.47584" lon="3.08518">
        <ele>156</ele>
        <time>2021-03-20T16:09:40Z</time>
      </trkpt>
      <trkpt lat="49.47861" lon="3.08353">
        <ele>152.28</ele>
        <time>2021-03-20T16:09:46Z</time>
      </trkpt>
      <trkpt lat="49.47949" lon="3.08297">
        <ele>150.18</ele>
        <time>2021-03-20T16:09:52Z</time>
      </trkpt>
      <trkpt lat="49.48" lon="3.08272">
        <ele>151</ele>
        <time>2021-03-20T16:09:58Z</time>
      </trkpt>
      <trkpt lat="49.48012" lon="3.08348">
        <ele>145.97</ele>
        <time>2021-03-20T16:10:03Z</time>
      </trkpt>
      <trkpt lat="49.48019" lon="3.0843">
        <ele>146.03</ele>
        <time>2021-03-20T16:10:08Z</time>
      </trkpt>
      <trkpt lat="49.48022" lon="3.08528">
        <ele>141.14</ele>
        <time>2021-03-20T16:10:12Z</time>
      </trkpt>
      <trkpt lat="49.4802" lon="3.08583">
        <ele>138.88</ele>
        <time>2021-03-20T16:10:17Z</time>
      </trkpt>
      <trkpt lat="49.48002" lon="3.08671">
        <ele>135.28</ele>
        <time>2021-03-20T16:10:22Z</time>
      </trkpt>
      <trkpt lat="49.47998" lon="3.08708">
        <ele>134.31</ele>
        <time>2021-03-20T16:10:27Z</time>
      </trkpt>
      <trkpt lat="49.47998" lon="3.08747">
        <ele>133.75</ele>
        <time>2021-03-20T16:10:32Z</time>
      </trkpt>
      <trkpt lat="49.4801" lon="3.08865">
        <ele>130.04</ele>
        <time>2021-03-20T16:10:37Z</time>
      </trkpt>
      <trkpt lat="49.4802" lon="3.08985">
        <ele>125.89</ele>
        <time>2021-03-20T16:10:41Z</time>
      </trkpt>
      <trkpt lat="49.48031" lon="3.09032">
        <ele>121.25</ele>
        <time>2021-03-20T16:10:46Z</time>
      </trkpt>
      <trkpt lat="49.48064" lon="3.09084">
        <ele>123.46</ele>
        <time>2021-03-20T16:10:51Z</time>
      </trkpt>
      <trkpt lat="49.48166" lon="3.09216">
        <ele>117.49</ele>
        <time>2021-03-20T16:10:56Z</time>
      </trkpt>
      <trkpt lat="49.48214" lon="3.09292">
        <ele>110.02</ele>
        <time>2021-03-20T16:11:01Z</time>
      </trkpt>
      <trkpt lat="49.4827" lon="3.09414">
        <ele>103.71</ele>
        <time>2021-03-20T16:11:05Z</time>
      </trkpt>
      <trkpt lat="49.48284" lon="3.09437">
        <ele>101.76</ele>
        <time>2021-03-20T16:11:10Z</time>
      </trkpt>
      <trkpt lat="49.48352" lon="3.09549">
        <ele>101.19</ele>
        <time>2021-03-20T16:11:15Z</time>
      </trkpt>
      <trkpt lat="49.48468" lon="3.09681">
        <ele>104.89</ele>
        <time>2021-03-20T16:11:20Z</time>
      </trkpt>
      <trkpt lat="49.4849" lon="3.09733">
        <ele>103.09</ele>
        <time>2021-03-20T16:11:25Z</time>
      </trkpt>
      <trkpt lat="49.48499" lon="3.0975">
        <ele>101.93</ele>
        <time>2021-03-20T16:11:29Z</time>
      </trkpt>
      <trkpt lat="49.4857" lon="3.09812">
        <ele>97.88</ele>
        <time>2021-03-20T16:11:34Z</time>
      </trkpt>
      <trkpt lat="49.4863" lon="3.09838">
        <ele>98.17</ele>
        <time>2021-03-20T16:11:39Z</time>
      </trkpt>
      <trkpt lat="49.48638" lon="3.09846">
        <ele>98.44</ele>
        <time>2021-03-20T16:11:44Z</time>
      </trkpt>
      <trkpt lat="49.48664" lon="3.09879">
        <ele>101.76</ele>
        <time>2021-03-20T16:11:49Z</time>
      </trkpt>
      <trkpt lat="49.48679" lon="3.09886">
        <ele>104.68</ele>
        <time>2021-03-20T16:11:53Z</time>
      </trkpt>
      <trkpt lat="49.48697" lon="3.09887">
        <ele>108.01</ele>
        <time>2021-03-20T16:11:58Z</time>
      </trkpt>
      <trkpt lat="49.48714" lon="3.09879">
        <ele>109.61</ele>
        <time>2021-03-20T16:12:03Z</time>
      </trkpt>
      <trkpt lat="49.48729" lon="3.09868">
        <ele>110.54</ele>
        <time>2021-03-20T16:12:08Z</time>
      </trkpt>
      <trkpt lat="49.48817" lon="3.09757">
        <ele>110.28</ele>
        <time>2021-03-20T16:12:13Z</time>
      </trkpt>
      <trkpt lat="49.48895" lon="3.09615">
        <ele>115.67</ele>
        <time>2021-03-20T16:12:17Z</time>
      </trkpt>
      <trkpt lat="49.48964" lon="3.09545">
        <ele>123.84</ele>
        <time>2021-03-20T16:12:22Z</time>
      </trkpt>
      <trkpt lat="49.49015" lon="3.09485">
        <ele>122.89</ele>
        <time>2021-03-20T16:12:27Z</time>
      </trkpt>
      <trkpt lat="49.49028" lon="3.09489">
        <ele>123.86</ele>
        <time>2021-03-20T16:12:32Z</time>
      </trkpt>
      <trkpt lat="49.49033" lon="3.0951">
        <ele>126.31</ele>
        <time>2021-03-20T16:12:37Z</time>
      </trkpt>
      <trkpt lat="49.49029" lon="3.09525">
        <ele>127.76</ele>
        <time>2021-03-20T16:12:41Z</time>
      </trkpt>
      <trkpt lat="49.4901" lon="3.09544">
        <ele>129.16</ele>
        <time>2021-03-20T16:12:46Z</time>
      </trkpt>
      <trkpt lat="49.48995" lon="3.09575">
        <ele>129.93</ele>
        <time>2021-03-20T16:12:51Z</time>
      </trkpt>
      <trkpt lat="49.48992" lon="3.0962">
        <ele>130.71</ele>
        <time>2021-03-20T16:12:56Z</time>
      </trkpt>
      <trkpt lat="49.48996" lon="3.09665">
        <ele>131.86</ele>
        <time>2021-03-20T16:13:01Z</time>
      </trkpt>
      <trkpt lat="49.49004" lon="3.09692">
        <ele>132.14</ele>
        <time>2021-03-20T16:13:05Z</time>
      </trkpt>
      <trkpt lat="49.49028" lon="3.09718">
        <ele>133.01</ele>
        <time>2021-03-20T16:13:10Z</time>
      </trkpt>
      <trkpt lat="49.49063" lon="3.09735">
        <ele>134.6</ele>
        <time>2021-03-20T16:13:15Z</time>
      </trkpt>
      <trkpt lat="49.49131" lon="3.09795">
        <ele>138.48</ele>
        <time>2021-03-20T16:13:20Z</time>
      </trkpt>
      <trkpt lat="49.49208" lon="3.09879">
        <ele>139.51</ele>
        <time>2021-03-20T16:13:25Z</time>
      </trkpt>
      <trkpt lat="49.49236" lon="3.09925">
        <ele>136.44</ele>
        <time>2021-03-20T16:13:29Z</time>
      </trkpt>
      <trkpt lat="49.49251" lon="3.09974">
        <ele>132.87</ele>
        <time>2021-03-20T16:13:34Z</time>
      </trkpt>
      <trkpt lat="49.49268" lon="3.10177">
        <ele>128.66</ele>
        <time>2021-03-20T16:13:39Z</time>
      </trkpt>
      <trkpt lat="49.49269" lon="3.10238">
        <ele>128.69</ele>
        <time>2021-03-20T16:13:44Z</time>
      </trkpt>
      <trkpt lat="49.49252" lon="3.10364">
        <ele>132.07</ele>
        <time>2021-03-20T16:13:49Z</time>
      </trkpt>
      <trkpt lat="49.49246" lon="3.10459">
        <ele>133.63</ele>
        <time>2021-03-20T16:13:54Z</time>
      </trkpt>
      <trkpt lat="49.49251" lon="3.10661">
        <ele>136.85</ele>
        <time>2021-03-20T16:13:58Z</time>
      </trkpt>
      <trkpt lat="49.49238" lon="3.10726">
        <ele>137.11</ele>
        <time>2021-03-20T16:14:03Z</time>
      </trkpt>
      <trkpt lat="49.49239" lon="3.10789">
        <ele>136.8</ele>
        <time>2021-03-20T16:14:08Z</time>
      </trkpt>
      <trkpt lat="49.49251" lon="3.10849">
        <ele>138.02</ele>
        <time>2021-03-20T16:14:13Z</time>
      </trkpt>
      <trkpt lat="49.49333" lon="3.11152">
        <ele>137</ele>
        <time>2021-03-20T16:14:18Z</time>
      </trkpt>
      <trkpt lat="49.49341" lon="3.11224">
        <ele>136.15</ele>
        <time>2021-03-20T16:14:22Z</time>
      </trkpt>
      <trkpt lat="49.49349" lon="3.11737">
        <ele>139</ele>
        <time>2021-03-20T16:14:27Z</time>
      </trkpt>
      <trkpt lat="49.49381" lon="3.12189">
        <ele>143.28</ele>
        <time>2021-03-20T16:14:32Z</time>
      </trkpt>
      <trkpt lat="49.49379" lon="3.12264">
        <ele>141.68</ele>
        <time>2021-03-20T16:14:37Z</time>
      </trkpt>
      <trkpt lat="49.49327" lon="3.12485">
        <ele>134.99</ele>
        <time>2021-03-20T16:14:42Z</time>
      </trkpt>
      <trkpt lat="49.49322" lon="3.12519">
        <ele>134.8</ele>
        <time>2021-03-20T16:14:46Z</time>
      </trkpt>
      <trkpt lat="49.49323" lon="3.12557">
        <ele>134.14</ele>
        <time>2021-03-20T16:14:51Z</time>
      </trkpt>
      <trkpt lat="49.49334" lon="3.12606">
        <ele>132.92</ele>
        <time>2021-03-20T16:14:56Z</time>
      </trkpt>
      <trkpt lat="49.49347" lon="3.12629">
        <ele>132.96</ele>
        <time>2021-03-20T16:15:01Z</time>
      </trkpt>
      <trkpt lat="49.49361" lon="3.12644">
        <ele>132.37</ele>
        <time>2021-03-20T16:15:06Z</time>
      </trkpt>
      <trkpt lat="49.49396" lon="3.12664">
        <ele>132.31</ele>
        <time>2021-03-20T16:15:10Z</time>
      </trkpt>
      <trkpt lat="49.49478" lon="3.12699">
        <ele>128.9</ele>
        <time>2021-03-20T16:15:15Z</time>
      </trkpt>
      <trkpt lat="49.49493" lon="3.12709">
        <ele>128.36</ele>
        <time>2021-03-20T16:15:20Z</time>
      </trkpt>
      <trkpt lat="49.49513" lon="3.12731">
        <ele>128.45</ele>
        <time>2021-03-20T16:15:25Z</time>
      </trkpt>
      <trkpt lat="49.49536" lon="3.12764">
        <ele>129.75</ele>
        <time>2021-03-20T16:15:30Z</time>
      </trkpt>
      <trkpt lat="49.49854" lon="3.13398">
        <ele>130.95</ele>
        <time>2021-03-20T16:15:34Z</time>
      </trkpt>
      <trkpt lat="49.50009" lon="3.13703">
        <ele>132.62</ele>
        <time>2021-03-20T16:15:39Z</time>
      </trkpt>
      <trkpt lat="49.50404" lon="3.14372">
        <ele>128.75</ele>
        <time>2021-03-20T16:15:44Z</time>
      </trkpt>
      <trkpt lat="49.50427" lon="3.14396">
        <ele>127.85</ele>
        <time>2021-03-20T16:15:49Z</time>
      </trkpt>
      <trkpt lat="49.50775" lon="3.14683">
        <ele>124.49</ele>
        <time>2021-03-20T16:15:54Z</time>
      </trkpt>
      <trkpt lat="49.51209" lon="3.14883">
        <ele>85.07</ele>
        <time>2021-03-20T16:15:58Z</time>
      </trkpt>
      <trkpt lat="49.51443" lon="3.15068">
        <ele>75.08</ele>
        <time>2021-03-20T16:16:03Z</time>
      </trkpt>
      <trkpt lat="49.51451" lon="3.15064">
        <ele>74.58</ele>
        <time>2021-03-20T16:16:08Z</time>
      </trkpt>
      <trkpt lat="49.51478" lon="3.15016">
        <ele>72.97</ele>
        <time>2021-03-20T16:16:13Z</time>
      </trkpt>
      <trkpt lat="49.51489" lon="3.15004">
        <ele>72.63</ele>
        <time>2021-03-20T16:16:18Z</time>
      </trkpt>
      <trkpt lat="49.51496" lon="3.14997">
        <ele>72.25</ele>
        <time>2021-03-20T16:16:22Z</time>
      </trkpt>
      <trkpt lat="49.51511" lon="3.14996">
        <ele>71.21</ele>
        <time>2021-03-20T16:16:27Z</time>
      </trkpt>
      <trkpt lat="49.51605" lon="3.15122">
        <ele>70.24</ele>
        <time>2021-03-20T16:16:32Z</time>
      </trkpt>
      <trkpt lat="49.51619" lon="3.15147">
        <ele>69.49</ele>
        <time>2021-03-20T16:16:37Z</time>
      </trkpt>
      <trkpt lat="49.51637" lon="3.1512">
        <ele>68.15</ele>
        <time>2021-03-20T16:16:40Z</time>
      </trkpt>
      <trkpt lat="49.5166" lon="3.15063">
        <ele>68</ele>
        <time>2021-03-20T16:16:42Z</time>
      </trkpt>
      <trkpt lat="49.5168" lon="3.15033">
        <ele>68.81</ele>
        <time>2021-03-20T16:16:45Z</time>
      </trkpt>
      <trkpt lat="49.51692" lon="3.15025">
        <ele>69</ele>
        <time>2021-03-20T16:16:47Z</time>
      </trkpt>
      <trkpt lat="49.51737" lon="3.15009">
        <ele>68</ele>
        <time>2021-03-20T16:16:50Z</time>
      </trkpt>
      <trkpt lat="49.51745" lon="3.15009">
        <ele>68</ele>
        <time>2021-03-20T16:16:53Z</time>
      </trkpt>
      <trkpt lat="49.5177" lon="3.15021">
        <ele>67.29</ele>
        <time>2021-03-20T16:16:55Z</time>
      </trkpt>
      <trkpt lat="49.51785" lon="3.15026">
        <ele>67</ele>
        <time>2021-03-20T16:16:58Z</time>
      </trkpt>
      <trkpt lat="49.51791" lon="3.15037">
        <ele>67</ele>
        <time>2021-03-20T16:17:04Z</time>
      </trkpt>
      <trkpt lat="49.51952" lon="3.15223">
        <ele>65</ele>
        <time>2021-03-20T16:17:10Z</time>
      </trkpt>
      <trkpt lat="49.51973" lon="3.15241">
        <ele>65.02</ele>
        <time>2021-03-20T16:17:17Z</time>
      </trkpt>
      <trkpt lat="49.51983" lon="3.15246">
        <ele>65.32</ele>
        <time>2021-03-20T16:17:23Z</time>
      </trkpt>
      <trkpt lat="49.52025" lon="3.15263">
        <ele>65.06</ele>
        <time>2021-03-20T16:17:29Z</time>
      </trkpt>
      <trkpt lat="49.52093" lon="3.15277">
        <ele>62.99</ele>
        <time>2021-03-20T16:17:36Z</time>
      </trkpt>
      <trkpt lat="49.52324" lon="3.15315">
        <ele>57</ele>
        <time>2021-03-20T16:17:42Z</time>
      </trkpt>
      <trkpt lat="49.52456" lon="3.15318">
        <ele>56.46</ele>
        <time>2021-03-20T16:17:48Z</time>
      </trkpt>
      <trkpt lat="49.52574" lon="3.15316">
        <ele>58.04</ele>
        <time>2021-03-20T16:17:54Z</time>
      </trkpt>
      <trkpt lat="49.52876" lon="3.15316">
        <ele>55.83</ele>
        <time>2021-03-20T16:18:01Z</time>
      </trkpt>
      <trkpt lat="49.53001" lon="3.15322">
        <ele>54.98</ele>
        <time>2021-03-20T16:18:07Z</time>
      </trkpt>
      <trkpt lat="49.53151" lon="3.15405">
        <ele>55.19</ele>
        <time>2021-03-20T16:18:13Z</time>
      </trkpt>
      <trkpt lat="49.53189" lon="3.15428">
        <ele>55.8</ele>
        <time>2021-03-20T16:18:19Z</time>
      </trkpt>
      <trkpt lat="49.53262" lon="3.15507">
        <ele>55.66</ele>
        <time>2021-03-20T16:18:26Z</time>
      </trkpt>
      <trkpt lat="49.53567" lon="3.15955">
        <ele>58</ele>
        <time>2021-03-20T16:18:32Z</time>
      </trkpt>
      <trkpt lat="49.53588" lon="3.15981">
        <ele>57.83</ele>
        <time>2021-03-20T16:18:38Z</time>
      </trkpt>
      <trkpt lat="49.5362" lon="3.16006">
        <ele>57.07</ele>
        <time>2021-03-20T16:18:44Z</time>
      </trkpt>
      <trkpt lat="49.53647" lon="3.1602">
        <ele>57.79</ele>
        <time>2021-03-20T16:18:51Z</time>
      </trkpt>
      <trkpt lat="49.5367" lon="3.16043">
        <ele>58.59</ele>
        <time>2021-03-20T16:18:57Z</time>
      </trkpt>
      <trkpt lat="49.53755" lon="3.16147">
        <ele>61.4</ele>
        <time>2021-03-20T16:19:03Z</time>
      </trkpt>
      <trkpt lat="49.53808" lon="3.16193">
        <ele>63.08</ele>
        <time>2021-03-20T16:19:10Z</time>
      </trkpt>
      <trkpt lat="49.53926" lon="3.16318">
        <ele>67.34</ele>
        <time>2021-03-20T16:19:16Z</time>
      </trkpt>
      <trkpt lat="49.53942" lon="3.16332">
        <ele>67.9</ele>
        <time>2021-03-20T16:19:22Z</time>
      </trkpt>
      <trkpt lat="49.53957" lon="3.16339">
        <ele>68</ele>
        <time>2021-03-20T16:19:28Z</time>
      </trkpt>
      <trkpt lat="49.54023" lon="3.16352">
        <ele>68.73</ele>
        <time>2021-03-20T16:19:35Z</time>
      </trkpt>
      <trkpt lat="49.54097" lon="3.16362">
        <ele>68.98</ele>
        <time>2021-03-20T16:19:41Z</time>
      </trkpt>
      <trkpt lat="49.54331" lon="3.16478">
        <ele>65.92</ele>
        <time>2021-03-20T16:19:47Z</time>
      </trkpt>
      <trkpt lat="49.54414" lon="3.16512">
        <ele>66</ele>
        <time>2021-03-20T16:19:53Z</time>
      </trkpt>
      <trkpt lat="49.54768" lon="3.16685">
        <ele>63.03</ele>
        <time>2021-03-20T16:20:00Z</time>
      </trkpt>
      <trkpt lat="49.54959" lon="3.16748">
        <ele>58.92</ele>
        <time>2021-03-20T16:20:06Z</time>
      </trkpt>
      <trkpt lat="49.55888" lon="3.1705">
        <ele>50.23</ele>
        <time>2021-03-20T16:20:12Z</time>
      </trkpt>
      <trkpt lat="49.55912" lon="3.17051">
        <ele>50.15</ele>
        <time>2021-03-20T16:20:19Z</time>
      </trkpt>
      <trkpt lat="49.56073" lon="3.17009">
        <ele>53.26</ele>
        <time>2021-03-20T16:20:25Z</time>
      </trkpt>
      <trkpt lat="49.56084" lon="3.17004">
        <ele>52.26</ele>
        <time>2021-03-20T16:20:31Z</time>
      </trkpt>
      <trkpt lat="49.56107" lon="3.1698">
        <ele>50.31</ele>
        <time>2021-03-20T16:20:37Z</time>
      </trkpt>
      <trkpt lat="49.5612" lon="3.16954">
        <ele>48.93</ele>
        <time>2021-03-20T16:20:44Z</time>
      </trkpt>
      <trkpt lat="49.56199" lon="3.16725">
        <ele>42</ele>
        <time>2021-03-20T16:20:50Z</time>
      </trkpt>
      <trkpt lat="49.5622" lon="3.16678">
        <ele>43.04</ele>
        <time>2021-03-20T16:20:56Z</time>
      </trkpt>
      <trkpt lat="49.56236" lon="3.1666">
        <ele>42.49</ele>
        <time>2021-03-20T16:21:02Z</time>
      </trkpt>
      <trkpt lat="49.56249" lon="3.16652">
        <ele>42.04</ele>
        <time>2021-03-20T16:21:09Z</time>
      </trkpt>
      <trkpt lat="49.5627" lon="3.16652">
        <ele>42.73</ele>
        <time>2021-03-20T16:21:15Z</time>
      </trkpt>
      <trkpt lat="49.56303" lon="3.16657">
        <ele>44.24</ele>
        <time>2021-03-20T16:21:21Z</time>
      </trkpt>
      <trkpt lat="49.56553" lon="3.16756">
        <ele>46.68</ele>
        <time>2021-03-20T16:21:28Z</time>
      </trkpt>
      <trkpt lat="49.56888" lon="3.16883">
        <ele>46</ele>
        <time>2021-03-20T16:21:34Z</time>
      </trkpt>
      <trkpt lat="49.5692" lon="3.16909">
        <ele>44.18</ele>
        <time>2021-03-20T16:21:40Z</time>
      </trkpt>
      <trkpt lat="49.56956" lon="3.1692">
        <ele>43</ele>
        <time>2021-03-20T16:21:46Z</time>
      </trkpt>
      <trkpt lat="49.57" lon="3.16922">
        <ele>43</ele>
        <time>2021-03-20T16:21:53Z</time>
      </trkpt>
      <trkpt lat="49.57076" lon="3.16918">
        <ele>42.18</ele>
        <time>2021-03-20T16:21:59Z</time>
      </trkpt>
      <trkpt lat="49.57186" lon="3.16885">
        <ele>41.29</ele>
        <time>2021-03-20T16:22:05Z</time>
      </trkpt>
      <trkpt lat="49.57311" lon="3.1686">
        <ele>41.96</ele>
        <time>2021-03-20T16:22:11Z</time>
      </trkpt>
      <trkpt lat="49.574" lon="3.16869">
        <ele>41</ele>
        <time>2021-03-20T16:22:18Z</time>
      </trkpt>
      <trkpt lat="49.57415" lon="3.16872">
        <ele>41</ele>
        <time>2021-03-20T16:22:24Z</time>
      </trkpt>
      <trkpt lat="49.57422" lon="3.1688">
        <ele>41</ele>
        <time>2021-03-20T16:22:30Z</time>
      </trkpt>
      <trkpt lat="49.57428" lon="3.16874">
        <ele>41</ele>
        <time>2021-03-20T16:22:36Z</time>
      </trkpt>
      <trkpt lat="49.57437" lon="3.16872">
        <ele>41</ele>
        <time>2021-03-20T16:22:42Z</time>
      </trkpt>
      <trkpt lat="49.57519" lon="3.16876">
        <ele>41.17</ele>
        <time>2021-03-20T16:22:48Z</time>
      </trkpt>
      <trkpt lat="49.57772" lon="3.1694">
        <ele>39.88</ele>
        <time>2021-03-20T16:22:54Z</time>
      </trkpt>
      <trkpt lat="49.57816" lon="3.16945">
        <ele>39</ele>
        <time>2021-03-20T16:23:00Z</time>
      </trkpt>
      <trkpt lat="49.5783" lon="3.1695">
        <ele>39</ele>
        <time>2021-03-20T16:23:06Z</time>
      </trkpt>
      <trkpt lat="49.57856" lon="3.16937">
        <ele>39.81</ele>
        <time>2021-03-20T16:23:12Z</time>
      </trkpt>
      <trkpt lat="49.5801" lon="3.16785">
        <ele>39</ele>
        <time>2021-03-20T16:23:18Z</time>
      </trkpt>
      <trkpt lat="49.58096" lon="3.16665">
        <ele>39.44</ele>
        <time>2021-03-20T16:23:24Z</time>
      </trkpt>
      <trkpt lat="49.58204" lon="3.16562">
        <ele>40.07</ele>
        <time>2021-03-20T16:23:30Z</time>
      </trkpt>
      <trkpt lat="49.58243" lon="3.16519">
        <ele>40</ele>
        <time>2021-03-20T16:23:36Z</time>
      </trkpt>
      <trkpt lat="49.58261" lon="3.16509">
        <ele>40</ele>
        <time>2021-03-20T16:23:42Z</time>
      </trkpt>
      <trkpt lat="49.58279" lon="3.16509">
        <ele>39.97</ele>
        <time>2021-03-20T16:23:48Z</time>
      </trkpt>
      <trkpt lat="49.5831" lon="3.16525">
        <ele>39.91</ele>
        <time>2021-03-20T16:23:54Z</time>
      </trkpt>
      <trkpt lat="49.58425" lon="3.16597">
        <ele>41.03</ele>
        <time>2021-03-20T16:24:00Z</time>
      </trkpt>
      <trkpt lat="49.58565" lon="3.16666">
        <ele>40.35</ele>
        <time>2021-03-20T16:24:06Z</time>
      </trkpt>
      <trkpt lat="49.58691" lon="3.16618">
        <ele>41.91</ele>
        <time>2021-03-20T16:24:12Z</time>
      </trkpt>
      <trkpt lat="49.58704" lon="3.16618">
        <ele>41.4</ele>
        <time>2021-03-20T16:24:17Z</time>
      </trkpt>
      <trkpt lat="49.5871" lon="3.16633">
        <ele>40.67</ele>
        <time>2021-03-20T16:24:22Z</time>
      </trkpt>
      <trkpt lat="49.58739" lon="3.16805">
        <ele>40.98</ele>
        <time>2021-03-20T16:24:27Z</time>
      </trkpt>
      <trkpt lat="49.58754" lon="3.16855">
        <ele>40.19</ele>
        <time>2021-03-20T16:24:32Z</time>
      </trkpt>
      <trkpt lat="49.58974" lon="3.17245">
        <ele>41.06</ele>
        <time>2021-03-20T16:24:36Z</time>
      </trkpt>
      <trkpt lat="49.59181" lon="3.17586">
        <ele>38.42</ele>
        <time>2021-03-20T16:24:41Z</time>
      </trkpt>
      <trkpt lat="49.59209" lon="3.176">
        <ele>37.78</ele>
        <time>2021-03-20T16:24:46Z</time>
      </trkpt>
      <trkpt lat="49.59221" lon="3.17602">
        <ele>37.68</ele>
        <time>2021-03-20T16:24:50Z</time>
      </trkpt>
      <trkpt lat="49.59276" lon="3.17593">
        <ele>38.93</ele>
        <time>2021-03-20T16:24:55Z</time>
      </trkpt>
      <trkpt lat="49.59329" lon="3.17579">
        <ele>39</ele>
        <time>2021-03-20T16:25:00Z</time>
      </trkpt>
      <trkpt lat="49.5934" lon="3.17583">
        <ele>39.49</ele>
        <time>2021-03-20T16:25:05Z</time>
      </trkpt>
      <trkpt lat="49.59349" lon="3.17591">
        <ele>40</ele>
        <time>2021-03-20T16:25:09Z</time>
      </trkpt>
      <trkpt lat="49.59361" lon="3.17627">
        <ele>39.42</ele>
        <time>2021-03-20T16:25:14Z</time>
      </trkpt>
      <trkpt lat="49.59375" lon="3.17701">
        <ele>39.63</ele>
        <time>2021-03-20T16:25:19Z</time>
      </trkpt>
      <trkpt lat="49.59375" lon="3.17813">
        <ele>41</ele>
        <time>2021-03-20T16:25:23Z</time>
      </trkpt>
      <trkpt lat="49.59378" lon="3.17873">
        <ele>40.34</ele>
        <time>2021-03-20T16:25:28Z</time>
      </trkpt>
      <trkpt lat="49.59389" lon="3.17932">
        <ele>40</ele>
        <time>2021-03-20T16:25:33Z</time>
      </trkpt>
      <trkpt lat="49.59413" lon="3.18031">
        <ele>40.01</ele>
        <time>2021-03-20T16:25:37Z</time>
      </trkpt>
      <trkpt lat="49.59423" lon="3.18041">
        <ele>40.21</ele>
        <time>2021-03-20T16:25:42Z</time>
      </trkpt>
      <trkpt lat="49.59459" lon="3.18063">
        <ele>40.48</ele>
        <time>2021-03-20T16:25:47Z</time>
      </trkpt>
      <trkpt lat="49.59492" lon="3.18075">
        <ele>40</ele>
        <time>2021-03-20T16:25:52Z</time>
      </trkpt>
      <trkpt lat="49.59524" lon="3.18072">
        <ele>41.21</ele>
        <time>2021-03-20T16:25:56Z</time>
      </trkpt>
      <trkpt lat="49.59563" lon="3.18066">
        <ele>42.72</ele>
        <time>2021-03-20T16:26:01Z</time>
      </trkpt>
      <trkpt lat="49.59576" lon="3.18057">
        <ele>42.99</ele>
        <time>2021-03-20T16:26:06Z</time>
      </trkpt>
      <trkpt lat="49.59595" lon="3.18017">
        <ele>44.39</ele>
        <time>2021-03-20T16:26:10Z</time>
      </trkpt>
      <trkpt lat="49.5963" lon="3.18015">
        <ele>43.8</ele>
        <time>2021-03-20T16:26:15Z</time>
      </trkpt>
      <trkpt lat="49.59651" lon="3.18016">
        <ele>42.8</ele>
        <time>2021-03-20T16:26:20Z</time>
      </trkpt>
      <trkpt lat="49.59667" lon="3.18013">
        <ele>41.99</ele>
        <time>2021-03-20T16:26:24Z</time>
      </trkpt>
      <trkpt lat="49.59678" lon="3.17995">
        <ele>41.58</ele>
        <time>2021-03-20T16:26:29Z</time>
      </trkpt>
      <trkpt lat="49.59718" lon="3.17902">
        <ele>42</ele>
        <time>2021-03-20T16:26:33Z</time>
      </trkpt>
      <trkpt lat="49.59882" lon="3.17627">
        <ele>42.89</ele>
        <time>2021-03-20T16:26:38Z</time>
      </trkpt>
      <trkpt lat="49.59896" lon="3.17615">
        <ele>43</ele>
        <time>2021-03-20T16:26:43Z</time>
      </trkpt>
      <trkpt lat="49.59903" lon="3.17622">
        <ele>43</ele>
        <time>2021-03-20T16:26:47Z</time>
      </trkpt>
      <trkpt lat="49.59906" lon="3.17622">
        <ele>43</ele>
        <time>2021-03-20T16:26:51Z</time>
      </trkpt>
      <trkpt lat="49.59913" lon="3.17615">
        <ele>43</ele>
        <time>2021-03-20T16:26:56Z</time>
      </trkpt>
      <trkpt lat="49.59914" lon="3.17604">
        <ele>43</ele>
        <time>2021-03-20T16:27:00Z</time>
      </trkpt>
      <trkpt lat="49.5995" lon="3.17594">
        <ele>42.72</ele>
        <time>2021-03-20T16:27:05Z</time>
      </trkpt>
      <trkpt lat="49.59966" lon="3.17586">
        <ele>42.15</ele>
        <time>2021-03-20T16:27:09Z</time>
      </trkpt>
      <trkpt lat="49.60027" lon="3.17537">
        <ele>41.02</ele>
        <time>2021-03-20T16:27:13Z</time>
      </trkpt>
      <trkpt lat="49.60119" lon="3.17456">
        <ele>43.6</ele>
        <time>2021-03-20T16:27:18Z</time>
      </trkpt>
      <trkpt lat="49.6018" lon="3.17375">
        <ele>44.74</ele>
        <time>2021-03-20T16:27:22Z</time>
      </trkpt>
      <trkpt lat="49.60241" lon="3.17305">
        <ele>46.67</ele>
        <time>2021-03-20T16:27:26Z</time>
      </trkpt>
      <trkpt lat="49.60272" lon="3.17285">
        <ele>46.85</ele>
        <time>2021-03-20T16:27:31Z</time>
      </trkpt>
      <trkpt lat="49.60308" lon="3.17272">
        <ele>47.29</ele>
        <time>2021-03-20T16:27:35Z</time>
      </trkpt>
      <trkpt lat="49.60364" lon="3.17243">
        <ele>49</ele>
        <time>2021-03-20T16:27:40Z</time>
      </trkpt>
      <trkpt lat="49.60515" lon="3.17151">
        <ele>53</ele>
        <time>2021-03-20T16:27:44Z</time>
      </trkpt>
      <trkpt lat="49.6064" lon="3.17078">
        <ele>54.87</ele>
        <time>2021-03-20T16:27:48Z</time>
      </trkpt>
      <trkpt lat="49.60669" lon="3.17069">
        <ele>56.09</ele>
        <time>2021-03-20T16:27:53Z</time>
      </trkpt>
      <trkpt lat="49.6069" lon="3.17066">
        <ele>56.84</ele>
        <time>2021-03-20T16:27:57Z</time>
      </trkpt>
      <trkpt lat="49.60698" lon="3.17075">
        <ele>57</ele>
        <time>2021-03-20T16:28:02Z</time>
      </trkpt>
      <trkpt lat="49.60703" lon="3.17076">
        <ele>57</ele>
        <time>2021-03-20T16:28:06Z</time>
      </trkpt>
      <trkpt lat="49.6071" lon="3.1709">
        <ele>57</ele>
        <time>2021-03-20T16:28:11Z</time>
      </trkpt>
      <trkpt lat="49.60844" lon="3.17563">
        <ele>55.74</ele>
        <time>2021-03-20T16:28:15Z</time>
      </trkpt>
      <trkpt lat="49.60904" lon="3.17748">
        <ele>55.53</ele>
        <time>2021-03-20T16:28:20Z</time>
      </trkpt>
      <trkpt lat="49.6093" lon="3.17822">
        <ele>56.2</ele>
        <time>2021-03-20T16:28:24Z</time>
      </trkpt>
      <trkpt lat="49.60975" lon="3.17933">
        <ele>55.3</ele>
        <time>2021-03-20T16:28:29Z</time>
      </trkpt>
      <trkpt lat="49.61039" lon="3.18079">
        <ele>51.85</ele>
        <time>2021-03-20T16:28:34Z</time>
      </trkpt>
      <trkpt lat="49.61077" lon="3.18156">
        <ele>51.21</ele>
        <time>2021-03-20T16:28:38Z</time>
      </trkpt>
      <trkpt lat="49.61123" lon="3.18239">
        <ele>54.44</ele>
        <time>2021-03-20T16:28:43Z</time>
      </trkpt>
      <trkpt lat="49.61185" lon="3.18346">
        <ele>58</ele>
        <time>2021-03-20T16:28:47Z</time>
      </trkpt>
      <trkpt lat="49.61252" lon="3.18446">
        <ele>58.05</ele>
        <time>2021-03-20T16:28:52Z</time>
      </trkpt>
      <trkpt lat="49.61299" lon="3.18512">
        <ele>56.67</ele>
        <time>2021-03-20T16:28:56Z</time>
      </trkpt>
      <trkpt lat="49.61369" lon="3.18602">
        <ele>57.65</ele>
        <time>2021-03-20T16:29:01Z</time>
      </trkpt>
      <trkpt lat="49.61384" lon="3.18624">
        <ele>58.37</ele>
        <time>2021-03-20T16:29:05Z</time>
      </trkpt>
      <trkpt lat="49.61397" lon="3.18652">
        <ele>59</ele>
        <time>2021-03-20T16:29:10Z</time>
      </trkpt>
      <trkpt lat="49.61398" lon="3.18667">
        <ele>59</ele>
        <time>2021-03-20T16:29:16Z</time>
      </trkpt>
      <trkpt lat="49.61402" lon="3.18677">
        <ele>59</ele>
        <time>2021-03-20T16:29:22Z</time>
      </trkpt>
      <trkpt lat="49.61411" lon="3.18685">
        <ele>59</ele>
        <time>2021-03-20T16:29:27Z</time>
      </trkpt>
      <trkpt lat="49.61418" lon="3.18686">
        <ele>58.97</ele>
        <time>2021-03-20T16:29:33Z</time>
      </trkpt>
      <trkpt lat="49.61424" lon="3.18683">
        <ele>58.84</ele>
        <time>2021-03-20T16:29:39Z</time>
      </trkpt>
      <trkpt lat="49.6144" lon="3.18691">
        <ele>58.26</ele>
        <time>2021-03-20T16:29:45Z</time>
      </trkpt>
      <trkpt lat="49.61466" lon="3.18713">
        <ele>58</ele>
        <time>2021-03-20T16:29:51Z</time>
      </trkpt>
      <trkpt lat="49.62285" lon="3.19583">
        <ele>62.25</ele>
        <time>2021-03-20T16:29:56Z</time>
      </trkpt>
      <trkpt lat="49.62381" lon="3.19688">
        <ele>62.94</ele>
        <time>2021-03-20T16:30:02Z</time>
      </trkpt>
      <trkpt lat="49.62462" lon="3.19786">
        <ele>63.83</ele>
        <time>2021-03-20T16:30:08Z</time>
      </trkpt>
      <trkpt lat="49.62489" lon="3.19822">
        <ele>65.96</ele>
        <time>2021-03-20T16:30:14Z</time>
      </trkpt>
      <trkpt lat="49.6251" lon="3.19855">
        <ele>67</ele>
        <time>2021-03-20T16:30:20Z</time>
      </trkpt>
      <trkpt lat="49.62519" lon="3.19882">
        <ele>67</ele>
        <time>2021-03-20T16:30:26Z</time>
      </trkpt>
      <trkpt lat="49.62519" lon="3.19893">
        <ele>66.96</ele>
        <time>2021-03-20T16:30:28Z</time>
      </trkpt>
      <trkpt lat="49.62521" lon="3.199">
        <ele>66.9</ele>
        <time>2021-03-20T16:30:31Z</time>
      </trkpt>
      <trkpt lat="49.6253" lon="3.19913">
        <ele>67</ele>
        <time>2021-03-20T16:30:34Z</time>
      </trkpt>
      <trkpt lat="49.62536" lon="3.19915">
        <ele>67</ele>
        <time>2021-03-20T16:30:36Z</time>
      </trkpt>
      <trkpt lat="49.62544" lon="3.19913">
        <ele>67</ele>
        <time>2021-03-20T16:30:39Z</time>
      </trkpt>
      <trkpt lat="49.6256" lon="3.19928">
        <ele>67.17</ele>
        <time>2021-03-20T16:30:42Z</time>
      </trkpt>
      <trkpt lat="49.62587" lon="3.19961">
        <ele>68.14</ele>
        <time>2021-03-20T16:30:44Z</time>
      </trkpt>
      <trkpt lat="49.62635" lon="3.20037">
        <ele>68.13</ele>
        <time>2021-03-20T16:30:47Z</time>
      </trkpt>
      <trkpt lat="49.62701" lon="3.20153">
        <ele>65.71</ele>
        <time>2021-03-20T16:30:50Z</time>
      </trkpt>
      <trkpt lat="49.62738" lon="3.20225">
        <ele>64.94</ele>
        <time>2021-03-20T16:30:52Z</time>
      </trkpt>
      <trkpt lat="49.62796" lon="3.20348">
        <ele>63.32</ele>
        <time>2021-03-20T16:30:55Z</time>
      </trkpt>
      <trkpt lat="49.62833" lon="3.20435">
        <ele>65</ele>
        <time>2021-03-20T16:30:58Z</time>
      </trkpt>
      <trkpt lat="49.62885" lon="3.20567">
        <ele>66.25</ele>
        <time>2021-03-20T16:31:00Z</time>
      </trkpt>
      <trkpt lat="49.62917" lon="3.20664">
        <ele>67.97</ele>
        <time>2021-03-20T16:31:03Z</time>
      </trkpt>
      <trkpt lat="49.62994" lon="3.20965">
        <ele>74.59</ele>
        <time>2021-03-20T16:31:06Z</time>
      </trkpt>
      <trkpt lat="49.62996" lon="3.20988">
        <ele>74.26</ele>
        <time>2021-03-20T16:31:08Z</time>
      </trkpt>
      <trkpt lat="49.62995" lon="3.21001">
        <ele>73.81</ele>
        <time>2021-03-20T16:31:11Z</time>
      </trkpt>
      <trkpt lat="49.62991" lon="3.21013">
        <ele>73.36</ele>
        <time>2021-03-20T16:31:15Z</time>
      </trkpt>
      <trkpt lat="49.6299" lon="3.21022">
        <ele>73.13</ele>
        <time>2021-03-20T16:31:19Z</time>
      </trkpt>
      <trkpt lat="49.62992" lon="3.21036">
        <ele>73</ele>
        <time>2021-03-20T16:31:23Z</time>
      </trkpt>
      <trkpt lat="49.62996" lon="3.21047">
        <ele>73</ele>
        <time>2021-03-20T16:31:28Z</time>
      </trkpt>
      <trkpt lat="49.63" lon="3.21053">
        <ele>73.01</ele>
        <time>2021-03-20T16:31:32Z</time>
      </trkpt>
      <trkpt lat="49.63008" lon="3.21058">
        <ele>73.5</ele>
        <time>2021-03-20T16:31:36Z</time>
      </trkpt>
      <trkpt lat="49.63013" lon="3.21059">
        <ele>73.8</ele>
        <time>2021-03-20T16:31:40Z</time>
      </trkpt>
      <trkpt lat="49.63024" lon="3.21054">
        <ele>74.71</ele>
        <time>2021-03-20T16:31:44Z</time>
      </trkpt>
      <trkpt lat="49.63032" lon="3.21041">
        <ele>75.26</ele>
        <time>2021-03-20T16:31:48Z</time>
      </trkpt>
      <trkpt lat="49.63035" lon="3.21026">
        <ele>75.52</ele>
        <time>2021-03-20T16:31:52Z</time>
      </trkpt>
      <trkpt lat="49.63049" lon="3.2101">
        <ele>76.51</ele>
        <time>2021-03-20T16:31:57Z</time>
      </trkpt>
      <trkpt lat="49.6309" lon="3.20982">
        <ele>76.59</ele>
        <time>2021-03-20T16:32:01Z</time>
      </trkpt>
      <trkpt lat="49.63676" lon="3.20649">
        <ele>86.98</ele>
        <time>2021-03-20T16:32:05Z</time>
      </trkpt>
      <trkpt lat="49.63727" lon="3.20637">
        <ele>88.23</ele>
        <time>2021-03-20T16:32:09Z</time>
      </trkpt>
      <trkpt lat="49.63977" lon="3.20658">
        <ele>83.78</ele>
        <time>2021-03-20T16:32:13Z</time>
      </trkpt>
      <trkpt lat="49.6401" lon="3.20663">
        <ele>82.88</ele>
        <time>2021-03-20T16:32:17Z</time>
      </trkpt>
      <trkpt lat="49.64206" lon="3.20724">
        <ele>83.67</ele>
        <time>2021-03-20T16:32:21Z</time>
      </trkpt>
      <trkpt lat="49.64349" lon="3.20806">
        <ele>87.01</ele>
        <time>2021-03-20T16:32:25Z</time>
      </trkpt>
      <trkpt lat="49.64406" lon="3.20828">
        <ele>87.8</ele>
        <time>2021-03-20T16:32:30Z</time>
      </trkpt>
      <trkpt lat="49.64456" lon="3.20839">
        <ele>88.42</ele>
        <time>2021-03-20T16:32:34Z</time>
      </trkpt>
      <trkpt lat="49.64493" lon="3.2084">
        <ele>88.86</ele>
        <time>2021-03-20T16:32:38Z</time>
      </trkpt>
      <trkpt lat="49.64536" lon="3.20832">
        <ele>89</ele>
        <time>2021-03-20T16:32:42Z</time>
      </trkpt>
      <trkpt lat="49.64555" lon="3.20825">
        <ele>89</ele>
        <time>2021-03-20T16:32:46Z</time>
      </trkpt>
      <trkpt lat="49.64665" lon="3.20766">
        <ele>88.56</ele>
        <time>2021-03-20T16:32:50Z</time>
      </trkpt>
      <trkpt lat="49.64769" lon="3.20705">
        <ele>86</ele>
        <time>2021-03-20T16:32:54Z</time>
      </trkpt>
      <trkpt lat="49.64805" lon="3.20694">
        <ele>85.02</ele>
        <time>2021-03-20T16:32:58Z</time>
      </trkpt>
      <trkpt lat="49.64901" lon="3.20677">
        <ele>83.9</ele>
        <time>2021-03-20T16:33:03Z</time>
      </trkpt>
      <trkpt lat="49.64948" lon="3.2066">
        <ele>85.39</ele>
        <time>2021-03-20T16:33:07Z</time>
      </trkpt>
      <trkpt lat="49.64997" lon="3.20636">
        <ele>87</ele>
        <time>2021-03-20T16:33:11Z</time>
      </trkpt>
      <trkpt lat="49.65057" lon="3.20597">
        <ele>85.94</ele>
        <time>2021-03-20T16:33:15Z</time>
      </trkpt>
      <trkpt lat="49.65146" lon="3.20521">
        <ele>82.25</ele>
        <time>2021-03-20T16:33:19Z</time>
      </trkpt>
      <trkpt lat="49.65164" lon="3.20509">
        <ele>82.68</ele>
        <time>2021-03-20T16:33:23Z</time>
      </trkpt>
      <trkpt lat="49.65176" lon="3.20507">
        <ele>82.42</ele>
        <time>2021-03-20T16:33:27Z</time>
      </trkpt>
      <trkpt lat="49.65188" lon="3.20509">
        <ele>81.92</ele>
        <time>2021-03-20T16:33:32Z</time>
      </trkpt>
      <trkpt lat="49.65201" lon="3.20519">
        <ele>81.62</ele>
        <time>2021-03-20T16:33:36Z</time>
      </trkpt>
      <trkpt lat="49.65211" lon="3.20532">
        <ele>81.4</ele>
        <time>2021-03-20T16:33:40Z</time>
      </trkpt>
      <trkpt lat="49.65225" lon="3.20564">
        <ele>80.69</ele>
        <time>2021-03-20T16:33:44Z</time>
      </trkpt>
      <trkpt lat="49.65252" lon="3.20611">
        <ele>80.16</ele>
        <time>2021-03-20T16:33:48Z</time>
      </trkpt>
      <trkpt lat="49.65485" lon="3.21093">
        <ele>78.81</ele>
        <time>2021-03-20T16:33:52Z</time>
      </trkpt>
      <trkpt lat="49.65509" lon="3.21118">
        <ele>78.5</ele>
        <time>2021-03-20T16:33:56Z</time>
      </trkpt>
      <trkpt lat="49.65545" lon="3.21142">
        <ele>75.58</ele>
        <time>2021-03-20T16:34:00Z</time>
      </trkpt>
      <trkpt lat="49.65573" lon="3.21143">
        <ele>74.04</ele>
        <time>2021-03-20T16:34:05Z</time>
      </trkpt>
      <trkpt lat="49.65601" lon="3.21136">
        <ele>72.26</ele>
        <time>2021-03-20T16:34:09Z</time>
      </trkpt>
      <trkpt lat="49.65632" lon="3.21109">
        <ele>71.61</ele>
        <time>2021-03-20T16:34:13Z</time>
      </trkpt>
      <trkpt lat="49.65648" lon="3.21091">
        <ele>70.81</ele>
        <time>2021-03-20T16:34:17Z</time>
      </trkpt>
      <trkpt lat="49.65664" lon="3.21064">
        <ele>69.42</ele>
        <time>2021-03-20T16:34:21Z</time>
      </trkpt>
      <trkpt lat="49.65677" lon="3.21018">
        <ele>69.27</ele>
        <time>2021-03-20T16:34:25Z</time>
      </trkpt>
      <trkpt lat="49.65703" lon="3.20828">
        <ele>69.53</ele>
        <time>2021-03-20T16:34:29Z</time>
      </trkpt>
      <trkpt lat="49.6571" lon="3.20813">
        <ele>69.64</ele>
        <time>2021-03-20T16:34:34Z</time>
      </trkpt>
      <trkpt lat="49.65723" lon="3.20791">
        <ele>70.06</ele>
        <time>2021-03-20T16:34:38Z</time>
      </trkpt>
      <trkpt lat="49.65739" lon="3.20775">
        <ele>70.45</ele>
        <time>2021-03-20T16:34:42Z</time>
      </trkpt>
      <trkpt lat="49.65758" lon="3.20764">
        <ele>69.3</ele>
        <time>2021-03-20T16:34:46Z</time>
      </trkpt>
      <trkpt lat="49.6578" lon="3.20763">
        <ele>67.25</ele>
        <time>2021-03-20T16:34:50Z</time>
      </trkpt>
      <trkpt lat="49.65834" lon="3.20774">
        <ele>61.17</ele>
        <time>2021-03-20T16:34:54Z</time>
      </trkpt>
      <trkpt lat="49.65856" lon="3.20765">
        <ele>61.53</ele>
        <time>2021-03-20T16:34:58Z</time>
      </trkpt>
      <trkpt lat="49.65869" lon="3.20752">
        <ele>61.36</ele>
        <time>2021-03-20T16:35:02Z</time>
      </trkpt>
      <trkpt lat="49.65881" lon="3.20737">
        <ele>61.84</ele>
        <time>2021-03-20T16:35:07Z</time>
      </trkpt>
      <trkpt lat="49.65939" lon="3.20644">
        <ele>60.41</ele>
        <time>2021-03-20T16:35:11Z</time>
      </trkpt>
      <trkpt lat="49.65956" lon="3.20637">
        <ele>59.57</ele>
        <time>2021-03-20T16:35:15Z</time>
      </trkpt>
      <trkpt lat="49.65973" lon="3.20637">
        <ele>58.96</ele>
        <time>2021-03-20T16:35:19Z</time>
      </trkpt>
      <trkpt lat="49.66225" lon="3.20725">
        <ele>60.2</ele>
        <time>2021-03-20T16:35:23Z</time>
      </trkpt>
      <trkpt lat="49.66325" lon="3.20763">
        <ele>65.68</ele>
        <time>2021-03-20T16:35:27Z</time>
      </trkpt>
      <trkpt lat="49.66376" lon="3.2078">
        <ele>68.01</ele>
        <time>2021-03-20T16:35:31Z</time>
      </trkpt>
      <trkpt lat="49.66537" lon="3.20839">
        <ele>74.14</ele>
        <time>2021-03-20T16:35:35Z</time>
      </trkpt>
      <trkpt lat="49.66715" lon="3.20888">
        <ele>80.58</ele>
        <time>2021-03-20T16:35:40Z</time>
      </trkpt>
      <trkpt lat="49.66966" lon="3.20903">
        <ele>86.88</ele>
        <time>2021-03-20T16:35:44Z</time>
      </trkpt>
      <trkpt lat="49.67068" lon="3.20922">
        <ele>89.67</ele>
        <time>2021-03-20T16:35:48Z</time>
      </trkpt>
      <trkpt lat="49.67479" lon="3.21153">
        <ele>93.71</ele>
        <time>2021-03-20T16:35:52Z</time>
      </trkpt>
      <trkpt lat="49.67566" lon="3.21212">
        <ele>96.25</ele>
        <time>2021-03-20T16:35:56Z</time>
      </trkpt>
      <trkpt lat="49.6769" lon="3.21291">
        <ele>98.62</ele>
        <time>2021-03-20T16:36:00Z</time>
      </trkpt>
      <trkpt lat="49.67849" lon="3.21403">
        <ele>95.92</ele>
        <time>2021-03-20T16:36:04Z</time>
      </trkpt>
      <trkpt lat="49.67892" lon="3.21459">
        <ele>93.89</ele>
        <time>2021-03-20T16:36:09Z</time>
      </trkpt>
      <trkpt lat="49.68054" lon="3.21745">
        <ele>85.18</ele>
        <time>2021-03-20T16:36:13Z</time>
      </trkpt>
      <trkpt lat="49.68119" lon="3.21802">
        <ele>81.53</ele>
        <time>2021-03-20T16:36:17Z</time>
      </trkpt>
      <trkpt lat="49.68195" lon="3.21841">
        <ele>78.99</ele>
        <time>2021-03-20T16:36:21Z</time>
      </trkpt>
      <trkpt lat="49.68349" lon="3.21894">
        <ele>76.08</ele>
        <time>2021-03-20T16:36:25Z</time>
      </trkpt>
      <trkpt lat="49.68778" lon="3.22026">
        <ele>83</ele>
        <time>2021-03-20T16:36:29Z</time>
      </trkpt>
      <trkpt lat="49.68825" lon="3.22043">
        <ele>82.45</ele>
        <time>2021-03-20T16:36:33Z</time>
      </trkpt>
      <trkpt lat="49.6886" lon="3.22092">
        <ele>83.31</ele>
        <time>2021-03-20T16:36:37Z</time>
      </trkpt>
      <trkpt lat="49.68851" lon="3.22128">
        <ele>80.62</ele>
        <time>2021-03-20T16:36:41Z</time>
      </trkpt>
      <trkpt lat="49.68839" lon="3.2227">
        <ele>81.36</ele>
        <time>2021-03-20T16:36:45Z</time>
      </trkpt>
      <trkpt lat="49.68812" lon="3.22554">
        <ele>81.06</ele>
        <time>2021-03-20T16:36:50Z</time>
      </trkpt>
      <trkpt lat="49.688" lon="3.22598">
        <ele>81.39</ele>
        <time>2021-03-20T16:36:54Z</time>
      </trkpt>
      <trkpt lat="49.68776" lon="3.2267">
        <ele>81.66</ele>
        <time>2021-03-20T16:36:58Z</time>
      </trkpt>
      <trkpt lat="49.68763" lon="3.22739">
        <ele>75.64</ele>
        <time>2021-03-20T16:37:02Z</time>
      </trkpt>
      <trkpt lat="49.68755" lon="3.22847">
        <ele>75.58</ele>
        <time>2021-03-20T16:37:06Z</time>
      </trkpt>
      <trkpt lat="49.68745" lon="3.23">
        <ele>71.18</ele>
        <time>2021-03-20T16:37:10Z</time>
      </trkpt>
      <trkpt lat="49.68733" lon="3.23116">
        <ele>70</ele>
        <time>2021-03-20T16:37:14Z</time>
      </trkpt>
      <trkpt lat="49.68718" lon="3.23203">
        <ele>71.85</ele>
        <time>2021-03-20T16:37:18Z</time>
      </trkpt>
      <trkpt lat="49.68698" lon="3.23251">
        <ele>70.97</ele>
        <time>2021-03-20T16:37:22Z</time>
      </trkpt>
      <trkpt lat="49.68642" lon="3.23402">
        <ele>71.57</ele>
        <time>2021-03-20T16:37:26Z</time>
      </trkpt>
      <trkpt lat="49.68632" lon="3.23466">
        <ele>71.94</ele>
        <time>2021-03-20T16:37:30Z</time>
      </trkpt>
      <trkpt lat="49.68635" lon="3.23693">
        <ele>74.95</ele>
        <time>2021-03-20T16:37:34Z</time>
      </trkpt>
      <trkpt lat="49.68642" lon="3.23752">
        <ele>75.93</ele>
        <time>2021-03-20T16:37:38Z</time>
      </trkpt>
      <trkpt lat="49.68676" lon="3.23831">
        <ele>75.37</ele>
        <time>2021-03-20T16:37:42Z</time>
      </trkpt>
      <trkpt lat="49.68705" lon="3.23923">
        <ele>78.09</ele>
        <time>2021-03-20T16:37:46Z</time>
      </trkpt>
      <trkpt lat="49.68715" lon="3.23947">
        <ele>78.74</ele>
        <time>2021-03-20T16:37:50Z</time>
      </trkpt>
      <trkpt lat="49.6874" lon="3.23983">
        <ele>78.6</ele>
        <time>2021-03-20T16:37:54Z</time>
      </trkpt>
      <trkpt lat="49.68748" lon="3.23999">
        <ele>78.02</ele>
        <time>2021-03-20T16:37:58Z</time>
      </trkpt>
      <trkpt lat="49.68774" lon="3.24176">
        <ele>75.54</ele>
        <time>2021-03-20T16:38:02Z</time>
      </trkpt>
      <trkpt lat="49.68791" lon="3.24255">
        <ele>72.74</ele>
        <time>2021-03-20T16:38:06Z</time>
      </trkpt>
      <trkpt lat="49.68793" lon="3.24285">
        <ele>72.07</ele>
        <time>2021-03-20T16:38:10Z</time>
      </trkpt>
      <trkpt lat="49.6879" lon="3.24317">
        <ele>71.94</ele>
        <time>2021-03-20T16:38:14Z</time>
      </trkpt>
      <trkpt lat="49.6878" lon="3.24353">
        <ele>72.69</ele>
        <time>2021-03-20T16:38:18Z</time>
      </trkpt>
      <trkpt lat="49.68834" lon="3.24384">
        <ele>73.01</ele>
        <time>2021-03-20T16:38:22Z</time>
      </trkpt>
      <trkpt lat="49.68863" lon="3.24404">
        <ele>74.65</ele>
        <time>2021-03-20T16:38:25Z</time>
      </trkpt>
      <trkpt lat="49.68873" lon="3.24415">
        <ele>75.79</ele>
        <time>2021-03-20T16:38:29Z</time>
      </trkpt>
      <trkpt lat="49.68879" lon="3.24435">
        <ele>76.3</ele>
        <time>2021-03-20T16:38:32Z</time>
      </trkpt>
      <trkpt lat="49.689" lon="3.24539">
        <ele>75.21</ele>
        <time>2021-03-20T16:38:36Z</time>
      </trkpt>
      <trkpt lat="49.68917" lon="3.24699">
        <ele>71</ele>
        <time>2021-03-20T16:38:39Z</time>
      </trkpt>
      <trkpt lat="49.68932" lon="3.24824">
        <ele>69.64</ele>
        <time>2021-03-20T16:38:43Z</time>
      </trkpt>
      <trkpt lat="49.6893" lon="3.24907">
        <ele>67.69</ele>
        <time>2021-03-20T16:38:46Z</time>
      </trkpt>
      <trkpt lat="49.68924" lon="3.25014">
        <ele>68</ele>
        <time>2021-03-20T16:38:49Z</time>
      </trkpt>
      <trkpt lat="49.68916" lon="3.25078">
        <ele>67.97</ele>
        <time>2021-03-20T16:38:53Z</time>
      </trkpt>
      <trkpt lat="49.68898" lon="3.25135">
        <ele>66.44</ele>
        <time>2021-03-20T16:38:56Z</time>
      </trkpt>
      <trkpt lat="49.68855" lon="3.25258">
        <ele>65.37</ele>
        <time>2021-03-20T16:39:00Z</time>
      </trkpt>
      <trkpt lat="49.68844" lon="3.25312">
        <ele>65.37</ele>
        <time>2021-03-20T16:39:03Z</time>
      </trkpt>
      <trkpt lat="49.68841" lon="3.25352">
        <ele>65.09</ele>
        <time>2021-03-20T16:39:07Z</time>
      </trkpt>
      <trkpt lat="49.68847" lon="3.25544">
        <ele>62.89</ele>
        <time>2021-03-20T16:39:10Z</time>
      </trkpt>
      <trkpt lat="49.68851" lon="3.25575">
        <ele>62.2</ele>
        <time>2021-03-20T16:39:14Z</time>
      </trkpt>
      <trkpt lat="49.68861" lon="3.25606">
        <ele>62.14</ele>
        <time>2021-03-20T16:39:17Z</time>
      </trkpt>
      <trkpt lat="49.68872" lon="3.25625">
        <ele>62.96</ele>
        <time>2021-03-20T16:39:21Z</time>
      </trkpt>
      <trkpt lat="49.68926" lon="3.25667">
        <ele>67.01</ele>
        <time>2021-03-20T16:39:24Z</time>
      </trkpt>
      <trkpt lat="49.68935" lon="3.25686">
        <ele>68.01</ele>
        <time>2021-03-20T16:39:28Z</time>
      </trkpt>
      <trkpt lat="49.68947" lon="3.25787">
        <ele>67.8</ele>
        <time>2021-03-20T16:39:31Z</time>
      </trkpt>
      <trkpt lat="49.68951" lon="3.25799">
        <ele>67.53</ele>
        <time>2021-03-20T16:39:34Z</time>
      </trkpt>
      <trkpt lat="49.68968" lon="3.25821">
        <ele>67.78</ele>
        <time>2021-03-20T16:39:38Z</time>
      </trkpt>
      <trkpt lat="49.68983" lon="3.25832">
        <ele>68.39</ele>
        <time>2021-03-20T16:39:41Z</time>
      </trkpt>
      <trkpt lat="49.68998" lon="3.25849">
        <ele>68.36</ele>
        <time>2021-03-20T16:39:45Z</time>
      </trkpt>
      <trkpt lat="49.69019" lon="3.2588">
        <ele>68.93</ele>
        <time>2021-03-20T16:39:48Z</time>
      </trkpt>
      <trkpt lat="49.69045" lon="3.25871">
        <ele>70.5</ele>
        <time>2021-03-20T16:39:53Z</time>
      </trkpt>
      <trkpt lat="49.69063" lon="3.25867">
        <ele>71.06</ele>
        <time>2021-03-20T16:39:58Z</time>
      </trkpt>
      <trkpt lat="49.69081" lon="3.25866">
        <ele>71.15</ele>
        <time>2021-03-20T16:40:02Z</time>
      </trkpt>
      <trkpt lat="49.69111" lon="3.2587">
        <ele>70.35</ele>
        <time>2021-03-20T16:40:07Z</time>
      </trkpt>
      <trkpt lat="49.69143" lon="3.25885">
        <ele>69.7</ele>
        <time>2021-03-20T16:40:11Z</time>
      </trkpt>
      <trkpt lat="49.69211" lon="3.25935">
        <ele>72.14</ele>
        <time>2021-03-20T16:40:16Z</time>
      </trkpt>
      <trkpt lat="49.69272" lon="3.25998">
        <ele>75.79</ele>
        <time>2021-03-20T16:40:20Z</time>
      </trkpt>
      <trkpt lat="49.69372" lon="3.26119">
        <ele>73.56</ele>
        <time>2021-03-20T16:40:25Z</time>
      </trkpt>
      <trkpt lat="49.69435" lon="3.26213">
        <ele>77.21</ele>
        <time>2021-03-20T16:40:30Z</time>
      </trkpt>
      <trkpt lat="49.6946" lon="3.26254">
        <ele>75.94</ele>
        <time>2021-03-20T16:40:34Z</time>
      </trkpt>
      <trkpt lat="49.69485" lon="3.263">
        <ele>76.45</ele>
        <time>2021-03-20T16:40:39Z</time>
      </trkpt>
      <trkpt lat="49.6952" lon="3.26368">
        <ele>74.6</ele>
        <time>2021-03-20T16:40:43Z</time>
      </trkpt>
      <trkpt lat="49.6959" lon="3.26523">
        <ele>71.24</ele>
        <time>2021-03-20T16:40:48Z</time>
      </trkpt>
      <trkpt lat="49.69684" lon="3.26737">
        <ele>72.1</ele>
        <time>2021-03-20T16:40:53Z</time>
      </trkpt>
      <trkpt lat="49.69875" lon="3.27186">
        <ele>66.16</ele>
        <time>2021-03-20T16:40:57Z</time>
      </trkpt>
      <trkpt lat="49.69923" lon="3.27299">
        <ele>63.21</ele>
        <time>2021-03-20T16:41:02Z</time>
      </trkpt>
      <trkpt lat="49.69951" lon="3.27356">
        <ele>62.39</ele>
        <time>2021-03-20T16:41:06Z</time>
      </trkpt>
      <trkpt lat="49.69978" lon="3.27402">
        <ele>61.73</ele>
        <time>2021-03-20T16:41:11Z</time>
      </trkpt>
      <trkpt lat="49.70002" lon="3.27438">
        <ele>62</ele>
        <time>2021-03-20T16:41:16Z</time>
      </trkpt>
      <trkpt lat="49.70052" lon="3.27499">
        <ele>60.01</ele>
        <time>2021-03-20T16:41:20Z</time>
      </trkpt>
      <trkpt lat="49.70085" lon="3.27534">
        <ele>60.05</ele>
        <time>2021-03-20T16:41:25Z</time>
      </trkpt>
      <trkpt lat="49.70107" lon="3.27554">
        <ele>60.05</ele>
        <time>2021-03-20T16:41:29Z</time>
      </trkpt>
      <trkpt lat="49.70159" lon="3.27593">
        <ele>61.46</ele>
        <time>2021-03-20T16:41:34Z</time>
      </trkpt>
      <trkpt lat="49.70201" lon="3.27619">
        <ele>65.01</ele>
        <time>2021-03-20T16:41:39Z</time>
      </trkpt>
      <trkpt lat="49.70269" lon="3.2765">
        <ele>63.23</ele>
        <time>2021-03-20T16:41:43Z</time>
      </trkpt>
      <trkpt lat="49.70301" lon="3.27662">
        <ele>61.31</ele>
        <time>2021-03-20T16:41:48Z</time>
      </trkpt>
      <trkpt lat="49.70354" lon="3.27674">
        <ele>62.73</ele>
        <time>2021-03-20T16:41:52Z</time>
      </trkpt>
      <trkpt lat="49.70391" lon="3.27678">
        <ele>64.09</ele>
        <time>2021-03-20T16:41:57Z</time>
      </trkpt>
      <trkpt lat="49.70456" lon="3.27681">
        <ele>67.57</ele>
        <time>2021-03-20T16:42:02Z</time>
      </trkpt>
      <trkpt lat="49.7072" lon="3.27664">
        <ele>74.47</ele>
        <time>2021-03-20T16:42:06Z</time>
      </trkpt>
      <trkpt lat="49.70979" lon="3.27653">
        <ele>75.89</ele>
        <time>2021-03-20T16:42:11Z</time>
      </trkpt>
      <trkpt lat="49.71237" lon="3.27636">
        <ele>66.85</ele>
        <time>2021-03-20T16:42:15Z</time>
      </trkpt>
      <trkpt lat="49.71562" lon="3.27619">
        <ele>70</ele>
        <time>2021-03-20T16:42:20Z</time>
      </trkpt>
      <trkpt lat="49.71646" lon="3.27612">
        <ele>72.98</ele>
        <time>2021-03-20T16:42:24Z</time>
      </trkpt>
      <trkpt lat="49.7173" lon="3.27609">
        <ele>74.32</ele>
        <time>2021-03-20T16:42:29Z</time>
      </trkpt>
      <trkpt lat="49.71816" lon="3.27602">
        <ele>74.32</ele>
        <time>2021-03-20T16:42:34Z</time>
      </trkpt>
      <trkpt lat="49.71829" lon="3.27603">
        <ele>74.3</ele>
        <time>2021-03-20T16:42:38Z</time>
      </trkpt>
      <trkpt lat="49.7184" lon="3.27608">
        <ele>74.12</ele>
        <time>2021-03-20T16:42:43Z</time>
      </trkpt>
      <trkpt lat="49.71847" lon="3.27617">
        <ele>73.81</ele>
        <time>2021-03-20T16:42:52Z</time>
      </trkpt>
      <trkpt lat="49.71855" lon="3.2762">
        <ele>73.7</ele>
        <time>2021-03-20T16:43:01Z</time>
      </trkpt>
      <trkpt lat="49.71863" lon="3.27617">
        <ele>73.86</ele>
        <time>2021-03-20T16:43:10Z</time>
      </trkpt>
      <trkpt lat="49.71869" lon="3.27609">
        <ele>74.46</ele>
        <time>2021-03-20T16:43:19Z</time>
      </trkpt>
      <trkpt lat="49.71884" lon="3.27595">
        <ele>75.93</ele>
        <time>2021-03-20T16:43:28Z</time>
      </trkpt>
      <trkpt lat="49.71892" lon="3.27594">
        <ele>76.24</ele>
        <time>2021-03-20T16:43:37Z</time>
      </trkpt>
      <trkpt lat="49.72148" lon="3.27584">
        <ele>79</ele>
        <time>2021-03-20T16:43:46Z</time>
      </trkpt>
      <trkpt lat="49.72828" lon="3.27547">
        <ele>99.87</ele>
        <time>2021-03-20T16:43:55Z</time>
      </trkpt>
      <trkpt lat="49.73072" lon="3.27531">
        <ele>95.4</ele>
        <time>2021-03-20T16:44:04Z</time>
      </trkpt>
      <trkpt lat="49.7333" lon="3.27519">
        <ele>88.11</ele>
        <time>2021-03-20T16:44:13Z</time>
      </trkpt>
      <trkpt lat="49.73458" lon="3.27509">
        <ele>84</ele>
        <time>2021-03-20T16:44:22Z</time>
      </trkpt>
      <trkpt lat="49.7458" lon="3.27449">
        <ele>81.59</ele>
        <time>2021-03-20T16:44:31Z</time>
      </trkpt>
      <trkpt lat="49.75492" lon="3.27397">
        <ele>82.92</ele>
        <time>2021-03-20T16:44:40Z</time>
      </trkpt>
      <trkpt lat="49.7565" lon="3.27392">
        <ele>80.94</ele>
        <time>2021-03-20T16:44:49Z</time>
      </trkpt>
      <trkpt lat="49.75746" lon="3.27393">
        <ele>83.81</ele>
        <time>2021-03-20T16:44:58Z</time>
      </trkpt>
      <trkpt lat="49.7584" lon="3.27402">
        <ele>88.25</ele>
        <time>2021-03-20T16:45:08Z</time>
      </trkpt>
      <trkpt lat="49.75886" lon="3.27409">
        <ele>91.67</ele>
        <time>2021-03-20T16:45:17Z</time>
      </trkpt>
      <trkpt lat="49.75956" lon="3.27423">
        <ele>93.4</ele>
        <time>2021-03-20T16:45:26Z</time>
      </trkpt>
      <trkpt lat="49.76079" lon="3.27459">
        <ele>99.28</ele>
        <time>2021-03-20T16:45:35Z</time>
      </trkpt>
      <trkpt lat="49.76165" lon="3.27492">
        <ele>99.78</ele>
        <time>2021-03-20T16:45:44Z</time>
      </trkpt>
      <trkpt lat="49.76273" lon="3.27544">
        <ele>96.52</ele>
        <time>2021-03-20T16:45:53Z</time>
      </trkpt>
      <trkpt lat="49.76343" lon="3.27585">
        <ele>98.46</ele>
        <time>2021-03-20T16:46:02Z</time>
      </trkpt>
      <trkpt lat="49.76421" lon="3.27635">
        <ele>100</ele>
        <time>2021-03-20T16:46:11Z</time>
      </trkpt>
      <trkpt lat="49.76635" lon="3.27785">
        <ele>102</ele>
        <time>2021-03-20T16:46:20Z</time>
      </trkpt>
      <trkpt lat="49.77205" lon="3.28189">
        <ele>102.76</ele>
        <time>2021-03-20T16:46:29Z</time>
      </trkpt>
      <trkpt lat="49.77279" lon="3.2824">
        <ele>104.04</ele>
        <time>2021-03-20T16:46:38Z</time>
      </trkpt>
      <trkpt lat="49.77331" lon="3.28272">
        <ele>105</ele>
        <time>2021-03-20T16:46:47Z</time>
      </trkpt>
      <trkpt lat="49.7738" lon="3.28298">
        <ele>106.67</ele>
        <time>2021-03-20T16:46:56Z</time>
      </trkpt>
      <trkpt lat="49.77431" lon="3.28324">
        <ele>108</ele>
        <time>2021-03-20T16:47:05Z</time>
      </trkpt>
      <trkpt lat="49.77472" lon="3.28342">
        <ele>108.31</ele>
        <time>2021-03-20T16:47:14Z</time>
      </trkpt>
      <trkpt lat="49.7752" lon="3.28366">
        <ele>110.83</ele>
        <time>2021-03-20T16:47:17Z</time>
      </trkpt>
      <trkpt lat="49.77593" lon="3.28388">
        <ele>114.64</ele>
        <time>2021-03-20T16:47:20Z</time>
      </trkpt>
      <trkpt lat="49.77608" lon="3.28396">
        <ele>114.09</ele>
        <time>2021-03-20T16:47:22Z</time>
      </trkpt>
      <trkpt lat="49.77633" lon="3.28415">
        <ele>113.21</ele>
        <time>2021-03-20T16:47:25Z</time>
      </trkpt>
      <trkpt lat="49.77795" lon="3.28554">
        <ele>113.07</ele>
        <time>2021-03-20T16:47:28Z</time>
      </trkpt>
      <trkpt lat="49.77805" lon="3.28559">
        <ele>112.86</ele>
        <time>2021-03-20T16:47:30Z</time>
      </trkpt>
      <trkpt lat="49.77816" lon="3.28556">
        <ele>112.96</ele>
        <time>2021-03-20T16:47:33Z</time>
      </trkpt>
      <trkpt lat="49.77833" lon="3.28545">
        <ele>113.37</ele>
        <time>2021-03-20T16:47:36Z</time>
      </trkpt>
      <trkpt lat="49.7786" lon="3.28667">
        <ele>110</ele>
        <time>2021-03-20T16:47:40Z</time>
      </trkpt>
      <trkpt lat="49.77867" lon="3.2869">
        <ele>111.09</ele>
        <time>2021-03-20T16:47:44Z</time>
      </trkpt>
      <trkpt lat="49.77878" lon="3.28713">
        <ele>112.27</ele>
        <time>2021-03-20T16:47:48Z</time>
      </trkpt>
      <trkpt lat="49.77893" lon="3.28732">
        <ele>113</ele>
        <time>2021-03-20T16:47:52Z</time>
      </trkpt>
      <trkpt lat="49.77937" lon="3.28779">
        <ele>112.96</ele>
        <time>2021-03-20T16:47:57Z</time>
      </trkpt>
      <trkpt lat="49.77969" lon="3.28817">
        <ele>112.47</ele>
        <time>2021-03-20T16:48:01Z</time>
      </trkpt>
      <trkpt lat="49.78041" lon="3.28919">
        <ele>113.51</ele>
        <time>2021-03-20T16:48:05Z</time>
      </trkpt>
      <trkpt lat="49.78075" lon="3.28973">
        <ele>112.31</ele>
        <time>2021-03-20T16:48:09Z</time>
      </trkpt>
      <trkpt lat="49.78284" lon="3.29348">
        <ele>110.42</ele>
        <time>2021-03-20T16:48:13Z</time>
      </trkpt>
      <trkpt lat="49.78349" lon="3.29487">
        <ele>107.24</ele>
        <time>2021-03-20T16:48:18Z</time>
      </trkpt>
      <trkpt lat="49.78718" lon="3.30258">
        <ele>114</ele>
        <time>2021-03-20T16:48:22Z</time>
      </trkpt>
      <trkpt lat="49.7875" lon="3.30333">
        <ele>114</ele>
        <time>2021-03-20T16:48:26Z</time>
      </trkpt>
      <trkpt lat="49.78814" lon="3.30458">
        <ele>108.21</ele>
        <time>2021-03-20T16:48:30Z</time>
      </trkpt>
      <trkpt lat="49.78848" lon="3.30535">
        <ele>105.74</ele>
        <time>2021-03-20T16:48:34Z</time>
      </trkpt>
      <trkpt lat="49.78874" lon="3.30576">
        <ele>106.73</ele>
        <time>2021-03-20T16:48:39Z</time>
      </trkpt>
      <trkpt lat="49.78898" lon="3.30602">
        <ele>107.99</ele>
        <time>2021-03-20T16:48:43Z</time>
      </trkpt>
      <trkpt lat="49.78935" lon="3.30659">
        <ele>110.24</ele>
        <time>2021-03-20T16:48:47Z</time>
      </trkpt>
      <trkpt lat="49.78956" lon="3.3071">
        <ele>111.42</ele>
        <time>2021-03-20T16:48:51Z</time>
      </trkpt>
      <trkpt lat="49.7898" lon="3.30799">
        <ele>114.04</ele>
        <time>2021-03-20T16:48:55Z</time>
      </trkpt>
      <trkpt lat="49.78993" lon="3.30879">
        <ele>116</ele>
        <time>2021-03-20T16:49:00Z</time>
      </trkpt>
      <trkpt lat="49.78997" lon="3.30895">
        <ele>116</ele>
        <time>2021-03-20T16:49:04Z</time>
      </trkpt>
      <trkpt lat="49.79002" lon="3.30908">
        <ele>116.03</ele>
        <time>2021-03-20T16:49:08Z</time>
      </trkpt>
      <trkpt lat="49.79014" lon="3.30924">
        <ele>115.87</ele>
        <time>2021-03-20T16:49:12Z</time>
      </trkpt>
      <trkpt lat="49.79033" lon="3.30944">
        <ele>116.18</ele>
        <time>2021-03-20T16:49:16Z</time>
      </trkpt>
      <trkpt lat="49.79072" lon="3.30976">
        <ele>116.35</ele>
        <time>2021-03-20T16:49:21Z</time>
      </trkpt>
      <trkpt lat="49.7911" lon="3.31002">
        <ele>114.99</ele>
        <time>2021-03-20T16:49:25Z</time>
      </trkpt>
      <trkpt lat="49.7914" lon="3.31028">
        <ele>113.01</ele>
        <time>2021-03-20T16:49:29Z</time>
      </trkpt>
      <trkpt lat="49.79235" lon="3.31154">
        <ele>113.53</ele>
        <time>2021-03-20T16:49:33Z</time>
      </trkpt>
      <trkpt lat="49.7925" lon="3.31182">
        <ele>112.98</ele>
        <time>2021-03-20T16:49:37Z</time>
      </trkpt>
      <trkpt lat="49.79306" lon="3.31331">
        <ele>109.97</ele>
        <time>2021-03-20T16:49:42Z</time>
      </trkpt>
      <trkpt lat="49.79333" lon="3.31391">
        <ele>108</ele>
        <time>2021-03-20T16:49:46Z</time>
      </trkpt>
      <trkpt lat="49.79387" lon="3.31488">
        <ele>105.07</ele>
        <time>2021-03-20T16:49:50Z</time>
      </trkpt>
      <trkpt lat="49.7941" lon="3.31524">
        <ele>105.1</ele>
        <time>2021-03-20T16:49:54Z</time>
      </trkpt>
      <trkpt lat="49.79442" lon="3.31569">
        <ele>105</ele>
        <time>2021-03-20T16:49:58Z</time>
      </trkpt>
      <trkpt lat="49.79464" lon="3.31591">
        <ele>105</ele>
        <time>2021-03-20T16:50:03Z</time>
      </trkpt>
      <trkpt lat="49.79656" lon="3.3176">
        <ele>100.75</ele>
        <time>2021-03-20T16:50:07Z</time>
      </trkpt>
      <trkpt lat="49.79718" lon="3.3181">
        <ele>100.13</ele>
        <time>2021-03-20T16:50:11Z</time>
      </trkpt>
      <trkpt lat="49.79779" lon="3.31862">
        <ele>100.03</ele>
        <time>2021-03-20T16:50:15Z</time>
      </trkpt>
      <trkpt lat="49.79802" lon="3.31888">
        <ele>101.09</ele>
        <time>2021-03-20T16:50:19Z</time>
      </trkpt>
      <trkpt lat="49.79824" lon="3.31918">
        <ele>101.38</ele>
        <time>2021-03-20T16:50:24Z</time>
      </trkpt>
      <trkpt lat="49.79842" lon="3.31957">
        <ele>102.44</ele>
        <time>2021-03-20T16:50:28Z</time>
      </trkpt>
      <trkpt lat="49.79865" lon="3.32023">
        <ele>104.72</ele>
        <time>2021-03-20T16:50:32Z</time>
      </trkpt>
      <trkpt lat="49.79896" lon="3.32098">
        <ele>105</ele>
        <time>2021-03-20T16:50:36Z</time>
      </trkpt>
      <trkpt lat="49.79902" lon="3.32108">
        <ele>105</ele>
        <time>2021-03-20T16:50:40Z</time>
      </trkpt>
      <trkpt lat="49.80063" lon="3.32032">
        <ele>103.59</ele>
        <time>2021-03-20T16:51:00Z</time>
      </trkpt>
      <trkpt lat="49.80086" lon="3.32021">
        <ele>101.82</ele>
        <time>2021-03-20T16:51:20Z</time>
      </trkpt>
      <trkpt lat="49.80193" lon="3.31973">
        <ele>97</ele>
        <time>2021-03-20T16:51:39Z</time>
      </trkpt>
      <trkpt lat="49.80453" lon="3.31855">
        <ele>85.13</ele>
        <time>2021-03-20T16:51:59Z</time>
      </trkpt>
      <trkpt lat="49.80481" lon="3.31839">
        <ele>86.59</ele>
        <time>2021-03-20T16:52:18Z</time>
      </trkpt>
      <trkpt lat="49.81806" lon="3.3124">
        <ele>114.39</ele>
        <time>2021-03-20T16:52:38Z</time>
      </trkpt>
      <trkpt lat="49.81878" lon="3.31207">
        <ele>113.64</ele>
        <time>2021-03-20T16:52:58Z</time>
      </trkpt>
      <trkpt lat="49.81907" lon="3.31357">
        <ele>113.55</ele>
        <time>2021-03-20T16:53:03Z</time>
      </trkpt>
      <trkpt lat="49.81916" lon="3.31399">
        <ele>112.99</ele>
        <time>2021-03-20T16:53:08Z</time>
      </trkpt>
      <trkpt lat="49.81927" lon="3.31435">
        <ele>112.58</ele>
        <time>2021-03-20T16:53:14Z</time>
      </trkpt>
      <trkpt lat="49.81993" lon="3.31611">
        <ele>115.74</ele>
        <time>2021-03-20T16:53:19Z</time>
      </trkpt>
      <trkpt lat="49.82014" lon="3.31671">
        <ele>115</ele>
        <time>2021-03-20T16:53:25Z</time>
      </trkpt>
      <trkpt lat="49.82082" lon="3.31933">
        <ele>114.03</ele>
        <time>2021-03-20T16:53:30Z</time>
      </trkpt>
      <trkpt lat="49.82095" lon="3.31979">
        <ele>114.7</ele>
        <time>2021-03-20T16:53:35Z</time>
      </trkpt>
      <trkpt lat="49.82107" lon="3.32008">
        <ele>114.54</ele>
        <time>2021-03-20T16:53:41Z</time>
      </trkpt>
      <trkpt lat="49.82123" lon="3.32039">
        <ele>113.92</ele>
        <time>2021-03-20T16:53:46Z</time>
      </trkpt>
      <trkpt lat="49.82186" lon="3.32138">
        <ele>111.29</ele>
        <time>2021-03-20T16:53:51Z</time>
      </trkpt>
      <trkpt lat="49.82196" lon="3.32158">
        <ele>111.64</ele>
        <time>2021-03-20T16:53:57Z</time>
      </trkpt>
      <trkpt lat="49.82222" lon="3.3222">
        <ele>113</ele>
        <time>2021-03-20T16:54:02Z</time>
      </trkpt>
      <trkpt lat="49.8225" lon="3.32302">
        <ele>111.13</ele>
        <time>2021-03-20T16:54:08Z</time>
      </trkpt>
      <trkpt lat="49.82269" lon="3.32344">
        <ele>111</ele>
        <time>2021-03-20T16:54:13Z</time>
      </trkpt>
      <trkpt lat="49.82467" lon="3.32751">
        <ele>113.37</ele>
        <time>2021-03-20T16:54:18Z</time>
      </trkpt>
      <trkpt lat="49.82478" lon="3.32772">
        <ele>113.77</ele>
        <time>2021-03-20T16:54:24Z</time>
      </trkpt>
      <trkpt lat="49.82482" lon="3.32775">
        <ele>114.12</ele>
        <time>2021-03-20T16:54:29Z</time>
      </trkpt>
      <trkpt lat="49.82583" lon="3.32556">
        <ele>115</ele>
        <time>2021-03-20T16:54:31Z</time>
      </trkpt>
      <trkpt lat="49.82606" lon="3.32511">
        <ele>114.5</ele>
        <time>2021-03-20T16:54:34Z</time>
      </trkpt>
      <trkpt lat="49.8262" lon="3.32489">
        <ele>114.18</ele>
        <time>2021-03-20T16:54:36Z</time>
      </trkpt>
      <trkpt lat="49.82639" lon="3.32467">
        <ele>113.8</ele>
        <time>2021-03-20T16:54:38Z</time>
      </trkpt>
      <trkpt lat="49.82655" lon="3.32451">
        <ele>113.83</ele>
        <time>2021-03-20T16:54:40Z</time>
      </trkpt>
      <trkpt lat="49.8271" lon="3.32407">
        <ele>111.81</ele>
        <time>2021-03-20T16:54:43Z</time>
      </trkpt>
      <trkpt lat="49.82741" lon="3.32378">
        <ele>111.69</ele>
        <time>2021-03-20T16:54:45Z</time>
      </trkpt>
      <trkpt lat="49.82761" lon="3.32357">
        <ele>111.46</ele>
        <time>2021-03-20T16:54:47Z</time>
      </trkpt>
      <trkpt lat="49.82788" lon="3.32322">
        <ele>109.63</ele>
        <time>2021-03-20T16:54:49Z</time>
      </trkpt>
      <trkpt lat="49.82824" lon="3.32266">
        <ele>109.52</ele>
        <time>2021-03-20T16:54:52Z</time>
      </trkpt>
      <trkpt lat="49.82844" lon="3.32239">
        <ele>106.87</ele>
        <time>2021-03-20T16:54:54Z</time>
      </trkpt>
      <trkpt lat="49.82875" lon="3.32213">
        <ele>102.16</ele>
        <time>2021-03-20T16:54:56Z</time>
      </trkpt>
      <trkpt lat="49.82881" lon="3.32216">
        <ele>102.06</ele>
        <time>2021-03-20T16:55:00Z</time>
      </trkpt>
      <trkpt lat="49.82888" lon="3.32216">
        <ele>101.83</ele>
        <time>2021-03-20T16:55:03Z</time>
      </trkpt>
      <trkpt lat="49.82898" lon="3.32228">
        <ele>102.04</ele>
        <time>2021-03-20T16:55:07Z</time>
      </trkpt>
      <trkpt lat="49.82932" lon="3.32283">
        <ele>104.6</ele>
        <time>2021-03-20T16:55:10Z</time>
      </trkpt>
      <trkpt lat="49.83169" lon="3.3277">
        <ele>107.91</ele>
        <time>2021-03-20T16:55:14Z</time>
      </trkpt>
      <trkpt lat="49.83197" lon="3.32815">
        <ele>107.92</ele>
        <time>2021-03-20T16:55:17Z</time>
      </trkpt>
      <trkpt lat="49.83211" lon="3.32835">
        <ele>107.39</ele>
        <time>2021-03-20T16:55:21Z</time>
      </trkpt>
      <trkpt lat="49.83248" lon="3.32873">
        <ele>106.07</ele>
        <time>2021-03-20T16:55:24Z</time>
      </trkpt>
      <trkpt lat="49.83267" lon="3.32887">
        <ele>105.41</ele>
        <time>2021-03-20T16:55:28Z</time>
      </trkpt>
      <trkpt lat="49.83302" lon="3.32909">
        <ele>104.74</ele>
        <time>2021-03-20T16:55:32Z</time>
      </trkpt>
      <trkpt lat="49.83344" lon="3.32922">
        <ele>103.62</ele>
        <time>2021-03-20T16:55:35Z</time>
      </trkpt>
      <trkpt lat="49.83383" lon="3.32925">
        <ele>101.41</ele>
        <time>2021-03-20T16:55:39Z</time>
      </trkpt>
      <trkpt lat="49.83406" lon="3.32922">
        <ele>99.15</ele>
        <time>2021-03-20T16:55:42Z</time>
      </trkpt>
      <trkpt lat="49.83441" lon="3.32913">
        <ele>96.37</ele>
        <time>2021-03-20T16:55:46Z</time>
      </trkpt>
      <trkpt lat="49.83717" lon="3.32785">
        <ele>92.33</ele>
        <time>2021-03-20T16:55:49Z</time>
      </trkpt>
      <trkpt lat="49.83751" lon="3.32781">
        <ele>93.93</ele>
        <time>2021-03-20T16:55:53Z</time>
      </trkpt>
      <trkpt lat="49.83755" lon="3.32787">
        <ele>93.85</ele>
        <time>2021-03-20T16:55:55Z</time>
      </trkpt>
      <trkpt lat="49.83761" lon="3.32792">
        <ele>93.88</ele>
        <time>2021-03-20T16:55:56Z</time>
      </trkpt>
      <trkpt lat="49.83767" lon="3.32793">
        <ele>94.04</ele>
        <time>2021-03-20T16:55:58Z</time>
      </trkpt>
      <trkpt lat="49.83773" lon="3.32792">
        <ele>94.3</ele>
        <time>2021-03-20T16:56:00Z</time>
      </trkpt>
      <trkpt lat="49.83778" lon="3.32788">
        <ele>94.64</ele>
        <time>2021-03-20T16:56:02Z</time>
      </trkpt>
      <trkpt lat="49.83788" lon="3.3279">
        <ele>94.71</ele>
        <time>2021-03-20T16:56:03Z</time>
      </trkpt>
      <trkpt lat="49.83811" lon="3.32802">
        <ele>94.37</ele>
        <time>2021-03-20T16:56:05Z</time>
      </trkpt>
      <trkpt lat="49.84011" lon="3.32976">
        <ele>93.26</ele>
        <time>2021-03-20T16:56:07Z</time>
      </trkpt>
      <trkpt lat="49.84043" lon="3.32997">
        <ele>92.57</ele>
        <time>2021-03-20T16:56:09Z</time>
      </trkpt>
      <trkpt lat="49.84105" lon="3.33024">
        <ele>90.23</ele>
        <time>2021-03-20T16:56:10Z</time>
      </trkpt>
      <trkpt lat="49.84136" lon="3.33034">
        <ele>90.24</ele>
        <time>2021-03-20T16:56:12Z</time>
      </trkpt>
      <trkpt lat="49.84144" lon="3.33039">
        <ele>89.9</ele>
        <time>2021-03-20T16:56:14Z</time>
      </trkpt>
      <trkpt lat="49.84154" lon="3.3305">
        <ele>88.88</ele>
        <time>2021-03-20T16:56:16Z</time>
      </trkpt>
      <trkpt lat="49.84156" lon="3.33062">
        <ele>88.56</ele>
        <time>2021-03-20T16:56:18Z</time>
      </trkpt>
      <trkpt lat="49.8416" lon="3.33073">
        <ele>88</ele>
        <time>2021-03-20T16:56:20Z</time>
      </trkpt>
      <trkpt lat="49.84165" lon="3.33082">
        <ele>87.21</ele>
        <time>2021-03-20T16:56:23Z</time>
      </trkpt>
      <trkpt lat="49.84172" lon="3.33089">
        <ele>86.39</ele>
        <time>2021-03-20T16:56:25Z</time>
      </trkpt>
      <trkpt lat="49.8418" lon="3.33093">
        <ele>85.44</ele>
        <time>2021-03-20T16:56:27Z</time>
      </trkpt>
      <trkpt lat="49.84188" lon="3.33095">
        <ele>84.42</ele>
        <time>2021-03-20T16:56:30Z</time>
      </trkpt>
      <trkpt lat="49.84196" lon="3.33093">
        <ele>83.6</ele>
        <time>2021-03-20T16:56:32Z</time>
      </trkpt>
      <trkpt lat="49.84203" lon="3.33089">
        <ele>83.49</ele>
        <time>2021-03-20T16:56:34Z</time>
      </trkpt>
      <trkpt lat="49.8421" lon="3.33082">
        <ele>83.42</ele>
        <time>2021-03-20T16:56:37Z</time>
      </trkpt>
      <trkpt lat="49.84218" lon="3.33067">
        <ele>82.67</ele>
        <time>2021-03-20T16:56:39Z</time>
      </trkpt>
      <trkpt lat="49.84221" lon="3.33048">
        <ele>81.81</ele>
        <time>2021-03-20T16:56:41Z</time>
      </trkpt>
      <trkpt lat="49.84234" lon="3.33034">
        <ele>81.57</ele>
        <time>2021-03-20T16:56:44Z</time>
      </trkpt>
      <trkpt lat="49.84249" lon="3.33028">
        <ele>81.95</ele>
        <time>2021-03-20T16:56:46Z</time>
      </trkpt>
      <trkpt lat="49.84276" lon="3.33023">
        <ele>83.28</ele>
        <time>2021-03-20T16:56:49Z</time>
      </trkpt>
      <trkpt lat="49.8433" lon="3.33025">
        <ele>85.21</ele>
        <time>2021-03-20T16:56:51Z</time>
      </trkpt>
      <trkpt lat="49.84351" lon="3.33021">
        <ele>83.5</ele>
        <time>2021-03-20T16:56:53Z</time>
      </trkpt>
      <trkpt lat="49.84405" lon="3.33">
        <ele>78.83</ele>
        <time>2021-03-20T16:56:56Z</time>
      </trkpt>
      <trkpt lat="49.84572" lon="3.32919">
        <ele>75.09</ele>
        <time>2021-03-20T16:56:58Z</time>
      </trkpt>
      <trkpt lat="49.84591" lon="3.32913">
        <ele>75.24</ele>
        <time>2021-03-20T16:57:00Z</time>
      </trkpt>
      <trkpt lat="49.84619" lon="3.32913">
        <ele>75.94</ele>
        <time>2021-03-20T16:57:03Z</time>
      </trkpt>
      <trkpt lat="49.84648" lon="3.32921">
        <ele>76</ele>
        <time>2021-03-20T16:57:05Z</time>
      </trkpt>
      <trkpt lat="49.84669" lon="3.32934">
        <ele>76.03</ele>
        <time>2021-03-20T16:57:07Z</time>
      </trkpt>
      <trkpt lat="49.84727" lon="3.3299">
        <ele>76.19</ele>
        <time>2021-03-20T16:57:10Z</time>
      </trkpt>
      <trkpt lat="49.84749" lon="3.33004">
        <ele>75.03</ele>
        <time>2021-03-20T16:57:12Z</time>
      </trkpt>
      <trkpt lat="49.84763" lon="3.33008">
        <ele>74.54</ele>
        <time>2021-03-20T16:57:14Z</time>
      </trkpt>
      <trkpt lat="49.84786" lon="3.33009">
        <ele>74.1</ele>
        <time>2021-03-20T16:57:17Z</time>
      </trkpt>
      <trkpt lat="49.84806" lon="3.33005">
        <ele>74.19</ele>
        <time>2021-03-20T16:57:19Z</time>
      </trkpt>
      <trkpt lat="49.84826" lon="3.32997">
        <ele>74</ele>
        <time>2021-03-20T16:57:22Z</time>
      </trkpt>
      <trkpt lat="49.84936" lon="3.32899">
        <ele>76.9</ele>
        <time>2021-03-20T16:57:24Z</time>
      </trkpt>
      <trkpt lat="49.84986" lon="3.32861">
        <ele>80</ele>
        <time>2021-03-20T16:57:26Z</time>
      </trkpt>
      <trkpt lat="49.85027" lon="3.32842">
        <ele>80</ele>
        <time>2021-03-20T16:57:29Z</time>
      </trkpt>
      <trkpt lat="49.85061" lon="3.32829">
        <ele>80</ele>
        <time>2021-03-20T16:57:31Z</time>
      </trkpt>
      <trkpt lat="49.85106" lon="3.3282">
        <ele>80.4</ele>
        <time>2021-03-20T16:57:33Z</time>
      </trkpt>
      <trkpt lat="49.85132" lon="3.32823">
        <ele>79.91</ele>
        <time>2021-03-20T16:57:36Z</time>
      </trkpt>
      <trkpt lat="49.85154" lon="3.32828">
        <ele>79.95</ele>
        <time>2021-03-20T16:57:38Z</time>
      </trkpt>
      <trkpt lat="49.85224" lon="3.3286">
        <ele>76.83</ele>
        <time>2021-03-20T16:57:40Z</time>
      </trkpt>
      <trkpt lat="49.85248" lon="3.32872">
        <ele>75.17</ele>
        <time>2021-03-20T16:57:43Z</time>
      </trkpt>
      <trkpt lat="49.85278" lon="3.32881">
        <ele>74</ele>
        <time>2021-03-20T16:57:45Z</time>
      </trkpt>
      <trkpt lat="49.85314" lon="3.32886">
        <ele>72.92</ele>
        <time>2021-03-20T16:57:47Z</time>
      </trkpt>
      <trkpt lat="49.85364" lon="3.32887">
        <ele>74.2</ele>
        <time>2021-03-20T16:57:50Z</time>
      </trkpt>
      <trkpt lat="49.85407" lon="3.32874">
        <ele>76.99</ele>
        <time>2021-03-20T16:57:52Z</time>
      </trkpt>
      <trkpt lat="49.85455" lon="3.3285">
        <ele>80.72</ele>
        <time>2021-03-20T16:57:55Z</time>
      </trkpt>
      <trkpt lat="49.85507" lon="3.3281">
        <ele>83.61</ele>
        <time>2021-03-20T16:57:57Z</time>
      </trkpt>
      <trkpt lat="49.85547" lon="3.32769">
        <ele>86.92</ele>
        <time>2021-03-20T16:57:59Z</time>
      </trkpt>
      <trkpt lat="49.85594" lon="3.32704">
        <ele>93.29</ele>
        <time>2021-03-20T16:58:02Z</time>
      </trkpt>
      <trkpt lat="49.85643" lon="3.32645">
        <ele>98.82</ele>
        <time>2021-03-20T16:58:04Z</time>
      </trkpt>
      <trkpt lat="49.85681" lon="3.32592">
        <ele>99.35</ele>
        <time>2021-03-20T16:58:06Z</time>
      </trkpt>
      <trkpt lat="49.85705" lon="3.32568">
        <ele>99.55</ele>
        <time>2021-03-20T16:58:09Z</time>
      </trkpt>
      <trkpt lat="49.85731" lon="3.32555">
        <ele>99.68</ele>
        <time>2021-03-20T16:58:11Z</time>
      </trkpt>
      <trkpt lat="49.85738" lon="3.32557">
        <ele>99.42</ele>
        <time>2021-03-20T16:58:15Z</time>
      </trkpt>
      <trkpt lat="49.85746" lon="3.32554">
        <ele>99.2</ele>
        <time>2021-03-20T16:58:19Z</time>
      </trkpt>
      <trkpt lat="49.85752" lon="3.32549">
        <ele>99.24</ele>
        <time>2021-03-20T16:58:24Z</time>
      </trkpt>
      <trkpt lat="49.85757" lon="3.3254">
        <ele>99.42</ele>
        <time>2021-03-20T16:58:28Z</time>
      </trkpt>
      <trkpt lat="49.8576" lon="3.3253">
        <ele>99.6</ele>
        <time>2021-03-20T16:58:32Z</time>
      </trkpt>
      <trkpt lat="49.85767" lon="3.32518">
        <ele>99.24</ele>
        <time>2021-03-20T16:58:36Z</time>
      </trkpt>
      <trkpt lat="49.85785" lon="3.32499">
        <ele>98.96</ele>
        <time>2021-03-20T16:58:41Z</time>
      </trkpt>
      <trkpt lat="49.85807" lon="3.32485">
        <ele>98.46</ele>
        <time>2021-03-20T16:58:45Z</time>
      </trkpt>
      <trkpt lat="49.85838" lon="3.32476">
        <ele>98.1</ele>
        <time>2021-03-20T16:58:49Z</time>
      </trkpt>
      <trkpt lat="49.85886" lon="3.32474">
        <ele>98</ele>
        <time>2021-03-20T16:58:53Z</time>
      </trkpt>
      <trkpt lat="49.85912" lon="3.32478">
        <ele>97.17</ele>
        <time>2021-03-20T16:58:57Z</time>
      </trkpt>
      <trkpt lat="49.85967" lon="3.32497">
        <ele>96.07</ele>
        <time>2021-03-20T16:59:02Z</time>
      </trkpt>
      <trkpt lat="49.86004" lon="3.32523">
        <ele>95.11</ele>
        <time>2021-03-20T16:59:06Z</time>
      </trkpt>
      <trkpt lat="49.86026" lon="3.32542">
        <ele>95.21</ele>
        <time>2021-03-20T16:59:10Z</time>
      </trkpt>
      <trkpt lat="49.86113" lon="3.32658">
        <ele>95.55</ele>
        <time>2021-03-20T16:59:14Z</time>
      </trkpt>
      <trkpt lat="49.86132" lon="3.32682">
        <ele>95</ele>
        <time>2021-03-20T16:59:18Z</time>
      </trkpt>
      <trkpt lat="49.86159" lon="3.32709">
        <ele>94.44</ele>
        <time>2021-03-20T16:59:23Z</time>
      </trkpt>
      <trkpt lat="49.86198" lon="3.32737">
        <ele>92.31</ele>
        <time>2021-03-20T16:59:27Z</time>
      </trkpt>
      <trkpt lat="49.86232" lon="3.32755">
        <ele>91.07</ele>
        <time>2021-03-20T16:59:31Z</time>
      </trkpt>
      <trkpt lat="49.86255" lon="3.32765">
        <ele>90.34</ele>
        <time>2021-03-20T16:59:35Z</time>
      </trkpt>
      <trkpt lat="49.86306" lon="3.32771">
        <ele>89.76</ele>
        <time>2021-03-20T16:59:39Z</time>
      </trkpt>
      <trkpt lat="49.86413" lon="3.32767">
        <ele>90</ele>
        <time>2021-03-20T16:59:44Z</time>
      </trkpt>
      <trkpt lat="49.86531" lon="3.32766">
        <ele>89.13</ele>
        <time>2021-03-20T16:59:48Z</time>
      </trkpt>
      <trkpt lat="49.86591" lon="3.32767">
        <ele>90.08</ele>
        <time>2021-03-20T16:59:52Z</time>
      </trkpt>
      <trkpt lat="49.86631" lon="3.32778">
        <ele>92</ele>
        <time>2021-03-20T16:59:56Z</time>
      </trkpt>
      <trkpt lat="49.86684" lon="3.3281">
        <ele>95.3</ele>
        <time>2021-03-20T17:00:00Z</time>
      </trkpt>
      <trkpt lat="49.86738" lon="3.3285">
        <ele>98.57</ele>
        <time>2021-03-20T17:00:05Z</time>
      </trkpt>
      <trkpt lat="49.86786" lon="3.32878">
        <ele>101.4</ele>
        <time>2021-03-20T17:00:09Z</time>
      </trkpt>
      <trkpt lat="49.86811" lon="3.32898">
        <ele>104.06</ele>
        <time>2021-03-20T17:00:13Z</time>
      </trkpt>
      <trkpt lat="49.86873" lon="3.3293">
        <ele>105</ele>
        <time>2021-03-20T17:00:17Z</time>
      </trkpt>
      <trkpt lat="49.86924" lon="3.32941">
        <ele>105.69</ele>
        <time>2021-03-20T17:00:21Z</time>
      </trkpt>
      <trkpt lat="49.87017" lon="3.32936">
        <ele>102.66</ele>
        <time>2021-03-20T17:00:26Z</time>
      </trkpt>
      <trkpt lat="49.87034" lon="3.32938">
        <ele>101.5</ele>
        <time>2021-03-20T17:00:30Z</time>
      </trkpt>
      <trkpt lat="49.87039" lon="3.32943">
        <ele>101.14</ele>
        <time>2021-03-20T17:00:33Z</time>
      </trkpt>
      <trkpt lat="49.87043" lon="3.32943">
        <ele>100.91</ele>
        <time>2021-03-20T17:00:36Z</time>
      </trkpt>
      <trkpt lat="49.87048" lon="3.3294">
        <ele>100.39</ele>
        <time>2021-03-20T17:00:40Z</time>
      </trkpt>
      <trkpt lat="49.8705" lon="3.32936">
        <ele>100.13</ele>
        <time>2021-03-20T17:00:43Z</time>
      </trkpt>
      <trkpt lat="49.87061" lon="3.32951">
        <ele>100.42</ele>
        <time>2021-03-20T17:00:46Z</time>
      </trkpt>
      <trkpt lat="49.87134" lon="3.33103">
        <ele>102.63</ele>
        <time>2021-03-20T17:00:49Z</time>
      </trkpt>
      <trkpt lat="49.8715" lon="3.3313">
        <ele>103.55</ele>
        <time>2021-03-20T17:00:53Z</time>
      </trkpt>
      <trkpt lat="49.87161" lon="3.33136">
        <ele>103.82</ele>
        <time>2021-03-20T17:00:56Z</time>
      </trkpt>
      <trkpt lat="49.87173" lon="3.33138">
        <ele>103.72</ele>
        <time>2021-03-20T17:00:59Z</time>
      </trkpt>
      <trkpt lat="49.8723" lon="3.33121">
        <ele>98.46</ele>
        <time>2021-03-20T17:01:03Z</time>
      </trkpt>
      <trkpt lat="49.8728" lon="3.33093">
        <ele>96.65</ele>
        <time>2021-03-20T17:01:06Z</time>
      </trkpt>
      <trkpt lat="49.87324" lon="3.33058">
        <ele>93.37</ele>
        <time>2021-03-20T17:01:09Z</time>
      </trkpt>
      <trkpt lat="49.87375" lon="3.33004">
        <ele>90.56</ele>
        <time>2021-03-20T17:01:12Z</time>
      </trkpt>
      <trkpt lat="49.87415" lon="3.32946">
        <ele>90.05</ele>
        <time>2021-03-20T17:01:16Z</time>
      </trkpt>
      <trkpt lat="49.87441" lon="3.32901">
        <ele>87.37</ele>
        <time>2021-03-20T17:01:19Z</time>
      </trkpt>
      <trkpt lat="49.87466" lon="3.32848">
        <ele>85.79</ele>
        <time>2021-03-20T17:01:22Z</time>
      </trkpt>
      <trkpt lat="49.87491" lon="3.32772">
        <ele>84.81</ele>
        <time>2021-03-20T17:01:25Z</time>
      </trkpt>
      <trkpt lat="49.8751" lon="3.32685">
        <ele>84.79</ele>
        <time>2021-03-20T17:01:29Z</time>
      </trkpt>
      <trkpt lat="49.87517" lon="3.32649">
        <ele>83.99</ele>
        <time>2021-03-20T17:01:32Z</time>
      </trkpt>
      <trkpt lat="49.87517" lon="3.32636">
        <ele>83.43</ele>
        <time>2021-03-20T17:01:35Z</time>
      </trkpt>
      <trkpt lat="49.87482" lon="3.32492">
        <ele>82.35</ele>
        <time>2021-03-20T17:01:38Z</time>
      </trkpt>
      <trkpt lat="49.87485" lon="3.32467">
        <ele>82.47</ele>
        <time>2021-03-20T17:01:42Z</time>
      </trkpt>
      <trkpt lat="49.87499" lon="3.32439">
        <ele>83.14</ele>
        <time>2021-03-20T17:01:45Z</time>
      </trkpt>
      <trkpt lat="49.87521" lon="3.3241">
        <ele>83.94</ele>
        <time>2021-03-20T17:01:48Z</time>
      </trkpt>
      <trkpt lat="49.87563" lon="3.32378">
        <ele>83.62</ele>
        <time>2021-03-20T17:01:52Z</time>
      </trkpt>
      <trkpt lat="49.87572" lon="3.3239">
        <ele>84</ele>
        <time>2021-03-20T17:02:00Z</time>
      </trkpt>
      <trkpt lat="49.87582" lon="3.32409">
        <ele>84</ele>
        <time>2021-03-20T17:02:09Z</time>
      </trkpt>
      <trkpt lat="49.87805" lon="3.32737">
        <ele>92.98</ele>
        <time>2021-03-20T17:02:17Z</time>
      </trkpt>
      <trkpt lat="49.8803" lon="3.33081">
        <ele>104.88</ele>
        <time>2021-03-20T17:02:26Z</time>
      </trkpt>
      <trkpt lat="49.88227" lon="3.33393">
        <ele>98.51</ele>
        <time>2021-03-20T17:02:35Z</time>
      </trkpt>
      <trkpt lat="49.88303" lon="3.33479">
        <ele>96.31</ele>
        <time>2021-03-20T17:02:43Z</time>
      </trkpt>
      <trkpt lat="49.88387" lon="3.33568">
        <ele>97.12</ele>
        <time>2021-03-20T17:02:52Z</time>
      </trkpt>
      <trkpt lat="49.88466" lon="3.33647">
        <ele>98.07</ele>
        <time>2021-03-20T17:03:00Z</time>
      </trkpt>
      <trkpt lat="49.88635" lon="3.33769">
        <ele>98.69</ele>
        <time>2021-03-20T17:03:09Z</time>
      </trkpt>
      <trkpt lat="49.88678" lon="3.33809">
        <ele>99.48</ele>
        <time>2021-03-20T17:03:18Z</time>
      </trkpt>
      <trkpt lat="49.88708" lon="3.33841">
        <ele>99.65</ele>
        <time>2021-03-20T17:03:26Z</time>
      </trkpt>
      <trkpt lat="49.88964" lon="3.34136">
        <ele>96.46</ele>
        <time>2021-03-20T17:03:35Z</time>
      </trkpt>
      <trkpt lat="49.88983" lon="3.34162">
        <ele>95.55</ele>
        <time>2021-03-20T17:03:43Z</time>
      </trkpt>
      <trkpt lat="49.88992" lon="3.34178">
        <ele>95.42</ele>
        <time>2021-03-20T17:03:52Z</time>
      </trkpt>
      <trkpt lat="49.89071" lon="3.3434">
        <ele>95.05</ele>
        <time>2021-03-20T17:04:00Z</time>
      </trkpt>
      <trkpt lat="49.8909" lon="3.34362">
        <ele>94.61</ele>
        <time>2021-03-20T17:04:09Z</time>
      </trkpt>
      <trkpt lat="49.89112" lon="3.34376">
        <ele>93.52</ele>
        <time>2021-03-20T17:04:18Z</time>
      </trkpt>
      <trkpt lat="49.89168" lon="3.34399">
        <ele>94.26</ele>
        <time>2021-03-20T17:04:26Z</time>
      </trkpt>
      <trkpt lat="49.8922" lon="3.34418">
        <ele>88.19</ele>
        <time>2021-03-20T17:04:35Z</time>
      </trkpt>
      <trkpt lat="49.89296" lon="3.34369">
        <ele>85.06</ele>
        <time>2021-03-20T17:04:39Z</time>
      </trkpt>
      <trkpt lat="49.89403" lon="3.34289">
        <ele>85.18</ele>
        <time>2021-03-20T17:04:44Z</time>
      </trkpt>
      <trkpt lat="49.89426" lon="3.34268">
        <ele>85.68</ele>
        <time>2021-03-20T17:04:48Z</time>
      </trkpt>
      <trkpt lat="49.89462" lon="3.34227">
        <ele>87.62</ele>
        <time>2021-03-20T17:04:53Z</time>
      </trkpt>
      <trkpt lat="49.89483" lon="3.34199">
        <ele>88.06</ele>
        <time>2021-03-20T17:04:57Z</time>
      </trkpt>
      <trkpt lat="49.89569" lon="3.34127">
        <ele>83.98</ele>
        <time>2021-03-20T17:05:02Z</time>
      </trkpt>
      <trkpt lat="49.89572" lon="3.34114">
        <ele>84.13</ele>
        <time>2021-03-20T17:05:06Z</time>
      </trkpt>
      <trkpt lat="49.89573" lon="3.34102">
        <ele>84.48</ele>
        <time>2021-03-20T17:05:11Z</time>
      </trkpt>
      <trkpt lat="49.89571" lon="3.3409">
        <ele>85.06</ele>
        <time>2021-03-20T17:05:15Z</time>
      </trkpt>
      <trkpt lat="49.8955" lon="3.3398">
        <ele>88.19</ele>
        <time>2021-03-20T17:05:20Z</time>
      </trkpt>
      <trkpt lat="49.89546" lon="3.33937">
        <ele>87.42</ele>
        <time>2021-03-20T17:05:24Z</time>
      </trkpt>
      <trkpt lat="49.89546" lon="3.33912">
        <ele>86.5</ele>
        <time>2021-03-20T17:05:29Z</time>
      </trkpt>
      <trkpt lat="49.8955" lon="3.33897">
        <ele>85.68</ele>
        <time>2021-03-20T17:05:33Z</time>
      </trkpt>
      <trkpt lat="49.89558" lon="3.33882">
        <ele>85.42</ele>
        <time>2021-03-20T17:05:38Z</time>
      </trkpt>
      <trkpt lat="49.89568" lon="3.3387">
        <ele>86.57</ele>
        <time>2021-03-20T17:05:42Z</time>
      </trkpt>
      <trkpt lat="49.89603" lon="3.3385">
        <ele>88.72</ele>
        <time>2021-03-20T17:05:47Z</time>
      </trkpt>
      <trkpt lat="49.89649" lon="3.33844">
        <ele>90.35</ele>
        <time>2021-03-20T17:05:51Z</time>
      </trkpt>
      <trkpt lat="49.89701" lon="3.33847">
        <ele>93.45</ele>
        <time>2021-03-20T17:05:56Z</time>
      </trkpt>
      <trkpt lat="49.89708" lon="3.33843">
        <ele>93.99</ele>
        <time>2021-03-20T17:06:00Z</time>
      </trkpt>
      <trkpt lat="49.89719" lon="3.33881">
        <ele>94.78</ele>
        <time>2021-03-20T17:06:07Z</time>
      </trkpt>
      <trkpt lat="49.89721" lon="3.33893">
        <ele>94.77</ele>
        <time>2021-03-20T17:06:14Z</time>
      </trkpt>
      <trkpt lat="49.89728" lon="3.33893">
        <ele>94.87</ele>
        <time>2021-03-20T17:06:21Z</time>
      </trkpt>
      <trkpt lat="49.89739" lon="3.33899">
        <ele>94.85</ele>
        <time>2021-03-20T17:06:28Z</time>
      </trkpt>
      <trkpt lat="49.89753" lon="3.33899">
        <ele>95.03</ele>
        <time>2021-03-20T17:06:35Z</time>
      </trkpt>
      <trkpt lat="49.89766" lon="3.33894">
        <ele>95.11</ele>
        <time>2021-03-20T17:06:42Z</time>
      </trkpt>
      <trkpt lat="49.89869" lon="3.33843">
        <ele>97.01</ele>
        <time>2021-03-20T17:06:49Z</time>
      </trkpt>
      <trkpt lat="49.89996" lon="3.33815">
        <ele>96.2</ele>
        <time>2021-03-20T17:06:56Z</time>
      </trkpt>
      <trkpt lat="49.90056" lon="3.33823">
        <ele>96.2</ele>
        <time>2021-03-20T17:07:03Z</time>
      </trkpt>
      <trkpt lat="49.90133" lon="3.33853">
        <ele>95.86</ele>
        <time>2021-03-20T17:07:10Z</time>
      </trkpt>
      <trkpt lat="49.90355" lon="3.34019">
        <ele>101.67</ele>
        <time>2021-03-20T17:07:17Z</time>
      </trkpt>
      <trkpt lat="49.9078" lon="3.3432">
        <ele>123</ele>
        <time>2021-03-20T17:07:24Z</time>
      </trkpt>
      <trkpt lat="49.90847" lon="3.34362">
        <ele>124.04</ele>
        <time>2021-03-20T17:07:31Z</time>
      </trkpt>
      <trkpt lat="49.90968" lon="3.3439">
        <ele>120.32</ele>
        <time>2021-03-20T17:07:38Z</time>
      </trkpt>
      <trkpt lat="49.9101" lon="3.34369">
        <ele>117.63</ele>
        <time>2021-03-20T17:07:45Z</time>
      </trkpt>
      <trkpt lat="49.91037" lon="3.34341">
        <ele>116.23</ele>
        <time>2021-03-20T17:07:52Z</time>
      </trkpt>
      <trkpt lat="49.91226" lon="3.34559">
        <ele>116.14</ele>
        <time>2021-03-20T17:07:58Z</time>
      </trkpt>
      <trkpt lat="49.91281" lon="3.34627">
        <ele>119.19</ele>
        <time>2021-03-20T17:08:05Z</time>
      </trkpt>
      <trkpt lat="49.91617" lon="3.35085">
        <ele>134.65</ele>
        <time>2021-03-20T17:08:11Z</time>
      </trkpt>
      <trkpt lat="49.91738" lon="3.35277">
        <ele>135.71</ele>
        <time>2021-03-20T17:08:18Z</time>
      </trkpt>
      <trkpt lat="49.91776" lon="3.35385">
        <ele>134.77</ele>
        <time>2021-03-20T17:08:25Z</time>
      </trkpt>
      <trkpt lat="49.91941" lon="3.36001">
        <ele>129.68</ele>
        <time>2021-03-20T17:08:31Z</time>
      </trkpt>
      <trkpt lat="49.91963" lon="3.36063">
        <ele>133.44</ele>
        <time>2021-03-20T17:08:38Z</time>
      </trkpt>
      <trkpt lat="49.91997" lon="3.36122">
        <ele>133.54</ele>
        <time>2021-03-20T17:08:44Z</time>
      </trkpt>
      <trkpt lat="49.92024" lon="3.36163">
        <ele>133</ele>
        <time>2021-03-20T17:08:51Z</time>
      </trkpt>
      <trkpt lat="49.92133" lon="3.36308">
        <ele>121.91</ele>
        <time>2021-03-20T17:08:58Z</time>
      </trkpt>
      <trkpt lat="49.92232" lon="3.36432">
        <ele>116.52</ele>
        <time>2021-03-20T17:09:04Z</time>
      </trkpt>
      <trkpt lat="49.92323" lon="3.36488">
        <ele>116.66</ele>
        <time>2021-03-20T17:09:11Z</time>
      </trkpt>
      <trkpt lat="49.92338" lon="3.365">
        <ele>116.83</ele>
        <time>2021-03-20T17:09:18Z</time>
      </trkpt>
      <trkpt lat="49.92369" lon="3.36532">
        <ele>116.86</ele>
        <time>2021-03-20T17:09:24Z</time>
      </trkpt>
      <trkpt lat="49.92402" lon="3.36579">
        <ele>117.83</ele>
        <time>2021-03-20T17:09:31Z</time>
      </trkpt>
      <trkpt lat="49.92447" lon="3.36655">
        <ele>116.46</ele>
        <time>2021-03-20T17:09:37Z</time>
      </trkpt>
      <trkpt lat="49.92685" lon="3.37028">
        <ele>115</ele>
        <time>2021-03-20T17:09:44Z</time>
      </trkpt>
      <trkpt lat="49.92695" lon="3.36984">
        <ele>113.43</ele>
        <time>2021-03-20T17:09:46Z</time>
      </trkpt>
      <trkpt lat="49.92705" lon="3.36961">
        <ele>112.8</ele>
        <time>2021-03-20T17:09:48Z</time>
      </trkpt>
      <trkpt lat="49.92712" lon="3.36954">
        <ele>112.56</ele>
        <time>2021-03-20T17:09:50Z</time>
      </trkpt>
      <trkpt lat="49.92792" lon="3.36896">
        <ele>113</ele>
        <time>2021-03-20T17:09:51Z</time>
      </trkpt>
      <trkpt lat="49.92805" lon="3.36883">
        <ele>112.79</ele>
        <time>2021-03-20T17:09:53Z</time>
      </trkpt>
      <trkpt lat="49.92813" lon="3.36872">
        <ele>112.56</ele>
        <time>2021-03-20T17:09:55Z</time>
      </trkpt>
      <trkpt lat="49.92832" lon="3.3689">
        <ele>113</ele>
        <time>2021-03-20T17:10:03Z</time>
      </trkpt>
      <trkpt lat="49.92844" lon="3.36891">
        <ele>113.38</ele>
        <time>2021-03-20T17:10:11Z</time>
      </trkpt>
      <trkpt lat="49.92856" lon="3.36876">
        <ele>114.2</ele>
        <time>2021-03-20T17:10:19Z</time>
      </trkpt>
      <trkpt lat="49.9287" lon="3.36843">
        <ele>116.26</ele>
        <time>2021-03-20T17:10:27Z</time>
      </trkpt>
      <trkpt lat="49.92908" lon="3.36808">
        <ele>118.69</ele>
        <time>2021-03-20T17:10:35Z</time>
      </trkpt>
      <trkpt lat="49.93001" lon="3.36689">
        <ele>122.77</ele>
        <time>2021-03-20T17:10:43Z</time>
      </trkpt>
      <trkpt lat="49.93132" lon="3.36519">
        <ele>118.65</ele>
        <time>2021-03-20T17:10:51Z</time>
      </trkpt>
      <trkpt lat="49.93178" lon="3.36446">
        <ele>116.63</ele>
        <time>2021-03-20T17:10:59Z</time>
      </trkpt>
      <trkpt lat="49.93208" lon="3.36419">
        <ele>115.57</ele>
        <time>2021-03-20T17:11:07Z</time>
      </trkpt>
      <trkpt lat="49.93232" lon="3.36405">
        <ele>114.41</ele>
        <time>2021-03-20T17:11:14Z</time>
      </trkpt>
      <trkpt lat="49.93337" lon="3.36366">
        <ele>109.18</ele>
        <time>2021-03-20T17:11:22Z</time>
      </trkpt>
      <trkpt lat="49.9357" lon="3.36289">
        <ele>107.12</ele>
        <time>2021-03-20T17:11:30Z</time>
      </trkpt>
      <trkpt lat="49.93616" lon="3.36279">
        <ele>109.43</ele>
        <time>2021-03-20T17:11:38Z</time>
      </trkpt>
      <trkpt lat="49.93658" lon="3.3628">
        <ele>112.55</ele>
        <time>2021-03-20T17:11:46Z</time>
      </trkpt>
      <trkpt lat="49.93764" lon="3.36298">
        <ele>119.24</ele>
        <time>2021-03-20T17:11:54Z</time>
      </trkpt>
      <trkpt lat="49.93809" lon="3.36303">
        <ele>120.14</ele>
        <time>2021-03-20T17:12:02Z</time>
      </trkpt>
      <trkpt lat="49.93841" lon="3.36301">
        <ele>122.16</ele>
        <time>2021-03-20T17:12:10Z</time>
      </trkpt>
      <trkpt lat="49.93879" lon="3.36291">
        <ele>123.96</ele>
        <time>2021-03-20T17:12:18Z</time>
      </trkpt>
      <trkpt lat="49.94027" lon="3.36233">
        <ele>128.76</ele>
        <time>2021-03-20T17:12:26Z</time>
      </trkpt>
      <trkpt lat="49.94137" lon="3.36202">
        <ele>126.86</ele>
        <time>2021-03-20T17:12:34Z</time>
      </trkpt>
      <trkpt lat="49.94234" lon="3.36179">
        <ele>128.17</ele>
        <time>2021-03-20T17:12:42Z</time>
      </trkpt>
      <trkpt lat="49.94305" lon="3.36166">
        <ele>127.95</ele>
        <time>2021-03-20T17:12:50Z</time>
      </trkpt>
      <trkpt lat="49.94422" lon="3.36134">
        <ele>131.01</ele>
        <time>2021-03-20T17:12:57Z</time>
      </trkpt>
      <trkpt lat="49.94467" lon="3.36105">
        <ele>132.22</ele>
        <time>2021-03-20T17:13:05Z</time>
      </trkpt>
      <trkpt lat="49.9456" lon="3.36017">
        <ele>137.73</ele>
        <time>2021-03-20T17:13:13Z</time>
      </trkpt>
      <trkpt lat="49.94604" lon="3.3598">
        <ele>140.54</ele>
        <time>2021-03-20T17:13:21Z</time>
      </trkpt>
      <trkpt lat="49.94647" lon="3.35949">
        <ele>140.29</ele>
        <time>2021-03-20T17:13:29Z</time>
      </trkpt>
      <trkpt lat="49.94704" lon="3.35922">
        <ele>138.31</ele>
        <time>2021-03-20T17:13:37Z</time>
      </trkpt>
      <trkpt lat="49.94792" lon="3.35887">
        <ele>138.03</ele>
        <time>2021-03-20T17:13:45Z</time>
      </trkpt>
      <trkpt lat="49.94831" lon="3.35847">
        <ele>139.44</ele>
        <time>2021-03-20T17:13:53Z</time>
      </trkpt>
      <trkpt lat="49.94896" lon="3.35787">
        <ele>136.32</ele>
        <time>2021-03-20T17:14:01Z</time>
      </trkpt>
      <trkpt lat="49.94928" lon="3.35766">
        <ele>135.41</ele>
        <time>2021-03-20T17:14:09Z</time>
      </trkpt>
      <trkpt lat="49.94968" lon="3.35753">
        <ele>134.12</ele>
        <time>2021-03-20T17:14:17Z</time>
      </trkpt>
      <trkpt lat="49.95168" lon="3.3573">
        <ele>133.31</ele>
        <time>2021-03-20T17:14:25Z</time>
      </trkpt>
      <trkpt lat="49.95361" lon="3.35698">
        <ele>137.08</ele>
        <time>2021-03-20T17:14:33Z</time>
      </trkpt>
      <trkpt lat="49.9542" lon="3.35669">
        <ele>133.41</ele>
        <time>2021-03-20T17:14:40Z</time>
      </trkpt>
      <trkpt lat="49.95498" lon="3.35618">
        <ele>134.86</ele>
        <time>2021-03-20T17:14:48Z</time>
      </trkpt>
      <trkpt lat="49.95553" lon="3.3558">
        <ele>135.79</ele>
        <time>2021-03-20T17:14:56Z</time>
      </trkpt>
      <trkpt lat="49.95614" lon="3.35547">
        <ele>135.96</ele>
        <time>2021-03-20T17:15:04Z</time>
      </trkpt>
      <trkpt lat="49.95674" lon="3.35546">
        <ele>136</ele>
        <time>2021-03-20T17:15:12Z</time>
      </trkpt>
      <trkpt lat="49.95953" lon="3.3557">
        <ele>138.8</ele>
        <time>2021-03-20T17:15:20Z</time>
      </trkpt>
      <trkpt lat="49.96002" lon="3.35569">
        <ele>139.41</ele>
        <time>2021-03-20T17:15:28Z</time>
      </trkpt>
      <trkpt lat="49.96214" lon="3.35517">
        <ele>134.93</ele>
        <time>2021-03-20T17:15:36Z</time>
      </trkpt>
      <trkpt lat="49.96392" lon="3.35478">
        <ele>131.2</ele>
        <time>2021-03-20T17:15:44Z</time>
      </trkpt>
      <trkpt lat="49.96446" lon="3.35484">
        <ele>130.33</ele>
        <time>2021-03-20T17:15:52Z</time>
      </trkpt>
      <trkpt lat="49.96472" lon="3.35483">
        <ele>128.39</ele>
        <time>2021-03-20T17:16:00Z</time>
      </trkpt>
      <trkpt lat="49.96531" lon="3.35441">
        <ele>130</ele>
        <time>2021-03-20T17:16:08Z</time>
      </trkpt>
      <trkpt lat="49.96572" lon="3.35408">
        <ele>131.31</ele>
        <time>2021-03-20T17:16:16Z</time>
      </trkpt>
      <trkpt lat="49.96603" lon="3.35367">
        <ele>132.93</ele>
        <time>2021-03-20T17:16:24Z</time>
      </trkpt>
      <trkpt lat="49.96649" lon="3.35293">
        <ele>136.66</ele>
        <time>2021-03-20T17:16:31Z</time>
      </trkpt>
      <trkpt lat="49.96685" lon="3.35242">
        <ele>139.4</ele>
        <time>2021-03-20T17:16:39Z</time>
      </trkpt>
      <trkpt lat="49.96707" lon="3.3522">
        <ele>140.44</ele>
        <time>2021-03-20T17:16:47Z</time>
      </trkpt>
      <trkpt lat="49.96741" lon="3.35196">
        <ele>141</ele>
        <time>2021-03-20T17:16:55Z</time>
      </trkpt>
      <trkpt lat="49.96766" lon="3.35185">
        <ele>141.19</ele>
        <time>2021-03-20T17:17:03Z</time>
      </trkpt>
      <trkpt lat="49.96787" lon="3.35183">
        <ele>141.96</ele>
        <time>2021-03-20T17:17:11Z</time>
      </trkpt>
      <trkpt lat="49.9681" lon="3.35193">
        <ele>142.84</ele>
        <time>2021-03-20T17:17:19Z</time>
      </trkpt>
      <trkpt lat="49.96836" lon="3.35214">
        <ele>141.78</ele>
        <time>2021-03-20T17:17:27Z</time>
      </trkpt>
      <trkpt lat="49.9687" lon="3.35249">
        <ele>139.67</ele>
        <time>2021-03-20T17:17:35Z</time>
      </trkpt>
      <trkpt lat="49.96927" lon="3.3533">
        <ele>136.73</ele>
        <time>2021-03-20T17:17:43Z</time>
      </trkpt>
      <trkpt lat="49.96968" lon="3.35385">
        <ele>137.85</ele>
        <time>2021-03-20T17:17:51Z</time>
      </trkpt>
      <trkpt lat="49.97044" lon="3.35448">
        <ele>138.72</ele>
        <time>2021-03-20T17:17:59Z</time>
      </trkpt>
      <trkpt lat="49.9715" lon="3.35487">
        <ele>143.41</ele>
        <time>2021-03-20T17:18:07Z</time>
      </trkpt>
      <trkpt lat="49.97173" lon="3.35492">
        <ele>143.83</ele>
        <time>2021-03-20T17:18:14Z</time>
      </trkpt>
      <trkpt lat="49.97294" lon="3.35487">
        <ele>139.2</ele>
        <time>2021-03-20T17:18:22Z</time>
      </trkpt>
      <trkpt lat="49.97474" lon="3.35519">
        <ele>133.94</ele>
        <time>2021-03-20T17:18:30Z</time>
      </trkpt>
      <trkpt lat="49.97535" lon="3.3552">
        <ele>132.78</ele>
        <time>2021-03-20T17:18:38Z</time>
      </trkpt>
      <trkpt lat="49.9757" lon="3.35514">
        <ele>133.27</ele>
        <time>2021-03-20T17:18:46Z</time>
      </trkpt>
      <trkpt lat="49.97625" lon="3.35499">
        <ele>134.98</ele>
        <time>2021-03-20T17:18:54Z</time>
      </trkpt>
      <trkpt lat="49.97651" lon="3.35495">
        <ele>134.42</ele>
        <time>2021-03-20T17:19:02Z</time>
      </trkpt>
      <trkpt lat="49.97717" lon="3.35492">
        <ele>131.71</ele>
        <time>2021-03-20T17:19:10Z</time>
      </trkpt>
      <trkpt lat="49.97772" lon="3.35492">
        <ele>131.14</ele>
        <time>2021-03-20T17:19:18Z</time>
      </trkpt>
      <trkpt lat="49.97902" lon="3.35525">
        <ele>129</ele>
        <time>2021-03-20T17:19:26Z</time>
      </trkpt>
      <trkpt lat="49.97933" lon="3.35529">
        <ele>129.01</ele>
        <time>2021-03-20T17:19:34Z</time>
      </trkpt>
      <trkpt lat="49.98016" lon="3.35525">
        <ele>128.42</ele>
        <time>2021-03-20T17:19:42Z</time>
      </trkpt>
      <trkpt lat="49.98048" lon="3.35515">
        <ele>128.33</ele>
        <time>2021-03-20T17:19:50Z</time>
      </trkpt>
      <trkpt lat="49.98086" lon="3.35491">
        <ele>129.23</ele>
        <time>2021-03-20T17:19:57Z</time>
      </trkpt>
      <trkpt lat="49.98129" lon="3.35451">
        <ele>128.37</ele>
        <time>2021-03-20T17:20:05Z</time>
      </trkpt>
      <trkpt lat="49.98221" lon="3.35371">
        <ele>127.64</ele>
        <time>2021-03-20T17:20:13Z</time>
      </trkpt>
      <trkpt lat="49.98257" lon="3.35348">
        <ele>128.35</ele>
        <time>2021-03-20T17:20:21Z</time>
      </trkpt>
      <trkpt lat="49.9843" lon="3.35275">
        <ele>125.25</ele>
        <time>2021-03-20T17:20:29Z</time>
      </trkpt>
      <trkpt lat="49.9862" lon="3.35199">
        <ele>125.76</ele>
        <time>2021-03-20T17:20:37Z</time>
      </trkpt>
      <trkpt lat="49.98719" lon="3.35173">
        <ele>125.87</ele>
        <time>2021-03-20T17:20:45Z</time>
      </trkpt>
      <trkpt lat="49.98814" lon="3.35167">
        <ele>125.68</ele>
        <time>2021-03-20T17:20:53Z</time>
      </trkpt>
      <trkpt lat="49.99411" lon="3.35252">
        <ele>133.78</ele>
        <time>2021-03-20T17:21:01Z</time>
      </trkpt>
      <trkpt lat="50.00408" lon="3.35435">
        <ele>120.95</ele>
        <time>2021-03-20T17:21:09Z</time>
      </trkpt>
      <trkpt lat="50.00851" lon="3.36057">
        <ele>124.29</ele>
        <time>2021-03-20T17:21:25Z</time>
      </trkpt>
      <trkpt lat="50.01703" lon="3.37267">
        <ele>125.15</ele>
        <time>2021-03-20T17:21:40Z</time>
      </trkpt>
      <trkpt lat="50.0175" lon="3.37325">
        <ele>121</ele>
        <time>2021-03-20T17:21:56Z</time>
      </trkpt>
      <trkpt lat="50.01816" lon="3.37413">
        <ele>123.39</ele>
        <time>2021-03-20T17:22:12Z</time>
      </trkpt>
      <trkpt lat="50.01988" lon="3.37651">
        <ele>129.84</ele>
        <time>2021-03-20T17:22:27Z</time>
      </trkpt>
      <trkpt lat="50.02156" lon="3.3789">
        <ele>138.58</ele>
        <time>2021-03-20T17:22:43Z</time>
      </trkpt>
      <trkpt lat="50.02177" lon="3.37932">
        <ele>137.26</ele>
        <time>2021-03-20T17:22:59Z</time>
      </trkpt>
      <trkpt lat="50.02175" lon="3.37946">
        <ele>136.6</ele>
        <time>2021-03-20T17:23:10Z</time>
      </trkpt>
      <trkpt lat="50.02178" lon="3.3796">
        <ele>135.73</ele>
        <time>2021-03-20T17:23:20Z</time>
      </trkpt>
      <trkpt lat="50.02181" lon="3.37967">
        <ele>135.26</ele>
        <time>2021-03-20T17:23:31Z</time>
      </trkpt>
      <trkpt lat="50.02188" lon="3.37973">
        <ele>134.93</ele>
        <time>2021-03-20T17:23:42Z</time>
      </trkpt>
      <trkpt lat="50.02199" lon="3.37974">
        <ele>135.39</ele>
        <time>2021-03-20T17:23:53Z</time>
      </trkpt>
      <trkpt lat="50.02203" lon="3.37972">
        <ele>135.88</ele>
        <time>2021-03-20T17:24:04Z</time>
      </trkpt>
      <trkpt lat="50.02231" lon="3.37998">
        <ele>138.4</ele>
        <time>2021-03-20T17:24:15Z</time>
      </trkpt>
      <trkpt lat="50.02562" lon="3.38459">
        <ele>136.21</ele>
        <time>2021-03-20T17:24:25Z</time>
      </trkpt>
      <trkpt lat="50.02908" lon="3.38935">
        <ele>129.24</ele>
        <time>2021-03-20T17:24:36Z</time>
      </trkpt>
      <trkpt lat="50.02937" lon="3.38978">
        <ele>129.68</ele>
        <time>2021-03-20T17:24:47Z</time>
      </trkpt>
      <trkpt lat="50.03108" lon="3.39264">
        <ele>135.22</ele>
        <time>2021-03-20T17:24:58Z</time>
      </trkpt>
      <trkpt lat="50.03419" lon="3.39794">
        <ele>144.09</ele>
        <time>2021-03-20T17:25:09Z</time>
      </trkpt>
      <trkpt lat="50.03498" lon="3.39933">
        <ele>141.8</ele>
        <time>2021-03-20T17:25:20Z</time>
      </trkpt>
      <trkpt lat="50.03727" lon="3.4031">
        <ele>134.3</ele>
        <time>2021-03-20T17:25:30Z</time>
      </trkpt>
      <trkpt lat="50.03949" lon="3.40687">
        <ele>133.17</ele>
        <time>2021-03-20T17:25:41Z</time>
      </trkpt>
      <trkpt lat="50.0412" lon="3.40979">
        <ele>137.17</ele>
        <time>2021-03-20T17:25:52Z</time>
      </trkpt>
      <trkpt lat="50.04372" lon="3.41419">
        <ele>127.45</ele>
        <time>2021-03-20T17:26:03Z</time>
      </trkpt>
      <trkpt lat="50.0438" lon="3.41437">
        <ele>127.91</ele>
        <time>2021-03-20T17:26:14Z</time>
      </trkpt>
      <trkpt lat="50.04586" lon="3.41796">
        <ele>141.18</ele>
        <time>2021-03-20T17:26:25Z</time>
      </trkpt>
      <trkpt lat="50.05114" lon="3.42697">
        <ele>147.07</ele>
        <time>2021-03-20T17:26:35Z</time>
      </trkpt>
      <trkpt lat="50.05168" lon="3.42784">
        <ele>144</ele>
        <time>2021-03-20T17:26:46Z</time>
      </trkpt>
      <trkpt lat="50.05572" lon="3.43475">
        <ele>145.48</ele>
        <time>2021-03-20T17:26:57Z</time>
      </trkpt>
      <trkpt lat="50.05897" lon="3.44026">
        <ele>141</ele>
        <time>2021-03-20T17:27:08Z</time>
      </trkpt>
      <trkpt lat="50.06067" lon="3.44309">
        <ele>138.57</ele>
        <time>2021-03-20T17:27:19Z</time>
      </trkpt>
      <trkpt lat="50.06083" lon="3.44341">
        <ele>140.73</ele>
        <time>2021-03-20T17:27:30Z</time>
      </trkpt>
      <trkpt lat="50.06081" lon="3.44357">
        <ele>140.07</ele>
        <time>2021-03-20T17:27:40Z</time>
      </trkpt>
      <trkpt lat="50.06083" lon="3.44365">
        <ele>139.85</ele>
        <time>2021-03-20T17:27:51Z</time>
      </trkpt>
      <trkpt lat="50.06086" lon="3.44371">
        <ele>140.03</ele>
        <time>2021-03-20T17:28:01Z</time>
      </trkpt>
      <trkpt lat="50.06091" lon="3.44376">
        <ele>140.51</ele>
        <time>2021-03-20T17:28:12Z</time>
      </trkpt>
      <trkpt lat="50.06096" lon="3.44377">
        <ele>141.19</ele>
        <time>2021-03-20T17:28:22Z</time>
      </trkpt>
      <trkpt lat="50.06101" lon="3.44376">
        <ele>141.98</ele>
        <time>2021-03-20T17:28:33Z</time>
      </trkpt>
      <trkpt lat="50.06117" lon="3.44402">
        <ele>143.55</ele>
        <time>2021-03-20T17:28:43Z</time>
      </trkpt>
      <trkpt lat="50.06399" lon="3.44885">
        <ele>150.83</ele>
        <time>2021-03-20T17:28:54Z</time>
      </trkpt>
      <trkpt lat="50.06883" lon="3.4569">
        <ele>141</ele>
        <time>2021-03-20T17:29:04Z</time>
      </trkpt>
      <trkpt lat="50.07241" lon="3.46296">
        <ele>133.32</ele>
        <time>2021-03-20T17:29:15Z</time>
      </trkpt>
      <trkpt lat="50.07256" lon="3.46316">
        <ele>132.28</ele>
        <time>2021-03-20T17:29:25Z</time>
      </trkpt>
      <trkpt lat="50.07344" lon="3.46377">
        <ele>128.26</ele>
        <time>2021-03-20T17:29:36Z</time>
      </trkpt>
      <trkpt lat="50.07364" lon="3.46398">
        <ele>127.11</ele>
        <time>2021-03-20T17:29:46Z</time>
      </trkpt>
      <trkpt lat="50.07381" lon="3.46422">
        <ele>127.7</ele>
        <time>2021-03-20T17:29:57Z</time>
      </trkpt>
      <trkpt lat="50.07415" lon="3.46492">
        <ele>128.71</ele>
        <time>2021-03-20T17:30:07Z</time>
      </trkpt>
      <trkpt lat="50.07495" lon="3.46673">
        <ele>129.83</ele>
        <time>2021-03-20T17:30:18Z</time>
      </trkpt>
      <trkpt lat="50.07543" lon="3.46761">
        <ele>130.36</ele>
        <time>2021-03-20T17:30:28Z</time>
      </trkpt>
      <trkpt lat="50.07604" lon="3.46905">
        <ele>130.74</ele>
        <time>2021-03-20T17:30:39Z</time>
      </trkpt>
      <trkpt lat="50.07629" lon="3.46955">
        <ele>130.41</ele>
        <time>2021-03-20T17:30:49Z</time>
      </trkpt>
      <trkpt lat="50.07899" lon="3.47407">
        <ele>127.08</ele>
        <time>2021-03-20T17:31:00Z</time>
      </trkpt>
      <trkpt lat="50.08233" lon="3.47974">
        <ele>135</ele>
        <time>2021-03-20T17:31:10Z</time>
      </trkpt>
      <trkpt lat="50.08294" lon="3.48062">
        <ele>136</ele>
        <time>2021-03-20T17:31:21Z</time>
      </trkpt>
      <trkpt lat="50.08518" lon="3.4845">
        <ele>144</ele>
        <time>2021-03-20T17:31:31Z</time>
      </trkpt>
      <trkpt lat="50.08736" lon="3.48803">
        <ele>135.48</ele>
        <time>2021-03-20T17:31:42Z</time>
      </trkpt>
      <trkpt lat="50.08976" lon="3.49212">
        <ele>140.42</ele>
        <time>2021-03-20T17:31:53Z</time>
      </trkpt>
      <trkpt lat="50.09135" lon="3.49473">
        <ele>138.86</ele>
        <time>2021-03-20T17:32:03Z</time>
      </trkpt>
      <trkpt lat="50.0952" lon="3.5013">
        <ele>135.76</ele>
        <time>2021-03-20T17:32:14Z</time>
      </trkpt>
      <trkpt lat="50.09718" lon="3.50458">
        <ele>136.72</ele>
        <time>2021-03-20T17:32:24Z</time>
      </trkpt>
      <trkpt lat="50.10344" lon="3.51521">
        <ele>128.39</ele>
        <time>2021-03-20T17:32:35Z</time>
      </trkpt>
      <trkpt lat="50.10616" lon="3.5197">
        <ele>129.83</ele>
        <time>2021-03-20T17:32:45Z</time>
      </trkpt>
      <trkpt lat="50.10764" lon="3.52224">
        <ele>121.51</ele>
        <time>2021-03-20T17:32:56Z</time>
      </trkpt>
      <trkpt lat="50.10767" lon="3.52236">
        <ele>121.61</ele>
        <time>2021-03-20T17:33:06Z</time>
      </trkpt>
      <trkpt lat="50.10779" lon="3.52271">
        <ele>122.04</ele>
        <time>2021-03-20T17:33:17Z</time>
      </trkpt>
      <trkpt lat="50.10778" lon="3.52282">
        <ele>122</ele>
        <time>2021-03-20T17:33:20Z</time>
      </trkpt>
      <trkpt lat="50.10779" lon="3.52292">
        <ele>122.04</ele>
        <time>2021-03-20T17:33:23Z</time>
      </trkpt>
      <trkpt lat="50.10782" lon="3.52301">
        <ele>122.14</ele>
        <time>2021-03-20T17:33:27Z</time>
      </trkpt>
      <trkpt lat="50.10787" lon="3.52309">
        <ele>122.31</ele>
        <time>2021-03-20T17:33:30Z</time>
      </trkpt>
      <trkpt lat="50.10793" lon="3.52313">
        <ele>122.56</ele>
        <time>2021-03-20T17:33:34Z</time>
      </trkpt>
      <trkpt lat="50.10804" lon="3.52313">
        <ele>122.93</ele>
        <time>2021-03-20T17:33:37Z</time>
      </trkpt>
      <trkpt lat="50.10814" lon="3.52322">
        <ele>122.6</ele>
        <time>2021-03-20T17:33:40Z</time>
      </trkpt>
      <trkpt lat="50.10838" lon="3.52362">
        <ele>122.74</ele>
        <time>2021-03-20T17:33:44Z</time>
      </trkpt>
      <trkpt lat="50.1096" lon="3.52545">
        <ele>125.07</ele>
        <time>2021-03-20T17:33:47Z</time>
      </trkpt>
      <trkpt lat="50.1103" lon="3.52661">
        <ele>130.55</ele>
        <time>2021-03-20T17:33:50Z</time>
      </trkpt>
      <trkpt lat="50.11118" lon="3.52821">
        <ele>131.14</ele>
        <time>2021-03-20T17:33:54Z</time>
      </trkpt>
      <trkpt lat="50.11362" lon="3.53227">
        <ele>123</ele>
        <time>2021-03-20T17:33:57Z</time>
      </trkpt>
      <trkpt lat="50.11432" lon="3.53354">
        <ele>118.86</ele>
        <time>2021-03-20T17:34:01Z</time>
      </trkpt>
      <trkpt lat="50.11442" lon="3.53373">
        <ele>118.2</ele>
        <time>2021-03-20T17:34:04Z</time>
      </trkpt>
      <trkpt lat="50.11448" lon="3.53393">
        <ele>117.86</ele>
        <time>2021-03-20T17:34:07Z</time>
      </trkpt>
      <trkpt lat="50.11447" lon="3.53409">
        <ele>118.53</ele>
        <time>2021-03-20T17:34:17Z</time>
      </trkpt>
      <trkpt lat="50.11453" lon="3.53424">
        <ele>118.72</ele>
        <time>2021-03-20T17:34:26Z</time>
      </trkpt>
      <trkpt lat="50.1146" lon="3.53429">
        <ele>118.54</ele>
        <time>2021-03-20T17:34:35Z</time>
      </trkpt>
      <trkpt lat="50.11468" lon="3.53427">
        <ele>118.02</ele>
        <time>2021-03-20T17:34:44Z</time>
      </trkpt>
      <trkpt lat="50.11474" lon="3.53429">
        <ele>117.72</ele>
        <time>2021-03-20T17:34:54Z</time>
      </trkpt>
      <trkpt lat="50.11484" lon="3.53437">
        <ele>117.57</ele>
        <time>2021-03-20T17:35:03Z</time>
      </trkpt>
      <trkpt lat="50.115" lon="3.53453">
        <ele>117.32</ele>
        <time>2021-03-20T17:35:12Z</time>
      </trkpt>
      <trkpt lat="50.11566" lon="3.53542">
        <ele>114.25</ele>
        <time>2021-03-20T17:35:22Z</time>
      </trkpt>
      <trkpt lat="50.11597" lon="3.53592">
        <ele>112.88</ele>
        <time>2021-03-20T17:35:31Z</time>
      </trkpt>
      <trkpt lat="50.11632" lon="3.53668">
        <ele>108.47</ele>
        <time>2021-03-20T17:35:40Z</time>
      </trkpt>
      <trkpt lat="50.11656" lon="3.53723">
        <ele>107.98</ele>
        <time>2021-03-20T17:35:49Z</time>
      </trkpt>
      <trkpt lat="50.11683" lon="3.53764">
        <ele>104.27</ele>
        <time>2021-03-20T17:35:59Z</time>
      </trkpt>
      <trkpt lat="50.11766" lon="3.53867">
        <ele>95.61</ele>
        <time>2021-03-20T17:36:08Z</time>
      </trkpt>
      <trkpt lat="50.11876" lon="3.53991">
        <ele>86.81</ele>
        <time>2021-03-20T17:36:17Z</time>
      </trkpt>
      <trkpt lat="50.11908" lon="3.5404">
        <ele>85.75</ele>
        <time>2021-03-20T17:36:26Z</time>
      </trkpt>
      <trkpt lat="50.11972" lon="3.5416">
        <ele>83.01</ele>
        <time>2021-03-20T17:36:36Z</time>
      </trkpt>
      <trkpt lat="50.11986" lon="3.54184">
        <ele>83</ele>
        <time>2021-03-20T17:36:45Z</time>
      </trkpt>
      <trkpt lat="50.11998" lon="3.54198">
        <ele>83.12</ele>
        <time>2021-03-20T17:36:54Z</time>
      </trkpt>
      <trkpt lat="50.12018" lon="3.54215">
        <ele>83.91</ele>
        <time>2021-03-20T17:37:04Z</time>
      </trkpt>
      <trkpt lat="50.12061" lon="3.54236">
        <ele>84.28</ele>
        <time>2021-03-20T17:37:13Z</time>
      </trkpt>
      <trkpt lat="50.12085" lon="3.54237">
        <ele>85.65</ele>
        <time>2021-03-20T17:37:22Z</time>
      </trkpt>
      <trkpt lat="50.12092" lon="3.54241">
        <ele>86.32</ele>
        <time>2021-03-20T17:37:31Z</time>
      </trkpt>
      <trkpt lat="50.12104" lon="3.54253">
        <ele>87.61</ele>
        <time>2021-03-20T17:37:41Z</time>
      </trkpt>
      <trkpt lat="50.12148" lon="3.54367">
        <ele>96.96</ele>
        <time>2021-03-20T17:37:50Z</time>
      </trkpt>
      <trkpt lat="50.12164" lon="3.54399">
        <ele>99.25</ele>
        <time>2021-03-20T17:37:59Z</time>
      </trkpt>
      <trkpt lat="50.123" lon="3.54609">
        <ele>112.62</ele>
        <time>2021-03-20T17:38:08Z</time>
      </trkpt>
      <trkpt lat="50.13447" lon="3.56236">
        <ele>139.39</ele>
        <time>2021-03-20T17:38:18Z</time>
      </trkpt>
      <trkpt lat="50.1346" lon="3.5626">
        <ele>139.8</ele>
        <time>2021-03-20T17:38:27Z</time>
      </trkpt>
      <trkpt lat="50.13475" lon="3.56281">
        <ele>140.12</ele>
        <time>2021-03-20T17:38:36Z</time>
      </trkpt>
      <trkpt lat="50.13486" lon="3.56291">
        <ele>140.47</ele>
        <time>2021-03-20T17:38:46Z</time>
      </trkpt>
      <trkpt lat="50.13653" lon="3.56525">
        <ele>139.51</ele>
        <time>2021-03-20T17:38:55Z</time>
      </trkpt>
      <trkpt lat="50.13828" lon="3.56777">
        <ele>135.82</ele>
        <time>2021-03-20T17:39:04Z</time>
      </trkpt>
      <trkpt lat="50.13941" lon="3.56935">
        <ele>139.23</ele>
        <time>2021-03-20T17:39:13Z</time>
      </trkpt>
      <trkpt lat="50.14076" lon="3.57131">
        <ele>144</ele>
        <time>2021-03-20T17:39:23Z</time>
      </trkpt>
      <trkpt lat="50.14271" lon="3.57405">
        <ele>140.75</ele>
        <time>2021-03-20T17:39:32Z</time>
      </trkpt>
      <trkpt lat="50.14327" lon="3.57482">
        <ele>140.58</ele>
        <time>2021-03-20T17:39:41Z</time>
      </trkpt>
      <trkpt lat="50.14595" lon="3.57863">
        <ele>136.19</ele>
        <time>2021-03-20T17:39:50Z</time>
      </trkpt>
      <trkpt lat="50.14667" lon="3.57953">
        <ele>135</ele>
        <time>2021-03-20T17:40:00Z</time>
      </trkpt>
      <trkpt lat="50.14997" lon="3.58409">
        <ele>142.12</ele>
        <time>2021-03-20T17:40:09Z</time>
      </trkpt>
      <trkpt lat="50.15103" lon="3.58566">
        <ele>142.28</ele>
        <time>2021-03-20T17:40:18Z</time>
      </trkpt>
      <trkpt lat="50.15218" lon="3.58729">
        <ele>139</ele>
        <time>2021-03-20T17:40:28Z</time>
      </trkpt>
      <trkpt lat="50.15344" lon="3.58901">
        <ele>139</ele>
        <time>2021-03-20T17:40:37Z</time>
      </trkpt>
      <trkpt lat="50.1542" lon="3.59013">
        <ele>139.87</ele>
        <time>2021-03-20T17:40:46Z</time>
      </trkpt>
      <trkpt lat="50.15473" lon="3.59076">
        <ele>138.99</ele>
        <time>2021-03-20T17:40:55Z</time>
      </trkpt>
      <trkpt lat="50.15521" lon="3.59141">
        <ele>135.16</ele>
        <time>2021-03-20T17:41:05Z</time>
      </trkpt>
      <trkpt lat="50.15893" lon="3.59648">
        <ele>140.19</ele>
        <time>2021-03-20T17:41:14Z</time>
      </trkpt>
      <trkpt lat="50.16052" lon="3.59861">
        <ele>136.14</ele>
        <time>2021-03-20T17:41:23Z</time>
      </trkpt>
      <trkpt lat="50.16119" lon="3.59947">
        <ele>132.73</ele>
        <time>2021-03-20T17:41:32Z</time>
      </trkpt>
      <trkpt lat="50.16862" lon="3.61">
        <ele>140.03</ele>
        <time>2021-03-20T17:41:42Z</time>
      </trkpt>
      <trkpt lat="50.17274" lon="3.61569">
        <ele>144.07</ele>
        <time>2021-03-20T17:41:51Z</time>
      </trkpt>
      <trkpt lat="50.17803" lon="3.62318">
        <ele>134.57</ele>
        <time>2021-03-20T17:42:00Z</time>
      </trkpt>
      <trkpt lat="50.18282" lon="3.62991">
        <ele>145.66</ele>
        <time>2021-03-20T17:42:10Z</time>
      </trkpt>
      <trkpt lat="50.1846" lon="3.63248">
        <ele>144.55</ele>
        <time>2021-03-20T17:42:19Z</time>
      </trkpt>
      <trkpt lat="50.18749" lon="3.63648">
        <ele>140.36</ele>
        <time>2021-03-20T17:42:28Z</time>
      </trkpt>
      <trkpt lat="50.1889" lon="3.63851">
        <ele>138.29</ele>
        <time>2021-03-20T17:42:37Z</time>
      </trkpt>
      <trkpt lat="50.18894" lon="3.63863">
        <ele>137.73</ele>
        <time>2021-03-20T17:42:47Z</time>
      </trkpt>
      <trkpt lat="50.18895" lon="3.63873">
        <ele>137.36</ele>
        <time>2021-03-20T17:42:56Z</time>
      </trkpt>
      <trkpt lat="50.18892" lon="3.63886">
        <ele>136.99</ele>
        <time>2021-03-20T17:42:58Z</time>
      </trkpt>
      <trkpt lat="50.18895" lon="3.63895">
        <ele>136.79</ele>
        <time>2021-03-20T17:43:00Z</time>
      </trkpt>
      <trkpt lat="50.18899" lon="3.63899">
        <ele>136.65</ele>
        <time>2021-03-20T17:43:02Z</time>
      </trkpt>
      <trkpt lat="50.18903" lon="3.63901">
        <ele>136.49</ele>
        <time>2021-03-20T17:43:04Z</time>
      </trkpt>
      <trkpt lat="50.18909" lon="3.63899">
        <ele>136.29</ele>
        <time>2021-03-20T17:43:06Z</time>
      </trkpt>
      <trkpt lat="50.18911" lon="3.63895">
        <ele>136.19</ele>
        <time>2021-03-20T17:43:08Z</time>
      </trkpt>
      <trkpt lat="50.1892" lon="3.63896">
        <ele>135.88</ele>
        <time>2021-03-20T17:43:09Z</time>
      </trkpt>
      <trkpt lat="50.18953" lon="3.63887">
        <ele>134.75</ele>
        <time>2021-03-20T17:43:11Z</time>
      </trkpt>
      <trkpt lat="50.19204" lon="3.63914">
        <ele>143.33</ele>
        <time>2021-03-20T17:43:13Z</time>
      </trkpt>
      <trkpt lat="50.1914" lon="3.64097">
        <ele>141.59</ele>
        <time>2021-03-20T17:43:21Z</time>
      </trkpt>
      <trkpt lat="50.19115" lon="3.6416">
        <ele>141.9</ele>
        <time>2021-03-20T17:43:30Z</time>
      </trkpt>
      <trkpt lat="50.19533" lon="3.64753">
        <ele>141.55</ele>
        <time>2021-03-20T17:43:40Z</time>
      </trkpt>
      <trkpt lat="50.19607" lon="3.64855">
        <ele>138.32</ele>
        <time>2021-03-20T17:43:51Z</time>
      </trkpt>
      <trkpt lat="50.20006" lon="3.6543">
        <ele>140</ele>
        <time>2021-03-20T17:44:02Z</time>
      </trkpt>
      <trkpt lat="50.20338" lon="3.65904">
        <ele>143.92</ele>
        <time>2021-03-20T17:44:13Z</time>
      </trkpt>
      <trkpt lat="50.20613" lon="3.66287">
        <ele>143.27</ele>
        <time>2021-03-20T17:44:24Z</time>
      </trkpt>
      <trkpt lat="50.2079" lon="3.66541">
        <ele>148.86</ele>
        <time>2021-03-20T17:44:35Z</time>
      </trkpt>
      <trkpt lat="50.20908" lon="3.66705">
        <ele>148.42</ele>
        <time>2021-03-20T17:44:45Z</time>
      </trkpt>
      <trkpt lat="50.20952" lon="3.66769">
        <ele>148</ele>
        <time>2021-03-20T17:44:56Z</time>
      </trkpt>
      <trkpt lat="50.21018" lon="3.66873">
        <ele>148.33</ele>
        <time>2021-03-20T17:45:07Z</time>
      </trkpt>
      <trkpt lat="50.21073" lon="3.66969">
        <ele>140.12</ele>
        <time>2021-03-20T17:45:18Z</time>
      </trkpt>
      <trkpt lat="50.21131" lon="3.67059">
        <ele>137.16</ele>
        <time>2021-03-20T17:45:29Z</time>
      </trkpt>
      <trkpt lat="50.21163" lon="3.67106">
        <ele>136.34</ele>
        <time>2021-03-20T17:45:40Z</time>
      </trkpt>
      <trkpt lat="50.21274" lon="3.67259">
        <ele>137.92</ele>
        <time>2021-03-20T17:45:50Z</time>
      </trkpt>
      <trkpt lat="50.21325" lon="3.67323">
        <ele>141.32</ele>
        <time>2021-03-20T17:46:01Z</time>
      </trkpt>
      <trkpt lat="50.21411" lon="3.67413">
        <ele>142.74</ele>
        <time>2021-03-20T17:46:12Z</time>
      </trkpt>
      <trkpt lat="50.21431" lon="3.6744">
        <ele>143.11</ele>
        <time>2021-03-20T17:46:23Z</time>
      </trkpt>
      <trkpt lat="50.21662" lon="3.67766">
        <ele>147.32</ele>
        <time>2021-03-20T17:46:34Z</time>
      </trkpt>
      <trkpt lat="50.22057" lon="3.6833">
        <ele>141.81</ele>
        <time>2021-03-20T17:46:45Z</time>
      </trkpt>
      <trkpt lat="50.22078" lon="3.68372">
        <ele>141.74</ele>
        <time>2021-03-20T17:46:55Z</time>
      </trkpt>
      <trkpt lat="50.22081" lon="3.68381">
        <ele>141.92</ele>
        <time>2021-03-20T17:47:06Z</time>
      </trkpt>
      <trkpt lat="50.22079" lon="3.68391">
        <ele>142.54</ele>
        <time>2021-03-20T17:47:16Z</time>
      </trkpt>
      <trkpt lat="50.22082" lon="3.68405">
        <ele>144.32</ele>
        <time>2021-03-20T17:47:26Z</time>
      </trkpt>
      <trkpt lat="50.22088" lon="3.68415">
        <ele>145.43</ele>
        <time>2021-03-20T17:47:35Z</time>
      </trkpt>
      <trkpt lat="50.22094" lon="3.68419">
        <ele>145.48</ele>
        <time>2021-03-20T17:47:45Z</time>
      </trkpt>
      <trkpt lat="50.22103" lon="3.68419">
        <ele>144.96</ele>
        <time>2021-03-20T17:47:55Z</time>
      </trkpt>
      <trkpt lat="50.22121" lon="3.68428">
        <ele>145.11</ele>
        <time>2021-03-20T17:48:05Z</time>
      </trkpt>
      <trkpt lat="50.22213" lon="3.68554">
        <ele>150.5</ele>
        <time>2021-03-20T17:48:14Z</time>
      </trkpt>
      <trkpt lat="50.22217" lon="3.68557">
        <ele>149.99</ele>
        <time>2021-03-20T17:48:24Z</time>
      </trkpt>
      <trkpt lat="50.22369" lon="3.68772">
        <ele>146.62</ele>
        <time>2021-03-20T17:48:34Z</time>
      </trkpt>
      <trkpt lat="50.22516" lon="3.68987">
        <ele>152.14</ele>
        <time>2021-03-20T17:48:44Z</time>
      </trkpt>
      <trkpt lat="50.22563" lon="3.6905">
        <ele>152.87</ele>
        <time>2021-03-20T17:48:53Z</time>
      </trkpt>
      <trkpt lat="50.2272" lon="3.69275">
        <ele>155.23</ele>
        <time>2021-03-20T17:49:03Z</time>
      </trkpt>
      <trkpt lat="50.22759" lon="3.69325">
        <ele>150.7</ele>
        <time>2021-03-20T17:49:13Z</time>
      </trkpt>
      <trkpt lat="50.22878" lon="3.69487">
        <ele>146.48</ele>
        <time>2021-03-20T17:49:22Z</time>
      </trkpt>
      <trkpt lat="50.23007" lon="3.69673">
        <ele>148.34</ele>
        <time>2021-03-20T17:49:32Z</time>
      </trkpt>
      <trkpt lat="50.2336" lon="3.7017">
        <ele>153.57</ele>
        <time>2021-03-20T17:49:42Z</time>
      </trkpt>
      <trkpt lat="50.23403" lon="3.70236">
        <ele>154.74</ele>
        <time>2021-03-20T17:49:52Z</time>
      </trkpt>
      <trkpt lat="50.23514" lon="3.70388">
        <ele>153.47</ele>
        <time>2021-03-20T17:50:01Z</time>
      </trkpt>
      <trkpt lat="50.23633" lon="3.70558">
        <ele>144.3</ele>
        <time>2021-03-20T17:50:11Z</time>
      </trkpt>
      <trkpt lat="50.23851" lon="3.70863">
        <ele>145.74</ele>
        <time>2021-03-20T17:50:21Z</time>
      </trkpt>
      <trkpt lat="50.24019" lon="3.71103">
        <ele>137.44</ele>
        <time>2021-03-20T17:50:31Z</time>
      </trkpt>
      <trkpt lat="50.24191" lon="3.7136">
        <ele>145.88</ele>
        <time>2021-03-20T17:50:40Z</time>
      </trkpt>
      <trkpt lat="50.24408" lon="3.71663">
        <ele>146.71</ele>
        <time>2021-03-20T17:50:50Z</time>
      </trkpt>
      <trkpt lat="50.24648" lon="3.72005">
        <ele>151.88</ele>
        <time>2021-03-20T17:51:00Z</time>
      </trkpt>
      <trkpt lat="50.24804" lon="3.72218">
        <ele>139.82</ele>
        <time>2021-03-20T17:51:09Z</time>
      </trkpt>
      <trkpt lat="50.24843" lon="3.72276">
        <ele>141.42</ele>
        <time>2021-03-20T17:51:19Z</time>
      </trkpt>
      <trkpt lat="50.2525" lon="3.72845">
        <ele>152.01</ele>
        <time>2021-03-20T17:51:29Z</time>
      </trkpt>
      <trkpt lat="50.25302" lon="3.72921">
        <ele>147.97</ele>
        <time>2021-03-20T17:51:39Z</time>
      </trkpt>
      <trkpt lat="50.25556" lon="3.73283">
        <ele>141.18</ele>
        <time>2021-03-20T17:51:48Z</time>
      </trkpt>
      <trkpt lat="50.25701" lon="3.73483">
        <ele>152.45</ele>
        <time>2021-03-20T17:51:58Z</time>
      </trkpt>
      <trkpt lat="50.265" lon="3.74631">
        <ele>155.46</ele>
        <time>2021-03-20T17:52:08Z</time>
      </trkpt>
      <trkpt lat="50.26595" lon="3.74773">
        <ele>153.73</ele>
        <time>2021-03-20T17:52:18Z</time>
      </trkpt>
      <trkpt lat="50.26866" lon="3.75149">
        <ele>148.32</ele>
        <time>2021-03-20T17:52:27Z</time>
      </trkpt>
      <trkpt lat="50.26987" lon="3.75314">
        <ele>146.72</ele>
        <time>2021-03-20T17:52:37Z</time>
      </trkpt>
      <trkpt lat="50.27228" lon="3.75659">
        <ele>151.71</ele>
        <time>2021-03-20T17:52:47Z</time>
      </trkpt>
      <trkpt lat="50.27536" lon="3.76095">
        <ele>146.71</ele>
        <time>2021-03-20T17:52:56Z</time>
      </trkpt>
      <trkpt lat="50.27709" lon="3.76332">
        <ele>145.05</ele>
        <time>2021-03-20T17:53:06Z</time>
      </trkpt>
      <trkpt lat="50.27746" lon="3.76384">
        <ele>144.72</ele>
        <time>2021-03-20T17:53:16Z</time>
      </trkpt>
      <trkpt lat="50.27824" lon="3.76496">
        <ele>143.49</ele>
        <time>2021-03-20T17:53:26Z</time>
      </trkpt>
      <trkpt lat="50.27831" lon="3.76471">
        <ele>144.08</ele>
        <time>2021-03-20T17:53:29Z</time>
      </trkpt>
      <trkpt lat="50.27842" lon="3.76441">
        <ele>143.9</ele>
        <time>2021-03-20T17:53:32Z</time>
      </trkpt>
      <trkpt lat="50.27874" lon="3.76375">
        <ele>145.06</ele>
        <time>2021-03-20T17:53:35Z</time>
      </trkpt>
      <trkpt lat="50.27935" lon="3.76228">
        <ele>144.35</ele>
        <time>2021-03-20T17:53:38Z</time>
      </trkpt>
      <trkpt lat="50.27942" lon="3.76207">
        <ele>144.55</ele>
        <time>2021-03-20T17:53:41Z</time>
      </trkpt>
      <trkpt lat="50.27992" lon="3.76031">
        <ele>146.38</ele>
        <time>2021-03-20T17:53:45Z</time>
      </trkpt>
      <trkpt lat="50.28015" lon="3.75943">
        <ele>143.95</ele>
        <time>2021-03-20T17:53:48Z</time>
      </trkpt>
      <trkpt lat="50.28033" lon="3.7587">
        <ele>142.06</ele>
        <time>2021-03-20T17:53:51Z</time>
      </trkpt>
      <trkpt lat="50.28045" lon="3.75831">
        <ele>142.1</ele>
        <time>2021-03-20T17:53:54Z</time>
      </trkpt>
      <trkpt lat="50.2806" lon="3.75793">
        <ele>143.44</ele>
        <time>2021-03-20T17:53:57Z</time>
      </trkpt>
      <trkpt lat="50.28071" lon="3.75772">
        <ele>144.12</ele>
        <time>2021-03-20T17:54:00Z</time>
      </trkpt>
      <trkpt lat="50.2811" lon="3.75712">
        <ele>145</ele>
        <time>2021-03-20T17:54:04Z</time>
      </trkpt>
      <trkpt lat="50.28122" lon="3.75686">
        <ele>144.6</ele>
        <time>2021-03-20T17:54:07Z</time>
      </trkpt>
      <trkpt lat="50.28126" lon="3.75674">
        <ele>144.48</ele>
        <time>2021-03-20T17:54:10Z</time>
      </trkpt>
      <trkpt lat="50.28131" lon="3.75635">
        <ele>143.96</ele>
        <time>2021-03-20T17:54:13Z</time>
      </trkpt>
      <trkpt lat="50.28132" lon="3.75599">
        <ele>143.75</ele>
        <time>2021-03-20T17:54:16Z</time>
      </trkpt>
      <trkpt lat="50.28306" lon="3.75574">
        <ele>147</ele>
        <time>2021-03-20T17:54:21Z</time>
      </trkpt>
      <trkpt lat="50.28368" lon="3.75568">
        <ele>143.48</ele>
        <time>2021-03-20T17:54:26Z</time>
      </trkpt>
      <trkpt lat="50.28401" lon="3.75576">
        <ele>141.57</ele>
        <time>2021-03-20T17:54:31Z</time>
      </trkpt>
      <trkpt lat="50.28479" lon="3.75616">
        <ele>141.25</ele>
        <time>2021-03-20T17:54:36Z</time>
      </trkpt>
      <trkpt lat="50.28549" lon="3.75649">
        <ele>140.65</ele>
        <time>2021-03-20T17:54:40Z</time>
      </trkpt>
      <trkpt lat="50.28558" lon="3.75651">
        <ele>140.68</ele>
        <time>2021-03-20T17:54:45Z</time>
      </trkpt>
      <trkpt lat="50.28566" lon="3.75651">
        <ele>141.11</ele>
        <time>2021-03-20T17:54:50Z</time>
      </trkpt>
      <trkpt lat="50.28612" lon="3.75641">
        <ele>143.09</ele>
        <time>2021-03-20T17:54:55Z</time>
      </trkpt>
      <trkpt lat="50.28622" lon="3.75641">
        <ele>143.08</ele>
        <time>2021-03-20T17:55:00Z</time>
      </trkpt>
      <trkpt lat="50.28674" lon="3.75668">
        <ele>142.69</ele>
        <time>2021-03-20T17:55:04Z</time>
      </trkpt>
      <trkpt lat="50.2868" lon="3.75668">
        <ele>142.5</ele>
        <time>2021-03-20T17:55:09Z</time>
      </trkpt>
      <trkpt lat="50.28686" lon="3.75664">
        <ele>142.2</ele>
        <time>2021-03-20T17:55:14Z</time>
      </trkpt>
      <trkpt lat="50.28692" lon="3.75656">
        <ele>141.71</ele>
        <time>2021-03-20T17:55:19Z</time>
      </trkpt>
      <trkpt lat="50.28712" lon="3.75611">
        <ele>141</ele>
        <time>2021-03-20T17:55:24Z</time>
      </trkpt>
      <trkpt lat="50.28724" lon="3.75588">
        <ele>141.01</ele>
        <time>2021-03-20T17:55:29Z</time>
      </trkpt>
      <trkpt lat="50.2875" lon="3.75616">
        <ele>141.98</ele>
        <time>2021-03-20T17:55:31Z</time>
      </trkpt>
      <trkpt lat="50.28758" lon="3.75619">
        <ele>142</ele>
        <time>2021-03-20T17:55:33Z</time>
      </trkpt>
      <trkpt lat="50.28771" lon="3.75629">
        <ele>142</ele>
        <time>2021-03-20T17:55:35Z</time>
      </trkpt>
      <trkpt lat="50.2877" lon="3.75643">
        <ele>141.85</ele>
        <time>2021-03-20T17:55:38Z</time>
      </trkpt>
      <trkpt lat="50.28774" lon="3.75662">
        <ele>141.15</ele>
        <time>2021-03-20T17:55:41Z</time>
      </trkpt>
      <trkpt lat="50.28904" lon="3.75954">
        <ele>131.8</ele>
        <time>2021-03-20T17:55:44Z</time>
      </trkpt>
      <trkpt lat="50.28915" lon="3.75985">
        <ele>130.16</ele>
        <time>2021-03-20T17:55:47Z</time>
      </trkpt>
      <trkpt lat="50.28941" lon="3.76081">
        <ele>127.22</ele>
        <time>2021-03-20T17:55:50Z</time>
      </trkpt>
      <trkpt lat="50.28957" lon="3.76122">
        <ele>125.56</ele>
        <time>2021-03-20T17:55:53Z</time>
      </trkpt>
      <trkpt lat="50.2897" lon="3.76146">
        <ele>124.82</ele>
        <time>2021-03-20T17:55:56Z</time>
      </trkpt>
      <trkpt lat="50.28997" lon="3.7618">
        <ele>124</ele>
        <time>2021-03-20T17:55:59Z</time>
      </trkpt>
      <trkpt lat="50.2907" lon="3.76267">
        <ele>120.08</ele>
        <time>2021-03-20T17:56:02Z</time>
      </trkpt>
      <trkpt lat="50.2908" lon="3.7628">
        <ele>119.06</ele>
        <time>2021-03-20T17:56:05Z</time>
      </trkpt>
      <trkpt lat="50.29096" lon="3.76307">
        <ele>118.38</ele>
        <time>2021-03-20T17:56:08Z</time>
      </trkpt>
      <trkpt lat="50.29161" lon="3.7647">
        <ele>119.68</ele>
        <time>2021-03-20T17:56:11Z</time>
      </trkpt>
      <trkpt lat="50.29178" lon="3.76505">
        <ele>121.57</ele>
        <time>2021-03-20T17:56:14Z</time>
      </trkpt>
      <trkpt lat="50.29218" lon="3.76571">
        <ele>123.72</ele>
        <time>2021-03-20T17:56:17Z</time>
      </trkpt>
      <trkpt lat="50.2924" lon="3.76612">
        <ele>123.79</ele>
        <time>2021-03-20T17:56:20Z</time>
      </trkpt>
      <trkpt lat="50.29258" lon="3.76656">
        <ele>124.02</ele>
        <time>2021-03-20T17:56:22Z</time>
      </trkpt>
      <trkpt lat="50.29315" lon="3.76819">
        <ele>126.47</ele>
        <time>2021-03-20T17:56:25Z</time>
      </trkpt>
      <trkpt lat="50.2933" lon="3.76856">
        <ele>127</ele>
        <time>2021-03-20T17:56:28Z</time>
      </trkpt>
      <trkpt lat="50.29377" lon="3.76952">
        <ele>126.87</ele>
        <time>2021-03-20T17:56:31Z</time>
      </trkpt>
      <trkpt lat="50.29512" lon="3.77208">
        <ele>121.58</ele>
        <time>2021-03-20T17:56:34Z</time>
      </trkpt>
      <trkpt lat="50.29534" lon="3.77237">
        <ele>120.76</ele>
        <time>2021-03-20T17:56:37Z</time>
      </trkpt>
      <trkpt lat="50.29584" lon="3.77287">
        <ele>119</ele>
        <time>2021-03-20T17:56:40Z</time>
      </trkpt>
      <trkpt lat="50.296" lon="3.77309">
        <ele>118.86</ele>
        <time>2021-03-20T17:56:43Z</time>
      </trkpt>
      <trkpt lat="50.29696" lon="3.77491">
        <ele>112.34</ele>
        <time>2021-03-20T17:56:46Z</time>
      </trkpt>
      <trkpt lat="50.29729" lon="3.77708">
        <ele>115.6</ele>
        <time>2021-03-20T17:56:49Z</time>
      </trkpt>
      <trkpt lat="50.29742" lon="3.77807">
        <ele>118.75</ele>
        <time>2021-03-20T17:56:52Z</time>
      </trkpt>
      <trkpt lat="50.29766" lon="3.77971">
        <ele>120.59</ele>
        <time>2021-03-20T17:56:55Z</time>
      </trkpt>
      <trkpt lat="50.29785" lon="3.78103">
        <ele>122.19</ele>
        <time>2021-03-20T17:56:58Z</time>
      </trkpt>
      <trkpt lat="50.29796" lon="3.782">
        <ele>125.94</ele>
        <time>2021-03-20T17:57:01Z</time>
      </trkpt>
      <trkpt lat="50.29798" lon="3.78263">
        <ele>127.74</ele>
        <time>2021-03-20T17:57:04Z</time>
      </trkpt>
      <trkpt lat="50.29797" lon="3.78309">
        <ele>129.44</ele>
        <time>2021-03-20T17:57:07Z</time>
      </trkpt>
      <trkpt lat="50.29782" lon="3.78419">
        <ele>132.96</ele>
        <time>2021-03-20T17:57:10Z</time>
      </trkpt>
      <trkpt lat="50.2978" lon="3.78448">
        <ele>134.05</ele>
        <time>2021-03-20T17:57:13Z</time>
      </trkpt>
      <trkpt lat="50.29794" lon="3.78599">
        <ele>140.65</ele>
        <time>2021-03-20T17:57:16Z</time>
      </trkpt>
      <trkpt lat="50.29799" lon="3.78622">
        <ele>141.03</ele>
        <time>2021-03-20T17:57:19Z</time>
      </trkpt>
      <trkpt lat="50.29913" lon="3.78803">
        <ele>145.17</ele>
        <time>2021-03-20T17:57:23Z</time>
      </trkpt>
      <trkpt lat="50.29939" lon="3.78846">
        <ele>145.21</ele>
        <time>2021-03-20T17:57:28Z</time>
      </trkpt>
      <trkpt lat="50.3" lon="3.78956">
        <ele>146</ele>
        <time>2021-03-20T17:57:32Z</time>
      </trkpt>
      <trkpt lat="50.30036" lon="3.79011">
        <ele>148</ele>
        <time>2021-03-20T17:57:36Z</time>
      </trkpt>
      <trkpt lat="50.30045" lon="3.79019">
        <ele>148</ele>
        <time>2021-03-20T17:57:41Z</time>
      </trkpt>
      <trkpt lat="50.30057" lon="3.79019">
        <ele>148</ele>
        <time>2021-03-20T17:57:45Z</time>
      </trkpt>
      <trkpt lat="50.3006" lon="3.7905">
        <ele>148.66</ele>
        <time>2021-03-20T17:57:48Z</time>
      </trkpt>
      <trkpt lat="50.30076" lon="3.79096">
        <ele>149.45</ele>
        <time>2021-03-20T17:57:50Z</time>
      </trkpt>
      <trkpt lat="50.30095" lon="3.79136">
        <ele>149.58</ele>
        <time>2021-03-20T17:57:53Z</time>
      </trkpt>
      <trkpt lat="50.30098" lon="3.7916">
        <ele>149.87</ele>
        <time>2021-03-20T17:57:56Z</time>
      </trkpt>
      <trkpt lat="50.30096" lon="3.79172">
        <ele>150</ele>
        <time>2021-03-20T17:58:00Z</time>
      </trkpt>
      <trkpt lat="50.30096" lon="3.79191">
        <ele>150</ele>
        <time>2021-03-20T17:58:04Z</time>
      </trkpt>
      <trkpt lat="50.30098" lon="3.79197">
        <ele>149.95</ele>
        <time>2021-03-20T17:58:07Z</time>
      </trkpt>
      <trkpt lat="50.30102" lon="3.79201">
        <ele>149.84</ele>
        <time>2021-03-20T17:58:11Z</time>
      </trkpt>
      <trkpt lat="50.30106" lon="3.79202">
        <ele>149.78</ele>
        <time>2021-03-20T17:58:15Z</time>
      </trkpt>
      <trkpt lat="50.3011" lon="3.792">
        <ele>149.82</ele>
        <time>2021-03-20T17:58:19Z</time>
      </trkpt>
      <trkpt lat="50.30116" lon="3.79189">
        <ele>149.83</ele>
        <time>2021-03-20T17:58:23Z</time>
      </trkpt>
      <trkpt lat="50.30119" lon="3.79165">
        <ele>149.68</ele>
        <time>2021-03-20T17:58:27Z</time>
      </trkpt>
      <trkpt lat="50.30135" lon="3.79134">
        <ele>149</ele>
        <time>2021-03-20T17:58:31Z</time>
      </trkpt>
      <trkpt lat="50.30177" lon="3.79084">
        <ele>148.61</ele>
        <time>2021-03-20T17:58:35Z</time>
      </trkpt>
      <trkpt lat="50.3023" lon="3.79032">
        <ele>148.14</ele>
        <time>2021-03-20T17:58:39Z</time>
      </trkpt>
      <trkpt lat="50.3029" lon="3.78978">
        <ele>145.4</ele>
        <time>2021-03-20T17:58:43Z</time>
      </trkpt>
      <trkpt lat="50.304" lon="3.78884">
        <ele>142.83</ele>
        <time>2021-03-20T17:58:47Z</time>
      </trkpt>
      <trkpt lat="50.30524" lon="3.78775">
        <ele>142.63</ele>
        <time>2021-03-20T17:58:51Z</time>
      </trkpt>
      <trkpt lat="50.30611" lon="3.78685">
        <ele>142</ele>
        <time>2021-03-20T17:58:55Z</time>
      </trkpt>
      <trkpt lat="50.30642" lon="3.78656">
        <ele>142</ele>
        <time>2021-03-20T17:58:58Z</time>
      </trkpt>
      <trkpt lat="50.30718" lon="3.78585">
        <ele>141.9</ele>
        <time>2021-03-20T17:59:02Z</time>
      </trkpt>
      <trkpt lat="50.30735" lon="3.78566">
        <ele>142</ele>
        <time>2021-03-20T17:59:06Z</time>
      </trkpt>
      <trkpt lat="50.30769" lon="3.78521">
        <ele>140.92</ele>
        <time>2021-03-20T17:59:12Z</time>
      </trkpt>
      <trkpt lat="50.30783" lon="3.78499">
        <ele>141.18</ele>
        <time>2021-03-20T17:59:18Z</time>
      </trkpt>
      <trkpt lat="50.30862" lon="3.78359">
        <ele>144.12</ele>
        <time>2021-03-20T17:59:24Z</time>
      </trkpt>
      <trkpt lat="50.30879" lon="3.78341">
        <ele>144.9</ele>
        <time>2021-03-20T17:59:31Z</time>
      </trkpt>
      <trkpt lat="50.3094" lon="3.78293">
        <ele>146</ele>
        <time>2021-03-20T17:59:37Z</time>
      </trkpt>
      <trkpt lat="50.30983" lon="3.78241">
        <ele>145.26</ele>
        <time>2021-03-20T17:59:43Z</time>
      </trkpt>
      <trkpt lat="50.31029" lon="3.78188">
        <ele>141.69</ele>
        <time>2021-03-20T17:59:49Z</time>
      </trkpt>
      <trkpt lat="50.31061" lon="3.78157">
        <ele>138.71</ele>
        <time>2021-03-20T17:59:55Z</time>
      </trkpt>
      <trkpt lat="50.3114" lon="3.78098">
        <ele>137.95</ele>
        <time>2021-03-20T18:00:01Z</time>
      </trkpt>
      <trkpt lat="50.31162" lon="3.78086">
        <ele>137.17</ele>
        <time>2021-03-20T18:00:07Z</time>
      </trkpt>
      <trkpt lat="50.31185" lon="3.78068">
        <ele>136.36</ele>
        <time>2021-03-20T18:00:13Z</time>
      </trkpt>
      <trkpt lat="50.31301" lon="3.77947">
        <ele>135</ele>
        <time>2021-03-20T18:00:19Z</time>
      </trkpt>
      <trkpt lat="50.31443" lon="3.77811">
        <ele>133.84</ele>
        <time>2021-03-20T18:00:25Z</time>
      </trkpt>
      <trkpt lat="50.31653" lon="3.77618">
        <ele>129.49</ele>
        <time>2021-03-20T18:00:31Z</time>
      </trkpt>
      <trkpt lat="50.31845" lon="3.77453">
        <ele>127.6</ele>
        <time>2021-03-20T18:00:37Z</time>
      </trkpt>
      <trkpt lat="50.32015" lon="3.77297">
        <ele>123</ele>
        <time>2021-03-20T18:00:43Z</time>
      </trkpt>
      <trkpt lat="50.32136" lon="3.77185">
        <ele>123</ele>
        <time>2021-03-20T18:00:49Z</time>
      </trkpt>
      <trkpt lat="50.32259" lon="3.7707">
        <ele>122</ele>
        <time>2021-03-20T18:00:55Z</time>
      </trkpt>
      <trkpt lat="50.32439" lon="3.76917">
        <ele>118</ele>
        <time>2021-03-20T18:01:01Z</time>
      </trkpt>
      <trkpt lat="50.32449" lon="3.76913">
        <ele>118.14</ele>
        <time>2021-03-20T18:01:07Z</time>
      </trkpt>
      <trkpt lat="50.32459" lon="3.7692">
        <ele>117.82</ele>
        <time>2021-03-20T18:01:13Z</time>
      </trkpt>
      <trkpt lat="50.32468" lon="3.76931">
        <ele>117.04</ele>
        <time>2021-03-20T18:01:19Z</time>
      </trkpt>
      <trkpt lat="50.32526" lon="3.77012">
        <ele>115.97</ele>
        <time>2021-03-20T18:01:25Z</time>
      </trkpt>
      <trkpt lat="50.3257" lon="3.77078">
        <ele>107.97</ele>
        <time>2021-03-20T18:01:31Z</time>
      </trkpt>
      <trkpt lat="50.32613" lon="3.77122">
        <ele>104.77</ele>
        <time>2021-03-20T18:01:37Z</time>
      </trkpt>
      <trkpt lat="50.32619" lon="3.77124">
        <ele>104.36</ele>
        <time>2021-03-20T18:01:43Z</time>
      </trkpt>
      <trkpt lat="50.32637" lon="3.77117">
        <ele>104.46</ele>
        <time>2021-03-20T18:01:50Z</time>
      </trkpt>
      <trkpt lat="50.32678" lon="3.77083">
        <ele>103.83</ele>
        <time>2021-03-20T18:01:56Z</time>
      </trkpt>
      <trkpt lat="50.32689" lon="3.77078">
        <ele>102.85</ele>
        <time>2021-03-20T18:02:02Z</time>
      </trkpt>
      <trkpt lat="50.32716" lon="3.77072">
        <ele>100.53</ele>
        <time>2021-03-20T18:02:08Z</time>
      </trkpt>
      <trkpt lat="50.32729" lon="3.77063">
        <ele>99.04</ele>
        <time>2021-03-20T18:02:14Z</time>
      </trkpt>
      <trkpt lat="50.328" lon="3.76969">
        <ele>92.5</ele>
        <time>2021-03-20T18:02:20Z</time>
      </trkpt>
      <trkpt lat="50.32849" lon="3.7688">
        <ele>94.91</ele>
        <time>2021-03-20T18:02:26Z</time>
      </trkpt>
      <trkpt lat="50.32868" lon="3.76859">
        <ele>95.15</ele>
        <time>2021-03-20T18:02:32Z</time>
      </trkpt>
      <trkpt lat="50.32909" lon="3.76821">
        <ele>94.26</ele>
        <time>2021-03-20T18:02:38Z</time>
      </trkpt>
      <trkpt lat="50.32948" lon="3.76792">
        <ele>93.68</ele>
        <time>2021-03-20T18:02:44Z</time>
      </trkpt>
      <trkpt lat="50.32956" lon="3.7679">
        <ele>93.09</ele>
        <time>2021-03-20T18:02:50Z</time>
      </trkpt>
      <trkpt lat="50.32982" lon="3.76794">
        <ele>90.73</ele>
        <time>2021-03-20T18:02:56Z</time>
      </trkpt>
      <trkpt lat="50.32987" lon="3.76792">
        <ele>90.44</ele>
        <time>2021-03-20T18:03:02Z</time>
      </trkpt>
      <trkpt lat="50.32996" lon="3.76784">
        <ele>90.08</ele>
        <time>2021-03-20T18:03:08Z</time>
      </trkpt>
      <trkpt lat="50.33002" lon="3.76775">
        <ele>90.39</ele>
        <time>2021-03-20T18:03:14Z</time>
      </trkpt>
      <trkpt lat="50.33036" lon="3.767">
        <ele>96.59</ele>
        <time>2021-03-20T18:03:20Z</time>
      </trkpt>
      <trkpt lat="50.33047" lon="3.76664">
        <ele>97.26</ele>
        <time>2021-03-20T18:03:26Z</time>
      </trkpt>
      <trkpt lat="50.33053" lon="3.76635">
        <ele>97.43</ele>
        <time>2021-03-20T18:03:32Z</time>
      </trkpt>
      <trkpt lat="50.33058" lon="3.76563">
        <ele>99.46</ele>
        <time>2021-03-20T18:03:38Z</time>
      </trkpt>
      <trkpt lat="50.33061" lon="3.76534">
        <ele>101.22</ele>
        <time>2021-03-20T18:03:44Z</time>
      </trkpt>
      <trkpt lat="50.33077" lon="3.76438">
        <ele>96.34</ele>
        <time>2021-03-20T18:03:50Z</time>
      </trkpt>
      <trkpt lat="50.33099" lon="3.7634">
        <ele>86.36</ele>
        <time>2021-03-20T18:03:56Z</time>
      </trkpt>
      <trkpt lat="50.33104" lon="3.76334">
        <ele>85.72</ele>
        <time>2021-03-20T18:04:02Z</time>
      </trkpt>
      <trkpt lat="50.33112" lon="3.76331">
        <ele>85.04</ele>
        <time>2021-03-20T18:04:09Z</time>
      </trkpt>
      <trkpt lat="50.33166" lon="3.76314">
        <ele>83.68</ele>
        <time>2021-03-20T18:04:15Z</time>
      </trkpt>
      <trkpt lat="50.33196" lon="3.76295">
        <ele>85.21</ele>
        <time>2021-03-20T18:04:21Z</time>
      </trkpt>
      <trkpt lat="50.33211" lon="3.76278">
        <ele>86.82</ele>
        <time>2021-03-20T18:04:27Z</time>
      </trkpt>
      <trkpt lat="50.33237" lon="3.76235">
        <ele>88.28</ele>
        <time>2021-03-20T18:04:33Z</time>
      </trkpt>
      <trkpt lat="50.33283" lon="3.76177">
        <ele>92.71</ele>
        <time>2021-03-20T18:04:39Z</time>
      </trkpt>
      <trkpt lat="50.33308" lon="3.76126">
        <ele>97.29</ele>
        <time>2021-03-20T18:04:45Z</time>
      </trkpt>
      <trkpt lat="50.33329" lon="3.76096">
        <ele>99.57</ele>
        <time>2021-03-20T18:04:51Z</time>
      </trkpt>
      <trkpt lat="50.33414" lon="3.76016">
        <ele>98.24</ele>
        <time>2021-03-20T18:04:57Z</time>
      </trkpt>
      <trkpt lat="50.33472" lon="3.75966">
        <ele>96.99</ele>
        <time>2021-03-20T18:05:03Z</time>
      </trkpt>
      <trkpt lat="50.33602" lon="3.75843">
        <ele>108.65</ele>
        <time>2021-03-20T18:05:09Z</time>
      </trkpt>
      <trkpt lat="50.33624" lon="3.75828">
        <ele>109.54</ele>
        <time>2021-03-20T18:05:15Z</time>
      </trkpt>
      <trkpt lat="50.33655" lon="3.75804">
        <ele>111</ele>
        <time>2021-03-20T18:05:21Z</time>
      </trkpt>
      <trkpt lat="50.33709" lon="3.75748">
        <ele>112.54</ele>
        <time>2021-03-20T18:05:27Z</time>
      </trkpt>
      <trkpt lat="50.33866" lon="3.75601">
        <ele>115.8</ele>
        <time>2021-03-20T18:05:33Z</time>
      </trkpt>
      <trkpt lat="50.34016" lon="3.75466">
        <ele>116.59</ele>
        <time>2021-03-20T18:05:39Z</time>
      </trkpt>
      <trkpt lat="50.34166" lon="3.7532">
        <ele>123.51</ele>
        <time>2021-03-20T18:05:45Z</time>
      </trkpt>
      <trkpt lat="50.34275" lon="3.7524">
        <ele>118.63</ele>
        <time>2021-03-20T18:05:51Z</time>
      </trkpt>
      <trkpt lat="50.34301" lon="3.75216">
        <ele>117.76</ele>
        <time>2021-03-20T18:05:57Z</time>
      </trkpt>
      <trkpt lat="50.34366" lon="3.75141">
        <ele>117.43</ele>
        <time>2021-03-20T18:06:03Z</time>
      </trkpt>
      <trkpt lat="50.3449" lon="3.75024">
        <ele>115.36</ele>
        <time>2021-03-20T18:06:09Z</time>
      </trkpt>
      <trkpt lat="50.34501" lon="3.75012">
        <ele>115</ele>
        <time>2021-03-20T18:06:15Z</time>
      </trkpt>
      <trkpt lat="50.34535" lon="3.74974">
        <ele>115.93</ele>
        <time>2021-03-20T18:06:21Z</time>
      </trkpt>
      <trkpt lat="50.34571" lon="3.74938">
        <ele>115.97</ele>
        <time>2021-03-20T18:06:28Z</time>
      </trkpt>
      <trkpt lat="50.34704" lon="3.74825">
        <ele>114.33</ele>
        <time>2021-03-20T18:06:34Z</time>
      </trkpt>
      <trkpt lat="50.34735" lon="3.74793">
        <ele>112.1</ele>
        <time>2021-03-20T18:06:40Z</time>
      </trkpt>
      <trkpt lat="50.34793" lon="3.74724">
        <ele>110.06</ele>
        <time>2021-03-20T18:06:46Z</time>
      </trkpt>
      <trkpt lat="50.34829" lon="3.74693">
        <ele>109.85</ele>
        <time>2021-03-20T18:06:52Z</time>
      </trkpt>
      <trkpt lat="50.34928" lon="3.74612">
        <ele>112.39</ele>
        <time>2021-03-20T18:06:58Z</time>
      </trkpt>
      <trkpt lat="50.34953" lon="3.74588">
        <ele>112.49</ele>
        <time>2021-03-20T18:07:04Z</time>
      </trkpt>
      <trkpt lat="50.35041" lon="3.74507">
        <ele>114.61</ele>
        <time>2021-03-20T18:07:10Z</time>
      </trkpt>
      <trkpt lat="50.35119" lon="3.74433">
        <ele>113.7</ele>
        <time>2021-03-20T18:07:16Z</time>
      </trkpt>
      <trkpt lat="50.35271" lon="3.74293">
        <ele>113.26</ele>
        <time>2021-03-20T18:07:22Z</time>
      </trkpt>
      <trkpt lat="50.35339" lon="3.74232">
        <ele>113</ele>
        <time>2021-03-20T18:07:28Z</time>
      </trkpt>
      <trkpt lat="50.36246" lon="3.73383">
        <ele>88.15</ele>
        <time>2021-03-20T18:07:34Z</time>
      </trkpt>
      <trkpt lat="50.3633" lon="3.73308">
        <ele>85.21</ele>
        <time>2021-03-20T18:07:40Z</time>
      </trkpt>
      <trkpt lat="50.3643" lon="3.73221">
        <ele>82.54</ele>
        <time>2021-03-20T18:07:46Z</time>
      </trkpt>
      <trkpt lat="50.3645" lon="3.73202">
        <ele>82.53</ele>
        <time>2021-03-20T18:07:52Z</time>
      </trkpt>
      <trkpt lat="50.36468" lon="3.73181">
        <ele>82.15</ele>
        <time>2021-03-20T18:07:58Z</time>
      </trkpt>
      <trkpt lat="50.36537" lon="3.73065">
        <ele>83</ele>
        <time>2021-03-20T18:08:04Z</time>
      </trkpt>
      <trkpt lat="50.36551" lon="3.73044">
        <ele>82.93</ele>
        <time>2021-03-20T18:08:10Z</time>
      </trkpt>
      <trkpt lat="50.3658" lon="3.73019">
        <ele>82.11</ele>
        <time>2021-03-20T18:08:16Z</time>
      </trkpt>
      <trkpt lat="50.36677" lon="3.72952">
        <ele>81.37</ele>
        <time>2021-03-20T18:08:22Z</time>
      </trkpt>
      <trkpt lat="50.36834" lon="3.72837">
        <ele>83.01</ele>
        <time>2021-03-20T18:08:28Z</time>
      </trkpt>
      <trkpt lat="50.36895" lon="3.72781">
        <ele>84.2</ele>
        <time>2021-03-20T18:08:34Z</time>
      </trkpt>
      <trkpt lat="50.36963" lon="3.72716">
        <ele>83.05</ele>
        <time>2021-03-20T18:08:41Z</time>
      </trkpt>
      <trkpt lat="50.37045" lon="3.72641">
        <ele>81.31</ele>
        <time>2021-03-20T18:08:47Z</time>
      </trkpt>
      <trkpt lat="50.37125" lon="3.72579">
        <ele>79.98</ele>
        <time>2021-03-20T18:08:53Z</time>
      </trkpt>
      <trkpt lat="50.37166" lon="3.72542">
        <ele>78.03</ele>
        <time>2021-03-20T18:08:59Z</time>
      </trkpt>
      <trkpt lat="50.37203" lon="3.72504">
        <ele>76.69</ele>
        <time>2021-03-20T18:09:05Z</time>
      </trkpt>
      <trkpt lat="50.37282" lon="3.72431">
        <ele>73.49</ele>
        <time>2021-03-20T18:09:11Z</time>
      </trkpt>
      <trkpt lat="50.37339" lon="3.72385">
        <ele>71.66</ele>
        <time>2021-03-20T18:09:17Z</time>
      </trkpt>
      <trkpt lat="50.37382" lon="3.72352">
        <ele>68.39</ele>
        <time>2021-03-20T18:09:23Z</time>
      </trkpt>
      <trkpt lat="50.37486" lon="3.72285">
        <ele>65.5</ele>
        <time>2021-03-20T18:09:29Z</time>
      </trkpt>
      <trkpt lat="50.3761" lon="3.722">
        <ele>63.24</ele>
        <time>2021-03-20T18:09:35Z</time>
      </trkpt>
      <trkpt lat="50.37628" lon="3.72185">
        <ele>62.38</ele>
        <time>2021-03-20T18:09:41Z</time>
      </trkpt>
      <trkpt lat="50.37698" lon="3.72125">
        <ele>62.31</ele>
        <time>2021-03-20T18:09:47Z</time>
      </trkpt>
      <trkpt lat="50.37705" lon="3.72115">
        <ele>62.14</ele>
        <time>2021-03-20T18:09:53Z</time>
      </trkpt>
      <trkpt lat="50.37713" lon="3.72097">
        <ele>62.17</ele>
        <time>2021-03-20T18:09:59Z</time>
      </trkpt>
      <trkpt lat="50.37718" lon="3.7209">
        <ele>62.08</ele>
        <time>2021-03-20T18:10:05Z</time>
      </trkpt>
      <trkpt lat="50.37821" lon="3.7202">
        <ele>56.89</ele>
        <time>2021-03-20T18:10:11Z</time>
      </trkpt>
      <trkpt lat="50.37836" lon="3.72014">
        <ele>55.77</ele>
        <time>2021-03-20T18:10:17Z</time>
      </trkpt>
      <trkpt lat="50.37848" lon="3.72017">
        <ele>54.44</ele>
        <time>2021-03-20T18:10:23Z</time>
      </trkpt>
      <trkpt lat="50.37861" lon="3.72014">
        <ele>52.99</ele>
        <time>2021-03-20T18:10:29Z</time>
      </trkpt>
      <trkpt lat="50.3799" lon="3.71943">
        <ele>49.67</ele>
        <time>2021-03-20T18:10:35Z</time>
      </trkpt>
      <trkpt lat="50.38007" lon="3.71932">
        <ele>47.8</ele>
        <time>2021-03-20T18:10:41Z</time>
      </trkpt>
      <trkpt lat="50.38022" lon="3.71917">
        <ele>46.38</ele>
        <time>2021-03-20T18:10:47Z</time>
      </trkpt>
      <trkpt lat="50.38039" lon="3.71912">
        <ele>45.19</ele>
        <time>2021-03-20T18:10:53Z</time>
      </trkpt>
      <trkpt lat="50.38084" lon="3.71891">
        <ele>44</ele>
        <time>2021-03-20T18:11:00Z</time>
      </trkpt>
      <trkpt lat="50.38148" lon="3.71852">
        <ele>42.67</ele>
        <time>2021-03-20T18:11:06Z</time>
      </trkpt>
      <trkpt lat="50.3817" lon="3.71833">
        <ele>41.88</ele>
        <time>2021-03-20T18:11:12Z</time>
      </trkpt>
      <trkpt lat="50.38213" lon="3.71787">
        <ele>41.35</ele>
        <time>2021-03-20T18:11:18Z</time>
      </trkpt>
      <trkpt lat="50.38229" lon="3.71777">
        <ele>40.99</ele>
        <time>2021-03-20T18:11:24Z</time>
      </trkpt>
      <trkpt lat="50.38297" lon="3.71758">
        <ele>41.28</ele>
        <time>2021-03-20T18:11:30Z</time>
      </trkpt>
      <trkpt lat="50.38303" lon="3.71748">
        <ele>41</ele>
        <time>2021-03-20T18:11:36Z</time>
      </trkpt>
      <trkpt lat="50.38324" lon="3.71767">
        <ele>42.3</ele>
        <time>2021-03-20T18:11:40Z</time>
      </trkpt>
      <trkpt lat="50.38336" lon="3.71787">
        <ele>43.43</ele>
        <time>2021-03-20T18:11:44Z</time>
      </trkpt>
      <trkpt lat="50.38385" lon="3.71885">
        <ele>49.69</ele>
        <time>2021-03-20T18:11:48Z</time>
      </trkpt>
      <trkpt lat="50.38408" lon="3.71942">
        <ele>52.54</ele>
        <time>2021-03-20T18:11:52Z</time>
      </trkpt>
      <trkpt lat="50.38423" lon="3.71969">
        <ele>54.12</ele>
        <time>2021-03-20T18:11:56Z</time>
      </trkpt>
      <trkpt lat="50.38445" lon="3.7199">
        <ele>55.65</ele>
        <time>2021-03-20T18:12:00Z</time>
      </trkpt>
      <trkpt lat="50.3846" lon="3.71996">
        <ele>55.87</ele>
        <time>2021-03-20T18:12:04Z</time>
      </trkpt>
      <trkpt lat="50.38475" lon="3.71999">
        <ele>56.08</ele>
        <time>2021-03-20T18:12:08Z</time>
      </trkpt>
      <trkpt lat="50.38533" lon="3.71987">
        <ele>57.92</ele>
        <time>2021-03-20T18:12:12Z</time>
      </trkpt>
      <trkpt lat="50.38558" lon="3.71992">
        <ele>59.6</ele>
        <time>2021-03-20T18:12:16Z</time>
      </trkpt>
      <trkpt lat="50.38573" lon="3.71998">
        <ele>59.32</ele>
        <time>2021-03-20T18:12:20Z</time>
      </trkpt>
      <trkpt lat="50.38648" lon="3.72048">
        <ele>61.48</ele>
        <time>2021-03-20T18:12:24Z</time>
      </trkpt>
      <trkpt lat="50.38788" lon="3.72162">
        <ele>65.47</ele>
        <time>2021-03-20T18:12:28Z</time>
      </trkpt>
      <trkpt lat="50.38805" lon="3.72179">
        <ele>65.96</ele>
        <time>2021-03-20T18:12:32Z</time>
      </trkpt>
      <trkpt lat="50.38825" lon="3.7221">
        <ele>65.82</ele>
        <time>2021-03-20T18:12:36Z</time>
      </trkpt>
      <trkpt lat="50.38863" lon="3.72298">
        <ele>68.66</ele>
        <time>2021-03-20T18:12:40Z</time>
      </trkpt>
      <trkpt lat="50.38887" lon="3.72359">
        <ele>69.08</ele>
        <time>2021-03-20T18:12:44Z</time>
      </trkpt>
      <trkpt lat="50.38974" lon="3.72612">
        <ele>69</ele>
        <time>2021-03-20T18:12:48Z</time>
      </trkpt>
      <trkpt lat="50.39063" lon="3.72813">
        <ele>68.54</ele>
        <time>2021-03-20T18:12:52Z</time>
      </trkpt>
      <trkpt lat="50.39074" lon="3.72851">
        <ele>68.21</ele>
        <time>2021-03-20T18:12:56Z</time>
      </trkpt>
      <trkpt lat="50.39093" lon="3.72937">
        <ele>68.67</ele>
        <time>2021-03-20T18:13:00Z</time>
      </trkpt>
      <trkpt lat="50.39103" lon="3.72964">
        <ele>68.29</ele>
        <time>2021-03-20T18:13:04Z</time>
      </trkpt>
      <trkpt lat="50.39122" lon="3.72997">
        <ele>69.28</ele>
        <time>2021-03-20T18:13:08Z</time>
      </trkpt>
      <trkpt lat="50.39209" lon="3.73134">
        <ele>69.9</ele>
        <time>2021-03-20T18:13:12Z</time>
      </trkpt>
      <trkpt lat="50.39284" lon="3.73216">
        <ele>72.56</ele>
        <time>2021-03-20T18:13:16Z</time>
      </trkpt>
      <trkpt lat="50.39391" lon="3.73356">
        <ele>71</ele>
        <time>2021-03-20T18:13:20Z</time>
      </trkpt>
      <trkpt lat="50.39507" lon="3.73487">
        <ele>67.46</ele>
        <time>2021-03-20T18:13:24Z</time>
      </trkpt>
      <trkpt lat="50.39525" lon="3.73511">
        <ele>67</ele>
        <time>2021-03-20T18:13:28Z</time>
      </trkpt>
      <trkpt lat="50.39539" lon="3.73536">
        <ele>65.93</ele>
        <time>2021-03-20T18:13:32Z</time>
      </trkpt>
      <trkpt lat="50.39552" lon="3.73572">
        <ele>64.22</ele>
        <time>2021-03-20T18:13:36Z</time>
      </trkpt>
      <trkpt lat="50.39573" lon="3.73642">
        <ele>62.26</ele>
        <time>2021-03-20T18:13:40Z</time>
      </trkpt>
      <trkpt lat="50.39596" lon="3.73691">
        <ele>60.59</ele>
        <time>2021-03-20T18:13:44Z</time>
      </trkpt>
      <trkpt lat="50.39623" lon="3.73727">
        <ele>59.76</ele>
        <time>2021-03-20T18:13:48Z</time>
      </trkpt>
      <trkpt lat="50.39825" lon="3.73968">
        <ele>52.62</ele>
        <time>2021-03-20T18:13:52Z</time>
      </trkpt>
      <trkpt lat="50.39832" lon="3.7398">
        <ele>51.79</ele>
        <time>2021-03-20T18:13:56Z</time>
      </trkpt>
      <trkpt lat="50.39836" lon="3.7399">
        <ele>51.45</ele>
        <time>2021-03-20T18:14:00Z</time>
      </trkpt>
      <trkpt lat="50.39837" lon="3.74003">
        <ele>51.12</ele>
        <time>2021-03-20T18:14:04Z</time>
      </trkpt>
      <trkpt lat="50.39829" lon="3.74073">
        <ele>51.23</ele>
        <time>2021-03-20T18:14:08Z</time>
      </trkpt>
      <trkpt lat="50.39831" lon="3.74097">
        <ele>51.67</ele>
        <time>2021-03-20T18:14:12Z</time>
      </trkpt>
      <trkpt lat="50.39853" lon="3.74163">
        <ele>51.78</ele>
        <time>2021-03-20T18:14:16Z</time>
      </trkpt>
      <trkpt lat="50.39861" lon="3.74178">
        <ele>51.46</ele>
        <time>2021-03-20T18:14:20Z</time>
      </trkpt>
      <trkpt lat="50.39899" lon="3.74238">
        <ele>52.57</ele>
        <time>2021-03-20T18:14:24Z</time>
      </trkpt>
      <trkpt lat="50.39908" lon="3.74256">
        <ele>53.45</ele>
        <time>2021-03-20T18:14:28Z</time>
      </trkpt>
      <trkpt lat="50.40004" lon="3.74573">
        <ele>54.74</ele>
        <time>2021-03-20T18:14:32Z</time>
      </trkpt>
      <trkpt lat="50.40021" lon="3.74625">
        <ele>54.5</ele>
        <time>2021-03-20T18:14:36Z</time>
      </trkpt>
      <trkpt lat="50.40036" lon="3.7466">
        <ele>54.26</ele>
        <time>2021-03-20T18:14:40Z</time>
      </trkpt>
      <trkpt lat="50.40152" lon="3.74895">
        <ele>51.42</ele>
        <time>2021-03-20T18:14:44Z</time>
      </trkpt>
      <trkpt lat="50.40212" lon="3.75023">
        <ele>48.38</ele>
        <time>2021-03-20T18:14:48Z</time>
      </trkpt>
      <trkpt lat="50.40256" lon="3.75125">
        <ele>45</ele>
        <time>2021-03-20T18:14:52Z</time>
      </trkpt>
      <trkpt lat="50.40258" lon="3.75145">
        <ele>45.21</ele>
        <time>2021-03-20T18:14:56Z</time>
      </trkpt>
      <trkpt lat="50.40253" lon="3.75211">
        <ele>45.93</ele>
        <time>2021-03-20T18:15:00Z</time>
      </trkpt>
      <trkpt lat="50.40254" lon="3.75219">
        <ele>45.86</ele>
        <time>2021-03-20T18:15:04Z</time>
      </trkpt>
      <trkpt lat="50.40259" lon="3.7523">
        <ele>45.68</ele>
        <time>2021-03-20T18:15:08Z</time>
      </trkpt>
      <trkpt lat="50.40269" lon="3.75237">
        <ele>45.31</ele>
        <time>2021-03-20T18:15:12Z</time>
      </trkpt>
      <trkpt lat="50.40276" lon="3.75238">
        <ele>45.05</ele>
        <time>2021-03-20T18:15:16Z</time>
      </trkpt>
      <trkpt lat="50.40393" lon="3.75224">
        <ele>44.15</ele>
        <time>2021-03-20T18:15:21Z</time>
      </trkpt>
      <trkpt lat="50.4041" lon="3.75228">
        <ele>44.75</ele>
        <time>2021-03-20T18:15:25Z</time>
      </trkpt>
      <trkpt lat="50.40448" lon="3.75249">
        <ele>43.72</ele>
        <time>2021-03-20T18:15:29Z</time>
      </trkpt>
      <trkpt lat="50.40465" lon="3.75252">
        <ele>42.5</ele>
        <time>2021-03-20T18:15:34Z</time>
      </trkpt>
      <trkpt lat="50.40509" lon="3.75238">
        <ele>42.44</ele>
        <time>2021-03-20T18:15:38Z</time>
      </trkpt>
      <trkpt lat="50.40529" lon="3.75238">
        <ele>42.42</ele>
        <time>2021-03-20T18:15:42Z</time>
      </trkpt>
      <trkpt lat="50.40682" lon="3.75302">
        <ele>43</ele>
        <time>2021-03-20T18:15:47Z</time>
      </trkpt>
      <trkpt lat="50.40722" lon="3.75315">
        <ele>43</ele>
        <time>2021-03-20T18:15:51Z</time>
      </trkpt>
      <trkpt lat="50.40729" lon="3.75317">
        <ele>43.24</ele>
        <time>2021-03-20T18:15:55Z</time>
      </trkpt>
      <trkpt lat="50.40743" lon="3.75316">
        <ele>43.76</ele>
        <time>2021-03-20T18:16:00Z</time>
      </trkpt>
      <trkpt lat="50.40761" lon="3.75299">
        <ele>44.77</ele>
        <time>2021-03-20T18:16:04Z</time>
      </trkpt>
      <trkpt lat="50.40833" lon="3.75209">
        <ele>46.51</ele>
        <time>2021-03-20T18:16:08Z</time>
      </trkpt>
      <trkpt lat="50.40845" lon="3.75188">
        <ele>45.86</ele>
        <time>2021-03-20T18:16:13Z</time>
      </trkpt>
      <trkpt lat="50.40913" lon="3.7509">
        <ele>46</ele>
        <time>2021-03-20T18:16:17Z</time>
      </trkpt>
      <trkpt lat="50.40934" lon="3.75066">
        <ele>46</ele>
        <time>2021-03-20T18:16:21Z</time>
      </trkpt>
      <trkpt lat="50.40944" lon="3.75054">
        <ele>46</ele>
        <time>2021-03-20T18:16:26Z</time>
      </trkpt>
      <trkpt lat="50.40991" lon="3.75015">
        <ele>46</ele>
        <time>2021-03-20T18:16:30Z</time>
      </trkpt>
      <trkpt lat="50.41037" lon="3.74981">
        <ele>46.25</ele>
        <time>2021-03-20T18:16:34Z</time>
      </trkpt>
      <trkpt lat="50.41151" lon="3.74909">
        <ele>48.12</ele>
        <time>2021-03-20T18:16:39Z</time>
      </trkpt>
      <trkpt lat="50.41208" lon="3.74881">
        <ele>48.8</ele>
        <time>2021-03-20T18:16:43Z</time>
      </trkpt>
      <trkpt lat="50.41233" lon="3.74872">
        <ele>48.09</ele>
        <time>2021-03-20T18:16:47Z</time>
      </trkpt>
      <trkpt lat="50.41253" lon="3.7487">
        <ele>47.4</ele>
        <time>2021-03-20T18:16:52Z</time>
      </trkpt>
      <trkpt lat="50.41272" lon="3.74875">
        <ele>47.4</ele>
        <time>2021-03-20T18:16:56Z</time>
      </trkpt>
      <trkpt lat="50.41288" lon="3.74884">
        <ele>47.11</ele>
        <time>2021-03-20T18:17:01Z</time>
      </trkpt>
      <trkpt lat="50.41304" lon="3.74899">
        <ele>47.35</ele>
        <time>2021-03-20T18:17:05Z</time>
      </trkpt>
      <trkpt lat="50.41313" lon="3.74916">
        <ele>47.45</ele>
        <time>2021-03-20T18:17:09Z</time>
      </trkpt>
      <trkpt lat="50.41313" lon="3.7493">
        <ele>47.96</ele>
        <time>2021-03-20T18:17:14Z</time>
      </trkpt>
      <trkpt lat="50.41317" lon="3.74943">
        <ele>48.15</ele>
        <time>2021-03-20T18:17:19Z</time>
      </trkpt>
      <trkpt lat="50.41322" lon="3.74951">
        <ele>47.83</ele>
        <time>2021-03-20T18:17:23Z</time>
      </trkpt>
      <trkpt lat="50.41329" lon="3.74957">
        <ele>47.32</ele>
        <time>2021-03-20T18:17:28Z</time>
      </trkpt>
      <trkpt lat="50.41337" lon="3.74958">
        <ele>46.71</ele>
        <time>2021-03-20T18:17:33Z</time>
      </trkpt>
      <trkpt lat="50.41344" lon="3.74955">
        <ele>46.08</ele>
        <time>2021-03-20T18:17:37Z</time>
      </trkpt>
      <trkpt lat="50.4135" lon="3.74949">
        <ele>45.67</ele>
        <time>2021-03-20T18:17:42Z</time>
      </trkpt>
      <trkpt lat="50.41355" lon="3.7494">
        <ele>45.54</ele>
        <time>2021-03-20T18:17:47Z</time>
      </trkpt>
      <trkpt lat="50.41357" lon="3.74928">
        <ele>45.69</ele>
        <time>2021-03-20T18:17:52Z</time>
      </trkpt>
      <trkpt lat="50.41357" lon="3.74915">
        <ele>46</ele>
        <time>2021-03-20T18:17:56Z</time>
      </trkpt>
      <trkpt lat="50.4136" lon="3.74904">
        <ele>46</ele>
        <time>2021-03-20T18:18:01Z</time>
      </trkpt>
      <trkpt lat="50.41364" lon="3.74894">
        <ele>46</ele>
        <time>2021-03-20T18:18:06Z</time>
      </trkpt>
      <trkpt lat="50.41389" lon="3.74865">
        <ele>45.15</ele>
        <time>2021-03-20T18:18:10Z</time>
      </trkpt>
      <trkpt lat="50.41452" lon="3.74797">
        <ele>42.43</ele>
        <time>2021-03-20T18:18:15Z</time>
      </trkpt>
      <trkpt lat="50.4191" lon="3.74301">
        <ele>34.14</ele>
        <time>2021-03-20T18:18:20Z</time>
      </trkpt>
      <trkpt lat="50.41958" lon="3.74242">
        <ele>35</ele>
        <time>2021-03-20T18:18:24Z</time>
      </trkpt>
      <trkpt lat="50.41995" lon="3.74195">
        <ele>34.97</ele>
        <time>2021-03-20T18:18:29Z</time>
      </trkpt>
      <trkpt lat="50.42057" lon="3.74101">
        <ele>38.94</ele>
        <time>2021-03-20T18:18:34Z</time>
      </trkpt>
      <trkpt lat="50.42102" lon="3.74018">
        <ele>37.93</ele>
        <time>2021-03-20T18:18:39Z</time>
      </trkpt>
      <trkpt lat="50.42164" lon="3.73873">
        <ele>32.99</ele>
        <time>2021-03-20T18:18:43Z</time>
      </trkpt>
      <trkpt lat="50.42482" lon="3.73082">
        <ele>25</ele>
        <time>2021-03-20T18:18:48Z</time>
      </trkpt>
      <trkpt lat="50.42513" lon="3.73023">
        <ele>24</ele>
        <time>2021-03-20T18:18:53Z</time>
      </trkpt>
      <trkpt lat="50.42547" lon="3.72945">
        <ele>24</ele>
        <time>2021-03-20T18:18:57Z</time>
      </trkpt>
      <trkpt lat="50.42552" lon="3.72937">
        <ele>24.23</ele>
        <time>2021-03-20T18:19:02Z</time>
      </trkpt>
      <trkpt lat="50.42564" lon="3.72928">
        <ele>24.9</ele>
        <time>2021-03-20T18:19:07Z</time>
      </trkpt>
      <trkpt lat="50.42575" lon="3.72935">
        <ele>25.04</ele>
        <time>2021-03-20T18:19:16Z</time>
      </trkpt>
      <trkpt lat="50.42589" lon="3.72935">
        <ele>25.35</ele>
        <time>2021-03-20T18:19:24Z</time>
      </trkpt>
      <trkpt lat="50.42601" lon="3.72925">
        <ele>25.7</ele>
        <time>2021-03-20T18:19:33Z</time>
      </trkpt>
      <trkpt lat="50.42608" lon="3.72914">
        <ele>26</ele>
        <time>2021-03-20T18:19:42Z</time>
      </trkpt>
      <trkpt lat="50.42612" lon="3.72904">
        <ele>25.98</ele>
        <time>2021-03-20T18:19:50Z</time>
      </trkpt>
      <trkpt lat="50.42623" lon="3.72898">
        <ele>25.57</ele>
        <time>2021-03-20T18:19:59Z</time>
      </trkpt>
      <trkpt lat="50.42659" lon="3.72898">
        <ele>24.28</ele>
        <time>2021-03-20T18:20:08Z</time>
      </trkpt>
      <trkpt lat="50.42799" lon="3.72874">
        <ele>25.28</ele>
        <time>2021-03-20T18:20:17Z</time>
      </trkpt>
      <trkpt lat="50.44349" lon="3.72906">
        <ele>19.45</ele>
        <time>2021-03-20T18:20:25Z</time>
      </trkpt>
      <trkpt lat="50.44747" lon="3.72918">
        <ele>21.88</ele>
        <time>2021-03-20T18:20:34Z</time>
      </trkpt>
      <trkpt lat="50.44785" lon="3.72927">
        <ele>21.83</ele>
        <time>2021-03-20T18:20:43Z</time>
      </trkpt>
      <trkpt lat="50.44853" lon="3.72934">
        <ele>21.62</ele>
        <time>2021-03-20T18:20:52Z</time>
      </trkpt>
      <trkpt lat="50.44977" lon="3.72939">
        <ele>21.98</ele>
        <time>2021-03-20T18:21:00Z</time>
      </trkpt>
      <trkpt lat="50.45289" lon="3.72942">
        <ele>20.4</ele>
        <time>2021-03-20T18:21:09Z</time>
      </trkpt>
      <trkpt lat="50.45354" lon="3.72939">
        <ele>19.24</ele>
        <time>2021-03-20T18:21:18Z</time>
      </trkpt>
      <trkpt lat="50.45376" lon="3.72928">
        <ele>19</ele>
        <time>2021-03-20T18:21:26Z</time>
      </trkpt>
      <trkpt lat="50.45459" lon="3.72927">
        <ele>21.4</ele>
        <time>2021-03-20T18:21:35Z</time>
      </trkpt>
      <trkpt lat="50.45527" lon="3.72928">
        <ele>20.42</ele>
        <time>2021-03-20T18:21:44Z</time>
      </trkpt>
      <trkpt lat="50.45947" lon="3.72937">
        <ele>19.75</ele>
        <time>2021-03-20T18:21:53Z</time>
      </trkpt>
      <trkpt lat="50.46019" lon="3.72941">
        <ele>19.88</ele>
        <time>2021-03-20T18:22:01Z</time>
      </trkpt>
      <trkpt lat="50.46039" lon="3.72944">
        <ele>20</ele>
        <time>2021-03-20T18:22:10Z</time>
      </trkpt>
      <trkpt lat="50.46116" lon="3.72972">
        <ele>22.19</ele>
        <time>2021-03-20T18:22:19Z</time>
      </trkpt>
      <trkpt lat="50.46167" lon="3.73">
        <ele>23</ele>
        <time>2021-03-20T18:22:28Z</time>
      </trkpt>
      <trkpt lat="50.46232" lon="3.73049">
        <ele>23.42</ele>
        <time>2021-03-20T18:22:36Z</time>
      </trkpt>
      <trkpt lat="50.46254" lon="3.73071">
        <ele>23.06</ele>
        <time>2021-03-20T18:22:45Z</time>
      </trkpt>
      <trkpt lat="50.46298" lon="3.73122">
        <ele>22.73</ele>
        <time>2021-03-20T18:22:54Z</time>
      </trkpt>
      <trkpt lat="50.46341" lon="3.73207">
        <ele>22.94</ele>
        <time>2021-03-20T18:22:55Z</time>
      </trkpt>
      <trkpt lat="50.4635" lon="3.73242">
        <ele>22.76</ele>
        <time>2021-03-20T18:22:55Z</time>
      </trkpt>
      <trkpt lat="50.46351" lon="3.7326">
        <ele>22.43</ele>
        <time>2021-03-20T18:22:56Z</time>
      </trkpt>
      <trkpt lat="50.46351" lon="3.73276">
        <ele>22.03</ele>
        <time>2021-03-20T18:22:57Z</time>
      </trkpt>
      <trkpt lat="50.46348" lon="3.73293">
        <ele>22</ele>
        <time>2021-03-20T18:22:58Z</time>
      </trkpt>
      <trkpt lat="50.46343" lon="3.73306">
        <ele>22</ele>
        <time>2021-03-20T18:22:58Z</time>
      </trkpt>
      <trkpt lat="50.46335" lon="3.73319">
        <ele>21.97</ele>
        <time>2021-03-20T18:22:59Z</time>
      </trkpt>
      <trkpt lat="50.46326" lon="3.73328">
        <ele>21.74</ele>
        <time>2021-03-20T18:23:00Z</time>
      </trkpt>
      <trkpt lat="50.46319" lon="3.73334">
        <ele>21.49</ele>
        <time>2021-03-20T18:23:01Z</time>
      </trkpt>
      <trkpt lat="50.46302" lon="3.73337">
        <ele>21</ele>
        <time>2021-03-20T18:23:01Z</time>
      </trkpt>
      <trkpt lat="50.46294" lon="3.73335">
        <ele>21</ele>
        <time>2021-03-20T18:23:02Z</time>
      </trkpt>
      <trkpt lat="50.46284" lon="3.7333">
        <ele>20.91</ele>
        <time>2021-03-20T18:23:03Z</time>
      </trkpt>
      <trkpt lat="50.46296" lon="3.7334">
        <ele>21</ele>
        <time>2021-03-20T18:23:08Z</time>
      </trkpt>
      <trkpt lat="50.4631" lon="3.73348">
        <ele>21.07</ele>
        <time>2021-03-20T18:23:13Z</time>
      </trkpt>
      <trkpt lat="50.46341" lon="3.7336">
        <ele>20.77</ele>
        <time>2021-03-20T18:23:18Z</time>
      </trkpt>
      <trkpt lat="50.4638" lon="3.73381">
        <ele>19.29</ele>
        <time>2021-03-20T18:23:23Z</time>
      </trkpt>
      <trkpt lat="50.46397" lon="3.73395">
        <ele>18.77</ele>
        <time>2021-03-20T18:23:28Z</time>
      </trkpt>
      <trkpt lat="50.4641" lon="3.73411">
        <ele>18.84</ele>
        <time>2021-03-20T18:23:33Z</time>
      </trkpt>
      <trkpt lat="50.46424" lon="3.7343">
        <ele>19.47</ele>
        <time>2021-03-20T18:23:38Z</time>
      </trkpt>
      <trkpt lat="50.46448" lon="3.73477">
        <ele>20.17</ele>
        <time>2021-03-20T18:23:43Z</time>
      </trkpt>
      <trkpt lat="50.4646" lon="3.73505">
        <ele>21.12</ele>
        <time>2021-03-20T18:23:47Z</time>
      </trkpt>
      <trkpt lat="50.46494" lon="3.73607">
        <ele>21.87</ele>
        <time>2021-03-20T18:23:52Z</time>
      </trkpt>
      <trkpt lat="50.46558" lon="3.73926">
        <ele>23.87</ele>
        <time>2021-03-20T18:23:57Z</time>
      </trkpt>
      <trkpt lat="50.46742" lon="3.74801">
        <ele>24.71</ele>
        <time>2021-03-20T18:24:02Z</time>
      </trkpt>
      <trkpt lat="50.46967" lon="3.74632">
        <ele>29.8</ele>
        <time>2021-03-20T18:24:08Z</time>
      </trkpt>
      <trkpt lat="50.47001" lon="3.74608">
        <ele>29.19</ele>
        <time>2021-03-20T18:24:14Z</time>
      </trkpt>
      <trkpt lat="50.4705" lon="3.74577">
        <ele>31.63</ele>
        <time>2021-03-20T18:24:20Z</time>
      </trkpt>
      <trkpt lat="50.47099" lon="3.7455">
        <ele>34.34</ele>
        <time>2021-03-20T18:24:26Z</time>
      </trkpt>
      <trkpt lat="50.47164" lon="3.74508">
        <ele>36.79</ele>
        <time>2021-03-20T18:24:32Z</time>
      </trkpt>
      <trkpt lat="50.47313" lon="3.74426">
        <ele>36.68</ele>
        <time>2021-03-20T18:24:38Z</time>
      </trkpt>
      <trkpt lat="50.47411" lon="3.74363">
        <ele>39.95</ele>
        <time>2021-03-20T18:24:45Z</time>
      </trkpt>
      <trkpt lat="50.475" lon="3.74297">
        <ele>39.31</ele>
        <time>2021-03-20T18:24:51Z</time>
      </trkpt>
      <trkpt lat="50.47575" lon="3.74226">
        <ele>37.48</ele>
        <time>2021-03-20T18:24:57Z</time>
      </trkpt>
      <trkpt lat="50.47646" lon="3.74149">
        <ele>39.4</ele>
        <time>2021-03-20T18:25:03Z</time>
      </trkpt>
      <trkpt lat="50.47711" lon="3.74061">
        <ele>39.89</ele>
        <time>2021-03-20T18:25:09Z</time>
      </trkpt>
      <trkpt lat="50.47747" lon="3.74009">
        <ele>40.73</ele>
        <time>2021-03-20T18:25:15Z</time>
      </trkpt>
      <trkpt lat="50.47818" lon="3.73886">
        <ele>41.1</ele>
        <time>2021-03-20T18:25:21Z</time>
      </trkpt>
      <trkpt lat="50.47881" lon="3.73754">
        <ele>43.32</ele>
        <time>2021-03-20T18:25:27Z</time>
      </trkpt>
      <trkpt lat="50.47908" lon="3.73689">
        <ele>42.63</ele>
        <time>2021-03-20T18:25:33Z</time>
      </trkpt>
      <trkpt lat="50.47934" lon="3.73618">
        <ele>42</ele>
        <time>2021-03-20T18:25:39Z</time>
      </trkpt>
      <trkpt lat="50.47958" lon="3.73545">
        <ele>42.68</ele>
        <time>2021-03-20T18:25:45Z</time>
      </trkpt>
      <trkpt lat="50.48002" lon="3.73398">
        <ele>45.26</ele>
        <time>2021-03-20T18:25:51Z</time>
      </trkpt>
      <trkpt lat="50.4806" lon="3.73173">
        <ele>51.21</ele>
        <time>2021-03-20T18:25:57Z</time>
      </trkpt>
      <trkpt lat="50.48779" lon="3.70296">
        <ele>46.68</ele>
        <time>2021-03-20T18:26:03Z</time>
      </trkpt>
      <trkpt lat="50.4884" lon="3.70075">
        <ele>48.77</ele>
        <time>2021-03-20T18:26:09Z</time>
      </trkpt>
      <trkpt lat="50.48881" lon="3.69933">
        <ele>47.29</ele>
        <time>2021-03-20T18:26:15Z</time>
      </trkpt>
      <trkpt lat="50.48959" lon="3.69682">
        <ele>53.05</ele>
        <time>2021-03-20T18:26:21Z</time>
      </trkpt>
      <trkpt lat="50.49029" lon="3.69472">
        <ele>55.13</ele>
        <time>2021-03-20T18:26:27Z</time>
      </trkpt>
      <trkpt lat="50.49061" lon="3.69381">
        <ele>55.88</ele>
        <time>2021-03-20T18:26:33Z</time>
      </trkpt>
      <trkpt lat="50.4916" lon="3.69115">
        <ele>59.42</ele>
        <time>2021-03-20T18:26:39Z</time>
      </trkpt>
      <trkpt lat="50.49216" lon="3.6898">
        <ele>60.26</ele>
        <time>2021-03-20T18:26:45Z</time>
      </trkpt>
      <trkpt lat="50.49244" lon="3.68918">
        <ele>61.39</ele>
        <time>2021-03-20T18:26:51Z</time>
      </trkpt>
      <trkpt lat="50.49305" lon="3.68794">
        <ele>60.97</ele>
        <time>2021-03-20T18:26:57Z</time>
      </trkpt>
      <trkpt lat="50.49373" lon="3.68678">
        <ele>59.75</ele>
        <time>2021-03-20T18:27:03Z</time>
      </trkpt>
      <trkpt lat="50.49408" lon="3.68626">
        <ele>58.3</ele>
        <time>2021-03-20T18:27:09Z</time>
      </trkpt>
      <trkpt lat="50.49487" lon="3.68525">
        <ele>58.42</ele>
        <time>2021-03-20T18:27:15Z</time>
      </trkpt>
      <trkpt lat="50.49529" lon="3.68477">
        <ele>60.25</ele>
        <time>2021-03-20T18:27:21Z</time>
      </trkpt>
      <trkpt lat="50.49572" lon="3.68434">
        <ele>58.98</ele>
        <time>2021-03-20T18:27:27Z</time>
      </trkpt>
      <trkpt lat="50.49661" lon="3.68358">
        <ele>58.63</ele>
        <time>2021-03-20T18:27:33Z</time>
      </trkpt>
      <trkpt lat="50.49756" lon="3.68291">
        <ele>59.35</ele>
        <time>2021-03-20T18:27:39Z</time>
      </trkpt>
      <trkpt lat="50.4985" lon="3.68233">
        <ele>58.39</ele>
        <time>2021-03-20T18:27:45Z</time>
      </trkpt>
      <trkpt lat="50.50253" lon="3.67996">
        <ele>47.65</ele>
        <time>2021-03-20T18:27:51Z</time>
      </trkpt>
      <trkpt lat="50.50342" lon="3.67936">
        <ele>46.78</ele>
        <time>2021-03-20T18:27:57Z</time>
      </trkpt>
      <trkpt lat="50.50434" lon="3.67867">
        <ele>47.87</ele>
        <time>2021-03-20T18:28:03Z</time>
      </trkpt>
      <trkpt lat="50.50519" lon="3.67792">
        <ele>47.38</ele>
        <time>2021-03-20T18:28:09Z</time>
      </trkpt>
      <trkpt lat="50.50561" lon="3.67751">
        <ele>48.84</ele>
        <time>2021-03-20T18:28:15Z</time>
      </trkpt>
      <trkpt lat="50.50603" lon="3.67707">
        <ele>47.66</ele>
        <time>2021-03-20T18:28:21Z</time>
      </trkpt>
      <trkpt lat="50.50643" lon="3.6766">
        <ele>47.55</ele>
        <time>2021-03-20T18:28:28Z</time>
      </trkpt>
      <trkpt lat="50.50692" lon="3.67597">
        <ele>48.34</ele>
        <time>2021-03-20T18:28:34Z</time>
      </trkpt>
      <trkpt lat="50.50732" lon="3.67537">
        <ele>49.64</ele>
        <time>2021-03-20T18:28:40Z</time>
      </trkpt>
      <trkpt lat="50.50767" lon="3.67478">
        <ele>45.69</ele>
        <time>2021-03-20T18:28:46Z</time>
      </trkpt>
      <trkpt lat="50.508" lon="3.67413">
        <ele>46</ele>
        <time>2021-03-20T18:28:52Z</time>
      </trkpt>
      <trkpt lat="50.50829" lon="3.67351">
        <ele>47.37</ele>
        <time>2021-03-20T18:28:58Z</time>
      </trkpt>
      <trkpt lat="50.5085" lon="3.673">
        <ele>47.6</ele>
        <time>2021-03-20T18:29:04Z</time>
      </trkpt>
      <trkpt lat="50.50861" lon="3.67288">
        <ele>48</ele>
        <time>2021-03-20T18:29:11Z</time>
      </trkpt>
      <trkpt lat="50.50928" lon="3.67142">
        <ele>47.35</ele>
        <time>2021-03-20T18:29:18Z</time>
      </trkpt>
      <trkpt lat="50.5102" lon="3.66952">
        <ele>51.2</ele>
        <time>2021-03-20T18:29:25Z</time>
      </trkpt>
      <trkpt lat="50.51038" lon="3.66919">
        <ele>51.18</ele>
        <time>2021-03-20T18:29:32Z</time>
      </trkpt>
      <trkpt lat="50.51398" lon="3.67528">
        <ele>50.02</ele>
        <time>2021-03-20T18:30:07Z</time>
      </trkpt>
      <trkpt lat="50.5113" lon="3.68122">
        <ele>54</ele>
        <time>2021-03-20T18:30:22Z</time>
      </trkpt>
      <trkpt lat="50.50992" lon="3.6842">
        <ele>55.77</ele>
        <time>2021-03-20T18:30:36Z</time>
      </trkpt>
      <trkpt lat="50.50812" lon="3.68818">
        <ele>57.11</ele>
        <time>2021-03-20T18:30:50Z</time>
      </trkpt>
      <trkpt lat="50.5069" lon="3.69092">
        <ele>57.22</ele>
        <time>2021-03-20T18:31:04Z</time>
      </trkpt>
      <trkpt lat="50.50637" lon="3.69201">
        <ele>56.88</ele>
        <time>2021-03-20T18:31:19Z</time>
      </trkpt>
      <trkpt lat="50.5055" lon="3.69389">
        <ele>53.22</ele>
        <time>2021-03-20T18:31:33Z</time>
      </trkpt>
      <trkpt lat="50.50794" lon="3.69362">
        <ele>60.08</ele>
        <time>2021-03-20T18:31:47Z</time>
      </trkpt>
      <trkpt lat="50.50994" lon="3.69343">
        <ele>57.31</ele>
        <time>2021-03-20T18:32:02Z</time>
      </trkpt>
      <trkpt lat="50.51628" lon="3.69298">
        <ele>56.94</ele>
        <time>2021-03-20T18:32:16Z</time>
      </trkpt>
      <trkpt lat="50.51845" lon="3.69279">
        <ele>55.57</ele>
        <time>2021-03-20T18:32:31Z</time>
      </trkpt>
      <trkpt lat="50.52177" lon="3.69256">
        <ele>58.68</ele>
        <time>2021-03-20T18:32:46Z</time>
      </trkpt>
      <trkpt lat="50.52601" lon="3.69232">
        <ele>61</ele>
        <time>2021-03-20T18:33:00Z</time>
      </trkpt>
      <trkpt lat="50.5316" lon="3.69195">
        <ele>63.53</ele>
        <time>2021-03-20T18:33:15Z</time>
      </trkpt>
      <trkpt lat="50.53193" lon="3.69197">
        <ele>63.99</ele>
        <time>2021-03-20T18:33:29Z</time>
      </trkpt>
      <trkpt lat="50.53213" lon="3.6921">
        <ele>63.71</ele>
        <time>2021-03-20T18:33:44Z</time>
      </trkpt>
      <trkpt lat="50.53279" lon="3.69233">
        <ele>60</ele>
        <time>2021-03-20T18:33:58Z</time>
      </trkpt>
      <trkpt lat="50.53312" lon="3.69246">
        <ele>60.22</ele>
        <time>2021-03-20T18:34:13Z</time>
      </trkpt>
      <trkpt lat="50.53346" lon="3.69249">
        <ele>60.55</ele>
        <time>2021-03-20T18:34:28Z</time>
      </trkpt>
      <trkpt lat="50.53499" lon="3.69203">
        <ele>60.31</ele>
        <time>2021-03-20T18:34:42Z</time>
      </trkpt>
      <trkpt lat="50.53589" lon="3.69173">
        <ele>60</ele>
        <time>2021-03-20T18:34:57Z</time>
      </trkpt>
      <trkpt lat="50.53718" lon="3.69148">
        <ele>60.47</ele>
        <time>2021-03-20T18:35:11Z</time>
      </trkpt>
      <trkpt lat="50.54093" lon="3.69121">
        <ele>62.29</ele>
        <time>2021-03-20T18:35:26Z</time>
      </trkpt>
      <trkpt lat="50.54232" lon="3.69108">
        <ele>64.54</ele>
        <time>2021-03-20T18:35:40Z</time>
      </trkpt>
      <trkpt lat="50.54861" lon="3.69062">
        <ele>76.98</ele>
        <time>2021-03-20T18:35:55Z</time>
      </trkpt>
      <trkpt lat="50.55244" lon="3.69048">
        <ele>63.37</ele>
        <time>2021-03-20T18:36:09Z</time>
      </trkpt>
      <trkpt lat="50.5576" lon="3.6902">
        <ele>66.65</ele>
        <time>2021-03-20T18:36:24Z</time>
      </trkpt>
      <trkpt lat="50.55842" lon="3.69013">
        <ele>65.32</ele>
        <time>2021-03-20T18:36:39Z</time>
      </trkpt>
      <trkpt lat="50.55847" lon="3.68989">
        <ele>64.41</ele>
        <time>2021-03-20T18:36:44Z</time>
      </trkpt>
      <trkpt lat="50.55971" lon="3.68686">
        <ele>61.33</ele>
        <time>2021-03-20T18:36:50Z</time>
      </trkpt>
      <trkpt lat="50.5603" lon="3.68535">
        <ele>61.85</ele>
        <time>2021-03-20T18:36:55Z</time>
      </trkpt>
      <trkpt lat="50.56187" lon="3.67952">
        <ele>59.73</ele>
        <time>2021-03-20T18:37:00Z</time>
      </trkpt>
      <trkpt lat="50.56196" lon="3.67924">
        <ele>59.31</ele>
        <time>2021-03-20T18:37:06Z</time>
      </trkpt>
      <trkpt lat="50.5626" lon="3.67775">
        <ele>57.63</ele>
        <time>2021-03-20T18:37:11Z</time>
      </trkpt>
      <trkpt lat="50.56273" lon="3.67735">
        <ele>57.18</ele>
        <time>2021-03-20T18:37:17Z</time>
      </trkpt>
      <trkpt lat="50.56276" lon="3.67691">
        <ele>58</ele>
        <time>2021-03-20T18:37:22Z</time>
      </trkpt>
      <trkpt lat="50.56297" lon="3.67691">
        <ele>58</ele>
        <time>2021-03-20T18:37:28Z</time>
      </trkpt>
      <trkpt lat="50.56376" lon="3.67781">
        <ele>55.92</ele>
        <time>2021-03-20T18:37:34Z</time>
      </trkpt>
      <trkpt lat="50.56476" lon="3.67874">
        <ele>55.92</ele>
        <time>2021-03-20T18:37:40Z</time>
      </trkpt>
      <trkpt lat="50.56535" lon="3.67901">
        <ele>55.27</ele>
        <time>2021-03-20T18:37:46Z</time>
      </trkpt>
      <trkpt lat="50.56801" lon="3.68037">
        <ele>58.95</ele>
        <time>2021-03-20T18:37:52Z</time>
      </trkpt>
      <trkpt lat="50.56833" lon="3.68046">
        <ele>58.66</ele>
        <time>2021-03-20T18:37:58Z</time>
      </trkpt>
      <trkpt lat="50.56858" lon="3.68048">
        <ele>58.73</ele>
        <time>2021-03-20T18:38:04Z</time>
      </trkpt>
      <trkpt lat="50.5697" lon="3.68036">
        <ele>57.26</ele>
        <time>2021-03-20T18:38:10Z</time>
      </trkpt>
      <trkpt lat="50.56984" lon="3.68038">
        <ele>57.63</ele>
        <time>2021-03-20T18:38:16Z</time>
      </trkpt>
      <trkpt lat="50.57085" lon="3.68071">
        <ele>57</ele>
        <time>2021-03-20T18:38:22Z</time>
      </trkpt>
      <trkpt lat="50.57248" lon="3.68145">
        <ele>54.8</ele>
        <time>2021-03-20T18:38:27Z</time>
      </trkpt>
      <trkpt lat="50.57331" lon="3.68187">
        <ele>54.07</ele>
        <time>2021-03-20T18:38:33Z</time>
      </trkpt>
      <trkpt lat="50.57358" lon="3.68211">
        <ele>52.76</ele>
        <time>2021-03-20T18:38:39Z</time>
      </trkpt>
      <trkpt lat="50.57525" lon="3.68374">
        <ele>51.11</ele>
        <time>2021-03-20T18:38:45Z</time>
      </trkpt>
      <trkpt lat="50.57561" lon="3.68399">
        <ele>49.82</ele>
        <time>2021-03-20T18:38:51Z</time>
      </trkpt>
      <trkpt lat="50.57624" lon="3.68434">
        <ele>48.64</ele>
        <time>2021-03-20T18:38:57Z</time>
      </trkpt>
      <trkpt lat="50.57817" lon="3.68513">
        <ele>50.41</ele>
        <time>2021-03-20T18:39:03Z</time>
      </trkpt>
      <trkpt lat="50.57924" lon="3.6858">
        <ele>50</ele>
        <time>2021-03-20T18:39:09Z</time>
      </trkpt>
      <trkpt lat="50.58023" lon="3.68653">
        <ele>52.33</ele>
        <time>2021-03-20T18:39:15Z</time>
      </trkpt>
      <trkpt lat="50.58352" lon="3.68911">
        <ele>53.34</ele>
        <time>2021-03-20T18:39:21Z</time>
      </trkpt>
      <trkpt lat="50.58404" lon="3.68961">
        <ele>54.06</ele>
        <time>2021-03-20T18:39:27Z</time>
      </trkpt>
      <trkpt lat="50.58471" lon="3.6904">
        <ele>53.02</ele>
        <time>2021-03-20T18:39:33Z</time>
      </trkpt>
      <trkpt lat="50.58495" lon="3.69065">
        <ele>52.16</ele>
        <time>2021-03-20T18:39:38Z</time>
      </trkpt>
      <trkpt lat="50.58523" lon="3.69084">
        <ele>52.85</ele>
        <time>2021-03-20T18:39:44Z</time>
      </trkpt>
      <trkpt lat="50.58635" lon="3.69149">
        <ele>51.43</ele>
        <time>2021-03-20T18:39:50Z</time>
      </trkpt>
      <trkpt lat="50.58657" lon="3.69156">
        <ele>51.22</ele>
        <time>2021-03-20T18:39:56Z</time>
      </trkpt>
      <trkpt lat="50.58891" lon="3.69187">
        <ele>48.74</ele>
        <time>2021-03-20T18:40:02Z</time>
      </trkpt>
      <trkpt lat="50.58944" lon="3.69201">
        <ele>49</ele>
        <time>2021-03-20T18:40:08Z</time>
      </trkpt>
      <trkpt lat="50.58942" lon="3.69224">
        <ele>49</ele>
        <time>2021-03-20T18:40:13Z</time>
      </trkpt>
      <trkpt lat="50.59015" lon="3.69361">
        <ele>50</ele>
        <time>2021-03-20T18:40:18Z</time>
      </trkpt>
      <trkpt lat="50.59065" lon="3.6948">
        <ele>49.83</ele>
        <time>2021-03-20T18:40:23Z</time>
      </trkpt>
      <trkpt lat="50.5909" lon="3.69533">
        <ele>50.05</ele>
        <time>2021-03-20T18:40:28Z</time>
      </trkpt>
      <trkpt lat="50.59148" lon="3.69641">
        <ele>50.94</ele>
        <time>2021-03-20T18:40:33Z</time>
      </trkpt>
      <trkpt lat="50.59165" lon="3.69663">
        <ele>50.13</ele>
        <time>2021-03-20T18:40:39Z</time>
      </trkpt>
      <trkpt lat="50.5933" lon="3.69828">
        <ele>48.71</ele>
        <time>2021-03-20T18:40:44Z</time>
      </trkpt>
      <trkpt lat="50.59366" lon="3.69875">
        <ele>49.08</ele>
        <time>2021-03-20T18:40:49Z</time>
      </trkpt>
      <trkpt lat="50.5939" lon="3.69915">
        <ele>49.07</ele>
        <time>2021-03-20T18:40:54Z</time>
      </trkpt>
      <trkpt lat="50.59508" lon="3.70174">
        <ele>46.3</ele>
        <time>2021-03-20T18:40:59Z</time>
      </trkpt>
      <trkpt lat="50.59556" lon="3.70294">
        <ele>46</ele>
        <time>2021-03-20T18:41:04Z</time>
      </trkpt>
      <trkpt lat="50.59573" lon="3.70329">
        <ele>46</ele>
        <time>2021-03-20T18:41:09Z</time>
      </trkpt>
      <trkpt lat="50.59688" lon="3.7054">
        <ele>44.31</ele>
        <time>2021-03-20T18:41:14Z</time>
      </trkpt>
      <trkpt lat="50.59743" lon="3.70539">
        <ele>45.15</ele>
        <time>2021-03-20T18:41:18Z</time>
      </trkpt>
      <trkpt lat="50.59811" lon="3.70554">
        <ele>44.6</ele>
        <time>2021-03-20T18:41:22Z</time>
      </trkpt>
      <trkpt lat="50.59842" lon="3.70575">
        <ele>43.31</ele>
        <time>2021-03-20T18:41:25Z</time>
      </trkpt>
      <trkpt lat="50.59888" lon="3.70615">
        <ele>44.84</ele>
        <time>2021-03-20T18:41:29Z</time>
      </trkpt>
      <trkpt lat="50.59935" lon="3.70651">
        <ele>44.21</ele>
        <time>2021-03-20T18:41:33Z</time>
      </trkpt>
      <trkpt lat="50.60047" lon="3.70752">
        <ele>42.68</ele>
        <time>2021-03-20T18:41:37Z</time>
      </trkpt>
      <trkpt lat="50.60171" lon="3.7084">
        <ele>43.86</ele>
        <time>2021-03-20T18:41:41Z</time>
      </trkpt>
      <trkpt lat="50.60368" lon="3.70976">
        <ele>47.02</ele>
        <time>2021-03-20T18:41:44Z</time>
      </trkpt>
      <trkpt lat="50.60427" lon="3.70998">
        <ele>46.08</ele>
        <time>2021-03-20T18:41:48Z</time>
      </trkpt>
      <trkpt lat="50.60484" lon="3.71013">
        <ele>46.24</ele>
        <time>2021-03-20T18:41:52Z</time>
      </trkpt>
      <trkpt lat="50.6071" lon="3.70992">
        <ele>46.55</ele>
        <time>2021-03-20T18:41:56Z</time>
      </trkpt>
      <trkpt lat="50.60775" lon="3.70995">
        <ele>44.74</ele>
        <time>2021-03-20T18:41:59Z</time>
      </trkpt>
      <trkpt lat="50.60823" lon="3.70989">
        <ele>44.17</ele>
        <time>2021-03-20T18:42:03Z</time>
      </trkpt>
      <trkpt lat="50.60876" lon="3.70963">
        <ele>41.65</ele>
        <time>2021-03-20T18:42:07Z</time>
      </trkpt>
      <trkpt lat="50.60901" lon="3.70963">
        <ele>41.21</ele>
        <time>2021-03-20T18:42:11Z</time>
      </trkpt>
      <trkpt lat="50.60939" lon="3.70985">
        <ele>41.1</ele>
        <time>2021-03-20T18:42:14Z</time>
      </trkpt>
      <trkpt lat="50.61013" lon="3.71051">
        <ele>41.79</ele>
        <time>2021-03-20T18:42:18Z</time>
      </trkpt>
      <trkpt lat="50.61087" lon="3.71124">
        <ele>40.79</ele>
        <time>2021-03-20T18:42:22Z</time>
      </trkpt>
      <trkpt lat="50.61109" lon="3.7116">
        <ele>40.81</ele>
        <time>2021-03-20T18:42:26Z</time>
      </trkpt>
      <trkpt lat="50.61153" lon="3.71221">
        <ele>41.44</ele>
        <time>2021-03-20T18:42:30Z</time>
      </trkpt>
      <trkpt lat="50.61377" lon="3.71272">
        <ele>43.44</ele>
        <time>2021-03-20T18:42:33Z</time>
      </trkpt>
      <trkpt lat="50.61416" lon="3.71276">
        <ele>42.91</ele>
        <time>2021-03-20T18:42:37Z</time>
      </trkpt>
      <trkpt lat="50.61443" lon="3.71267">
        <ele>42.85</ele>
        <time>2021-03-20T18:42:41Z</time>
      </trkpt>
      <trkpt lat="50.61541" lon="3.71228">
        <ele>39.3</ele>
        <time>2021-03-20T18:42:45Z</time>
      </trkpt>
      <trkpt lat="50.61578" lon="3.71218">
        <ele>39.64</ele>
        <time>2021-03-20T18:42:48Z</time>
      </trkpt>
      <trkpt lat="50.61598" lon="3.71207">
        <ele>39.46</ele>
        <time>2021-03-20T18:42:52Z</time>
      </trkpt>
      <trkpt lat="50.61627" lon="3.71183">
        <ele>39</ele>
        <time>2021-03-20T18:42:56Z</time>
      </trkpt>
      <trkpt lat="50.61658" lon="3.71149">
        <ele>39.41</ele>
        <time>2021-03-20T18:43:00Z</time>
      </trkpt>
      <trkpt lat="50.617" lon="3.71093">
        <ele>40.44</ele>
        <time>2021-03-20T18:43:04Z</time>
      </trkpt>
      <trkpt lat="50.61718" lon="3.71063">
        <ele>40.24</ele>
        <time>2021-03-20T18:43:07Z</time>
      </trkpt>
      <trkpt lat="50.61731" lon="3.71036">
        <ele>40.39</ele>
        <time>2021-03-20T18:43:11Z</time>
      </trkpt>
      <trkpt lat="50.61744" lon="3.71">
        <ele>41.21</ele>
        <time>2021-03-20T18:43:15Z</time>
      </trkpt>
      <trkpt lat="50.61749" lon="3.70972">
        <ele>42.02</ele>
        <time>2021-03-20T18:43:19Z</time>
      </trkpt>
      <trkpt lat="50.61754" lon="3.70934">
        <ele>42.74</ele>
        <time>2021-03-20T18:43:22Z</time>
      </trkpt>
      <trkpt lat="50.61762" lon="3.70896">
        <ele>42.55</ele>
        <time>2021-03-20T18:43:26Z</time>
      </trkpt>
      <trkpt lat="50.61773" lon="3.70863">
        <ele>42.76</ele>
        <time>2021-03-20T18:43:30Z</time>
      </trkpt>
      <trkpt lat="50.61803" lon="3.70792">
        <ele>42.9</ele>
        <time>2021-03-20T18:43:34Z</time>
      </trkpt>
      <trkpt lat="50.61855" lon="3.70682">
        <ele>42.85</ele>
        <time>2021-03-20T18:43:38Z</time>
      </trkpt>
      <trkpt lat="50.61861" lon="3.70661">
        <ele>43.02</ele>
        <time>2021-03-20T18:43:41Z</time>
      </trkpt>
      <trkpt lat="50.62039" lon="3.70545">
        <ele>38.59</ele>
        <time>2021-03-20T18:43:45Z</time>
      </trkpt>
      <trkpt lat="50.62079" lon="3.70498">
        <ele>37.95</ele>
        <time>2021-03-20T18:43:49Z</time>
      </trkpt>
      <trkpt lat="50.6209" lon="3.70489">
        <ele>37.46</ele>
        <time>2021-03-20T18:43:53Z</time>
      </trkpt>
      <trkpt lat="50.62133" lon="3.70464">
        <ele>37.77</ele>
        <time>2021-03-20T18:43:56Z</time>
      </trkpt>
      <trkpt lat="50.62148" lon="3.70461">
        <ele>38</ele>
        <time>2021-03-20T18:44:00Z</time>
      </trkpt>
      <trkpt lat="50.62178" lon="3.70477">
        <ele>37.89</ele>
        <time>2021-03-20T18:44:04Z</time>
      </trkpt>
      <trkpt lat="50.62213" lon="3.70438">
        <ele>38.74</ele>
        <time>2021-03-20T18:44:08Z</time>
      </trkpt>
      <trkpt lat="50.62227" lon="3.70427">
        <ele>39.12</ele>
        <time>2021-03-20T18:44:12Z</time>
      </trkpt>
      <trkpt lat="50.62269" lon="3.70402">
        <ele>40.35</ele>
        <time>2021-03-20T18:44:15Z</time>
      </trkpt>
      <trkpt lat="50.62451" lon="3.70305">
        <ele>46.78</ele>
        <time>2021-03-20T18:44:19Z</time>
      </trkpt>
      <trkpt lat="50.62482" lon="3.70302">
        <ele>46</ele>
        <time>2021-03-20T18:44:23Z</time>
      </trkpt>
      <trkpt lat="50.62536" lon="3.70314">
        <ele>45.5</ele>
        <time>2021-03-20T18:44:27Z</time>
      </trkpt>
      <trkpt lat="50.62561" lon="3.70312">
        <ele>44.82</ele>
        <time>2021-03-20T18:44:31Z</time>
      </trkpt>
      <trkpt lat="50.62573" lon="3.70296">
        <ele>44.39</ele>
        <time>2021-03-20T18:44:38Z</time>
      </trkpt>
      <trkpt lat="50.6278" lon="3.69911">
        <ele>47.06</ele>
        <time>2021-03-20T18:44:45Z</time>
      </trkpt>
      <trkpt lat="50.628" lon="3.69892">
        <ele>47.8</ele>
        <time>2021-03-20T18:44:51Z</time>
      </trkpt>
      <trkpt lat="50.62815" lon="3.69882">
        <ele>48.62</ele>
        <time>2021-03-20T18:45:04Z</time>
      </trkpt>
      <trkpt lat="50.63307" lon="3.69973">
        <ele>59.08</ele>
        <time>2021-03-20T18:45:17Z</time>
      </trkpt>
      <trkpt lat="50.63448" lon="3.70012">
        <ele>65.23</ele>
        <time>2021-03-20T18:45:29Z</time>
      </trkpt>
      <trkpt lat="50.63551" lon="3.70024">
        <ele>70.41</ele>
        <time>2021-03-20T18:45:34Z</time>
      </trkpt>
      <trkpt lat="50.63993" lon="3.70089">
        <ele>45.81</ele>
        <time>2021-03-20T18:45:39Z</time>
      </trkpt>
      <trkpt lat="50.64572" lon="3.70197">
        <ele>63.63</ele>
        <time>2021-03-20T18:45:44Z</time>
      </trkpt>
      <trkpt lat="50.64684" lon="3.70203">
        <ele>67.42</ele>
        <time>2021-03-20T18:45:49Z</time>
      </trkpt>
      <trkpt lat="50.64729" lon="3.70202">
        <ele>72.42</ele>
        <time>2021-03-20T18:45:54Z</time>
      </trkpt>
      <trkpt lat="50.64828" lon="3.7023">
        <ele>70.22</ele>
        <time>2021-03-20T18:45:59Z</time>
      </trkpt>
      <trkpt lat="50.6487" lon="3.7024">
        <ele>65.67</ele>
        <time>2021-03-20T18:46:04Z</time>
      </trkpt>
      <trkpt lat="50.64986" lon="3.70262">
        <ele>62.01</ele>
        <time>2021-03-20T18:46:09Z</time>
      </trkpt>
      <trkpt lat="50.6509" lon="3.70266">
        <ele>58.43</ele>
        <time>2021-03-20T18:46:14Z</time>
      </trkpt>
      <trkpt lat="50.65175" lon="3.70265">
        <ele>56.44</ele>
        <time>2021-03-20T18:46:19Z</time>
      </trkpt>
      <trkpt lat="50.65214" lon="3.70268">
        <ele>55.56</ele>
        <time>2021-03-20T18:46:24Z</time>
      </trkpt>
      <trkpt lat="50.6523" lon="3.70278">
        <ele>56.28</ele>
        <time>2021-03-20T18:46:29Z</time>
      </trkpt>
      <trkpt lat="50.65247" lon="3.70293">
        <ele>56.88</ele>
        <time>2021-03-20T18:46:34Z</time>
      </trkpt>
      <trkpt lat="50.65261" lon="3.70302">
        <ele>57</ele>
        <time>2021-03-20T18:46:39Z</time>
      </trkpt>
      <trkpt lat="50.65277" lon="3.70306">
        <ele>57</ele>
        <time>2021-03-20T18:46:44Z</time>
      </trkpt>
      <trkpt lat="50.65292" lon="3.70306">
        <ele>56.49</ele>
        <time>2021-03-20T18:46:49Z</time>
      </trkpt>
      <trkpt lat="50.65318" lon="3.70301">
        <ele>56.81</ele>
        <time>2021-03-20T18:46:54Z</time>
      </trkpt>
      <trkpt lat="50.65352" lon="3.70292">
        <ele>58.17</ele>
        <time>2021-03-20T18:46:59Z</time>
      </trkpt>
      <trkpt lat="50.65409" lon="3.70293">
        <ele>61.05</ele>
        <time>2021-03-20T18:47:04Z</time>
      </trkpt>
      <trkpt lat="50.65528" lon="3.70275">
        <ele>69.89</ele>
        <time>2021-03-20T18:47:09Z</time>
      </trkpt>
      <trkpt lat="50.65545" lon="3.70278">
        <ele>70.63</ele>
        <time>2021-03-20T18:47:14Z</time>
      </trkpt>
      <trkpt lat="50.65637" lon="3.70312">
        <ele>77.16</ele>
        <time>2021-03-20T18:47:19Z</time>
      </trkpt>
      <trkpt lat="50.65703" lon="3.7033">
        <ele>82.46</ele>
        <time>2021-03-20T18:47:24Z</time>
      </trkpt>
      <trkpt lat="50.65728" lon="3.70312">
        <ele>85.42</ele>
        <time>2021-03-20T18:47:29Z</time>
      </trkpt>
      <trkpt lat="50.65757" lon="3.70284">
        <ele>92.43</ele>
        <time>2021-03-20T18:47:34Z</time>
      </trkpt>
      <trkpt lat="50.6578" lon="3.70228">
        <ele>97.47</ele>
        <time>2021-03-20T18:47:39Z</time>
      </trkpt>
      <trkpt lat="50.65785" lon="3.70204">
        <ele>97.74</ele>
        <time>2021-03-20T18:47:44Z</time>
      </trkpt>
      <trkpt lat="50.65786" lon="3.70181">
        <ele>96.95</ele>
        <time>2021-03-20T18:47:49Z</time>
      </trkpt>
      <trkpt lat="50.65782" lon="3.7011">
        <ele>96.49</ele>
        <time>2021-03-20T18:47:54Z</time>
      </trkpt>
      <trkpt lat="50.65783" lon="3.70085">
        <ele>96.4</ele>
        <time>2021-03-20T18:47:59Z</time>
      </trkpt>
      <trkpt lat="50.65791" lon="3.70058">
        <ele>96.95</ele>
        <time>2021-03-20T18:48:04Z</time>
      </trkpt>
      <trkpt lat="50.65812" lon="3.70012">
        <ele>97.11</ele>
        <time>2021-03-20T18:48:09Z</time>
      </trkpt>
      <trkpt lat="50.65893" lon="3.69922">
        <ele>94.79</ele>
        <time>2021-03-20T18:48:14Z</time>
      </trkpt>
      <trkpt lat="50.65951" lon="3.69879">
        <ele>92.47</ele>
        <time>2021-03-20T18:48:19Z</time>
      </trkpt>
      <trkpt lat="50.66033" lon="3.69839">
        <ele>89.18</ele>
        <time>2021-03-20T18:48:24Z</time>
      </trkpt>
      <trkpt lat="50.66169" lon="3.69809">
        <ele>87.07</ele>
        <time>2021-03-20T18:48:29Z</time>
      </trkpt>
      <trkpt lat="50.66414" lon="3.69865">
        <ele>81.94</ele>
        <time>2021-03-20T18:48:34Z</time>
      </trkpt>
      <trkpt lat="50.66471" lon="3.69895">
        <ele>80.78</ele>
        <time>2021-03-20T18:48:39Z</time>
      </trkpt>
      <trkpt lat="50.66626" lon="3.70015">
        <ele>74.68</ele>
        <time>2021-03-20T18:48:44Z</time>
      </trkpt>
      <trkpt lat="50.66742" lon="3.70135">
        <ele>71</ele>
        <time>2021-03-20T18:48:48Z</time>
      </trkpt>
      <trkpt lat="50.67029" lon="3.70372">
        <ele>60.57</ele>
        <time>2021-03-20T18:48:53Z</time>
      </trkpt>
      <trkpt lat="50.67154" lon="3.70468">
        <ele>61.54</ele>
        <time>2021-03-20T18:48:58Z</time>
      </trkpt>
      <trkpt lat="50.67186" lon="3.70501">
        <ele>63.34</ele>
        <time>2021-03-20T18:49:03Z</time>
      </trkpt>
      <trkpt lat="50.67218" lon="3.70557">
        <ele>61.96</ele>
        <time>2021-03-20T18:49:08Z</time>
      </trkpt>
      <trkpt lat="50.67247" lon="3.70651">
        <ele>58.52</ele>
        <time>2021-03-20T18:49:13Z</time>
      </trkpt>
      <trkpt lat="50.67253" lon="3.70668">
        <ele>58.12</ele>
        <time>2021-03-20T18:49:18Z</time>
      </trkpt>
      <trkpt lat="50.67269" lon="3.70693">
        <ele>58.68</ele>
        <time>2021-03-20T18:49:23Z</time>
      </trkpt>
      <trkpt lat="50.67288" lon="3.70712">
        <ele>58.22</ele>
        <time>2021-03-20T18:49:28Z</time>
      </trkpt>
      <trkpt lat="50.67317" lon="3.70729">
        <ele>58</ele>
        <time>2021-03-20T18:49:33Z</time>
      </trkpt>
      <trkpt lat="50.67487" lon="3.70772">
        <ele>56.13</ele>
        <time>2021-03-20T18:49:38Z</time>
      </trkpt>
      <trkpt lat="50.67585" lon="3.7079">
        <ele>50</ele>
        <time>2021-03-20T18:49:43Z</time>
      </trkpt>
      <trkpt lat="50.67711" lon="3.7083">
        <ele>48.32</ele>
        <time>2021-03-20T18:49:48Z</time>
      </trkpt>
      <trkpt lat="50.67743" lon="3.70844">
        <ele>47.25</ele>
        <time>2021-03-20T18:49:53Z</time>
      </trkpt>
      <trkpt lat="50.67878" lon="3.70879">
        <ele>50.98</ele>
        <time>2021-03-20T18:49:58Z</time>
      </trkpt>
      <trkpt lat="50.68129" lon="3.70951">
        <ele>54.68</ele>
        <time>2021-03-20T18:50:03Z</time>
      </trkpt>
      <trkpt lat="50.68155" lon="3.70965">
        <ele>54.42</ele>
        <time>2021-03-20T18:50:08Z</time>
      </trkpt>
      <trkpt lat="50.68222" lon="3.7102">
        <ele>55.02</ele>
        <time>2021-03-20T18:50:13Z</time>
      </trkpt>
      <trkpt lat="50.68249" lon="3.71038">
        <ele>52.13</ele>
        <time>2021-03-20T18:50:18Z</time>
      </trkpt>
      <trkpt lat="50.68609" lon="3.71199">
        <ele>40.94</ele>
        <time>2021-03-20T18:50:23Z</time>
      </trkpt>
      <trkpt lat="50.68759" lon="3.7128">
        <ele>45.6</ele>
        <time>2021-03-20T18:50:28Z</time>
      </trkpt>
      <trkpt lat="50.68782" lon="3.7129">
        <ele>46.74</ele>
        <time>2021-03-20T18:50:33Z</time>
      </trkpt>
      <trkpt lat="50.68809" lon="3.71296">
        <ele>47.43</ele>
        <time>2021-03-20T18:50:38Z</time>
      </trkpt>
      <trkpt lat="50.68833" lon="3.71299">
        <ele>48</ele>
        <time>2021-03-20T18:50:43Z</time>
      </trkpt>
      <trkpt lat="50.68859" lon="3.71297">
        <ele>48</ele>
        <time>2021-03-20T18:50:48Z</time>
      </trkpt>
      <trkpt lat="50.68891" lon="3.71291">
        <ele>45.97</ele>
        <time>2021-03-20T18:50:53Z</time>
      </trkpt>
      <trkpt lat="50.68918" lon="3.7128">
        <ele>45.17</ele>
        <time>2021-03-20T18:50:58Z</time>
      </trkpt>
      <trkpt lat="50.68949" lon="3.71263">
        <ele>47.3</ele>
        <time>2021-03-20T18:51:03Z</time>
      </trkpt>
      <trkpt lat="50.69033" lon="3.71203">
        <ele>51.68</ele>
        <time>2021-03-20T18:51:08Z</time>
      </trkpt>
      <trkpt lat="50.69071" lon="3.71186">
        <ele>54.5</ele>
        <time>2021-03-20T18:51:13Z</time>
      </trkpt>
      <trkpt lat="50.69104" lon="3.71181">
        <ele>56.23</ele>
        <time>2021-03-20T18:51:18Z</time>
      </trkpt>
      <trkpt lat="50.69134" lon="3.71183">
        <ele>58.24</ele>
        <time>2021-03-20T18:51:23Z</time>
      </trkpt>
      <trkpt lat="50.69241" lon="3.71215">
        <ele>64.89</ele>
        <time>2021-03-20T18:51:28Z</time>
      </trkpt>
      <trkpt lat="50.69306" lon="3.71232">
        <ele>68.02</ele>
        <time>2021-03-20T18:51:33Z</time>
      </trkpt>
      <trkpt lat="50.69399" lon="3.71247">
        <ele>64.57</ele>
        <time>2021-03-20T18:51:38Z</time>
      </trkpt>
      <trkpt lat="50.6941" lon="3.71253">
        <ele>64.33</ele>
        <time>2021-03-20T18:51:43Z</time>
      </trkpt>
      <trkpt lat="50.69425" lon="3.71251">
        <ele>64.32</ele>
        <time>2021-03-20T18:51:48Z</time>
      </trkpt>
      <trkpt lat="50.69462" lon="3.71257">
        <ele>65</ele>
        <time>2021-03-20T18:51:53Z</time>
      </trkpt>
      <trkpt lat="50.69528" lon="3.71274">
        <ele>62.86</ele>
        <time>2021-03-20T18:51:58Z</time>
      </trkpt>
      <trkpt lat="50.69648" lon="3.71298">
        <ele>59.76</ele>
        <time>2021-03-20T18:52:03Z</time>
      </trkpt>
      <trkpt lat="50.70134" lon="3.71429">
        <ele>47.64</ele>
        <time>2021-03-20T18:52:08Z</time>
      </trkpt>
      <trkpt lat="50.70431" lon="3.71501">
        <ele>48.44</ele>
        <time>2021-03-20T18:52:13Z</time>
      </trkpt>
      <trkpt lat="50.70557" lon="3.7154">
        <ele>45.14</ele>
        <time>2021-03-20T18:52:18Z</time>
      </trkpt>
      <trkpt lat="50.70928" lon="3.71626">
        <ele>40.4</ele>
        <time>2021-03-20T18:52:23Z</time>
      </trkpt>
      <trkpt lat="50.71329" lon="3.71734">
        <ele>38.83</ele>
        <time>2021-03-20T18:52:28Z</time>
      </trkpt>
      <trkpt lat="50.71726" lon="3.71827">
        <ele>58.35</ele>
        <time>2021-03-20T18:52:33Z</time>
      </trkpt>
      <trkpt lat="50.7175" lon="3.71828">
        <ele>59.18</ele>
        <time>2021-03-20T18:52:38Z</time>
      </trkpt>
      <trkpt lat="50.71795" lon="3.71823">
        <ele>60</ele>
        <time>2021-03-20T18:52:43Z</time>
      </trkpt>
      <trkpt lat="50.71809" lon="3.71824">
        <ele>59.86</ele>
        <time>2021-03-20T18:52:48Z</time>
      </trkpt>
      <trkpt lat="50.721" lon="3.71901">
        <ele>42.61</ele>
        <time>2021-03-20T18:52:53Z</time>
      </trkpt>
      <trkpt lat="50.72275" lon="3.71944">
        <ele>39.91</ele>
        <time>2021-03-20T18:52:58Z</time>
      </trkpt>
      <trkpt lat="50.72562" lon="3.72006">
        <ele>33.57</ele>
        <time>2021-03-20T18:53:03Z</time>
      </trkpt>
      <trkpt lat="50.72708" lon="3.72046">
        <ele>29.33</ele>
        <time>2021-03-20T18:53:08Z</time>
      </trkpt>
      <trkpt lat="50.72775" lon="3.72062">
        <ele>29.09</ele>
        <time>2021-03-20T18:53:13Z</time>
      </trkpt>
      <trkpt lat="50.7282" lon="3.72069">
        <ele>30</ele>
        <time>2021-03-20T18:53:18Z</time>
      </trkpt>
      <trkpt lat="50.73051" lon="3.72083">
        <ele>34.02</ele>
        <time>2021-03-20T18:53:23Z</time>
      </trkpt>
      <trkpt lat="50.73126" lon="3.72086">
        <ele>34.92</ele>
        <time>2021-03-20T18:53:28Z</time>
      </trkpt>
      <trkpt lat="50.73143" lon="3.72084">
        <ele>35.12</ele>
        <time>2021-03-20T18:53:33Z</time>
      </trkpt>
      <trkpt lat="50.73188" lon="3.7207">
        <ele>36.77</ele>
        <time>2021-03-20T18:53:38Z</time>
      </trkpt>
      <trkpt lat="50.73332" lon="3.7199">
        <ele>38.96</ele>
        <time>2021-03-20T18:53:43Z</time>
      </trkpt>
      <trkpt lat="50.73381" lon="3.72212">
        <ele>45.26</ele>
        <time>2021-03-20T18:53:50Z</time>
      </trkpt>
      <trkpt lat="50.7342" lon="3.72219">
        <ele>49.03</ele>
        <time>2021-03-20T18:53:57Z</time>
      </trkpt>
      <trkpt lat="50.73418" lon="3.72104">
        <ele>49.18</ele>
        <time>2021-03-20T18:54:01Z</time>
      </trkpt>
      <trkpt lat="50.73423" lon="3.72046">
        <ele>49.64</ele>
        <time>2021-03-20T18:54:05Z</time>
      </trkpt>
      <trkpt lat="50.7343" lon="3.72021">
        <ele>49.82</ele>
        <time>2021-03-20T18:54:09Z</time>
      </trkpt>
      <trkpt lat="50.73445" lon="3.71979">
        <ele>50.78</ele>
        <time>2021-03-20T18:54:13Z</time>
      </trkpt>
      <trkpt lat="50.73454" lon="3.71946">
        <ele>51.66</ele>
        <time>2021-03-20T18:54:17Z</time>
      </trkpt>
      <trkpt lat="50.73474" lon="3.71793">
        <ele>58.59</ele>
        <time>2021-03-20T18:54:20Z</time>
      </trkpt>
      <trkpt lat="50.73479" lon="3.71768">
        <ele>59.82</ele>
        <time>2021-03-20T18:54:24Z</time>
      </trkpt>
      <trkpt lat="50.7349" lon="3.71725">
        <ele>61.83</ele>
        <time>2021-03-20T18:54:28Z</time>
      </trkpt>
      <trkpt lat="50.73501" lon="3.71698">
        <ele>62.13</ele>
        <time>2021-03-20T18:54:32Z</time>
      </trkpt>
      <trkpt lat="50.73506" lon="3.71689">
        <ele>62.07</ele>
        <time>2021-03-20T18:54:36Z</time>
      </trkpt>
      <trkpt lat="50.73555" lon="3.71652">
        <ele>64.45</ele>
        <time>2021-03-20T18:54:40Z</time>
      </trkpt>
      <trkpt lat="50.73573" lon="3.71633">
        <ele>66.41</ele>
        <time>2021-03-20T18:54:43Z</time>
      </trkpt>
      <trkpt lat="50.73584" lon="3.716">
        <ele>68.41</ele>
        <time>2021-03-20T18:54:47Z</time>
      </trkpt>
      <trkpt lat="50.73588" lon="3.71581">
        <ele>69.18</ele>
        <time>2021-03-20T18:54:51Z</time>
      </trkpt>
      <trkpt lat="50.73628" lon="3.71608">
        <ele>69.71</ele>
        <time>2021-03-20T18:54:54Z</time>
      </trkpt>
      <trkpt lat="50.73697" lon="3.7165">
        <ele>69.9</ele>
        <time>2021-03-20T18:54:57Z</time>
      </trkpt>
      <trkpt lat="50.73705" lon="3.71656">
        <ele>69.61</ele>
        <time>2021-03-20T18:55:00Z</time>
      </trkpt>
      <trkpt lat="50.73743" lon="3.71705">
        <ele>68.07</ele>
        <time>2021-03-20T18:55:03Z</time>
      </trkpt>
      <trkpt lat="50.7378" lon="3.71761">
        <ele>64.06</ele>
        <time>2021-03-20T18:55:06Z</time>
      </trkpt>
      <trkpt lat="50.73797" lon="3.71778">
        <ele>62.31</ele>
        <time>2021-03-20T18:55:09Z</time>
      </trkpt>
      <trkpt lat="50.73827" lon="3.71795">
        <ele>60.45</ele>
        <time>2021-03-20T18:55:12Z</time>
      </trkpt>
      <trkpt lat="50.73837" lon="3.71798">
        <ele>59.73</ele>
        <time>2021-03-20T18:55:15Z</time>
      </trkpt>
      <trkpt lat="50.7385" lon="3.71794">
        <ele>58.78</ele>
        <time>2021-03-20T18:55:18Z</time>
      </trkpt>
      <trkpt lat="50.73858" lon="3.71799">
        <ele>58.22</ele>
        <time>2021-03-20T18:55:21Z</time>
      </trkpt>
      <trkpt lat="50.73866" lon="3.71825">
        <ele>57.48</ele>
        <time>2021-03-20T18:55:24Z</time>
      </trkpt>
      <trkpt lat="50.73868" lon="3.71851">
        <ele>57.25</ele>
        <time>2021-03-20T18:55:27Z</time>
      </trkpt>
      <trkpt lat="50.73866" lon="3.71907">
        <ele>57</ele>
        <time>2021-03-20T18:55:30Z</time>
      </trkpt>
      <trkpt lat="50.73862" lon="3.71939">
        <ele>57</ele>
        <time>2021-03-20T18:55:33Z</time>
      </trkpt>
      <trkpt lat="50.73854" lon="3.71981">
        <ele>56.67</ele>
        <time>2021-03-20T18:55:36Z</time>
      </trkpt>
      <trkpt lat="50.73851" lon="3.72003">
        <ele>55.94</ele>
        <time>2021-03-20T18:55:39Z</time>
      </trkpt>
      <trkpt lat="50.73852" lon="3.72014">
        <ele>55.66</ele>
        <time>2021-03-20T18:55:42Z</time>
      </trkpt>
      <trkpt lat="50.73854" lon="3.72033">
        <ele>55.05</ele>
        <time>2021-03-20T18:55:46Z</time>
      </trkpt>
      <trkpt lat="50.7386" lon="3.72047">
        <ele>54.33</ele>
        <time>2021-03-20T18:55:49Z</time>
      </trkpt>
      <trkpt lat="50.73873" lon="3.72063">
        <ele>54.44</ele>
        <time>2021-03-20T18:55:52Z</time>
      </trkpt>
      <trkpt lat="50.73933" lon="3.7211">
        <ele>58.17</ele>
        <time>2021-03-20T18:55:55Z</time>
      </trkpt>
      <trkpt lat="50.73949" lon="3.72115">
        <ele>59.15</ele>
        <time>2021-03-20T18:55:58Z</time>
      </trkpt>
      <trkpt lat="50.73973" lon="3.72111">
        <ele>60.03</ele>
        <time>2021-03-20T18:56:01Z</time>
      </trkpt>
      <trkpt lat="50.7403" lon="3.72082">
        <ele>65.08</ele>
        <time>2021-03-20T18:56:04Z</time>
      </trkpt>
      <trkpt lat="50.74038" lon="3.72073">
        <ele>65.36</ele>
        <time>2021-03-20T18:56:07Z</time>
      </trkpt>
      <trkpt lat="50.74051" lon="3.72049">
        <ele>65.86</ele>
        <time>2021-03-20T18:56:10Z</time>
      </trkpt>
      <trkpt lat="50.74058" lon="3.72045">
        <ele>66</ele>
        <time>2021-03-20T18:56:13Z</time>
      </trkpt>
      <trkpt lat="50.74064" lon="3.72047">
        <ele>66</ele>
        <time>2021-03-20T18:56:16Z</time>
      </trkpt>
      <trkpt lat="50.74135" lon="3.72097">
        <ele>64.74</ele>
        <time>2021-03-20T18:56:19Z</time>
      </trkpt>
      <trkpt lat="50.74143" lon="3.72101">
        <ele>64.14</ele>
        <time>2021-03-20T18:56:22Z</time>
      </trkpt>
      <trkpt lat="50.74156" lon="3.72058">
        <ele>64.95</ele>
        <time>2021-03-20T18:56:25Z</time>
      </trkpt>
      <trkpt lat="50.74169" lon="3.72023">
        <ele>67.18</ele>
        <time>2021-03-20T18:56:28Z</time>
      </trkpt>
      <trkpt lat="50.74199" lon="3.71952">
        <ele>68.79</ele>
        <time>2021-03-20T18:56:31Z</time>
      </trkpt>
      <trkpt lat="50.74216" lon="3.71907">
        <ele>69</ele>
        <time>2021-03-20T18:56:34Z</time>
      </trkpt>
      <trkpt lat="50.74229" lon="3.71879">
        <ele>69.37</ele>
        <time>2021-03-20T18:56:37Z</time>
      </trkpt>
      <trkpt lat="50.74263" lon="3.71817">
        <ele>69.91</ele>
        <time>2021-03-20T18:56:40Z</time>
      </trkpt>
      <trkpt lat="50.74302" lon="3.71741">
        <ele>71.46</ele>
        <time>2021-03-20T18:56:43Z</time>
      </trkpt>
      <trkpt lat="50.74328" lon="3.71699">
        <ele>72.82</ele>
        <time>2021-03-20T18:56:46Z</time>
      </trkpt>
      <trkpt lat="50.7434" lon="3.71686">
        <ele>72.75</ele>
        <time>2021-03-20T18:56:49Z</time>
      </trkpt>
      <trkpt lat="50.74368" lon="3.71671">
        <ele>71.53</ele>
        <time>2021-03-20T18:56:52Z</time>
      </trkpt>
      <trkpt lat="50.74398" lon="3.71666">
        <ele>69.37</ele>
        <time>2021-03-20T18:56:55Z</time>
      </trkpt>
      <trkpt lat="50.74414" lon="3.71661">
        <ele>68.44</ele>
        <time>2021-03-20T18:56:58Z</time>
      </trkpt>
      <trkpt lat="50.74424" lon="3.71653">
        <ele>67.95</ele>
        <time>2021-03-20T18:57:01Z</time>
      </trkpt>
      <trkpt lat="50.74464" lon="3.71614">
        <ele>65.62</ele>
        <time>2021-03-20T18:57:04Z</time>
      </trkpt>
      <trkpt lat="50.74514" lon="3.7155">
        <ele>63.33</ele>
        <time>2021-03-20T18:57:07Z</time>
      </trkpt>
      <trkpt lat="50.74589" lon="3.71471">
        <ele>57</ele>
        <time>2021-03-20T18:57:10Z</time>
      </trkpt>
      <trkpt lat="50.74693" lon="3.7135">
        <ele>50.13</ele>
        <time>2021-03-20T18:57:13Z</time>
      </trkpt>
      <trkpt lat="50.74734" lon="3.71302">
        <ele>47</ele>
        <time>2021-03-20T18:57:16Z</time>
      </trkpt>
      <trkpt lat="50.74804" lon="3.7122">
        <ele>44.15</ele>
        <time>2021-03-20T18:57:19Z</time>
      </trkpt>
      <trkpt lat="50.74819" lon="3.71206">
        <ele>44.1</ele>
        <time>2021-03-20T18:57:22Z</time>
      </trkpt>
      <trkpt lat="50.75064" lon="3.71051">
        <ele>55.06</ele>
        <time>2021-03-20T18:57:25Z</time>
      </trkpt>
      <trkpt lat="50.75108" lon="3.71017">
        <ele>57.76</ele>
        <time>2021-03-20T18:57:28Z</time>
      </trkpt>
      <trkpt lat="50.75129" lon="3.70993">
        <ele>60.19</ele>
        <time>2021-03-20T18:57:31Z</time>
      </trkpt>
      <trkpt lat="50.75152" lon="3.70952">
        <ele>62.47</ele>
        <time>2021-03-20T18:57:34Z</time>
      </trkpt>
      <trkpt lat="50.75169" lon="3.7091">
        <ele>63.01</ele>
        <time>2021-03-20T18:57:37Z</time>
      </trkpt>
      <trkpt lat="50.75177" lon="3.70884">
        <ele>63.44</ele>
        <time>2021-03-20T18:57:40Z</time>
      </trkpt>
      <trkpt lat="50.75204" lon="3.70775">
        <ele>65.75</ele>
        <time>2021-03-20T18:57:43Z</time>
      </trkpt>
      <trkpt lat="50.75245" lon="3.70572">
        <ele>72.61</ele>
        <time>2021-03-20T18:57:46Z</time>
      </trkpt>
      <trkpt lat="50.75252" lon="3.70543">
        <ele>73.64</ele>
        <time>2021-03-20T18:57:49Z</time>
      </trkpt>
      <trkpt lat="50.753" lon="3.70403">
        <ele>84.88</ele>
        <time>2021-03-20T18:57:52Z</time>
      </trkpt>
      <trkpt lat="50.75309" lon="3.70383">
        <ele>86.15</ele>
        <time>2021-03-20T18:57:55Z</time>
      </trkpt>
      <trkpt lat="50.75317" lon="3.70371">
        <ele>86.57</ele>
        <time>2021-03-20T18:57:58Z</time>
      </trkpt>
      <trkpt lat="50.7534" lon="3.70348">
        <ele>88.09</ele>
        <time>2021-03-20T18:58:01Z</time>
      </trkpt>
      <trkpt lat="50.75358" lon="3.70324">
        <ele>89.95</ele>
        <time>2021-03-20T18:58:04Z</time>
      </trkpt>
      <trkpt lat="50.75368" lon="3.70308">
        <ele>91.43</ele>
        <time>2021-03-20T18:58:07Z</time>
      </trkpt>
      <trkpt lat="50.75415" lon="3.70219">
        <ele>93.03</ele>
        <time>2021-03-20T18:58:10Z</time>
      </trkpt>
      <trkpt lat="50.75442" lon="3.70161">
        <ele>96.02</ele>
        <time>2021-03-20T18:58:13Z</time>
      </trkpt>
      <trkpt lat="50.75449" lon="3.70141">
        <ele>97.25</ele>
        <time>2021-03-20T18:58:16Z</time>
      </trkpt>
      <trkpt lat="50.75454" lon="3.7012">
        <ele>98.14</ele>
        <time>2021-03-20T18:58:19Z</time>
      </trkpt>
      <trkpt lat="50.75457" lon="3.70082">
        <ele>99.44</ele>
        <time>2021-03-20T18:58:22Z</time>
      </trkpt>
      <trkpt lat="50.75455" lon="3.70067">
        <ele>99.4</ele>
        <time>2021-03-20T18:58:25Z</time>
      </trkpt>
      <trkpt lat="50.75448" lon="3.70023">
        <ele>97.95</ele>
        <time>2021-03-20T18:58:28Z</time>
      </trkpt>
      <trkpt lat="50.75406" lon="3.69906">
        <ele>96.25</ele>
        <time>2021-03-20T18:58:31Z</time>
      </trkpt>
      <trkpt lat="50.75386" lon="3.69842">
        <ele>97.57</ele>
        <time>2021-03-20T18:58:34Z</time>
      </trkpt>
      <trkpt lat="50.75369" lon="3.69781">
        <ele>99.46</ele>
        <time>2021-03-20T18:58:37Z</time>
      </trkpt>
      <trkpt lat="50.75357" lon="3.69722">
        <ele>100.4</ele>
        <time>2021-03-20T18:58:40Z</time>
      </trkpt>
      <trkpt lat="50.75347" lon="3.69652">
        <ele>101.04</ele>
        <time>2021-03-20T18:58:43Z</time>
      </trkpt>
      <trkpt lat="50.75342" lon="3.69575">
        <ele>99.83</ele>
        <time>2021-03-20T18:58:46Z</time>
      </trkpt>
      <trkpt lat="50.75344" lon="3.69525">
        <ele>99.24</ele>
        <time>2021-03-20T18:58:49Z</time>
      </trkpt>
      <trkpt lat="50.75349" lon="3.69494">
        <ele>99.4</ele>
        <time>2021-03-20T18:58:52Z</time>
      </trkpt>
      <trkpt lat="50.75354" lon="3.69472">
        <ele>98.53</ele>
        <time>2021-03-20T18:58:55Z</time>
      </trkpt>
      <trkpt lat="50.75362" lon="3.6945">
        <ele>98.47</ele>
        <time>2021-03-20T18:58:58Z</time>
      </trkpt>
      <trkpt lat="50.75381" lon="3.69411">
        <ele>96</ele>
        <time>2021-03-20T18:59:01Z</time>
      </trkpt>
      <trkpt lat="50.75392" lon="3.69395">
        <ele>95.72</ele>
        <time>2021-03-20T18:59:04Z</time>
      </trkpt>
      <trkpt lat="50.75406" lon="3.69379">
        <ele>96.11</ele>
        <time>2021-03-20T18:59:07Z</time>
      </trkpt>
      <trkpt lat="50.75423" lon="3.69364">
        <ele>96.64</ele>
        <time>2021-03-20T18:59:10Z</time>
      </trkpt>
      <trkpt lat="50.75452" lon="3.69344">
        <ele>96.49</ele>
        <time>2021-03-20T18:59:13Z</time>
      </trkpt>
      <trkpt lat="50.75486" lon="3.69328">
        <ele>94.14</ele>
        <time>2021-03-20T18:59:16Z</time>
      </trkpt>
      <trkpt lat="50.75525" lon="3.69312">
        <ele>91.23</ele>
        <time>2021-03-20T18:59:19Z</time>
      </trkpt>
      <trkpt lat="50.75548" lon="3.69297">
        <ele>89.92</ele>
        <time>2021-03-20T18:59:22Z</time>
      </trkpt>
      <trkpt lat="50.75737" lon="3.69055">
        <ele>95.02</ele>
        <time>2021-03-20T18:59:25Z</time>
      </trkpt>
      <trkpt lat="50.75845" lon="3.68893">
        <ele>105.78</ele>
        <time>2021-03-20T18:59:28Z</time>
      </trkpt>
      <trkpt lat="50.75912" lon="3.68768">
        <ele>110.52</ele>
        <time>2021-03-20T18:59:31Z</time>
      </trkpt>
      <trkpt lat="50.75937" lon="3.68728">
        <ele>110.75</ele>
        <time>2021-03-20T18:59:34Z</time>
      </trkpt>
      <trkpt lat="50.76199" lon="3.684">
        <ele>121</ele>
        <time>2021-03-20T18:59:37Z</time>
      </trkpt>
      <trkpt lat="50.76229" lon="3.68368">
        <ele>121.98</ele>
        <time>2021-03-20T18:59:40Z</time>
      </trkpt>
      <trkpt lat="50.76241" lon="3.68363">
        <ele>122.61</ele>
        <time>2021-03-20T18:59:43Z</time>
      </trkpt>
      <trkpt lat="50.7625" lon="3.68353">
        <ele>122.99</ele>
        <time>2021-03-20T18:59:46Z</time>
      </trkpt>
      <trkpt lat="50.76233" lon="3.68257">
        <ele>123.13</ele>
        <time>2021-03-20T18:59:48Z</time>
      </trkpt>
      <trkpt lat="50.76219" lon="3.68197">
        <ele>123.69</ele>
        <time>2021-03-20T18:59:50Z</time>
      </trkpt>
      <trkpt lat="50.76209" lon="3.6816">
        <ele>123.54</ele>
        <time>2021-03-20T18:59:52Z</time>
      </trkpt>
      <trkpt lat="50.76181" lon="3.68076">
        <ele>124</ele>
        <time>2021-03-20T18:59:54Z</time>
      </trkpt>
      <trkpt lat="50.7616" lon="3.68023">
        <ele>124.54</ele>
        <time>2021-03-20T18:59:55Z</time>
      </trkpt>
      <trkpt lat="50.76161" lon="3.68004">
        <ele>124.59</ele>
        <time>2021-03-20T18:59:56Z</time>
      </trkpt>
      <trkpt lat="50.76165" lon="3.67991">
        <ele>124.93</ele>
        <time>2021-03-20T18:59:57Z</time>
      </trkpt>
      <trkpt lat="50.76177" lon="3.67986">
        <ele>125.37</ele>
        <time>2021-03-20T18:59:58Z</time>
      </trkpt>
      <trkpt lat="50.76206" lon="3.6799">
        <ele>126</ele>
        <time>2021-03-20T19:00:05Z</time>
      </trkpt>
      <trkpt lat="50.76238" lon="3.67988">
        <ele>126.82</ele>
        <time>2021-03-20T19:00:11Z</time>
      </trkpt>
      <trkpt lat="50.76504" lon="3.67907">
        <ele>131.41</ele>
        <time>2021-03-20T19:00:17Z</time>
      </trkpt>
      <trkpt lat="50.76543" lon="3.67888">
        <ele>125.79</ele>
        <time>2021-03-20T19:00:24Z</time>
      </trkpt>
      <trkpt lat="50.76567" lon="3.67871">
        <ele>122.96</ele>
        <time>2021-03-20T19:00:30Z</time>
      </trkpt>
      <trkpt lat="50.76669" lon="3.6777">
        <ele>123</ele>
        <time>2021-03-20T19:00:37Z</time>
      </trkpt>
      <trkpt lat="50.76702" lon="3.67734">
        <ele>123</ele>
        <time>2021-03-20T19:00:43Z</time>
      </trkpt>
      <trkpt lat="50.76721" lon="3.6771">
        <ele>122.55</ele>
        <time>2021-03-20T19:00:50Z</time>
      </trkpt>
      <trkpt lat="50.77025" lon="3.67284">
        <ele>123</ele>
        <time>2021-03-20T19:00:56Z</time>
      </trkpt>
      <trkpt lat="50.77137" lon="3.67075">
        <ele>122</ele>
        <time>2021-03-20T19:01:03Z</time>
      </trkpt>
      <trkpt lat="50.77155" lon="3.67049">
        <ele>121.44</ele>
        <time>2021-03-20T19:01:09Z</time>
      </trkpt>
      <trkpt lat="50.77178" lon="3.67021">
        <ele>120.61</ele>
        <time>2021-03-20T19:01:15Z</time>
      </trkpt>
      <trkpt lat="50.77192" lon="3.66999">
        <ele>120.06</ele>
        <time>2021-03-20T19:01:22Z</time>
      </trkpt>
      <trkpt lat="50.7731" lon="3.66758">
        <ele>120.68</ele>
        <time>2021-03-20T19:01:28Z</time>
      </trkpt>
      <trkpt lat="50.77338" lon="3.66705">
        <ele>118.83</ele>
        <time>2021-03-20T19:01:35Z</time>
      </trkpt>
      <trkpt lat="50.77357" lon="3.66677">
        <ele>118.15</ele>
        <time>2021-03-20T19:01:41Z</time>
      </trkpt>
      <trkpt lat="50.77398" lon="3.66629">
        <ele>116.34</ele>
        <time>2021-03-20T19:01:48Z</time>
      </trkpt>
      <trkpt lat="50.77411" lon="3.66617">
        <ele>115.39</ele>
        <time>2021-03-20T19:01:54Z</time>
      </trkpt>
      <trkpt lat="50.7745" lon="3.6659">
        <ele>112.95</ele>
        <time>2021-03-20T19:02:01Z</time>
      </trkpt>
      <trkpt lat="50.77477" lon="3.66565">
        <ele>113</ele>
        <time>2021-03-20T19:02:07Z</time>
      </trkpt>
      <trkpt lat="50.7749" lon="3.66551">
        <ele>113.11</ele>
        <time>2021-03-20T19:02:14Z</time>
      </trkpt>
      <trkpt lat="50.77562" lon="3.6644">
        <ele>115.37</ele>
        <time>2021-03-20T19:02:20Z</time>
      </trkpt>
      <trkpt lat="50.77628" lon="3.66344">
        <ele>114.64</ele>
        <time>2021-03-20T19:02:26Z</time>
      </trkpt>
      <trkpt lat="50.77708" lon="3.66394">
        <ele>115</ele>
        <time>2021-03-20T19:02:31Z</time>
      </trkpt>
      <trkpt lat="50.77787" lon="3.66449">
        <ele>112.11</ele>
        <time>2021-03-20T19:02:35Z</time>
      </trkpt>
      <trkpt lat="50.77846" lon="3.66503">
        <ele>113</ele>
        <time>2021-03-20T19:02:40Z</time>
      </trkpt>
      <trkpt lat="50.77876" lon="3.66528">
        <ele>113.54</ele>
        <time>2021-03-20T19:02:44Z</time>
      </trkpt>
      <trkpt lat="50.7798" lon="3.66592">
        <ele>112.41</ele>
        <time>2021-03-20T19:02:49Z</time>
      </trkpt>
      <trkpt lat="50.77991" lon="3.66596">
        <ele>111.86</ele>
        <time>2021-03-20T19:02:53Z</time>
      </trkpt>
      <trkpt lat="50.78" lon="3.66595">
        <ele>111.58</ele>
        <time>2021-03-20T19:02:57Z</time>
      </trkpt>
      <trkpt lat="50.78022" lon="3.66585">
        <ele>110.41</ele>
        <time>2021-03-20T19:03:02Z</time>
      </trkpt>
      <trkpt lat="50.78042" lon="3.6659">
        <ele>109.62</ele>
        <time>2021-03-20T19:03:06Z</time>
      </trkpt>
      <trkpt lat="50.78081" lon="3.66624">
        <ele>109.09</ele>
        <time>2021-03-20T19:03:11Z</time>
      </trkpt>
      <trkpt lat="50.78093" lon="3.6663">
        <ele>108.38</ele>
        <time>2021-03-20T19:03:15Z</time>
      </trkpt>
      <trkpt lat="50.78121" lon="3.66638">
        <ele>106.01</ele>
        <time>2021-03-20T19:03:19Z</time>
      </trkpt>
      <trkpt lat="50.78152" lon="3.66638">
        <ele>102.08</ele>
        <time>2021-03-20T19:03:24Z</time>
      </trkpt>
      <trkpt lat="50.78164" lon="3.66638">
        <ele>100.43</ele>
        <time>2021-03-20T19:03:28Z</time>
      </trkpt>
      <trkpt lat="50.78184" lon="3.66643">
        <ele>98</ele>
        <time>2021-03-20T19:03:33Z</time>
      </trkpt>
      <trkpt lat="50.78216" lon="3.66666">
        <ele>96.78</ele>
        <time>2021-03-20T19:03:37Z</time>
      </trkpt>
      <trkpt lat="50.78238" lon="3.66686">
        <ele>97.58</ele>
        <time>2021-03-20T19:03:41Z</time>
      </trkpt>
      <trkpt lat="50.78253" lon="3.66703">
        <ele>97.89</ele>
        <time>2021-03-20T19:03:46Z</time>
      </trkpt>
      <trkpt lat="50.78302" lon="3.66765">
        <ele>94.57</ele>
        <time>2021-03-20T19:03:50Z</time>
      </trkpt>
      <trkpt lat="50.78357" lon="3.6684">
        <ele>93.16</ele>
        <time>2021-03-20T19:03:55Z</time>
      </trkpt>
      <trkpt lat="50.78385" lon="3.66884">
        <ele>91.31</ele>
        <time>2021-03-20T19:03:59Z</time>
      </trkpt>
      <trkpt lat="50.78399" lon="3.66901">
        <ele>90.46</ele>
        <time>2021-03-20T19:04:03Z</time>
      </trkpt>
      <trkpt lat="50.78465" lon="3.66963">
        <ele>87</ele>
        <time>2021-03-20T19:04:08Z</time>
      </trkpt>
      <trkpt lat="50.78531" lon="3.67035">
        <ele>82.69</ele>
        <time>2021-03-20T19:04:12Z</time>
      </trkpt>
      <trkpt lat="50.78574" lon="3.67076">
        <ele>80.26</ele>
        <time>2021-03-20T19:04:17Z</time>
      </trkpt>
      <trkpt lat="50.7861" lon="3.67103">
        <ele>76.66</ele>
        <time>2021-03-20T19:04:21Z</time>
      </trkpt>
      <trkpt lat="50.78626" lon="3.67118">
        <ele>75.87</ele>
        <time>2021-03-20T19:04:25Z</time>
      </trkpt>
      <trkpt lat="50.78691" lon="3.67195">
        <ele>72.93</ele>
        <time>2021-03-20T19:04:30Z</time>
      </trkpt>
      <trkpt lat="50.78751" lon="3.67254">
        <ele>71.86</ele>
        <time>2021-03-20T19:04:34Z</time>
      </trkpt>
      <trkpt lat="50.78849" lon="3.67366">
        <ele>71.21</ele>
        <time>2021-03-20T19:04:39Z</time>
      </trkpt>
      <trkpt lat="50.78881" lon="3.67395">
        <ele>69.56</ele>
        <time>2021-03-20T19:04:43Z</time>
      </trkpt>
      <trkpt lat="50.78907" lon="3.67408">
        <ele>69.06</ele>
        <time>2021-03-20T19:04:47Z</time>
      </trkpt>
      <trkpt lat="50.78965" lon="3.6743">
        <ele>67.79</ele>
        <time>2021-03-20T19:04:52Z</time>
      </trkpt>
      <trkpt lat="50.7898" lon="3.67432">
        <ele>66.7</ele>
        <time>2021-03-20T19:04:56Z</time>
      </trkpt>
      <trkpt lat="50.79028" lon="3.67432">
        <ele>61.44</ele>
        <time>2021-03-20T19:05:01Z</time>
      </trkpt>
      <trkpt lat="50.79048" lon="3.67435">
        <ele>58.65</ele>
        <time>2021-03-20T19:05:05Z</time>
      </trkpt>
      <trkpt lat="50.79104" lon="3.67455">
        <ele>58.36</ele>
        <time>2021-03-20T19:05:09Z</time>
      </trkpt>
      <trkpt lat="50.79201" lon="3.6748">
        <ele>57.26</ele>
        <time>2021-03-20T19:05:14Z</time>
      </trkpt>
      <trkpt lat="50.7934" lon="3.67501">
        <ele>56</ele>
        <time>2021-03-20T19:05:18Z</time>
      </trkpt>
      <trkpt lat="50.79396" lon="3.67515">
        <ele>55</ele>
        <time>2021-03-20T19:05:23Z</time>
      </trkpt>
      <trkpt lat="50.79454" lon="3.67521">
        <ele>54.17</ele>
        <time>2021-03-20T19:05:27Z</time>
      </trkpt>
      <trkpt lat="50.79505" lon="3.67518">
        <ele>53</ele>
        <time>2021-03-20T19:05:31Z</time>
      </trkpt>
      <trkpt lat="50.79573" lon="3.67509">
        <ele>51.38</ele>
        <time>2021-03-20T19:05:36Z</time>
      </trkpt>
      <trkpt lat="50.79591" lon="3.67502">
        <ele>50.73</ele>
        <time>2021-03-20T19:05:40Z</time>
      </trkpt>
      <trkpt lat="50.797" lon="3.67444">
        <ele>49</ele>
        <time>2021-03-20T19:05:45Z</time>
      </trkpt>
      <trkpt lat="50.79746" lon="3.67428">
        <ele>48.66</ele>
        <time>2021-03-20T19:05:49Z</time>
      </trkpt>
      <trkpt lat="50.79772" lon="3.67428">
        <ele>47.83</ele>
        <time>2021-03-20T19:05:53Z</time>
      </trkpt>
      <trkpt lat="50.79866" lon="3.67475">
        <ele>47.91</ele>
        <time>2021-03-20T19:05:58Z</time>
      </trkpt>
      <trkpt lat="50.7989" lon="3.67483">
        <ele>47.55</ele>
        <time>2021-03-20T19:06:02Z</time>
      </trkpt>
      <trkpt lat="50.80034" lon="3.67514">
        <ele>42.24</ele>
        <time>2021-03-20T19:06:07Z</time>
      </trkpt>
      <trkpt lat="50.80158" lon="3.67556">
        <ele>41.99</ele>
        <time>2021-03-20T19:06:11Z</time>
      </trkpt>
      <trkpt lat="50.80256" lon="3.67599">
        <ele>44.69</ele>
        <time>2021-03-20T19:06:16Z</time>
      </trkpt>
      <trkpt lat="50.80274" lon="3.67603">
        <ele>45.49</ele>
        <time>2021-03-20T19:06:20Z</time>
      </trkpt>
      <trkpt lat="50.80286" lon="3.67609">
        <ele>46.21</ele>
        <time>2021-03-20T19:06:24Z</time>
      </trkpt>
      <trkpt lat="50.80458" lon="3.67706">
        <ele>43.78</ele>
        <time>2021-03-20T19:06:29Z</time>
      </trkpt>
      <trkpt lat="50.80502" lon="3.67737">
        <ele>44</ele>
        <time>2021-03-20T19:06:33Z</time>
      </trkpt>
      <trkpt lat="50.80535" lon="3.67768">
        <ele>43.83</ele>
        <time>2021-03-20T19:06:38Z</time>
      </trkpt>
      <trkpt lat="50.80552" lon="3.67787">
        <ele>43.08</ele>
        <time>2021-03-20T19:06:42Z</time>
      </trkpt>
      <trkpt lat="50.80562" lon="3.67802">
        <ele>43</ele>
        <time>2021-03-20T19:06:46Z</time>
      </trkpt>
      <trkpt lat="50.80612" lon="3.67861">
        <ele>43</ele>
        <time>2021-03-20T19:06:51Z</time>
      </trkpt>
      <trkpt lat="50.80633" lon="3.67879">
        <ele>42.86</ele>
        <time>2021-03-20T19:06:55Z</time>
      </trkpt>
      <trkpt lat="50.80657" lon="3.67894">
        <ele>42.3</ele>
        <time>2021-03-20T19:07:00Z</time>
      </trkpt>
      <trkpt lat="50.80671" lon="3.679">
        <ele>41.94</ele>
        <time>2021-03-20T19:07:04Z</time>
      </trkpt>
      <trkpt lat="50.80682" lon="3.67909">
        <ele>41.58</ele>
        <time>2021-03-20T19:07:08Z</time>
      </trkpt>
      <trkpt lat="50.80691" lon="3.67922">
        <ele>40.94</ele>
        <time>2021-03-20T19:07:13Z</time>
      </trkpt>
      <trkpt lat="50.80711" lon="3.67961">
        <ele>39.39</ele>
        <time>2021-03-20T19:07:17Z</time>
      </trkpt>
      <trkpt lat="50.80761" lon="3.68016">
        <ele>38.41</ele>
        <time>2021-03-20T19:07:22Z</time>
      </trkpt>
      <trkpt lat="50.80774" lon="3.68027">
        <ele>38.04</ele>
        <time>2021-03-20T19:07:26Z</time>
      </trkpt>
      <trkpt lat="50.80801" lon="3.68039">
        <ele>38.35</ele>
        <time>2021-03-20T19:07:30Z</time>
      </trkpt>
      <trkpt lat="50.80821" lon="3.68041">
        <ele>39.04</ele>
        <time>2021-03-20T19:07:35Z</time>
      </trkpt>
      <trkpt lat="50.8083" lon="3.68037">
        <ele>39.24</ele>
        <time>2021-03-20T19:07:39Z</time>
      </trkpt>
      <trkpt lat="50.80847" lon="3.68018">
        <ele>39.5</ele>
        <time>2021-03-20T19:07:44Z</time>
      </trkpt>
      <trkpt lat="50.80893" lon="3.67946">
        <ele>39.86</ele>
        <time>2021-03-20T19:07:48Z</time>
      </trkpt>
      <trkpt lat="50.80898" lon="3.67941">
        <ele>39.65</ele>
        <time>2021-03-20T19:07:52Z</time>
      </trkpt>
      <trkpt lat="50.80906" lon="3.67939">
        <ele>39.4</ele>
        <time>2021-03-20T19:07:57Z</time>
      </trkpt>
      <trkpt lat="50.80918" lon="3.67942">
        <ele>38.95</ele>
        <time>2021-03-20T19:08:01Z</time>
      </trkpt>
      <trkpt lat="50.80928" lon="3.67954">
        <ele>38.59</ele>
        <time>2021-03-20T19:08:06Z</time>
      </trkpt>
      <trkpt lat="50.80968" lon="3.68017">
        <ele>37.14</ele>
        <time>2021-03-20T19:08:10Z</time>
      </trkpt>
      <trkpt lat="50.8101" lon="3.68076">
        <ele>35.47</ele>
        <time>2021-03-20T19:08:14Z</time>
      </trkpt>
      <trkpt lat="50.8108" lon="3.68173">
        <ele>32.13</ele>
        <time>2021-03-20T19:08:19Z</time>
      </trkpt>
      <trkpt lat="50.81094" lon="3.68189">
        <ele>31.62</ele>
        <time>2021-03-20T19:08:23Z</time>
      </trkpt>
      <trkpt lat="50.81109" lon="3.682">
        <ele>31.07</ele>
        <time>2021-03-20T19:08:28Z</time>
      </trkpt>
      <trkpt lat="50.81121" lon="3.68207">
        <ele>30.8</ele>
        <time>2021-03-20T19:08:32Z</time>
      </trkpt>
      <trkpt lat="50.8113" lon="3.68208">
        <ele>30.64</ele>
        <time>2021-03-20T19:08:36Z</time>
      </trkpt>
      <trkpt lat="50.81141" lon="3.68201">
        <ele>30.23</ele>
        <time>2021-03-20T19:08:41Z</time>
      </trkpt>
      <trkpt lat="50.81152" lon="3.68187">
        <ele>30</ele>
        <time>2021-03-20T19:08:45Z</time>
      </trkpt>
      <trkpt lat="50.81221" lon="3.68063">
        <ele>31</ele>
        <time>2021-03-20T19:08:50Z</time>
      </trkpt>
      <trkpt lat="50.81239" lon="3.68035">
        <ele>30.1</ele>
        <time>2021-03-20T19:08:54Z</time>
      </trkpt>
      <trkpt lat="50.81252" lon="3.68018">
        <ele>29.94</ele>
        <time>2021-03-20T19:08:58Z</time>
      </trkpt>
      <trkpt lat="50.8128" lon="3.6799">
        <ele>29.46</ele>
        <time>2021-03-20T19:09:03Z</time>
      </trkpt>
      <trkpt lat="50.81299" lon="3.67984">
        <ele>30.34</ele>
        <time>2021-03-20T19:09:07Z</time>
      </trkpt>
      <trkpt lat="50.81308" lon="3.67987">
        <ele>30.51</ele>
        <time>2021-03-20T19:09:12Z</time>
      </trkpt>
      <trkpt lat="50.81319" lon="3.67995">
        <ele>30.58</ele>
        <time>2021-03-20T19:09:16Z</time>
      </trkpt>
      <trkpt lat="50.81335" lon="3.68011">
        <ele>31</ele>
        <time>2021-03-20T19:09:20Z</time>
      </trkpt>
      <trkpt lat="50.81381" lon="3.68071">
        <ele>32.87</ele>
        <time>2021-03-20T19:09:25Z</time>
      </trkpt>
      <trkpt lat="50.81394" lon="3.68083">
        <ele>33</ele>
        <time>2021-03-20T19:09:29Z</time>
      </trkpt>
      <trkpt lat="50.81408" lon="3.68091">
        <ele>33.28</ele>
        <time>2021-03-20T19:09:34Z</time>
      </trkpt>
      <trkpt lat="50.81444" lon="3.68104">
        <ele>33.74</ele>
        <time>2021-03-20T19:09:38Z</time>
      </trkpt>
      <trkpt lat="50.81474" lon="3.68112">
        <ele>35.15</ele>
        <time>2021-03-20T19:09:42Z</time>
      </trkpt>
      <trkpt lat="50.81488" lon="3.68112">
        <ele>36.14</ele>
        <time>2021-03-20T19:09:47Z</time>
      </trkpt>
      <trkpt lat="50.81516" lon="3.68108">
        <ele>38</ele>
        <time>2021-03-20T19:09:51Z</time>
      </trkpt>
      <trkpt lat="50.81551" lon="3.68098">
        <ele>40.59</ele>
        <time>2021-03-20T19:09:56Z</time>
      </trkpt>
      <trkpt lat="50.81573" lon="3.68098">
        <ele>41.63</ele>
        <time>2021-03-20T19:10:00Z</time>
      </trkpt>
      <trkpt lat="50.81583" lon="3.68101">
        <ele>41.99</ele>
        <time>2021-03-20T19:10:05Z</time>
      </trkpt>
      <trkpt lat="50.81687" lon="3.68147">
        <ele>54.58</ele>
        <time>2021-03-20T19:10:09Z</time>
      </trkpt>
      <trkpt lat="50.81706" lon="3.68154">
        <ele>56.92</ele>
        <time>2021-03-20T19:10:13Z</time>
      </trkpt>
      <trkpt lat="50.81797" lon="3.68154">
        <ele>65.14</ele>
        <time>2021-03-20T19:10:18Z</time>
      </trkpt>
      <trkpt lat="50.8181" lon="3.68164">
        <ele>65.4</ele>
        <time>2021-03-20T19:10:22Z</time>
      </trkpt>
      <trkpt lat="50.81877" lon="3.68258">
        <ele>67.88</ele>
        <time>2021-03-20T19:10:27Z</time>
      </trkpt>
      <trkpt lat="50.81949" lon="3.68343">
        <ele>73.52</ele>
        <time>2021-03-20T19:10:31Z</time>
      </trkpt>
      <trkpt lat="50.82034" lon="3.68437">
        <ele>78.32</ele>
        <time>2021-03-20T19:10:35Z</time>
      </trkpt>
      <trkpt lat="50.8207" lon="3.68467">
        <ele>78.51</ele>
        <time>2021-03-20T19:10:40Z</time>
      </trkpt>
      <trkpt lat="50.82077" lon="3.68475">
        <ele>78.73</ele>
        <time>2021-03-20T19:10:44Z</time>
      </trkpt>
      <trkpt lat="50.82092" lon="3.685">
        <ele>79.6</ele>
        <time>2021-03-20T19:10:49Z</time>
      </trkpt>
      <trkpt lat="50.82112" lon="3.68543">
        <ele>81.61</ele>
        <time>2021-03-20T19:10:53Z</time>
      </trkpt>
      <trkpt lat="50.82125" lon="3.68558">
        <ele>83.47</ele>
        <time>2021-03-20T19:10:57Z</time>
      </trkpt>
      <trkpt lat="50.82149" lon="3.68572">
        <ele>86.1</ele>
        <time>2021-03-20T19:11:02Z</time>
      </trkpt>
      <trkpt lat="50.82195" lon="3.68593">
        <ele>89.01</ele>
        <time>2021-03-20T19:11:06Z</time>
      </trkpt>
      <trkpt lat="50.8223" lon="3.686">
        <ele>90.21</ele>
        <time>2021-03-20T19:11:11Z</time>
      </trkpt>
      <trkpt lat="50.8225" lon="3.68597">
        <ele>92.04</ele>
        <time>2021-03-20T19:11:15Z</time>
      </trkpt>
      <trkpt lat="50.82281" lon="3.68589">
        <ele>94.82</ele>
        <time>2021-03-20T19:11:19Z</time>
      </trkpt>
      <trkpt lat="50.82357" lon="3.68595">
        <ele>96.33</ele>
        <time>2021-03-20T19:11:24Z</time>
      </trkpt>
      <trkpt lat="50.82384" lon="3.68592">
        <ele>96.69</ele>
        <time>2021-03-20T19:11:28Z</time>
      </trkpt>
      <trkpt lat="50.82477" lon="3.68547">
        <ele>96.31</ele>
        <time>2021-03-20T19:11:33Z</time>
      </trkpt>
      <trkpt lat="50.82497" lon="3.68539">
        <ele>95.46</ele>
        <time>2021-03-20T19:11:37Z</time>
      </trkpt>
      <trkpt lat="50.82509" lon="3.68544">
        <ele>95.88</ele>
        <time>2021-03-20T19:11:41Z</time>
      </trkpt>
      <trkpt lat="50.82587" lon="3.68628">
        <ele>98.88</ele>
        <time>2021-03-20T19:11:46Z</time>
      </trkpt>
      <trkpt lat="50.82688" lon="3.68503">
        <ele>93.87</ele>
        <time>2021-03-20T19:11:50Z</time>
      </trkpt>
      <trkpt lat="50.82752" lon="3.68415">
        <ele>93</ele>
        <time>2021-03-20T19:11:54Z</time>
      </trkpt>
      <trkpt lat="50.82776" lon="3.68373">
        <ele>93.93</ele>
        <time>2021-03-20T19:11:59Z</time>
      </trkpt>
      <trkpt lat="50.82798" lon="3.68324">
        <ele>94</ele>
        <time>2021-03-20T19:12:03Z</time>
      </trkpt>
      <trkpt lat="50.82826" lon="3.68256">
        <ele>94</ele>
        <time>2021-03-20T19:12:07Z</time>
      </trkpt>
      <trkpt lat="50.82846" lon="3.68214">
        <ele>94.45</ele>
        <time>2021-03-20T19:12:12Z</time>
      </trkpt>
      <trkpt lat="50.82864" lon="3.68183">
        <ele>95.09</ele>
        <time>2021-03-20T19:12:16Z</time>
      </trkpt>
      <trkpt lat="50.82983" lon="3.67991">
        <ele>96.95</ele>
        <time>2021-03-20T19:12:20Z</time>
      </trkpt>
      <trkpt lat="50.82993" lon="3.67969">
        <ele>97.25</ele>
        <time>2021-03-20T19:12:25Z</time>
      </trkpt>
      <trkpt lat="50.83004" lon="3.67939">
        <ele>97.05</ele>
        <time>2021-03-20T19:12:29Z</time>
      </trkpt>
      <trkpt lat="50.83046" lon="3.6798">
        <ele>95.71</ele>
        <time>2021-03-20T19:12:32Z</time>
      </trkpt>
      <trkpt lat="50.83143" lon="3.68127">
        <ele>96.57</ele>
        <time>2021-03-20T19:12:35Z</time>
      </trkpt>
      <trkpt lat="50.83177" lon="3.68164">
        <ele>96.52</ele>
        <time>2021-03-20T19:12:38Z</time>
      </trkpt>
      <trkpt lat="50.83424" lon="3.68388">
        <ele>97</ele>
        <time>2021-03-20T19:12:42Z</time>
      </trkpt>
      <trkpt lat="50.83435" lon="3.68403">
        <ele>97</ele>
        <time>2021-03-20T19:12:45Z</time>
      </trkpt>
      <trkpt lat="50.83485" lon="3.6849">
        <ele>95.03</ele>
        <time>2021-03-20T19:12:48Z</time>
      </trkpt>
      <trkpt lat="50.83495" lon="3.68502">
        <ele>95</ele>
        <time>2021-03-20T19:12:51Z</time>
      </trkpt>
      <trkpt lat="50.83507" lon="3.68508">
        <ele>95.25</ele>
        <time>2021-03-20T19:12:54Z</time>
      </trkpt>
      <trkpt lat="50.83603" lon="3.68532">
        <ele>94.62</ele>
        <time>2021-03-20T19:12:58Z</time>
      </trkpt>
      <trkpt lat="50.83616" lon="3.68538">
        <ele>93.69</ele>
        <time>2021-03-20T19:13:01Z</time>
      </trkpt>
      <trkpt lat="50.8369" lon="3.68594">
        <ele>90.25</ele>
        <time>2021-03-20T19:13:04Z</time>
      </trkpt>
      <trkpt lat="50.83696" lon="3.68602">
        <ele>90.01</ele>
        <time>2021-03-20T19:13:07Z</time>
      </trkpt>
      <trkpt lat="50.83705" lon="3.68622">
        <ele>90.39</ele>
        <time>2021-03-20T19:13:10Z</time>
      </trkpt>
      <trkpt lat="50.83707" lon="3.68628">
        <ele>90.44</ele>
        <time>2021-03-20T19:13:13Z</time>
      </trkpt>
      <trkpt lat="50.83739" lon="3.68711">
        <ele>89.15</ele>
        <time>2021-03-20T19:13:17Z</time>
      </trkpt>
      <trkpt lat="50.83749" lon="3.68766">
        <ele>89.02</ele>
        <time>2021-03-20T19:13:20Z</time>
      </trkpt>
      <trkpt lat="50.83762" lon="3.68797">
        <ele>88.98</ele>
        <time>2021-03-20T19:13:23Z</time>
      </trkpt>
      <trkpt lat="50.83773" lon="3.6881">
        <ele>88.55</ele>
        <time>2021-03-20T19:13:26Z</time>
      </trkpt>
      <trkpt lat="50.83796" lon="3.68832">
        <ele>88.24</ele>
        <time>2021-03-20T19:13:29Z</time>
      </trkpt>
      <trkpt lat="50.83833" lon="3.68871">
        <ele>87</ele>
        <time>2021-03-20T19:13:33Z</time>
      </trkpt>
      <trkpt lat="50.83991" lon="3.6906">
        <ele>77.28</ele>
        <time>2021-03-20T19:13:36Z</time>
      </trkpt>
      <trkpt lat="50.84102" lon="3.69263">
        <ele>74.15</ele>
        <time>2021-03-20T19:13:39Z</time>
      </trkpt>
      <trkpt lat="50.84152" lon="3.69351">
        <ele>71.93</ele>
        <time>2021-03-20T19:13:42Z</time>
      </trkpt>
      <trkpt lat="50.84238" lon="3.69478">
        <ele>67.8</ele>
        <time>2021-03-20T19:13:45Z</time>
      </trkpt>
      <trkpt lat="50.84261" lon="3.69508">
        <ele>67</ele>
        <time>2021-03-20T19:13:48Z</time>
      </trkpt>
      <trkpt lat="50.84325" lon="3.69571">
        <ele>67</ele>
        <time>2021-03-20T19:13:52Z</time>
      </trkpt>
      <trkpt lat="50.84351" lon="3.69599">
        <ele>67.27</ele>
        <time>2021-03-20T19:13:55Z</time>
      </trkpt>
      <trkpt lat="50.84409" lon="3.69676">
        <ele>64.19</ele>
        <time>2021-03-20T19:13:58Z</time>
      </trkpt>
      <trkpt lat="50.84499" lon="3.69768">
        <ele>63.34</ele>
        <time>2021-03-20T19:14:01Z</time>
      </trkpt>
      <trkpt lat="50.84542" lon="3.69821">
        <ele>60.94</ele>
        <time>2021-03-20T19:14:04Z</time>
      </trkpt>
      <trkpt lat="50.84585" lon="3.6988">
        <ele>56.95</ele>
        <time>2021-03-20T19:14:08Z</time>
      </trkpt>
      <trkpt lat="50.84608" lon="3.69915">
        <ele>56.12</ele>
        <time>2021-03-20T19:14:11Z</time>
      </trkpt>
      <trkpt lat="50.84624" lon="3.6995">
        <ele>54.08</ele>
        <time>2021-03-20T19:14:14Z</time>
      </trkpt>
      <trkpt lat="50.84659" lon="3.70046">
        <ele>52.35</ele>
        <time>2021-03-20T19:14:17Z</time>
      </trkpt>
      <trkpt lat="50.847" lon="3.70122">
        <ele>47.62</ele>
        <time>2021-03-20T19:14:20Z</time>
      </trkpt>
      <trkpt lat="50.84723" lon="3.70157">
        <ele>46.37</ele>
        <time>2021-03-20T19:14:23Z</time>
      </trkpt>
      <trkpt lat="50.84856" lon="3.70317">
        <ele>40.75</ele>
        <time>2021-03-20T19:14:27Z</time>
      </trkpt>
      <trkpt lat="50.84869" lon="3.70336">
        <ele>40</ele>
        <time>2021-03-20T19:14:30Z</time>
      </trkpt>
      <trkpt lat="50.84918" lon="3.70426">
        <ele>39.96</ele>
        <time>2021-03-20T19:14:33Z</time>
      </trkpt>
      <trkpt lat="50.84985" lon="3.70513">
        <ele>36.53</ele>
        <time>2021-03-20T19:14:36Z</time>
      </trkpt>
      <trkpt lat="50.85032" lon="3.7059">
        <ele>35.6</ele>
        <time>2021-03-20T19:14:39Z</time>
      </trkpt>
      <trkpt lat="50.8505" lon="3.70623">
        <ele>34.11</ele>
        <time>2021-03-20T19:14:43Z</time>
      </trkpt>
      <trkpt lat="50.8506" lon="3.70647">
        <ele>33.56</ele>
        <time>2021-03-20T19:14:46Z</time>
      </trkpt>
      <trkpt lat="50.85077" lon="3.70693">
        <ele>32.23</ele>
        <time>2021-03-20T19:14:49Z</time>
      </trkpt>
      <trkpt lat="50.85086" lon="3.70726">
        <ele>31.78</ele>
        <time>2021-03-20T19:14:52Z</time>
      </trkpt>
      <trkpt lat="50.8509" lon="3.7075">
        <ele>30.99</ele>
        <time>2021-03-20T19:14:55Z</time>
      </trkpt>
      <trkpt lat="50.85107" lon="3.70742">
        <ele>31.03</ele>
        <time>2021-03-20T19:15:02Z</time>
      </trkpt>
      <trkpt lat="50.85154" lon="3.70703">
        <ele>29.84</ele>
        <time>2021-03-20T19:15:08Z</time>
      </trkpt>
      <trkpt lat="50.85176" lon="3.70692">
        <ele>29.7</ele>
        <time>2021-03-20T19:15:14Z</time>
      </trkpt>
      <trkpt lat="50.85193" lon="3.70692">
        <ele>29.15</ele>
        <time>2021-03-20T19:15:20Z</time>
      </trkpt>
      <trkpt lat="50.85199" lon="3.70694">
        <ele>29.01</ele>
        <time>2021-03-20T19:15:27Z</time>
      </trkpt>
      <trkpt lat="50.85213" lon="3.70703">
        <ele>28.7</ele>
        <time>2021-03-20T19:15:33Z</time>
      </trkpt>
      <trkpt lat="50.85241" lon="3.70726">
        <ele>28.67</ele>
        <time>2021-03-20T19:15:39Z</time>
      </trkpt>
      <trkpt lat="50.85263" lon="3.70731">
        <ele>29.46</ele>
        <time>2021-03-20T19:15:46Z</time>
      </trkpt>
      <trkpt lat="50.85278" lon="3.70731">
        <ele>30</ele>
        <time>2021-03-20T19:15:52Z</time>
      </trkpt>
      <trkpt lat="50.85294" lon="3.70727">
        <ele>29.43</ele>
        <time>2021-03-20T19:15:58Z</time>
      </trkpt>
      <trkpt lat="50.85317" lon="3.70714">
        <ele>28.87</ele>
        <time>2021-03-20T19:16:04Z</time>
      </trkpt>
      <trkpt lat="50.8533" lon="3.70703">
        <ele>28.4</ele>
        <time>2021-03-20T19:16:11Z</time>
      </trkpt>
      <trkpt lat="50.85371" lon="3.70662">
        <ele>29.33</ele>
        <time>2021-03-20T19:16:17Z</time>
      </trkpt>
      <trkpt lat="50.85392" lon="3.70629">
        <ele>31.25</ele>
        <time>2021-03-20T19:16:23Z</time>
      </trkpt>
      <trkpt lat="50.85408" lon="3.70594">
        <ele>31.3</ele>
        <time>2021-03-20T19:16:29Z</time>
      </trkpt>
      <trkpt lat="50.8547" lon="3.7043">
        <ele>26.92</ele>
        <time>2021-03-20T19:16:36Z</time>
      </trkpt>
      <trkpt lat="50.85487" lon="3.70393">
        <ele>25.13</ele>
        <time>2021-03-20T19:16:42Z</time>
      </trkpt>
      <trkpt lat="50.8551" lon="3.70366">
        <ele>25.89</ele>
        <time>2021-03-20T19:16:48Z</time>
      </trkpt>
      <trkpt lat="50.85634" lon="3.70264">
        <ele>26.61</ele>
        <time>2021-03-20T19:16:55Z</time>
      </trkpt>
      <trkpt lat="50.85657" lon="3.70243">
        <ele>27.01</ele>
        <time>2021-03-20T19:17:01Z</time>
      </trkpt>
      <trkpt lat="50.8569" lon="3.70205">
        <ele>28.57</ele>
        <time>2021-03-20T19:17:07Z</time>
      </trkpt>
      <trkpt lat="50.85709" lon="3.70179">
        <ele>27.9</ele>
        <time>2021-03-20T19:17:13Z</time>
      </trkpt>
      <trkpt lat="50.8572" lon="3.7016">
        <ele>26.77</ele>
        <time>2021-03-20T19:17:20Z</time>
      </trkpt>
      <trkpt lat="50.85836" lon="3.69908">
        <ele>23</ele>
        <time>2021-03-20T19:17:26Z</time>
      </trkpt>
      <trkpt lat="50.85861" lon="3.69871">
        <ele>22.37</ele>
        <time>2021-03-20T19:17:32Z</time>
      </trkpt>
      <trkpt lat="50.86052" lon="3.69641">
        <ele>22.08</ele>
        <time>2021-03-20T19:17:38Z</time>
      </trkpt>
      <trkpt lat="50.8612" lon="3.69573">
        <ele>21.33</ele>
        <time>2021-03-20T19:17:45Z</time>
      </trkpt>
      <trkpt lat="50.86233" lon="3.69474">
        <ele>20.04</ele>
        <time>2021-03-20T19:17:51Z</time>
      </trkpt>
      <trkpt lat="50.86249" lon="3.69463">
        <ele>20</ele>
        <time>2021-03-20T19:17:57Z</time>
      </trkpt>
      <trkpt lat="50.86268" lon="3.69455">
        <ele>20.24</ele>
        <time>2021-03-20T19:18:04Z</time>
      </trkpt>
      <trkpt lat="50.86689" lon="3.69336">
        <ele>16.9</ele>
        <time>2021-03-20T19:18:10Z</time>
      </trkpt>
      <trkpt lat="50.86711" lon="3.69334">
        <ele>17.61</ele>
        <time>2021-03-20T19:18:16Z</time>
      </trkpt>
      <trkpt lat="50.86751" lon="3.69342">
        <ele>18</ele>
        <time>2021-03-20T19:18:22Z</time>
      </trkpt>
      <trkpt lat="50.86776" lon="3.69355">
        <ele>18</ele>
        <time>2021-03-20T19:18:29Z</time>
      </trkpt>
      <trkpt lat="50.86795" lon="3.6937">
        <ele>17.81</ele>
        <time>2021-03-20T19:18:35Z</time>
      </trkpt>
      <trkpt lat="50.86806" lon="3.69381">
        <ele>17.25</ele>
        <time>2021-03-20T19:18:41Z</time>
      </trkpt>
      <trkpt lat="50.87081" lon="3.69706">
        <ele>23.27</ele>
        <time>2021-03-20T19:18:47Z</time>
      </trkpt>
      <trkpt lat="50.8732" lon="3.69959">
        <ele>25</ele>
        <time>2021-03-20T19:18:54Z</time>
      </trkpt>
      <trkpt lat="50.87381" lon="3.69833">
        <ele>23</ele>
        <time>2021-03-20T19:18:58Z</time>
      </trkpt>
      <trkpt lat="50.87406" lon="3.69786">
        <ele>21.78</ele>
        <time>2021-03-20T19:19:03Z</time>
      </trkpt>
      <trkpt lat="50.87434" lon="3.69746">
        <ele>20</ele>
        <time>2021-03-20T19:19:07Z</time>
      </trkpt>
      <trkpt lat="50.87473" lon="3.69686">
        <ele>22.98</ele>
        <time>2021-03-20T19:19:12Z</time>
      </trkpt>
      <trkpt lat="50.87488" lon="3.69656">
        <ele>22.25</ele>
        <time>2021-03-20T19:19:17Z</time>
      </trkpt>
      <trkpt lat="50.87557" lon="3.69463">
        <ele>20.68</ele>
        <time>2021-03-20T19:19:21Z</time>
      </trkpt>
      <trkpt lat="50.87572" lon="3.69426">
        <ele>20.2</ele>
        <time>2021-03-20T19:19:26Z</time>
      </trkpt>
      <trkpt lat="50.8759" lon="3.69393">
        <ele>20</ele>
        <time>2021-03-20T19:19:30Z</time>
      </trkpt>
      <trkpt lat="50.87782" lon="3.69067">
        <ele>17.83</ele>
        <time>2021-03-20T19:19:35Z</time>
      </trkpt>
      <trkpt lat="50.87798" lon="3.69046">
        <ele>16.82</ele>
        <time>2021-03-20T19:19:40Z</time>
      </trkpt>
      <trkpt lat="50.87817" lon="3.69029">
        <ele>16.03</ele>
        <time>2021-03-20T19:19:44Z</time>
      </trkpt>
      <trkpt lat="50.8788" lon="3.68989">
        <ele>13.94</ele>
        <time>2021-03-20T19:19:49Z</time>
      </trkpt>
      <trkpt lat="50.8835" lon="3.68708">
        <ele>12.69</ele>
        <time>2021-03-20T19:19:53Z</time>
      </trkpt>
      <trkpt lat="50.88369" lon="3.68689">
        <ele>11.73</ele>
        <time>2021-03-20T19:19:58Z</time>
      </trkpt>
      <trkpt lat="50.88384" lon="3.68668">
        <ele>11.17</ele>
        <time>2021-03-20T19:20:02Z</time>
      </trkpt>
      <trkpt lat="50.88401" lon="3.68636">
        <ele>10.58</ele>
        <time>2021-03-20T19:20:07Z</time>
      </trkpt>
      <trkpt lat="50.88422" lon="3.68564">
        <ele>10</ele>
        <time>2021-03-20T19:20:12Z</time>
      </trkpt>
      <trkpt lat="50.88429" lon="3.68556">
        <ele>10</ele>
        <time>2021-03-20T19:20:16Z</time>
      </trkpt>
      <trkpt lat="50.88437" lon="3.6855">
        <ele>10</ele>
        <time>2021-03-20T19:20:21Z</time>
      </trkpt>
      <trkpt lat="50.88454" lon="3.68553">
        <ele>10</ele>
        <time>2021-03-20T19:20:25Z</time>
      </trkpt>
      <trkpt lat="50.88463" lon="3.68553">
        <ele>10</ele>
        <time>2021-03-20T19:20:32Z</time>
      </trkpt>
      <trkpt lat="50.88471" lon="3.68541">
        <ele>10</ele>
        <time>2021-03-20T19:20:39Z</time>
      </trkpt>
      <trkpt lat="50.8848" lon="3.68541">
        <ele>10.15</ele>
        <time>2021-03-20T19:20:46Z</time>
      </trkpt>
      <trkpt lat="50.88542" lon="3.68606">
        <ele>9.69</ele>
        <time>2021-03-20T19:20:53Z</time>
      </trkpt>
      <trkpt lat="50.88571" lon="3.68632">
        <ele>11.08</ele>
        <time>2021-03-20T19:21:00Z</time>
      </trkpt>
      <trkpt lat="50.88586" lon="3.68639">
        <ele>12</ele>
        <time>2021-03-20T19:21:07Z</time>
      </trkpt>
      <trkpt lat="50.88733" lon="3.68643">
        <ele>11.16</ele>
        <time>2021-03-20T19:21:14Z</time>
      </trkpt>
      <trkpt lat="50.88747" lon="3.6864">
        <ele>11.03</ele>
        <time>2021-03-20T19:21:21Z</time>
      </trkpt>
      <trkpt lat="50.88758" lon="3.68632">
        <ele>11</ele>
        <time>2021-03-20T19:21:28Z</time>
      </trkpt>
      <trkpt lat="50.89078" lon="3.68361">
        <ele>9.78</ele>
        <time>2021-03-20T19:21:35Z</time>
      </trkpt>
      <trkpt lat="50.89133" lon="3.68308">
        <ele>10.88</ele>
        <time>2021-03-20T19:21:42Z</time>
      </trkpt>
      <trkpt lat="50.89153" lon="3.68286">
        <ele>11</ele>
        <time>2021-03-20T19:21:49Z</time>
      </trkpt>
      <trkpt lat="50.89181" lon="3.6825">
        <ele>12</ele>
        <time>2021-03-20T19:21:56Z</time>
      </trkpt>
      <trkpt lat="50.89223" lon="3.68186">
        <ele>11.97</ele>
        <time>2021-03-20T19:22:03Z</time>
      </trkpt>
      <trkpt lat="50.89248" lon="3.68145">
        <ele>11.02</ele>
        <time>2021-03-20T19:22:10Z</time>
      </trkpt>
      <trkpt lat="50.8937" lon="3.67907">
        <ele>11.67</ele>
        <time>2021-03-20T19:22:17Z</time>
      </trkpt>
      <trkpt lat="50.89471" lon="3.67707">
        <ele>6.98</ele>
        <time>2021-03-20T19:22:24Z</time>
      </trkpt>
      <trkpt lat="50.8972" lon="3.67233">
        <ele>6.39</ele>
        <time>2021-03-20T19:22:31Z</time>
      </trkpt>
      <trkpt lat="50.89764" lon="3.67125">
        <ele>5.25</ele>
        <time>2021-03-20T19:22:38Z</time>
      </trkpt>
      <trkpt lat="50.89792" lon="3.6704">
        <ele>3.73</ele>
        <time>2021-03-20T19:22:45Z</time>
      </trkpt>
      <trkpt lat="50.89879" lon="3.6674">
        <ele>8.81</ele>
        <time>2021-03-20T19:22:52Z</time>
      </trkpt>
      <trkpt lat="50.90025" lon="3.66139">
        <ele>9</ele>
        <time>2021-03-20T19:22:59Z</time>
      </trkpt>
      <trkpt lat="50.90035" lon="3.66093">
        <ele>10</ele>
        <time>2021-03-20T19:23:06Z</time>
      </trkpt>
      <trkpt lat="50.90089" lon="3.65825">
        <ele>11</ele>
        <time>2021-03-20T19:23:13Z</time>
      </trkpt>
      <trkpt lat="50.90095" lon="3.65775">
        <ele>10.91</ele>
        <time>2021-03-20T19:23:20Z</time>
      </trkpt>
      <trkpt lat="50.9011" lon="3.65575">
        <ele>12.97</ele>
        <time>2021-03-20T19:23:27Z</time>
      </trkpt>
      <trkpt lat="50.90133" lon="3.65344">
        <ele>14</ele>
        <time>2021-03-20T19:23:34Z</time>
      </trkpt>
      <trkpt lat="50.90137" lon="3.65324">
        <ele>13.98</ele>
        <time>2021-03-20T19:23:41Z</time>
      </trkpt>
      <trkpt lat="50.90145" lon="3.65302">
        <ele>14</ele>
        <time>2021-03-20T19:23:48Z</time>
      </trkpt>
      <trkpt lat="50.90159" lon="3.65275">
        <ele>13.97</ele>
        <time>2021-03-20T19:23:55Z</time>
      </trkpt>
      <trkpt lat="50.90167" lon="3.65264">
        <ele>13.99</ele>
        <time>2021-03-20T19:24:02Z</time>
      </trkpt>
      <trkpt lat="50.90184" lon="3.65249">
        <ele>13.39</ele>
        <time>2021-03-20T19:24:09Z</time>
      </trkpt>
      <trkpt lat="50.90203" lon="3.65239">
        <ele>12.7</ele>
        <time>2021-03-20T19:24:16Z</time>
      </trkpt>
      <trkpt lat="50.90223" lon="3.65236">
        <ele>12.03</ele>
        <time>2021-03-20T19:24:23Z</time>
      </trkpt>
      <trkpt lat="50.90291" lon="3.65259">
        <ele>15</ele>
        <time>2021-03-20T19:24:30Z</time>
      </trkpt>
      <trkpt lat="50.9031" lon="3.65262">
        <ele>15.07</ele>
        <time>2021-03-20T19:24:37Z</time>
      </trkpt>
      <trkpt lat="50.90344" lon="3.65259">
        <ele>15.31</ele>
        <time>2021-03-20T19:24:44Z</time>
      </trkpt>
      <trkpt lat="50.9044" lon="3.65261">
        <ele>16.32</ele>
        <time>2021-03-20T19:24:51Z</time>
      </trkpt>
      <trkpt lat="50.90469" lon="3.65266">
        <ele>17.45</ele>
        <time>2021-03-20T19:24:58Z</time>
      </trkpt>
      <trkpt lat="50.90492" lon="3.65274">
        <ele>17.15</ele>
        <time>2021-03-20T19:25:05Z</time>
      </trkpt>
      <trkpt lat="50.90546" lon="3.65299">
        <ele>16.35</ele>
        <time>2021-03-20T19:25:12Z</time>
      </trkpt>
      <trkpt lat="50.90567" lon="3.65301">
        <ele>15.17</ele>
        <time>2021-03-20T19:25:19Z</time>
      </trkpt>
      <trkpt lat="50.90583" lon="3.65297">
        <ele>14.06</ele>
        <time>2021-03-20T19:25:26Z</time>
      </trkpt>
      <trkpt lat="50.90593" lon="3.65289">
        <ele>13.66</ele>
        <time>2021-03-20T19:25:33Z</time>
      </trkpt>
      <trkpt lat="50.90599" lon="3.65291">
        <ele>13.43</ele>
        <time>2021-03-20T19:25:38Z</time>
      </trkpt>
      <trkpt lat="50.90606" lon="3.65288">
        <ele>13.2</ele>
        <time>2021-03-20T19:25:44Z</time>
      </trkpt>
      <trkpt lat="50.90618" lon="3.65288">
        <ele>13</ele>
        <time>2021-03-20T19:25:49Z</time>
      </trkpt>
      <trkpt lat="50.90723" lon="3.65266">
        <ele>15.98</ele>
        <time>2021-03-20T19:25:55Z</time>
      </trkpt>
      <trkpt lat="50.90801" lon="3.65257">
        <ele>13.16</ele>
        <time>2021-03-20T19:26:00Z</time>
      </trkpt>
      <trkpt lat="50.90882" lon="3.65251">
        <ele>14.01</ele>
        <time>2021-03-20T19:26:06Z</time>
      </trkpt>
      <trkpt lat="50.91126" lon="3.65218">
        <ele>12.85</ele>
        <time>2021-03-20T19:26:11Z</time>
      </trkpt>
      <trkpt lat="50.91178" lon="3.65219">
        <ele>15.15</ele>
        <time>2021-03-20T19:26:17Z</time>
      </trkpt>
      <trkpt lat="50.91203" lon="3.65224">
        <ele>15.35</ele>
        <time>2021-03-20T19:26:22Z</time>
      </trkpt>
      <trkpt lat="50.91239" lon="3.6523">
        <ele>13.39</ele>
        <time>2021-03-20T19:26:28Z</time>
      </trkpt>
      <trkpt lat="50.91251" lon="3.65228">
        <ele>13</ele>
        <time>2021-03-20T19:26:33Z</time>
      </trkpt>
      <trkpt lat="50.91267" lon="3.6522">
        <ele>13.04</ele>
        <time>2021-03-20T19:26:39Z</time>
      </trkpt>
      <trkpt lat="50.91302" lon="3.6519">
        <ele>14</ele>
        <time>2021-03-20T19:26:44Z</time>
      </trkpt>
      <trkpt lat="50.91339" lon="3.65174">
        <ele>14</ele>
        <time>2021-03-20T19:26:50Z</time>
      </trkpt>
      <trkpt lat="50.91418" lon="3.65158">
        <ele>12.95</ele>
        <time>2021-03-20T19:26:55Z</time>
      </trkpt>
      <trkpt lat="50.91447" lon="3.65161">
        <ele>11.12</ele>
        <time>2021-03-20T19:27:01Z</time>
      </trkpt>
      <trkpt lat="50.91458" lon="3.65159">
        <ele>10.77</ele>
        <time>2021-03-20T19:27:07Z</time>
      </trkpt>
      <trkpt lat="50.9153" lon="3.65115">
        <ele>9.08</ele>
        <time>2021-03-20T19:27:12Z</time>
      </trkpt>
      <trkpt lat="50.91544" lon="3.65113">
        <ele>9.59</ele>
        <time>2021-03-20T19:27:18Z</time>
      </trkpt>
      <trkpt lat="50.91599" lon="3.65107">
        <ele>9.45</ele>
        <time>2021-03-20T19:27:23Z</time>
      </trkpt>
      <trkpt lat="50.91701" lon="3.65104">
        <ele>8</ele>
        <time>2021-03-20T19:27:29Z</time>
      </trkpt>
      <trkpt lat="50.9173" lon="3.65102">
        <ele>8</ele>
        <time>2021-03-20T19:27:34Z</time>
      </trkpt>
      <trkpt lat="50.91763" lon="3.65096">
        <ele>8.2</ele>
        <time>2021-03-20T19:27:40Z</time>
      </trkpt>
      <trkpt lat="50.91777" lon="3.65086">
        <ele>8.11</ele>
        <time>2021-03-20T19:27:45Z</time>
      </trkpt>
      <trkpt lat="50.92172" lon="3.64952">
        <ele>7.56</ele>
        <time>2021-03-20T19:27:51Z</time>
      </trkpt>
      <trkpt lat="50.9219" lon="3.6495">
        <ele>6.97</ele>
        <time>2021-03-20T19:27:56Z</time>
      </trkpt>
      <trkpt lat="50.92224" lon="3.64939">
        <ele>5</ele>
        <time>2021-03-20T19:28:02Z</time>
      </trkpt>
      <trkpt lat="50.92238" lon="3.6493">
        <ele>5</ele>
        <time>2021-03-20T19:28:07Z</time>
      </trkpt>
      <trkpt lat="50.92466" lon="3.6485">
        <ele>4</ele>
        <time>2021-03-20T19:28:13Z</time>
      </trkpt>
      <trkpt lat="50.92482" lon="3.64849">
        <ele>4</ele>
        <time>2021-03-20T19:28:18Z</time>
      </trkpt>
      <trkpt lat="50.92538" lon="3.64829">
        <ele>3.33</ele>
        <time>2021-03-20T19:28:24Z</time>
      </trkpt>
      <trkpt lat="50.92555" lon="3.64819">
        <ele>4.01</ele>
        <time>2021-03-20T19:28:29Z</time>
      </trkpt>
      <trkpt lat="50.92846" lon="3.64719">
        <ele>9.87</ele>
        <time>2021-03-20T19:28:35Z</time>
      </trkpt>
      <trkpt lat="50.9286" lon="3.64718">
        <ele>9.85</ele>
        <time>2021-03-20T19:28:40Z</time>
      </trkpt>
      <trkpt lat="50.9287" lon="3.64715">
        <ele>9.1</ele>
        <time>2021-03-20T19:28:46Z</time>
      </trkpt>
      <trkpt lat="50.9288" lon="3.64707">
        <ele>8.09</ele>
        <time>2021-03-20T19:28:51Z</time>
      </trkpt>
      <trkpt lat="50.92904" lon="3.64699">
        <ele>7.16</ele>
        <time>2021-03-20T19:28:57Z</time>
      </trkpt>
      <trkpt lat="50.92938" lon="3.64706">
        <ele>7.43</ele>
        <time>2021-03-20T19:29:02Z</time>
      </trkpt>
      <trkpt lat="50.92935" lon="3.64791">
        <ele>9.66</ele>
        <time>2021-03-20T19:29:07Z</time>
      </trkpt>
      <trkpt lat="50.92937" lon="3.6484">
        <ele>10.48</ele>
        <time>2021-03-20T19:29:12Z</time>
      </trkpt>
      <trkpt lat="50.93034" lon="3.64828">
        <ele>7.8</ele>
        <time>2021-03-20T19:29:19Z</time>
      </trkpt>
      <trkpt lat="50.931" lon="3.64815">
        <ele>10.56</ele>
        <time>2021-03-20T19:29:26Z</time>
      </trkpt>
      <trkpt lat="50.93124" lon="3.64807">
        <ele>11.03</ele>
        <time>2021-03-20T19:29:33Z</time>
      </trkpt>
      <trkpt lat="50.9332" lon="3.64714">
        <ele>7.84</ele>
        <time>2021-03-20T19:29:40Z</time>
      </trkpt>
      <trkpt lat="50.93376" lon="3.64696">
        <ele>7.49</ele>
        <time>2021-03-20T19:29:47Z</time>
      </trkpt>
      <trkpt lat="50.93402" lon="3.64696">
        <ele>7.5</ele>
        <time>2021-03-20T19:29:54Z</time>
      </trkpt>
      <trkpt lat="50.93521" lon="3.64718">
        <ele>6.16</ele>
        <time>2021-03-20T19:30:01Z</time>
      </trkpt>
      <trkpt lat="50.93532" lon="3.64714">
        <ele>6.3</ele>
        <time>2021-03-20T19:30:08Z</time>
      </trkpt>
      <trkpt lat="50.93559" lon="3.64696">
        <ele>6.95</ele>
        <time>2021-03-20T19:30:15Z</time>
      </trkpt>
      <trkpt lat="50.93621" lon="3.64649">
        <ele>7.02</ele>
        <time>2021-03-20T19:30:22Z</time>
      </trkpt>
      <trkpt lat="50.93649" lon="3.64636">
        <ele>5.9</ele>
        <time>2021-03-20T19:30:29Z</time>
      </trkpt>
      <trkpt lat="50.93706" lon="3.64616">
        <ele>6</ele>
        <time>2021-03-20T19:30:35Z</time>
      </trkpt>
      <trkpt lat="50.93823" lon="3.64595">
        <ele>4.22</ele>
        <time>2021-03-20T19:30:42Z</time>
      </trkpt>
      <trkpt lat="50.93996" lon="3.64526">
        <ele>6.06</ele>
        <time>2021-03-20T19:30:49Z</time>
      </trkpt>
      <trkpt lat="50.94086" lon="3.64442">
        <ele>7.9</ele>
        <time>2021-03-20T19:30:56Z</time>
      </trkpt>
      <trkpt lat="50.94147" lon="3.64388">
        <ele>8</ele>
        <time>2021-03-20T19:31:03Z</time>
      </trkpt>
      <trkpt lat="50.94172" lon="3.64369">
        <ele>7.59</ele>
        <time>2021-03-20T19:31:10Z</time>
      </trkpt>
      <trkpt lat="50.94192" lon="3.6436">
        <ele>6.18</ele>
        <time>2021-03-20T19:31:17Z</time>
      </trkpt>
      <trkpt lat="50.9426" lon="3.64348">
        <ele>3.34</ele>
        <time>2021-03-20T19:31:24Z</time>
      </trkpt>
      <trkpt lat="50.9428" lon="3.64342">
        <ele>4.06</ele>
        <time>2021-03-20T19:31:31Z</time>
      </trkpt>
      <trkpt lat="50.94298" lon="3.6433">
        <ele>4.76</ele>
        <time>2021-03-20T19:31:38Z</time>
      </trkpt>
      <trkpt lat="50.94354" lon="3.6428">
        <ele>6</ele>
        <time>2021-03-20T19:31:45Z</time>
      </trkpt>
      <trkpt lat="50.94377" lon="3.64266">
        <ele>6.13</ele>
        <time>2021-03-20T19:31:52Z</time>
      </trkpt>
      <trkpt lat="50.94509" lon="3.64292">
        <ele>4.84</ele>
        <time>2021-03-20T19:31:59Z</time>
      </trkpt>
      <trkpt lat="50.94523" lon="3.64298">
        <ele>4.78</ele>
        <time>2021-03-20T19:32:06Z</time>
      </trkpt>
      <trkpt lat="50.94694" lon="3.64405">
        <ele>7</ele>
        <time>2021-03-20T19:32:13Z</time>
      </trkpt>
      <trkpt lat="50.94717" lon="3.64413">
        <ele>7</ele>
        <time>2021-03-20T19:32:20Z</time>
      </trkpt>
      <trkpt lat="50.9478" lon="3.64424">
        <ele>8.98</ele>
        <time>2021-03-20T19:32:27Z</time>
      </trkpt>
      <trkpt lat="50.94817" lon="3.6442">
        <ele>8.05</ele>
        <time>2021-03-20T19:32:34Z</time>
      </trkpt>
      <trkpt lat="50.94827" lon="3.64415">
        <ele>7.54</ele>
        <time>2021-03-20T19:32:41Z</time>
      </trkpt>
      <trkpt lat="50.94841" lon="3.64402">
        <ele>7.24</ele>
        <time>2021-03-20T19:32:48Z</time>
      </trkpt>
      <trkpt lat="50.94896" lon="3.64337">
        <ele>8</ele>
        <time>2021-03-20T19:32:55Z</time>
      </trkpt>
      <trkpt lat="50.94963" lon="3.64233">
        <ele>7.16</ele>
        <time>2021-03-20T19:33:02Z</time>
      </trkpt>
      <trkpt lat="50.95002" lon="3.64106">
        <ele>5.89</ele>
        <time>2021-03-20T19:33:09Z</time>
      </trkpt>
      <trkpt lat="50.96391" lon="3.65181">
        <ele>5.92</ele>
        <time>2021-03-20T19:33:34Z</time>
      </trkpt>
      <trkpt lat="50.96418" lon="3.65202">
        <ele>5.28</ele>
        <time>2021-03-20T19:33:58Z</time>
      </trkpt>
      <trkpt lat="50.96475" lon="3.65238">
        <ele>6.9</ele>
        <time>2021-03-20T19:34:23Z</time>
      </trkpt>
      <trkpt lat="50.96518" lon="3.65276">
        <ele>5.61</ele>
        <time>2021-03-20T19:34:48Z</time>
      </trkpt>
      <trkpt lat="50.96518" lon="3.65284">
        <ele>5.88</ele>
        <time>2021-03-20T19:34:58Z</time>
      </trkpt>
      <trkpt lat="50.96523" lon="3.65299">
        <ele>6.57</ele>
        <time>2021-03-20T19:35:08Z</time>
      </trkpt>
      <trkpt lat="50.96531" lon="3.65332">
        <ele>7.95</ele>
        <time>2021-03-20T19:35:18Z</time>
      </trkpt>
      <trkpt lat="50.96535" lon="3.65338">
        <ele>8</ele>
        <time>2021-03-20T19:35:29Z</time>
      </trkpt>
      <trkpt lat="50.96551" lon="3.65386">
        <ele>8.75</ele>
        <time>2021-03-20T19:35:39Z</time>
      </trkpt>
      <trkpt lat="50.96786" lon="3.65972">
        <ele>5.72</ele>
        <time>2021-03-20T19:35:49Z</time>
      </trkpt>
      <trkpt lat="50.96857" lon="3.66146">
        <ele>7.96</ele>
        <time>2021-03-20T19:35:59Z</time>
      </trkpt>
      <trkpt lat="50.96874" lon="3.66186">
        <ele>7.52</ele>
        <time>2021-03-20T19:36:09Z</time>
      </trkpt>
      <trkpt lat="50.96896" lon="3.66228">
        <ele>7</ele>
        <time>2021-03-20T19:36:20Z</time>
      </trkpt>
      <trkpt lat="50.96924" lon="3.66275">
        <ele>7.23</ele>
        <time>2021-03-20T19:36:30Z</time>
      </trkpt>
      <trkpt lat="50.96974" lon="3.66343">
        <ele>9.26</ele>
        <time>2021-03-20T19:36:40Z</time>
      </trkpt>
      <trkpt lat="50.97022" lon="3.66395">
        <ele>10.2</ele>
        <time>2021-03-20T19:36:50Z</time>
      </trkpt>
      <trkpt lat="50.9735" lon="3.66679">
        <ele>6.41</ele>
        <time>2021-03-20T19:37:00Z</time>
      </trkpt>
      <trkpt lat="50.97489" lon="3.66803">
        <ele>7.15</ele>
        <time>2021-03-20T19:37:11Z</time>
      </trkpt>
      <trkpt lat="50.97523" lon="3.66847">
        <ele>9</ele>
        <time>2021-03-20T19:37:21Z</time>
      </trkpt>
      <trkpt lat="50.97642" lon="3.67019">
        <ele>7</ele>
        <time>2021-03-20T19:37:31Z</time>
      </trkpt>
      <trkpt lat="50.97688" lon="3.67096">
        <ele>6.78</ele>
        <time>2021-03-20T19:37:41Z</time>
      </trkpt>
      <trkpt lat="50.9779" lon="3.6728">
        <ele>8</ele>
        <time>2021-03-20T19:37:51Z</time>
      </trkpt>
      <trkpt lat="50.97827" lon="3.67341">
        <ele>7.76</ele>
        <time>2021-03-20T19:38:02Z</time>
      </trkpt>
      <trkpt lat="50.98071" lon="3.67642">
        <ele>4.92</ele>
        <time>2021-03-20T19:38:12Z</time>
      </trkpt>
      <trkpt lat="50.98353" lon="3.67979">
        <ele>9.44</ele>
        <time>2021-03-20T19:38:22Z</time>
      </trkpt>
      <trkpt lat="50.98514" lon="3.68186">
        <ele>12.53</ele>
        <time>2021-03-20T19:38:32Z</time>
      </trkpt>
      <trkpt lat="50.98543" lon="3.68209">
        <ele>10.82</ele>
        <time>2021-03-20T19:38:42Z</time>
      </trkpt>
      <trkpt lat="50.98559" lon="3.68216">
        <ele>9.66</ele>
        <time>2021-03-20T19:38:53Z</time>
      </trkpt>
      <trkpt lat="50.98581" lon="3.68215">
        <ele>9.05</ele>
        <time>2021-03-20T19:39:03Z</time>
      </trkpt>
      <trkpt lat="50.98984" lon="3.68126">
        <ele>8.26</ele>
        <time>2021-03-20T19:39:13Z</time>
      </trkpt>
      <trkpt lat="50.99034" lon="3.68119">
        <ele>6.77</ele>
        <time>2021-03-20T19:39:23Z</time>
      </trkpt>
      <trkpt lat="50.99187" lon="3.6812">
        <ele>6.74</ele>
        <time>2021-03-20T19:39:34Z</time>
      </trkpt>
      <trkpt lat="50.99192" lon="3.68123">
        <ele>6.92</ele>
        <time>2021-03-20T19:39:44Z</time>
      </trkpt>
      <trkpt lat="50.99227" lon="3.68124">
        <ele>7.61</ele>
        <time>2021-03-20T19:39:54Z</time>
      </trkpt>
      <trkpt lat="50.99234" lon="3.68121">
        <ele>7.79</ele>
        <time>2021-03-20T19:40:04Z</time>
      </trkpt>
      <trkpt lat="50.99239" lon="3.68115">
        <ele>7.94</ele>
        <time>2021-03-20T19:40:14Z</time>
      </trkpt>
      <trkpt lat="50.99244" lon="3.68105">
        <ele>8</ele>
        <time>2021-03-20T19:40:25Z</time>
      </trkpt>
      <trkpt lat="50.99318" lon="3.68183">
        <ele>6.78</ele>
        <time>2021-03-20T19:40:42Z</time>
      </trkpt>
      <trkpt lat="50.994" lon="3.68277">
        <ele>7.05</ele>
        <time>2021-03-20T19:40:59Z</time>
      </trkpt>
      <trkpt lat="50.99518" lon="3.6842">
        <ele>6.96</ele>
        <time>2021-03-20T19:41:16Z</time>
      </trkpt>
      <trkpt lat="50.9968" lon="3.68619">
        <ele>8.17</ele>
        <time>2021-03-20T19:41:33Z</time>
      </trkpt>
      <trkpt lat="51.00864" lon="3.70079">
        <ele>5.65</ele>
        <time>2021-03-20T19:41:50Z</time>
      </trkpt>
      <trkpt lat="51.00923" lon="3.70152">
        <ele>6.3</ele>
        <time>2021-03-20T19:42:07Z</time>
      </trkpt>
      <trkpt lat="51.00964" lon="3.70202">
        <ele>8.37</ele>
        <time>2021-03-20T19:42:24Z</time>
      </trkpt>
      <trkpt lat="51.00988" lon="3.70226">
        <ele>8.11</ele>
        <time>2021-03-20T19:42:41Z</time>
      </trkpt>
      <trkpt lat="51.01023" lon="3.7027">
        <ele>6.37</ele>
        <time>2021-03-20T19:42:58Z</time>
      </trkpt>
      <trkpt lat="51.01022" lon="3.70282">
        <ele>6.42</ele>
        <time>2021-03-20T19:43:06Z</time>
      </trkpt>
      <trkpt lat="51.01025" lon="3.70292">
        <ele>6.24</ele>
        <time>2021-03-20T19:43:14Z</time>
      </trkpt>
      <trkpt lat="51.01035" lon="3.70305">
        <ele>5.99</ele>
        <time>2021-03-20T19:43:21Z</time>
      </trkpt>
      <trkpt lat="51.0122" lon="3.70468">
        <ele>7.76</ele>
        <time>2021-03-20T19:43:29Z</time>
      </trkpt>
      <trkpt lat="51.0124" lon="3.70483">
        <ele>7.13</ele>
        <time>2021-03-20T19:43:37Z</time>
      </trkpt>
      <trkpt lat="51.01249" lon="3.70483">
        <ele>6.45</ele>
        <time>2021-03-20T19:43:45Z</time>
      </trkpt>
      <trkpt lat="51.01312" lon="3.70593">
        <ele>9.14</ele>
        <time>2021-03-20T19:43:53Z</time>
      </trkpt>
      <trkpt lat="51.01346" lon="3.70644">
        <ele>8.45</ele>
        <time>2021-03-20T19:44:00Z</time>
      </trkpt>
      <trkpt lat="51.01383" lon="3.70685">
        <ele>8.78</ele>
        <time>2021-03-20T19:44:08Z</time>
      </trkpt>
      <trkpt lat="51.01404" lon="3.70706">
        <ele>8.78</ele>
        <time>2021-03-20T19:44:16Z</time>
      </trkpt>
      <trkpt lat="51.01454" lon="3.70741">
        <ele>9.47</ele>
        <time>2021-03-20T19:44:24Z</time>
      </trkpt>
      <trkpt lat="51.01748" lon="3.70918">
        <ele>7.01</ele>
        <time>2021-03-20T19:44:32Z</time>
      </trkpt>
      <trkpt lat="51.01786" lon="3.70939">
        <ele>6.01</ele>
        <time>2021-03-20T19:44:40Z</time>
      </trkpt>
      <trkpt lat="51.01808" lon="3.70945">
        <ele>7</ele>
        <time>2021-03-20T19:44:47Z</time>
      </trkpt>
      <trkpt lat="51.01845" lon="3.70951">
        <ele>7.25</ele>
        <time>2021-03-20T19:44:55Z</time>
      </trkpt>
      <trkpt lat="51.01879" lon="3.7095">
        <ele>7.07</ele>
        <time>2021-03-20T19:45:03Z</time>
      </trkpt>
      <trkpt lat="51.02053" lon="3.70929">
        <ele>8.57</ele>
        <time>2021-03-20T19:45:11Z</time>
      </trkpt>
      <trkpt lat="51.02106" lon="3.70925">
        <ele>9.61</ele>
        <time>2021-03-20T19:45:19Z</time>
      </trkpt>
      <trkpt lat="51.02181" lon="3.70926">
        <ele>6.47</ele>
        <time>2021-03-20T19:45:26Z</time>
      </trkpt>
      <trkpt lat="51.02152" lon="3.70863">
        <ele>7.05</ele>
        <time>2021-03-20T19:45:33Z</time>
      </trkpt>
      <trkpt lat="51.0214" lon="3.70842">
        <ele>6.34</ele>
        <time>2021-03-20T19:45:40Z</time>
      </trkpt>
      <trkpt lat="51.02115" lon="3.70782">
        <ele>5.87</ele>
        <time>2021-03-20T19:45:46Z</time>
      </trkpt>
      <trkpt lat="51.02107" lon="3.70759">
        <ele>6.53</ele>
        <time>2021-03-20T19:45:53Z</time>
      </trkpt>
      <trkpt lat="51.02084" lon="3.70709">
        <ele>6.03</ele>
        <time>2021-03-20T19:46:00Z</time>
      </trkpt>
      <trkpt lat="51.0206" lon="3.7065">
        <ele>5.25</ele>
        <time>2021-03-20T19:46:06Z</time>
      </trkpt>
      <trkpt lat="51.02054" lon="3.70629">
        <ele>4.85</ele>
        <time>2021-03-20T19:46:13Z</time>
      </trkpt>
      <trkpt lat="51.02052" lon="3.70611">
        <ele>4.63</ele>
        <time>2021-03-20T19:46:20Z</time>
      </trkpt>
      <trkpt lat="51.02059" lon="3.70595">
        <ele>4.56</ele>
        <time>2021-03-20T19:46:26Z</time>
      </trkpt>
      <trkpt lat="51.02065" lon="3.70587">
        <ele>4.53</ele>
        <time>2021-03-20T19:46:33Z</time>
      </trkpt>
      <trkpt lat="51.02103" lon="3.70563">
        <ele>3.34</ele>
        <time>2021-03-20T19:46:40Z</time>
      </trkpt>
      <trkpt lat="51.02111" lon="3.70548">
        <ele>2.76</ele>
        <time>2021-03-20T19:46:46Z</time>
      </trkpt>
      <trkpt lat="51.02197" lon="3.70508">
        <ele>7.87</ele>
        <time>2021-03-20T19:46:53Z</time>
      </trkpt>
      <trkpt lat="51.02261" lon="3.7048">
        <ele>4.34</ele>
        <time>2021-03-20T19:46:59Z</time>
      </trkpt>
      <trkpt lat="51.02585" lon="3.70358">
        <ele>9.12</ele>
        <time>2021-03-20T19:47:06Z</time>
      </trkpt>
      <trkpt lat="51.02699" lon="3.70322">
        <ele>1.69</ele>
        <time>2021-03-20T19:47:13Z</time>
      </trkpt>
      <trkpt lat="51.02801" lon="3.70282">
        <ele>5.53</ele>
        <time>2021-03-20T19:47:19Z</time>
      </trkpt>
      <trkpt lat="51.02836" lon="3.70264">
        <ele>8.05</ele>
        <time>2021-03-20T19:47:26Z</time>
      </trkpt>
      <trkpt lat="51.02897" lon="3.70224">
        <ele>8.71</ele>
        <time>2021-03-20T19:47:33Z</time>
      </trkpt>
      <trkpt lat="51.02965" lon="3.70165">
        <ele>4.37</ele>
        <time>2021-03-20T19:47:39Z</time>
      </trkpt>
      <trkpt lat="51.03015" lon="3.70112">
        <ele>7.6</ele>
        <time>2021-03-20T19:47:46Z</time>
      </trkpt>
      <trkpt lat="51.03041" lon="3.7008">
        <ele>8.35</ele>
        <time>2021-03-20T19:47:53Z</time>
      </trkpt>
      <trkpt lat="51.03094" lon="3.70007">
        <ele>7.26</ele>
        <time>2021-03-20T19:47:59Z</time>
      </trkpt>
      <trkpt lat="51.03145" lon="3.69921">
        <ele>4.54</ele>
        <time>2021-03-20T19:48:06Z</time>
      </trkpt>
      <trkpt lat="51.0317" lon="3.69871">
        <ele>1.82</ele>
        <time>2021-03-20T19:48:13Z</time>
      </trkpt>
      <trkpt lat="51.03197" lon="3.69812">
        <ele>1.77</ele>
        <time>2021-03-20T19:48:19Z</time>
      </trkpt>
      <trkpt lat="51.0322" lon="3.69755">
        <ele>4.63</ele>
        <time>2021-03-20T19:48:26Z</time>
      </trkpt>
      <trkpt lat="51.03245" lon="3.69683">
        <ele>6.36</ele>
        <time>2021-03-20T19:48:33Z</time>
      </trkpt>
      <trkpt lat="51.0327" lon="3.69593">
        <ele>3.63</ele>
        <time>2021-03-20T19:48:39Z</time>
      </trkpt>
      <trkpt lat="51.0329" lon="3.69506">
        <ele>3.65</ele>
        <time>2021-03-20T19:48:46Z</time>
      </trkpt>
      <trkpt lat="51.03307" lon="3.69402">
        <ele>5.55</ele>
        <time>2021-03-20T19:48:53Z</time>
      </trkpt>
      <trkpt lat="51.03339" lon="3.69096">
        <ele>4.47</ele>
        <time>2021-03-20T19:48:59Z</time>
      </trkpt>
      <trkpt lat="51.03356" lon="3.68997">
        <ele>3.09</ele>
        <time>2021-03-20T19:49:06Z</time>
      </trkpt>
      <trkpt lat="51.03368" lon="3.68947">
        <ele>4</ele>
        <time>2021-03-20T19:49:12Z</time>
      </trkpt>
      <trkpt lat="51.03388" lon="3.68872">
        <ele>4.17</ele>
        <time>2021-03-20T19:49:19Z</time>
      </trkpt>
      <trkpt lat="51.03403" lon="3.68824">
        <ele>5.66</ele>
        <time>2021-03-20T19:49:26Z</time>
      </trkpt>
      <trkpt lat="51.03442" lon="3.68719">
        <ele>6.2</ele>
        <time>2021-03-20T19:49:32Z</time>
      </trkpt>
      <trkpt lat="51.03478" lon="3.68646">
        <ele>5.07</ele>
        <time>2021-03-20T19:49:39Z</time>
      </trkpt>
      <trkpt lat="51.0351" lon="3.6859">
        <ele>2.38</ele>
        <time>2021-03-20T19:49:46Z</time>
      </trkpt>
      <trkpt lat="51.03542" lon="3.68542">
        <ele>1</ele>
        <time>2021-03-20T19:49:52Z</time>
      </trkpt>
      <trkpt lat="51.03692" lon="3.68343">
        <ele>5.74</ele>
        <time>2021-03-20T19:49:59Z</time>
      </trkpt>
      <trkpt lat="51.03783" lon="3.6823">
        <ele>9.72</ele>
        <time>2021-03-20T19:50:06Z</time>
      </trkpt>
      <trkpt lat="51.03833" lon="3.68178">
        <ele>9.06</ele>
        <time>2021-03-20T19:50:12Z</time>
      </trkpt>
      <trkpt lat="51.0389" lon="3.68127">
        <ele>8.12</ele>
        <time>2021-03-20T19:50:19Z</time>
      </trkpt>
      <trkpt lat="51.03929" lon="3.68102">
        <ele>8.81</ele>
        <time>2021-03-20T19:50:26Z</time>
      </trkpt>
      <trkpt lat="51.04002" lon="3.6806">
        <ele>1</ele>
        <time>2021-03-20T19:50:32Z</time>
      </trkpt>
      <trkpt lat="51.04088" lon="3.68022">
        <ele>4.03</ele>
        <time>2021-03-20T19:50:39Z</time>
      </trkpt>
      <trkpt lat="51.04146" lon="3.68002">
        <ele>6.25</ele>
        <time>2021-03-20T19:50:46Z</time>
      </trkpt>
      <trkpt lat="51.04413" lon="3.67933">
        <ele>5.6</ele>
        <time>2021-03-20T19:50:52Z</time>
      </trkpt>
      <trkpt lat="51.04609" lon="3.67892">
        <ele>4.24</ele>
        <time>2021-03-20T19:50:59Z</time>
      </trkpt>
      <trkpt lat="51.04676" lon="3.67874">
        <ele>5.12</ele>
        <time>2021-03-20T19:51:06Z</time>
      </trkpt>
      <trkpt lat="51.04742" lon="3.67851">
        <ele>-1.18</ele>
        <time>2021-03-20T19:51:12Z</time>
      </trkpt>
      <trkpt lat="51.0481" lon="3.67823">
        <ele>0.32</ele>
        <time>2021-03-20T19:51:19Z</time>
      </trkpt>
      <trkpt lat="51.04873" lon="3.67793">
        <ele>3.92</ele>
        <time>2021-03-20T19:51:25Z</time>
      </trkpt>
      <trkpt lat="51.04918" lon="3.67766">
        <ele>3.28</ele>
        <time>2021-03-20T19:51:32Z</time>
      </trkpt>
      <trkpt lat="51.04998" lon="3.67707">
        <ele>6.61</ele>
        <time>2021-03-20T19:51:39Z</time>
      </trkpt>
      <trkpt lat="51.05052" lon="3.67659">
        <ele>9.53</ele>
        <time>2021-03-20T19:51:45Z</time>
      </trkpt>
      <trkpt lat="51.05145" lon="3.67554">
        <ele>4.7</ele>
        <time>2021-03-20T19:51:52Z</time>
      </trkpt>
      <trkpt lat="51.0523" lon="3.67446">
        <ele>-1.53</ele>
        <time>2021-03-20T19:51:59Z</time>
      </trkpt>
      <trkpt lat="51.05343" lon="3.67278">
        <ele>4</ele>
        <time>2021-03-20T19:52:05Z</time>
      </trkpt>
      <trkpt lat="51.05441" lon="3.67127">
        <ele>1.56</ele>
        <time>2021-03-20T19:52:12Z</time>
      </trkpt>
      <trkpt lat="51.0556" lon="3.66941">
        <ele>1.36</ele>
        <time>2021-03-20T19:52:19Z</time>
      </trkpt>
      <trkpt lat="51.05656" lon="3.66799">
        <ele>3.23</ele>
        <time>2021-03-20T19:52:25Z</time>
      </trkpt>
      <trkpt lat="51.05748" lon="3.66673">
        <ele>5</ele>
        <time>2021-03-20T19:52:32Z</time>
      </trkpt>
      <trkpt lat="51.05843" lon="3.6655">
        <ele>4</ele>
        <time>2021-03-20T19:52:39Z</time>
      </trkpt>
      <trkpt lat="51.0593" lon="3.66446">
        <ele>3.39</ele>
        <time>2021-03-20T19:52:45Z</time>
      </trkpt>
      <trkpt lat="51.06014" lon="3.66352">
        <ele>8.33</ele>
        <time>2021-03-20T19:52:52Z</time>
      </trkpt>
      <trkpt lat="51.0606" lon="3.66303">
        <ele>7.66</ele>
        <time>2021-03-20T19:52:59Z</time>
      </trkpt>
      <trkpt lat="51.06131" lon="3.66235">
        <ele>5.46</ele>
        <time>2021-03-20T19:53:05Z</time>
      </trkpt>
      <trkpt lat="51.06224" lon="3.66155">
        <ele>5.47</ele>
        <time>2021-03-20T19:53:12Z</time>
      </trkpt>
      <trkpt lat="51.06323" lon="3.6608">
        <ele>-0.63</ele>
        <time>2021-03-20T19:53:19Z</time>
      </trkpt>
      <trkpt lat="51.064" lon="3.6603">
        <ele>4.58</ele>
        <time>2021-03-20T19:53:25Z</time>
      </trkpt>
      <trkpt lat="51.06444" lon="3.66004">
        <ele>5.87</ele>
        <time>2021-03-20T19:53:32Z</time>
      </trkpt>
      <trkpt lat="51.0653" lon="3.65959">
        <ele>2.17</ele>
        <time>2021-03-20T19:53:38Z</time>
      </trkpt>
      <trkpt lat="51.06586" lon="3.65934">
        <ele>-0.43</ele>
        <time>2021-03-20T19:53:45Z</time>
      </trkpt>
      <trkpt lat="51.06651" lon="3.65909">
        <ele>2</ele>
        <time>2021-03-20T19:53:52Z</time>
      </trkpt>
      <trkpt lat="51.06714" lon="3.65887">
        <ele>4.35</ele>
        <time>2021-03-20T19:53:58Z</time>
      </trkpt>
      <trkpt lat="51.06835" lon="3.65854">
        <ele>3.34</ele>
        <time>2021-03-20T19:54:05Z</time>
      </trkpt>
      <trkpt lat="51.06899" lon="3.65841">
        <ele>4.53</ele>
        <time>2021-03-20T19:54:12Z</time>
      </trkpt>
      <trkpt lat="51.06968" lon="3.6583">
        <ele>3.32</ele>
        <time>2021-03-20T19:54:18Z</time>
      </trkpt>
      <trkpt lat="51.0704" lon="3.65822">
        <ele>3.75</ele>
        <time>2021-03-20T19:54:25Z</time>
      </trkpt>
      <trkpt lat="51.07159" lon="3.65816">
        <ele>5.02</ele>
        <time>2021-03-20T19:54:32Z</time>
      </trkpt>
      <trkpt lat="51.07322" lon="3.65815">
        <ele>2.28</ele>
        <time>2021-03-20T19:54:38Z</time>
      </trkpt>
      <trkpt lat="51.07449" lon="3.65822">
        <ele>4.28</ele>
        <time>2021-03-20T19:54:45Z</time>
      </trkpt>
      <trkpt lat="51.08055" lon="3.65873">
        <ele>3.91</ele>
        <time>2021-03-20T19:54:52Z</time>
      </trkpt>
      <trkpt lat="51.08125" lon="3.65884">
        <ele>3</ele>
        <time>2021-03-20T19:54:58Z</time>
      </trkpt>
      <trkpt lat="51.08156" lon="3.65895">
        <ele>4.26</ele>
        <time>2021-03-20T19:55:05Z</time>
      </trkpt>
      <trkpt lat="51.08183" lon="3.65908">
        <ele>5.19</ele>
        <time>2021-03-20T19:55:12Z</time>
      </trkpt>
      <trkpt lat="51.08203" lon="3.6592">
        <ele>5.16</ele>
        <time>2021-03-20T19:55:18Z</time>
      </trkpt>
      <trkpt lat="51.08239" lon="3.65949">
        <ele>5.08</ele>
        <time>2021-03-20T19:55:25Z</time>
      </trkpt>
      <trkpt lat="51.08282" lon="3.65995">
        <ele>4.76</ele>
        <time>2021-03-20T19:55:32Z</time>
      </trkpt>
      <trkpt lat="51.08319" lon="3.66051">
        <ele>7</ele>
        <time>2021-03-20T19:55:38Z</time>
      </trkpt>
      <trkpt lat="51.08348" lon="3.66115">
        <ele>3.34</ele>
        <time>2021-03-20T19:55:45Z</time>
      </trkpt>
      <trkpt lat="51.08362" lon="3.66152">
        <ele>2.47</ele>
        <time>2021-03-20T19:55:51Z</time>
      </trkpt>
      <trkpt lat="51.08386" lon="3.66233">
        <ele>4.11</ele>
        <time>2021-03-20T19:55:58Z</time>
      </trkpt>
      <trkpt lat="51.08525" lon="3.66775">
        <ele>6.64</ele>
        <time>2021-03-20T19:56:05Z</time>
      </trkpt>
      <trkpt lat="51.08585" lon="3.67016">
        <ele>5.16</ele>
        <time>2021-03-20T19:56:11Z</time>
      </trkpt>
      <trkpt lat="51.08627" lon="3.672">
        <ele>5.14</ele>
        <time>2021-03-20T19:56:18Z</time>
      </trkpt>
      <trkpt lat="51.08683" lon="3.67484">
        <ele>2.15</ele>
        <time>2021-03-20T19:56:25Z</time>
      </trkpt>
      <trkpt lat="51.08751" lon="3.67869">
        <ele>-2.62</ele>
        <time>2021-03-20T19:56:31Z</time>
      </trkpt>
      <trkpt lat="51.08817" lon="3.68176">
        <ele>8</ele>
        <time>2021-03-20T19:56:38Z</time>
      </trkpt>
      <trkpt lat="51.08865" lon="3.68385">
        <ele>7.49</ele>
        <time>2021-03-20T19:56:45Z</time>
      </trkpt>
      <trkpt lat="51.0892" lon="3.68598">
        <ele>5.52</ele>
        <time>2021-03-20T19:56:51Z</time>
      </trkpt>
      <trkpt lat="51.09019" lon="3.68943">
        <ele>-0.34</ele>
        <time>2021-03-20T19:56:58Z</time>
      </trkpt>
      <trkpt lat="51.09173" lon="3.69462">
        <ele>0.35</ele>
        <time>2021-03-20T19:57:05Z</time>
      </trkpt>
      <trkpt lat="51.09251" lon="3.69706">
        <ele>1.65</ele>
        <time>2021-03-20T19:57:11Z</time>
      </trkpt>
      <trkpt lat="51.09341" lon="3.69965">
        <ele>5.34</ele>
        <time>2021-03-20T19:57:18Z</time>
      </trkpt>
      <trkpt lat="51.0944" lon="3.70218">
        <ele>5.71</ele>
        <time>2021-03-20T19:57:25Z</time>
      </trkpt>
      <trkpt lat="51.0944" lon="3.70218">
        <ele>5.71</ele>
        <time>2021-03-20T19:57:25Z</time>
      </trkpt>
      <trkpt lat="51.09466" lon="3.70282">
        <ele>7.33</ele>
        <time>2021-03-20T19:57:32Z</time>
      </trkpt>
      <trkpt lat="51.09542" lon="3.70459">
        <ele>5.77</ele>
        <time>2021-03-20T19:57:40Z</time>
      </trkpt>
      <trkpt lat="51.09623" lon="3.70632">
        <ele>6.47</ele>
        <time>2021-03-20T19:57:48Z</time>
      </trkpt>
      <trkpt lat="51.09703" lon="3.70796">
        <ele>3.66</ele>
        <time>2021-03-20T19:57:56Z</time>
      </trkpt>
      <trkpt lat="51.09852" lon="3.71077">
        <ele>6</ele>
        <time>2021-03-20T19:58:03Z</time>
      </trkpt>
      <trkpt lat="51.09918" lon="3.7119">
        <ele>8.11</ele>
        <time>2021-03-20T19:58:11Z</time>
      </trkpt>
      <trkpt lat="51.10011" lon="3.71342">
        <ele>7</ele>
        <time>2021-03-20T19:58:19Z</time>
      </trkpt>
      <trkpt lat="51.10063" lon="3.71434">
        <ele>6.53</ele>
        <time>2021-03-20T19:58:27Z</time>
      </trkpt>
      <trkpt lat="51.1008" lon="3.71465">
        <ele>7.55</ele>
        <time>2021-03-20T19:58:34Z</time>
      </trkpt>
      <trkpt lat="51.10141" lon="3.71565">
        <ele>5.68</ele>
        <time>2021-03-20T19:58:42Z</time>
      </trkpt>
      <trkpt lat="51.10236" lon="3.71704">
        <ele>11.54</ele>
        <time>2021-03-20T19:58:50Z</time>
      </trkpt>
      <trkpt lat="51.10327" lon="3.71829">
        <ele>4.76</ele>
        <time>2021-03-20T19:58:58Z</time>
      </trkpt>
      <trkpt lat="51.10445" lon="3.71982">
        <ele>6.35</ele>
        <time>2021-03-20T19:59:06Z</time>
      </trkpt>
      <trkpt lat="51.10654" lon="3.72259">
        <ele>6.16</ele>
        <time>2021-03-20T19:59:13Z</time>
      </trkpt>
      <trkpt lat="51.1073" lon="3.72351">
        <ele>5.64</ele>
        <time>2021-03-20T19:59:21Z</time>
      </trkpt>
      <trkpt lat="51.10808" lon="3.72436">
        <ele>10.97</ele>
        <time>2021-03-20T19:59:29Z</time>
      </trkpt>
      <trkpt lat="51.10876" lon="3.72504">
        <ele>9.72</ele>
        <time>2021-03-20T19:59:37Z</time>
      </trkpt>
      <trkpt lat="51.10948" lon="3.72567">
        <ele>4.86</ele>
        <time>2021-03-20T19:59:44Z</time>
      </trkpt>
      <trkpt lat="51.11035" lon="3.72634">
        <ele>5.14</ele>
        <time>2021-03-20T19:59:52Z</time>
      </trkpt>
      <trkpt lat="51.11067" lon="3.72657">
        <ele>4.06</ele>
        <time>2021-03-20T20:00:00Z</time>
      </trkpt>
      <trkpt lat="51.11152" lon="3.72712">
        <ele>6.09</ele>
        <time>2021-03-20T20:00:08Z</time>
      </trkpt>
      <trkpt lat="51.11211" lon="3.72745">
        <ele>4.61</ele>
        <time>2021-03-20T20:00:15Z</time>
      </trkpt>
      <trkpt lat="51.11281" lon="3.7278">
        <ele>4</ele>
        <time>2021-03-20T20:00:23Z</time>
      </trkpt>
      <trkpt lat="51.1135" lon="3.7281">
        <ele>5.58</ele>
        <time>2021-03-20T20:00:31Z</time>
      </trkpt>
      <trkpt lat="51.11475" lon="3.72852">
        <ele>7.89</ele>
        <time>2021-03-20T20:00:39Z</time>
      </trkpt>
      <trkpt lat="51.11558" lon="3.72872">
        <ele>7.32</ele>
        <time>2021-03-20T20:00:47Z</time>
      </trkpt>
      <trkpt lat="51.11643" lon="3.72886">
        <ele>7.12</ele>
        <time>2021-03-20T20:00:54Z</time>
      </trkpt>
      <trkpt lat="51.11692" lon="3.72891">
        <ele>5.28</ele>
        <time>2021-03-20T20:01:02Z</time>
      </trkpt>
      <trkpt lat="51.11943" lon="3.72907">
        <ele>6.32</ele>
        <time>2021-03-20T20:01:10Z</time>
      </trkpt>
      <trkpt lat="51.12003" lon="3.72913">
        <ele>2.34</ele>
        <time>2021-03-20T20:01:18Z</time>
      </trkpt>
      <trkpt lat="51.12027" lon="3.72968">
        <ele>2.75</ele>
        <time>2021-03-20T20:01:20Z</time>
      </trkpt>
      <trkpt lat="51.12034" lon="3.72977">
        <ele>3.64</ele>
        <time>2021-03-20T20:01:23Z</time>
      </trkpt>
      <trkpt lat="51.12174" lon="3.73">
        <ele>5.26</ele>
        <time>2021-03-20T20:01:29Z</time>
      </trkpt>
      <trkpt lat="51.12256" lon="3.73021">
        <ele>6</ele>
        <time>2021-03-20T20:01:35Z</time>
      </trkpt>
      <trkpt lat="51.12314" lon="3.7304">
        <ele>6.55</ele>
        <time>2021-03-20T20:01:42Z</time>
      </trkpt>
      <trkpt lat="51.12393" lon="3.73069">
        <ele>6.45</ele>
        <time>2021-03-20T20:01:48Z</time>
      </trkpt>
      <trkpt lat="51.12464" lon="3.73102">
        <ele>5.76</ele>
        <time>2021-03-20T20:01:54Z</time>
      </trkpt>
      <trkpt lat="51.12598" lon="3.73179">
        <ele>5.04</ele>
        <time>2021-03-20T20:02:01Z</time>
      </trkpt>
      <trkpt lat="51.12641" lon="3.73208">
        <ele>3.57</ele>
        <time>2021-03-20T20:02:07Z</time>
      </trkpt>
      <trkpt lat="51.1273" lon="3.73275">
        <ele>3.74</ele>
        <time>2021-03-20T20:02:13Z</time>
      </trkpt>
      <trkpt lat="51.1294" lon="3.73439">
        <ele>4.3</ele>
        <time>2021-03-20T20:02:20Z</time>
      </trkpt>
      <trkpt lat="51.1295" lon="3.73449">
        <ele>3.82</ele>
        <time>2021-03-20T20:02:26Z</time>
      </trkpt>
      <trkpt lat="51.12953" lon="3.7346">
        <ele>3.69</ele>
        <time>2021-03-20T20:02:32Z</time>
      </trkpt>
      <trkpt lat="51.12973" lon="3.73453">
        <ele>2.97</ele>
        <time>2021-03-20T20:02:34Z</time>
      </trkpt>
      <trkpt lat="51.12985" lon="3.73454">
        <ele>2.54</ele>
        <time>2021-03-20T20:02:35Z</time>
      </trkpt>
      <trkpt lat="51.13027" lon="3.73435">
        <ele>2.33</ele>
        <time>2021-03-20T20:02:37Z</time>
      </trkpt>
      <trkpt lat="51.1307" lon="3.73467">
        <ele>5.16</ele>
        <time>2021-03-20T20:02:45Z</time>
      </trkpt>
      <trkpt lat="51.13195" lon="3.73547">
        <ele>2.98</ele>
        <time>2021-03-20T20:02:53Z</time>
      </trkpt>
      <trkpt lat="51.13366" lon="3.73638">
        <ele>1.19</ele>
        <time>2021-03-20T20:03:01Z</time>
      </trkpt>
      <trkpt lat="51.13513" lon="3.73701">
        <ele>2.43</ele>
        <time>2021-03-20T20:03:09Z</time>
      </trkpt>
      <trkpt lat="51.1377" lon="3.73802">
        <ele>2</ele>
        <time>2021-03-20T20:03:18Z</time>
      </trkpt>
      <trkpt lat="51.13817" lon="3.73821">
        <ele>3.41</ele>
        <time>2021-03-20T20:03:26Z</time>
      </trkpt>
      <trkpt lat="51.13985" lon="3.73888">
        <ele>1.99</ele>
        <time>2021-03-20T20:03:34Z</time>
      </trkpt>
      <trkpt lat="51.13995" lon="3.739">
        <ele>2.07</ele>
        <time>2021-03-20T20:03:36Z</time>
      </trkpt>
      <trkpt lat="51.14206" lon="3.74013">
        <ele>4.36</ele>
        <time>2021-03-20T20:03:39Z</time>
      </trkpt>
      <trkpt lat="51.14215" lon="3.74022">
        <ele>4.14</ele>
        <time>2021-03-20T20:03:41Z</time>
      </trkpt>
      <trkpt lat="51.14218" lon="3.74033">
        <ele>4.32</ele>
        <time>2021-03-20T20:03:43Z</time>
      </trkpt>
      <trkpt lat="51.14221" lon="3.74052">
        <ele>4.77</ele>
        <time>2021-03-20T20:03:46Z</time>
      </trkpt>
      <trkpt lat="51.14212" lon="3.74114">
        <ele>4.62</ele>
        <time>2021-03-20T20:03:48Z</time>
      </trkpt>
      <trkpt lat="51.14211" lon="3.74137">
        <ele>4.61</ele>
        <time>2021-03-20T20:03:50Z</time>
      </trkpt>
      <trkpt lat="51.14214" lon="3.74165">
        <ele>5.13</ele>
        <time>2021-03-20T20:03:52Z</time>
      </trkpt>
      <trkpt lat="51.14219" lon="3.74182">
        <ele>5.17</ele>
        <time>2021-03-20T20:03:55Z</time>
      </trkpt>
      <trkpt lat="51.14232" lon="3.74211">
        <ele>4.42</ele>
        <time>2021-03-20T20:03:57Z</time>
      </trkpt>
      <trkpt lat="51.14252" lon="3.74235">
        <ele>3.92</ele>
        <time>2021-03-20T20:03:59Z</time>
      </trkpt>
      <trkpt lat="51.14267" lon="3.74244">
        <ele>3.4</ele>
        <time>2021-03-20T20:04:01Z</time>
      </trkpt>
      <trkpt lat="51.14277" lon="3.74246">
        <ele>3.01</ele>
        <time>2021-03-20T20:04:04Z</time>
      </trkpt>
      <trkpt lat="51.14301" lon="3.74246">
        <ele>1.32</ele>
        <time>2021-03-20T20:04:06Z</time>
      </trkpt>
      <trkpt lat="51.14322" lon="3.74255">
        <ele>1.07</ele>
        <time>2021-03-20T20:04:07Z</time>
      </trkpt>
      <trkpt lat="51.14331" lon="3.74264">
        <ele>1.04</ele>
        <time>2021-03-20T20:04:08Z</time>
      </trkpt>
      <trkpt lat="51.1435" lon="3.74298">
        <ele>1.58</ele>
        <time>2021-03-20T20:04:09Z</time>
      </trkpt>
      <trkpt lat="51.14356" lon="3.74306">
        <ele>1.82</ele>
        <time>2021-03-20T20:04:10Z</time>
      </trkpt>
      <trkpt lat="51.14366" lon="3.74316">
        <ele>2.49</ele>
        <time>2021-03-20T20:04:11Z</time>
      </trkpt>
      <trkpt lat="51.14377" lon="3.74323">
        <ele>3.38</ele>
        <time>2021-03-20T20:04:12Z</time>
      </trkpt>
      <trkpt lat="51.14403" lon="3.74328">
        <ele>5.24</ele>
        <time>2021-03-20T20:04:13Z</time>
      </trkpt>
      <trkpt lat="51.14448" lon="3.74325">
        <ele>6.86</ele>
        <time>2021-03-20T20:04:14Z</time>
      </trkpt>
      <trkpt lat="51.14496" lon="3.74311">
        <ele>2.92</ele>
        <time>2021-03-20T20:04:15Z</time>
      </trkpt>
      <trkpt lat="51.14513" lon="3.7431">
        <ele>2.74</ele>
        <time>2021-03-20T20:04:16Z</time>
      </trkpt>
      <trkpt lat="51.14531" lon="3.7432">
        <ele>2.75</ele>
        <time>2021-03-20T20:04:17Z</time>
      </trkpt>
      <trkpt lat="51.14544" lon="3.74336">
        <ele>3.1</ele>
        <time>2021-03-20T20:04:18Z</time>
      </trkpt>
      <trkpt lat="51.14543" lon="3.74346">
        <ele>2.59</ele>
        <time>2021-03-20T20:04:22Z</time>
      </trkpt>
      <trkpt lat="51.14543" lon="3.74362">
        <ele>1.93</ele>
        <time>2021-03-20T20:04:25Z</time>
      </trkpt>
      <trkpt lat="51.14546" lon="3.74376">
        <ele>1.09</ele>
        <time>2021-03-20T20:04:28Z</time>
      </trkpt>
      <trkpt lat="51.14555" lon="3.7439">
        <ele>0.03</ele>
        <time>2021-03-20T20:04:32Z</time>
      </trkpt>
      <trkpt lat="51.14562" lon="3.74397">
        <ele>0.43</ele>
        <time>2021-03-20T20:04:35Z</time>
      </trkpt>
      <trkpt lat="51.14569" lon="3.744">
        <ele>1</ele>
        <time>2021-03-20T20:04:39Z</time>
      </trkpt>
      <trkpt lat="51.1458" lon="3.74399">
        <ele>1.76</ele>
        <time>2021-03-20T20:04:42Z</time>
      </trkpt>
      <trkpt lat="51.14589" lon="3.74393">
        <ele>2.2</ele>
        <time>2021-03-20T20:04:45Z</time>
      </trkpt>
      <trkpt lat="51.14596" lon="3.74384">
        <ele>2.73</ele>
        <time>2021-03-20T20:04:49Z</time>
      </trkpt>
      <trkpt lat="51.14601" lon="3.7437">
        <ele>3.54</ele>
        <time>2021-03-20T20:04:52Z</time>
      </trkpt>
      <trkpt lat="51.14603" lon="3.74353">
        <ele>4.08</ele>
        <time>2021-03-20T20:04:55Z</time>
      </trkpt>
      <trkpt lat="51.14611" lon="3.74345">
        <ele>4</ele>
        <time>2021-03-20T20:04:59Z</time>
      </trkpt>
      <trkpt lat="51.14632" lon="3.74336">
        <ele>3.26</ele>
        <time>2021-03-20T20:05:02Z</time>
      </trkpt>
      <trkpt lat="51.1466" lon="3.74317">
        <ele>4.35</ele>
        <time>2021-03-20T20:05:06Z</time>
      </trkpt>
      <trkpt lat="51.14694" lon="3.74306">
        <ele>4.03</ele>
        <time>2021-03-20T20:05:09Z</time>
      </trkpt>
      <trkpt lat="51.14719" lon="3.74307">
        <ele>3.23</ele>
        <time>2021-03-20T20:05:12Z</time>
      </trkpt>
      <trkpt lat="51.14737" lon="3.74313">
        <ele>4.04</ele>
        <time>2021-03-20T20:05:16Z</time>
      </trkpt>
      <trkpt lat="51.15027" lon="3.74437">
        <ele>4.22</ele>
        <time>2021-03-20T20:05:19Z</time>
      </trkpt>
      <trkpt lat="51.15096" lon="3.74471">
        <ele>2</ele>
        <time>2021-03-20T20:05:22Z</time>
      </trkpt>
      <trkpt lat="51.15171" lon="3.74512">
        <ele>0.16</ele>
        <time>2021-03-20T20:05:26Z</time>
      </trkpt>
      <trkpt lat="51.15704" lon="3.74786">
        <ele>2.34</ele>
        <time>2021-03-20T20:05:29Z</time>
      </trkpt>
      <trkpt lat="51.15816" lon="3.74838">
        <ele>-1</ele>
        <time>2021-03-20T20:05:33Z</time>
      </trkpt>
      <trkpt lat="51.15923" lon="3.74904">
        <ele>0.8</ele>
        <time>2021-03-20T20:05:36Z</time>
      </trkpt>
      <trkpt lat="51.15985" lon="3.74951">
        <ele>3</ele>
        <time>2021-03-20T20:05:39Z</time>
      </trkpt>
      <trkpt lat="51.16045" lon="3.75006">
        <ele>3</ele>
        <time>2021-03-20T20:05:43Z</time>
      </trkpt>
      <trkpt lat="51.16108" lon="3.75074">
        <ele>2</ele>
        <time>2021-03-20T20:05:46Z</time>
      </trkpt>
      <trkpt lat="51.16161" lon="3.75137">
        <ele>2</ele>
        <time>2021-03-20T20:05:49Z</time>
      </trkpt>
      <trkpt lat="51.16212" lon="3.7521">
        <ele>2.35</ele>
        <time>2021-03-20T20:05:53Z</time>
      </trkpt>
      <trkpt lat="51.1624" lon="3.75254">
        <ele>2.49</ele>
        <time>2021-03-20T20:05:56Z</time>
      </trkpt>
      <trkpt lat="51.16267" lon="3.75301">
        <ele>2</ele>
        <time>2021-03-20T20:06:00Z</time>
      </trkpt>
      <trkpt lat="51.16298" lon="3.75361">
        <ele>1.01</ele>
        <time>2021-03-20T20:06:03Z</time>
      </trkpt>
      <trkpt lat="51.16328" lon="3.75426">
        <ele>2.87</ele>
        <time>2021-03-20T20:06:06Z</time>
      </trkpt>
      <trkpt lat="51.16353" lon="3.75485">
        <ele>3.38</ele>
        <time>2021-03-20T20:06:10Z</time>
      </trkpt>
      <trkpt lat="51.16382" lon="3.75564">
        <ele>2.49</ele>
        <time>2021-03-20T20:06:13Z</time>
      </trkpt>
      <trkpt lat="51.16396" lon="3.75602">
        <ele>2.35</ele>
        <time>2021-03-20T20:06:16Z</time>
      </trkpt>
      <trkpt lat="51.16415" lon="3.75667">
        <ele>2.06</ele>
        <time>2021-03-20T20:06:20Z</time>
      </trkpt>
      <trkpt lat="51.16442" lon="3.75767">
        <ele>1.78</ele>
        <time>2021-03-20T20:06:23Z</time>
      </trkpt>
      <trkpt lat="51.16462" lon="3.75861">
        <ele>2.64</ele>
        <time>2021-03-20T20:06:27Z</time>
      </trkpt>
      <trkpt lat="51.16479" lon="3.75956">
        <ele>3.25</ele>
        <time>2021-03-20T20:06:30Z</time>
      </trkpt>
      <trkpt lat="51.16531" lon="3.76369">
        <ele>4.96</ele>
        <time>2021-03-20T20:06:33Z</time>
      </trkpt>
      <trkpt lat="51.16534" lon="3.76416">
        <ele>4.53</ele>
        <time>2021-03-20T20:06:37Z</time>
      </trkpt>
      <trkpt lat="51.16535" lon="3.76466">
        <ele>2.9</ele>
        <time>2021-03-20T20:06:40Z</time>
      </trkpt>
      <trkpt lat="51.16555" lon="3.76622">
        <ele>1.39</ele>
        <time>2021-03-20T20:06:43Z</time>
      </trkpt>
      <trkpt lat="51.16562" lon="3.7667">
        <ele>3.56</ele>
        <time>2021-03-20T20:06:47Z</time>
      </trkpt>
      <trkpt lat="51.16583" lon="3.76775">
        <ele>6.89</ele>
        <time>2021-03-20T20:06:50Z</time>
      </trkpt>
      <trkpt lat="51.16602" lon="3.76847">
        <ele>3.16</ele>
        <time>2021-03-20T20:06:54Z</time>
      </trkpt>
      <trkpt lat="51.16631" lon="3.76943">
        <ele>2</ele>
        <time>2021-03-20T20:06:57Z</time>
      </trkpt>
      <trkpt lat="51.16643" lon="3.76998">
        <ele>1.19</ele>
        <time>2021-03-20T20:07:00Z</time>
      </trkpt>
      <trkpt lat="51.1665" lon="3.77044">
        <ele>1.39</ele>
        <time>2021-03-20T20:07:04Z</time>
      </trkpt>
      <trkpt lat="51.16695" lon="3.77398">
        <ele>3.34</ele>
        <time>2021-03-20T20:07:07Z</time>
      </trkpt>
      <trkpt lat="51.16721" lon="3.77589">
        <ele>3.79</ele>
        <time>2021-03-20T20:07:10Z</time>
      </trkpt>
      <trkpt lat="51.16773" lon="3.7799">
        <ele>6.96</ele>
        <time>2021-03-20T20:07:14Z</time>
      </trkpt>
      <trkpt lat="51.16792" lon="3.78113">
        <ele>10.95</ele>
        <time>2021-03-20T20:07:17Z</time>
      </trkpt>
      <trkpt lat="51.16818" lon="3.7824">
        <ele>7.16</ele>
        <time>2021-03-20T20:07:21Z</time>
      </trkpt>
      <trkpt lat="51.16842" lon="3.78349">
        <ele>3.75</ele>
        <time>2021-03-20T20:07:24Z</time>
      </trkpt>
      <trkpt lat="51.16869" lon="3.78442">
        <ele>3</ele>
        <time>2021-03-20T20:07:27Z</time>
      </trkpt>
      <trkpt lat="51.16899" lon="3.78524">
        <ele>3.37</ele>
        <time>2021-03-20T20:07:31Z</time>
      </trkpt>
      <trkpt lat="51.16954" lon="3.78659">
        <ele>4.49</ele>
        <time>2021-03-20T20:07:34Z</time>
      </trkpt>
      <trkpt lat="51.16974" lon="3.78726">
        <ele>3</ele>
        <time>2021-03-20T20:07:38Z</time>
      </trkpt>
      <trkpt lat="51.16985" lon="3.78768">
        <ele>3</ele>
        <time>2021-03-20T20:07:41Z</time>
      </trkpt>
      <trkpt lat="51.17069" lon="3.79201">
        <ele>3.63</ele>
        <time>2021-03-20T20:07:44Z</time>
      </trkpt>
      <trkpt lat="51.17089" lon="3.79244">
        <ele>3.42</ele>
        <time>2021-03-20T20:07:48Z</time>
      </trkpt>
      <trkpt lat="51.17102" lon="3.7926">
        <ele>3.67</ele>
        <time>2021-03-20T20:07:51Z</time>
      </trkpt>
      <trkpt lat="51.17116" lon="3.79272">
        <ele>4.18</ele>
        <time>2021-03-20T20:07:54Z</time>
      </trkpt>
      <trkpt lat="51.17137" lon="3.79282">
        <ele>4.79</ele>
        <time>2021-03-20T20:07:58Z</time>
      </trkpt>
      <trkpt lat="51.17398" lon="3.79383">
        <ele>8.46</ele>
        <time>2021-03-20T20:08:01Z</time>
      </trkpt>
      <trkpt lat="51.17421" lon="3.79386">
        <ele>10.66</ele>
        <time>2021-03-20T20:08:05Z</time>
      </trkpt>
      <trkpt lat="51.17437" lon="3.79382">
        <ele>12.29</ele>
        <time>2021-03-20T20:08:08Z</time>
      </trkpt>
      <trkpt lat="51.1746" lon="3.79366">
        <ele>12.52</ele>
        <time>2021-03-20T20:08:11Z</time>
      </trkpt>
      <trkpt lat="51.17477" lon="3.7941">
        <ele>11.39</ele>
        <time>2021-03-20T20:08:17Z</time>
      </trkpt>
      <trkpt lat="51.1748" lon="3.79414">
        <ele>10.44</ele>
        <time>2021-03-20T20:08:22Z</time>
      </trkpt>
      <trkpt lat="51.17488" lon="3.79419">
        <ele>8.49</ele>
        <time>2021-03-20T20:08:27Z</time>
      </trkpt>
      <trkpt lat="51.17784" lon="3.79534">
        <ele>10.82</ele>
        <time>2021-03-20T20:08:33Z</time>
      </trkpt>
      <trkpt lat="51.178" lon="3.79537">
        <ele>10.94</ele>
        <time>2021-03-20T20:08:38Z</time>
      </trkpt>
      <trkpt lat="51.17839" lon="3.79529">
        <ele>10.34</ele>
        <time>2021-03-20T20:08:43Z</time>
      </trkpt>
      <trkpt lat="51.17853" lon="3.79531">
        <ele>8.89</ele>
        <time>2021-03-20T20:08:48Z</time>
      </trkpt>
      <trkpt lat="51.17978" lon="3.79579">
        <ele>4.65</ele>
        <time>2021-03-20T20:08:54Z</time>
      </trkpt>
      <trkpt lat="51.18003" lon="3.79594">
        <ele>2.49</ele>
        <time>2021-03-20T20:08:59Z</time>
      </trkpt>
      <trkpt lat="51.18041" lon="3.79628">
        <ele>2.45</ele>
        <time>2021-03-20T20:09:04Z</time>
      </trkpt>
      <trkpt lat="51.18066" lon="3.79643">
        <ele>4.78</ele>
        <time>2021-03-20T20:09:10Z</time>
      </trkpt>
      <trkpt lat="51.1817" lon="3.79692">
        <ele>7.29</ele>
        <time>2021-03-20T20:09:15Z</time>
      </trkpt>
      <trkpt lat="51.18229" lon="3.79725">
        <ele>8.17</ele>
        <time>2021-03-20T20:09:20Z</time>
      </trkpt>
      <trkpt lat="51.183" lon="3.79772">
        <ele>0.59</ele>
        <time>2021-03-20T20:09:25Z</time>
      </trkpt>
      <trkpt lat="51.18365" lon="3.79827">
        <ele>3.64</ele>
        <time>2021-03-20T20:09:31Z</time>
      </trkpt>
      <trkpt lat="51.18618" lon="3.80067">
        <ele>2.3</ele>
        <time>2021-03-20T20:09:36Z</time>
      </trkpt>
      <trkpt lat="51.18632" lon="3.80075">
        <ele>1.85</ele>
        <time>2021-03-20T20:09:41Z</time>
      </trkpt>
      <trkpt lat="51.18643" lon="3.80078">
        <ele>1.99</ele>
        <time>2021-03-20T20:09:47Z</time>
      </trkpt>
      <trkpt lat="51.19062" lon="3.80066">
        <ele>3.11</ele>
        <time>2021-03-20T20:09:52Z</time>
      </trkpt>
      <trkpt lat="51.19721" lon="3.80043">
        <ele>2.49</ele>
        <time>2021-03-20T20:09:57Z</time>
      </trkpt>
      <trkpt lat="51.1977" lon="3.80033">
        <ele>4.9</ele>
        <time>2021-03-20T20:10:03Z</time>
      </trkpt>
      <trkpt lat="51.19835" lon="3.80022">
        <ele>3.21</ele>
        <time>2021-03-20T20:10:13Z</time>
      </trkpt>
      <trkpt lat="51.20035" lon="3.79997">
        <ele>4.97</ele>
        <time>2021-03-20T20:10:23Z</time>
      </trkpt>
      <trkpt lat="51.20078" lon="3.79993">
        <ele>5.55</ele>
        <time>2021-03-20T20:10:33Z</time>
      </trkpt>
      <trkpt lat="51.20241" lon="3.79986">
        <ele>1.8</ele>
        <time>2021-03-20T20:10:43Z</time>
      </trkpt>
      <trkpt lat="51.20322" lon="3.79991">
        <ele>0.74</ele>
        <time>2021-03-20T20:10:53Z</time>
      </trkpt>
      <trkpt lat="51.20564" lon="3.80011">
        <ele>4.29</ele>
        <time>2021-03-20T20:11:03Z</time>
      </trkpt>
      <trkpt lat="51.20782" lon="3.8003">
        <ele>1.1</ele>
        <time>2021-03-20T20:11:13Z</time>
      </trkpt>
      <trkpt lat="51.20951" lon="3.80044">
        <ele>3.26</ele>
        <time>2021-03-20T20:11:23Z</time>
      </trkpt>
      <trkpt lat="51.2097" lon="3.80052">
        <ele>3.84</ele>
        <time>2021-03-20T20:11:33Z</time>
      </trkpt>
      <trkpt lat="51.21049" lon="3.80068">
        <ele>1.48</ele>
        <time>2021-03-20T20:11:44Z</time>
      </trkpt>
      <trkpt lat="51.21053" lon="3.8005">
        <ele>1.38</ele>
        <time>2021-03-20T20:11:45Z</time>
      </trkpt>
      <trkpt lat="51.21058" lon="3.8003">
        <ele>1.93</ele>
        <time>2021-03-20T20:11:50Z</time>
      </trkpt>
      <trkpt lat="51.21076" lon="3.79928">
        <ele>2.05</ele>
        <time>2021-03-20T20:11:55Z</time>
      </trkpt>
      <trkpt lat="51.21078" lon="3.79921">
        <ele>1.94</ele>
        <time>2021-03-20T20:12:01Z</time>
      </trkpt>
      <trkpt lat="51.21085" lon="3.79908">
        <ele>2.07</ele>
        <time>2021-03-20T20:12:06Z</time>
      </trkpt>
      <trkpt lat="51.21228" lon="3.79778">
        <ele>2.22</ele>
        <time>2021-03-20T20:12:11Z</time>
      </trkpt>
      <trkpt lat="51.21264" lon="3.79738">
        <ele>4.23</ele>
        <time>2021-03-20T20:12:16Z</time>
      </trkpt>
      <trkpt lat="51.21279" lon="3.79718">
        <ele>4.78</ele>
        <time>2021-03-20T20:12:21Z</time>
      </trkpt>
      <trkpt lat="51.21293" lon="3.79683">
        <ele>3.44</ele>
        <time>2021-03-20T20:12:26Z</time>
      </trkpt>
      <trkpt lat="51.21301" lon="3.79657">
        <ele>2.82</ele>
        <time>2021-03-20T20:12:31Z</time>
      </trkpt>
      <trkpt lat="51.21359" lon="3.79429">
        <ele>0.61</ele>
        <time>2021-03-20T20:12:37Z</time>
      </trkpt>
      <trkpt lat="51.21371" lon="3.79372">
        <ele>1.04</ele>
        <time>2021-03-20T20:12:42Z</time>
      </trkpt>
      <trkpt lat="51.21375" lon="3.79344">
        <ele>0.99</ele>
        <time>2021-03-20T20:12:47Z</time>
      </trkpt>
      <trkpt lat="51.21378" lon="3.79314">
        <ele>1.22</ele>
        <time>2021-03-20T20:12:52Z</time>
      </trkpt>
      <trkpt lat="51.21384" lon="3.79132">
        <ele>3.77</ele>
        <time>2021-03-20T20:12:57Z</time>
      </trkpt>
      <trkpt lat="51.21387" lon="3.79115">
        <ele>3.87</ele>
        <time>2021-03-20T20:13:02Z</time>
      </trkpt>
      <trkpt lat="51.21393" lon="3.79101">
        <ele>4.57</ele>
        <time>2021-03-20T20:13:07Z</time>
      </trkpt>
      <trkpt lat="51.21403" lon="3.79088">
        <ele>5.41</ele>
        <time>2021-03-20T20:13:13Z</time>
      </trkpt>
      <trkpt lat="51.21427" lon="3.7907">
        <ele>6</ele>
        <time>2021-03-20T20:13:18Z</time>
      </trkpt>
      <trkpt lat="51.21507" lon="3.79029">
        <ele>6.48</ele>
        <time>2021-03-20T20:13:23Z</time>
      </trkpt>
      <trkpt lat="51.21583" lon="3.78947">
        <ele>3.12</ele>
        <time>2021-03-20T20:13:28Z</time>
      </trkpt>
      <trkpt lat="51.21592" lon="3.7894">
        <ele>2.68</ele>
        <time>2021-03-20T20:13:33Z</time>
      </trkpt>
      <trkpt lat="51.21616" lon="3.78934">
        <ele>2.29</ele>
        <time>2021-03-20T20:13:38Z</time>
      </trkpt>
      <trkpt lat="51.21714" lon="3.78939">
        <ele>5.35</ele>
        <time>2021-03-20T20:13:43Z</time>
      </trkpt>
      <trkpt lat="51.21894" lon="3.78958">
        <ele>4.47</ele>
        <time>2021-03-20T20:13:48Z</time>
      </trkpt>
      <trkpt lat="51.21972" lon="3.78953">
        <ele>2.61</ele>
        <time>2021-03-20T20:13:54Z</time>
      </trkpt>
      <trkpt lat="51.22013" lon="3.78949">
        <ele>2.16</ele>
        <time>2021-03-20T20:13:59Z</time>
      </trkpt>
      <trkpt lat="51.22287" lon="3.78889">
        <ele>2.32</ele>
        <time>2021-03-20T20:14:04Z</time>
      </trkpt>
      <trkpt lat="51.22351" lon="3.78875">
        <ele>2.32</ele>
        <time>2021-03-20T20:14:09Z</time>
      </trkpt>
      <trkpt lat="51.22413" lon="3.78698">
        <ele>-1</ele>
        <time>2021-03-20T20:14:18Z</time>
      </trkpt>
      <trkpt lat="51.22452" lon="3.786">
        <ele>-0.33</ele>
        <time>2021-03-20T20:14:27Z</time>
      </trkpt>
      <trkpt lat="51.2248" lon="3.7849">
        <ele>-0.1</ele>
        <time>2021-03-20T20:14:36Z</time>
      </trkpt>
      <trkpt lat="51.22489" lon="3.7845">
        <ele>-0.6</ele>
        <time>2021-03-20T20:14:45Z</time>
      </trkpt>
      <trkpt lat="51.22494" lon="3.78413">
        <ele>3.2</ele>
        <time>2021-03-20T20:14:54Z</time>
      </trkpt>
      <trkpt lat="51.225" lon="3.78084">
        <ele>2</ele>
        <time>2021-03-20T20:15:03Z</time>
      </trkpt>
      <trkpt lat="51.22535" lon="3.78097">
        <ele>2.49</ele>
        <time>2021-03-20T20:15:05Z</time>
      </trkpt>
      <trkpt lat="51.22544" lon="3.78097">
        <ele>2.5</ele>
        <time>2021-03-20T20:15:07Z</time>
      </trkpt>
      <trkpt lat="51.22551" lon="3.78095">
        <ele>2.4</ele>
        <time>2021-03-20T20:15:09Z</time>
      </trkpt>
      <trkpt lat="51.22546" lon="3.78053">
        <ele>1.43</ele>
        <time>2021-03-20T20:15:13Z</time>
      </trkpt>
      <trkpt lat="51.22536" lon="3.78003">
        <ele>2.71</ele>
        <time>2021-03-20T20:15:18Z</time>
      </trkpt>
      <trkpt lat="51.22525" lon="3.77961">
        <ele>3</ele>
        <time>2021-03-20T20:15:22Z</time>
      </trkpt>
      <trkpt lat="51.22512" lon="3.77922">
        <ele>3.36</ele>
        <time>2021-03-20T20:15:27Z</time>
      </trkpt>
      <trkpt lat="51.22501" lon="3.77894">
        <ele>3.02</ele>
        <time>2021-03-20T20:15:32Z</time>
      </trkpt>
      <trkpt lat="51.22516" lon="3.77834">
        <ele>3.58</ele>
        <time>2021-03-20T20:15:35Z</time>
      </trkpt>
      <trkpt lat="51.22535" lon="3.77808">
        <ele>3.36</ele>
        <time>2021-03-20T20:15:38Z</time>
      </trkpt>
      <trkpt lat="51.22538" lon="3.77797">
        <ele>2.95</ele>
        <time>2021-03-20T20:15:41Z</time>
      </trkpt>
      <trkpt lat="51.22537" lon="3.77762">
        <ele>1.42</ele>
        <time>2021-03-20T20:15:44Z</time>
      </trkpt>
      <trkpt lat="51.2254" lon="3.77751">
        <ele>1.04</ele>
        <time>2021-03-20T20:15:47Z</time>
      </trkpt>
      <trkpt lat="51.22557" lon="3.7773">
        <ele>1</ele>
        <time>2021-03-20T20:15:50Z</time>
      </trkpt>
      <trkpt lat="51.22603" lon="3.77679">
        <ele>2.69</ele>
        <time>2021-03-20T20:15:53Z</time>
      </trkpt>
      <trkpt lat="51.22614" lon="3.77662">
        <ele>2.76</ele>
        <time>2021-03-20T20:15:56Z</time>
      </trkpt>
      <trkpt lat="51.22639" lon="3.77592">
        <ele>1.32</ele>
        <time>2021-03-20T20:15:59Z</time>
      </trkpt>
      <trkpt lat="51.22648" lon="3.77546">
        <ele>0.78</ele>
        <time>2021-03-20T20:16:02Z</time>
      </trkpt>
      <trkpt lat="51.22653" lon="3.77508">
        <ele>0.5</ele>
        <time>2021-03-20T20:16:05Z</time>
      </trkpt>
      <trkpt lat="51.22665" lon="3.77469">
        <ele>1</ele>
        <time>2021-03-20T20:16:08Z</time>
      </trkpt>
      <trkpt lat="51.22752" lon="3.77297">
        <ele>4.2</ele>
        <time>2021-03-20T20:16:11Z</time>
      </trkpt>
      <trkpt lat="51.22823" lon="3.77159">
        <ele>-0.73</ele>
        <time>2021-03-20T20:16:14Z</time>
      </trkpt>
      <trkpt lat="51.2284" lon="3.77134">
        <ele>3.7</ele>
        <time>2021-03-20T20:16:17Z</time>
      </trkpt>
      <trkpt lat="51.22918" lon="3.77036">
        <ele>4.3</ele>
        <time>2021-03-20T20:16:20Z</time>
      </trkpt>
      <trkpt lat="51.22952" lon="3.77005">
        <ele>4.2</ele>
        <time>2021-03-20T20:16:23Z</time>
      </trkpt>
      <trkpt lat="51.22986" lon="3.76978">
        <ele>-0.8</ele>
        <time>2021-03-20T20:16:26Z</time>
      </trkpt>
      <trkpt lat="51.23059" lon="3.76927">
        <ele>-0.34</ele>
        <time>2021-03-20T20:16:29Z</time>
      </trkpt>
      <trkpt lat="51.23091" lon="3.76889">
        <ele>0.27</ele>
        <time>2021-03-20T20:16:32Z</time>
      </trkpt>
      <trkpt lat="51.23105" lon="3.7688">
        <ele>0.77</ele>
        <time>2021-03-20T20:16:35Z</time>
      </trkpt>
      <trkpt lat="51.23115" lon="3.76877">
        <ele>0.86</ele>
        <time>2021-03-20T20:16:38Z</time>
      </trkpt>
      <trkpt lat="51.23185" lon="3.76892">
        <ele>0.34</ele>
        <time>2021-03-20T20:16:41Z</time>
      </trkpt>
      <trkpt lat="51.23202" lon="3.76891">
        <ele>1</ele>
        <time>2021-03-20T20:16:44Z</time>
      </trkpt>
      <trkpt lat="51.23342" lon="3.76814">
        <ele>0.69</ele>
        <time>2021-03-20T20:16:47Z</time>
      </trkpt>
      <trkpt lat="51.23363" lon="3.76796">
        <ele>0.93</ele>
        <time>2021-03-20T20:16:50Z</time>
      </trkpt>
      <trkpt lat="51.2337" lon="3.76793">
        <ele>0.68</ele>
        <time>2021-03-20T20:16:53Z</time>
      </trkpt>
      <trkpt lat="51.23572" lon="3.7727">
        <ele>1</ele>
        <time>2021-03-20T20:17:01Z</time>
      </trkpt>
      <trkpt lat="51.23577" lon="3.77276">
        <ele>1</ele>
        <time>2021-03-20T20:17:09Z</time>
      </trkpt>
      <trkpt lat="51.23591" lon="3.77277">
        <ele>-0.01</ele>
        <time>2021-03-20T20:17:17Z</time>
      </trkpt>
      <trkpt lat="51.23675" lon="3.77261">
        <ele>-1.43</ele>
        <time>2021-03-20T20:17:25Z</time>
      </trkpt>
      <trkpt lat="51.24128" lon="3.77162">
        <ele>-1</ele>
        <time>2021-03-20T20:17:33Z</time>
      </trkpt>
      <trkpt lat="51.24161" lon="3.77153">
        <ele>0.19</ele>
        <time>2021-03-20T20:17:41Z</time>
      </trkpt>
      <trkpt lat="51.24172" lon="3.77146">
        <ele>0.74</ele>
        <time>2021-03-20T20:17:49Z</time>
      </trkpt>
      <trkpt lat="51.24202" lon="3.77216">
        <ele>1.02</ele>
        <time>2021-03-20T20:17:54Z</time>
      </trkpt>
      <trkpt lat="51.24205" lon="3.77375">
        <ele>3.63</ele>
        <time>2021-03-20T20:18:00Z</time>
      </trkpt>
      <trkpt lat="51.24207" lon="3.77389">
        <ele>3.53</ele>
        <time>2021-03-20T20:18:06Z</time>
      </trkpt>
      <trkpt lat="51.24246" lon="3.77458">
        <ele>0.31</ele>
        <time>2021-03-20T20:18:12Z</time>
      </trkpt>
      <trkpt lat="51.2431" lon="3.77566">
        <ele>0.15</ele>
        <time>2021-03-20T20:18:17Z</time>
      </trkpt>
      <trkpt lat="51.24313" lon="3.77597">
        <ele>0.28</ele>
        <time>2021-03-20T20:18:23Z</time>
      </trkpt>
      <trkpt lat="51.2432" lon="3.77866">
        <ele>-1.82</ele>
        <time>2021-03-20T20:18:29Z</time>
      </trkpt>
      <trkpt lat="51.24318" lon="3.77879">
        <ele>-1.36</ele>
        <time>2021-03-20T20:18:34Z</time>
      </trkpt>
      <trkpt lat="51.24247" lon="3.78152">
        <ele>0.54</ele>
        <time>2021-03-20T20:18:40Z</time>
      </trkpt>
      <trkpt lat="51.244" lon="3.78274">
        <ele>-0.33</ele>
        <time>2021-03-20T20:18:46Z</time>
      </trkpt>
      <trkpt lat="51.24565" lon="3.784">
        <ele>3.7</ele>
        <time>2021-03-20T20:18:51Z</time>
      </trkpt>
      <trkpt lat="51.24693" lon="3.78487">
        <ele>1.56</ele>
        <time>2021-03-20T20:18:57Z</time>
      </trkpt>
      <trkpt lat="51.24853" lon="3.77854">
        <ele>1</ele>
        <time>2021-03-20T20:19:22Z</time>
      </trkpt>
      <trkpt lat="51.25522" lon="3.78284">
        <ele>0.19</ele>
        <time>2021-03-20T20:19:28Z</time>
      </trkpt>
      <trkpt lat="51.2554" lon="3.78303">
        <ele>1</ele>
        <time>2021-03-20T20:19:34Z</time>
      </trkpt>
      <trkpt lat="51.2557" lon="3.78391">
        <ele>-1.01</ele>
        <time>2021-03-20T20:19:40Z</time>
      </trkpt>
      <trkpt lat="51.25593" lon="3.78429">
        <ele>-1.38</ele>
        <time>2021-03-20T20:19:46Z</time>
      </trkpt>
      <trkpt lat="51.25615" lon="3.78437">
        <ele>-0.88</ele>
        <time>2021-03-20T20:19:53Z</time>
      </trkpt>
      <trkpt lat="51.25835" lon="3.78493">
        <ele>0.7</ele>
        <time>2021-03-20T20:19:59Z</time>
      </trkpt>
      <trkpt lat="51.25844" lon="3.78492">
        <ele>0.33</ele>
        <time>2021-03-20T20:20:05Z</time>
      </trkpt>
      <trkpt lat="51.25858" lon="3.78482">
        <ele>-0.52</ele>
        <time>2021-03-20T20:20:11Z</time>
      </trkpt>
      <trkpt lat="51.25863" lon="3.78472">
        <ele>-1</ele>
        <time>2021-03-20T20:20:17Z</time>
      </trkpt>
      <trkpt lat="51.25882" lon="3.78389">
        <ele>-1</ele>
        <time>2021-03-20T20:20:24Z</time>
      </trkpt>
      <trkpt lat="51.25887" lon="3.7837">
        <ele>-0.36</ele>
        <time>2021-03-20T20:20:30Z</time>
      </trkpt>
      <trkpt lat="51.25911" lon="3.78384">
        <ele>-0.84</ele>
        <time>2021-03-20T20:20:31Z</time>
      </trkpt>
      <trkpt lat="51.2622" lon="3.7783">
        <ele>4.01</ele>
        <time>2021-03-20T20:20:39Z</time>
      </trkpt>
      <trkpt lat="51.26224" lon="3.77791">
        <ele>3.94</ele>
        <time>2021-03-20T20:20:46Z</time>
      </trkpt>
      <trkpt lat="51.26228" lon="3.77775">
        <ele>3.89</ele>
        <time>2021-03-20T20:20:54Z</time>
      </trkpt>
      <trkpt lat="51.26354" lon="3.7741">
        <ele>2</ele>
        <time>2021-03-20T20:21:01Z</time>
      </trkpt>
      <trkpt lat="51.26351" lon="3.77401">
        <ele>2</ele>
        <time>2021-03-20T20:21:09Z</time>
      </trkpt>
      <trkpt lat="51.26345" lon="3.7739">
        <ele>2</ele>
        <time>2021-03-20T20:21:16Z</time>
      </trkpt>
      <trkpt lat="51.26396" lon="3.77387">
        <ele>1.25</ele>
        <time>2021-03-20T20:21:24Z</time>
      </trkpt>
      <trkpt lat="51.26472" lon="3.77411">
        <ele>1.02</ele>
        <time>2021-03-20T20:21:32Z</time>
      </trkpt>
      <trkpt lat="51.26478" lon="3.77412">
        <ele>1</ele>
        <time>2021-03-20T20:21:40Z</time>
      </trkpt>
      <trkpt lat="51.26485" lon="3.77408">
        <ele>1</ele>
        <time>2021-03-20T20:21:48Z</time>
      </trkpt>
      <trkpt lat="51.26868" lon="3.76955">
        <ele>3.7</ele>
        <time>2021-03-20T20:21:56Z</time>
      </trkpt>
      <trkpt lat="51.26882" lon="3.76941">
        <ele>3.4</ele>
        <time>2021-03-20T20:22:04Z</time>
      </trkpt>
      <trkpt lat="51.26894" lon="3.76939">
        <ele>-0.14</ele>
        <time>2021-03-20T20:22:12Z</time>
      </trkpt>
      <trkpt lat="51.26909" lon="3.76946">
        <ele>-0.71</ele>
        <time>2021-03-20T20:22:20Z</time>
      </trkpt>
      <trkpt lat="51.26922" lon="3.76962">
        <ele>-1</ele>
        <time>2021-03-20T20:22:28Z</time>
      </trkpt>
      <trkpt lat="51.27205" lon="3.77376">
        <ele>1.25</ele>
        <time>2021-03-20T20:22:36Z</time>
      </trkpt>
      <trkpt lat="51.27207" lon="3.7739">
        <ele>1.91</ele>
        <time>2021-03-20T20:22:44Z</time>
      </trkpt>
      <trkpt lat="51.27221" lon="3.77384">
        <ele>2.73</ele>
        <time>2021-03-20T20:22:49Z</time>
      </trkpt>
      <trkpt lat="51.27231" lon="3.77377">
        <ele>3.19</ele>
        <time>2021-03-20T20:22:53Z</time>
      </trkpt>
      <trkpt lat="51.2724" lon="3.77367">
        <ele>3.49</ele>
        <time>2021-03-20T20:22:58Z</time>
      </trkpt>
      <trkpt lat="51.27463" lon="3.77108">
        <ele>2.35</ele>
        <time>2021-03-20T20:23:02Z</time>
      </trkpt>
      <trkpt lat="51.27483" lon="3.77077">
        <ele>0.86</ele>
        <time>2021-03-20T20:23:07Z</time>
      </trkpt>
      <trkpt lat="51.27559" lon="3.76918">
        <ele>1.03</ele>
        <time>2021-03-20T20:23:11Z</time>
      </trkpt>
      <trkpt lat="51.27577" lon="3.76897">
        <ele>1</ele>
        <time>2021-03-20T20:23:16Z</time>
      </trkpt>
      <trkpt lat="51.27593" lon="3.7689">
        <ele>1.02</ele>
        <time>2021-03-20T20:23:20Z</time>
      </trkpt>
      <trkpt lat="51.27604" lon="3.7689">
        <ele>1.03</ele>
        <time>2021-03-20T20:23:24Z</time>
      </trkpt>
      <trkpt lat="51.27746" lon="3.76901">
        <ele>1.68</ele>
        <time>2021-03-20T20:23:29Z</time>
      </trkpt>
      <trkpt lat="51.27757" lon="3.76892">
        <ele>2.44</ele>
        <time>2021-03-20T20:23:33Z</time>
      </trkpt>
      <trkpt lat="51.27764" lon="3.76878">
        <ele>3.44</ele>
        <time>2021-03-20T20:23:38Z</time>
      </trkpt>
      <trkpt lat="51.27887" lon="3.76533">
        <ele>1</ele>
        <time>2021-03-20T20:23:42Z</time>
      </trkpt>
      <trkpt lat="51.27899" lon="3.76511">
        <ele>1.37</ele>
        <time>2021-03-20T20:23:47Z</time>
      </trkpt>
      <trkpt lat="51.2797" lon="3.76446">
        <ele>2.92</ele>
        <time>2021-03-20T20:23:51Z</time>
      </trkpt>
      <trkpt lat="51.27977" lon="3.76441">
        <ele>3</ele>
        <time>2021-03-20T20:23:56Z</time>
      </trkpt>
      <trkpt lat="51.27982" lon="3.76442">
        <ele>3</ele>
        <time>2021-03-20T20:24:00Z</time>
      </trkpt>
      <trkpt lat="51.27987" lon="3.76449">
        <ele>3</ele>
        <time>2021-03-20T20:24:05Z</time>
      </trkpt>
      <trkpt lat="51.28008" lon="3.76496">
        <ele>3.87</ele>
        <time>2021-03-20T20:24:09Z</time>
      </trkpt>
      <trkpt lat="51.28018" lon="3.76512">
        <ele>4.43</ele>
        <time>2021-03-20T20:24:14Z</time>
      </trkpt>
      <trkpt lat="51.28035" lon="3.76531">
        <ele>4.84</ele>
        <time>2021-03-20T20:24:18Z</time>
      </trkpt>
      <trkpt lat="51.2803" lon="3.76552">
        <ele>5.79</ele>
        <time>2021-03-20T20:24:19Z</time>
      </trkpt>
      <trkpt lat="51.28132" lon="3.7665">
        <ele>2.64</ele>
        <time>2021-03-20T20:24:24Z</time>
      </trkpt>
      <trkpt lat="51.28165" lon="3.76677">
        <ele>2.62</ele>
        <time>2021-03-20T20:24:29Z</time>
      </trkpt>
      <trkpt lat="51.28178" lon="3.76684">
        <ele>1.98</ele>
        <time>2021-03-20T20:24:33Z</time>
      </trkpt>
      <trkpt lat="51.28196" lon="3.76687">
        <ele>1.26</ele>
        <time>2021-03-20T20:24:38Z</time>
      </trkpt>
      <trkpt lat="51.28217" lon="3.76683">
        <ele>1.4</ele>
        <time>2021-03-20T20:24:43Z</time>
      </trkpt>
      <trkpt lat="51.28232" lon="3.76676">
        <ele>1.66</ele>
        <time>2021-03-20T20:24:47Z</time>
      </trkpt>
      <trkpt lat="51.28252" lon="3.76657">
        <ele>2.2</ele>
        <time>2021-03-20T20:24:52Z</time>
      </trkpt>
      <trkpt lat="51.28263" lon="3.76639">
        <ele>2.03</ele>
        <time>2021-03-20T20:24:57Z</time>
      </trkpt>
      <trkpt lat="51.28322" lon="3.76494">
        <ele>2.14</ele>
        <time>2021-03-20T20:25:01Z</time>
      </trkpt>
      <trkpt lat="51.28334" lon="3.76473">
        <ele>2.98</ele>
        <time>2021-03-20T20:25:06Z</time>
      </trkpt>
      <trkpt lat="51.28347" lon="3.76459">
        <ele>3.72</ele>
        <time>2021-03-20T20:25:11Z</time>
      </trkpt>
      <trkpt lat="51.2836" lon="3.76449">
        <ele>4.74</ele>
        <time>2021-03-20T20:25:16Z</time>
      </trkpt>
      <trkpt lat="51.28376" lon="3.76445">
        <ele>4.99</ele>
        <time>2021-03-20T20:25:20Z</time>
      </trkpt>
      <trkpt lat="51.28393" lon="3.76446">
        <ele>4.62</ele>
        <time>2021-03-20T20:25:25Z</time>
      </trkpt>
      <trkpt lat="51.28414" lon="3.76457">
        <ele>2.74</ele>
        <time>2021-03-20T20:25:30Z</time>
      </trkpt>
      <trkpt lat="51.28423" lon="3.76465">
        <ele>1.96</ele>
        <time>2021-03-20T20:25:34Z</time>
      </trkpt>
      <trkpt lat="51.2871" lon="3.76787">
        <ele>1.82</ele>
        <time>2021-03-20T20:25:39Z</time>
      </trkpt>
      <trkpt lat="51.28767" lon="3.76857">
        <ele>0.63</ele>
        <time>2021-03-20T20:25:44Z</time>
      </trkpt>
      <trkpt lat="51.28854" lon="3.76948">
        <ele>1.66</ele>
        <time>2021-03-20T20:25:48Z</time>
      </trkpt>
      <trkpt lat="51.28876" lon="3.76975">
        <ele>1.42</ele>
        <time>2021-03-20T20:25:53Z</time>
      </trkpt>
      <trkpt lat="51.28891" lon="3.77001">
        <ele>0.92</ele>
        <time>2021-03-20T20:25:58Z</time>
      </trkpt>
      <trkpt lat="51.28908" lon="3.77036">
        <ele>-0.28</ele>
        <time>2021-03-20T20:26:02Z</time>
      </trkpt>
      <trkpt lat="51.28923" lon="3.77079">
        <ele>-0.79</ele>
        <time>2021-03-20T20:26:07Z</time>
      </trkpt>
      <trkpt lat="51.29007" lon="3.77391">
        <ele>2.23</ele>
        <time>2021-03-20T20:26:12Z</time>
      </trkpt>
      <trkpt lat="51.29038" lon="3.77487">
        <ele>0.12</ele>
        <time>2021-03-20T20:26:16Z</time>
      </trkpt>
      <trkpt lat="51.29042" lon="3.77484">
        <ele>0.04</ele>
        <time>2021-03-20T20:26:22Z</time>
      </trkpt>
      <trkpt lat="51.29046" lon="3.77477">
        <ele>0.15</ele>
        <time>2021-03-20T20:26:28Z</time>
      </trkpt>
      <trkpt lat="51.29097" lon="3.77299">
        <ele>1.12</ele>
        <time>2021-03-20T20:26:34Z</time>
      </trkpt>
      <trkpt lat="51.29196" lon="3.76995">
        <ele>1.01</ele>
        <time>2021-03-20T20:26:40Z</time>
      </trkpt>
      <trkpt lat="51.29245" lon="3.76865">
        <ele>1.95</ele>
        <time>2021-03-20T20:26:46Z</time>
      </trkpt>
      <trkpt lat="51.29258" lon="3.76838">
        <ele>2.28</ele>
        <time>2021-03-20T20:26:52Z</time>
      </trkpt>
      <trkpt lat="51.29282" lon="3.76812">
        <ele>2.1</ele>
        <time>2021-03-20T20:26:58Z</time>
      </trkpt>
      <trkpt lat="51.29296" lon="3.76846">
        <ele>2.35</ele>
        <time>2021-03-20T20:27:04Z</time>
      </trkpt>
      <trkpt lat="51.29317" lon="3.76884">
        <ele>1.76</ele>
        <time>2021-03-20T20:27:10Z</time>
      </trkpt>
      <trkpt lat="51.29341" lon="3.76918">
        <ele>-0.31</ele>
        <time>2021-03-20T20:27:16Z</time>
      </trkpt>
      <trkpt lat="51.29365" lon="3.76943">
        <ele>-1.63</ele>
        <time>2021-03-20T20:27:22Z</time>
      </trkpt>
      <trkpt lat="51.29393" lon="3.76967">
        <ele>0.31</ele>
        <time>2021-03-20T20:27:28Z</time>
      </trkpt>
      <trkpt lat="51.29794" lon="3.77249">
        <ele>1.58</ele>
        <time>2021-03-20T20:27:35Z</time>
      </trkpt>
      <trkpt lat="51.29813" lon="3.77269">
        <ele>1.41</ele>
        <time>2021-03-20T20:27:41Z</time>
      </trkpt>
      <trkpt lat="51.29825" lon="3.77289">
        <ele>1.7</ele>
        <time>2021-03-20T20:27:47Z</time>
      </trkpt>
      <trkpt lat="51.29833" lon="3.77309">
        <ele>1.99</ele>
        <time>2021-03-20T20:27:53Z</time>
      </trkpt>
      <trkpt lat="51.29947" lon="3.77632">
        <ele>2</ele>
        <time>2021-03-20T20:27:59Z</time>
      </trkpt>
      <trkpt lat="51.29957" lon="3.77652">
        <ele>1.55</ele>
        <time>2021-03-20T20:28:05Z</time>
      </trkpt>
      <trkpt lat="51.29979" lon="3.77676">
        <ele>0.77</ele>
        <time>2021-03-20T20:28:11Z</time>
      </trkpt>
      <trkpt lat="51.30003" lon="3.77688">
        <ele>0.1</ele>
        <time>2021-03-20T20:28:18Z</time>
      </trkpt>
      <trkpt lat="51.30065" lon="3.77695">
        <ele>0.99</ele>
        <time>2021-03-20T20:28:24Z</time>
      </trkpt>
      <trkpt lat="51.30089" lon="3.77711">
        <ele>0.51</ele>
        <time>2021-03-20T20:28:30Z</time>
      </trkpt>
      <trkpt lat="51.30116" lon="3.77736">
        <ele>1</ele>
        <time>2021-03-20T20:28:36Z</time>
      </trkpt>
      <trkpt lat="51.30216" lon="3.77841">
        <ele>1.24</ele>
        <time>2021-03-20T20:28:42Z</time>
      </trkpt>
      <trkpt lat="51.30261" lon="3.77891">
        <ele>1.39</ele>
        <time>2021-03-20T20:28:48Z</time>
      </trkpt>
      <trkpt lat="51.30267" lon="3.77904">
        <ele>1.61</ele>
        <time>2021-03-20T20:28:54Z</time>
      </trkpt>
      <trkpt lat="51.30287" lon="3.77932">
        <ele>2.36</ele>
        <time>2021-03-20T20:29:00Z</time>
      </trkpt>
      <trkpt lat="51.30286" lon="3.77943">
        <ele>2.67</ele>
        <time>2021-03-20T20:29:08Z</time>
      </trkpt>
      <trkpt lat="51.30287" lon="3.77953">
        <ele>2.67</ele>
        <time>2021-03-20T20:29:15Z</time>
      </trkpt>
      <trkpt lat="51.3029" lon="3.77962">
        <ele>2.57</ele>
        <time>2021-03-20T20:29:23Z</time>
      </trkpt>
      <trkpt lat="51.2993" lon="3.78861">
        <ele>-1.48</ele>
        <time>2021-03-20T20:29:30Z</time>
      </trkpt>
      <trkpt lat="51.29873" lon="3.79023">
        <ele>-1.07</ele>
        <time>2021-03-20T20:29:38Z</time>
      </trkpt>
      <trkpt lat="51.29821" lon="3.79193">
        <ele>0.45</ele>
        <time>2021-03-20T20:29:45Z</time>
      </trkpt>
      <trkpt lat="51.29784" lon="3.79334">
        <ele>2.31</ele>
        <time>2021-03-20T20:29:53Z</time>
      </trkpt>
      <trkpt lat="51.29751" lon="3.79484">
        <ele>1.19</ele>
        <time>2021-03-20T20:30:00Z</time>
      </trkpt>
      <trkpt lat="51.29715" lon="3.7967">
        <ele>-2</ele>
        <time>2021-03-20T20:30:08Z</time>
      </trkpt>
      <trkpt lat="51.29663" lon="3.79978">
        <ele>-0.04</ele>
        <time>2021-03-20T20:30:16Z</time>
      </trkpt>
      <trkpt lat="51.29602" lon="3.80331">
        <ele>1.09</ele>
        <time>2021-03-20T20:30:23Z</time>
      </trkpt>
      <trkpt lat="51.2959" lon="3.80416">
        <ele>0.23</ele>
        <time>2021-03-20T20:30:31Z</time>
      </trkpt>
      <trkpt lat="51.29558" lon="3.8061">
        <ele>3.04</ele>
        <time>2021-03-20T20:30:38Z</time>
      </trkpt>
      <trkpt lat="51.29548" lon="3.80688">
        <ele>-1.28</ele>
        <time>2021-03-20T20:30:46Z</time>
      </trkpt>
      <trkpt lat="51.29544" lon="3.80812">
        <ele>1.22</ele>
        <time>2021-03-20T20:30:53Z</time>
      </trkpt>
      <trkpt lat="51.29537" lon="3.8082">
        <ele>1.51</ele>
        <time>2021-03-20T20:30:55Z</time>
      </trkpt>
      <trkpt lat="51.29533" lon="3.80833">
        <ele>1.98</ele>
        <time>2021-03-20T20:30:57Z</time>
      </trkpt>
      <trkpt lat="51.29534" lon="3.80847">
        <ele>2</ele>
        <time>2021-03-20T20:30:59Z</time>
      </trkpt>
      <trkpt lat="51.2954" lon="3.80859">
        <ele>2</ele>
        <time>2021-03-20T20:31:01Z</time>
      </trkpt>
      <trkpt lat="51.29545" lon="3.80863">
        <ele>1.94</ele>
        <time>2021-03-20T20:31:02Z</time>
      </trkpt>
      <trkpt lat="51.29552" lon="3.80863">
        <ele>1.93</ele>
        <time>2021-03-20T20:31:04Z</time>
      </trkpt>
      <trkpt lat="51.29558" lon="3.8086">
        <ele>1.91</ele>
        <time>2021-03-20T20:31:06Z</time>
      </trkpt>
      <trkpt lat="51.29563" lon="3.80852">
        <ele>1.74</ele>
        <time>2021-03-20T20:31:08Z</time>
      </trkpt>
      <trkpt lat="51.29573" lon="3.80854">
        <ele>1.39</ele>
        <time>2021-03-20T20:31:10Z</time>
      </trkpt>
      <trkpt lat="51.29599" lon="3.8087">
        <ele>0.62</ele>
        <time>2021-03-20T20:31:12Z</time>
      </trkpt>
      <trkpt lat="51.29678" lon="3.80985">
        <ele>0.33</ele>
        <time>2021-03-20T20:31:14Z</time>
      </trkpt>
      <trkpt lat="51.29685" lon="3.80999">
        <ele>0.02</ele>
        <time>2021-03-20T20:31:15Z</time>
      </trkpt>
      <trkpt lat="51.29684" lon="3.81008">
        <ele>4.9</ele>
        <time>2021-03-20T20:31:21Z</time>
      </trkpt>
      <trkpt lat="51.29684" lon="3.81018">
        <ele>4.8</ele>
        <time>2021-03-20T20:31:27Z</time>
      </trkpt>
      <trkpt lat="51.29689" lon="3.8103">
        <ele>4.7</ele>
        <time>2021-03-20T20:31:32Z</time>
      </trkpt>
      <trkpt lat="51.29697" lon="3.81036">
        <ele>-0.03</ele>
        <time>2021-03-20T20:31:38Z</time>
      </trkpt>
      <trkpt lat="51.29706" lon="3.81035">
        <ele>-0.11</ele>
        <time>2021-03-20T20:31:44Z</time>
      </trkpt>
      <trkpt lat="51.29711" lon="3.81031">
        <ele>-0.06</ele>
        <time>2021-03-20T20:31:49Z</time>
      </trkpt>
      <trkpt lat="51.29715" lon="3.81024">
        <ele>4.3</ele>
        <time>2021-03-20T20:31:55Z</time>
      </trkpt>
      <trkpt lat="51.29717" lon="3.81015">
        <ele>4.2</ele>
        <time>2021-03-20T20:32:00Z</time>
      </trkpt>
      <trkpt lat="51.29731" lon="3.81008">
        <ele>3.9</ele>
        <time>2021-03-20T20:32:06Z</time>
      </trkpt>
      <trkpt lat="51.29779" lon="3.80995">
        <ele>-0.81</ele>
        <time>2021-03-20T20:32:12Z</time>
      </trkpt>
      <trkpt lat="51.29814" lon="3.80984">
        <ele>-0.41</ele>
        <time>2021-03-20T20:32:17Z</time>
      </trkpt>
      <trkpt lat="51.29827" lon="3.80974">
        <ele>-0.2</ele>
        <time>2021-03-20T20:32:23Z</time>
      </trkpt>
      <trkpt lat="51.29849" lon="3.80948">
        <ele>0.55</ele>
        <time>2021-03-20T20:32:29Z</time>
      </trkpt>
      <trkpt lat="51.29859" lon="3.80928">
        <ele>0.96</ele>
        <time>2021-03-20T20:32:34Z</time>
      </trkpt>
      <trkpt lat="51.29867" lon="3.80902">
        <ele>0.78</ele>
        <time>2021-03-20T20:32:40Z</time>
      </trkpt>
      <trkpt lat="51.29872" lon="3.80874">
        <ele>0.05</ele>
        <time>2021-03-20T20:32:45Z</time>
      </trkpt>
      <trkpt lat="51.29876" lon="3.80731">
        <ele>0.47</ele>
        <time>2021-03-20T20:32:51Z</time>
      </trkpt>
      <trkpt lat="51.29883" lon="3.80684">
        <ele>1</ele>
        <time>2021-03-20T20:32:57Z</time>
      </trkpt>
      <trkpt lat="51.29889" lon="3.80657">
        <ele>0.99</ele>
        <time>2021-03-20T20:33:02Z</time>
      </trkpt>
      <trkpt lat="51.29905" lon="3.80614">
        <ele>1</ele>
        <time>2021-03-20T20:33:08Z</time>
      </trkpt>
      <trkpt lat="51.29929" lon="3.80567">
        <ele>1</ele>
        <time>2021-03-20T20:33:14Z</time>
      </trkpt>
      <trkpt lat="51.29943" lon="3.80548">
        <ele>1</ele>
        <time>2021-03-20T20:33:19Z</time>
      </trkpt>
      <trkpt lat="51.29973" lon="3.8052">
        <ele>1.02</ele>
        <time>2021-03-20T20:33:25Z</time>
      </trkpt>
      <trkpt lat="51.29998" lon="3.80491">
        <ele>1.95</ele>
        <time>2021-03-20T20:33:30Z</time>
      </trkpt>
      <trkpt lat="51.30061" lon="3.80449">
        <ele>1</ele>
        <time>2021-03-20T20:33:36Z</time>
      </trkpt>
      <trkpt lat="51.30106" lon="3.80424">
        <ele>-0.25</ele>
        <time>2021-03-20T20:33:42Z</time>
      </trkpt>
      <trkpt lat="51.30154" lon="3.80399">
        <ele>-1.73</ele>
        <time>2021-03-20T20:33:47Z</time>
      </trkpt>
      <trkpt lat="51.30208" lon="3.80378">
        <ele>0.1</ele>
        <time>2021-03-20T20:33:53Z</time>
      </trkpt>
      <trkpt lat="51.30255" lon="3.80362">
        <ele>0.8</ele>
        <time>2021-03-20T20:33:59Z</time>
      </trkpt>
      <trkpt lat="51.3033" lon="3.80341">
        <ele>1</ele>
        <time>2021-03-20T20:34:04Z</time>
      </trkpt>
      <trkpt lat="51.30565" lon="3.80285">
        <ele>-1</ele>
        <time>2021-03-20T20:34:10Z</time>
      </trkpt>
      <trkpt lat="51.30636" lon="3.80265">
        <ele>-0.95</ele>
        <time>2021-03-20T20:34:15Z</time>
      </trkpt>
      <trkpt lat="51.3069" lon="3.80248">
        <ele>-1.16</ele>
        <time>2021-03-20T20:34:21Z</time>
      </trkpt>
      <trkpt lat="51.30749" lon="3.80224">
        <ele>-1</ele>
        <time>2021-03-20T20:34:27Z</time>
      </trkpt>
      <trkpt lat="51.30803" lon="3.80202">
        <ele>3.7</ele>
        <time>2021-03-20T20:34:32Z</time>
      </trkpt>
      <trkpt lat="51.30853" lon="3.80178">
        <ele>-0.72</ele>
        <time>2021-03-20T20:34:38Z</time>
      </trkpt>
      <trkpt lat="51.3091" lon="3.80149">
        <ele>-1.75</ele>
        <time>2021-03-20T20:34:44Z</time>
      </trkpt>
      <trkpt lat="51.31062" lon="3.80059">
        <ele>0.19</ele>
        <time>2021-03-20T20:34:49Z</time>
      </trkpt>
      <trkpt lat="51.31107" lon="3.80028">
        <ele>0.16</ele>
        <time>2021-03-20T20:34:55Z</time>
      </trkpt>
      <trkpt lat="51.31224" lon="3.7994">
        <ele>0.85</ele>
        <time>2021-03-20T20:35:00Z</time>
      </trkpt>
      <trkpt lat="51.3138" lon="3.79816">
        <ele>-1.19</ele>
        <time>2021-03-20T20:35:06Z</time>
      </trkpt>
      <trkpt lat="51.31435" lon="3.79777">
        <ele>0.67</ele>
        <time>2021-03-20T20:35:12Z</time>
      </trkpt>
      <trkpt lat="51.31519" lon="3.79724">
        <ele>4</ele>
        <time>2021-03-20T20:35:17Z</time>
      </trkpt>
      <trkpt lat="51.31555" lon="3.79706">
        <ele>-0.59</ele>
        <time>2021-03-20T20:35:23Z</time>
      </trkpt>
      <trkpt lat="51.31613" lon="3.79681">
        <ele>1.05</ele>
        <time>2021-03-20T20:35:29Z</time>
      </trkpt>
      <trkpt lat="51.31681" lon="3.79658">
        <ele>0.8</ele>
        <time>2021-03-20T20:35:34Z</time>
      </trkpt>
      <trkpt lat="51.31721" lon="3.79647">
        <ele>0.26</ele>
        <time>2021-03-20T20:35:40Z</time>
      </trkpt>
      <trkpt lat="51.31762" lon="3.79638">
        <ele>1</ele>
        <time>2021-03-20T20:35:45Z</time>
      </trkpt>
      <trkpt lat="51.31884" lon="3.79626">
        <ele>-3</ele>
        <time>2021-03-20T20:35:51Z</time>
      </trkpt>
      <trkpt lat="51.31965" lon="3.79629">
        <ele>1</ele>
        <time>2021-03-20T20:35:57Z</time>
      </trkpt>
      <trkpt lat="51.32012" lon="3.79635">
        <ele>0.84</ele>
        <time>2021-03-20T20:36:02Z</time>
      </trkpt>
      <trkpt lat="51.32107" lon="3.79657">
        <ele>-0.35</ele>
        <time>2021-03-20T20:36:08Z</time>
      </trkpt>
      <trkpt lat="51.3221" lon="3.79694">
        <ele>-0.44</ele>
        <time>2021-03-20T20:36:14Z</time>
      </trkpt>
      <trkpt lat="51.32258" lon="3.79719">
        <ele>0.55</ele>
        <time>2021-03-20T20:36:19Z</time>
      </trkpt>
      <trkpt lat="51.32326" lon="3.7976">
        <ele>0.88</ele>
        <time>2021-03-20T20:36:25Z</time>
      </trkpt>
      <trkpt lat="51.32419" lon="3.79827">
        <ele>-1.77</ele>
        <time>2021-03-20T20:36:31Z</time>
      </trkpt>
      <trkpt lat="51.32478" lon="3.79874">
        <ele>-0.79</ele>
        <time>2021-03-20T20:36:36Z</time>
      </trkpt>
      <trkpt lat="51.32525" lon="3.79914">
        <ele>0.91</ele>
        <time>2021-03-20T20:36:42Z</time>
      </trkpt>
      <trkpt lat="51.326" lon="3.79972">
        <ele>-0.39</ele>
        <time>2021-03-20T20:36:47Z</time>
      </trkpt>
      <trkpt lat="51.3265" lon="3.80006">
        <ele>1</ele>
        <time>2021-03-20T20:36:53Z</time>
      </trkpt>
      <trkpt lat="51.32708" lon="3.80038">
        <ele>-0.49</ele>
        <time>2021-03-20T20:36:59Z</time>
      </trkpt>
      <trkpt lat="51.32745" lon="3.80056">
        <ele>-1</ele>
        <time>2021-03-20T20:37:04Z</time>
      </trkpt>
      <trkpt lat="51.32788" lon="3.80074">
        <ele>-0.62</ele>
        <time>2021-03-20T20:37:10Z</time>
      </trkpt>
      <trkpt lat="51.32903" lon="3.80108">
        <ele>-1.45</ele>
        <time>2021-03-20T20:37:16Z</time>
      </trkpt>
      <trkpt lat="51.32984" lon="3.80119">
        <ele>-1.44</ele>
        <time>2021-03-20T20:37:21Z</time>
      </trkpt>
      <trkpt lat="51.33053" lon="3.80119">
        <ele>-1.08</ele>
        <time>2021-03-20T20:37:27Z</time>
      </trkpt>
      <trkpt lat="51.33123" lon="3.8011">
        <ele>1.97</ele>
        <time>2021-03-20T20:37:32Z</time>
      </trkpt>
      <trkpt lat="51.33173" lon="3.80101">
        <ele>2.64</ele>
        <time>2021-03-20T20:37:38Z</time>
      </trkpt>
      <trkpt lat="51.33242" lon="3.8008">
        <ele>1.7</ele>
        <time>2021-03-20T20:37:44Z</time>
      </trkpt>
      <trkpt lat="51.33338" lon="3.80043">
        <ele>2.53</ele>
        <time>2021-03-20T20:37:49Z</time>
      </trkpt>
      <trkpt lat="51.33444" lon="3.79997">
        <ele>1.99</ele>
        <time>2021-03-20T20:37:55Z</time>
      </trkpt>
      <trkpt lat="51.33601" lon="3.79938">
        <ele>2.77</ele>
        <time>2021-03-20T20:38:01Z</time>
      </trkpt>
      <trkpt lat="51.33733" lon="3.79903">
        <ele>0.6</ele>
        <time>2021-03-20T20:38:06Z</time>
      </trkpt>
      <trkpt lat="51.33843" lon="3.7988">
        <ele>-0.33</ele>
        <time>2021-03-20T20:38:12Z</time>
      </trkpt>
      <trkpt lat="51.33923" lon="3.79868">
        <ele>-0.39</ele>
        <time>2021-03-20T20:38:17Z</time>
      </trkpt>
      <trkpt lat="51.34026" lon="3.79858">
        <ele>-0.47</ele>
        <time>2021-03-20T20:38:23Z</time>
      </trkpt>
      <trkpt lat="51.34131" lon="3.79853">
        <ele>-0.55</ele>
        <time>2021-03-20T20:38:29Z</time>
      </trkpt>
      <trkpt lat="51.34387" lon="3.79854">
        <ele>-0.74</ele>
        <time>2021-03-20T20:38:34Z</time>
      </trkpt>
      <trkpt lat="51.37007" lon="3.79883">
        <ele>-2</ele>
        <time>2021-03-20T20:38:40Z</time>
      </trkpt>
      <trkpt lat="51.37007" lon="3.79883">
        <ele>-2</ele>
        <time>2021-03-20T20:38:40Z</time>
      </trkpt>
      <trkpt lat="51.37776" lon="3.79891">
        <ele>-3.25</ele>
        <time>2021-03-20T20:38:51Z</time>
      </trkpt>
      <trkpt lat="51.38935" lon="3.79894">
        <ele>-4.09</ele>
        <time>2021-03-20T20:39:02Z</time>
      </trkpt>
      <trkpt lat="51.39153" lon="3.79888">
        <ele>-4.24</ele>
        <time>2021-03-20T20:39:14Z</time>
      </trkpt>
      <trkpt lat="51.39278" lon="3.79872">
        <ele>-4.33</ele>
        <time>2021-03-20T20:39:25Z</time>
      </trkpt>
      <trkpt lat="51.3937" lon="3.7985">
        <ele>-4.4</ele>
        <time>2021-03-20T20:39:36Z</time>
      </trkpt>
      <trkpt lat="51.39466" lon="3.79819">
        <ele>-4.47</ele>
        <time>2021-03-20T20:39:47Z</time>
      </trkpt>
      <trkpt lat="51.39538" lon="3.79791">
        <ele>-4.53</ele>
        <time>2021-03-20T20:39:59Z</time>
      </trkpt>
      <trkpt lat="51.39605" lon="3.79759">
        <ele>-4.58</ele>
        <time>2021-03-20T20:40:10Z</time>
      </trkpt>
      <trkpt lat="51.3971" lon="3.79692">
        <ele>-4.67</ele>
        <time>2021-03-20T20:40:21Z</time>
      </trkpt>
      <trkpt lat="51.39762" lon="3.79654">
        <ele>-4.72</ele>
        <time>2021-03-20T20:40:32Z</time>
      </trkpt>
      <trkpt lat="51.39851" lon="3.79578">
        <ele>-4.81</ele>
        <time>2021-03-20T20:40:44Z</time>
      </trkpt>
      <trkpt lat="51.39932" lon="3.79494">
        <ele>-5.2</ele>
        <time>2021-03-20T20:40:55Z</time>
      </trkpt>
      <trkpt lat="51.39995" lon="3.79421">
        <ele>-2.15</ele>
        <time>2021-03-20T20:41:06Z</time>
      </trkpt>
      <trkpt lat="51.40154" lon="3.79217">
        <ele>-1.64</ele>
        <time>2021-03-20T20:41:17Z</time>
      </trkpt>
      <trkpt lat="51.40389" lon="3.78901">
        <ele>-3</ele>
        <time>2021-03-20T20:41:29Z</time>
      </trkpt>
      <trkpt lat="51.40908" lon="3.78193">
        <ele>-2.3</ele>
        <time>2021-03-20T20:41:40Z</time>
      </trkpt>
      <trkpt lat="51.40968" lon="3.78107">
        <ele>-1.02</ele>
        <time>2021-03-20T20:41:51Z</time>
      </trkpt>
      <trkpt lat="51.4103" lon="3.78008">
        <ele>-1.07</ele>
        <time>2021-03-20T20:42:02Z</time>
      </trkpt>
      <trkpt lat="51.41076" lon="3.77924">
        <ele>-0.98</ele>
        <time>2021-03-20T20:42:14Z</time>
      </trkpt>
      <trkpt lat="51.41109" lon="3.77858">
        <ele>-1.84</ele>
        <time>2021-03-20T20:42:25Z</time>
      </trkpt>
      <trkpt lat="51.41142" lon="3.77786">
        <ele>-2.88</ele>
        <time>2021-03-20T20:42:36Z</time>
      </trkpt>
      <trkpt lat="51.41174" lon="3.77708">
        <ele>-3</ele>
        <time>2021-03-20T20:42:47Z</time>
      </trkpt>
      <trkpt lat="51.41276" lon="3.77432">
        <ele>-2.57</ele>
        <time>2021-03-20T20:42:59Z</time>
      </trkpt>
      <trkpt lat="51.4133" lon="3.77302">
        <ele>-0.9</ele>
        <time>2021-03-20T20:43:10Z</time>
      </trkpt>
      <trkpt lat="51.41374" lon="3.77209">
        <ele>-0.72</ele>
        <time>2021-03-20T20:43:21Z</time>
      </trkpt>
      <trkpt lat="51.4142" lon="3.77122">
        <ele>-1.11</ele>
        <time>2021-03-20T20:43:32Z</time>
      </trkpt>
      <trkpt lat="51.41481" lon="3.77022">
        <ele>-2</ele>
        <time>2021-03-20T20:43:44Z</time>
      </trkpt>
      <trkpt lat="51.41515" lon="3.76971">
        <ele>-2</ele>
        <time>2021-03-20T20:43:55Z</time>
      </trkpt>
      <trkpt lat="51.41569" lon="3.76898">
        <ele>-2</ele>
        <time>2021-03-20T20:44:06Z</time>
      </trkpt>
      <trkpt lat="51.41656" lon="3.76796">
        <ele>-1</ele>
        <time>2021-03-20T20:44:17Z</time>
      </trkpt>
      <trkpt lat="51.41693" lon="3.76759">
        <ele>-1</ele>
        <time>2021-03-20T20:44:29Z</time>
      </trkpt>
      <trkpt lat="51.41756" lon="3.76702">
        <ele>-1.75</ele>
        <time>2021-03-20T20:44:40Z</time>
      </trkpt>
      <trkpt lat="51.41819" lon="3.7665">
        <ele>-1.69</ele>
        <time>2021-03-20T20:44:51Z</time>
      </trkpt>
      <trkpt lat="51.41905" lon="3.76591">
        <ele>-1.29</ele>
        <time>2021-03-20T20:45:02Z</time>
      </trkpt>
      <trkpt lat="51.41969" lon="3.76555">
        <ele>-0.11</ele>
        <time>2021-03-20T20:45:14Z</time>
      </trkpt>
      <trkpt lat="51.42066" lon="3.76512">
        <ele>-1</ele>
        <time>2021-03-20T20:45:25Z</time>
      </trkpt>
      <trkpt lat="51.42497" lon="3.76341">
        <ele>-1</ele>
        <time>2021-03-20T20:45:36Z</time>
      </trkpt>
      <trkpt lat="51.42954" lon="3.76146">
        <ele>-0.26</ele>
        <time>2021-03-20T20:45:47Z</time>
      </trkpt>
      <trkpt lat="51.4342" lon="3.75932">
        <ele>-1.59</ele>
        <time>2021-03-20T20:45:59Z</time>
      </trkpt>
      <trkpt lat="51.43768" lon="3.75772">
        <ele>-1.13</ele>
        <time>2021-03-20T20:46:10Z</time>
      </trkpt>
      <trkpt lat="51.43986" lon="3.75667">
        <ele>-1.52</ele>
        <time>2021-03-20T20:46:21Z</time>
      </trkpt>
      <trkpt lat="51.44029" lon="3.75652">
        <ele>2</ele>
        <time>2021-03-20T20:46:32Z</time>
      </trkpt>
      <trkpt lat="51.44104" lon="3.75638">
        <ele>-0.73</ele>
        <time>2021-03-20T20:46:50Z</time>
      </trkpt>
      <trkpt lat="51.44107" lon="3.75631">
        <ele>-0.84</ele>
        <time>2021-03-20T20:47:02Z</time>
      </trkpt>
      <trkpt lat="51.44161" lon="3.75603">
        <ele>-1.19</ele>
        <time>2021-03-20T20:47:14Z</time>
      </trkpt>
      <trkpt lat="51.44215" lon="3.75577">
        <ele>-1.75</ele>
        <time>2021-03-20T20:47:26Z</time>
      </trkpt>
      <trkpt lat="51.44297" lon="3.75514">
        <ele>-1</ele>
        <time>2021-03-20T20:47:38Z</time>
      </trkpt>
      <trkpt lat="51.44411" lon="3.75454">
        <ele>-1.8</ele>
        <time>2021-03-20T20:47:50Z</time>
      </trkpt>
      <trkpt lat="51.44632" lon="3.75328">
        <ele>-1.76</ele>
        <time>2021-03-20T20:48:02Z</time>
      </trkpt>
      <trkpt lat="51.4469" lon="3.75307">
        <ele>-1.16</ele>
        <time>2021-03-20T20:48:03Z</time>
      </trkpt>
      <trkpt lat="51.447" lon="3.75305">
        <ele>-1.2</ele>
        <time>2021-03-20T20:48:04Z</time>
      </trkpt>
      <trkpt lat="51.44722" lon="3.75309">
        <ele>-1.89</ele>
        <time>2021-03-20T20:48:06Z</time>
      </trkpt>
      <trkpt lat="51.44744" lon="3.75326">
        <ele>-1.25</ele>
        <time>2021-03-20T20:48:07Z</time>
      </trkpt>
      <trkpt lat="51.44755" lon="3.75342">
        <ele>-1.16</ele>
        <time>2021-03-20T20:48:08Z</time>
      </trkpt>
      <trkpt lat="51.44764" lon="3.75363">
        <ele>-1.52</ele>
        <time>2021-03-20T20:48:10Z</time>
      </trkpt>
      <trkpt lat="51.44769" lon="3.75382">
        <ele>-1.91</ele>
        <time>2021-03-20T20:48:11Z</time>
      </trkpt>
      <trkpt lat="51.44771" lon="3.75401">
        <ele>-1.67</ele>
        <time>2021-03-20T20:48:12Z</time>
      </trkpt>
      <trkpt lat="51.44772" lon="3.75421">
        <ele>-1.08</ele>
        <time>2021-03-20T20:48:14Z</time>
      </trkpt>
      <trkpt lat="51.44768" lon="3.75451">
        <ele>-0.7</ele>
        <time>2021-03-20T20:48:15Z</time>
      </trkpt>
      <trkpt lat="51.44758" lon="3.75481">
        <ele>-1.16</ele>
        <time>2021-03-20T20:48:16Z</time>
      </trkpt>
      <trkpt lat="51.44745" lon="3.75502">
        <ele>-0.94</ele>
        <time>2021-03-20T20:48:17Z</time>
      </trkpt>
      <trkpt lat="51.44729" lon="3.75516">
        <ele>-0.86</ele>
        <time>2021-03-20T20:48:19Z</time>
      </trkpt>
      <trkpt lat="51.44708" lon="3.75524">
        <ele>-1</ele>
        <time>2021-03-20T20:48:20Z</time>
      </trkpt>
      <trkpt lat="51.44684" lon="3.7552">
        <ele>-1</ele>
        <time>2021-03-20T20:48:21Z</time>
      </trkpt>
      <trkpt lat="51.44675" lon="3.75515">
        <ele>-1</ele>
        <time>2021-03-20T20:48:23Z</time>
      </trkpt>
      <trkpt lat="51.44661" lon="3.75501">
        <ele>-1</ele>
        <time>2021-03-20T20:48:24Z</time>
      </trkpt>
      <trkpt lat="51.44644" lon="3.75476">
        <ele>-0.85</ele>
        <time>2021-03-20T20:48:25Z</time>
      </trkpt>
      <trkpt lat="51.44657" lon="3.75506">
        <ele>-1</ele>
        <time>2021-03-20T20:48:28Z</time>
      </trkpt>
      <trkpt lat="51.44672" lon="3.75522">
        <ele>-1</ele>
        <time>2021-03-20T20:48:31Z</time>
      </trkpt>
      <trkpt lat="51.44683" lon="3.75529">
        <ele>-1.02</ele>
        <time>2021-03-20T20:48:34Z</time>
      </trkpt>
      <trkpt lat="51.44699" lon="3.75535">
        <ele>-0.96</ele>
        <time>2021-03-20T20:48:37Z</time>
      </trkpt>
      <trkpt lat="51.44713" lon="3.75536">
        <ele>-0.8</ele>
        <time>2021-03-20T20:48:40Z</time>
      </trkpt>
      <trkpt lat="51.44727" lon="3.75532">
        <ele>-0.66</ele>
        <time>2021-03-20T20:48:43Z</time>
      </trkpt>
      <trkpt lat="51.44748" lon="3.75518">
        <ele>-0.41</ele>
        <time>2021-03-20T20:48:46Z</time>
      </trkpt>
      <trkpt lat="51.44761" lon="3.75502">
        <ele>-0.16</ele>
        <time>2021-03-20T20:48:49Z</time>
      </trkpt>
      <trkpt lat="51.44771" lon="3.75484">
        <ele>-0.03</ele>
        <time>2021-03-20T20:48:52Z</time>
      </trkpt>
      <trkpt lat="51.44778" lon="3.75468">
        <ele>1</ele>
        <time>2021-03-20T20:48:55Z</time>
      </trkpt>
      <trkpt lat="51.44785" lon="3.75434">
        <ele>-0.13</ele>
        <time>2021-03-20T20:48:58Z</time>
      </trkpt>
      <trkpt lat="51.44798" lon="3.75315">
        <ele>-2</ele>
        <time>2021-03-20T20:49:01Z</time>
      </trkpt>
      <trkpt lat="51.44808" lon="3.75279">
        <ele>-2</ele>
        <time>2021-03-20T20:49:04Z</time>
      </trkpt>
      <trkpt lat="51.44818" lon="3.75248">
        <ele>-1.54</ele>
        <time>2021-03-20T20:49:07Z</time>
      </trkpt>
      <trkpt lat="51.44831" lon="3.75223">
        <ele>-1.1</ele>
        <time>2021-03-20T20:49:10Z</time>
      </trkpt>
      <trkpt lat="51.44848" lon="3.75193">
        <ele>1.6</ele>
        <time>2021-03-20T20:49:12Z</time>
      </trkpt>
      <trkpt lat="51.44906" lon="3.75124">
        <ele>-0.33</ele>
        <time>2021-03-20T20:49:15Z</time>
      </trkpt>
      <trkpt lat="51.44994" lon="3.75043">
        <ele>2.02</ele>
        <time>2021-03-20T20:49:18Z</time>
      </trkpt>
      <trkpt lat="51.4509" lon="3.74941">
        <ele>1.42</ele>
        <time>2021-03-20T20:49:21Z</time>
      </trkpt>
      <trkpt lat="51.45157" lon="3.7485">
        <ele>-0.6</ele>
        <time>2021-03-20T20:49:24Z</time>
      </trkpt>
      <trkpt lat="51.45311" lon="3.74609">
        <ele>-0.92</ele>
        <time>2021-03-20T20:49:27Z</time>
      </trkpt>
      <trkpt lat="51.45349" lon="3.74554">
        <ele>0.02</ele>
        <time>2021-03-20T20:49:30Z</time>
      </trkpt>
      <trkpt lat="51.45394" lon="3.74495">
        <ele>-1.85</ele>
        <time>2021-03-20T20:49:33Z</time>
      </trkpt>
      <trkpt lat="51.45425" lon="3.7446">
        <ele>-1.71</ele>
        <time>2021-03-20T20:49:36Z</time>
      </trkpt>
      <trkpt lat="51.45439" lon="3.74446">
        <ele>-1.19</ele>
        <time>2021-03-20T20:49:39Z</time>
      </trkpt>
      <trkpt lat="51.45458" lon="3.74421">
        <ele>-1.41</ele>
        <time>2021-03-20T20:49:44Z</time>
      </trkpt>
      <trkpt lat="51.45481" lon="3.74403">
        <ele>-0.68</ele>
        <time>2021-03-20T20:49:48Z</time>
      </trkpt>
      <trkpt lat="51.45505" lon="3.74389">
        <ele>1</ele>
        <time>2021-03-20T20:49:53Z</time>
      </trkpt>
      <trkpt lat="51.4562" lon="3.74339">
        <ele>-1</ele>
        <time>2021-03-20T20:49:58Z</time>
      </trkpt>
      <trkpt lat="51.45675" lon="3.74302">
        <ele>-0.69</ele>
        <time>2021-03-20T20:50:02Z</time>
      </trkpt>
      <trkpt lat="51.45709" lon="3.74271">
        <ele>-0.65</ele>
        <time>2021-03-20T20:50:07Z</time>
      </trkpt>
      <trkpt lat="51.45739" lon="3.74238">
        <ele>-1.62</ele>
        <time>2021-03-20T20:50:12Z</time>
      </trkpt>
      <trkpt lat="51.45768" lon="3.74199">
        <ele>-1.46</ele>
        <time>2021-03-20T20:50:16Z</time>
      </trkpt>
      <trkpt lat="51.45804" lon="3.74142">
        <ele>-1</ele>
        <time>2021-03-20T20:50:21Z</time>
      </trkpt>
      <trkpt lat="51.45819" lon="3.74111">
        <ele>-1</ele>
        <time>2021-03-20T20:50:26Z</time>
      </trkpt>
      <trkpt lat="51.45863" lon="3.74031">
        <ele>-2.01</ele>
        <time>2021-03-20T20:50:30Z</time>
      </trkpt>
      <trkpt lat="51.45909" lon="3.7395">
        <ele>-1.27</ele>
        <time>2021-03-20T20:50:35Z</time>
      </trkpt>
      <trkpt lat="51.45942" lon="3.73901">
        <ele>0.05</ele>
        <time>2021-03-20T20:50:40Z</time>
      </trkpt>
      <trkpt lat="51.46027" lon="3.73798">
        <ele>1</ele>
        <time>2021-03-20T20:50:44Z</time>
      </trkpt>
      <trkpt lat="51.46054" lon="3.73769">
        <ele>0.63</ele>
        <time>2021-03-20T20:50:49Z</time>
      </trkpt>
      <trkpt lat="51.46081" lon="3.73742">
        <ele>0.9</ele>
        <time>2021-03-20T20:50:54Z</time>
      </trkpt>
      <trkpt lat="51.46198" lon="3.73637">
        <ele>1</ele>
        <time>2021-03-20T20:50:58Z</time>
      </trkpt>
      <trkpt lat="51.46228" lon="3.73605">
        <ele>0.99</ele>
        <time>2021-03-20T20:51:03Z</time>
      </trkpt>
      <trkpt lat="51.46303" lon="3.73536">
        <ele>0.65</ele>
        <time>2021-03-20T20:51:08Z</time>
      </trkpt>
      <trkpt lat="51.46321" lon="3.73517">
        <ele>0.44</ele>
        <time>2021-03-20T20:51:12Z</time>
      </trkpt>
      <trkpt lat="51.46365" lon="3.73476">
        <ele>-0.11</ele>
        <time>2021-03-20T20:51:17Z</time>
      </trkpt>
      <trkpt lat="51.46419" lon="3.73429">
        <ele>0.45</ele>
        <time>2021-03-20T20:51:22Z</time>
      </trkpt>
      <trkpt lat="51.47014" lon="3.72891">
        <ele>0.94</ele>
        <time>2021-03-20T20:51:26Z</time>
      </trkpt>
      <trkpt lat="51.4753" lon="3.72421">
        <ele>1.13</ele>
        <time>2021-03-20T20:51:31Z</time>
      </trkpt>
      <trkpt lat="51.47597" lon="3.72356">
        <ele>-0.09</ele>
        <time>2021-03-20T20:51:36Z</time>
      </trkpt>
      <trkpt lat="51.47692" lon="3.72249">
        <ele>1</ele>
        <time>2021-03-20T20:51:40Z</time>
      </trkpt>
      <trkpt lat="51.47719" lon="3.72214">
        <ele>0.49</ele>
        <time>2021-03-20T20:51:45Z</time>
      </trkpt>
      <trkpt lat="51.47802" lon="3.72096">
        <ele>-0.41</ele>
        <time>2021-03-20T20:51:50Z</time>
      </trkpt>
      <trkpt lat="51.47846" lon="3.72024">
        <ele>1.07</ele>
        <time>2021-03-20T20:51:54Z</time>
      </trkpt>
      <trkpt lat="51.47889" lon="3.71949">
        <ele>1</ele>
        <time>2021-03-20T20:51:59Z</time>
      </trkpt>
      <trkpt lat="51.4794" lon="3.71849">
        <ele>-0.68</ele>
        <time>2021-03-20T20:52:04Z</time>
      </trkpt>
      <trkpt lat="51.4799" lon="3.7174">
        <ele>1</ele>
        <time>2021-03-20T20:52:09Z</time>
      </trkpt>
      <trkpt lat="51.48028" lon="3.71643">
        <ele>1.14</ele>
        <time>2021-03-20T20:52:13Z</time>
      </trkpt>
      <trkpt lat="51.48054" lon="3.71571">
        <ele>0.95</ele>
        <time>2021-03-20T20:52:18Z</time>
      </trkpt>
      <trkpt lat="51.48088" lon="3.71464">
        <ele>1</ele>
        <time>2021-03-20T20:52:23Z</time>
      </trkpt>
      <trkpt lat="51.48125" lon="3.71328">
        <ele>0.61</ele>
        <time>2021-03-20T20:52:27Z</time>
      </trkpt>
      <trkpt lat="51.48142" lon="3.71254">
        <ele>0.98</ele>
        <time>2021-03-20T20:52:32Z</time>
      </trkpt>
      <trkpt lat="51.48168" lon="3.71125">
        <ele>4</ele>
        <time>2021-03-20T20:52:37Z</time>
      </trkpt>
      <trkpt lat="51.48184" lon="3.71028">
        <ele>1.4</ele>
        <time>2021-03-20T20:52:41Z</time>
      </trkpt>
      <trkpt lat="51.48196" lon="3.70934">
        <ele>1.31</ele>
        <time>2021-03-20T20:52:46Z</time>
      </trkpt>
      <trkpt lat="51.48207" lon="3.70839">
        <ele>1</ele>
        <time>2021-03-20T20:52:51Z</time>
      </trkpt>
      <trkpt lat="51.48215" lon="3.70731">
        <ele>1.73</ele>
        <time>2021-03-20T20:52:55Z</time>
      </trkpt>
      <trkpt lat="51.48221" lon="3.7055">
        <ele>1.17</ele>
        <time>2021-03-20T20:53:00Z</time>
      </trkpt>
      <trkpt lat="51.4822" lon="3.70442">
        <ele>1.82</ele>
        <time>2021-03-20T20:53:05Z</time>
      </trkpt>
      <trkpt lat="51.48218" lon="3.70381">
        <ele>1</ele>
        <time>2021-03-20T20:53:09Z</time>
      </trkpt>
      <trkpt lat="51.4821" lon="3.70256">
        <ele>-0.12</ele>
        <time>2021-03-20T20:53:14Z</time>
      </trkpt>
      <trkpt lat="51.48202" lon="3.70169">
        <ele>-0.73</ele>
        <time>2021-03-20T20:53:19Z</time>
      </trkpt>
      <trkpt lat="51.48191" lon="3.70078">
        <ele>-0.11</ele>
        <time>2021-03-20T20:53:23Z</time>
      </trkpt>
      <trkpt lat="51.48177" lon="3.69975">
        <ele>-0.75</ele>
        <time>2021-03-20T20:53:28Z</time>
      </trkpt>
      <trkpt lat="51.4816" lon="3.69881">
        <ele>-0.28</ele>
        <time>2021-03-20T20:53:33Z</time>
      </trkpt>
      <trkpt lat="51.48134" lon="3.6976">
        <ele>-1.23</ele>
        <time>2021-03-20T20:53:37Z</time>
      </trkpt>
      <trkpt lat="51.48106" lon="3.69648">
        <ele>-0.27</ele>
        <time>2021-03-20T20:53:42Z</time>
      </trkpt>
      <trkpt lat="51.48073" lon="3.69539">
        <ele>-0.38</ele>
        <time>2021-03-20T20:53:47Z</time>
      </trkpt>
      <trkpt lat="51.48028" lon="3.6941">
        <ele>-1</ele>
        <time>2021-03-20T20:53:51Z</time>
      </trkpt>
      <trkpt lat="51.47843" lon="3.6894">
        <ele>1.83</ele>
        <time>2021-03-20T20:53:56Z</time>
      </trkpt>
      <trkpt lat="51.47809" lon="3.68849">
        <ele>2.13</ele>
        <time>2021-03-20T20:54:01Z</time>
      </trkpt>
      <trkpt lat="51.47777" lon="3.68767">
        <ele>0.97</ele>
        <time>2021-03-20T20:54:05Z</time>
      </trkpt>
      <trkpt lat="51.4775" lon="3.68708">
        <ele>1.52</ele>
        <time>2021-03-20T20:54:10Z</time>
      </trkpt>
      <trkpt lat="51.47695" lon="3.68573">
        <ele>3.37</ele>
        <time>2021-03-20T20:54:15Z</time>
      </trkpt>
      <trkpt lat="51.47568" lon="3.68253">
        <ele>4.9</ele>
        <time>2021-03-20T20:54:19Z</time>
      </trkpt>
      <trkpt lat="51.47553" lon="3.68195">
        <ele>5.64</ele>
        <time>2021-03-20T20:54:27Z</time>
      </trkpt>
      <trkpt lat="51.47405" lon="3.67749">
        <ele>3.13</ele>
        <time>2021-03-20T20:54:34Z</time>
      </trkpt>
      <trkpt lat="51.47373" lon="3.67661">
        <ele>3</ele>
        <time>2021-03-20T20:54:42Z</time>
      </trkpt>
      <trkpt lat="51.47358" lon="3.67623">
        <ele>3</ele>
        <time>2021-03-20T20:54:46Z</time>
      </trkpt>
      <trkpt lat="51.47127" lon="3.67123">
        <ele>4.96</ele>
        <time>2021-03-20T20:54:50Z</time>
      </trkpt>
      <trkpt lat="51.47065" lon="3.66975">
        <ele>2.78</ele>
        <time>2021-03-20T20:54:54Z</time>
      </trkpt>
      <trkpt lat="51.47051" lon="3.66957">
        <ele>1.68</ele>
        <time>2021-03-20T20:54:59Z</time>
      </trkpt>
      <trkpt lat="51.46969" lon="3.66748">
        <ele>2.63</ele>
        <time>2021-03-20T20:55:03Z</time>
      </trkpt>
      <trkpt lat="51.46921" lon="3.66609">
        <ele>-1.94</ele>
        <time>2021-03-20T20:55:07Z</time>
      </trkpt>
      <trkpt lat="51.46899" lon="3.66533">
        <ele>-0.65</ele>
        <time>2021-03-20T20:55:11Z</time>
      </trkpt>
      <trkpt lat="51.46873" lon="3.66435">
        <ele>-1.39</ele>
        <time>2021-03-20T20:55:16Z</time>
      </trkpt>
      <trkpt lat="51.46857" lon="3.66365">
        <ele>-0.34</ele>
        <time>2021-03-20T20:55:20Z</time>
      </trkpt>
      <trkpt lat="51.46843" lon="3.66295">
        <ele>1.59</ele>
        <time>2021-03-20T20:55:24Z</time>
      </trkpt>
      <trkpt lat="51.46821" lon="3.66161">
        <ele>1.37</ele>
        <time>2021-03-20T20:55:28Z</time>
      </trkpt>
      <trkpt lat="51.46812" lon="3.66077">
        <ele>2</ele>
        <time>2021-03-20T20:55:33Z</time>
      </trkpt>
      <trkpt lat="51.46804" lon="3.65984">
        <ele>2.93</ele>
        <time>2021-03-20T20:55:37Z</time>
      </trkpt>
      <trkpt lat="51.468" lon="3.65903">
        <ele>1.39</ele>
        <time>2021-03-20T20:55:41Z</time>
      </trkpt>
      <trkpt lat="51.46798" lon="3.65825">
        <ele>0.65</ele>
        <time>2021-03-20T20:55:46Z</time>
      </trkpt>
      <trkpt lat="51.468" lon="3.6569">
        <ele>-1</ele>
        <time>2021-03-20T20:55:50Z</time>
      </trkpt>
      <trkpt lat="51.46804" lon="3.65611">
        <ele>0.93</ele>
        <time>2021-03-20T20:55:54Z</time>
      </trkpt>
      <trkpt lat="51.46811" lon="3.6552">
        <ele>2.58</ele>
        <time>2021-03-20T20:55:58Z</time>
      </trkpt>
      <trkpt lat="51.46833" lon="3.65358">
        <ele>-1.97</ele>
        <time>2021-03-20T20:56:03Z</time>
      </trkpt>
      <trkpt lat="51.46846" lon="3.65277">
        <ele>-2.49</ele>
        <time>2021-03-20T20:56:07Z</time>
      </trkpt>
      <trkpt lat="51.46876" lon="3.65143">
        <ele>1.53</ele>
        <time>2021-03-20T20:56:11Z</time>
      </trkpt>
      <trkpt lat="51.469" lon="3.65051">
        <ele>1.29</ele>
        <time>2021-03-20T20:56:15Z</time>
      </trkpt>
      <trkpt lat="51.46933" lon="3.64945">
        <ele>2</ele>
        <time>2021-03-20T20:56:20Z</time>
      </trkpt>
      <trkpt lat="51.46978" lon="3.64824">
        <ele>0.48</ele>
        <time>2021-03-20T20:56:24Z</time>
      </trkpt>
      <trkpt lat="51.47044" lon="3.64678">
        <ele>1</ele>
        <time>2021-03-20T20:56:28Z</time>
      </trkpt>
      <trkpt lat="51.47093" lon="3.64586">
        <ele>-0.57</ele>
        <time>2021-03-20T20:56:32Z</time>
      </trkpt>
      <trkpt lat="51.47175" lon="3.6444">
        <ele>-2.31</ele>
        <time>2021-03-20T20:56:37Z</time>
      </trkpt>
      <trkpt lat="51.47304" lon="3.64224">
        <ele>0.9</ele>
        <time>2021-03-20T20:56:41Z</time>
      </trkpt>
      <trkpt lat="51.47329" lon="3.64175">
        <ele>-0.28</ele>
        <time>2021-03-20T20:56:45Z</time>
      </trkpt>
      <trkpt lat="51.47454" lon="3.63967">
        <ele>3.07</ele>
        <time>2021-03-20T20:56:49Z</time>
      </trkpt>
      <trkpt lat="51.4749" lon="3.63901">
        <ele>3</ele>
        <time>2021-03-20T20:56:54Z</time>
      </trkpt>
      <trkpt lat="51.47556" lon="3.63788">
        <ele>1.01</ele>
        <time>2021-03-20T20:56:58Z</time>
      </trkpt>
      <trkpt lat="51.47559" lon="3.63779">
        <ele>1.13</ele>
        <time>2021-03-20T20:57:02Z</time>
      </trkpt>
      <trkpt lat="51.4758" lon="3.63746">
        <ele>2.87</ele>
        <time>2021-03-20T20:57:07Z</time>
      </trkpt>
      <trkpt lat="51.47582" lon="3.63742">
        <ele>3.13</ele>
        <time>2021-03-20T20:57:11Z</time>
      </trkpt>
      <trkpt lat="51.47597" lon="3.63743">
        <ele>3.73</ele>
        <time>2021-03-20T20:57:15Z</time>
      </trkpt>
      <trkpt lat="51.47606" lon="3.63731">
        <ele>4.51</ele>
        <time>2021-03-20T20:57:19Z</time>
      </trkpt>
      <trkpt lat="51.47608" lon="3.63719">
        <ele>4.88</ele>
        <time>2021-03-20T20:57:24Z</time>
      </trkpt>
      <trkpt lat="51.47607" lon="3.63705">
        <ele>4.84</ele>
        <time>2021-03-20T20:57:28Z</time>
      </trkpt>
      <trkpt lat="51.47599" lon="3.63689">
        <ele>4.55</ele>
        <time>2021-03-20T20:57:29Z</time>
      </trkpt>
      <trkpt lat="51.47593" lon="3.63685">
        <ele>4.34</ele>
        <time>2021-03-20T20:57:30Z</time>
      </trkpt>
      <trkpt lat="51.47578" lon="3.63686">
        <ele>3.6</ele>
        <time>2021-03-20T20:57:31Z</time>
      </trkpt>
      <trkpt lat="51.4757" lon="3.63677">
        <ele>3.05</ele>
        <time>2021-03-20T20:57:34Z</time>
      </trkpt>
      <trkpt lat="51.47562" lon="3.63664">
        <ele>2.38</ele>
        <time>2021-03-20T20:57:36Z</time>
      </trkpt>
      <trkpt lat="51.47553" lon="3.63643">
        <ele>0.84</ele>
        <time>2021-03-20T20:57:39Z</time>
      </trkpt>
      <trkpt lat="51.47544" lon="3.63619">
        <ele>-0.65</ele>
        <time>2021-03-20T20:57:42Z</time>
      </trkpt>
      <trkpt lat="51.47535" lon="3.63579">
        <ele>-1</ele>
        <time>2021-03-20T20:57:44Z</time>
      </trkpt>
      <trkpt lat="51.47532" lon="3.63543">
        <ele>-0.53</ele>
        <time>2021-03-20T20:57:47Z</time>
      </trkpt>
      <trkpt lat="51.47534" lon="3.63525">
        <ele>1</ele>
        <time>2021-03-20T20:57:49Z</time>
      </trkpt>
      <trkpt lat="51.47538" lon="3.63509">
        <ele>1</ele>
        <time>2021-03-20T20:57:52Z</time>
      </trkpt>
      <trkpt lat="51.47546" lon="3.63491">
        <ele>0.11</ele>
        <time>2021-03-20T20:57:54Z</time>
      </trkpt>
      <trkpt lat="51.47555" lon="3.63479">
        <ele>0.71</ele>
        <time>2021-03-20T20:57:57Z</time>
      </trkpt>
      <trkpt lat="51.47566" lon="3.6347">
        <ele>1.37</ele>
        <time>2021-03-20T20:58:00Z</time>
      </trkpt>
      <trkpt lat="51.47578" lon="3.63466">
        <ele>1.82</ele>
        <time>2021-03-20T20:58:02Z</time>
      </trkpt>
      <trkpt lat="51.4759" lon="3.63467">
        <ele>1.75</ele>
        <time>2021-03-20T20:58:05Z</time>
      </trkpt>
      <trkpt lat="51.47601" lon="3.63471">
        <ele>1.38</ele>
        <time>2021-03-20T20:58:07Z</time>
      </trkpt>
      <trkpt lat="51.47609" lon="3.63477">
        <ele>0.89</ele>
        <time>2021-03-20T20:58:10Z</time>
      </trkpt>
      <trkpt lat="51.47619" lon="3.63489">
        <ele>0.03</ele>
        <time>2021-03-20T20:58:12Z</time>
      </trkpt>
      <trkpt lat="51.47627" lon="3.63504">
        <ele>-0.56</ele>
        <time>2021-03-20T20:58:15Z</time>
      </trkpt>
      <trkpt lat="51.4766" lon="3.63596">
        <ele>1.47</ele>
        <time>2021-03-20T20:58:18Z</time>
      </trkpt>
      <trkpt lat="51.47911" lon="3.64567">
        <ele>-3.2</ele>
        <time>2021-03-20T20:58:20Z</time>
      </trkpt>
      <trkpt lat="51.47927" lon="3.6466">
        <ele>-4.72</ele>
        <time>2021-03-20T20:58:25Z</time>
      </trkpt>
      <trkpt lat="51.4795" lon="3.64766">
        <ele>-2.15</ele>
        <time>2021-03-20T20:58:31Z</time>
      </trkpt>
      <trkpt lat="51.47956" lon="3.64808">
        <ele>-1.54</ele>
        <time>2021-03-20T20:58:36Z</time>
      </trkpt>
      <trkpt lat="51.47959" lon="3.64848">
        <ele>-0.76</ele>
        <time>2021-03-20T20:58:41Z</time>
      </trkpt>
      <trkpt lat="51.47959" lon="3.64872">
        <ele>-0.14</ele>
        <time>2021-03-20T20:58:46Z</time>
      </trkpt>
      <trkpt lat="51.47953" lon="3.64925">
        <ele>0.78</ele>
        <time>2021-03-20T20:58:52Z</time>
      </trkpt>
      <trkpt lat="51.47948" lon="3.64949">
        <ele>1</ele>
        <time>2021-03-20T20:58:57Z</time>
      </trkpt>
      <trkpt lat="51.47939" lon="3.64981">
        <ele>0.74</ele>
        <time>2021-03-20T20:59:02Z</time>
      </trkpt>
      <trkpt lat="51.47915" lon="3.6505">
        <ele>-0.28</ele>
        <time>2021-03-20T20:59:07Z</time>
      </trkpt>
      <trkpt lat="51.47906" lon="3.65088">
        <ele>-0.32</ele>
        <time>2021-03-20T20:59:13Z</time>
      </trkpt>
      <trkpt lat="51.47903" lon="3.65126">
        <ele>1</ele>
        <time>2021-03-20T20:59:18Z</time>
      </trkpt>
      <trkpt lat="51.47908" lon="3.65163">
        <ele>1</ele>
        <time>2021-03-20T20:59:23Z</time>
      </trkpt>
      <trkpt lat="51.47919" lon="3.65197">
        <ele>0.1</ele>
        <time>2021-03-20T20:59:28Z</time>
      </trkpt>
      <trkpt lat="51.47932" lon="3.6522">
        <ele>0.93</ele>
        <time>2021-03-20T20:59:34Z</time>
      </trkpt>
      <trkpt lat="51.47953" lon="3.65241">
        <ele>1</ele>
        <time>2021-03-20T20:59:39Z</time>
      </trkpt>
      <trkpt lat="51.47968" lon="3.65248">
        <ele>1</ele>
        <time>2021-03-20T20:59:44Z</time>
      </trkpt>
      <trkpt lat="51.47982" lon="3.6525">
        <ele>1</ele>
        <time>2021-03-20T20:59:49Z</time>
      </trkpt>
      <trkpt lat="51.48013" lon="3.65243">
        <ele>1</ele>
        <time>2021-03-20T20:59:55Z</time>
      </trkpt>
      <trkpt lat="51.48031" lon="3.65234">
        <ele>0.87</ele>
        <time>2021-03-20T21:00:00Z</time>
      </trkpt>
      <trkpt lat="51.48174" lon="3.6514">
        <ele>1.32</ele>
        <time>2021-03-20T21:00:05Z</time>
      </trkpt>
      <trkpt lat="51.48218" lon="3.65108">
        <ele>3.55</ele>
        <time>2021-03-20T21:00:10Z</time>
      </trkpt>
      <trkpt lat="51.48347" lon="3.65">
        <ele>1</ele>
        <time>2021-03-20T21:00:16Z</time>
      </trkpt>
      <trkpt lat="51.48495" lon="3.64862">
        <ele>-0.89</ele>
        <time>2021-03-20T21:00:21Z</time>
      </trkpt>
      <trkpt lat="51.48569" lon="3.64784">
        <ele>-0.5</ele>
        <time>2021-03-20T21:00:26Z</time>
      </trkpt>
      <trkpt lat="51.48677" lon="3.64661">
        <ele>0.8</ele>
        <time>2021-03-20T21:00:31Z</time>
      </trkpt>
      <trkpt lat="51.4877" lon="3.64544">
        <ele>0.83</ele>
        <time>2021-03-20T21:00:36Z</time>
      </trkpt>
      <trkpt lat="51.4885" lon="3.64437">
        <ele>-0.58</ele>
        <time>2021-03-20T21:00:42Z</time>
      </trkpt>
      <trkpt lat="51.48877" lon="3.64397">
        <ele>-1</ele>
        <time>2021-03-20T21:00:47Z</time>
      </trkpt>
      <trkpt lat="51.49003" lon="3.64198">
        <ele>0.91</ele>
        <time>2021-03-20T21:00:52Z</time>
      </trkpt>
      <trkpt lat="51.49269" lon="3.63761">
        <ele>0.73</ele>
        <time>2021-03-20T21:00:57Z</time>
      </trkpt>
      <trkpt lat="51.49421" lon="3.63516">
        <ele>1.72</ele>
        <time>2021-03-20T21:01:03Z</time>
      </trkpt>
      <trkpt lat="51.49482" lon="3.63433">
        <ele>1.37</ele>
        <time>2021-03-20T21:01:08Z</time>
      </trkpt>
      <trkpt lat="51.49537" lon="3.63378">
        <ele>2</ele>
        <time>2021-03-20T21:01:13Z</time>
      </trkpt>
      <trkpt lat="51.49577" lon="3.63347">
        <ele>2</ele>
        <time>2021-03-20T21:01:18Z</time>
      </trkpt>
      <trkpt lat="51.49604" lon="3.63331">
        <ele>2.73</ele>
        <time>2021-03-20T21:01:24Z</time>
      </trkpt>
      <trkpt lat="51.49644" lon="3.63312">
        <ele>3.59</ele>
        <time>2021-03-20T21:01:29Z</time>
      </trkpt>
      <trkpt lat="51.49712" lon="3.63292">
        <ele>3.47</ele>
        <time>2021-03-20T21:01:34Z</time>
      </trkpt>
      <trkpt lat="51.49778" lon="3.63287">
        <ele>1</ele>
        <time>2021-03-20T21:01:39Z</time>
      </trkpt>
      <trkpt lat="51.50063" lon="3.63302">
        <ele>4.79</ele>
        <time>2021-03-20T21:01:45Z</time>
      </trkpt>
      <trkpt lat="51.50206" lon="3.63312">
        <ele>-0.12</ele>
        <time>2021-03-20T21:01:50Z</time>
      </trkpt>
      <trkpt lat="51.50688" lon="3.63338">
        <ele>-2</ele>
        <time>2021-03-20T21:01:55Z</time>
      </trkpt>
      <trkpt lat="51.50764" lon="3.63332">
        <ele>-2.96</ele>
        <time>2021-03-20T21:02:00Z</time>
      </trkpt>
      <trkpt lat="51.50849" lon="3.63318">
        <ele>-2.72</ele>
        <time>2021-03-20T21:02:06Z</time>
      </trkpt>
      <trkpt lat="51.50914" lon="3.633">
        <ele>-2.17</ele>
        <time>2021-03-20T21:02:11Z</time>
      </trkpt>
      <trkpt lat="51.50975" lon="3.63278">
        <ele>-3</ele>
        <time>2021-03-20T21:02:16Z</time>
      </trkpt>
      <trkpt lat="51.51063" lon="3.63239">
        <ele>-1.74</ele>
        <time>2021-03-20T21:02:21Z</time>
      </trkpt>
      <trkpt lat="51.51112" lon="3.63213">
        <ele>-0.65</ele>
        <time>2021-03-20T21:02:27Z</time>
      </trkpt>
      <trkpt lat="51.51188" lon="3.63163">
        <ele>-0.8</ele>
        <time>2021-03-20T21:02:32Z</time>
      </trkpt>
      <trkpt lat="51.5123" lon="3.6313">
        <ele>-1</ele>
        <time>2021-03-20T21:02:37Z</time>
      </trkpt>
      <trkpt lat="51.51292" lon="3.63077">
        <ele>-0.5</ele>
        <time>2021-03-20T21:02:42Z</time>
      </trkpt>
      <trkpt lat="51.51386" lon="3.62984">
        <ele>-2.54</ele>
        <time>2021-03-20T21:02:48Z</time>
      </trkpt>
      <trkpt lat="51.51422" lon="3.62943">
        <ele>-0.94</ele>
        <time>2021-03-20T21:02:53Z</time>
      </trkpt>
      <trkpt lat="51.51479" lon="3.6287">
        <ele>-0.48</ele>
        <time>2021-03-20T21:02:58Z</time>
      </trkpt>
      <trkpt lat="51.51542" lon="3.62779">
        <ele>-2.02</ele>
        <time>2021-03-20T21:03:03Z</time>
      </trkpt>
      <trkpt lat="51.51608" lon="3.6267">
        <ele>-3.1</ele>
        <time>2021-03-20T21:03:09Z</time>
      </trkpt>
      <trkpt lat="51.51938" lon="3.62077">
        <ele>-1</ele>
        <time>2021-03-20T21:03:14Z</time>
      </trkpt>
      <trkpt lat="51.51962" lon="3.62039">
        <ele>-1.59</ele>
        <time>2021-03-20T21:03:19Z</time>
      </trkpt>
      <trkpt lat="51.51972" lon="3.62042">
        <ele>-1.49</ele>
        <time>2021-03-20T21:03:27Z</time>
      </trkpt>
      <trkpt lat="51.51981" lon="3.62035">
        <ele>-2.05</ele>
        <time>2021-03-20T21:03:35Z</time>
      </trkpt>
      <trkpt lat="51.51985" lon="3.62026">
        <ele>-2.45</ele>
        <time>2021-03-20T21:03:43Z</time>
      </trkpt>
      <trkpt lat="51.51986" lon="3.62015">
        <ele>-2.5</ele>
        <time>2021-03-20T21:03:51Z</time>
      </trkpt>
      <trkpt lat="51.51983" lon="3.62">
        <ele>-2.41</ele>
        <time>2021-03-20T21:03:59Z</time>
      </trkpt>
      <trkpt lat="51.52031" lon="3.61903">
        <ele>-1</ele>
        <time>2021-03-20T21:04:07Z</time>
      </trkpt>
      <trkpt lat="51.52127" lon="3.61736">
        <ele>-1</ele>
        <time>2021-03-20T21:04:15Z</time>
      </trkpt>
      <trkpt lat="51.5217" lon="3.61674">
        <ele>1</ele>
        <time>2021-03-20T21:04:23Z</time>
      </trkpt>
      <trkpt lat="51.52216" lon="3.61617">
        <time>2021-03-20T21:04:31Z</time>
      </trkpt>
      <trkpt lat="51.52265" lon="3.61568">
        <ele>-1</ele>
        <time>2021-03-20T21:04:39Z</time>
      </trkpt>
      <trkpt lat="51.52292" lon="3.61545">
        <ele>-1.31</ele>
        <time>2021-03-20T21:04:47Z</time>
      </trkpt>
      <trkpt lat="51.5236" lon="3.61498">
        <ele>-1.11</ele>
        <time>2021-03-20T21:04:55Z</time>
      </trkpt>
      <trkpt lat="51.52434" lon="3.6146">
        <ele>-1.61</ele>
        <time>2021-03-20T21:05:03Z</time>
      </trkpt>
      <trkpt lat="51.52743" lon="3.61327">
        <ele>-2.1</ele>
        <time>2021-03-20T21:05:11Z</time>
      </trkpt>
      <trkpt lat="51.53056" lon="3.61188">
        <ele>-1.73</ele>
        <time>2021-03-20T21:05:19Z</time>
      </trkpt>
      <trkpt lat="51.53294" lon="3.61079">
        <ele>-2.58</ele>
        <time>2021-03-20T21:05:27Z</time>
      </trkpt>
      <trkpt lat="51.53538" lon="3.60964">
        <ele>-1.55</ele>
        <time>2021-03-20T21:05:35Z</time>
      </trkpt>
      <trkpt lat="51.53733" lon="3.60867">
        <ele>-1.92</ele>
        <time>2021-03-20T21:05:43Z</time>
      </trkpt>
      <trkpt lat="51.53898" lon="3.6078">
        <ele>-0.37</ele>
        <time>2021-03-20T21:05:51Z</time>
      </trkpt>
      <trkpt lat="51.54067" lon="3.60688">
        <ele>-2</ele>
        <time>2021-03-20T21:05:59Z</time>
      </trkpt>
      <trkpt lat="51.54278" lon="3.60567">
        <ele>-1.01</ele>
        <time>2021-03-20T21:06:07Z</time>
      </trkpt>
      <trkpt lat="51.54316" lon="3.60552">
        <ele>0.86</ele>
        <time>2021-03-20T21:06:15Z</time>
      </trkpt>
      <trkpt lat="51.54324" lon="3.60562">
        <ele>1</ele>
        <time>2021-03-20T21:06:21Z</time>
      </trkpt>
      <trkpt lat="51.54333" lon="3.60564">
        <ele>1</ele>
        <time>2021-03-20T21:06:27Z</time>
      </trkpt>
      <trkpt lat="51.54341" lon="3.60558">
        <ele>0.43</ele>
        <time>2021-03-20T21:06:33Z</time>
      </trkpt>
      <trkpt lat="51.54346" lon="3.60551">
        <ele>0.02</ele>
        <time>2021-03-20T21:06:39Z</time>
      </trkpt>
      <trkpt lat="51.54348" lon="3.60541">
        <ele>-0.29</ele>
        <time>2021-03-20T21:06:45Z</time>
      </trkpt>
      <trkpt lat="51.54391" lon="3.60522">
        <ele>-0.8</ele>
        <time>2021-03-20T21:06:51Z</time>
      </trkpt>
      <trkpt lat="51.54529" lon="3.60486">
        <ele>0.48</ele>
        <time>2021-03-20T21:06:57Z</time>
      </trkpt>
      <trkpt lat="51.54605" lon="3.60463">
        <ele>-1.78</ele>
        <time>2021-03-20T21:07:03Z</time>
      </trkpt>
      <trkpt lat="51.54795" lon="3.60396">
        <ele>-0.86</ele>
        <time>2021-03-20T21:07:09Z</time>
      </trkpt>
      <trkpt lat="51.54935" lon="3.60338">
        <ele>-0.36</ele>
        <time>2021-03-20T21:07:15Z</time>
      </trkpt>
      <trkpt lat="51.55111" lon="3.60252">
        <ele>-1.07</ele>
        <time>2021-03-20T21:07:21Z</time>
      </trkpt>
      <trkpt lat="51.55218" lon="3.60194">
        <ele>0.17</ele>
        <time>2021-03-20T21:07:27Z</time>
      </trkpt>
      <trkpt lat="51.55424" lon="3.60075">
        <ele>1</ele>
        <time>2021-03-20T21:07:33Z</time>
      </trkpt>
      <trkpt lat="51.55492" lon="3.60041">
        <ele>-0.72</ele>
        <time>2021-03-20T21:07:39Z</time>
      </trkpt>
      <trkpt lat="51.55575" lon="3.60005">
        <ele>1</ele>
        <time>2021-03-20T21:07:45Z</time>
      </trkpt>
      <trkpt lat="51.55661" lon="3.59973">
        <ele>1</ele>
        <time>2021-03-20T21:07:51Z</time>
      </trkpt>
      <trkpt lat="51.55711" lon="3.59956">
        <ele>1</ele>
        <time>2021-03-20T21:07:57Z</time>
      </trkpt>
      <trkpt lat="51.55754" lon="3.59952">
        <ele>-0.85</ele>
        <time>2021-03-20T21:08:03Z</time>
      </trkpt>
      <trkpt lat="51.55756" lon="3.59958">
        <ele>-0.77</ele>
        <time>2021-03-20T21:08:08Z</time>
      </trkpt>
      <trkpt lat="51.55763" lon="3.59965">
        <ele>-0.52</ele>
        <time>2021-03-20T21:08:13Z</time>
      </trkpt>
      <trkpt lat="51.55773" lon="3.59965">
        <ele>-0.19</ele>
        <time>2021-03-20T21:08:18Z</time>
      </trkpt>
      <trkpt lat="51.55781" lon="3.59956">
        <ele>1</ele>
        <time>2021-03-20T21:08:23Z</time>
      </trkpt>
      <trkpt lat="51.55822" lon="3.59963">
        <ele>1</ele>
        <time>2021-03-20T21:08:28Z</time>
      </trkpt>
      <trkpt lat="51.55968" lon="3.60029">
        <ele>-0.95</ele>
        <time>2021-03-20T21:08:33Z</time>
      </trkpt>
      <trkpt lat="51.56008" lon="3.60053">
        <ele>-0.73</ele>
        <time>2021-03-20T21:08:38Z</time>
      </trkpt>
      <trkpt lat="51.56045" lon="3.60082">
        <ele>1</ele>
        <time>2021-03-20T21:08:43Z</time>
      </trkpt>
      <trkpt lat="51.56081" lon="3.60117">
        <ele>1</ele>
        <time>2021-03-20T21:08:48Z</time>
      </trkpt>
      <trkpt lat="51.56113" lon="3.60153">
        <ele>-1</ele>
        <time>2021-03-20T21:08:52Z</time>
      </trkpt>
      <trkpt lat="51.56136" lon="3.60183">
        <ele>-1</ele>
        <time>2021-03-20T21:08:57Z</time>
      </trkpt>
      <trkpt lat="51.56163" lon="3.60223">
        <ele>-1</ele>
        <time>2021-03-20T21:09:02Z</time>
      </trkpt>
      <trkpt lat="51.56188" lon="3.60267">
        <ele>-0.55</ele>
        <time>2021-03-20T21:09:07Z</time>
      </trkpt>
      <trkpt lat="51.56336" lon="3.6056">
        <ele>1</ele>
        <time>2021-03-20T21:09:12Z</time>
      </trkpt>
      <trkpt lat="51.56382" lon="3.60647">
        <ele>0.28</ele>
        <time>2021-03-20T21:09:17Z</time>
      </trkpt>
      <trkpt lat="51.56492" lon="3.60863">
        <ele>0.06</ele>
        <time>2021-03-20T21:09:22Z</time>
      </trkpt>
      <trkpt lat="51.56541" lon="3.60954">
        <ele>0.53</ele>
        <time>2021-03-20T21:09:27Z</time>
      </trkpt>
      <trkpt lat="51.56559" lon="3.60983">
        <ele>1</ele>
        <time>2021-03-20T21:09:32Z</time>
      </trkpt>
      <trkpt lat="51.56621" lon="3.61066">
        <ele>1</ele>
        <time>2021-03-20T21:09:37Z</time>
      </trkpt>
      <trkpt lat="51.56667" lon="3.61112">
        <ele>1</ele>
        <time>2021-03-20T21:09:42Z</time>
      </trkpt>
      <trkpt lat="51.56716" lon="3.61153">
        <ele>1</ele>
        <time>2021-03-20T21:09:46Z</time>
      </trkpt>
      <trkpt lat="51.56751" lon="3.61175">
        <ele>1</ele>
        <time>2021-03-20T21:09:51Z</time>
      </trkpt>
      <trkpt lat="51.56863" lon="3.61235">
        <ele>0.94</ele>
        <time>2021-03-20T21:09:56Z</time>
      </trkpt>
      <trkpt lat="51.5689" lon="3.61252">
        <ele>0.08</ele>
        <time>2021-03-20T21:10:01Z</time>
      </trkpt>
      <trkpt lat="51.5693" lon="3.61284">
        <ele>1</ele>
        <time>2021-03-20T21:10:06Z</time>
      </trkpt>
      <trkpt lat="51.56949" lon="3.61303">
        <ele>1</ele>
        <time>2021-03-20T21:10:11Z</time>
      </trkpt>
      <trkpt lat="51.5699" lon="3.61348">
        <ele>1</ele>
        <time>2021-03-20T21:10:16Z</time>
      </trkpt>
      <trkpt lat="51.57019" lon="3.61385">
        <ele>2.52</ele>
        <time>2021-03-20T21:10:21Z</time>
      </trkpt>
      <trkpt lat="51.57357" lon="3.61882">
        <ele>-0.62</ele>
        <time>2021-03-20T21:10:26Z</time>
      </trkpt>
      <trkpt lat="51.57386" lon="3.6192">
        <ele>-0.89</ele>
        <time>2021-03-20T21:10:31Z</time>
      </trkpt>
      <trkpt lat="51.57433" lon="3.61969">
        <ele>1</ele>
        <time>2021-03-20T21:10:36Z</time>
      </trkpt>
      <trkpt lat="51.57432" lon="3.61978">
        <ele>1</ele>
        <time>2021-03-20T21:10:36Z</time>
      </trkpt>
      <trkpt lat="51.57434" lon="3.61987">
        <ele>1</ele>
        <time>2021-03-20T21:10:37Z</time>
      </trkpt>
      <trkpt lat="51.57437" lon="3.61995">
        <ele>1</ele>
        <time>2021-03-20T21:10:38Z</time>
      </trkpt>
      <trkpt lat="51.57442" lon="3.62001">
        <ele>1</ele>
        <time>2021-03-20T21:10:39Z</time>
      </trkpt>
      <trkpt lat="51.57451" lon="3.62003">
        <ele>0.24</ele>
        <time>2021-03-20T21:10:40Z</time>
      </trkpt>
      <trkpt lat="51.5746" lon="3.61998">
        <ele>0.56</ele>
        <time>2021-03-20T21:10:41Z</time>
      </trkpt>
      <trkpt lat="51.57463" lon="3.61992">
        <ele>0.68</ele>
        <time>2021-03-20T21:10:42Z</time>
      </trkpt>
      <trkpt lat="51.57467" lon="3.61979">
        <ele>0.79</ele>
        <time>2021-03-20T21:10:42Z</time>
      </trkpt>
      <trkpt lat="51.57465" lon="3.61964">
        <ele>0.73</ele>
        <time>2021-03-20T21:10:43Z</time>
      </trkpt>
      <trkpt lat="51.57458" lon="3.61952">
        <ele>0.49</ele>
        <time>2021-03-20T21:10:44Z</time>
      </trkpt>
      <trkpt lat="51.57463" lon="3.6193">
        <ele>0.84</ele>
        <time>2021-03-20T21:10:45Z</time>
      </trkpt>
      <trkpt lat="51.57463" lon="3.61916">
        <ele>1</ele>
        <time>2021-03-20T21:10:46Z</time>
      </trkpt>
      <trkpt lat="51.5747" lon="3.61921">
        <ele>0.99</ele>
        <time>2021-03-20T21:10:53Z</time>
      </trkpt>
      <trkpt lat="51.57482" lon="3.61936">
        <ele>1</ele>
        <time>2021-03-20T21:10:59Z</time>
      </trkpt>
      <trkpt lat="51.57495" lon="3.61969">
        <ele>1</ele>
        <time>2021-03-20T21:11:06Z</time>
      </trkpt>
      <trkpt lat="51.57499" lon="3.61976">
        <ele>1</ele>
        <time>2021-03-20T21:11:13Z</time>
      </trkpt>
      <trkpt lat="51.57791" lon="3.6215">
        <ele>0.52</ele>
        <time>2021-03-20T21:11:20Z</time>
      </trkpt>
      <trkpt lat="51.58194" lon="3.62388">
        <ele>1</ele>
        <time>2021-03-20T21:11:27Z</time>
      </trkpt>
      <trkpt lat="51.58255" lon="3.62432">
        <ele>2.55</ele>
        <time>2021-03-20T21:11:34Z</time>
      </trkpt>
      <trkpt lat="51.58315" lon="3.62485">
        <ele>3.78</ele>
        <time>2021-03-20T21:11:40Z</time>
      </trkpt>
      <trkpt lat="51.58351" lon="3.62525">
        <ele>4.96</ele>
        <time>2021-03-20T21:11:47Z</time>
      </trkpt>
      <trkpt lat="51.5837" lon="3.62549">
        <ele>5.24</ele>
        <time>2021-03-20T21:11:54Z</time>
      </trkpt>
      <trkpt lat="51.58468" lon="3.62691">
        <ele>3.71</ele>
        <time>2021-03-20T21:12:01Z</time>
      </trkpt>
      <trkpt lat="51.58509" lon="3.62758">
        <ele>4.03</ele>
        <time>2021-03-20T21:12:08Z</time>
      </trkpt>
      <trkpt lat="51.58519" lon="3.62769">
        <ele>4.01</ele>
        <time>2021-03-20T21:12:15Z</time>
      </trkpt>
      <trkpt lat="51.58544" lon="3.62787">
        <ele>4.95</ele>
        <time>2021-03-20T21:12:21Z</time>
      </trkpt>
      <trkpt lat="51.58551" lon="3.62802">
        <ele>4.93</ele>
        <time>2021-03-20T21:12:28Z</time>
      </trkpt>
      <trkpt lat="51.58551" lon="3.62812">
        <ele>4.63</ele>
        <time>2021-03-20T21:12:35Z</time>
      </trkpt>
      <trkpt lat="51.58549" lon="3.62823">
        <ele>4.27</ele>
        <time>2021-03-20T21:12:42Z</time>
      </trkpt>
      <trkpt lat="51.5851" lon="3.62873">
        <ele>2.73</ele>
        <time>2021-03-20T21:12:49Z</time>
      </trkpt>
      <trkpt lat="51.58509" lon="3.62887">
        <ele>2.64</ele>
        <time>2021-03-20T21:12:56Z</time>
      </trkpt>
      <trkpt lat="51.5851" lon="3.62893">
        <ele>2.67</ele>
        <time>2021-03-20T21:13:02Z</time>
      </trkpt>
      <trkpt lat="51.58511" lon="3.62898">
        <ele>2.66</ele>
        <time>2021-03-20T21:13:09Z</time>
      </trkpt>
      <trkpt lat="51.58517" lon="3.62909">
        <ele>2.75</ele>
        <time>2021-03-20T21:13:16Z</time>
      </trkpt>
      <trkpt lat="51.58559" lon="3.62977">
        <ele>3.1</ele>
        <time>2021-03-20T21:13:23Z</time>
      </trkpt>
      <trkpt lat="51.58578" lon="3.63012">
        <ele>3</ele>
        <time>2021-03-20T21:13:30Z</time>
      </trkpt>
      <trkpt lat="51.58623" lon="3.63142">
        <ele>3.77</ele>
        <time>2021-03-20T21:13:37Z</time>
      </trkpt>
      <trkpt lat="51.58643" lon="3.63204">
        <ele>4.07</ele>
        <time>2021-03-20T21:13:43Z</time>
      </trkpt>
      <trkpt lat="51.58812" lon="3.63807">
        <ele>4.2</ele>
        <time>2021-03-20T21:13:50Z</time>
      </trkpt>
      <trkpt lat="51.58827" lon="3.63866">
        <ele>3.85</ele>
        <time>2021-03-20T21:13:57Z</time>
      </trkpt>
      <trkpt lat="51.5884" lon="3.63921">
        <ele>3.41</ele>
        <time>2021-03-20T21:14:04Z</time>
      </trkpt>
      <trkpt lat="51.58878" lon="3.64103">
        <ele>2.79</ele>
        <time>2021-03-20T21:14:11Z</time>
      </trkpt>
      <trkpt lat="51.589" lon="3.64239">
        <ele>4.74</ele>
        <time>2021-03-20T21:14:18Z</time>
      </trkpt>
      <trkpt lat="51.58901" lon="3.64291">
        <ele>3.79</ele>
        <time>2021-03-20T21:14:24Z</time>
      </trkpt>
      <trkpt lat="51.589" lon="3.64362">
        <ele>2.16</ele>
        <time>2021-03-20T21:14:31Z</time>
      </trkpt>
      <trkpt lat="51.58902" lon="3.64396">
        <ele>1.91</ele>
        <time>2021-03-20T21:14:38Z</time>
      </trkpt>
      <trkpt lat="51.58912" lon="3.64469">
        <ele>1.83</ele>
        <time>2021-03-20T21:14:45Z</time>
      </trkpt>
      <trkpt lat="51.5892" lon="3.64496">
        <ele>2.02</ele>
        <time>2021-03-20T21:14:52Z</time>
      </trkpt>
      <trkpt lat="51.58922" lon="3.64526">
        <ele>2</ele>
        <time>2021-03-20T21:14:59Z</time>
      </trkpt>
      <trkpt lat="51.58941" lon="3.64645">
        <ele>1.9</ele>
        <time>2021-03-20T21:15:05Z</time>
      </trkpt>
      <trkpt lat="51.58944" lon="3.6469">
        <ele>2</ele>
        <time>2021-03-20T21:15:12Z</time>
      </trkpt>
      <trkpt lat="51.58952" lon="3.65802">
        <ele>1.16</ele>
        <time>2021-03-20T21:15:19Z</time>
      </trkpt>
      <trkpt lat="51.58951" lon="3.65931">
        <ele>1.76</ele>
        <time>2021-03-20T21:15:26Z</time>
      </trkpt>
      <trkpt lat="51.58949" lon="3.65995">
        <ele>2.97</ele>
        <time>2021-03-20T21:15:33Z</time>
      </trkpt>
      <trkpt lat="51.58942" lon="3.66064">
        <ele>2.92</ele>
        <time>2021-03-20T21:15:40Z</time>
      </trkpt>
      <trkpt lat="51.58904" lon="3.66307">
        <ele>3.56</ele>
        <time>2021-03-20T21:15:46Z</time>
      </trkpt>
      <trkpt lat="51.58899" lon="3.66306">
        <ele>3.38</ele>
        <time>2021-03-20T21:15:50Z</time>
      </trkpt>
      <trkpt lat="51.58895" lon="3.66309">
        <ele>3.21</ele>
        <time>2021-03-20T21:15:54Z</time>
      </trkpt>
      <trkpt lat="51.58891" lon="3.66314">
        <ele>3.07</ele>
        <time>2021-03-20T21:15:58Z</time>
      </trkpt>
      <trkpt lat="51.58889" lon="3.66322">
        <ele>3</ele>
        <time>2021-03-20T21:16:02Z</time>
      </trkpt>
      <trkpt lat="51.58891" lon="3.66336">
        <ele>3.06</ele>
        <time>2021-03-20T21:16:06Z</time>
      </trkpt>
      <trkpt lat="51.58898" lon="3.66345">
        <ele>3.33</ele>
        <time>2021-03-20T21:16:11Z</time>
      </trkpt>
      <trkpt lat="51.58887" lon="3.66439">
        <ele>2.1</ele>
        <time>2021-03-20T21:16:15Z</time>
      </trkpt>
      <trkpt lat="51.58875" lon="3.6651">
        <ele>1.5</ele>
        <time>2021-03-20T21:16:19Z</time>
      </trkpt>
      <trkpt lat="51.58846" lon="3.66662">
        <ele>1.26</ele>
        <time>2021-03-20T21:16:23Z</time>
      </trkpt>
      <trkpt lat="51.58828" lon="3.6674">
        <ele>1.82</ele>
        <time>2021-03-20T21:16:27Z</time>
      </trkpt>
      <trkpt lat="51.58797" lon="3.66925">
        <ele>1.89</ele>
        <time>2021-03-20T21:16:31Z</time>
      </trkpt>
      <trkpt lat="51.58791" lon="3.66987">
        <ele>1.96</ele>
        <time>2021-03-20T21:16:35Z</time>
      </trkpt>
      <trkpt lat="51.58771" lon="3.67131">
        <ele>0.75</ele>
        <time>2021-03-20T21:16:39Z</time>
      </trkpt>
      <trkpt lat="51.58738" lon="3.67345">
        <ele>3.9</ele>
        <time>2021-03-20T21:16:43Z</time>
      </trkpt>
      <trkpt lat="51.58738" lon="3.67374">
        <ele>3.12</ele>
        <time>2021-03-20T21:16:47Z</time>
      </trkpt>
      <trkpt lat="51.58743" lon="3.67409">
        <ele>2.75</ele>
        <time>2021-03-20T21:16:51Z</time>
      </trkpt>
      <trkpt lat="51.58754" lon="3.67444">
        <ele>1.85</ele>
        <time>2021-03-20T21:16:55Z</time>
      </trkpt>
      <trkpt lat="51.58763" lon="3.67462">
        <ele>1.53</ele>
        <time>2021-03-20T21:16:59Z</time>
      </trkpt>
      <trkpt lat="51.58772" lon="3.67476">
        <ele>1.35</ele>
        <time>2021-03-20T21:17:03Z</time>
      </trkpt>
      <trkpt lat="51.58796" lon="3.6751">
        <ele>2</ele>
        <time>2021-03-20T21:17:07Z</time>
      </trkpt>
      <trkpt lat="51.5882" lon="3.67481">
        <ele>2</ele>
        <time>2021-03-20T21:17:11Z</time>
      </trkpt>
      <trkpt lat="51.58861" lon="3.67448">
        <ele>2</ele>
        <time>2021-03-20T21:17:15Z</time>
      </trkpt>
      <trkpt lat="51.58867" lon="3.67453">
        <ele>2</ele>
        <time>2021-03-20T21:17:26Z</time>
      </trkpt>
      <trkpt lat="51.58874" lon="3.67454">
        <ele>2</ele>
        <time>2021-03-20T21:17:36Z</time>
      </trkpt>
      <trkpt lat="51.58943" lon="3.67603">
        <ele>0.3</ele>
        <time>2021-03-20T21:17:47Z</time>
      </trkpt>
      <trkpt lat="51.58974" lon="3.67653">
        <ele>0.63</ele>
        <time>2021-03-20T21:17:58Z</time>
      </trkpt>
      <trkpt lat="51.5902" lon="3.67714">
        <ele>2.01</ele>
        <time>2021-03-20T21:18:09Z</time>
      </trkpt>
      <trkpt lat="51.59056" lon="3.67753">
        <ele>0.91</ele>
        <time>2021-03-20T21:18:20Z</time>
      </trkpt>
      <trkpt lat="51.5911" lon="3.67798">
        <ele>1.95</ele>
        <time>2021-03-20T21:18:31Z</time>
      </trkpt>
      <trkpt lat="51.59579" lon="3.68091">
        <ele>3.58</ele>
        <time>2021-03-20T21:18:42Z</time>
      </trkpt>
      <trkpt lat="51.59703" lon="3.68149">
        <ele>6.93</ele>
        <time>2021-03-20T21:18:53Z</time>
      </trkpt>
      <trkpt lat="51.59784" lon="3.68176">
        <ele>8</ele>
        <time>2021-03-20T21:19:04Z</time>
      </trkpt>
      <trkpt lat="51.59889" lon="3.68199">
        <ele>10.98</ele>
        <time>2021-03-20T21:19:14Z</time>
      </trkpt>
      <trkpt lat="51.60098" lon="3.68232">
        <ele>2.19</ele>
        <time>2021-03-20T21:19:25Z</time>
      </trkpt>
      <trkpt lat="51.61811" lon="3.68465">
        <ele>10.88</ele>
        <time>2021-03-20T21:19:36Z</time>
      </trkpt>
      <trkpt lat="51.62011" lon="3.68495">
        <ele>12.75</ele>
        <time>2021-03-20T21:19:47Z</time>
      </trkpt>
      <trkpt lat="51.62078" lon="3.68514">
        <ele>11.69</ele>
        <time>2021-03-20T21:19:58Z</time>
      </trkpt>
      <trkpt lat="51.62159" lon="3.68543">
        <ele>9.07</ele>
        <time>2021-03-20T21:20:09Z</time>
      </trkpt>
      <trkpt lat="51.62232" lon="3.68578">
        <ele>9.48</ele>
        <time>2021-03-20T21:20:20Z</time>
      </trkpt>
      <trkpt lat="51.62312" lon="3.68624">
        <ele>9.77</ele>
        <time>2021-03-20T21:20:31Z</time>
      </trkpt>
      <trkpt lat="51.6236" lon="3.68656">
        <ele>9.02</ele>
        <time>2021-03-20T21:20:42Z</time>
      </trkpt>
      <trkpt lat="51.6242" lon="3.687">
        <ele>6.7</ele>
        <time>2021-03-20T21:20:53Z</time>
      </trkpt>
      <trkpt lat="51.6251" lon="3.68779">
        <ele>6.36</ele>
        <time>2021-03-20T21:21:03Z</time>
      </trkpt>
      <trkpt lat="51.62584" lon="3.68855">
        <ele>8.02</ele>
        <time>2021-03-20T21:21:14Z</time>
      </trkpt>
      <trkpt lat="51.62652" lon="3.68935">
        <ele>8.65</ele>
        <time>2021-03-20T21:21:25Z</time>
      </trkpt>
      <trkpt lat="51.62727" lon="3.69037">
        <ele>9.73</ele>
        <time>2021-03-20T21:21:36Z</time>
      </trkpt>
      <trkpt lat="51.62813" lon="3.69161">
        <ele>8.42</ele>
        <time>2021-03-20T21:21:47Z</time>
      </trkpt>
      <trkpt lat="51.62913" lon="3.69316">
        <ele>6.53</ele>
        <time>2021-03-20T21:21:58Z</time>
      </trkpt>
      <trkpt lat="51.63052" lon="3.69548">
        <ele>9.23</ele>
        <time>2021-03-20T21:22:09Z</time>
      </trkpt>
      <trkpt lat="51.63185" lon="3.69791">
        <ele>9.34</ele>
        <time>2021-03-20T21:22:20Z</time>
      </trkpt>
      <trkpt lat="51.63329" lon="3.70078">
        <ele>11</ele>
        <time>2021-03-20T21:22:31Z</time>
      </trkpt>
      <trkpt lat="51.63347" lon="3.70128">
        <ele>11</ele>
        <time>2021-03-20T21:22:41Z</time>
      </trkpt>
      <trkpt lat="51.63415" lon="3.70281">
        <ele>9.94</ele>
        <time>2021-03-20T21:22:52Z</time>
      </trkpt>
      <trkpt lat="51.63424" lon="3.70315">
        <ele>10.18</ele>
        <time>2021-03-20T21:22:55Z</time>
      </trkpt>
      <trkpt lat="51.63423" lon="3.70328">
        <ele>10.04</ele>
        <time>2021-03-20T21:22:57Z</time>
      </trkpt>
      <trkpt lat="51.63417" lon="3.70344">
        <ele>9.63</ele>
        <time>2021-03-20T21:23:00Z</time>
      </trkpt>
      <trkpt lat="51.63405" lon="3.70358">
        <ele>9.12</ele>
        <time>2021-03-20T21:23:02Z</time>
      </trkpt>
      <trkpt lat="51.63393" lon="3.70378">
        <ele>8.41</ele>
        <time>2021-03-20T21:23:04Z</time>
      </trkpt>
      <trkpt lat="51.63385" lon="3.70404">
        <ele>7.31</ele>
        <time>2021-03-20T21:23:07Z</time>
      </trkpt>
      <trkpt lat="51.63382" lon="3.70433">
        <ele>6.16</ele>
        <time>2021-03-20T21:23:09Z</time>
      </trkpt>
      <trkpt lat="51.63383" lon="3.70447">
        <ele>5.78</ele>
        <time>2021-03-20T21:23:12Z</time>
      </trkpt>
      <trkpt lat="51.63388" lon="3.70475">
        <ele>5.87</ele>
        <time>2021-03-20T21:23:14Z</time>
      </trkpt>
      <trkpt lat="51.63415" lon="3.70552">
        <ele>4.18</ele>
        <time>2021-03-20T21:23:16Z</time>
      </trkpt>
      <trkpt lat="51.63459" lon="3.70661">
        <ele>3.63</ele>
        <time>2021-03-20T21:23:19Z</time>
      </trkpt>
      <trkpt lat="51.63519" lon="3.70788">
        <ele>3.68</ele>
        <time>2021-03-20T21:23:21Z</time>
      </trkpt>
      <trkpt lat="51.63586" lon="3.70915">
        <ele>3.11</ele>
        <time>2021-03-20T21:23:24Z</time>
      </trkpt>
      <trkpt lat="51.63471" lon="3.71081">
        <ele>2.12</ele>
        <time>2021-03-20T21:23:30Z</time>
      </trkpt>
      <trkpt lat="51.63466" lon="3.71084">
        <ele>2.2</ele>
        <time>2021-03-20T21:23:36Z</time>
      </trkpt>
      <trkpt lat="51.63455" lon="3.71078">
        <ele>2.69</ele>
        <time>2021-03-20T21:23:42Z</time>
      </trkpt>
      <trkpt lat="51.63443" lon="3.71068">
        <ele>2.95</ele>
        <time>2021-03-20T21:23:48Z</time>
      </trkpt>
      <trkpt lat="51.63296" lon="3.70901">
        <ele>2.36</ele>
        <time>2021-03-20T21:23:54Z</time>
      </trkpt>
      <trkpt lat="51.63304" lon="3.70881">
        <ele>3.21</ele>
        <time>2021-03-20T21:23:59Z</time>
      </trkpt>
      <trkpt lat="51.63337" lon="3.70811">
        <ele>3.87</ele>
        <time>2021-03-20T21:24:05Z</time>
      </trkpt>
      <trkpt lat="51.634" lon="3.70705">
        <ele>4.61</ele>
        <time>2021-03-20T21:24:10Z</time>
      </trkpt>
      <trkpt lat="51.63407" lon="3.70689">
        <ele>4.36</ele>
        <time>2021-03-20T21:24:16Z</time>
      </trkpt>
      <trkpt lat="51.6341" lon="3.70666">
        <ele>4.22</ele>
        <time>2021-03-20T21:24:22Z</time>
      </trkpt>
      <trkpt lat="51.63409" lon="3.70645">
        <ele>4.26</ele>
        <time>2021-03-20T21:24:27Z</time>
      </trkpt>
      <trkpt lat="51.63404" lon="3.70626">
        <ele>4.46</ele>
        <time>2021-03-20T21:24:33Z</time>
      </trkpt>
      <trkpt lat="51.63373" lon="3.70561">
        <ele>3.85</ele>
        <time>2021-03-20T21:24:39Z</time>
      </trkpt>
      <trkpt lat="51.63226" lon="3.70165">
        <ele>4.21</ele>
        <time>2021-03-20T21:24:44Z</time>
      </trkpt>
      <trkpt lat="51.63149" lon="3.69971">
        <ele>5.76</ele>
        <time>2021-03-20T21:24:50Z</time>
      </trkpt>
      <trkpt lat="51.63053" lon="3.69749">
        <ele>4.91</ele>
        <time>2021-03-20T21:24:55Z</time>
      </trkpt>
      <trkpt lat="51.62977" lon="3.69587">
        <ele>4.33</ele>
        <time>2021-03-20T21:25:01Z</time>
      </trkpt>
      <trkpt lat="51.62898" lon="3.69433">
        <ele>4.82</ele>
        <time>2021-03-20T21:25:07Z</time>
      </trkpt>
      <trkpt lat="51.62898" lon="3.69433">
        <ele>4.82</ele>
        <time>2021-03-20T21:25:07Z</time>
      </trkpt>
      <trkpt lat="51.62977" lon="3.69587">
        <ele>4.33</ele>
        <time>2021-03-20T21:25:12Z</time>
      </trkpt>
      <trkpt lat="51.63053" lon="3.69749">
        <ele>4.91</ele>
        <time>2021-03-20T21:25:18Z</time>
      </trkpt>
      <trkpt lat="51.63149" lon="3.69971">
        <ele>5.76</ele>
        <time>2021-03-20T21:25:24Z</time>
      </trkpt>
      <trkpt lat="51.63226" lon="3.70165">
        <ele>4.21</ele>
        <time>2021-03-20T21:25:29Z</time>
      </trkpt>
      <trkpt lat="51.63373" lon="3.70561">
        <ele>3.85</ele>
        <time>2021-03-20T21:25:35Z</time>
      </trkpt>
      <trkpt lat="51.63404" lon="3.70626">
        <ele>4.46</ele>
        <time>2021-03-20T21:25:40Z</time>
      </trkpt>
      <trkpt lat="51.63409" lon="3.70645">
        <ele>4.26</ele>
        <time>2021-03-20T21:25:46Z</time>
      </trkpt>
      <trkpt lat="51.6341" lon="3.70666">
        <ele>4.22</ele>
        <time>2021-03-20T21:25:52Z</time>
      </trkpt>
      <trkpt lat="51.63407" lon="3.70689">
        <ele>4.36</ele>
        <time>2021-03-20T21:25:57Z</time>
      </trkpt>
      <trkpt lat="51.634" lon="3.70705">
        <ele>4.61</ele>
        <time>2021-03-20T21:26:03Z</time>
      </trkpt>
      <trkpt lat="51.63337" lon="3.70811">
        <ele>3.87</ele>
        <time>2021-03-20T21:26:09Z</time>
      </trkpt>
      <trkpt lat="51.63304" lon="3.70881">
        <ele>3.21</ele>
        <time>2021-03-20T21:26:14Z</time>
      </trkpt>
      <trkpt lat="51.63296" lon="3.70901">
        <ele>2.36</ele>
        <time>2021-03-20T21:26:20Z</time>
      </trkpt>
      <trkpt lat="51.63443" lon="3.71068">
        <ele>2.95</ele>
        <time>2021-03-20T21:26:26Z</time>
      </trkpt>
      <trkpt lat="51.63455" lon="3.71078">
        <ele>2.69</ele>
        <time>2021-03-20T21:26:32Z</time>
      </trkpt>
      <trkpt lat="51.63466" lon="3.71084">
        <ele>2.2</ele>
        <time>2021-03-20T21:26:38Z</time>
      </trkpt>
      <trkpt lat="51.63471" lon="3.71081">
        <ele>2.12</ele>
        <time>2021-03-20T21:26:44Z</time>
      </trkpt>
      <trkpt lat="51.63586" lon="3.70915">
        <ele>3.11</ele>
        <time>2021-03-20T21:26:50Z</time>
      </trkpt>
      <trkpt lat="51.63519" lon="3.70788">
        <ele>3.68</ele>
        <time>2021-03-20T21:26:58Z</time>
      </trkpt>
      <trkpt lat="51.63459" lon="3.70661">
        <ele>3.63</ele>
        <time>2021-03-20T21:27:05Z</time>
      </trkpt>
      <trkpt lat="51.63415" lon="3.70552">
        <ele>4.18</ele>
        <time>2021-03-20T21:27:13Z</time>
      </trkpt>
      <trkpt lat="51.63388" lon="3.70475">
        <ele>5.87</ele>
        <time>2021-03-20T21:27:21Z</time>
      </trkpt>
      <trkpt lat="51.63383" lon="3.70447">
        <ele>5.78</ele>
        <time>2021-03-20T21:27:29Z</time>
      </trkpt>
      <trkpt lat="51.63382" lon="3.70433">
        <ele>6.16</ele>
        <time>2021-03-20T21:27:37Z</time>
      </trkpt>
      <trkpt lat="51.63385" lon="3.70404">
        <ele>7.31</ele>
        <time>2021-03-20T21:27:44Z</time>
      </trkpt>
      <trkpt lat="51.63393" lon="3.70378">
        <ele>8.41</ele>
        <time>2021-03-20T21:27:52Z</time>
      </trkpt>
      <trkpt lat="51.63405" lon="3.70358">
        <ele>9.12</ele>
        <time>2021-03-20T21:28:00Z</time>
      </trkpt>
      <trkpt lat="51.63417" lon="3.70344">
        <ele>9.63</ele>
        <time>2021-03-20T21:28:08Z</time>
      </trkpt>
      <trkpt lat="51.63427" lon="3.70339">
        <ele>9.87</ele>
        <time>2021-03-20T21:28:16Z</time>
      </trkpt>
      <trkpt lat="51.63436" lon="3.70341">
        <ele>9.91</ele>
        <time>2021-03-20T21:28:23Z</time>
      </trkpt>
      <trkpt lat="51.63453" lon="3.70369">
        <ele>9.82</ele>
        <time>2021-03-20T21:28:31Z</time>
      </trkpt>
      <trkpt lat="51.6356" lon="3.70616">
        <ele>7</ele>
        <time>2021-03-20T21:28:39Z</time>
      </trkpt>
      <trkpt lat="51.6359" lon="3.70679">
        <ele>8</ele>
        <time>2021-03-20T21:28:47Z</time>
      </trkpt>
      <trkpt lat="51.63605" lon="3.70706">
        <ele>8.4</ele>
        <time>2021-03-20T21:28:55Z</time>
      </trkpt>
      <trkpt lat="51.63614" lon="3.70715">
        <ele>8.63</ele>
        <time>2021-03-20T21:29:02Z</time>
      </trkpt>
      <trkpt lat="51.63671" lon="3.70819">
        <ele>7.52</ele>
        <time>2021-03-20T21:29:10Z</time>
      </trkpt>
      <trkpt lat="51.63707" lon="3.7088">
        <ele>8.32</ele>
        <time>2021-03-20T21:29:18Z</time>
      </trkpt>
      <trkpt lat="51.63765" lon="3.70968">
        <ele>8.52</ele>
        <time>2021-03-20T21:29:26Z</time>
      </trkpt>
      <trkpt lat="51.63843" lon="3.71076">
        <ele>9.63</ele>
        <time>2021-03-20T21:29:34Z</time>
      </trkpt>
      <trkpt lat="51.63931" lon="3.71178">
        <ele>9.58</ele>
        <time>2021-03-20T21:29:42Z</time>
      </trkpt>
      <trkpt lat="51.63993" lon="3.71238">
        <ele>8.18</ele>
        <time>2021-03-20T21:29:49Z</time>
      </trkpt>
      <trkpt lat="51.64062" lon="3.71301">
        <ele>8.37</ele>
        <time>2021-03-20T21:29:57Z</time>
      </trkpt>
      <trkpt lat="51.65033" lon="3.72074">
        <ele>8.55</ele>
        <time>2021-03-20T21:30:05Z</time>
      </trkpt>
      <trkpt lat="51.65202" lon="3.72205">
        <ele>9.1</ele>
        <time>2021-03-20T21:30:13Z</time>
      </trkpt>
      <trkpt lat="51.65246" lon="3.72234">
        <ele>9.94</ele>
        <time>2021-03-20T21:30:21Z</time>
      </trkpt>
      <trkpt lat="51.65323" lon="3.72271">
        <ele>10.11</ele>
        <time>2021-03-20T21:30:28Z</time>
      </trkpt>
      <trkpt lat="51.65375" lon="3.7229">
        <ele>11.05</ele>
        <time>2021-03-20T21:30:36Z</time>
      </trkpt>
      <trkpt lat="51.65433" lon="3.72305">
        <ele>10.42</ele>
        <time>2021-03-20T21:30:44Z</time>
      </trkpt>
      <trkpt lat="51.6547" lon="3.72311">
        <ele>10</ele>
        <time>2021-03-20T21:30:52Z</time>
      </trkpt>
      <trkpt lat="51.65542" lon="3.72314">
        <ele>8.27</ele>
        <time>2021-03-20T21:31:00Z</time>
      </trkpt>
      <trkpt lat="51.66579" lon="3.72248">
        <ele>2.86</ele>
        <time>2021-03-20T21:31:07Z</time>
      </trkpt>
      <trkpt lat="51.66671" lon="3.72246">
        <ele>7.63</ele>
        <time>2021-03-20T21:31:15Z</time>
      </trkpt>
      <trkpt lat="51.66734" lon="3.72253">
        <ele>5.53</ele>
        <time>2021-03-20T21:31:23Z</time>
      </trkpt>
      <trkpt lat="51.66781" lon="3.72262">
        <ele>7.04</ele>
        <time>2021-03-20T21:31:31Z</time>
      </trkpt>
      <trkpt lat="51.6682" lon="3.72274">
        <ele>8.41</ele>
        <time>2021-03-20T21:31:39Z</time>
      </trkpt>
      <trkpt lat="51.66905" lon="3.72307">
        <ele>7.47</ele>
        <time>2021-03-20T21:31:46Z</time>
      </trkpt>
      <trkpt lat="51.67171" lon="3.72438">
        <ele>0.84</ele>
        <time>2021-03-20T21:31:54Z</time>
      </trkpt>
      <trkpt lat="51.67362" lon="3.72537">
        <ele>-1</ele>
        <time>2021-03-20T21:32:02Z</time>
      </trkpt>
      <trkpt lat="51.67502" lon="3.72616">
        <ele>-0.07</ele>
        <time>2021-03-20T21:32:10Z</time>
      </trkpt>
      <trkpt lat="51.67559" lon="3.72657">
        <ele>-0.91</ele>
        <time>2021-03-20T21:32:18Z</time>
      </trkpt>
      <trkpt lat="51.67607" lon="3.72693">
        <ele>1</ele>
        <time>2021-03-20T21:32:26Z</time>
      </trkpt>
      <trkpt lat="51.67622" lon="3.72708">
        <ele>1</ele>
        <time>2021-03-20T21:32:33Z</time>
      </trkpt>
      <trkpt lat="51.67668" lon="3.72763">
        <ele>-0.48</ele>
        <time>2021-03-20T21:32:41Z</time>
      </trkpt>
      <trkpt lat="51.67713" lon="3.72828">
        <ele>-1</ele>
        <time>2021-03-20T21:32:49Z</time>
      </trkpt>
      <trkpt lat="51.67717" lon="3.72831">
        <ele>-1</ele>
        <time>2021-03-20T21:32:57Z</time>
      </trkpt>
      <trkpt lat="51.67724" lon="3.72831">
        <ele>-0.95</ele>
        <time>2021-03-20T21:33:05Z</time>
      </trkpt>
      <trkpt lat="51.6773" lon="3.72827">
        <ele>-0.77</ele>
        <time>2021-03-20T21:33:12Z</time>
      </trkpt>
      <trkpt lat="51.67755" lon="3.72789">
        <ele>-1</ele>
        <time>2021-03-20T21:33:20Z</time>
      </trkpt>
      <trkpt lat="51.67848" lon="3.72688">
        <ele>0.24</ele>
        <time>2021-03-20T21:33:28Z</time>
      </trkpt>
      <trkpt lat="51.67872" lon="3.72675">
        <ele>0.71</ele>
        <time>2021-03-20T21:33:36Z</time>
      </trkpt>
      <trkpt lat="51.67963" lon="3.7264">
        <ele>1</ele>
        <time>2021-03-20T21:33:44Z</time>
      </trkpt>
      <trkpt lat="51.68025" lon="3.72624">
        <ele>-1</ele>
        <time>2021-03-20T21:33:51Z</time>
      </trkpt>
      <trkpt lat="51.68055" lon="3.72625">
        <ele>-1</ele>
        <time>2021-03-20T21:33:59Z</time>
      </trkpt>
      <trkpt lat="51.6807" lon="3.72633">
        <ele>-0.47</ele>
        <time>2021-03-20T21:34:07Z</time>
      </trkpt>
      <trkpt lat="51.68087" lon="3.72646">
        <ele>-0.23</ele>
        <time>2021-03-20T21:34:15Z</time>
      </trkpt>
      <trkpt lat="51.68113" lon="3.72672">
        <ele>1</ele>
        <time>2021-03-20T21:34:23Z</time>
      </trkpt>
      <trkpt lat="51.68454" lon="3.73188">
        <ele>-0.2</ele>
        <time>2021-03-20T21:34:30Z</time>
      </trkpt>
      <trkpt lat="51.6827" lon="3.73501">
        <ele>-1.28</ele>
        <time>2021-03-20T21:34:53Z</time>
      </trkpt>
      <trkpt lat="51.68087" lon="3.73825">
        <ele>0.13</ele>
        <time>2021-03-20T21:35:16Z</time>
      </trkpt>
      <trkpt lat="51.68159" lon="3.73957">
        <ele>1</ele>
        <time>2021-03-20T21:35:25Z</time>
      </trkpt>
      <trkpt lat="51.68248" lon="3.74084">
        <ele>-2.07</ele>
        <time>2021-03-20T21:35:33Z</time>
      </trkpt>
      <trkpt lat="51.68292" lon="3.7415">
        <ele>-1.11</ele>
        <time>2021-03-20T21:35:42Z</time>
      </trkpt>
      <trkpt lat="51.68316" lon="3.74192">
        <ele>-1</ele>
        <time>2021-03-20T21:35:51Z</time>
      </trkpt>
      <trkpt lat="51.68441" lon="3.74464">
        <ele>-1</ele>
        <time>2021-03-20T21:36:00Z</time>
      </trkpt>
      <trkpt lat="51.6848" lon="3.7444">
        <ele>-1.11</ele>
        <time>2021-03-20T21:36:04Z</time>
      </trkpt>
      <trkpt lat="51.6854" lon="3.74408">
        <ele>0.55</ele>
        <time>2021-03-20T21:36:07Z</time>
      </trkpt>
      <trkpt lat="51.68558" lon="3.74393">
        <ele>-0.06</ele>
        <time>2021-03-20T21:36:11Z</time>
      </trkpt>
      <trkpt lat="51.68579" lon="3.74368">
        <ele>-0.86</ele>
        <time>2021-03-20T21:36:15Z</time>
      </trkpt>
      <trkpt lat="51.68645" lon="3.74257">
        <ele>1.47</ele>
        <time>2021-03-20T21:36:18Z</time>
      </trkpt>
      <trkpt lat="51.68663" lon="3.74219">
        <ele>0.88</ele>
        <time>2021-03-20T21:36:22Z</time>
      </trkpt>
      <trkpt lat="51.68678" lon="3.7416">
        <ele>-0.04</ele>
        <time>2021-03-20T21:36:26Z</time>
      </trkpt>
      <trkpt lat="51.68694" lon="3.7405">
        <ele>0.79</ele>
        <time>2021-03-20T21:36:29Z</time>
      </trkpt>
      <trkpt lat="51.68702" lon="3.74026">
        <ele>0.25</ele>
        <time>2021-03-20T21:36:33Z</time>
      </trkpt>
      <trkpt lat="51.6877" lon="3.73879">
        <ele>0.64</ele>
        <time>2021-03-20T21:36:36Z</time>
      </trkpt>
      <trkpt lat="51.68792" lon="3.73842">
        <ele>0.5</ele>
        <time>2021-03-20T21:36:40Z</time>
      </trkpt>
      <trkpt lat="51.688" lon="3.73833">
        <ele>0.8</ele>
        <time>2021-03-20T21:36:44Z</time>
      </trkpt>
      <trkpt lat="51.68807" lon="3.73835">
        <ele>1</ele>
        <time>2021-03-20T21:36:47Z</time>
      </trkpt>
      <trkpt lat="51.68878" lon="3.74016">
        <ele>1.77</ele>
        <time>2021-03-20T21:36:51Z</time>
      </trkpt>
      <trkpt lat="51.68911" lon="3.74085">
        <ele>-0.67</ele>
        <time>2021-03-20T21:36:54Z</time>
      </trkpt>
      <trkpt lat="51.68933" lon="3.74137">
        <ele>-2</ele>
        <time>2021-03-20T21:36:58Z</time>
      </trkpt>
      <trkpt lat="51.6896" lon="3.74193">
        <ele>-1.47</ele>
        <time>2021-03-20T21:37:02Z</time>
      </trkpt>
      <trkpt lat="51.69049" lon="3.74392">
        <ele>-2</ele>
        <time>2021-03-20T21:37:05Z</time>
      </trkpt>
      <trkpt lat="51.69081" lon="3.7447">
        <ele>-2</ele>
        <time>2021-03-20T21:37:09Z</time>
      </trkpt>
      <trkpt lat="51.69101" lon="3.74512">
        <ele>-2</ele>
        <time>2021-03-20T21:37:12Z</time>
      </trkpt>
      <trkpt lat="51.69119" lon="3.74568">
        <ele>-1</ele>
        <time>2021-03-20T21:37:16Z</time>
      </trkpt>
      <trkpt lat="51.6913" lon="3.74625">
        <ele>-1</ele>
        <time>2021-03-20T21:37:20Z</time>
      </trkpt>
      <trkpt lat="51.69141" lon="3.74697">
        <ele>-1</ele>
        <time>2021-03-20T21:37:23Z</time>
      </trkpt>
      <trkpt lat="51.69165" lon="3.74778">
        <ele>-1</ele>
        <time>2021-03-20T21:37:27Z</time>
      </trkpt>
      <trkpt lat="51.69168" lon="3.74798">
        <ele>-1</ele>
        <time>2021-03-20T21:37:30Z</time>
      </trkpt>
      <trkpt lat="51.69168" lon="3.74819">
        <ele>-1.45</ele>
        <time>2021-03-20T21:37:34Z</time>
      </trkpt>
      <trkpt lat="51.69164" lon="3.74834">
        <ele>-2</ele>
        <time>2021-03-20T21:37:38Z</time>
      </trkpt>
      <trkpt lat="51.69157" lon="3.74848">
        <ele>-2</ele>
        <time>2021-03-20T21:37:41Z</time>
      </trkpt>
      <trkpt lat="51.69158" lon="3.74863">
        <ele>-2</ele>
        <time>2021-03-20T21:37:45Z</time>
      </trkpt>
      <trkpt lat="51.69164" lon="3.74881">
        <ele>-2</ele>
        <time>2021-03-20T21:37:49Z</time>
      </trkpt>
      <trkpt lat="51.69171" lon="3.74897">
        <ele>-2</ele>
        <time>2021-03-20T21:37:52Z</time>
      </trkpt>
      <trkpt lat="51.69204" lon="3.74864">
        <ele>-1.06</ele>
        <time>2021-03-20T21:37:57Z</time>
      </trkpt>
      <trkpt lat="51.6921" lon="3.74874">
        <ele>-1.2</ele>
        <time>2021-03-20T21:38:01Z</time>
      </trkpt>
      <trkpt lat="51.69218" lon="3.74877">
        <ele>-1.1</ele>
        <time>2021-03-20T21:38:06Z</time>
      </trkpt>
      <trkpt lat="51.69227" lon="3.74874">
        <ele>-0.92</ele>
        <time>2021-03-20T21:38:10Z</time>
      </trkpt>
      <trkpt lat="51.69256" lon="3.74899">
        <ele>1</ele>
        <time>2021-03-20T21:38:15Z</time>
      </trkpt>
      <trkpt lat="51.69312" lon="3.74971">
        <ele>-1</ele>
        <time>2021-03-20T21:38:19Z</time>
      </trkpt>
      <trkpt lat="51.69349" lon="3.7501">
        <ele>-1.45</ele>
        <time>2021-03-20T21:38:24Z</time>
      </trkpt>
      <trkpt lat="51.69393" lon="3.75048">
        <ele>-1.73</ele>
        <time>2021-03-20T21:38:28Z</time>
      </trkpt>
      <trkpt lat="51.6943" lon="3.75074">
        <ele>-1.52</ele>
        <time>2021-03-20T21:38:33Z</time>
      </trkpt>
      <trkpt lat="51.69477" lon="3.75099">
        <ele>-0.57</ele>
        <time>2021-03-20T21:38:37Z</time>
      </trkpt>
      <trkpt lat="51.69554" lon="3.75131">
        <ele>-1</ele>
        <time>2021-03-20T21:38:42Z</time>
      </trkpt>
      <trkpt lat="51.69615" lon="3.75159">
        <ele>-1.71</ele>
        <time>2021-03-20T21:38:46Z</time>
      </trkpt>
      <trkpt lat="51.69699" lon="3.75211">
        <ele>-2.51</ele>
        <time>2021-03-20T21:38:51Z</time>
      </trkpt>
      <trkpt lat="51.6974" lon="3.75233">
        <ele>-3</ele>
        <time>2021-03-20T21:38:55Z</time>
      </trkpt>
      <trkpt lat="51.69763" lon="3.75254">
        <ele>-2.47</ele>
        <time>2021-03-20T21:39:00Z</time>
      </trkpt>
      <trkpt lat="51.69763" lon="3.75263">
        <ele>-2.3</ele>
        <time>2021-03-20T21:39:02Z</time>
      </trkpt>
      <trkpt lat="51.69765" lon="3.75271">
        <ele>-2.12</ele>
        <time>2021-03-20T21:39:04Z</time>
      </trkpt>
      <trkpt lat="51.69768" lon="3.75278">
        <ele>-2</ele>
        <time>2021-03-20T21:39:06Z</time>
      </trkpt>
      <trkpt lat="51.69773" lon="3.75283">
        <ele>-2</ele>
        <time>2021-03-20T21:39:09Z</time>
      </trkpt>
      <trkpt lat="51.69778" lon="3.75285">
        <ele>-2</ele>
        <time>2021-03-20T21:39:11Z</time>
      </trkpt>
      <trkpt lat="51.69784" lon="3.75284">
        <ele>-2</ele>
        <time>2021-03-20T21:39:13Z</time>
      </trkpt>
      <trkpt lat="51.69791" lon="3.75276">
        <ele>-1.96</ele>
        <time>2021-03-20T21:39:15Z</time>
      </trkpt>
      <trkpt lat="51.69795" lon="3.75263">
        <ele>-1.67</ele>
        <time>2021-03-20T21:39:18Z</time>
      </trkpt>
      <trkpt lat="51.69796" lon="3.75257">
        <ele>-1.51</ele>
        <time>2021-03-20T21:39:20Z</time>
      </trkpt>
      <trkpt lat="51.69816" lon="3.75244">
        <ele>-1</ele>
        <time>2021-03-20T21:39:22Z</time>
      </trkpt>
      <trkpt lat="51.69823" lon="3.75235">
        <ele>-1</ele>
        <time>2021-03-20T21:39:24Z</time>
      </trkpt>
      <trkpt lat="51.69844" lon="3.75221">
        <ele>-0.58</ele>
        <time>2021-03-20T21:39:27Z</time>
      </trkpt>
      <trkpt lat="51.69878" lon="3.75183">
        <time>2021-03-20T21:39:29Z</time>
      </trkpt>
      <trkpt lat="51.69907" lon="3.75142">
        <ele>-0.32</ele>
        <time>2021-03-20T21:39:31Z</time>
      </trkpt>
      <trkpt lat="51.6992" lon="3.75099">
        <ele>-0.06</ele>
        <time>2021-03-20T21:39:33Z</time>
      </trkpt>
      <trkpt lat="51.69932" lon="3.7505">
        <ele>-0.11</ele>
        <time>2021-03-20T21:39:35Z</time>
      </trkpt>
      <trkpt lat="51.69947" lon="3.74975">
        <ele>-1.81</ele>
        <time>2021-03-20T21:39:38Z</time>
      </trkpt>
      <trkpt lat="51.69962" lon="3.74918">
        <ele>-1.37</ele>
        <time>2021-03-20T21:39:40Z</time>
      </trkpt>
      <trkpt lat="51.69991" lon="3.74839">
        <ele>-0.65</ele>
        <time>2021-03-20T21:39:42Z</time>
      </trkpt>
      <trkpt lat="51.7" lon="3.74838">
        <ele>-0.01</ele>
        <time>2021-03-20T21:39:56Z</time>
      </trkpt>
      <trkpt lat="51.70006" lon="3.7483">
        <ele>0.23</ele>
        <time>2021-03-20T21:40:09Z</time>
      </trkpt>
      <trkpt lat="51.70095" lon="3.74947">
        <time>2021-03-20T21:40:23Z</time>
      </trkpt>
      <trkpt lat="51.70167" lon="3.75062">
        <ele>-1</ele>
        <time>2021-03-20T21:40:37Z</time>
      </trkpt>
      <trkpt lat="51.70242" lon="3.75198">
        <ele>-1.89</ele>
        <time>2021-03-20T21:40:50Z</time>
      </trkpt>
      <trkpt lat="51.70272" lon="3.75257">
        <ele>-1</ele>
        <time>2021-03-20T21:41:04Z</time>
      </trkpt>
      <trkpt lat="51.70328" lon="3.75384">
        <ele>-1.98</ele>
        <time>2021-03-20T21:41:18Z</time>
      </trkpt>
      <trkpt lat="51.70503" lon="3.75801">
        <ele>-2</ele>
        <time>2021-03-20T21:41:31Z</time>
      </trkpt>
      <trkpt lat="51.70904" lon="3.76705">
        <ele>-3</ele>
        <time>2021-03-20T21:41:45Z</time>
      </trkpt>
      <trkpt lat="51.70976" lon="3.76849">
        <ele>-1</ele>
        <time>2021-03-20T21:41:59Z</time>
      </trkpt>
      <trkpt lat="51.71412" lon="3.77639">
        <ele>-3.18</ele>
        <time>2021-03-20T21:42:12Z</time>
      </trkpt>
      <trkpt lat="51.71409" lon="3.77649">
        <ele>-2.91</ele>
        <time>2021-03-20T21:42:15Z</time>
      </trkpt>
      <trkpt lat="51.71413" lon="3.77665">
        <ele>-2.18</ele>
        <time>2021-03-20T21:42:18Z</time>
      </trkpt>
      <trkpt lat="51.71419" lon="3.77673">
        <ele>-2</ele>
        <time>2021-03-20T21:42:21Z</time>
      </trkpt>
      <trkpt lat="51.71428" lon="3.77674">
        <ele>-2</ele>
        <time>2021-03-20T21:42:24Z</time>
      </trkpt>
      <trkpt lat="51.7143" lon="3.77671">
        <ele>-2</ele>
        <time>2021-03-20T21:42:27Z</time>
      </trkpt>
      <trkpt lat="51.71486" lon="3.77774">
        <ele>-1.52</ele>
        <time>2021-03-20T21:42:29Z</time>
      </trkpt>
      <trkpt lat="51.71513" lon="3.77821">
        <ele>-1</ele>
        <time>2021-03-20T21:42:32Z</time>
      </trkpt>
      <trkpt lat="51.71529" lon="3.77844">
        <ele>-1</ele>
        <time>2021-03-20T21:42:35Z</time>
      </trkpt>
      <trkpt lat="51.7155" lon="3.77869">
        <ele>-0.94</ele>
        <time>2021-03-20T21:42:38Z</time>
      </trkpt>
      <trkpt lat="51.71594" lon="3.77901">
        <ele>-1</ele>
        <time>2021-03-20T21:42:41Z</time>
      </trkpt>
      <trkpt lat="51.71616" lon="3.77913">
        <ele>-1.17</ele>
        <time>2021-03-20T21:42:44Z</time>
      </trkpt>
      <trkpt lat="51.7164" lon="3.77921">
        <ele>-2</ele>
        <time>2021-03-20T21:42:46Z</time>
      </trkpt>
      <trkpt lat="51.71672" lon="3.77924">
        <ele>-1.95</ele>
        <time>2021-03-20T21:42:49Z</time>
      </trkpt>
      <trkpt lat="51.71702" lon="3.77923">
        <ele>-1.77</ele>
        <time>2021-03-20T21:42:52Z</time>
      </trkpt>
      <trkpt lat="51.71722" lon="3.77918">
        <ele>-1.95</ele>
        <time>2021-03-20T21:42:55Z</time>
      </trkpt>
      <trkpt lat="51.71747" lon="3.77908">
        <ele>-2</ele>
        <time>2021-03-20T21:42:58Z</time>
      </trkpt>
      <trkpt lat="51.72099" lon="3.77705">
        <ele>-0.57</ele>
        <time>2021-03-20T21:43:01Z</time>
      </trkpt>
      <trkpt lat="51.72134" lon="3.77695">
        <ele>-1.83</ele>
        <time>2021-03-20T21:43:03Z</time>
      </trkpt>
      <trkpt lat="51.72173" lon="3.77692">
        <ele>-1</ele>
        <time>2021-03-20T21:43:06Z</time>
      </trkpt>
      <trkpt lat="51.72218" lon="3.777">
        <ele>-0.12</ele>
        <time>2021-03-20T21:43:09Z</time>
      </trkpt>
      <trkpt lat="51.72249" lon="3.77715">
        <ele>0.24</ele>
        <time>2021-03-20T21:43:12Z</time>
      </trkpt>
      <trkpt lat="51.72275" lon="3.77737">
        <ele>1</ele>
        <time>2021-03-20T21:43:15Z</time>
      </trkpt>
      <trkpt lat="51.72302" lon="3.77764">
        <ele>0.81</ele>
        <time>2021-03-20T21:43:17Z</time>
      </trkpt>
      <trkpt lat="51.72317" lon="3.77784">
        <ele>1</ele>
        <time>2021-03-20T21:43:20Z</time>
      </trkpt>
      <trkpt lat="51.72333" lon="3.77809">
        <ele>0.88</ele>
        <time>2021-03-20T21:43:23Z</time>
      </trkpt>
      <trkpt lat="51.72426" lon="3.7798">
        <ele>-0.93</ele>
        <time>2021-03-20T21:43:26Z</time>
      </trkpt>
      <trkpt lat="51.72448" lon="3.78009">
        <ele>-0.87</ele>
        <time>2021-03-20T21:43:29Z</time>
      </trkpt>
      <trkpt lat="51.7247" lon="3.78031">
        <ele>-0.19</ele>
        <time>2021-03-20T21:43:32Z</time>
      </trkpt>
      <trkpt lat="51.72496" lon="3.78045">
        <ele>-0.95</ele>
        <time>2021-03-20T21:43:34Z</time>
      </trkpt>
      <trkpt lat="51.7252" lon="3.78054">
        <ele>-1</ele>
        <time>2021-03-20T21:43:37Z</time>
      </trkpt>
      <trkpt lat="51.7252" lon="3.78063">
        <ele>-1</ele>
        <time>2021-03-20T21:43:41Z</time>
      </trkpt>
      <trkpt lat="51.72522" lon="3.78071">
        <ele>-1</ele>
        <time>2021-03-20T21:43:44Z</time>
      </trkpt>
      <trkpt lat="51.72525" lon="3.78078">
        <ele>-1</ele>
        <time>2021-03-20T21:43:48Z</time>
      </trkpt>
      <trkpt lat="51.7253" lon="3.78082">
        <ele>-1</ele>
        <time>2021-03-20T21:43:52Z</time>
      </trkpt>
      <trkpt lat="51.72536" lon="3.78082">
        <ele>-1</ele>
        <time>2021-03-20T21:43:55Z</time>
      </trkpt>
      <trkpt lat="51.72541" lon="3.78079">
        <ele>-1</ele>
        <time>2021-03-20T21:43:59Z</time>
      </trkpt>
      <trkpt lat="51.72584" lon="3.78189">
        <ele>-1.96</ele>
        <time>2021-03-20T21:44:02Z</time>
      </trkpt>
      <trkpt lat="51.72797" lon="3.78574">
        <ele>-2.32</ele>
        <time>2021-03-20T21:44:06Z</time>
      </trkpt>
      <trkpt lat="51.72793" lon="3.78581">
        <ele>-2.44</ele>
        <time>2021-03-20T21:44:10Z</time>
      </trkpt>
      <trkpt lat="51.72792" lon="3.78589">
        <ele>-2.31</ele>
        <time>2021-03-20T21:44:15Z</time>
      </trkpt>
      <trkpt lat="51.72792" lon="3.78597">
        <ele>-2.01</ele>
        <time>2021-03-20T21:44:20Z</time>
      </trkpt>
      <trkpt lat="51.72794" lon="3.78604">
        <ele>-1.66</ele>
        <time>2021-03-20T21:44:24Z</time>
      </trkpt>
      <trkpt lat="51.72797" lon="3.78609">
        <ele>-1.39</ele>
        <time>2021-03-20T21:44:29Z</time>
      </trkpt>
      <trkpt lat="51.72804" lon="3.78614">
        <ele>-1.05</ele>
        <time>2021-03-20T21:44:33Z</time>
      </trkpt>
      <trkpt lat="51.72812" lon="3.78612">
        <ele>-1.23</ele>
        <time>2021-03-20T21:44:38Z</time>
      </trkpt>
      <trkpt lat="51.72923" lon="3.78954">
        <ele>-2.21</ele>
        <time>2021-03-20T21:44:43Z</time>
      </trkpt>
      <trkpt lat="51.72949" lon="3.7907">
        <ele>-3</ele>
        <time>2021-03-20T21:44:47Z</time>
      </trkpt>
      <trkpt lat="51.72961" lon="3.79144">
        <ele>-1.92</ele>
        <time>2021-03-20T21:44:52Z</time>
      </trkpt>
      <trkpt lat="51.72968" lon="3.79214">
        <ele>-1.85</ele>
        <time>2021-03-20T21:44:56Z</time>
      </trkpt>
      <trkpt lat="51.72978" lon="3.79401">
        <ele>-2</ele>
        <time>2021-03-20T21:45:01Z</time>
      </trkpt>
      <trkpt lat="51.72988" lon="3.79521">
        <ele>-2.55</ele>
        <time>2021-03-20T21:45:06Z</time>
      </trkpt>
      <trkpt lat="51.73003" lon="3.79636">
        <ele>-1</ele>
        <time>2021-03-20T21:45:10Z</time>
      </trkpt>
      <trkpt lat="51.7303" lon="3.79744">
        <ele>-1</ele>
        <time>2021-03-20T21:45:15Z</time>
      </trkpt>
      <trkpt lat="51.7306" lon="3.79834">
        <ele>-1</ele>
        <time>2021-03-20T21:45:19Z</time>
      </trkpt>
      <trkpt lat="51.73235" lon="3.80262">
        <ele>-1.3</ele>
        <time>2021-03-20T21:45:24Z</time>
      </trkpt>
      <trkpt lat="51.73232" lon="3.80267">
        <ele>-1.26</ele>
        <time>2021-03-20T21:45:30Z</time>
      </trkpt>
      <trkpt lat="51.73232" lon="3.80276">
        <ele>-1.04</ele>
        <time>2021-03-20T21:45:35Z</time>
      </trkpt>
      <trkpt lat="51.73235" lon="3.80291">
        <ele>-1</ele>
        <time>2021-03-20T21:45:41Z</time>
      </trkpt>
      <trkpt lat="51.7324" lon="3.80299">
        <ele>-1</ele>
        <time>2021-03-20T21:45:46Z</time>
      </trkpt>
      <trkpt lat="51.73246" lon="3.80304">
        <ele>-1</ele>
        <time>2021-03-20T21:45:52Z</time>
      </trkpt>
      <trkpt lat="51.73252" lon="3.80303">
        <ele>-1.07</ele>
        <time>2021-03-20T21:45:58Z</time>
      </trkpt>
      <trkpt lat="51.73351" lon="3.80546">
        <ele>-1.42</ele>
        <time>2021-03-20T21:46:03Z</time>
      </trkpt>
      <trkpt lat="51.73376" lon="3.80611">
        <ele>-1.53</ele>
        <time>2021-03-20T21:46:09Z</time>
      </trkpt>
      <trkpt lat="51.73396" lon="3.80676">
        <ele>-2</ele>
        <time>2021-03-20T21:46:15Z</time>
      </trkpt>
      <trkpt lat="51.73411" lon="3.80736">
        <ele>-1</ele>
        <time>2021-03-20T21:46:20Z</time>
      </trkpt>
      <trkpt lat="51.73429" lon="3.80821">
        <ele>-0.7</ele>
        <time>2021-03-20T21:46:26Z</time>
      </trkpt>
      <trkpt lat="51.73442" lon="3.8091">
        <ele>-0.9</ele>
        <time>2021-03-20T21:46:31Z</time>
      </trkpt>
      <trkpt lat="51.73449" lon="3.80987">
        <ele>-0.85</ele>
        <time>2021-03-20T21:46:37Z</time>
      </trkpt>
      <trkpt lat="51.73453" lon="3.81095">
        <ele>-1</ele>
        <time>2021-03-20T21:46:43Z</time>
      </trkpt>
      <trkpt lat="51.73424" lon="3.82196">
        <ele>1.19</ele>
        <time>2021-03-20T21:46:48Z</time>
      </trkpt>
      <trkpt lat="51.73415" lon="3.822">
        <ele>0.74</ele>
        <time>2021-03-20T21:46:52Z</time>
      </trkpt>
      <trkpt lat="51.73411" lon="3.82208">
        <ele>0.42</ele>
        <time>2021-03-20T21:46:55Z</time>
      </trkpt>
      <trkpt lat="51.73409" lon="3.82219">
        <ele>0.09</ele>
        <time>2021-03-20T21:46:58Z</time>
      </trkpt>
      <trkpt lat="51.73413" lon="3.82248">
        <ele>1</ele>
        <time>2021-03-20T21:47:02Z</time>
      </trkpt>
      <trkpt lat="51.73407" lon="3.82278">
        <ele>1.11</ele>
        <time>2021-03-20T21:47:05Z</time>
      </trkpt>
      <trkpt lat="51.73409" lon="3.82286">
        <ele>0.21</ele>
        <time>2021-03-20T21:47:08Z</time>
      </trkpt>
      <trkpt lat="51.73414" lon="3.82296">
        <ele>0.57</ele>
        <time>2021-03-20T21:47:11Z</time>
      </trkpt>
      <trkpt lat="51.73421" lon="3.82301">
        <ele>0.87</ele>
        <time>2021-03-20T21:47:15Z</time>
      </trkpt>
      <trkpt lat="51.73413" lon="3.8242">
        <ele>2.12</ele>
        <time>2021-03-20T21:47:18Z</time>
      </trkpt>
      <trkpt lat="51.73399" lon="3.82836">
        <ele>-1.37</ele>
        <time>2021-03-20T21:47:21Z</time>
      </trkpt>
      <trkpt lat="51.73428" lon="3.82838">
        <ele>-1.6</ele>
        <time>2021-03-20T21:47:28Z</time>
      </trkpt>
      <trkpt lat="51.7346" lon="3.82832">
        <ele>-0.37</ele>
        <time>2021-03-20T21:47:35Z</time>
      </trkpt>
      <trkpt lat="51.73473" lon="3.82831">
        <ele>0.07</ele>
        <time>2021-03-20T21:47:42Z</time>
      </trkpt>
      <trkpt lat="51.73502" lon="3.82821">
        <ele>0.45</ele>
        <time>2021-03-20T21:47:49Z</time>
      </trkpt>
      <trkpt lat="51.73532" lon="3.828">
        <ele>1</ele>
        <time>2021-03-20T21:47:56Z</time>
      </trkpt>
      <trkpt lat="51.73635" lon="3.82712">
        <ele>-1.38</ele>
        <time>2021-03-20T21:48:03Z</time>
      </trkpt>
      <trkpt lat="51.73711" lon="3.82642">
        <ele>1.06</ele>
        <time>2021-03-20T21:48:10Z</time>
      </trkpt>
      <trkpt lat="51.73798" lon="3.82568">
        <ele>4.87</ele>
        <time>2021-03-20T21:48:16Z</time>
      </trkpt>
      <trkpt lat="51.73829" lon="3.82548">
        <ele>5</ele>
        <time>2021-03-20T21:48:23Z</time>
      </trkpt>
      <trkpt lat="51.73866" lon="3.82537">
        <ele>4.74</ele>
        <time>2021-03-20T21:48:30Z</time>
      </trkpt>
      <trkpt lat="51.7388" lon="3.82535">
        <ele>3.98</ele>
        <time>2021-03-20T21:48:37Z</time>
      </trkpt>
      <trkpt lat="51.73933" lon="3.8254">
        <ele>3.31</ele>
        <time>2021-03-20T21:48:44Z</time>
      </trkpt>
      <trkpt lat="51.74714" lon="3.82661">
        <ele>4.67</ele>
        <time>2021-03-20T21:48:51Z</time>
      </trkpt>
      <trkpt lat="51.74787" lon="3.82676">
        <ele>1.33</ele>
        <time>2021-03-20T21:48:58Z</time>
      </trkpt>
      <trkpt lat="51.74862" lon="3.82697">
        <ele>0.8</ele>
        <time>2021-03-20T21:49:05Z</time>
      </trkpt>
      <trkpt lat="51.74916" lon="3.82717">
        <ele>-0.66</ele>
        <time>2021-03-20T21:49:12Z</time>
      </trkpt>
      <trkpt lat="51.74978" lon="3.82748">
        <ele>5.21</ele>
        <time>2021-03-20T21:49:19Z</time>
      </trkpt>
      <trkpt lat="51.75047" lon="3.82792">
        <ele>5.5</ele>
        <time>2021-03-20T21:49:25Z</time>
      </trkpt>
      <trkpt lat="51.75113" lon="3.82841">
        <ele>5.82</ele>
        <time>2021-03-20T21:49:32Z</time>
      </trkpt>
      <trkpt lat="51.75143" lon="3.82866">
        <ele>5.68</ele>
        <time>2021-03-20T21:49:39Z</time>
      </trkpt>
      <trkpt lat="51.75214" lon="3.82937">
        <ele>3.93</ele>
        <time>2021-03-20T21:49:46Z</time>
      </trkpt>
      <trkpt lat="51.75251" lon="3.82979">
        <ele>4.78</ele>
        <time>2021-03-20T21:49:53Z</time>
      </trkpt>
      <trkpt lat="51.75286" lon="3.83022">
        <ele>5.28</ele>
        <time>2021-03-20T21:50:00Z</time>
      </trkpt>
      <trkpt lat="51.75335" lon="3.83091">
        <ele>4.78</ele>
        <time>2021-03-20T21:50:07Z</time>
      </trkpt>
      <trkpt lat="51.75389" lon="3.83179">
        <ele>4</ele>
        <time>2021-03-20T21:50:14Z</time>
      </trkpt>
      <trkpt lat="51.75434" lon="3.83263">
        <ele>3.16</ele>
        <time>2021-03-20T21:50:21Z</time>
      </trkpt>
      <trkpt lat="51.75449" lon="3.83295">
        <ele>3.33</ele>
        <time>2021-03-20T21:50:28Z</time>
      </trkpt>
      <trkpt lat="51.75482" lon="3.83368">
        <ele>5.87</ele>
        <time>2021-03-20T21:50:34Z</time>
      </trkpt>
      <trkpt lat="51.75522" lon="3.83472">
        <ele>7</ele>
        <time>2021-03-20T21:50:41Z</time>
      </trkpt>
      <trkpt lat="51.75571" lon="3.83628">
        <ele>5.56</ele>
        <time>2021-03-20T21:50:48Z</time>
      </trkpt>
      <trkpt lat="51.756" lon="3.83738">
        <ele>4.6</ele>
        <time>2021-03-20T21:50:55Z</time>
      </trkpt>
      <trkpt lat="51.75795" lon="3.84504">
        <ele>3.44</ele>
        <time>2021-03-20T21:51:02Z</time>
      </trkpt>
      <trkpt lat="51.75808" lon="3.84574">
        <ele>3.17</ele>
        <time>2021-03-20T21:51:09Z</time>
      </trkpt>
      <trkpt lat="51.75812" lon="3.84639">
        <ele>2.23</ele>
        <time>2021-03-20T21:51:16Z</time>
      </trkpt>
      <trkpt lat="51.75809" lon="3.847">
        <ele>3.21</ele>
        <time>2021-03-20T21:51:23Z</time>
      </trkpt>
      <trkpt lat="51.758" lon="3.84768">
        <ele>3.61</ele>
        <time>2021-03-20T21:51:30Z</time>
      </trkpt>
      <trkpt lat="51.75784" lon="3.84828">
        <ele>2.42</ele>
        <time>2021-03-20T21:51:37Z</time>
      </trkpt>
      <trkpt lat="51.75713" lon="3.85052">
        <ele>0.54</ele>
        <time>2021-03-20T21:51:43Z</time>
      </trkpt>
      <trkpt lat="51.75676" lon="3.85197">
        <ele>1.09</ele>
        <time>2021-03-20T21:51:50Z</time>
      </trkpt>
      <trkpt lat="51.75672" lon="3.85246">
        <ele>2</ele>
        <time>2021-03-20T21:51:57Z</time>
      </trkpt>
      <trkpt lat="51.75677" lon="3.85289">
        <ele>2.63</ele>
        <time>2021-03-20T21:52:04Z</time>
      </trkpt>
      <trkpt lat="51.75687" lon="3.85324">
        <ele>2.75</ele>
        <time>2021-03-20T21:52:11Z</time>
      </trkpt>
      <trkpt lat="51.75698" lon="3.85347">
        <ele>3.12</ele>
        <time>2021-03-20T21:52:18Z</time>
      </trkpt>
      <trkpt lat="51.75723" lon="3.85382">
        <ele>4.71</ele>
        <time>2021-03-20T21:52:25Z</time>
      </trkpt>
      <trkpt lat="51.75733" lon="3.85365">
        <ele>4.08</ele>
        <time>2021-03-20T21:52:28Z</time>
      </trkpt>
      <trkpt lat="51.75748" lon="3.85331">
        <ele>3.99</ele>
        <time>2021-03-20T21:52:32Z</time>
      </trkpt>
      <trkpt lat="51.75788" lon="3.8525">
        <ele>4.62</ele>
        <time>2021-03-20T21:52:36Z</time>
      </trkpt>
      <trkpt lat="51.75821" lon="3.8518">
        <ele>3</ele>
        <time>2021-03-20T21:52:39Z</time>
      </trkpt>
      <trkpt lat="51.75842" lon="3.85159">
        <ele>3.23</ele>
        <time>2021-03-20T21:52:43Z</time>
      </trkpt>
      <trkpt lat="51.75869" lon="3.85146">
        <ele>3.18</ele>
        <time>2021-03-20T21:52:47Z</time>
      </trkpt>
      <trkpt lat="51.75881" lon="3.85145">
        <ele>3.06</ele>
        <time>2021-03-20T21:52:50Z</time>
      </trkpt>
      <trkpt lat="51.75905" lon="3.85151">
        <ele>3</ele>
        <time>2021-03-20T21:52:54Z</time>
      </trkpt>
      <trkpt lat="51.75916" lon="3.85156">
        <ele>3</ele>
        <time>2021-03-20T21:52:58Z</time>
      </trkpt>
      <trkpt lat="51.75939" lon="3.85179">
        <ele>3</ele>
        <time>2021-03-20T21:53:01Z</time>
      </trkpt>
      <trkpt lat="51.75959" lon="3.85215">
        <ele>3</ele>
        <time>2021-03-20T21:53:05Z</time>
      </trkpt>
      <trkpt lat="51.76077" lon="3.85484">
        <ele>2.86</ele>
        <time>2021-03-20T21:53:08Z</time>
      </trkpt>
      <trkpt lat="51.76059" lon="3.85508">
        <ele>3</ele>
        <time>2021-03-20T21:53:15Z</time>
      </trkpt>
      <trkpt lat="51.76054" lon="3.85521">
        <ele>3</ele>
        <time>2021-03-20T21:53:22Z</time>
      </trkpt>
      <trkpt lat="51.76053" lon="3.85535">
        <ele>3.02</ele>
        <time>2021-03-20T21:53:28Z</time>
      </trkpt>
      <trkpt lat="51.76056" lon="3.85554">
        <ele>3</ele>
        <time>2021-03-20T21:53:35Z</time>
      </trkpt>
      <trkpt lat="51.76067" lon="3.85573">
        <ele>3</ele>
        <time>2021-03-20T21:53:42Z</time>
      </trkpt>
      <trkpt lat="51.76203" lon="3.8566">
        <ele>2.08</ele>
        <time>2021-03-20T21:53:48Z</time>
      </trkpt>
      <trkpt lat="51.76321" lon="3.8574">
        <ele>3.71</ele>
        <time>2021-03-20T21:53:55Z</time>
      </trkpt>
      <trkpt lat="51.76465" lon="3.85846">
        <ele>4.44</ele>
        <time>2021-03-20T21:54:02Z</time>
      </trkpt>
      <trkpt lat="51.7666" lon="3.85976">
        <ele>5.15</ele>
        <time>2021-03-20T21:54:08Z</time>
      </trkpt>
      <trkpt lat="51.77569" lon="3.86542">
        <ele>3.96</ele>
        <time>2021-03-20T21:54:15Z</time>
      </trkpt>
      <trkpt lat="51.78299" lon="3.87001">
        <ele>3.75</ele>
        <time>2021-03-20T21:54:22Z</time>
      </trkpt>
      <trkpt lat="51.78432" lon="3.87092">
        <ele>5.68</ele>
        <time>2021-03-20T21:54:28Z</time>
      </trkpt>
      <trkpt lat="51.78454" lon="3.87109">
        <ele>5.06</ele>
        <time>2021-03-20T21:54:35Z</time>
      </trkpt>
      <trkpt lat="51.78476" lon="3.8713">
        <ele>5.24</ele>
        <time>2021-03-20T21:54:42Z</time>
      </trkpt>
      <trkpt lat="51.78499" lon="3.87163">
        <ele>6.08</ele>
        <time>2021-03-20T21:54:48Z</time>
      </trkpt>
      <trkpt lat="51.78521" lon="3.87215">
        <ele>6.74</ele>
        <time>2021-03-20T21:54:55Z</time>
      </trkpt>
      <trkpt lat="51.78529" lon="3.87252">
        <ele>6.92</ele>
        <time>2021-03-20T21:55:02Z</time>
      </trkpt>
      <trkpt lat="51.78533" lon="3.87291">
        <ele>6</ele>
        <time>2021-03-20T21:55:09Z</time>
      </trkpt>
      <trkpt lat="51.78533" lon="3.87327">
        <ele>5.36</ele>
        <time>2021-03-20T21:55:15Z</time>
      </trkpt>
      <trkpt lat="51.7853" lon="3.87362">
        <ele>5.04</ele>
        <time>2021-03-20T21:55:22Z</time>
      </trkpt>
      <trkpt lat="51.78517" lon="3.87422">
        <ele>4.4</ele>
        <time>2021-03-20T21:55:29Z</time>
      </trkpt>
      <trkpt lat="51.78395" lon="3.87857">
        <ele>4</ele>
        <time>2021-03-20T21:55:35Z</time>
      </trkpt>
      <trkpt lat="51.78388" lon="3.87897">
        <ele>4</ele>
        <time>2021-03-20T21:55:42Z</time>
      </trkpt>
      <trkpt lat="51.78385" lon="3.87945">
        <ele>3.85</ele>
        <time>2021-03-20T21:55:49Z</time>
      </trkpt>
      <trkpt lat="51.78387" lon="3.87987">
        <ele>3.38</ele>
        <time>2021-03-20T21:55:55Z</time>
      </trkpt>
      <trkpt lat="51.78393" lon="3.88026">
        <ele>3.14</ele>
        <time>2021-03-20T21:56:02Z</time>
      </trkpt>
      <trkpt lat="51.78399" lon="3.88052">
        <ele>2.85</ele>
        <time>2021-03-20T21:56:09Z</time>
      </trkpt>
      <trkpt lat="51.78416" lon="3.88099">
        <ele>3.41</ele>
        <time>2021-03-20T21:56:15Z</time>
      </trkpt>
      <trkpt lat="51.78458" lon="3.882">
        <ele>2.4</ele>
        <time>2021-03-20T21:56:22Z</time>
      </trkpt>
      <trkpt lat="51.78516" lon="3.8833">
        <ele>2.64</ele>
        <time>2021-03-20T21:56:29Z</time>
      </trkpt>
      <trkpt lat="51.78539" lon="3.88373">
        <ele>2.58</ele>
        <time>2021-03-20T21:56:35Z</time>
      </trkpt>
      <trkpt lat="51.7859" lon="3.8844">
        <ele>2.16</ele>
        <time>2021-03-20T21:56:42Z</time>
      </trkpt>
      <trkpt lat="51.7862" lon="3.8846">
        <ele>2</ele>
        <time>2021-03-20T21:56:49Z</time>
      </trkpt>
      <trkpt lat="51.7866" lon="3.88483">
        <ele>2.09</ele>
        <time>2021-03-20T21:56:55Z</time>
      </trkpt>
      <trkpt lat="51.78897" lon="3.88552">
        <ele>0.75</ele>
        <time>2021-03-20T21:57:02Z</time>
      </trkpt>
      <trkpt lat="51.78999" lon="3.88575">
        <ele>1</ele>
        <time>2021-03-20T21:57:09Z</time>
      </trkpt>
      <trkpt lat="51.79043" lon="3.88573">
        <ele>1</ele>
        <time>2021-03-20T21:57:15Z</time>
      </trkpt>
      <trkpt lat="51.7908" lon="3.8856">
        <ele>1</ele>
        <time>2021-03-20T21:57:22Z</time>
      </trkpt>
      <trkpt lat="51.7914" lon="3.88518">
        <ele>2.1</ele>
        <time>2021-03-20T21:57:29Z</time>
      </trkpt>
      <trkpt lat="51.79216" lon="3.88442">
        <ele>4.05</ele>
        <time>2021-03-20T21:57:35Z</time>
      </trkpt>
      <trkpt lat="51.79219" lon="3.88449">
        <ele>4</ele>
        <time>2021-03-20T21:57:41Z</time>
      </trkpt>
      <trkpt lat="51.79223" lon="3.88453">
        <ele>4</ele>
        <time>2021-03-20T21:57:47Z</time>
      </trkpt>
      <trkpt lat="51.7923" lon="3.88455">
        <ele>3.89</ele>
        <time>2021-03-20T21:57:53Z</time>
      </trkpt>
      <trkpt lat="51.79238" lon="3.88463">
        <ele>3.61</ele>
        <time>2021-03-20T21:57:58Z</time>
      </trkpt>
      <trkpt lat="51.79301" lon="3.88618">
        <ele>2.66</ele>
        <time>2021-03-20T21:58:04Z</time>
      </trkpt>
      <trkpt lat="51.79342" lon="3.88729">
        <ele>3.36</ele>
        <time>2021-03-20T21:58:10Z</time>
      </trkpt>
      <trkpt lat="51.79361" lon="3.88773">
        <ele>2.85</ele>
        <time>2021-03-20T21:58:16Z</time>
      </trkpt>
      <trkpt lat="51.79516" lon="3.89245">
        <ele>2</ele>
        <time>2021-03-20T21:58:21Z</time>
      </trkpt>
      <trkpt lat="51.79536" lon="3.89314">
        <ele>2.81</ele>
        <time>2021-03-20T21:58:27Z</time>
      </trkpt>
      <trkpt lat="51.79552" lon="3.89385">
        <ele>3</ele>
        <time>2021-03-20T21:58:33Z</time>
      </trkpt>
      <trkpt lat="51.79567" lon="3.89461">
        <ele>3.82</ele>
        <time>2021-03-20T21:58:39Z</time>
      </trkpt>
      <trkpt lat="51.7958" lon="3.89537">
        <ele>4.6</ele>
        <time>2021-03-20T21:58:44Z</time>
      </trkpt>
      <trkpt lat="51.7959" lon="3.89614">
        <ele>6</ele>
        <time>2021-03-20T21:58:50Z</time>
      </trkpt>
      <trkpt lat="51.796" lon="3.89705">
        <ele>4.47</ele>
        <time>2021-03-20T21:58:56Z</time>
      </trkpt>
      <trkpt lat="51.79616" lon="3.89917">
        <ele>3.13</ele>
        <time>2021-03-20T21:59:02Z</time>
      </trkpt>
      <trkpt lat="51.79629" lon="3.90129">
        <ele>3.03</ele>
        <time>2021-03-20T21:59:07Z</time>
      </trkpt>
      <trkpt lat="51.79649" lon="3.90689">
        <ele>1.32</ele>
        <time>2021-03-20T21:59:13Z</time>
      </trkpt>
      <trkpt lat="51.7966" lon="3.9092">
        <ele>0.87</ele>
        <time>2021-03-20T21:59:19Z</time>
      </trkpt>
      <trkpt lat="51.79676" lon="3.91216">
        <ele>-2</ele>
        <time>2021-03-20T21:59:25Z</time>
      </trkpt>
      <trkpt lat="51.79689" lon="3.91419">
        <ele>-0.94</ele>
        <time>2021-03-20T21:59:30Z</time>
      </trkpt>
      <trkpt lat="51.79713" lon="3.91734">
        <ele>1.8</ele>
        <time>2021-03-20T21:59:36Z</time>
      </trkpt>
      <trkpt lat="51.7975" lon="3.92136">
        <ele>1</ele>
        <time>2021-03-20T21:59:42Z</time>
      </trkpt>
      <trkpt lat="51.79787" lon="3.92471">
        <ele>-0.31</ele>
        <time>2021-03-20T21:59:48Z</time>
      </trkpt>
      <trkpt lat="51.79885" lon="3.93253">
        <ele>2.12</ele>
        <time>2021-03-20T21:59:53Z</time>
      </trkpt>
      <trkpt lat="51.79932" lon="3.93667">
        <ele>0.01</ele>
        <time>2021-03-20T21:59:59Z</time>
      </trkpt>
      <trkpt lat="51.79952" lon="3.93877">
        <ele>1.41</ele>
        <time>2021-03-20T22:00:05Z</time>
      </trkpt>
      <trkpt lat="51.79965" lon="3.93967">
        <ele>2</ele>
        <time>2021-03-20T22:00:11Z</time>
      </trkpt>
      <trkpt lat="51.79977" lon="3.9402">
        <ele>1.68</ele>
        <time>2021-03-20T22:00:16Z</time>
      </trkpt>
      <trkpt lat="51.79993" lon="3.94077">
        <ele>0.25</ele>
        <time>2021-03-20T22:00:22Z</time>
      </trkpt>
      <trkpt lat="51.80027" lon="3.94175">
        <ele>0.91</ele>
        <time>2021-03-20T22:00:28Z</time>
      </trkpt>
      <trkpt lat="51.80063" lon="3.94266">
        <ele>0.88</ele>
        <time>2021-03-20T22:00:34Z</time>
      </trkpt>
      <trkpt lat="51.80108" lon="3.94357">
        <ele>-3.37</ele>
        <time>2021-03-20T22:00:39Z</time>
      </trkpt>
      <trkpt lat="51.80144" lon="3.94422">
        <ele>-0.81</ele>
        <time>2021-03-20T22:00:45Z</time>
      </trkpt>
      <trkpt lat="51.80168" lon="3.94458">
        <ele>-0.05</ele>
        <time>2021-03-20T22:00:51Z</time>
      </trkpt>
      <trkpt lat="51.80192" lon="3.94489">
        <ele>-0.3</ele>
        <time>2021-03-20T22:00:57Z</time>
      </trkpt>
      <trkpt lat="51.80239" lon="3.94537">
        <ele>-2.27</ele>
        <time>2021-03-20T22:01:02Z</time>
      </trkpt>
      <trkpt lat="51.80279" lon="3.94565">
        <ele>-1.95</ele>
        <time>2021-03-20T22:01:08Z</time>
      </trkpt>
      <trkpt lat="51.80319" lon="3.94585">
        <ele>0.46</ele>
        <time>2021-03-20T22:01:14Z</time>
      </trkpt>
      <trkpt lat="51.80343" lon="3.94593">
        <ele>1</ele>
        <time>2021-03-20T22:01:20Z</time>
      </trkpt>
      <trkpt lat="51.80368" lon="3.94598">
        <ele>0.89</ele>
        <time>2021-03-20T22:01:25Z</time>
      </trkpt>
      <trkpt lat="51.80393" lon="3.94601">
        <ele>0.63</ele>
        <time>2021-03-20T22:01:31Z</time>
      </trkpt>
      <trkpt lat="51.80419" lon="3.94601">
        <ele>0.5</ele>
        <time>2021-03-20T22:01:37Z</time>
      </trkpt>
      <trkpt lat="51.8045" lon="3.94596">
        <ele>-0.46</ele>
        <time>2021-03-20T22:01:43Z</time>
      </trkpt>
      <trkpt lat="51.80478" lon="3.94589">
        <ele>0.02</ele>
        <time>2021-03-20T22:01:48Z</time>
      </trkpt>
      <trkpt lat="51.805" lon="3.9458">
        <ele>1</ele>
        <time>2021-03-20T22:01:54Z</time>
      </trkpt>
      <trkpt lat="51.8052" lon="3.94571">
        <ele>1</ele>
        <time>2021-03-20T22:02:00Z</time>
      </trkpt>
      <trkpt lat="51.8059" lon="3.94527">
        <ele>2</ele>
        <time>2021-03-20T22:02:06Z</time>
      </trkpt>
      <trkpt lat="51.80646" lon="3.94496">
        <ele>1</ele>
        <time>2021-03-20T22:02:11Z</time>
      </trkpt>
      <trkpt lat="51.80663" lon="3.94487">
        <ele>1</ele>
        <time>2021-03-20T22:02:17Z</time>
      </trkpt>
      <trkpt lat="51.80688" lon="3.94479">
        <ele>1</ele>
        <time>2021-03-20T22:02:23Z</time>
      </trkpt>
      <trkpt lat="51.80718" lon="3.94473">
        <ele>0.98</ele>
        <time>2021-03-20T22:02:29Z</time>
      </trkpt>
      <trkpt lat="51.80752" lon="3.94471">
        <ele>0.93</ele>
        <time>2021-03-20T22:02:34Z</time>
      </trkpt>
      <trkpt lat="51.80793" lon="3.94477">
        <ele>-0.08</ele>
        <time>2021-03-20T22:02:40Z</time>
      </trkpt>
      <trkpt lat="51.80828" lon="3.94489">
        <ele>0.2</ele>
        <time>2021-03-20T22:02:46Z</time>
      </trkpt>
      <trkpt lat="51.8083" lon="3.94497">
        <ele>-0.03</ele>
        <time>2021-03-20T22:02:51Z</time>
      </trkpt>
      <trkpt lat="51.80838" lon="3.94509">
        <ele>0.17</ele>
        <time>2021-03-20T22:02:55Z</time>
      </trkpt>
      <trkpt lat="51.80847" lon="3.94511">
        <ele>0.49</ele>
        <time>2021-03-20T22:03:00Z</time>
      </trkpt>
      <trkpt lat="51.80852" lon="3.94509">
        <ele>0.66</ele>
        <time>2021-03-20T22:03:05Z</time>
      </trkpt>
      <trkpt lat="51.80859" lon="3.94499">
        <ele>0.93</ele>
        <time>2021-03-20T22:03:10Z</time>
      </trkpt>
      <trkpt lat="51.80911" lon="3.94518">
        <ele>2.28</ele>
        <time>2021-03-20T22:03:15Z</time>
      </trkpt>
      <trkpt lat="51.8093" lon="3.94528">
        <ele>2</ele>
        <time>2021-03-20T22:03:19Z</time>
      </trkpt>
      <trkpt lat="51.80966" lon="3.9455">
        <ele>1.04</ele>
        <time>2021-03-20T22:03:24Z</time>
      </trkpt>
      <trkpt lat="51.80997" lon="3.94579">
        <ele>1</ele>
        <time>2021-03-20T22:03:29Z</time>
      </trkpt>
      <trkpt lat="51.81027" lon="3.94614">
        <ele>1</ele>
        <time>2021-03-20T22:03:34Z</time>
      </trkpt>
      <trkpt lat="51.81068" lon="3.94669">
        <ele>1.4</ele>
        <time>2021-03-20T22:03:39Z</time>
      </trkpt>
      <trkpt lat="51.81154" lon="3.94803">
        <ele>-0.47</ele>
        <time>2021-03-20T22:03:43Z</time>
      </trkpt>
      <trkpt lat="51.81194" lon="3.94874">
        <ele>-1.46</ele>
        <time>2021-03-20T22:03:48Z</time>
      </trkpt>
      <trkpt lat="51.81207" lon="3.94899">
        <ele>-2</ele>
        <time>2021-03-20T22:03:53Z</time>
      </trkpt>
      <trkpt lat="51.81241" lon="3.94982">
        <ele>-1.12</ele>
        <time>2021-03-20T22:03:58Z</time>
      </trkpt>
      <trkpt lat="51.81354" lon="3.95332">
        <ele>-0.01</ele>
        <time>2021-03-20T22:04:02Z</time>
      </trkpt>
      <trkpt lat="51.8137" lon="3.95392">
        <ele>-1</ele>
        <time>2021-03-20T22:04:07Z</time>
      </trkpt>
      <trkpt lat="51.81385" lon="3.95457">
        <ele>1</ele>
        <time>2021-03-20T22:04:12Z</time>
      </trkpt>
      <trkpt lat="51.81405" lon="3.95558">
        <ele>1</ele>
        <time>2021-03-20T22:04:17Z</time>
      </trkpt>
      <trkpt lat="51.81415" lon="3.95624">
        <ele>1</ele>
        <time>2021-03-20T22:04:22Z</time>
      </trkpt>
      <trkpt lat="51.81427" lon="3.95727">
        <ele>-0.38</ele>
        <time>2021-03-20T22:04:26Z</time>
      </trkpt>
      <trkpt lat="51.81431" lon="3.95783">
        <ele>0.47</ele>
        <time>2021-03-20T22:04:31Z</time>
      </trkpt>
      <trkpt lat="51.81436" lon="3.95885">
        <ele>-0.17</ele>
        <time>2021-03-20T22:04:36Z</time>
      </trkpt>
      <trkpt lat="51.81437" lon="3.95967">
        <ele>-0.34</ele>
        <time>2021-03-20T22:04:41Z</time>
      </trkpt>
      <trkpt lat="51.81433" lon="3.96232">
        <ele>-3.98</ele>
        <time>2021-03-20T22:04:46Z</time>
      </trkpt>
      <trkpt lat="51.81432" lon="3.96677">
        <ele>2</ele>
        <time>2021-03-20T22:04:50Z</time>
      </trkpt>
      <trkpt lat="51.81434" lon="3.96902">
        <ele>-1.38</ele>
        <time>2021-03-20T22:04:55Z</time>
      </trkpt>
      <trkpt lat="51.81435" lon="3.9696">
        <ele>-2</ele>
        <time>2021-03-20T22:05:00Z</time>
      </trkpt>
      <trkpt lat="51.81438" lon="3.97025">
        <ele>-1.22</ele>
        <time>2021-03-20T22:05:05Z</time>
      </trkpt>
      <trkpt lat="51.8145" lon="3.97161">
        <ele>-0.84</ele>
        <time>2021-03-20T22:05:10Z</time>
      </trkpt>
      <trkpt lat="51.81463" lon="3.9726">
        <ele>-1</ele>
        <time>2021-03-20T22:05:14Z</time>
      </trkpt>
      <trkpt lat="51.81475" lon="3.97331">
        <ele>-0.18</ele>
        <time>2021-03-20T22:05:19Z</time>
      </trkpt>
      <trkpt lat="51.81541" lon="3.97681">
        <ele>-0.54</ele>
        <time>2021-03-20T22:05:24Z</time>
      </trkpt>
      <trkpt lat="51.81556" lon="3.97782">
        <ele>1</ele>
        <time>2021-03-20T22:05:29Z</time>
      </trkpt>
      <trkpt lat="51.81563" lon="3.9787">
        <ele>0.96</ele>
        <time>2021-03-20T22:05:33Z</time>
      </trkpt>
      <trkpt lat="51.81569" lon="3.97975">
        <ele>1</ele>
        <time>2021-03-20T22:05:38Z</time>
      </trkpt>
      <trkpt lat="51.8157" lon="3.98058">
        <ele>0.52</ele>
        <time>2021-03-20T22:05:43Z</time>
      </trkpt>
      <trkpt lat="51.81568" lon="3.98195">
        <ele>1.43</ele>
        <time>2021-03-20T22:05:48Z</time>
      </trkpt>
      <trkpt lat="51.81563" lon="3.98291">
        <ele>1</ele>
        <time>2021-03-20T22:05:53Z</time>
      </trkpt>
      <trkpt lat="51.81572" lon="3.98292">
        <ele>1</ele>
        <time>2021-03-20T22:05:57Z</time>
      </trkpt>
      <trkpt lat="51.81619" lon="3.98296">
        <ele>-0.9</ele>
        <time>2021-03-20T22:06:02Z</time>
      </trkpt>
      <trkpt lat="51.81658" lon="3.98304">
        <ele>-0.94</ele>
        <time>2021-03-20T22:06:07Z</time>
      </trkpt>
      <trkpt lat="51.81674" lon="3.98315">
        <ele>-1.06</ele>
        <time>2021-03-20T22:06:11Z</time>
      </trkpt>
      <trkpt lat="51.81691" lon="3.98335">
        <ele>-1.12</ele>
        <time>2021-03-20T22:06:16Z</time>
      </trkpt>
      <trkpt lat="51.81701" lon="3.98353">
        <ele>-0.5</ele>
        <time>2021-03-20T22:06:20Z</time>
      </trkpt>
      <trkpt lat="51.8171" lon="3.98375">
        <ele>0.1</ele>
        <time>2021-03-20T22:06:25Z</time>
      </trkpt>
      <trkpt lat="51.8181" lon="3.98848">
        <ele>0.16</ele>
        <time>2021-03-20T22:06:30Z</time>
      </trkpt>
      <trkpt lat="51.81857" lon="3.99083">
        <ele>-0.15</ele>
        <time>2021-03-20T22:06:34Z</time>
      </trkpt>
      <trkpt lat="51.81868" lon="3.99157">
        <ele>-1.38</ele>
        <time>2021-03-20T22:06:39Z</time>
      </trkpt>
      <trkpt lat="51.81871" lon="3.9921">
        <ele>-1.09</ele>
        <time>2021-03-20T22:06:44Z</time>
      </trkpt>
      <trkpt lat="51.81892" lon="3.99217">
        <ele>-0.06</ele>
        <time>2021-03-20T22:06:50Z</time>
      </trkpt>
      <trkpt lat="51.81899" lon="3.99223">
        <ele>0.35</ele>
        <time>2021-03-20T22:06:56Z</time>
      </trkpt>
      <trkpt lat="51.82" lon="3.9938">
        <ele>-1</ele>
        <time>2021-03-20T22:07:02Z</time>
      </trkpt>
      <trkpt lat="51.82103" lon="3.99545">
        <ele>-0.15</ele>
        <time>2021-03-20T22:07:08Z</time>
      </trkpt>
      <trkpt lat="51.8228" lon="3.9981">
        <ele>-0.99</ele>
        <time>2021-03-20T22:07:14Z</time>
      </trkpt>
      <trkpt lat="51.8238" lon="3.9997">
        <ele>-1.32</ele>
        <time>2021-03-20T22:07:20Z</time>
      </trkpt>
      <trkpt lat="51.8246" lon="4.0009">
        <ele>-1.32</ele>
        <time>2021-03-20T22:07:26Z</time>
      </trkpt>
      <trkpt lat="51.82627" lon="4.00355">
        <ele>-1.43</ele>
        <time>2021-03-20T22:07:32Z</time>
      </trkpt>
      <trkpt lat="51.82642" lon="4.00381">
        <ele>-1</ele>
        <time>2021-03-20T22:07:38Z</time>
      </trkpt>
      <trkpt lat="51.82689" lon="4.00629">
        <ele>-0.21</ele>
        <time>2021-03-20T22:07:45Z</time>
      </trkpt>
      <trkpt lat="51.82698" lon="4.00655">
        <ele>2.7</ele>
        <time>2021-03-20T22:07:51Z</time>
      </trkpt>
      <trkpt lat="51.8271" lon="4.0068">
        <ele>2.4</ele>
        <time>2021-03-20T22:07:57Z</time>
      </trkpt>
      <trkpt lat="51.82722" lon="4.00688">
        <ele>2.5</ele>
        <time>2021-03-20T22:08:03Z</time>
      </trkpt>
      <trkpt lat="51.82738" lon="4.00688">
        <ele>-0.57</ele>
        <time>2021-03-20T22:08:09Z</time>
      </trkpt>
      <trkpt lat="51.82829" lon="4.00676">
        <ele>2.3</ele>
        <time>2021-03-20T22:08:15Z</time>
      </trkpt>
      <trkpt lat="51.82841" lon="4.00678">
        <ele>0.26</ele>
        <time>2021-03-20T22:08:21Z</time>
      </trkpt>
      <trkpt lat="51.82852" lon="4.00683">
        <ele>0.65</ele>
        <time>2021-03-20T22:08:27Z</time>
      </trkpt>
      <trkpt lat="51.8286" lon="4.00692">
        <ele>0.97</ele>
        <time>2021-03-20T22:08:33Z</time>
      </trkpt>
      <trkpt lat="51.82879" lon="4.00718">
        <ele>1.54</ele>
        <time>2021-03-20T22:08:39Z</time>
      </trkpt>
      <trkpt lat="51.82883" lon="4.00704">
        <ele>1.28</ele>
        <time>2021-03-20T22:08:44Z</time>
      </trkpt>
      <trkpt lat="51.82921" lon="4.00648">
        <ele>0.91</ele>
        <time>2021-03-20T22:08:48Z</time>
      </trkpt>
      <trkpt lat="51.82927" lon="4.00645">
        <ele>0.7</ele>
        <time>2021-03-20T22:08:53Z</time>
      </trkpt>
      <trkpt lat="51.82935" lon="4.00649">
        <ele>0.58</ele>
        <time>2021-03-20T22:08:57Z</time>
      </trkpt>
      <trkpt lat="51.82976" lon="4.00717">
        <ele>1.23</ele>
        <time>2021-03-20T22:09:02Z</time>
      </trkpt>
      <trkpt lat="51.82982" lon="4.00733">
        <ele>1.7</ele>
        <time>2021-03-20T22:09:06Z</time>
      </trkpt>
      <trkpt lat="51.83012" lon="4.00793">
        <ele>2.43</ele>
        <time>2021-03-20T22:09:11Z</time>
      </trkpt>
      <trkpt lat="51.83192" lon="4.01105">
        <ele>4.11</ele>
        <time>2021-03-20T22:09:15Z</time>
      </trkpt>
      <trkpt lat="51.83201" lon="4.01125">
        <ele>4.23</ele>
        <time>2021-03-20T22:09:19Z</time>
      </trkpt>
      <trkpt lat="51.83208" lon="4.01149">
        <ele>4.64</ele>
        <time>2021-03-20T22:09:24Z</time>
      </trkpt>
      <trkpt lat="51.83211" lon="4.01177">
        <ele>5.2</ele>
        <time>2021-03-20T22:09:28Z</time>
      </trkpt>
      <trkpt lat="51.8321" lon="4.01207">
        <ele>5.61</ele>
        <time>2021-03-20T22:09:33Z</time>
      </trkpt>
      <trkpt lat="51.832" lon="4.01262">
        <ele>5.83</ele>
        <time>2021-03-20T22:09:37Z</time>
      </trkpt>
      <trkpt lat="51.83163" lon="4.01417">
        <ele>7.01</ele>
        <time>2021-03-20T22:09:42Z</time>
      </trkpt>
      <trkpt lat="51.83141" lon="4.0149">
        <ele>7.37</ele>
        <time>2021-03-20T22:09:46Z</time>
      </trkpt>
      <trkpt lat="51.83119" lon="4.01549">
        <ele>5.52</ele>
        <time>2021-03-20T22:09:51Z</time>
      </trkpt>
      <trkpt lat="51.83076" lon="4.01651">
        <ele>5.74</ele>
        <time>2021-03-20T22:09:55Z</time>
      </trkpt>
      <trkpt lat="51.83049" lon="4.01705">
        <ele>5.3</ele>
        <time>2021-03-20T22:10:00Z</time>
      </trkpt>
      <trkpt lat="51.83003" lon="4.01787">
        <ele>3.2</ele>
        <time>2021-03-20T22:10:04Z</time>
      </trkpt>
      <trkpt lat="51.8295" lon="4.01887">
        <ele>1.28</ele>
        <time>2021-03-20T22:10:09Z</time>
      </trkpt>
      <trkpt lat="51.82931" lon="4.01928">
        <ele>1</ele>
        <time>2021-03-20T22:10:13Z</time>
      </trkpt>
      <trkpt lat="51.82896" lon="4.02014">
        <ele>3.38</ele>
        <time>2021-03-20T22:10:18Z</time>
      </trkpt>
      <trkpt lat="51.82863" lon="4.02123">
        <ele>3.65</ele>
        <time>2021-03-20T22:10:22Z</time>
      </trkpt>
      <trkpt lat="51.82803" lon="4.02366">
        <ele>4.77</ele>
        <time>2021-03-20T22:10:26Z</time>
      </trkpt>
      <trkpt lat="51.82785" lon="4.02428">
        <ele>2.92</ele>
        <time>2021-03-20T22:10:31Z</time>
      </trkpt>
      <trkpt lat="51.8277" lon="4.02476">
        <ele>1.55</ele>
        <time>2021-03-20T22:10:35Z</time>
      </trkpt>
      <trkpt lat="51.82738" lon="4.0256">
        <ele>2</ele>
        <time>2021-03-20T22:10:40Z</time>
      </trkpt>
      <trkpt lat="51.82711" lon="4.02625">
        <ele>1</ele>
        <time>2021-03-20T22:10:44Z</time>
      </trkpt>
      <trkpt lat="51.82661" lon="4.02731">
        <ele>4.34</ele>
        <time>2021-03-20T22:10:49Z</time>
      </trkpt>
      <trkpt lat="51.82587" lon="4.02879">
        <ele>4.52</ele>
        <time>2021-03-20T22:10:53Z</time>
      </trkpt>
      <trkpt lat="51.82372" lon="4.03285">
        <ele>7.19</ele>
        <time>2021-03-20T22:10:58Z</time>
      </trkpt>
      <trkpt lat="51.82333" lon="4.03349">
        <ele>5.37</ele>
        <time>2021-03-20T22:11:02Z</time>
      </trkpt>
      <trkpt lat="51.82151" lon="4.03599">
        <ele>2.28</ele>
        <time>2021-03-20T22:11:07Z</time>
      </trkpt>
      <trkpt lat="51.82092" lon="4.03666">
        <ele>2.65</ele>
        <time>2021-03-20T22:11:11Z</time>
      </trkpt>
      <trkpt lat="51.82083" lon="4.03664">
        <ele>2.89</ele>
        <time>2021-03-20T22:11:13Z</time>
      </trkpt>
      <trkpt lat="51.82076" lon="4.03671">
        <ele>3</ele>
        <time>2021-03-20T22:11:16Z</time>
      </trkpt>
      <trkpt lat="51.82074" lon="4.03677">
        <ele>3</ele>
        <time>2021-03-20T22:11:18Z</time>
      </trkpt>
      <trkpt lat="51.82073" lon="4.0369">
        <ele>3</ele>
        <time>2021-03-20T22:11:20Z</time>
      </trkpt>
      <trkpt lat="51.82076" lon="4.03699">
        <ele>3.16</ele>
        <time>2021-03-20T22:11:23Z</time>
      </trkpt>
      <trkpt lat="51.82081" lon="4.03705">
        <ele>3.37</ele>
        <time>2021-03-20T22:11:25Z</time>
      </trkpt>
      <trkpt lat="51.82089" lon="4.03706">
        <ele>3.15</ele>
        <time>2021-03-20T22:11:27Z</time>
      </trkpt>
      <trkpt lat="51.82097" lon="4.03712">
        <ele>2.82</ele>
        <time>2021-03-20T22:11:29Z</time>
      </trkpt>
      <trkpt lat="51.82136" lon="4.03775">
        <ele>2.02</ele>
        <time>2021-03-20T22:11:32Z</time>
      </trkpt>
      <trkpt lat="51.82175" lon="4.03829">
        <ele>2.05</ele>
        <time>2021-03-20T22:11:34Z</time>
      </trkpt>
      <trkpt lat="51.82198" lon="4.03854">
        <ele>2.12</ele>
        <time>2021-03-20T22:11:36Z</time>
      </trkpt>
      <trkpt lat="51.8223" lon="4.03895">
        <ele>2</ele>
        <time>2021-03-20T22:11:39Z</time>
      </trkpt>
      <trkpt lat="51.82379" lon="4.04097">
        <ele>-0.86</ele>
        <time>2021-03-20T22:11:41Z</time>
      </trkpt>
      <trkpt lat="51.82432" lon="4.04154">
        <ele>4.61</ele>
        <time>2021-03-20T22:11:43Z</time>
      </trkpt>
      <trkpt lat="51.82459" lon="4.04171">
        <ele>6.04</ele>
        <time>2021-03-20T22:11:46Z</time>
      </trkpt>
      <trkpt lat="51.82475" lon="4.0412">
        <ele>7.1</ele>
        <time>2021-03-20T22:11:52Z</time>
      </trkpt>
      <trkpt lat="51.82482" lon="4.04104">
        <ele>7.43</ele>
        <time>2021-03-20T22:11:59Z</time>
      </trkpt>
      <trkpt lat="51.82492" lon="4.04087">
        <ele>8.32</ele>
        <time>2021-03-20T22:12:05Z</time>
      </trkpt>
      <trkpt lat="51.82513" lon="4.04071">
        <ele>9.47</ele>
        <time>2021-03-20T22:12:12Z</time>
      </trkpt>
      <trkpt lat="51.82525" lon="4.04067">
        <ele>9.91</ele>
        <time>2021-03-20T22:12:18Z</time>
      </trkpt>
      <trkpt lat="51.8254" lon="4.04067">
        <ele>10.42</ele>
        <time>2021-03-20T22:12:25Z</time>
      </trkpt>
      <trkpt lat="51.8255" lon="4.0407">
        <ele>10.78</ele>
        <time>2021-03-20T22:12:31Z</time>
      </trkpt>
      <trkpt lat="51.82559" lon="4.04075">
        <ele>11.28</ele>
        <time>2021-03-20T22:12:38Z</time>
      </trkpt>
      <trkpt lat="51.82576" lon="4.0409">
        <ele>12.22</ele>
        <time>2021-03-20T22:12:45Z</time>
      </trkpt>
      <trkpt lat="51.82729" lon="4.04257">
        <ele>12.81</ele>
        <time>2021-03-20T22:12:51Z</time>
      </trkpt>
      <trkpt lat="51.82748" lon="4.0427">
        <ele>12.94</ele>
        <time>2021-03-20T22:12:58Z</time>
      </trkpt>
      <trkpt lat="51.82897" lon="4.04469">
        <ele>4.04</ele>
        <time>2021-03-20T22:13:04Z</time>
      </trkpt>
      <trkpt lat="51.83645" lon="4.0548">
        <ele>5.54</ele>
        <time>2021-03-20T22:13:11Z</time>
      </trkpt>
      <trkpt lat="51.83816" lon="4.05717">
        <ele>12.43</ele>
        <time>2021-03-20T22:13:17Z</time>
      </trkpt>
      <trkpt lat="51.83891" lon="4.05832">
        <ele>12.06</ele>
        <time>2021-03-20T22:13:24Z</time>
      </trkpt>
      <trkpt lat="51.83964" lon="4.05952">
        <ele>12.92</ele>
        <time>2021-03-20T22:13:30Z</time>
      </trkpt>
      <trkpt lat="51.84011" lon="4.06038">
        <ele>12.44</ele>
        <time>2021-03-20T22:13:37Z</time>
      </trkpt>
      <trkpt lat="51.84081" lon="4.06175">
        <ele>13.53</ele>
        <time>2021-03-20T22:13:44Z</time>
      </trkpt>
      <trkpt lat="51.84151" lon="4.06327">
        <ele>14</ele>
        <time>2021-03-20T22:13:50Z</time>
      </trkpt>
      <trkpt lat="51.84243" lon="4.06577">
        <ele>11.26</ele>
        <time>2021-03-20T22:13:57Z</time>
      </trkpt>
      <trkpt lat="51.84308" lon="4.06789">
        <ele>8.64</ele>
        <time>2021-03-20T22:14:03Z</time>
      </trkpt>
      <trkpt lat="51.84335" lon="4.06887">
        <ele>9.06</ele>
        <time>2021-03-20T22:14:10Z</time>
      </trkpt>
      <trkpt lat="51.84347" lon="4.06936">
        <ele>7.79</ele>
        <time>2021-03-20T22:14:16Z</time>
      </trkpt>
      <trkpt lat="51.84469" lon="4.07502">
        <ele>7.9</ele>
        <time>2021-03-20T22:14:23Z</time>
      </trkpt>
      <trkpt lat="51.84528" lon="4.07753">
        <ele>4.09</ele>
        <time>2021-03-20T22:14:30Z</time>
      </trkpt>
      <trkpt lat="51.84607" lon="4.08064">
        <ele>3</ele>
        <time>2021-03-20T22:14:36Z</time>
      </trkpt>
      <trkpt lat="51.8466" lon="4.08255">
        <ele>4.54</ele>
        <time>2021-03-20T22:14:43Z</time>
      </trkpt>
      <trkpt lat="51.84722" lon="4.08455">
        <ele>-0.63</ele>
        <time>2021-03-20T22:14:49Z</time>
      </trkpt>
      <trkpt lat="51.84766" lon="4.0859">
        <ele>-0.9</ele>
        <time>2021-03-20T22:14:56Z</time>
      </trkpt>
      <trkpt lat="51.84797" lon="4.08694">
        <ele>0.69</ele>
        <time>2021-03-20T22:15:02Z</time>
      </trkpt>
      <trkpt lat="51.84837" lon="4.08819">
        <ele>0.47</ele>
        <time>2021-03-20T22:15:09Z</time>
      </trkpt>
      <trkpt lat="51.84833" lon="4.08829">
        <ele>0.85</ele>
        <time>2021-03-20T22:15:13Z</time>
      </trkpt>
      <trkpt lat="51.84832" lon="4.08842">
        <ele>0.97</ele>
        <time>2021-03-20T22:15:18Z</time>
      </trkpt>
      <trkpt lat="51.84835" lon="4.08853">
        <ele>1</ele>
        <time>2021-03-20T22:15:22Z</time>
      </trkpt>
      <trkpt lat="51.8484" lon="4.08861">
        <ele>1</ele>
        <time>2021-03-20T22:15:27Z</time>
      </trkpt>
      <trkpt lat="51.84846" lon="4.08866">
        <ele>1</ele>
        <time>2021-03-20T22:15:31Z</time>
      </trkpt>
      <trkpt lat="51.84853" lon="4.08866">
        <ele>1</ele>
        <time>2021-03-20T22:15:36Z</time>
      </trkpt>
      <trkpt lat="51.84908" lon="4.09009">
        <ele>-0.33</ele>
        <time>2021-03-20T22:15:40Z</time>
      </trkpt>
      <trkpt lat="51.84915" lon="4.09033">
        <ele>0.13</ele>
        <time>2021-03-20T22:15:44Z</time>
      </trkpt>
      <trkpt lat="51.84937" lon="4.09082">
        <ele>1</ele>
        <time>2021-03-20T22:15:49Z</time>
      </trkpt>
      <trkpt lat="51.84963" lon="4.09131">
        <ele>0.1</ele>
        <time>2021-03-20T22:15:53Z</time>
      </trkpt>
      <trkpt lat="51.85022" lon="4.09275">
        <ele>-1.11</ele>
        <time>2021-03-20T22:15:58Z</time>
      </trkpt>
      <trkpt lat="51.85107" lon="4.09487">
        <ele>-1.52</ele>
        <time>2021-03-20T22:16:02Z</time>
      </trkpt>
      <trkpt lat="51.8515" lon="4.09605">
        <ele>-2</ele>
        <time>2021-03-20T22:16:06Z</time>
      </trkpt>
      <trkpt lat="51.85203" lon="4.09759">
        <ele>0.32</ele>
        <time>2021-03-20T22:16:11Z</time>
      </trkpt>
      <trkpt lat="51.85279" lon="4.09991">
        <ele>-0.66</ele>
        <time>2021-03-20T22:16:15Z</time>
      </trkpt>
      <trkpt lat="51.8532" lon="4.10121">
        <ele>-2</ele>
        <time>2021-03-20T22:16:20Z</time>
      </trkpt>
      <trkpt lat="51.85362" lon="4.10265">
        <ele>-0.44</ele>
        <time>2021-03-20T22:16:24Z</time>
      </trkpt>
      <trkpt lat="51.85454" lon="4.10609">
        <ele>-0.67</ele>
        <time>2021-03-20T22:16:29Z</time>
      </trkpt>
      <trkpt lat="51.85511" lon="4.10858">
        <ele>0.41</ele>
        <time>2021-03-20T22:16:33Z</time>
      </trkpt>
      <trkpt lat="51.85542" lon="4.11">
        <ele>0.5</ele>
        <time>2021-03-20T22:16:37Z</time>
      </trkpt>
      <trkpt lat="51.85571" lon="4.11145">
        <ele>0.56</ele>
        <time>2021-03-20T22:16:42Z</time>
      </trkpt>
      <trkpt lat="51.85644" lon="4.1153">
        <ele>-0.08</ele>
        <time>2021-03-20T22:16:46Z</time>
      </trkpt>
      <trkpt lat="51.85668" lon="4.117">
        <ele>-1</ele>
        <time>2021-03-20T22:16:51Z</time>
      </trkpt>
      <trkpt lat="51.85677" lon="4.11784">
        <ele>-1.38</ele>
        <time>2021-03-20T22:16:55Z</time>
      </trkpt>
      <trkpt lat="51.85694" lon="4.11926">
        <ele>-1.66</ele>
        <time>2021-03-20T22:17:00Z</time>
      </trkpt>
      <trkpt lat="51.85688" lon="4.11934">
        <ele>-1.28</ele>
        <time>2021-03-20T22:17:05Z</time>
      </trkpt>
      <trkpt lat="51.85684" lon="4.11946">
        <ele>-1</ele>
        <time>2021-03-20T22:17:11Z</time>
      </trkpt>
      <trkpt lat="51.85686" lon="4.11963">
        <ele>-1</ele>
        <time>2021-03-20T22:17:17Z</time>
      </trkpt>
      <trkpt lat="51.85692" lon="4.11975">
        <ele>-0.99</ele>
        <time>2021-03-20T22:17:23Z</time>
      </trkpt>
      <trkpt lat="51.85697" lon="4.11978">
        <ele>-1</ele>
        <time>2021-03-20T22:17:29Z</time>
      </trkpt>
      <trkpt lat="51.85711" lon="4.12115">
        <ele>0.22</ele>
        <time>2021-03-20T22:17:35Z</time>
      </trkpt>
      <trkpt lat="51.85721" lon="4.12223">
        <ele>-1.11</ele>
        <time>2021-03-20T22:17:41Z</time>
      </trkpt>
      <trkpt lat="51.85734" lon="4.12315">
        <ele>-0.73</ele>
        <time>2021-03-20T22:17:46Z</time>
      </trkpt>
      <trkpt lat="51.85742" lon="4.12399">
        <ele>-1.39</ele>
        <time>2021-03-20T22:17:52Z</time>
      </trkpt>
      <trkpt lat="51.85761" lon="4.12695">
        <ele>-0.96</ele>
        <time>2021-03-20T22:17:58Z</time>
      </trkpt>
      <trkpt lat="51.85783" lon="4.13319">
        <ele>-2.32</ele>
        <time>2021-03-20T22:18:04Z</time>
      </trkpt>
      <trkpt lat="51.85792" lon="4.13494">
        <ele>-3.12</ele>
        <time>2021-03-20T22:18:10Z</time>
      </trkpt>
      <trkpt lat="51.85803" lon="4.13662">
        <ele>0.74</ele>
        <time>2021-03-20T22:18:16Z</time>
      </trkpt>
      <trkpt lat="51.85818" lon="4.13843">
        <ele>-2.12</ele>
        <time>2021-03-20T22:18:21Z</time>
      </trkpt>
      <trkpt lat="51.85846" lon="4.14118">
        <ele>-1</ele>
        <time>2021-03-20T22:18:27Z</time>
      </trkpt>
      <trkpt lat="51.85872" lon="4.14321">
        <ele>-2.18</ele>
        <time>2021-03-20T22:18:33Z</time>
      </trkpt>
      <trkpt lat="51.85905" lon="4.14548">
        <ele>-3.31</ele>
        <time>2021-03-20T22:18:39Z</time>
      </trkpt>
      <trkpt lat="51.85948" lon="4.14812">
        <ele>-2.87</ele>
        <time>2021-03-20T22:18:45Z</time>
      </trkpt>
      <trkpt lat="51.85989" lon="4.15013">
        <ele>-2.38</ele>
        <time>2021-03-20T22:18:51Z</time>
      </trkpt>
      <trkpt lat="51.861" lon="4.15528">
        <ele>1.41</ele>
        <time>2021-03-20T22:18:57Z</time>
      </trkpt>
      <trkpt lat="51.86135" lon="4.1571">
        <ele>-1.68</ele>
        <time>2021-03-20T22:19:02Z</time>
      </trkpt>
      <trkpt lat="51.86131" lon="4.15721">
        <ele>-2.24</ele>
        <time>2021-03-20T22:19:09Z</time>
      </trkpt>
      <trkpt lat="51.86129" lon="4.15734">
        <ele>-2.35</ele>
        <time>2021-03-20T22:19:15Z</time>
      </trkpt>
      <trkpt lat="51.8612" lon="4.15742">
        <ele>-2.67</ele>
        <time>2021-03-20T22:19:21Z</time>
      </trkpt>
      <trkpt lat="51.86078" lon="4.15772">
        <ele>-0.84</ele>
        <time>2021-03-20T22:19:28Z</time>
      </trkpt>
      <trkpt lat="51.85651" lon="4.16038">
        <ele>-3.93</ele>
        <time>2021-03-20T22:19:34Z</time>
      </trkpt>
      <trkpt lat="51.85533" lon="4.16115">
        <ele>-2.19</ele>
        <time>2021-03-20T22:19:41Z</time>
      </trkpt>
      <trkpt lat="51.85437" lon="4.16173">
        <ele>-2.29</ele>
        <time>2021-03-20T22:19:47Z</time>
      </trkpt>
      <trkpt lat="51.85402" lon="4.1619">
        <ele>-3</ele>
        <time>2021-03-20T22:19:53Z</time>
      </trkpt>
      <trkpt lat="51.85352" lon="4.16195">
        <ele>-3</ele>
        <time>2021-03-20T22:20:00Z</time>
      </trkpt>
      <trkpt lat="51.85346" lon="4.16183">
        <ele>-3</ele>
        <time>2021-03-20T22:20:04Z</time>
      </trkpt>
      <trkpt lat="51.85338" lon="4.16182">
        <ele>-3</ele>
        <time>2021-03-20T22:20:07Z</time>
      </trkpt>
      <trkpt lat="51.85311" lon="4.16199">
        <ele>-2.84</ele>
        <time>2021-03-20T22:20:11Z</time>
      </trkpt>
      <trkpt lat="51.85306" lon="4.16209">
        <ele>-2.47</ele>
        <time>2021-03-20T22:20:15Z</time>
      </trkpt>
      <trkpt lat="51.85305" lon="4.16218">
        <ele>-2.16</ele>
        <time>2021-03-20T22:20:19Z</time>
      </trkpt>
      <trkpt lat="51.85253" lon="4.16257">
        <ele>-2.67</ele>
        <time>2021-03-20T22:20:23Z</time>
      </trkpt>
      <trkpt lat="51.85248" lon="4.16264">
        <ele>-2.56</ele>
        <time>2021-03-20T22:20:27Z</time>
      </trkpt>
      <trkpt lat="51.85227" lon="4.16284">
        <ele>-3.68</ele>
        <time>2021-03-20T22:20:31Z</time>
      </trkpt>
      <trkpt lat="51.85201" lon="4.16313">
        <ele>-3.94</ele>
        <time>2021-03-20T22:20:35Z</time>
      </trkpt>
      <trkpt lat="51.85169" lon="4.16341">
        <ele>-4.63</ele>
        <time>2021-03-20T22:20:39Z</time>
      </trkpt>
      <trkpt lat="51.84953" lon="4.16482">
        <ele>-2.89</ele>
        <time>2021-03-20T22:20:43Z</time>
      </trkpt>
      <trkpt lat="51.84872" lon="4.16533">
        <ele>-3</ele>
        <time>2021-03-20T22:20:47Z</time>
      </trkpt>
      <trkpt lat="51.84817" lon="4.16553">
        <ele>-2.47</ele>
        <time>2021-03-20T22:20:51Z</time>
      </trkpt>
      <trkpt lat="51.84699" lon="4.16628">
        <ele>-1.17</ele>
        <time>2021-03-20T22:20:55Z</time>
      </trkpt>
      <trkpt lat="51.84674" lon="4.16648">
        <ele>-1.33</ele>
        <time>2021-03-20T22:20:59Z</time>
      </trkpt>
      <trkpt lat="51.8466" lon="4.16654">
        <ele>-1.53</ele>
        <time>2021-03-20T22:21:02Z</time>
      </trkpt>
      <trkpt lat="51.84656" lon="4.16648">
        <ele>-1.33</ele>
        <time>2021-03-20T22:21:06Z</time>
      </trkpt>
      <trkpt lat="51.8465" lon="4.16646">
        <ele>-1.26</ele>
        <time>2021-03-20T22:21:09Z</time>
      </trkpt>
      <trkpt lat="51.84642" lon="4.1665">
        <ele>-1.41</ele>
        <time>2021-03-20T22:21:12Z</time>
      </trkpt>
      <trkpt lat="51.84638" lon="4.16659">
        <ele>-1.72</ele>
        <time>2021-03-20T22:21:15Z</time>
      </trkpt>
      <trkpt lat="51.84636" lon="4.1667">
        <ele>-2</ele>
        <time>2021-03-20T22:21:18Z</time>
      </trkpt>
      <trkpt lat="51.84579" lon="4.16705">
        <ele>-1.52</ele>
        <time>2021-03-20T22:21:21Z</time>
      </trkpt>
      <trkpt lat="51.84488" lon="4.16773">
        <ele>0.11</ele>
        <time>2021-03-20T22:21:24Z</time>
      </trkpt>
      <trkpt lat="51.84448" lon="4.16797">
        <ele>1</ele>
        <time>2021-03-20T22:21:28Z</time>
      </trkpt>
      <trkpt lat="51.84423" lon="4.16803">
        <ele>0.76</ele>
        <time>2021-03-20T22:21:31Z</time>
      </trkpt>
      <trkpt lat="51.84397" lon="4.16799">
        <ele>0.13</ele>
        <time>2021-03-20T22:21:34Z</time>
      </trkpt>
      <trkpt lat="51.84331" lon="4.16769">
        <ele>-2.62</ele>
        <time>2021-03-20T22:21:37Z</time>
      </trkpt>
      <trkpt lat="51.8432" lon="4.1677">
        <ele>-2.37</ele>
        <time>2021-03-20T22:21:40Z</time>
      </trkpt>
      <trkpt lat="51.84299" lon="4.1678">
        <ele>-1.77</ele>
        <time>2021-03-20T22:21:43Z</time>
      </trkpt>
      <trkpt lat="51.84268" lon="4.16816">
        <ele>-0.4</ele>
        <time>2021-03-20T22:21:46Z</time>
      </trkpt>
      <trkpt lat="51.84272" lon="4.16826">
        <ele>-0.2</ele>
        <time>2021-03-20T22:21:55Z</time>
      </trkpt>
      <trkpt lat="51.84362" lon="4.17038">
        <ele>-0.7</ele>
        <time>2021-03-20T22:22:04Z</time>
      </trkpt>
      <trkpt lat="51.8439" lon="4.17096">
        <ele>-1.61</ele>
        <time>2021-03-20T22:22:13Z</time>
      </trkpt>
      <trkpt lat="51.84475" lon="4.17301">
        <ele>-0.16</ele>
        <time>2021-03-20T22:22:22Z</time>
      </trkpt>
      <trkpt lat="51.84556" lon="4.1747">
        <ele>-1.97</ele>
        <time>2021-03-20T22:22:31Z</time>
      </trkpt>
      <trkpt lat="51.84571" lon="4.17507">
        <ele>-0.46</ele>
        <time>2021-03-20T22:22:39Z</time>
      </trkpt>
      <trkpt lat="51.84604" lon="4.17583">
        <ele>-1.73</ele>
        <time>2021-03-20T22:22:48Z</time>
      </trkpt>
      <trkpt lat="51.84643" lon="4.17693">
        <ele>-0.15</ele>
        <time>2021-03-20T22:22:57Z</time>
      </trkpt>
      <trkpt lat="51.84696" lon="4.17816">
        <ele>-0.63</ele>
        <time>2021-03-20T22:23:06Z</time>
      </trkpt>
      <trkpt lat="51.84704" lon="4.17831">
        <ele>-0.41</ele>
        <time>2021-03-20T22:23:15Z</time>
      </trkpt>
      <trkpt lat="51.85033" lon="4.18591">
        <ele>-1.46</ele>
        <time>2021-03-20T22:23:24Z</time>
      </trkpt>
      <trkpt lat="51.85061" lon="4.18661">
        <ele>-2.38</ele>
        <time>2021-03-20T22:23:32Z</time>
      </trkpt>
      <trkpt lat="51.85512" lon="4.19709">
        <ele>-1.77</ele>
        <time>2021-03-20T22:23:41Z</time>
      </trkpt>
      <trkpt lat="51.85529" lon="4.19743">
        <ele>-1.05</ele>
        <time>2021-03-20T22:23:50Z</time>
      </trkpt>
      <trkpt lat="51.85581" lon="4.1983">
        <ele>-2.05</ele>
        <time>2021-03-20T22:23:59Z</time>
      </trkpt>
      <trkpt lat="51.85594" lon="4.19858">
        <ele>-1.44</ele>
        <time>2021-03-20T22:24:08Z</time>
      </trkpt>
      <trkpt lat="51.85616" lon="4.19919">
        <ele>-1.39</ele>
        <time>2021-03-20T22:24:17Z</time>
      </trkpt>
      <trkpt lat="51.8564" lon="4.20002">
        <ele>-0.97</ele>
        <time>2021-03-20T22:24:25Z</time>
      </trkpt>
      <trkpt lat="51.85653" lon="4.20039">
        <ele>0.1</ele>
        <time>2021-03-20T22:24:34Z</time>
      </trkpt>
      <trkpt lat="51.85744" lon="4.20247">
        <ele>-0.71</ele>
        <time>2021-03-20T22:24:43Z</time>
      </trkpt>
      <trkpt lat="51.85839" lon="4.20469">
        <ele>-0.37</ele>
        <time>2021-03-20T22:24:52Z</time>
      </trkpt>
      <trkpt lat="51.8601" lon="4.20862">
        <ele>-1.99</ele>
        <time>2021-03-20T22:25:01Z</time>
      </trkpt>
      <trkpt lat="51.86503" lon="4.22013">
        <ele>-3</ele>
        <time>2021-03-20T22:25:10Z</time>
      </trkpt>
      <trkpt lat="51.86544" lon="4.22089">
        <ele>-3.46</ele>
        <time>2021-03-20T22:25:18Z</time>
      </trkpt>
      <trkpt lat="51.86574" lon="4.22139">
        <ele>-1.37</ele>
        <time>2021-03-20T22:25:27Z</time>
      </trkpt>
      <trkpt lat="51.86596" lon="4.22186">
        <ele>1</ele>
        <time>2021-03-20T22:25:36Z</time>
      </trkpt>
      <trkpt lat="51.8661" lon="4.22227">
        <ele>0.05</ele>
        <time>2021-03-20T22:25:45Z</time>
      </trkpt>
      <trkpt lat="51.86622" lon="4.22269">
        <ele>-0.5</ele>
        <time>2021-03-20T22:25:54Z</time>
      </trkpt>
      <trkpt lat="51.8665" lon="4.22354">
        <ele>-1</ele>
        <time>2021-03-20T22:26:03Z</time>
      </trkpt>
      <trkpt lat="51.86672" lon="4.22407">
        <ele>-0.19</ele>
        <time>2021-03-20T22:26:12Z</time>
      </trkpt>
      <trkpt lat="51.86698" lon="4.22445">
        <ele>-0.12</ele>
        <time>2021-03-20T22:26:20Z</time>
      </trkpt>
      <trkpt lat="51.86719" lon="4.2247">
        <ele>-0.89</ele>
        <time>2021-03-20T22:26:29Z</time>
      </trkpt>
      <trkpt lat="51.86744" lon="4.22519">
        <ele>2.5</ele>
        <time>2021-03-20T22:26:38Z</time>
      </trkpt>
      <trkpt lat="51.86726" lon="4.22538">
        <ele>0.06</ele>
        <time>2021-03-20T22:26:44Z</time>
      </trkpt>
      <trkpt lat="51.86675" lon="4.22595">
        <ele>-0.4</ele>
        <time>2021-03-20T22:26:51Z</time>
      </trkpt>
      <trkpt lat="51.86519" lon="4.22752">
        <ele>-1.35</ele>
        <time>2021-03-20T22:26:57Z</time>
      </trkpt>
      <trkpt lat="51.86384" lon="4.22895">
        <ele>-4</ele>
        <time>2021-03-20T22:27:04Z</time>
      </trkpt>
      <trkpt lat="51.86343" lon="4.22942">
        <ele>-3.09</ele>
        <time>2021-03-20T22:27:10Z</time>
      </trkpt>
      <trkpt lat="51.86294" lon="4.23012">
        <ele>-3.84</ele>
        <time>2021-03-20T22:27:16Z</time>
      </trkpt>
      <trkpt lat="51.86272" lon="4.23051">
        <ele>-4.32</ele>
        <time>2021-03-20T22:27:23Z</time>
      </trkpt>
      <trkpt lat="51.86256" lon="4.23086">
        <ele>-4.77</ele>
        <time>2021-03-20T22:27:29Z</time>
      </trkpt>
      <trkpt lat="51.86237" lon="4.23134">
        <ele>-5.47</ele>
        <time>2021-03-20T22:27:35Z</time>
      </trkpt>
      <trkpt lat="51.86221" lon="4.2318">
        <ele>-6.45</ele>
        <time>2021-03-20T22:27:42Z</time>
      </trkpt>
      <trkpt lat="51.86205" lon="4.23238">
        <ele>-3.75</ele>
        <time>2021-03-20T22:27:48Z</time>
      </trkpt>
      <trkpt lat="51.86134" lon="4.23559">
        <ele>-3</ele>
        <time>2021-03-20T22:27:55Z</time>
      </trkpt>
      <trkpt lat="51.86109" lon="4.23681">
        <ele>-3.06</ele>
        <time>2021-03-20T22:28:01Z</time>
      </trkpt>
      <trkpt lat="51.86076" lon="4.23876">
        <ele>-2.14</ele>
        <time>2021-03-20T22:28:07Z</time>
      </trkpt>
      <trkpt lat="51.86033" lon="4.24143">
        <ele>-0.85</ele>
        <time>2021-03-20T22:28:14Z</time>
      </trkpt>
      <trkpt lat="51.8602" lon="4.24252">
        <ele>1.73</ele>
        <time>2021-03-20T22:28:20Z</time>
      </trkpt>
      <trkpt lat="51.86006" lon="4.24346">
        <ele>0.2</ele>
        <time>2021-03-20T22:28:26Z</time>
      </trkpt>
      <trkpt lat="51.85983" lon="4.24478">
        <ele>-0.08</ele>
        <time>2021-03-20T22:28:33Z</time>
      </trkpt>
      <trkpt lat="51.85964" lon="4.24553">
        <ele>1.65</ele>
        <time>2021-03-20T22:28:39Z</time>
      </trkpt>
      <trkpt lat="51.85914" lon="4.2474">
        <ele>0.44</ele>
        <time>2021-03-20T22:28:45Z</time>
      </trkpt>
      <trkpt lat="51.85858" lon="4.2496">
        <ele>-0.89</ele>
        <time>2021-03-20T22:28:52Z</time>
      </trkpt>
      <trkpt lat="51.85849" lon="4.25033">
        <ele>-1.1</ele>
        <time>2021-03-20T22:28:58Z</time>
      </trkpt>
      <trkpt lat="51.85846" lon="4.25081">
        <ele>-1.44</ele>
        <time>2021-03-20T22:29:05Z</time>
      </trkpt>
      <trkpt lat="51.85845" lon="4.25132">
        <ele>-2.4</ele>
        <time>2021-03-20T22:29:11Z</time>
      </trkpt>
      <trkpt lat="51.85851" lon="4.25253">
        <ele>-1.25</ele>
        <time>2021-03-20T22:29:17Z</time>
      </trkpt>
      <trkpt lat="51.85864" lon="4.25419">
        <ele>-3</ele>
        <time>2021-03-20T22:29:24Z</time>
      </trkpt>
      <trkpt lat="51.85879" lon="4.25545">
        <ele>-0.65</ele>
        <time>2021-03-20T22:29:30Z</time>
      </trkpt>
      <trkpt lat="51.85891" lon="4.25696">
        <ele>-0.06</ele>
        <time>2021-03-20T22:29:36Z</time>
      </trkpt>
      <trkpt lat="51.85894" lon="4.25836">
        <ele>-0.81</ele>
        <time>2021-03-20T22:29:43Z</time>
      </trkpt>
      <trkpt lat="51.85889" lon="4.25957">
        <ele>1.02</ele>
        <time>2021-03-20T22:29:49Z</time>
      </trkpt>
      <trkpt lat="51.85885" lon="4.2604">
        <ele>0.33</ele>
        <time>2021-03-20T22:29:56Z</time>
      </trkpt>
      <trkpt lat="51.85883" lon="4.26225">
        <ele>-2.22</ele>
        <time>2021-03-20T22:30:02Z</time>
      </trkpt>
      <trkpt lat="51.85884" lon="4.26359">
        <ele>-3.19</ele>
        <time>2021-03-20T22:30:08Z</time>
      </trkpt>
      <trkpt lat="51.85887" lon="4.26413">
        <ele>-3.07</ele>
        <time>2021-03-20T22:30:15Z</time>
      </trkpt>
      <trkpt lat="51.85898" lon="4.26527">
        <ele>-2</ele>
        <time>2021-03-20T22:30:21Z</time>
      </trkpt>
      <trkpt lat="51.85905" lon="4.26625">
        <ele>-2.33</ele>
        <time>2021-03-20T22:30:27Z</time>
      </trkpt>
      <trkpt lat="51.85908" lon="4.26728">
        <ele>-3.08</ele>
        <time>2021-03-20T22:30:34Z</time>
      </trkpt>
      <trkpt lat="51.85904" lon="4.27115">
        <ele>-2.92</ele>
        <time>2021-03-20T22:30:40Z</time>
      </trkpt>
      <trkpt lat="51.85905" lon="4.27183">
        <ele>-1.42</ele>
        <time>2021-03-20T22:30:47Z</time>
      </trkpt>
      <trkpt lat="51.85908" lon="4.2728">
        <ele>-1.6</ele>
        <time>2021-03-20T22:30:53Z</time>
      </trkpt>
      <trkpt lat="51.85968" lon="4.28103">
        <ele>-1.05</ele>
        <time>2021-03-20T22:30:59Z</time>
      </trkpt>
      <trkpt lat="51.85975" lon="4.28206">
        <ele>1.33</ele>
        <time>2021-03-20T22:31:06Z</time>
      </trkpt>
      <trkpt lat="51.85976" lon="4.28264">
        <ele>1.05</ele>
        <time>2021-03-20T22:31:12Z</time>
      </trkpt>
      <trkpt lat="51.85976" lon="4.28385">
        <ele>1.86</ele>
        <time>2021-03-20T22:31:18Z</time>
      </trkpt>
      <trkpt lat="51.85969" lon="4.28503">
        <ele>-4.77</ele>
        <time>2021-03-20T22:31:25Z</time>
      </trkpt>
      <trkpt lat="51.85912" lon="4.29072">
        <ele>-0.16</ele>
        <time>2021-03-20T22:31:31Z</time>
      </trkpt>
      <trkpt lat="51.85896" lon="4.29214">
        <ele>-4.06</ele>
        <time>2021-03-20T22:31:37Z</time>
      </trkpt>
      <trkpt lat="51.85886" lon="4.29316">
        <ele>-1.88</ele>
        <time>2021-03-20T22:31:44Z</time>
      </trkpt>
      <trkpt lat="51.85874" lon="4.29455">
        <ele>1.2</ele>
        <time>2021-03-20T22:31:50Z</time>
      </trkpt>
      <trkpt lat="51.85848" lon="4.29727">
        <ele>-0.9</ele>
        <time>2021-03-20T22:31:57Z</time>
      </trkpt>
      <trkpt lat="51.85842" lon="4.29763">
        <ele>-0.19</ele>
        <time>2021-03-20T22:32:03Z</time>
      </trkpt>
      <trkpt lat="51.8582" lon="4.29886">
        <ele>-0.37</ele>
        <time>2021-03-20T22:32:09Z</time>
      </trkpt>
      <trkpt lat="51.85797" lon="4.29962">
        <ele>-1.48</ele>
        <time>2021-03-20T22:32:16Z</time>
      </trkpt>
      <trkpt lat="51.85769" lon="4.30033">
        <ele>1.13</ele>
        <time>2021-03-20T22:32:22Z</time>
      </trkpt>
      <trkpt lat="51.85757" lon="4.30058">
        <ele>1.17</ele>
        <time>2021-03-20T22:32:28Z</time>
      </trkpt>
      <trkpt lat="51.85732" lon="4.30105">
        <ele>-0.13</ele>
        <time>2021-03-20T22:32:35Z</time>
      </trkpt>
      <trkpt lat="51.8567" lon="4.30199">
        <ele>-0.16</ele>
        <time>2021-03-20T22:32:41Z</time>
      </trkpt>
      <trkpt lat="51.8567" lon="4.30217">
        <ele>-0.83</ele>
        <time>2021-03-20T22:32:46Z</time>
      </trkpt>
      <trkpt lat="51.8568" lon="4.30242">
        <ele>-1</ele>
        <time>2021-03-20T22:32:51Z</time>
      </trkpt>
      <trkpt lat="51.85794" lon="4.3047">
        <ele>-3.04</ele>
        <time>2021-03-20T22:32:56Z</time>
      </trkpt>
      <trkpt lat="51.85811" lon="4.305">
        <ele>-1.81</ele>
        <time>2021-03-20T22:33:01Z</time>
      </trkpt>
      <trkpt lat="51.85844" lon="4.3055">
        <ele>1.27</ele>
        <time>2021-03-20T22:33:07Z</time>
      </trkpt>
      <trkpt lat="51.85876" lon="4.3059">
        <ele>2.37</ele>
        <time>2021-03-20T22:33:12Z</time>
      </trkpt>
      <trkpt lat="51.85936" lon="4.30652">
        <ele>0.48</ele>
        <time>2021-03-20T22:33:17Z</time>
      </trkpt>
      <trkpt lat="51.85977" lon="4.30685">
        <ele>-1.08</ele>
        <time>2021-03-20T22:33:22Z</time>
      </trkpt>
      <trkpt lat="51.86016" lon="4.3071">
        <ele>3.58</ele>
        <time>2021-03-20T22:33:27Z</time>
      </trkpt>
      <trkpt lat="51.86056" lon="4.30731">
        <ele>5.99</ele>
        <time>2021-03-20T22:33:32Z</time>
      </trkpt>
      <trkpt lat="51.8611" lon="4.30749">
        <ele>2.16</ele>
        <time>2021-03-20T22:33:37Z</time>
      </trkpt>
      <trkpt lat="51.86163" lon="4.30758">
        <ele>0.71</ele>
        <time>2021-03-20T22:33:42Z</time>
      </trkpt>
      <trkpt lat="51.86219" lon="4.3076">
        <ele>5.35</ele>
        <time>2021-03-20T22:33:47Z</time>
      </trkpt>
      <trkpt lat="51.8639" lon="4.30759">
        <ele>3.66</ele>
        <time>2021-03-20T22:33:52Z</time>
      </trkpt>
      <trkpt lat="51.86698" lon="4.30749">
        <ele>-0.92</ele>
        <time>2021-03-20T22:33:57Z</time>
      </trkpt>
      <trkpt lat="51.86766" lon="4.30751">
        <ele>-1.9</ele>
        <time>2021-03-20T22:34:02Z</time>
      </trkpt>
      <trkpt lat="51.86776" lon="4.30755">
        <ele>-1.81</ele>
        <time>2021-03-20T22:34:10Z</time>
      </trkpt>
      <trkpt lat="51.86781" lon="4.3076">
        <ele>-1.76</ele>
        <time>2021-03-20T22:34:17Z</time>
      </trkpt>
      <trkpt lat="51.86786" lon="4.30769">
        <ele>-1.68</ele>
        <time>2021-03-20T22:34:25Z</time>
      </trkpt>
      <trkpt lat="51.86789" lon="4.30785">
        <ele>-1.57</ele>
        <time>2021-03-20T22:34:33Z</time>
      </trkpt>
      <trkpt lat="51.86803" lon="4.31006">
        <ele>0.18</ele>
        <time>2021-03-20T22:34:40Z</time>
      </trkpt>
      <trkpt lat="51.86811" lon="4.31088">
        <ele>0.84</ele>
        <time>2021-03-20T22:34:48Z</time>
      </trkpt>
      <trkpt lat="51.86827" lon="4.31196">
        <ele>1.73</ele>
        <time>2021-03-20T22:34:55Z</time>
      </trkpt>
      <trkpt lat="51.86868" lon="4.31413">
        <ele>3.5</ele>
        <time>2021-03-20T22:35:03Z</time>
      </trkpt>
      <trkpt lat="51.86879" lon="4.31484">
        <ele>4.08</ele>
        <time>2021-03-20T22:35:10Z</time>
      </trkpt>
      <trkpt lat="51.86897" lon="4.3164">
        <ele>5.35</ele>
        <time>2021-03-20T22:35:18Z</time>
      </trkpt>
      <trkpt lat="51.86913" lon="4.31809">
        <ele>6.72</ele>
        <time>2021-03-20T22:35:25Z</time>
      </trkpt>
      <trkpt lat="51.86925" lon="4.31976">
        <ele>5.25</ele>
        <time>2021-03-20T22:35:33Z</time>
      </trkpt>
      <trkpt lat="51.86936" lon="4.32187">
        <ele>2.93</ele>
        <time>2021-03-20T22:35:41Z</time>
      </trkpt>
      <trkpt lat="51.86938" lon="4.32315">
        <ele>0.64</ele>
        <time>2021-03-20T22:35:48Z</time>
      </trkpt>
      <trkpt lat="51.86957" lon="4.32423">
        <ele>3.5</ele>
        <time>2021-03-20T22:35:56Z</time>
      </trkpt>
      <trkpt lat="51.86967" lon="4.32469">
        <ele>3.37</ele>
        <time>2021-03-20T22:36:03Z</time>
      </trkpt>
      <trkpt lat="51.87029" lon="4.32691">
        <ele>3.36</ele>
        <time>2021-03-20T22:36:11Z</time>
      </trkpt>
      <trkpt lat="51.87053" lon="4.32789">
        <ele>3.36</ele>
        <time>2021-03-20T22:36:18Z</time>
      </trkpt>
      <trkpt lat="51.87166" lon="4.33321">
        <ele>3.36</ele>
        <time>2021-03-20T22:36:26Z</time>
      </trkpt>
      <trkpt lat="51.87176" lon="4.33383">
        <ele>3.36</ele>
        <time>2021-03-20T22:36:33Z</time>
      </trkpt>
      <trkpt lat="51.87182" lon="4.33449">
        <ele>3.36</ele>
        <time>2021-03-20T22:36:41Z</time>
      </trkpt>
      <trkpt lat="51.87183" lon="4.33488">
        <ele>3.36</ele>
        <time>2021-03-20T22:36:49Z</time>
      </trkpt>
      <trkpt lat="51.8718" lon="4.3363">
        <ele>3.36</ele>
        <time>2021-03-20T22:36:56Z</time>
      </trkpt>
      <trkpt lat="51.87184" lon="4.33732">
        <ele>3.36</ele>
        <time>2021-03-20T22:37:04Z</time>
      </trkpt>
      <trkpt lat="51.87197" lon="4.33813">
        <ele>3.29</ele>
        <time>2021-03-20T22:37:11Z</time>
      </trkpt>
      <trkpt lat="51.8722" lon="4.33899">
        <ele>-1.81</ele>
        <time>2021-03-20T22:37:19Z</time>
      </trkpt>
      <trkpt lat="51.87301" lon="4.34157">
        <ele>-1.15</ele>
        <time>2021-03-20T22:37:26Z</time>
      </trkpt>
      <trkpt lat="51.87366" lon="4.34388">
        <ele>3.03</ele>
        <time>2021-03-20T22:37:34Z</time>
      </trkpt>
      <trkpt lat="51.87412" lon="4.34526">
        <ele>-2.73</ele>
        <time>2021-03-20T22:37:41Z</time>
      </trkpt>
      <trkpt lat="51.87452" lon="4.34686">
        <ele>3.65</ele>
        <time>2021-03-20T22:37:49Z</time>
      </trkpt>
      <trkpt lat="51.87485" lon="4.34863">
        <ele>2.43</ele>
        <time>2021-03-20T22:37:57Z</time>
      </trkpt>
      <trkpt lat="51.87507" lon="4.35005">
        <ele>8.53</ele>
        <time>2021-03-20T22:38:04Z</time>
      </trkpt>
      <trkpt lat="51.87521" lon="4.35122">
        <ele>7.16</ele>
        <time>2021-03-20T22:38:12Z</time>
      </trkpt>
      <trkpt lat="51.87586" lon="4.36031">
        <ele>4.12</ele>
        <time>2021-03-20T22:38:19Z</time>
      </trkpt>
      <trkpt lat="51.87594" lon="4.36184">
        <ele>3.37</ele>
        <time>2021-03-20T22:38:27Z</time>
      </trkpt>
      <trkpt lat="51.87588" lon="4.36343">
        <ele>4</ele>
        <time>2021-03-20T22:38:32Z</time>
      </trkpt>
      <trkpt lat="51.87568" lon="4.36767">
        <ele>1.86</ele>
        <time>2021-03-20T22:38:38Z</time>
      </trkpt>
      <trkpt lat="51.87567" lon="4.3684">
        <ele>-0.3</ele>
        <time>2021-03-20T22:38:43Z</time>
      </trkpt>
      <trkpt lat="51.87552" lon="4.36996">
        <ele>-3.76</ele>
        <time>2021-03-20T22:38:49Z</time>
      </trkpt>
      <trkpt lat="51.87542" lon="4.37081">
        <ele>-3</ele>
        <time>2021-03-20T22:38:55Z</time>
      </trkpt>
      <trkpt lat="51.87523" lon="4.37182">
        <ele>-3.82</ele>
        <time>2021-03-20T22:39:00Z</time>
      </trkpt>
      <trkpt lat="51.875" lon="4.37273">
        <ele>-4.01</ele>
        <time>2021-03-20T22:39:06Z</time>
      </trkpt>
      <trkpt lat="51.87453" lon="4.37426">
        <ele>0.4</ele>
        <time>2021-03-20T22:39:11Z</time>
      </trkpt>
      <trkpt lat="51.87433" lon="4.375">
        <ele>2.97</ele>
        <time>2021-03-20T22:39:17Z</time>
      </trkpt>
      <trkpt lat="51.87401" lon="4.37668">
        <ele>-1.58</ele>
        <time>2021-03-20T22:39:22Z</time>
      </trkpt>
      <trkpt lat="51.87385" lon="4.37742">
        <ele>-2.26</ele>
        <time>2021-03-20T22:39:28Z</time>
      </trkpt>
      <trkpt lat="51.87359" lon="4.37823">
        <ele>1.3</ele>
        <time>2021-03-20T22:39:33Z</time>
      </trkpt>
      <trkpt lat="51.87336" lon="4.37887">
        <ele>0.96</ele>
        <time>2021-03-20T22:39:39Z</time>
      </trkpt>
      <trkpt lat="51.87322" lon="4.37937">
        <ele>-1.14</ele>
        <time>2021-03-20T22:39:43Z</time>
      </trkpt>
      <trkpt lat="51.87264" lon="4.38118">
        <ele>2.89</ele>
        <time>2021-03-20T22:39:48Z</time>
      </trkpt>
      <trkpt lat="51.87252" lon="4.38163">
        <ele>1.15</ele>
        <time>2021-03-20T22:39:52Z</time>
      </trkpt>
      <trkpt lat="51.87243" lon="4.38207">
        <ele>0.47</ele>
        <time>2021-03-20T22:39:57Z</time>
      </trkpt>
      <trkpt lat="51.87236" lon="4.38253">
        <ele>1.23</ele>
        <time>2021-03-20T22:40:01Z</time>
      </trkpt>
      <trkpt lat="51.87233" lon="4.38319">
        <ele>2.5</ele>
        <time>2021-03-20T22:40:06Z</time>
      </trkpt>
      <trkpt lat="51.87234" lon="4.3836">
        <ele>1.84</ele>
        <time>2021-03-20T22:40:10Z</time>
      </trkpt>
      <trkpt lat="51.87237" lon="4.38402">
        <ele>0.83</ele>
        <time>2021-03-20T22:40:15Z</time>
      </trkpt>
      <trkpt lat="51.87247" lon="4.38465">
        <ele>2.2</ele>
        <time>2021-03-20T22:40:19Z</time>
      </trkpt>
      <trkpt lat="51.87262" lon="4.38521">
        <ele>0.65</ele>
        <time>2021-03-20T22:40:24Z</time>
      </trkpt>
      <trkpt lat="51.87272" lon="4.38548">
        <ele>2.83</ele>
        <time>2021-03-20T22:40:28Z</time>
      </trkpt>
      <trkpt lat="51.87289" lon="4.38589">
        <ele>3.62</ele>
        <time>2021-03-20T22:40:32Z</time>
      </trkpt>
      <trkpt lat="51.87307" lon="4.38626">
        <ele>4.33</ele>
        <time>2021-03-20T22:40:37Z</time>
      </trkpt>
      <trkpt lat="51.87339" lon="4.38675">
        <ele>5.35</ele>
        <time>2021-03-20T22:40:41Z</time>
      </trkpt>
      <trkpt lat="51.87366" lon="4.38705">
        <ele>6.07</ele>
        <time>2021-03-20T22:40:46Z</time>
      </trkpt>
      <trkpt lat="51.87402" lon="4.38735">
        <ele>4.88</ele>
        <time>2021-03-20T22:40:50Z</time>
      </trkpt>
      <trkpt lat="51.87434" lon="4.38754">
        <ele>2.52</ele>
        <time>2021-03-20T22:40:55Z</time>
      </trkpt>
      <trkpt lat="51.87482" lon="4.38771">
        <ele>4.27</ele>
        <time>2021-03-20T22:40:59Z</time>
      </trkpt>
      <trkpt lat="51.87542" lon="4.38773">
        <ele>5.15</ele>
        <time>2021-03-20T22:41:04Z</time>
      </trkpt>
      <trkpt lat="51.87602" lon="4.3875">
        <ele>5.33</ele>
        <time>2021-03-20T22:41:08Z</time>
      </trkpt>
      <trkpt lat="51.87644" lon="4.38723">
        <ele>7.96</ele>
        <time>2021-03-20T22:41:13Z</time>
      </trkpt>
      <trkpt lat="51.87678" lon="4.38694">
        <ele>8.61</ele>
        <time>2021-03-20T22:41:17Z</time>
      </trkpt>
      <trkpt lat="51.87738" lon="4.38649">
        <ele>10.01</ele>
        <time>2021-03-20T22:41:21Z</time>
      </trkpt>
      <trkpt lat="51.87834" lon="4.38555">
        <ele>10.05</ele>
        <time>2021-03-20T22:41:26Z</time>
      </trkpt>
      <trkpt lat="51.87933" lon="4.38468">
        <ele>8</ele>
        <time>2021-03-20T22:41:30Z</time>
      </trkpt>
      <trkpt lat="51.8796" lon="4.38447">
        <ele>9.69</ele>
        <time>2021-03-20T22:41:35Z</time>
      </trkpt>
      <trkpt lat="51.88051" lon="4.38381">
        <ele>6.96</ele>
        <time>2021-03-20T22:41:39Z</time>
      </trkpt>
      <trkpt lat="51.88136" lon="4.38325">
        <ele>5.51</ele>
        <time>2021-03-20T22:41:44Z</time>
      </trkpt>
      <trkpt lat="51.88342" lon="4.38198">
        <ele>6</ele>
        <time>2021-03-20T22:41:48Z</time>
      </trkpt>
      <trkpt lat="51.8846" lon="4.3813">
        <ele>1.36</ele>
        <time>2021-03-20T22:41:53Z</time>
      </trkpt>
      <trkpt lat="51.88635" lon="4.38036">
        <ele>1.95</ele>
        <time>2021-03-20T22:41:57Z</time>
      </trkpt>
      <trkpt lat="51.88807" lon="4.37955">
        <ele>0.07</ele>
        <time>2021-03-20T22:42:02Z</time>
      </trkpt>
      <trkpt lat="51.88916" lon="4.3791">
        <ele>3.27</ele>
        <time>2021-03-20T22:42:06Z</time>
      </trkpt>
      <trkpt lat="51.88955" lon="4.37892">
        <ele>5.26</ele>
        <time>2021-03-20T22:42:14Z</time>
      </trkpt>
      <trkpt lat="51.89032" lon="4.37866">
        <ele>5.13</ele>
        <time>2021-03-20T22:42:23Z</time>
      </trkpt>
      <trkpt lat="51.89186" lon="4.3782">
        <ele>5.34</ele>
        <time>2021-03-20T22:42:31Z</time>
      </trkpt>
      <trkpt lat="51.89267" lon="4.37786">
        <ele>5.38</ele>
        <time>2021-03-20T22:42:39Z</time>
      </trkpt>
      <trkpt lat="51.89352" lon="4.37736">
        <ele>3</ele>
        <time>2021-03-20T22:42:48Z</time>
      </trkpt>
      <trkpt lat="51.89401" lon="4.37699">
        <ele>2.4</ele>
        <time>2021-03-20T22:42:56Z</time>
      </trkpt>
      <trkpt lat="51.89443" lon="4.37663">
        <ele>2.01</ele>
        <time>2021-03-20T22:43:04Z</time>
      </trkpt>
      <trkpt lat="51.89486" lon="4.3762">
        <ele>0.65</ele>
        <time>2021-03-20T22:43:12Z</time>
      </trkpt>
      <trkpt lat="51.89542" lon="4.37559">
        <ele>0.5</ele>
        <time>2021-03-20T22:43:21Z</time>
      </trkpt>
      <trkpt lat="51.89675" lon="4.374">
        <ele>0.38</ele>
        <time>2021-03-20T22:43:29Z</time>
      </trkpt>
      <trkpt lat="51.89797" lon="4.37279">
        <ele>0.29</ele>
        <time>2021-03-20T22:43:37Z</time>
      </trkpt>
      <trkpt lat="51.899" lon="4.37199">
        <ele>0.22</ele>
        <time>2021-03-20T22:43:46Z</time>
      </trkpt>
      <trkpt lat="51.89983" lon="4.37148">
        <ele>0.16</ele>
        <time>2021-03-20T22:43:54Z</time>
      </trkpt>
      <trkpt lat="51.90053" lon="4.3712">
        <ele>0.12</ele>
        <time>2021-03-20T22:44:02Z</time>
      </trkpt>
      <trkpt lat="51.90117" lon="4.37098">
        <ele>0.09</ele>
        <time>2021-03-20T22:44:10Z</time>
      </trkpt>
      <trkpt lat="51.90231" lon="4.37072">
        <ele>0.02</ele>
        <time>2021-03-20T22:44:19Z</time>
      </trkpt>
      <trkpt lat="51.90278" lon="4.37072">
        <ele>-0.01</ele>
        <time>2021-03-20T22:44:27Z</time>
      </trkpt>
      <trkpt lat="51.90364" lon="4.37071">
        <ele>-1.12</ele>
        <time>2021-03-20T22:44:35Z</time>
      </trkpt>
      <trkpt lat="51.90522" lon="4.37091">
        <ele>5</ele>
        <time>2021-03-20T22:44:44Z</time>
      </trkpt>
      <trkpt lat="51.90612" lon="4.37099">
        <ele>4.21</ele>
        <time>2021-03-20T22:44:52Z</time>
      </trkpt>
      <trkpt lat="51.9072" lon="4.37098">
        <ele>2.61</ele>
        <time>2021-03-20T22:45:00Z</time>
      </trkpt>
      <trkpt lat="51.90786" lon="4.3709">
        <ele>5.76</ele>
        <time>2021-03-20T22:45:08Z</time>
      </trkpt>
      <trkpt lat="51.90857" lon="4.37075">
        <ele>5.12</ele>
        <time>2021-03-20T22:45:17Z</time>
      </trkpt>
      <trkpt lat="51.90918" lon="4.37057">
        <ele>1.03</ele>
        <time>2021-03-20T22:45:25Z</time>
      </trkpt>
      <trkpt lat="51.91031" lon="4.37011">
        <ele>2.79</ele>
        <time>2021-03-20T22:45:33Z</time>
      </trkpt>
      <trkpt lat="51.9118" lon="4.3693">
        <ele>-5.03</ele>
        <time>2021-03-20T22:45:42Z</time>
      </trkpt>
      <trkpt lat="51.91246" lon="4.36897">
        <ele>-7.51</ele>
        <time>2021-03-20T22:45:50Z</time>
      </trkpt>
      <trkpt lat="51.91294" lon="4.36876">
        <ele>-3.4</ele>
        <time>2021-03-20T22:45:58Z</time>
      </trkpt>
      <trkpt lat="51.91419" lon="4.3683">
        <ele>-2.81</ele>
        <time>2021-03-20T22:46:06Z</time>
      </trkpt>
      <trkpt lat="51.91495" lon="4.36798">
        <ele>-4.62</ele>
        <time>2021-03-20T22:46:15Z</time>
      </trkpt>
      <trkpt lat="51.91539" lon="4.36785">
        <ele>-5</ele>
        <time>2021-03-20T22:46:23Z</time>
      </trkpt>
      <trkpt lat="51.91629" lon="4.36753">
        <ele>-3.83</ele>
        <time>2021-03-20T22:46:31Z</time>
      </trkpt>
      <trkpt lat="51.91817" lon="4.36698">
        <ele>0.43</ele>
        <time>2021-03-20T22:46:40Z</time>
      </trkpt>
      <trkpt lat="51.9191" lon="4.36674">
        <ele>1.23</ele>
        <time>2021-03-20T22:46:48Z</time>
      </trkpt>
      <trkpt lat="51.92121" lon="4.36642">
        <ele>0.95</ele>
        <time>2021-03-20T22:46:56Z</time>
      </trkpt>
      <trkpt lat="51.92297" lon="4.36612">
        <ele>2.65</ele>
        <time>2021-03-20T22:47:04Z</time>
      </trkpt>
      <trkpt lat="51.92514" lon="4.36586">
        <ele>0.29</ele>
        <time>2021-03-20T22:47:13Z</time>
      </trkpt>
      <trkpt lat="51.92713" lon="4.36552">
        <ele>6.67</ele>
        <time>2021-03-20T22:47:21Z</time>
      </trkpt>
      <trkpt lat="51.92857" lon="4.36515">
        <ele>8.99</ele>
        <time>2021-03-20T22:47:29Z</time>
      </trkpt>
      <trkpt lat="51.92923" lon="4.36502">
        <ele>8.52</ele>
        <time>2021-03-20T22:47:38Z</time>
      </trkpt>
      <trkpt lat="51.93014" lon="4.36485">
        <ele>6.99</ele>
        <time>2021-03-20T22:47:46Z</time>
      </trkpt>
      <trkpt lat="51.93113" lon="4.3647">
        <ele>6.18</ele>
        <time>2021-03-20T22:47:54Z</time>
      </trkpt>
      <trkpt lat="51.93188" lon="4.36459">
        <ele>5.77</ele>
        <time>2021-03-20T22:48:02Z</time>
      </trkpt>
      <trkpt lat="51.9334" lon="4.36428">
        <ele>4.95</ele>
        <time>2021-03-20T22:48:11Z</time>
      </trkpt>
      <trkpt lat="51.9346" lon="4.36389">
        <ele>4.28</ele>
        <time>2021-03-20T22:48:19Z</time>
      </trkpt>
      <trkpt lat="51.93613" lon="4.36323">
        <ele>3.41</ele>
        <time>2021-03-20T22:48:27Z</time>
      </trkpt>
      <trkpt lat="51.93766" lon="4.3624">
        <ele>2.5</ele>
        <time>2021-03-20T22:48:36Z</time>
      </trkpt>
      <trkpt lat="51.93917" lon="4.36142">
        <ele>1.56</ele>
        <time>2021-03-20T22:48:44Z</time>
      </trkpt>
      <trkpt lat="51.94099" lon="4.36016">
        <ele>0.39</ele>
        <time>2021-03-20T22:48:52Z</time>
      </trkpt>
      <trkpt lat="51.94466" lon="4.35749">
        <ele>-2</ele>
        <time>2021-03-20T22:49:00Z</time>
      </trkpt>
      <trkpt lat="51.94957" lon="4.35395">
        <ele>-4.91</ele>
        <time>2021-03-20T22:49:09Z</time>
      </trkpt>
      <trkpt lat="51.9512" lon="4.35271">
        <ele>-3</ele>
        <time>2021-03-20T22:49:17Z</time>
      </trkpt>
      <trkpt lat="51.95203" lon="4.35206">
        <ele>-4.7</ele>
        <time>2021-03-20T22:49:25Z</time>
      </trkpt>
      <trkpt lat="51.95455" lon="4.35018">
        <ele>-4</ele>
        <time>2021-03-20T22:49:34Z</time>
      </trkpt>
      <trkpt lat="51.95561" lon="4.34944">
        <ele>-2.83</ele>
        <time>2021-03-20T22:49:42Z</time>
      </trkpt>
      <trkpt lat="51.95687" lon="4.34862">
        <ele>-2.99</ele>
        <time>2021-03-20T22:49:50Z</time>
      </trkpt>
      <trkpt lat="51.95765" lon="4.34815">
        <ele>-3.84</ele>
        <time>2021-03-20T22:49:58Z</time>
      </trkpt>
      <trkpt lat="51.95944" lon="4.34711">
        <ele>-5</ele>
        <time>2021-03-20T22:50:07Z</time>
      </trkpt>
      <trkpt lat="51.96101" lon="4.34625">
        <ele>-3.64</ele>
        <time>2021-03-20T22:50:15Z</time>
      </trkpt>
      <trkpt lat="51.9656" lon="4.34395">
        <ele>-4.17</ele>
        <time>2021-03-20T22:50:23Z</time>
      </trkpt>
      <trkpt lat="51.96688" lon="4.34324">
        <ele>-4.14</ele>
        <time>2021-03-20T22:50:32Z</time>
      </trkpt>
      <trkpt lat="51.968" lon="4.34256">
        <ele>-3.39</ele>
        <time>2021-03-20T22:50:40Z</time>
      </trkpt>
      <trkpt lat="51.96895" lon="4.34194">
        <ele>-4</ele>
        <time>2021-03-20T22:50:48Z</time>
      </trkpt>
      <trkpt lat="51.9699" lon="4.34128">
        <ele>-3.64</ele>
        <time>2021-03-20T22:50:56Z</time>
      </trkpt>
      <trkpt lat="51.97143" lon="4.34011">
        <ele>-5</ele>
        <time>2021-03-20T22:51:05Z</time>
      </trkpt>
      <trkpt lat="51.97325" lon="4.33859">
        <ele>-4</ele>
        <time>2021-03-20T22:51:13Z</time>
      </trkpt>
      <trkpt lat="51.9784" lon="4.33386">
        <ele>-4.31</ele>
        <time>2021-03-20T22:51:21Z</time>
      </trkpt>
      <trkpt lat="51.98154" lon="4.33105">
        <ele>-5.33</ele>
        <time>2021-03-20T22:51:30Z</time>
      </trkpt>
      <trkpt lat="51.98641" lon="4.32657">
        <ele>-3.2</ele>
        <time>2021-03-20T22:51:38Z</time>
      </trkpt>
      <trkpt lat="51.98945" lon="4.32372">
        <ele>-5.98</ele>
        <time>2021-03-20T22:51:46Z</time>
      </trkpt>
      <trkpt lat="51.98954" lon="4.32364">
        <ele>-5.7</ele>
        <time>2021-03-20T22:51:54Z</time>
      </trkpt>
      <trkpt lat="51.98962" lon="4.32357">
        <ele>-5.37</ele>
        <time>2021-03-20T22:52:03Z</time>
      </trkpt>
      <trkpt lat="51.98975" lon="4.32344">
        <ele>-4.89</ele>
        <time>2021-03-20T22:52:11Z</time>
      </trkpt>
      <trkpt lat="51.98979" lon="4.3234">
        <ele>-4.75</ele>
        <time>2021-03-20T22:52:19Z</time>
      </trkpt>
      <trkpt lat="51.98989" lon="4.32331">
        <ele>-4.47</ele>
        <time>2021-03-20T22:52:28Z</time>
      </trkpt>
      <trkpt lat="51.99613" lon="4.31745">
        <ele>-1.84</ele>
        <time>2021-03-20T22:52:36Z</time>
      </trkpt>
      <trkpt lat="51.99757" lon="4.31604">
        <ele>-3.18</ele>
        <time>2021-03-20T22:52:44Z</time>
      </trkpt>
      <trkpt lat="51.99915" lon="4.31452">
        <ele>-2.94</ele>
        <time>2021-03-20T22:52:52Z</time>
      </trkpt>
      <trkpt lat="52.00009" lon="4.31369">
        <ele>-4.29</ele>
        <time>2021-03-20T22:53:01Z</time>
      </trkpt>
      <trkpt lat="52.00087" lon="4.31305">
        <ele>-3</ele>
        <time>2021-03-20T22:53:09Z</time>
      </trkpt>
      <trkpt lat="52.00212" lon="4.31217">
        <ele>-4</ele>
        <time>2021-03-20T22:53:17Z</time>
      </trkpt>
      <trkpt lat="52.003" lon="4.31169">
        <ele>-3.43</ele>
        <time>2021-03-20T22:53:26Z</time>
      </trkpt>
      <trkpt lat="52.00345" lon="4.31146">
        <ele>-3.74</ele>
        <time>2021-03-20T22:53:34Z</time>
      </trkpt>
      <trkpt lat="52.00409" lon="4.31121">
        <ele>-4.91</ele>
        <time>2021-03-20T22:53:42Z</time>
      </trkpt>
      <trkpt lat="52.00527" lon="4.31085">
        <ele>-3.92</ele>
        <time>2021-03-20T22:53:50Z</time>
      </trkpt>
      <trkpt lat="52.00568" lon="4.31077">
        <ele>-3.31</ele>
        <time>2021-03-20T22:53:59Z</time>
      </trkpt>
      <trkpt lat="52.00608" lon="4.31073">
        <ele>-3.82</ele>
        <time>2021-03-20T22:54:07Z</time>
      </trkpt>
      <trkpt lat="52.00684" lon="4.31068">
        <ele>-3.73</ele>
        <time>2021-03-20T22:54:15Z</time>
      </trkpt>
      <trkpt lat="52.0075" lon="4.3107">
        <ele>-4.01</ele>
        <time>2021-03-20T22:54:24Z</time>
      </trkpt>
      <trkpt lat="52.00839" lon="4.3108">
        <ele>-5</ele>
        <time>2021-03-20T22:54:32Z</time>
      </trkpt>
      <trkpt lat="52.00915" lon="4.31096">
        <ele>-4.53</ele>
        <time>2021-03-20T22:54:40Z</time>
      </trkpt>
      <trkpt lat="52.00987" lon="4.31119">
        <ele>-2.27</ele>
        <time>2021-03-20T22:54:48Z</time>
      </trkpt>
      <trkpt lat="52.01045" lon="4.31141">
        <ele>-1.43</ele>
        <time>2021-03-20T22:54:57Z</time>
      </trkpt>
      <trkpt lat="52.01102" lon="4.31168">
        <ele>-2.43</ele>
        <time>2021-03-20T22:55:05Z</time>
      </trkpt>
      <trkpt lat="52.01171" lon="4.31207">
        <ele>-6.65</ele>
        <time>2021-03-20T22:55:13Z</time>
      </trkpt>
      <trkpt lat="52.01295" lon="4.31285">
        <ele>-2.15</ele>
        <time>2021-03-20T22:55:22Z</time>
      </trkpt>
      <trkpt lat="52.01421" lon="4.31375">
        <ele>-4.51</ele>
        <time>2021-03-20T22:55:30Z</time>
      </trkpt>
      <trkpt lat="52.01487" lon="4.31426">
        <ele>-5.34</ele>
        <time>2021-03-20T22:55:38Z</time>
      </trkpt>
      <trkpt lat="52.01942" lon="4.31756">
        <ele>-2.19</ele>
        <time>2021-03-20T22:55:46Z</time>
      </trkpt>
      <trkpt lat="52.02282" lon="4.32004">
        <ele>-5.68</ele>
        <time>2021-03-20T22:55:55Z</time>
      </trkpt>
      <trkpt lat="52.02379" lon="4.32082">
        <ele>-2</ele>
        <time>2021-03-20T22:56:03Z</time>
      </trkpt>
      <trkpt lat="52.02471" lon="4.3216">
        <ele>-10.42</ele>
        <time>2021-03-20T22:56:11Z</time>
      </trkpt>
      <trkpt lat="52.02563" lon="4.32245">
        <ele>-7.34</ele>
        <time>2021-03-20T22:56:20Z</time>
      </trkpt>
      <trkpt lat="52.02628" lon="4.32308">
        <ele>-9.17</ele>
        <time>2021-03-20T22:56:28Z</time>
      </trkpt>
      <trkpt lat="52.02813" lon="4.32503">
        <ele>-4.62</ele>
        <time>2021-03-20T22:56:36Z</time>
      </trkpt>
      <trkpt lat="52.02913" lon="4.32614">
        <ele>-6.64</ele>
        <time>2021-03-20T22:56:44Z</time>
      </trkpt>
      <trkpt lat="52.03123" lon="4.32881">
        <ele>-3.87</ele>
        <time>2021-03-20T22:56:53Z</time>
      </trkpt>
      <trkpt lat="52.03183" lon="4.32963">
        <ele>-1</ele>
        <time>2021-03-20T22:57:01Z</time>
      </trkpt>
      <trkpt lat="52.03337" lon="4.33193">
        <ele>0.81</ele>
        <time>2021-03-20T22:57:09Z</time>
      </trkpt>
      <trkpt lat="52.0356" lon="4.33538">
        <ele>4.79</ele>
        <time>2021-03-20T22:57:18Z</time>
      </trkpt>
      <trkpt lat="52.03585" lon="4.33598">
        <ele>6.41</ele>
        <time>2021-03-20T22:57:23Z</time>
      </trkpt>
      <trkpt lat="52.03702" lon="4.33798">
        <ele>4.26</ele>
        <time>2021-03-20T22:57:29Z</time>
      </trkpt>
      <trkpt lat="52.03727" lon="4.33836">
        <ele>3.21</ele>
        <time>2021-03-20T22:57:34Z</time>
      </trkpt>
      <trkpt lat="52.03828" lon="4.33994">
        <ele>10.43</ele>
        <time>2021-03-20T22:57:45Z</time>
      </trkpt>
      <trkpt lat="52.04054" lon="4.34386">
        <ele>6.02</ele>
        <time>2021-03-20T22:57:55Z</time>
      </trkpt>
      <trkpt lat="52.04115" lon="4.34499">
        <ele>10.95</ele>
        <time>2021-03-20T22:58:06Z</time>
      </trkpt>
      <trkpt lat="52.04167" lon="4.34599">
        <ele>5.87</ele>
        <time>2021-03-20T22:58:16Z</time>
      </trkpt>
      <trkpt lat="52.0425" lon="4.34762">
        <ele>6.58</ele>
        <time>2021-03-20T22:58:28Z</time>
      </trkpt>
      <trkpt lat="52.04315" lon="4.34896">
        <ele>4.1</ele>
        <time>2021-03-20T22:58:40Z</time>
      </trkpt>
      <trkpt lat="52.04397" lon="4.35084">
        <ele>0.98</ele>
        <time>2021-03-20T22:58:51Z</time>
      </trkpt>
      <trkpt lat="52.04472" lon="4.35244">
        <ele>2</ele>
        <time>2021-03-20T22:59:03Z</time>
      </trkpt>
      <trkpt lat="52.04559" lon="4.35413">
        <ele>2.36</ele>
        <time>2021-03-20T22:59:14Z</time>
      </trkpt>
      <trkpt lat="52.04584" lon="4.35455">
        <ele>1.61</ele>
        <time>2021-03-20T22:59:26Z</time>
      </trkpt>
      <trkpt lat="52.04604" lon="4.35497">
        <ele>0.76</ele>
        <time>2021-03-20T22:59:37Z</time>
      </trkpt>
      <trkpt lat="52.04682" lon="4.35643">
        <ele>0.08</ele>
        <time>2021-03-20T22:59:49Z</time>
      </trkpt>
      <trkpt lat="52.04702" lon="4.35679">
        <ele>-1.59</ele>
        <time>2021-03-20T23:00:00Z</time>
      </trkpt>
      <trkpt lat="52.04828" lon="4.35884">
        <ele>-1.16</ele>
        <time>2021-03-20T23:00:12Z</time>
      </trkpt>
      <trkpt lat="52.04958" lon="4.36072">
        <ele>-0.01</ele>
        <time>2021-03-20T23:00:23Z</time>
      </trkpt>
      <trkpt lat="52.05165" lon="4.3634">
        <ele>-0.94</ele>
        <time>2021-03-20T23:00:35Z</time>
      </trkpt>
      <trkpt lat="52.05233" lon="4.36417">
        <ele>-2.39</ele>
        <time>2021-03-20T23:00:46Z</time>
      </trkpt>
      <trkpt lat="52.05274" lon="4.36469">
        <ele>-2.01</ele>
        <time>2021-03-20T23:00:58Z</time>
      </trkpt>
      <trkpt lat="52.06005" lon="4.37339">
        <ele>6.82</ele>
        <time>2021-03-20T23:01:09Z</time>
      </trkpt>
      <trkpt lat="52.06408" lon="4.37805">
        <ele>2</ele>
        <time>2021-03-20T23:01:21Z</time>
      </trkpt>
      <trkpt lat="52.06508" lon="4.37924">
        <ele>1.22</ele>
        <time>2021-03-20T23:01:32Z</time>
      </trkpt>
      <trkpt lat="52.06564" lon="4.38002">
        <ele>-5</ele>
        <time>2021-03-20T23:01:41Z</time>
      </trkpt>
      <trkpt lat="52.06624" lon="4.38081">
        <ele>-1.08</ele>
        <time>2021-03-20T23:01:50Z</time>
      </trkpt>
      <trkpt lat="52.06692" lon="4.38182">
        <ele>-2</ele>
        <time>2021-03-20T23:01:58Z</time>
      </trkpt>
      <trkpt lat="52.06857" lon="4.38464">
        <ele>-0.87</ele>
        <time>2021-03-20T23:02:07Z</time>
      </trkpt>
      <trkpt lat="52.06917" lon="4.38571">
        <ele>-6</ele>
        <time>2021-03-20T23:02:15Z</time>
      </trkpt>
      <trkpt lat="52.0698" lon="4.38691">
        <ele>-2.74</ele>
        <time>2021-03-20T23:02:24Z</time>
      </trkpt>
      <trkpt lat="52.07035" lon="4.38806">
        <ele>-5.01</ele>
        <time>2021-03-20T23:02:32Z</time>
      </trkpt>
      <trkpt lat="52.07083" lon="4.38916">
        <ele>-6.98</ele>
        <time>2021-03-20T23:02:41Z</time>
      </trkpt>
      <trkpt lat="52.07261" lon="4.39354">
        <ele>-5</ele>
        <time>2021-03-20T23:02:49Z</time>
      </trkpt>
      <trkpt lat="52.07331" lon="4.39536">
        <ele>-5.93</ele>
        <time>2021-03-20T23:02:58Z</time>
      </trkpt>
      <trkpt lat="52.0747" lon="4.39923">
        <ele>-4.78</ele>
        <time>2021-03-20T23:03:10Z</time>
      </trkpt>
      <trkpt lat="52.07524" lon="4.4006">
        <ele>-4</ele>
        <time>2021-03-20T23:03:22Z</time>
      </trkpt>
      <trkpt lat="52.07594" lon="4.40213">
        <ele>-2.65</ele>
        <time>2021-03-20T23:03:35Z</time>
      </trkpt>
      <trkpt lat="52.07677" lon="4.40363">
        <ele>-0.9</ele>
        <time>2021-03-20T23:03:47Z</time>
      </trkpt>
      <trkpt lat="52.07721" lon="4.40435">
        <ele>1.29</ele>
        <time>2021-03-20T23:03:59Z</time>
      </trkpt>
      <trkpt lat="52.07813" lon="4.40571">
        <ele>1.28</ele>
        <time>2021-03-20T23:04:12Z</time>
      </trkpt>
      <trkpt lat="52.07857" lon="4.40617">
        <ele>4.51</ele>
        <time>2021-03-20T23:04:24Z</time>
      </trkpt>
      <trkpt lat="52.079" lon="4.40675">
        <ele>1</ele>
        <time>2021-03-20T23:04:37Z</time>
      </trkpt>
      <trkpt lat="52.08076" lon="4.40893">
        <ele>-3.75</ele>
        <time>2021-03-20T23:04:49Z</time>
      </trkpt>
      <trkpt lat="52.08231" lon="4.4109">
        <ele>-3.62</ele>
        <time>2021-03-20T23:05:01Z</time>
      </trkpt>
      <trkpt lat="52.08336" lon="4.41237">
        <ele>-4.49</ele>
        <time>2021-03-20T23:05:14Z</time>
      </trkpt>
      <trkpt lat="52.08405" lon="4.41341">
        <ele>-4.59</ele>
        <time>2021-03-20T23:05:26Z</time>
      </trkpt>
      <trkpt lat="52.08475" lon="4.41452">
        <ele>-3</ele>
        <time>2021-03-20T23:05:38Z</time>
      </trkpt>
      <trkpt lat="52.08576" lon="4.41629">
        <ele>-5</ele>
        <time>2021-03-20T23:05:51Z</time>
      </trkpt>
      <trkpt lat="52.08832" lon="4.42102">
        <ele>-4.02</ele>
        <time>2021-03-20T23:06:03Z</time>
      </trkpt>
      <trkpt lat="52.09236" lon="4.42857">
        <ele>-4.49</ele>
        <time>2021-03-20T23:06:15Z</time>
      </trkpt>
      <trkpt lat="52.09609" lon="4.43607">
        <ele>-4</ele>
        <time>2021-03-20T23:06:28Z</time>
      </trkpt>
      <trkpt lat="52.10182" lon="4.44766">
        <ele>-4.44</ele>
        <time>2021-03-20T23:06:40Z</time>
      </trkpt>
      <trkpt lat="52.10399" lon="4.4517">
        <ele>-5.57</ele>
        <time>2021-03-20T23:06:52Z</time>
      </trkpt>
      <trkpt lat="52.10496" lon="4.45325">
        <ele>-4.16</ele>
        <time>2021-03-20T23:07:05Z</time>
      </trkpt>
      <trkpt lat="52.10605" lon="4.45489">
        <ele>-0.52</ele>
        <time>2021-03-20T23:07:17Z</time>
      </trkpt>
      <trkpt lat="52.10758" lon="4.45691">
        <ele>-1.67</ele>
        <time>2021-03-20T23:07:30Z</time>
      </trkpt>
      <trkpt lat="52.11093" lon="4.46119">
        <ele>1.05</ele>
        <time>2021-03-20T23:07:42Z</time>
      </trkpt>
      <trkpt lat="52.11169" lon="4.46214">
        <ele>-1.61</ele>
        <time>2021-03-20T23:07:54Z</time>
      </trkpt>
      <trkpt lat="52.11289" lon="4.46354">
        <ele>0.4</ele>
        <time>2021-03-20T23:08:07Z</time>
      </trkpt>
      <trkpt lat="52.11573" lon="4.4671">
        <ele>-1.12</ele>
        <time>2021-03-20T23:08:19Z</time>
      </trkpt>
      <trkpt lat="52.11685" lon="4.46862">
        <ele>-0.69</ele>
        <time>2021-03-20T23:08:31Z</time>
      </trkpt>
      <trkpt lat="52.11887" lon="4.47149">
        <ele>-1.58</ele>
        <time>2021-03-20T23:08:44Z</time>
      </trkpt>
      <trkpt lat="52.12014" lon="4.4734">
        <ele>-1.49</ele>
        <time>2021-03-20T23:08:56Z</time>
      </trkpt>
      <trkpt lat="52.12188" lon="4.47615">
        <ele>-4.24</ele>
        <time>2021-03-20T23:09:08Z</time>
      </trkpt>
      <trkpt lat="52.12285" lon="4.47774">
        <ele>-3.89</ele>
        <time>2021-03-20T23:09:21Z</time>
      </trkpt>
      <trkpt lat="52.12336" lon="4.47876">
        <ele>-0.53</ele>
        <time>2021-03-20T23:09:33Z</time>
      </trkpt>
      <trkpt lat="52.12684" lon="4.48548">
        <ele>-2.9</ele>
        <time>2021-03-20T23:09:46Z</time>
      </trkpt>
      <trkpt lat="52.12752" lon="4.48682">
        <ele>-3.06</ele>
        <time>2021-03-20T23:09:58Z</time>
      </trkpt>
      <trkpt lat="52.12877" lon="4.48949">
        <ele>-0.03</ele>
        <time>2021-03-20T23:10:07Z</time>
      </trkpt>
      <trkpt lat="52.12951" lon="4.49113">
        <ele>-1</ele>
        <time>2021-03-20T23:10:15Z</time>
      </trkpt>
      <trkpt lat="52.13017" lon="4.49261">
        <ele>-1.76</ele>
        <time>2021-03-20T23:10:24Z</time>
      </trkpt>
      <trkpt lat="52.13123" lon="4.49509">
        <time>2021-03-20T23:10:33Z</time>
      </trkpt>
      <trkpt lat="52.13235" lon="4.4974">
        <ele>1.47</ele>
        <time>2021-03-20T23:10:42Z</time>
      </trkpt>
      <trkpt lat="52.13503" lon="4.50266">
        <ele>0.82</ele>
        <time>2021-03-20T23:10:50Z</time>
      </trkpt>
      <trkpt lat="52.13594" lon="4.50439">
        <ele>-2.79</ele>
        <time>2021-03-20T23:10:59Z</time>
      </trkpt>
      <trkpt lat="52.1364" lon="4.50514">
        <ele>-2.96</ele>
        <time>2021-03-20T23:11:08Z</time>
      </trkpt>
      <trkpt lat="52.13719" lon="4.50632">
        <ele>1.07</ele>
        <time>2021-03-20T23:11:17Z</time>
      </trkpt>
      <trkpt lat="52.13814" lon="4.50752">
        <ele>0.04</ele>
        <time>2021-03-20T23:11:28Z</time>
      </trkpt>
      <trkpt lat="52.13867" lon="4.50812">
        <ele>1.22</ele>
        <time>2021-03-20T23:11:39Z</time>
      </trkpt>
      <trkpt lat="52.13963" lon="4.50914">
        <ele>1.66</ele>
        <time>2021-03-20T23:11:50Z</time>
      </trkpt>
      <trkpt lat="52.14217" lon="4.51199">
        <ele>3.48</ele>
        <time>2021-03-20T23:12:01Z</time>
      </trkpt>
      <trkpt lat="52.14265" lon="4.51259">
        <ele>2.39</ele>
        <time>2021-03-20T23:12:12Z</time>
      </trkpt>
      <trkpt lat="52.14322" lon="4.51335">
        <ele>-1.87</ele>
        <time>2021-03-20T23:12:23Z</time>
      </trkpt>
      <trkpt lat="52.14356" lon="4.51385">
        <ele>-1.22</ele>
        <time>2021-03-20T23:12:35Z</time>
      </trkpt>
      <trkpt lat="52.14396" lon="4.51449">
        <ele>-0.58</ele>
        <time>2021-03-20T23:12:46Z</time>
      </trkpt>
      <trkpt lat="52.14442" lon="4.51528">
        <ele>3.92</ele>
        <time>2021-03-20T23:12:57Z</time>
      </trkpt>
      <trkpt lat="52.14487" lon="4.51612">
        <ele>0.52</ele>
        <time>2021-03-20T23:13:08Z</time>
      </trkpt>
      <trkpt lat="52.14558" lon="4.51752">
        <ele>0.82</ele>
        <time>2021-03-20T23:13:19Z</time>
      </trkpt>
      <trkpt lat="52.146" lon="4.51865">
        <ele>1.05</ele>
        <time>2021-03-20T23:13:30Z</time>
      </trkpt>
      <trkpt lat="52.14649" lon="4.52025">
        <ele>1.36</ele>
        <time>2021-03-20T23:13:41Z</time>
      </trkpt>
      <trkpt lat="52.14807" lon="4.5258">
        <ele>2.44</ele>
        <time>2021-03-20T23:13:52Z</time>
      </trkpt>
      <trkpt lat="52.14856" lon="4.52741">
        <ele>2.76</ele>
        <time>2021-03-20T23:14:03Z</time>
      </trkpt>
      <trkpt lat="52.14905" lon="4.52891">
        <ele>3.06</ele>
        <time>2021-03-20T23:14:14Z</time>
      </trkpt>
      <trkpt lat="52.14936" lon="4.52978">
        <ele>3.23</ele>
        <time>2021-03-20T23:14:26Z</time>
      </trkpt>
      <trkpt lat="52.14987" lon="4.5313">
        <ele>4.18</ele>
        <time>2021-03-20T23:14:37Z</time>
      </trkpt>
      <trkpt lat="52.15114" lon="4.5344">
        <ele>-0.55</ele>
        <time>2021-03-20T23:14:48Z</time>
      </trkpt>
      <trkpt lat="52.15211" lon="4.5366">
        <ele>2.6</ele>
        <time>2021-03-20T23:14:59Z</time>
      </trkpt>
      <trkpt lat="52.1563" lon="4.5457">
        <ele>1</ele>
        <time>2021-03-20T23:15:10Z</time>
      </trkpt>
      <trkpt lat="52.15898" lon="4.55117">
        <ele>0.34</ele>
        <time>2021-03-20T23:15:21Z</time>
      </trkpt>
      <trkpt lat="52.16003" lon="4.55305">
        <ele>1</ele>
        <time>2021-03-20T23:15:32Z</time>
      </trkpt>
      <trkpt lat="52.16137" lon="4.55529">
        <ele>-0.16</ele>
        <time>2021-03-20T23:15:43Z</time>
      </trkpt>
      <trkpt lat="52.16297" lon="4.55766">
        <ele>-0.81</ele>
        <time>2021-03-20T23:15:54Z</time>
      </trkpt>
      <trkpt lat="52.16372" lon="4.55867">
        <ele>-0.61</ele>
        <time>2021-03-20T23:16:05Z</time>
      </trkpt>
      <trkpt lat="52.16471" lon="4.5599">
        <ele>-1.35</ele>
        <time>2021-03-20T23:16:17Z</time>
      </trkpt>
      <trkpt lat="52.16645" lon="4.56192">
        <ele>-2.6</ele>
        <time>2021-03-20T23:16:28Z</time>
      </trkpt>
      <trkpt lat="52.16723" lon="4.56276">
        <ele>-0.92</ele>
        <time>2021-03-20T23:16:39Z</time>
      </trkpt>
      <trkpt lat="52.16872" lon="4.56448">
        <ele>0.38</ele>
        <time>2021-03-20T23:16:50Z</time>
      </trkpt>
      <trkpt lat="52.16979" lon="4.56598">
        <ele>-2.24</ele>
        <time>2021-03-20T23:17:01Z</time>
      </trkpt>
      <trkpt lat="52.17124" lon="4.56821">
        <ele>-1.74</ele>
        <time>2021-03-20T23:17:12Z</time>
      </trkpt>
      <trkpt lat="52.1718" lon="4.56922">
        <ele>-2.42</ele>
        <time>2021-03-20T23:17:23Z</time>
      </trkpt>
      <trkpt lat="52.17263" lon="4.57085">
        <ele>-1.95</ele>
        <time>2021-03-20T23:17:34Z</time>
      </trkpt>
      <trkpt lat="52.17354" lon="4.57296">
        <time>2021-03-20T23:17:45Z</time>
      </trkpt>
      <trkpt lat="52.17433" lon="4.57505">
        <ele>-1.67</ele>
        <time>2021-03-20T23:17:56Z</time>
      </trkpt>
      <trkpt lat="52.17546" lon="4.57813">
        <ele>-1.52</ele>
        <time>2021-03-20T23:18:08Z</time>
      </trkpt>
      <trkpt lat="52.17627" lon="4.58024">
        <ele>-1.45</ele>
        <time>2021-03-20T23:18:19Z</time>
      </trkpt>
      <trkpt lat="52.17712" lon="4.5824">
        <ele>-0.38</ele>
        <time>2021-03-20T23:18:30Z</time>
      </trkpt>
      <trkpt lat="52.17864" lon="4.58607">
        <ele>-1.01</ele>
        <time>2021-03-20T23:18:41Z</time>
      </trkpt>
      <trkpt lat="52.17966" lon="4.58846">
        <ele>-1</ele>
        <time>2021-03-20T23:18:52Z</time>
      </trkpt>
      <trkpt lat="52.18152" lon="4.5932">
        <ele>1.24</ele>
        <time>2021-03-20T23:19:03Z</time>
      </trkpt>
      <trkpt lat="52.18223" lon="4.59485">
        <ele>-0.46</ele>
        <time>2021-03-20T23:19:14Z</time>
      </trkpt>
      <trkpt lat="52.18276" lon="4.59596">
        <ele>-3.5</ele>
        <time>2021-03-20T23:19:25Z</time>
      </trkpt>
      <trkpt lat="52.18324" lon="4.59691">
        <ele>-1.34</ele>
        <time>2021-03-20T23:19:36Z</time>
      </trkpt>
      <trkpt lat="52.18359" lon="4.59756">
        <ele>-2.08</ele>
        <time>2021-03-20T23:19:48Z</time>
      </trkpt>
      <trkpt lat="52.18482" lon="4.59957">
        <ele>-2.92</ele>
        <time>2021-03-20T23:19:59Z</time>
      </trkpt>
      <trkpt lat="52.18604" lon="4.60135">
        <ele>-4.25</ele>
        <time>2021-03-20T23:20:10Z</time>
      </trkpt>
      <trkpt lat="52.18777" lon="4.60344">
        <ele>-4.59</ele>
        <time>2021-03-20T23:20:21Z</time>
      </trkpt>
      <trkpt lat="52.18887" lon="4.60457">
        <ele>-2.94</ele>
        <time>2021-03-20T23:20:32Z</time>
      </trkpt>
      <trkpt lat="52.18965" lon="4.60531">
        <ele>-1.89</ele>
        <time>2021-03-20T23:20:43Z</time>
      </trkpt>
      <trkpt lat="52.19016" lon="4.60583">
        <ele>-1.59</ele>
        <time>2021-03-20T23:20:54Z</time>
      </trkpt>
      <trkpt lat="52.1911" lon="4.60665">
        <ele>-3</ele>
        <time>2021-03-20T23:21:05Z</time>
      </trkpt>
      <trkpt lat="52.19226" lon="4.60774">
        <ele>-1.87</ele>
        <time>2021-03-20T23:21:16Z</time>
      </trkpt>
      <trkpt lat="52.1936" lon="4.60897">
        <ele>-2.36</ele>
        <time>2021-03-20T23:21:27Z</time>
      </trkpt>
      <trkpt lat="52.19919" lon="4.6142">
        <ele>-2.86</ele>
        <time>2021-03-20T23:21:39Z</time>
      </trkpt>
      <trkpt lat="52.20705" lon="4.6215">
        <ele>-4.03</ele>
        <time>2021-03-20T23:21:50Z</time>
      </trkpt>
      <trkpt lat="52.20891" lon="4.62307">
        <ele>-2.01</ele>
        <time>2021-03-20T23:22:01Z</time>
      </trkpt>
      <trkpt lat="52.21087" lon="4.62456">
        <ele>-3.7</ele>
        <time>2021-03-20T23:22:12Z</time>
      </trkpt>
      <trkpt lat="52.21215" lon="4.62542">
        <ele>-4.52</ele>
        <time>2021-03-20T23:22:23Z</time>
      </trkpt>
      <trkpt lat="52.21369" lon="4.6264">
        <ele>-3.03</ele>
        <time>2021-03-20T23:22:34Z</time>
      </trkpt>
      <trkpt lat="52.21524" lon="4.62729">
        <ele>-1.89</ele>
        <time>2021-03-20T23:22:45Z</time>
      </trkpt>
      <trkpt lat="52.21609" lon="4.62777">
        <ele>3.95</ele>
        <time>2021-03-20T23:22:56Z</time>
      </trkpt>
      <trkpt lat="52.21768" lon="4.62866">
        <ele>-2</ele>
        <time>2021-03-20T23:23:07Z</time>
      </trkpt>
      <trkpt lat="52.21854" lon="4.62918">
        <ele>-2.37</ele>
        <time>2021-03-20T23:23:18Z</time>
      </trkpt>
      <trkpt lat="52.21907" lon="4.62956">
        <ele>-2.76</ele>
        <time>2021-03-20T23:23:30Z</time>
      </trkpt>
      <trkpt lat="52.22028" lon="4.63057">
        <ele>-2.03</ele>
        <time>2021-03-20T23:23:41Z</time>
      </trkpt>
      <trkpt lat="52.22093" lon="4.63124">
        <ele>-2.1</ele>
        <time>2021-03-20T23:23:52Z</time>
      </trkpt>
      <trkpt lat="52.22191" lon="4.63242">
        <ele>-1.94</ele>
        <time>2021-03-20T23:24:03Z</time>
      </trkpt>
      <trkpt lat="52.2223" lon="4.63293">
        <ele>-2.48</ele>
        <time>2021-03-20T23:24:14Z</time>
      </trkpt>
      <trkpt lat="52.22946" lon="4.64339">
        <ele>-5</ele>
        <time>2021-03-20T23:24:25Z</time>
      </trkpt>
      <trkpt lat="52.23198" lon="4.64699">
        <ele>-5.46</ele>
        <time>2021-03-20T23:24:36Z</time>
      </trkpt>
      <trkpt lat="52.23298" lon="4.64839">
        <ele>-1.26</ele>
        <time>2021-03-20T23:24:47Z</time>
      </trkpt>
      <trkpt lat="52.23433" lon="4.65021">
        <ele>-3.39</ele>
        <time>2021-03-20T23:24:58Z</time>
      </trkpt>
      <trkpt lat="52.23578" lon="4.65206">
        <ele>-3.38</ele>
        <time>2021-03-20T23:25:10Z</time>
      </trkpt>
      <trkpt lat="52.23748" lon="4.65429">
        <ele>-6.5</ele>
        <time>2021-03-20T23:25:21Z</time>
      </trkpt>
      <trkpt lat="52.23836" lon="4.65551">
        <ele>-0.99</ele>
        <time>2021-03-20T23:25:32Z</time>
      </trkpt>
      <trkpt lat="52.24083" lon="4.65904">
        <ele>-3.54</ele>
        <time>2021-03-20T23:25:43Z</time>
      </trkpt>
      <trkpt lat="52.24123" lon="4.65966">
        <ele>-6</ele>
        <time>2021-03-20T23:25:54Z</time>
      </trkpt>
      <trkpt lat="52.24496" lon="4.66503">
        <ele>-4</ele>
        <time>2021-03-20T23:26:05Z</time>
      </trkpt>
      <trkpt lat="52.25355" lon="4.67733">
        <ele>-5.77</ele>
        <time>2021-03-20T23:26:16Z</time>
      </trkpt>
      <trkpt lat="52.25764" lon="4.68326">
        <ele>-6.12</ele>
        <time>2021-03-20T23:26:27Z</time>
      </trkpt>
      <trkpt lat="52.26269" lon="4.69042">
        <ele>-6.2</ele>
        <time>2021-03-20T23:26:38Z</time>
      </trkpt>
      <trkpt lat="52.26564" lon="4.69468">
        <ele>-5</ele>
        <time>2021-03-20T23:26:49Z</time>
      </trkpt>
      <trkpt lat="52.26712" lon="4.69675">
        <ele>-4</ele>
        <time>2021-03-20T23:27:01Z</time>
      </trkpt>
      <trkpt lat="52.26832" lon="4.69848">
        <ele>-4.05</ele>
        <time>2021-03-20T23:27:12Z</time>
      </trkpt>
      <trkpt lat="52.28822" lon="4.72703">
        <ele>0.48</ele>
        <time>2021-03-20T23:29:29Z</time>
      </trkpt>
      <trkpt lat="52.28852" lon="4.72771">
        <ele>-1.5</ele>
        <time>2021-03-20T23:29:41Z</time>
      </trkpt>
      <trkpt lat="52.28941" lon="4.72935">
        <ele>-2.54</ele>
        <time>2021-03-20T23:29:54Z</time>
      </trkpt>
      <trkpt lat="52.28958" lon="4.72971">
        <ele>-3</ele>
        <time>2021-03-20T23:30:06Z</time>
      </trkpt>
      <trkpt lat="52.29014" lon="4.73075">
        <ele>-2.85</ele>
        <time>2021-03-20T23:30:18Z</time>
      </trkpt>
      <trkpt lat="52.29029" lon="4.73096">
        <ele>-3.47</ele>
        <time>2021-03-20T23:30:30Z</time>
      </trkpt>
      <trkpt lat="52.2906" lon="4.73132">
        <ele>-3.64</ele>
        <time>2021-03-20T23:30:43Z</time>
      </trkpt>
      <trkpt lat="52.29096" lon="4.73163">
        <ele>-2.58</ele>
        <time>2021-03-20T23:30:55Z</time>
      </trkpt>
      <trkpt lat="52.29134" lon="4.73184">
        <ele>-3.26</ele>
        <time>2021-03-20T23:31:07Z</time>
      </trkpt>
      <trkpt lat="52.29157" lon="4.73195">
        <ele>-3.37</ele>
        <time>2021-03-20T23:31:20Z</time>
      </trkpt>
      <trkpt lat="52.29181" lon="4.73203">
        <ele>-3.47</ele>
        <time>2021-03-20T23:31:32Z</time>
      </trkpt>
      <trkpt lat="52.29221" lon="4.73209">
        <ele>-3.63</ele>
        <time>2021-03-20T23:31:44Z</time>
      </trkpt>
      <trkpt lat="52.29238" lon="4.73209">
        <ele>-3.7</ele>
        <time>2021-03-20T23:31:57Z</time>
      </trkpt>
      <trkpt lat="52.29272" lon="4.73205">
        <ele>-3.42</ele>
        <time>2021-03-20T23:32:09Z</time>
      </trkpt>
      <trkpt lat="52.29297" lon="4.73198">
        <ele>-3.72</ele>
        <time>2021-03-20T23:32:21Z</time>
      </trkpt>
      <trkpt lat="52.29397" lon="4.73166">
        <ele>-4.4</ele>
        <time>2021-03-20T23:32:34Z</time>
      </trkpt>
      <trkpt lat="52.29476" lon="4.73144">
        <ele>-3.98</ele>
        <time>2021-03-20T23:32:46Z</time>
      </trkpt>
      <trkpt lat="52.29523" lon="4.73133">
        <ele>-5</ele>
        <time>2021-03-20T23:32:58Z</time>
      </trkpt>
      <trkpt lat="52.2962" lon="4.73122">
        <ele>-4.69</ele>
        <time>2021-03-20T23:33:10Z</time>
      </trkpt>
      <trkpt lat="52.29669" lon="4.73121">
        <ele>-1.43</ele>
        <time>2021-03-20T23:33:23Z</time>
      </trkpt>
      <trkpt lat="52.29739" lon="4.73122">
        <ele>-3.75</ele>
        <time>2021-03-20T23:33:35Z</time>
      </trkpt>
      <trkpt lat="52.29821" lon="4.73129">
        <ele>-4.27</ele>
        <time>2021-03-20T23:33:47Z</time>
      </trkpt>
      <trkpt lat="52.3205" lon="4.73334">
        <ele>-4</ele>
        <time>2021-03-20T23:34:00Z</time>
      </trkpt>
      <trkpt lat="52.32189" lon="4.73346">
        <ele>-6.63</ele>
        <time>2021-03-20T23:34:12Z</time>
      </trkpt>
      <trkpt lat="52.34556" lon="4.73564">
        <ele>-5</ele>
        <time>2021-03-20T23:34:24Z</time>
      </trkpt>
      <trkpt lat="52.34655" lon="4.73575">
        <ele>-5.57</ele>
        <time>2021-03-20T23:34:37Z</time>
      </trkpt>
      <trkpt lat="52.34764" lon="4.73592">
        <ele>-4.64</ele>
        <time>2021-03-20T23:34:49Z</time>
      </trkpt>
      <trkpt lat="52.34935" lon="4.73629">
        <ele>-6</ele>
        <time>2021-03-20T23:35:01Z</time>
      </trkpt>
      <trkpt lat="52.35137" lon="4.73718">
        <ele>-6.05</ele>
        <time>2021-03-20T23:35:04Z</time>
      </trkpt>
      <trkpt lat="52.35184" lon="4.73742">
        <ele>-4</ele>
        <time>2021-03-20T23:35:07Z</time>
      </trkpt>
      <trkpt lat="52.3523" lon="4.73769">
        <ele>-6</ele>
        <time>2021-03-20T23:35:10Z</time>
      </trkpt>
      <trkpt lat="52.35254" lon="4.73788">
        <ele>-6.09</ele>
        <time>2021-03-20T23:35:14Z</time>
      </trkpt>
      <trkpt lat="52.35288" lon="4.73825">
        <ele>-6.05</ele>
        <time>2021-03-20T23:35:17Z</time>
      </trkpt>
      <trkpt lat="52.35305" lon="4.73847">
        <ele>-6.04</ele>
        <time>2021-03-20T23:35:20Z</time>
      </trkpt>
      <trkpt lat="52.35322" lon="4.73874">
        <ele>-6.02</ele>
        <time>2021-03-20T23:35:23Z</time>
      </trkpt>
      <trkpt lat="52.35339" lon="4.73908">
        <ele>-6</ele>
        <time>2021-03-20T23:35:26Z</time>
      </trkpt>
      <trkpt lat="52.35365" lon="4.73968">
        <ele>-5.76</ele>
        <time>2021-03-20T23:35:29Z</time>
      </trkpt>
      <trkpt lat="52.35384" lon="4.74023">
        <ele>-4.02</ele>
        <time>2021-03-20T23:35:32Z</time>
      </trkpt>
      <trkpt lat="52.35414" lon="4.74103">
        <ele>-6.78</ele>
        <time>2021-03-20T23:35:39Z</time>
      </trkpt>
      <trkpt lat="52.35442" lon="4.74158">
        <ele>-4.39</ele>
        <time>2021-03-20T23:35:46Z</time>
      </trkpt>
      <trkpt lat="52.35455" lon="4.74182">
        <ele>-4</ele>
        <time>2021-03-20T23:35:54Z</time>
      </trkpt>
      <trkpt lat="52.35481" lon="4.7422">
        <ele>-4.32</ele>
        <time>2021-03-20T23:36:01Z</time>
      </trkpt>
      <trkpt lat="52.35505" lon="4.74248">
        <ele>-5.19</ele>
        <time>2021-03-20T23:36:08Z</time>
      </trkpt>
      <trkpt lat="52.35543" lon="4.7428">
        <ele>-5</ele>
        <time>2021-03-20T23:36:15Z</time>
      </trkpt>
      <trkpt lat="52.35568" lon="4.74296">
        <ele>-4.88</ele>
        <time>2021-03-20T23:36:22Z</time>
      </trkpt>
      <trkpt lat="52.35589" lon="4.74306">
        <ele>-4.79</ele>
        <time>2021-03-20T23:36:30Z</time>
      </trkpt>
      <trkpt lat="52.35613" lon="4.74314">
        <ele>-4.06</ele>
        <time>2021-03-20T23:36:37Z</time>
      </trkpt>
      <trkpt lat="52.35661" lon="4.74319">
        <ele>-5.31</ele>
        <time>2021-03-20T23:36:44Z</time>
      </trkpt>
      <trkpt lat="52.35709" lon="4.74312">
        <ele>-6.53</ele>
        <time>2021-03-20T23:36:51Z</time>
      </trkpt>
      <trkpt lat="52.35749" lon="4.74296">
        <ele>-7</ele>
        <time>2021-03-20T23:36:59Z</time>
      </trkpt>
      <trkpt lat="52.35785" lon="4.74273">
        <ele>-5.96</ele>
        <time>2021-03-20T23:37:06Z</time>
      </trkpt>
      <trkpt lat="52.35812" lon="4.74248">
        <ele>-5.24</ele>
        <time>2021-03-20T23:37:13Z</time>
      </trkpt>
      <trkpt lat="52.35835" lon="4.74222">
        <ele>-5.93</ele>
        <time>2021-03-20T23:37:20Z</time>
      </trkpt>
      <trkpt lat="52.35858" lon="4.74191">
        <ele>-6.12</ele>
        <time>2021-03-20T23:37:27Z</time>
      </trkpt>
      <trkpt lat="52.35872" lon="4.74168">
        <ele>-7.34</ele>
        <time>2021-03-20T23:37:35Z</time>
      </trkpt>
      <trkpt lat="52.35894" lon="4.74125">
        <ele>-7.81</ele>
        <time>2021-03-20T23:37:42Z</time>
      </trkpt>
      <trkpt lat="52.3591" lon="4.74086">
        <ele>-7.26</ele>
        <time>2021-03-20T23:37:49Z</time>
      </trkpt>
      <trkpt lat="52.35927" lon="4.74026">
        <ele>-7.22</ele>
        <time>2021-03-20T23:37:56Z</time>
      </trkpt>
      <trkpt lat="52.35936" lon="4.73986">
        <ele>-6.44</ele>
        <time>2021-03-20T23:38:04Z</time>
      </trkpt>
      <trkpt lat="52.35946" lon="4.73918">
        <ele>-4.97</ele>
        <time>2021-03-20T23:38:11Z</time>
      </trkpt>
      <trkpt lat="52.35964" lon="4.73682">
        <ele>-3.71</ele>
        <time>2021-03-20T23:38:18Z</time>
      </trkpt>
      <trkpt lat="52.35975" lon="4.73607">
        <ele>-3.77</ele>
        <time>2021-03-20T23:38:25Z</time>
      </trkpt>
      <trkpt lat="52.35988" lon="4.73543">
        <ele>-1.67</ele>
        <time>2021-03-20T23:38:32Z</time>
      </trkpt>
      <trkpt lat="52.35998" lon="4.73507">
        <ele>-1.83</ele>
        <time>2021-03-20T23:38:40Z</time>
      </trkpt>
      <trkpt lat="52.36011" lon="4.7347">
        <ele>-2.77</ele>
        <time>2021-03-20T23:38:47Z</time>
      </trkpt>
      <trkpt lat="52.36036" lon="4.73409">
        <ele>-3.02</ele>
        <time>2021-03-20T23:38:54Z</time>
      </trkpt>
      <trkpt lat="52.36319" lon="4.7287">
        <ele>-1.12</ele>
        <time>2021-03-20T23:39:01Z</time>
      </trkpt>
      <trkpt lat="52.36363" lon="4.72772">
        <ele>-1.85</ele>
        <time>2021-03-20T23:39:09Z</time>
      </trkpt>
      <trkpt lat="52.36953" lon="4.71673">
        <ele>-1</ele>
        <time>2021-03-20T23:39:16Z</time>
      </trkpt>
      <trkpt lat="52.37" lon="4.7158">
        <ele>-3.13</ele>
        <time>2021-03-20T23:39:23Z</time>
      </trkpt>
      <trkpt lat="52.3721" lon="4.71188">
        <ele>1</ele>
        <time>2021-03-20T23:39:30Z</time>
      </trkpt>
      <trkpt lat="52.3725" lon="4.71116">
        <ele>0.82</ele>
        <time>2021-03-20T23:39:37Z</time>
      </trkpt>
      <trkpt lat="52.37276" lon="4.71074">
        <ele>1.38</ele>
        <time>2021-03-20T23:39:45Z</time>
      </trkpt>
      <trkpt lat="52.37302" lon="4.7104">
        <ele>0.66</ele>
        <time>2021-03-20T23:39:52Z</time>
      </trkpt>
      <trkpt lat="52.37341" lon="4.71">
        <ele>2.99</ele>
        <time>2021-03-20T23:39:59Z</time>
      </trkpt>
      <trkpt lat="52.37383" lon="4.70965">
        <ele>0.45</ele>
        <time>2021-03-20T23:40:06Z</time>
      </trkpt>
      <trkpt lat="52.3744" lon="4.70929">
        <ele>-0.17</ele>
        <time>2021-03-20T23:40:14Z</time>
      </trkpt>
      <trkpt lat="52.37457" lon="4.70921">
        <ele>0.91</ele>
        <time>2021-03-20T23:40:21Z</time>
      </trkpt>
      <trkpt lat="52.37507" lon="4.70905">
        <ele>1.86</ele>
        <time>2021-03-20T23:40:28Z</time>
      </trkpt>
      <trkpt lat="52.3756" lon="4.70895">
        <ele>1.9</ele>
        <time>2021-03-20T23:40:35Z</time>
      </trkpt>
      <trkpt lat="52.37619" lon="4.70889">
        <ele>1.7</ele>
        <time>2021-03-20T23:40:42Z</time>
      </trkpt>
      <trkpt lat="52.38041" lon="4.70822">
        <ele>0.73</ele>
        <time>2021-03-20T23:40:50Z</time>
      </trkpt>
      <trkpt lat="52.38147" lon="4.70799">
        <ele>5.47</ele>
        <time>2021-03-20T23:40:57Z</time>
      </trkpt>
      <trkpt lat="52.38625" lon="4.70723">
        <ele>7.49</ele>
        <time>2021-03-20T23:41:04Z</time>
      </trkpt>
      <trkpt lat="52.39008" lon="4.70668">
        <ele>-3</ele>
        <time>2021-03-20T23:41:11Z</time>
      </trkpt>
      <trkpt lat="52.39288" lon="4.70624">
        <ele>-2.63</ele>
        <time>2021-03-20T23:41:19Z</time>
      </trkpt>
      <trkpt lat="52.40154" lon="4.70482">
        <ele>-2.27</ele>
        <time>2021-03-20T23:41:26Z</time>
      </trkpt>
      <trkpt lat="52.40271" lon="4.70454">
        <ele>1.5</ele>
        <time>2021-03-20T23:41:33Z</time>
      </trkpt>
      <trkpt lat="52.40386" lon="4.70419">
        <ele>-0.91</ele>
        <time>2021-03-20T23:41:40Z</time>
      </trkpt>
      <trkpt lat="52.4053" lon="4.70358">
        <ele>1.12</ele>
        <time>2021-03-20T23:41:47Z</time>
      </trkpt>
      <trkpt lat="52.4137" lon="4.69916">
        <ele>0.72</ele>
        <time>2021-03-20T23:41:55Z</time>
      </trkpt>
      <trkpt lat="52.41456" lon="4.69868">
        <ele>0.17</ele>
        <time>2021-03-20T23:42:02Z</time>
      </trkpt>
      <trkpt lat="52.41535" lon="4.69818">
        <ele>-0.12</ele>
        <time>2021-03-20T23:42:09Z</time>
      </trkpt>
      <trkpt lat="52.41649" lon="4.69738">
        <ele>-1.28</ele>
        <time>2021-03-20T23:42:16Z</time>
      </trkpt>
      <trkpt lat="52.41729" lon="4.69674">
        <ele>-1.4</ele>
        <time>2021-03-20T23:42:24Z</time>
      </trkpt>
      <trkpt lat="52.41814" lon="4.69593">
        <ele>1.13</ele>
        <time>2021-03-20T23:42:31Z</time>
      </trkpt>
      <trkpt lat="52.41889" lon="4.69515">
        <ele>0.99</ele>
        <time>2021-03-20T23:42:38Z</time>
      </trkpt>
      <trkpt lat="52.42037" lon="4.6932">
        <ele>1.61</ele>
        <time>2021-03-20T23:42:45Z</time>
      </trkpt>
      <trkpt lat="52.42139" lon="4.69166">
        <ele>2.01</ele>
        <time>2021-03-20T23:42:52Z</time>
      </trkpt>
      <trkpt lat="52.42223" lon="4.6902">
        <ele>1</ele>
        <time>2021-03-20T23:43:00Z</time>
      </trkpt>
      <trkpt lat="52.42385" lon="4.68719">
        <ele>-3.87</ele>
        <time>2021-03-20T23:43:07Z</time>
      </trkpt>
      <trkpt lat="52.42453" lon="4.68596">
        <ele>-0.06</ele>
        <time>2021-03-20T23:43:14Z</time>
      </trkpt>
      <trkpt lat="52.42526" lon="4.68476">
        <ele>2.7</ele>
        <time>2021-03-20T23:43:21Z</time>
      </trkpt>
      <trkpt lat="52.42585" lon="4.68386">
        <ele>1.85</ele>
        <time>2021-03-20T23:43:29Z</time>
      </trkpt>
      <trkpt lat="52.42647" lon="4.68299">
        <ele>1</ele>
        <time>2021-03-20T23:43:36Z</time>
      </trkpt>
      <trkpt lat="52.42724" lon="4.68198">
        <ele>-0.77</ele>
        <time>2021-03-20T23:43:43Z</time>
      </trkpt>
      <trkpt lat="52.42753" lon="4.68163">
        <ele>-0.05</ele>
        <time>2021-03-20T23:43:50Z</time>
      </trkpt>
      <trkpt lat="52.43063" lon="4.67829">
        <ele>-0.38</ele>
        <time>2021-03-20T23:43:57Z</time>
      </trkpt>
      <trkpt lat="52.43381" lon="4.67499">
        <ele>1</ele>
        <time>2021-03-20T23:44:05Z</time>
      </trkpt>
      <trkpt lat="52.43624" lon="4.67243">
        <ele>1</ele>
        <time>2021-03-20T23:44:12Z</time>
      </trkpt>
      <trkpt lat="52.43682" lon="4.67205">
        <ele>-0.3</ele>
        <time>2021-03-20T23:44:15Z</time>
      </trkpt>
      <trkpt lat="52.43772" lon="4.67121">
        <ele>1</ele>
        <time>2021-03-20T23:44:19Z</time>
      </trkpt>
      <trkpt lat="52.43815" lon="4.67087">
        <ele>0.43</ele>
        <time>2021-03-20T23:44:22Z</time>
      </trkpt>
      <trkpt lat="52.43841" lon="4.67072">
        <ele>1.65</ele>
        <time>2021-03-20T23:44:26Z</time>
      </trkpt>
      <trkpt lat="52.43865" lon="4.67059">
        <ele>4.01</ele>
        <time>2021-03-20T23:44:29Z</time>
      </trkpt>
      <trkpt lat="52.43903" lon="4.67045">
        <ele>4.29</ele>
        <time>2021-03-20T23:44:33Z</time>
      </trkpt>
      <trkpt lat="52.43969" lon="4.67028">
        <ele>-3.74</ele>
        <time>2021-03-20T23:44:36Z</time>
      </trkpt>
      <trkpt lat="52.44033" lon="4.67015">
        <ele>0.19</ele>
        <time>2021-03-20T23:44:40Z</time>
      </trkpt>
      <trkpt lat="52.44095" lon="4.66993">
        <ele>2.76</ele>
        <time>2021-03-20T23:44:43Z</time>
      </trkpt>
      <trkpt lat="52.44147" lon="4.66962">
        <ele>-1.25</ele>
        <time>2021-03-20T23:44:47Z</time>
      </trkpt>
      <trkpt lat="52.44197" lon="4.66921">
        <ele>-2.68</ele>
        <time>2021-03-20T23:44:50Z</time>
      </trkpt>
      <trkpt lat="52.44225" lon="4.66892">
        <ele>-0.76</ele>
        <time>2021-03-20T23:44:54Z</time>
      </trkpt>
      <trkpt lat="52.44256" lon="4.66852">
        <ele>0.16</ele>
        <time>2021-03-20T23:44:57Z</time>
      </trkpt>
      <trkpt lat="52.44304" lon="4.66775">
        <ele>1</ele>
        <time>2021-03-20T23:45:01Z</time>
      </trkpt>
      <trkpt lat="52.44338" lon="4.66706">
        <ele>2.11</ele>
        <time>2021-03-20T23:45:04Z</time>
      </trkpt>
      <trkpt lat="52.44425" lon="4.66477">
        <ele>-0.81</ele>
        <time>2021-03-20T23:45:07Z</time>
      </trkpt>
      <trkpt lat="52.44458" lon="4.66407">
        <ele>-0.35</ele>
        <time>2021-03-20T23:45:11Z</time>
      </trkpt>
      <trkpt lat="52.445" lon="4.66341">
        <ele>2</ele>
        <time>2021-03-20T23:45:14Z</time>
      </trkpt>
      <trkpt lat="52.4453" lon="4.66302">
        <ele>3.06</ele>
        <time>2021-03-20T23:45:18Z</time>
      </trkpt>
      <trkpt lat="52.44586" lon="4.66243">
        <ele>2.83</ele>
        <time>2021-03-20T23:45:21Z</time>
      </trkpt>
      <trkpt lat="52.44663" lon="4.6617">
        <ele>1</ele>
        <time>2021-03-20T23:45:25Z</time>
      </trkpt>
      <trkpt lat="52.44771" lon="4.66079">
        <ele>3</ele>
        <time>2021-03-20T23:45:28Z</time>
      </trkpt>
      <trkpt lat="52.44877" lon="4.66002">
        <ele>5.2</ele>
        <time>2021-03-20T23:45:32Z</time>
      </trkpt>
      <trkpt lat="52.44985" lon="4.65933">
        <ele>6.04</ele>
        <time>2021-03-20T23:45:35Z</time>
      </trkpt>
      <trkpt lat="52.45028" lon="4.6592">
        <ele>4.88</ele>
        <time>2021-03-20T23:45:38Z</time>
      </trkpt>
      <trkpt lat="52.45076" lon="4.65901">
        <ele>5.4</ele>
        <time>2021-03-20T23:45:41Z</time>
      </trkpt>
      <trkpt lat="52.4511" lon="4.65897">
        <ele>4.74</ele>
        <time>2021-03-20T23:45:44Z</time>
      </trkpt>
      <trkpt lat="52.45146" lon="4.65904">
        <ele>4.07</ele>
        <time>2021-03-20T23:45:47Z</time>
      </trkpt>
      <trkpt lat="52.45301" lon="4.65951">
        <ele>1.22</ele>
        <time>2021-03-20T23:45:50Z</time>
      </trkpt>
      <trkpt lat="52.45338" lon="4.65954">
        <ele>0.18</ele>
        <time>2021-03-20T23:45:53Z</time>
      </trkpt>
      <trkpt lat="52.4537" lon="4.65948">
        <ele>1</ele>
        <time>2021-03-20T23:45:56Z</time>
      </trkpt>
      <trkpt lat="52.45394" lon="4.65938">
        <ele>0.86</ele>
        <time>2021-03-20T23:45:58Z</time>
      </trkpt>
      <trkpt lat="52.45453" lon="4.65899">
        <ele>0.94</ele>
        <time>2021-03-20T23:46:01Z</time>
      </trkpt>
      <trkpt lat="52.45499" lon="4.65864">
        <ele>1.05</ele>
        <time>2021-03-20T23:46:04Z</time>
      </trkpt>
      <trkpt lat="52.45649" lon="4.65771">
        <ele>1.09</ele>
        <time>2021-03-20T23:46:07Z</time>
      </trkpt>
      <trkpt lat="52.45686" lon="4.65754">
        <ele>1.96</ele>
        <time>2021-03-20T23:46:10Z</time>
      </trkpt>
      <trkpt lat="52.45795" lon="4.65715">
        <ele>2.4</ele>
        <time>2021-03-20T23:46:13Z</time>
      </trkpt>
      <trkpt lat="52.45823" lon="4.65702">
        <ele>0.67</ele>
        <time>2021-03-20T23:46:16Z</time>
      </trkpt>
      <trkpt lat="52.45829" lon="4.65695">
        <ele>0.19</ele>
        <time>2021-03-20T23:46:19Z</time>
      </trkpt>
      <trkpt lat="52.45832" lon="4.65686">
        <ele>0.03</ele>
        <time>2021-03-20T23:46:22Z</time>
      </trkpt>
      <trkpt lat="52.45835" lon="4.65669">
        <ele>2</ele>
        <time>2021-03-20T23:46:25Z</time>
      </trkpt>
      <trkpt lat="52.45793" lon="4.65371">
        <ele>4.16</ele>
        <time>2021-03-20T23:46:27Z</time>
      </trkpt>
      <trkpt lat="52.4579" lon="4.65333">
        <ele>4</ele>
        <time>2021-03-20T23:46:30Z</time>
      </trkpt>
      <trkpt lat="52.45792" lon="4.65275">
        <ele>3.96</ele>
        <time>2021-03-20T23:46:33Z</time>
      </trkpt>
      <trkpt lat="52.45795" lon="4.65238">
        <ele>3.62</ele>
        <time>2021-03-20T23:46:36Z</time>
      </trkpt>
      <trkpt lat="52.45801" lon="4.65204">
        <ele>3.16</ele>
        <time>2021-03-20T23:46:39Z</time>
      </trkpt>
      <trkpt lat="52.45809" lon="4.65169">
        <ele>3.13</ele>
        <time>2021-03-20T23:46:42Z</time>
      </trkpt>
      <trkpt lat="52.4582" lon="4.65135">
        <ele>3</ele>
        <time>2021-03-20T23:46:45Z</time>
      </trkpt>
      <trkpt lat="52.45845" lon="4.65079">
        <ele>1.92</ele>
        <time>2021-03-20T23:46:48Z</time>
      </trkpt>
      <trkpt lat="52.4601" lon="4.64745">
        <ele>2.67</ele>
        <time>2021-03-20T23:46:56Z</time>
      </trkpt>
      <trkpt lat="52.4605" lon="4.64671">
        <ele>5.4</ele>
        <time>2021-03-20T23:47:04Z</time>
      </trkpt>
      <trkpt lat="52.46074" lon="4.64645">
        <ele>8.39</ele>
        <time>2021-03-20T23:47:12Z</time>
      </trkpt>
      <trkpt lat="52.46094" lon="4.64628">
        <ele>8.6</ele>
        <time>2021-03-20T23:47:20Z</time>
      </trkpt>
      <trkpt lat="52.46134" lon="4.64604">
        <ele>8</ele>
        <time>2021-03-20T23:47:28Z</time>
      </trkpt>
      <trkpt lat="52.46154" lon="4.64587">
        <ele>7.39</ele>
        <time>2021-03-20T23:47:36Z</time>
      </trkpt>
      <trkpt lat="52.46173" lon="4.64566">
        <ele>6.56</ele>
        <time>2021-03-20T23:47:44Z</time>
      </trkpt>
      <trkpt lat="52.46198" lon="4.64526">
        <ele>7.73</ele>
        <time>2021-03-20T23:47:52Z</time>
      </trkpt>
      <trkpt lat="52.46207" lon="4.64506">
        <ele>7.44</ele>
        <time>2021-03-20T23:48:00Z</time>
      </trkpt>
      <trkpt lat="52.46225" lon="4.64455">
        <ele>7.65</ele>
        <time>2021-03-20T23:48:08Z</time>
      </trkpt>
      <trkpt lat="52.46236" lon="4.64392">
        <ele>8.52</ele>
        <time>2021-03-20T23:48:16Z</time>
      </trkpt>
      <trkpt lat="52.46237" lon="4.64356">
        <ele>7.92</ele>
        <time>2021-03-20T23:48:24Z</time>
      </trkpt>
      <trkpt lat="52.46233" lon="4.64031">
        <ele>10</ele>
        <time>2021-03-20T23:48:32Z</time>
      </trkpt>
      <trkpt lat="52.46233" lon="4.63828">
        <ele>6.09</ele>
        <time>2021-03-20T23:48:40Z</time>
      </trkpt>
      <trkpt lat="52.46239" lon="4.63511">
        <ele>4.77</ele>
        <time>2021-03-20T23:48:48Z</time>
      </trkpt>
      <trkpt lat="52.46238" lon="4.63462">
        <ele>4.45</ele>
        <time>2021-03-20T23:48:56Z</time>
      </trkpt>
      <trkpt lat="52.46232" lon="4.63397">
        <ele>4.66</ele>
        <time>2021-03-20T23:49:04Z</time>
      </trkpt>
      <trkpt lat="52.46212" lon="4.63293">
        <ele>5.13</ele>
        <time>2021-03-20T23:49:12Z</time>
      </trkpt>
      <trkpt lat="52.46212" lon="4.63257">
        <ele>5.61</ele>
        <time>2021-03-20T23:49:20Z</time>
      </trkpt>
      <trkpt lat="52.46214" lon="4.63226">
        <ele>5.61</ele>
        <time>2021-03-20T23:49:29Z</time>
      </trkpt>
      <trkpt lat="52.46219" lon="4.63213">
        <ele>4.92</ele>
        <time>2021-03-20T23:49:37Z</time>
      </trkpt>
      <trkpt lat="52.46246" lon="4.63154">
        <ele>2.6</ele>
        <time>2021-03-20T23:49:46Z</time>
      </trkpt>
      <trkpt lat="52.46286" lon="4.63089">
        <ele>3.68</ele>
        <time>2021-03-20T23:49:54Z</time>
      </trkpt>
      <trkpt lat="52.46314" lon="4.63031">
        <ele>2.2</ele>
        <time>2021-03-20T23:50:03Z</time>
      </trkpt>
      <trkpt lat="52.46324" lon="4.63005">
        <ele>2.51</ele>
        <time>2021-03-20T23:50:11Z</time>
      </trkpt>
      <trkpt lat="52.46349" lon="4.62919">
        <ele>2.79</ele>
        <time>2021-03-20T23:50:20Z</time>
      </trkpt>
      <trkpt lat="52.46355" lon="4.62878">
        <ele>2.05</ele>
        <time>2021-03-20T23:50:28Z</time>
      </trkpt>
      <trkpt lat="52.46358" lon="4.62833">
        <ele>1.24</ele>
        <time>2021-03-20T23:50:36Z</time>
      </trkpt>
      <trkpt lat="52.46355" lon="4.62122">
        <ele>2.91</ele>
        <time>2021-03-20T23:50:45Z</time>
      </trkpt>
      <trkpt lat="52.46343" lon="4.6085">
        <ele>6.66</ele>
        <time>2021-03-20T23:50:53Z</time>
      </trkpt>
      <trkpt lat="52.46339" lon="4.6079">
        <ele>9.78</ele>
        <time>2021-03-20T23:51:02Z</time>
      </trkpt>
      <trkpt lat="52.46338" lon="4.60738">
        <ele>9.99</ele>
        <time>2021-03-20T23:51:10Z</time>
      </trkpt>
      <trkpt lat="52.46331" lon="4.60677">
        <ele>11.69</ele>
        <time>2021-03-20T23:51:19Z</time>
      </trkpt>
      <trkpt lat="52.46312" lon="4.60602">
        <ele>10.44</ele>
        <time>2021-03-20T23:51:27Z</time>
      </trkpt>
      <trkpt lat="52.46321" lon="4.60595">
        <ele>12.37</ele>
        <time>2021-03-20T23:51:36Z</time>
      </trkpt>
      <trkpt lat="52.46329" lon="4.60586">
        <ele>14.12</ele>
        <time>2021-03-20T23:51:46Z</time>
      </trkpt>
      <trkpt lat="52.46335" lon="4.60576">
        <ele>14.5</ele>
        <time>2021-03-20T23:51:55Z</time>
      </trkpt>
      <trkpt lat="52.4634" lon="4.60562">
        <ele>12.53</ele>
        <time>2021-03-20T23:52:04Z</time>
      </trkpt>
      <trkpt lat="52.46342" lon="4.60539">
        <ele>10.78</ele>
        <time>2021-03-20T23:52:14Z</time>
      </trkpt>
      <trkpt lat="52.4634" lon="4.60245">
        <ele>3.64</ele>
        <time>2021-03-20T23:52:23Z</time>
      </trkpt>
      <trkpt lat="52.46338" lon="4.60218">
        <ele>3</ele>
        <time>2021-03-20T23:52:33Z</time>
      </trkpt>
      <trkpt lat="52.46327" lon="4.60113">
        <ele>2.29</ele>
        <time>2021-03-20T23:52:42Z</time>
      </trkpt>
      <trkpt lat="52.46326" lon="4.6008">
        <ele>2.38</ele>
        <time>2021-03-20T23:52:51Z</time>
      </trkpt>
      <trkpt lat="52.46335" lon="4.59725">
        <ele>5.15</ele>
        <time>2021-03-20T23:53:01Z</time>
      </trkpt>
      <trkpt lat="52.46335" lon="4.59506">
        <ele>8.62</ele>
        <time>2021-03-20T23:53:10Z</time>
      </trkpt>
      <trkpt lat="52.46348" lon="4.59393">
        <ele>5.41</ele>
        <time>2021-03-20T23:53:19Z</time>
      </trkpt>
      <trkpt lat="52.46348" lon="4.5916">
        <ele>6.93</ele>
        <time>2021-03-20T23:53:29Z</time>
      </trkpt>
      <trkpt lat="52.4635" lon="4.59052">
        <ele>7.72</ele>
        <time>2021-03-20T23:53:38Z</time>
      </trkpt>
      <trkpt lat="52.46349" lon="4.58912">
        <ele>7.47</ele>
        <time>2021-03-20T23:53:47Z</time>
      </trkpt>
      <trkpt lat="52.46344" lon="4.58763">
        <ele>5.05</ele>
        <time>2021-03-20T23:53:57Z</time>
      </trkpt>
    </trkseg>
  </trk>
</gpx>